
Distance (Route):
Temperature : 16.7°C
Humidity : 76.7%
Pressure : 0hPa| Receiver | Frames | First received | Last received |
|---|---|---|---|
| OE3MUC-15 | 348 | 2026-09-05 05:55:05 | 2026-09-05 07:16:27 |
| DO3MHA-11 | 329 | 2026-09-05 05:43:14 | 2026-09-05 07:12:57 |
| SQ6EMJ | 318 | 2026-09-05 06:02:03 | 2026-09-05 07:14:02 |
| OE5MMP-10 | 260 | 2026-09-05 05:46:06 | 2026-09-05 07:11:45 |
| PETON7-10 | 177 | 2026-09-05 05:53:22 | 2026-09-05 07:13:34 |
| PG1ADW-2 | 159 | 2026-09-05 05:49:30 | 2026-09-05 07:12:55 |
| KRY50SP | 149 | 2026-09-05 06:18:34 | 2026-09-05 07:07:42 |
| OK1ALN | 140 | 2026-09-05 05:32:32 | 2026-09-05 07:18:40 |
| OM5KV | 137 | 2026-09-05 06:04:25 | 2026-09-05 07:12:24 |
| OE5DRO-10 | 130 | 2026-09-05 05:50:08 | 2026-09-05 07:13:07 |
| SONDE2-11 | 101 | 2026-09-05 05:46:57 | 2026-09-05 07:13:53 |
| OK1SLM-15 | 98 | 2026-09-05 05:57:24 | 2026-09-05 07:13:24 |
| EDDB2-11 | 95 | 2026-09-05 05:52:15 | 2026-09-05 07:11:55 |
| OE5DXL-15 | 91 | 2026-09-05 06:03:44 | 2026-09-05 07:12:05 |
| POL2MAQ | 82 | 2026-09-05 05:57:39 | 2026-09-05 07:16:21 |
| EDDB2-12 | 81 | 2026-09-05 05:53:11 | 2026-09-05 07:09:14 |
| OE3OSB-13 | 80 | 2026-09-05 05:58:34 | 2026-09-05 07:16:46 |
| NBG1-10 | 73 | 2026-09-05 05:48:51 | 2026-09-05 07:10:43 |
| HA6NAB-11 | 63 | 2026-09-05 06:24:22 | 2026-09-05 07:08:38 |
| OE3JTB-15 | 56 | 2026-09-05 05:37:41 | 2026-09-05 07:19:19 |
| SP3BTT-10 | 55 | 2026-09-05 05:48:32 | 2026-09-05 06:57:42 |
| S52SK | 50 | 2026-09-05 06:04:07 | 2026-09-05 07:09:41 |
| OK1HGA | 48 | 2026-09-05 07:36:53 | 2026-09-05 08:42:29 |
| 13BRC | 42 | 2026-09-05 06:19:22 | 2026-09-05 07:10:49 |
| POL1PZ | 39 | 2026-09-05 06:02:54 | 2026-09-05 07:15:58 |
| SP3WXH-11 | 33 | 2026-09-05 06:39:50 | 2026-09-05 07:09:49 |
| DB0UT-7 | 32 | 2026-09-05 06:21:42 | 2026-09-05 07:07:31 |
| SP6BVK | 30 | 2026-09-05 06:50:06 | 2026-09-05 07:17:21 |
| DC4HF-4 | 21 | 2026-09-05 06:48:07 | 2026-09-05 07:05:32 |
| SONCRA | 7 | 2026-09-05 06:59:58 | 2026-09-05 07:05:08 |
| DH8WE-5 | 5 | 2026-09-05 05:42:01 | 2026-09-05 05:48:09 |
| ANDY1245 | 4 | 2026-09-05 05:42:12 | 2026-09-05 05:47:38 |
| DG1MFX-10 | 2 | 2026-09-05 06:45:19 | 2026-09-05 06:56:02 |
| Receiver | Date | Latitude | Longitude | Direction | Speed | Altitude | Climb | Temperature | Humidity | Pressure | Voltage | Killtimer | Uptime | BKT | XDATA |
|---|---|---|---|---|---|---|---|---|---|---|---|---|---|---|---|
| OK1HGA | 2026-09-05 08:42:29 | 49.98007 | 16.20448 | 353° | 2km/h | 349m | -0.3m/s | 16.7°C | 76.7% | 0hPa | 2.7V | 06:52:00 | 00:00:00 | 00:00:00 | |
| OK1HGA | 2026-09-05 08:42:09 | 49.98008 | 16.20447 | 0° | 0km/h | 354m | -0.1m/s | 17.8°C | 74.0% | 0hPa | 2.7V | 06:52:00 | 00:00:00 | 00:00:00 | |
| OK1HGA | 2026-09-05 08:41:50 | 49.98008 | 16.20449 | 0° | 0km/h | 350m | 0.1m/s | 16.9°C | 77.4% | 0hPa | 2.7V | 06:53:00 | 00:00:00 | 00:00:00 | |
| OK1HGA | 2026-09-05 08:41:28 | 49.98008 | 16.20449 | 0° | 0km/h | 348m | -0.2m/s | 16.7°C | 0% | 0hPa | 2.7V | 06:53:00 | 00:00:00 | 00:00:00 | |
| OK1HGA | 2026-09-05 08:41:08 | 49.98006 | 16.20448 | 0° | 0km/h | 350m | 0.0m/s | 0°C | 0% | 0hPa | 2.7V | 00:00:00 | 00:00:00 | 00:00:00 | |
| OK1HGA | 2026-09-05 08:40:48 | 49.98005 | 16.20449 | 0° | 0km/h | 355m | 0.0m/s | 0°C | 0% | 0hPa | 2.7V | 00:00:00 | 00:00:00 | 00:00:00 | |
| OK1HGA | 2026-09-05 07:51:37 | 49.97788 | 16.21060 | 0° | 0km/h | 357m | 0.0m/s | 15.1°C | 88.6% | 0hPa | 2.7V | 07:43:00 | 00:00:00 | 00:00:00 | |
| OK1HGA | 2026-09-05 07:51:16 | 49.97788 | 16.21061 | 0° | 0km/h | 356m | 0.0m/s | 14.5°C | 95.4% | 0hPa | 2.7V | 07:43:00 | 00:00:00 | 00:00:00 | |
| OK1HGA | 2026-09-05 07:50:56 | 49.97788 | 16.21058 | 0° | 0km/h | 358m | 0.1m/s | 14.7°C | 91.3% | 0hPa | 2.7V | 07:44:00 | 00:00:00 | 00:00:00 | |
| OK1HGA | 2026-09-05 07:50:35 | 49.97787 | 16.21057 | 0° | 0km/h | 364m | 0.1m/s | 14.8°C | 90.2% | 0hPa | 2.7V | 07:44:00 | 00:00:00 | 00:00:00 | |
| OK1HGA | 2026-09-05 07:50:14 | 49.97786 | 16.21056 | 0° | 0km/h | 367m | -0.0m/s | 14.5°C | 93.1% | 0hPa | 2.7V | 07:44:00 | 00:00:00 | 00:00:00 | |
| OK1HGA | 2026-09-05 07:49:53 | 49.97788 | 16.21059 | 0° | 0km/h | 363m | 0.0m/s | 14.4°C | 94.9% | 0hPa | 2.7V | 07:45:00 | 00:00:00 | 00:00:00 | |
| OK1HGA | 2026-09-05 07:49:32 | 49.97789 | 16.21061 | 0° | 0km/h | 364m | 0.0m/s | 14.6°C | 92.9% | 0hPa | 2.7V | 07:45:00 | 00:00:00 | 00:00:00 | |
| OK1HGA | 2026-09-05 07:49:11 | 49.97787 | 16.21056 | 0° | 0km/h | 366m | 0.1m/s | 14.8°C | 89.5% | 0hPa | 2.7V | 07:46:00 | 00:00:00 | 00:00:00 | |
| OK1HGA | 2026-09-05 07:48:50 | 49.97788 | 16.21056 | 0° | 0km/h | 367m | 0.1m/s | 15.0°C | 87.7% | 0hPa | 2.7V | 07:46:00 | 00:00:00 | 00:00:00 | |
| OK1HGA | 2026-09-05 07:48:29 | 49.97788 | 16.21058 | 0° | 0km/h | 367m | 0.1m/s | 15.0°C | 87.0% | 0hPa | 2.7V | 07:47:00 | 00:00:00 | 00:00:00 | |
| OK1HGA | 2026-09-05 07:48:08 | 49.97788 | 16.21058 | 0° | 0km/h | 365m | -0.1m/s | 15.1°C | 85.7% | 0hPa | 2.7V | 07:47:00 | 00:00:00 | 00:00:00 | |
| OK1HGA | 2026-09-05 07:47:48 | 49.97788 | 16.21058 | 0° | 0km/h | 366m | 0.1m/s | 14.8°C | 89.2% | 0hPa | 2.7V | 07:47:00 | 00:00:00 | 00:00:00 | |
| OK1HGA | 2026-09-05 07:47:27 | 49.97787 | 16.21057 | 0° | 0km/h | 364m | 0.1m/s | 14.7°C | 89.4% | 0hPa | 2.7V | 07:48:00 | 00:00:00 | 00:00:00 | |
| OK1HGA | 2026-09-05 07:47:06 | 49.97787 | 16.21056 | 0° | 0km/h | 365m | -0.1m/s | 15.0°C | 86.6% | 0hPa | 2.7V | 07:48:00 | 00:00:00 | 00:00:00 | |
| OK1HGA | 2026-09-05 07:46:45 | 49.97788 | 16.21056 | 0° | 0km/h | 365m | 0.0m/s | 14.8°C | 89.0% | 0hPa | 2.7V | 07:49:00 | 00:00:00 | 00:00:00 | |
| OK1HGA | 2026-09-05 07:46:24 | 49.97788 | 16.21056 | 0° | 0km/h | 363m | 0.0m/s | 14.6°C | 90.8% | 0hPa | 2.7V | 07:49:00 | 00:00:00 | 00:00:00 | |
| OK1HGA | 2026-09-05 07:46:04 | 49.97789 | 16.21057 | 0° | 0km/h | 361m | -0.0m/s | 14.8°C | 89.7% | 0hPa | 2.7V | 07:49:00 | 00:00:00 | 00:00:00 | |
| OK1HGA | 2026-09-05 07:45:43 | 49.97788 | 16.21056 | 0° | 0km/h | 361m | -0.1m/s | 14.7°C | 90.8% | 0hPa | 2.7V | 07:49:00 | 00:00:00 | 00:00:00 | |
| OK1HGA | 2026-09-05 07:45:22 | 49.97788 | 16.21056 | 0° | 0km/h | 360m | 0.0m/s | 15.0°C | 87.8% | 0hPa | 2.7V | 07:49:00 | 00:00:00 | 00:00:00 | |
| OK1HGA | 2026-09-05 07:45:01 | 49.97788 | 16.21056 | 0° | 0km/h | 360m | -0.1m/s | 15.1°C | 84.8% | 0hPa | 2.7V | 07:50:00 | 00:00:00 | 00:00:00 | |
| OK1HGA | 2026-09-05 07:44:41 | 49.97787 | 16.21056 | 0° | 0km/h | 361m | 0.0m/s | 14.9°C | 87.5% | 0hPa | 2.7V | 07:50:00 | 00:00:00 | 00:00:00 | |
| OK1HGA | 2026-09-05 07:44:20 | 49.97786 | 16.21056 | 0° | 0km/h | 363m | -0.1m/s | 14.6°C | 92.8% | 0hPa | 2.7V | 07:50:00 | 00:00:00 | 00:00:00 | |
| OK1HGA | 2026-09-05 07:44:00 | 49.97786 | 16.21055 | 0° | 0km/h | 364m | 0.0m/s | 14.5°C | 93.0% | 0hPa | 2.7V | 00:00:00 | 00:00:00 | 00:00:00 | |
| OK1HGA | 2026-09-05 07:43:40 | 49.97788 | 16.21055 | 0° | 0km/h | 362m | 0.0m/s | 14.6°C | 91.4% | 0hPa | 2.7V | 00:00:00 | 00:00:00 | 00:00:00 | |
| OK1HGA | 2026-09-05 07:43:19 | 49.97788 | 16.21056 | 0° | 0km/h | 363m | -0.0m/s | 14.3°C | 94.3% | 0hPa | 2.7V | 07:52:00 | 00:00:00 | 00:00:00 | |
| OK1HGA | 2026-09-05 07:42:59 | 49.97788 | 16.21056 | 0° | 0km/h | 361m | -0.0m/s | 14.0°C | 97.1% | 0hPa | 2.7V | 07:52:00 | 00:00:00 | 00:00:00 | |
| OK1HGA | 2026-09-05 07:42:38 | 49.97788 | 16.21056 | 0° | 0km/h | 362m | -0.2m/s | 14.6°C | 92.2% | 0hPa | 2.7V | 07:52:00 | 00:00:00 | 00:00:00 | |
| OK1HGA | 2026-09-05 07:42:18 | 49.97787 | 16.21057 | 0° | 0km/h | 361m | 0.1m/s | 14.7°C | 90.9% | 0hPa | 2.7V | 07:53:00 | 00:00:00 | 00:00:00 | |
| OK1HGA | 2026-09-05 07:41:57 | 49.97789 | 16.21058 | 0° | 0km/h | 358m | 0.0m/s | 14.3°C | 94.7% | 0hPa | 2.7V | 07:53:00 | 00:00:00 | 00:00:00 | |
| OK1HGA | 2026-09-05 07:41:36 | 49.97789 | 16.21058 | 0° | 0km/h | 354m | -0.1m/s | 14.2°C | 95.4% | 0hPa | 2.7V | 07:54:00 | 00:00:00 | 00:00:00 | |
| OK1HGA | 2026-09-05 07:41:15 | 49.97788 | 16.21057 | 0° | 0km/h | 358m | -0.1m/s | 14.3°C | 94.7% | 0hPa | 2.7V | 07:54:00 | 00:00:00 | 00:00:00 | |
| OK1HGA | 2026-09-05 07:40:47 | 49.97788 | 16.21058 | 0° | 0km/h | 364m | -0.1m/s | 14.6°C | 90.9% | 0hPa | 2.7V | 07:54:00 | 00:00:00 | 00:00:00 | |
| OK1HGA | 2026-09-05 07:39:59 | 49.97790 | 16.21058 | 0° | 0km/h | 364m | -0.0m/s | 14.4°C | 95.0% | 0hPa | 2.7V | 07:55:00 | 00:00:00 | 00:00:00 | |
| OK1HGA | 2026-09-05 07:39:40 | 49.97790 | 16.21059 | 0° | 0km/h | 365m | 0.0m/s | 14.7°C | 91.2% | 0hPa | 2.7V | 07:55:00 | 00:00:00 | 00:00:00 | |
| OK1HGA | 2026-09-05 07:39:19 | 49.97789 | 16.21058 | 0° | 0km/h | 365m | -0.0m/s | 14.9°C | 89.7% | 0hPa | 2.7V | 07:55:00 | 00:00:00 | 00:00:00 | |
| OK1HGA | 2026-09-05 07:38:59 | 49.97788 | 16.21058 | 0° | 0km/h | 365m | 0.1m/s | 14.9°C | 89.5% | 0hPa | 2.7V | 07:56:00 | 00:00:00 | 00:00:00 | |
| OK1HGA | 2026-09-05 07:38:38 | 49.97789 | 16.21059 | 0° | 0km/h | 364m | 0.0m/s | 14.9°C | 87.6% | 0hPa | 2.7V | 07:56:00 | 00:00:00 | 00:00:00 | |
| OK1HGA | 2026-09-05 07:38:18 | 49.97788 | 16.21058 | 0° | 0km/h | 364m | 0.0m/s | 0°C | 0% | 0hPa | 2.7V | 07:56:00 | 00:00:00 | 00:00:00 | |
| OK1HGA | 2026-09-05 07:37:57 | 49.97788 | 16.21055 | 0° | 0km/h | 364m | -0.0m/s | 0°C | 0% | 0hPa | 2.7V | 07:57:00 | 00:00:00 | 00:00:00 | |
| OK1HGA | 2026-09-05 07:37:37 | 49.97788 | 16.21055 | 0° | 0km/h | 365m | -0.0m/s | 0°C | 0% | 0hPa | 2.7V | 07:57:00 | 00:00:00 | 00:00:00 | |
| OK1HGA | 2026-09-05 07:37:15 | 49.97787 | 16.21056 | 0° | 0km/h | 365m | 0.1m/s | 0°C | 0% | 0hPa | 2.7V | 00:00:00 | 00:00:00 | 00:00:00 | |
| OK1HGA | 2026-09-05 07:36:53 | 49.97787 | 16.21056 | 0° | 0km/h | 366m | 0.0m/s | 0°C | 0% | 0hPa | 2.7V | 00:00:00 | 00:00:00 | 00:00:00 | |
| OE3JTB-15 | 2026-09-05 07:19:19 | 49.97887 | 16.20269 | 111° | 38km/h | 1251m | -16.5m/s | 8.5°C | 98.1% | 0hPa | 2.7V | 00:00:00 | 00:00:00 | 00:00:00 | |
| OE3JTB-15 | 2026-09-05 07:19:17 | 49.97895 | 16.20241 | 111° | 38km/h | 1283m | -16.6m/s | 8.2°C | 95.7% | 0hPa | 2.7V | 00:00:00 | 02:16:31 | 00:00:00 | |
| OE3JTB-15 | 2026-09-05 07:19:15 | 49.97901 | 16.20214 | 114° | 38km/h | 1316m | -16.4m/s | 7.9°C | 0% | 0hPa | 2.7V | 08:15:00 | 00:00:00 | 00:00:00 | |
| OE3JTB-15 | 2026-09-05 07:19:13 | 49.97908 | 16.20186 | 109° | 38km/h | 1349m | -16.2m/s | 7.6°C | 0% | 0hPa | 2.7V | 00:00:00 | 00:00:00 | 00:00:00 | |
| OE3JTB-15 | 2026-09-05 07:19:11 | 49.97915 | 16.20158 | 110° | 38km/h | 1381m | -15.9m/s | 7.4°C | 0% | 0hPa | 2.7V | 00:00:00 | 02:16:25 | 00:00:00 | |
| OE3JTB-15 | 2026-09-05 07:19:09 | 49.97921 | 16.20130 | 107° | 38km/h | 1413m | -16.0m/s | 7.2°C | 0% | 0hPa | 2.7V | 00:00:00 | 00:00:00 | 00:00:00 | |
| OE3JTB-15 | 2026-09-05 07:18:59 | 49.97958 | 16.19975 | 111° | 46km/h | 1576m | -16.2m/s | 6.2°C | 0% | 0hPa | 2.7V | 00:00:00 | 00:00:00 | 00:00:00 | |
| OE3JTB-15 | 2026-09-05 07:18:56 | 49.97970 | 16.19925 | 111° | 46km/h | 1625m | -16.5m/s | 5.9°C | 0% | 0hPa | 2.7V | 00:00:00 | 02:16:10 | 00:00:00 | |
| OE3JTB-15 | 2026-09-05 07:18:54 | 49.97979 | 16.19891 | 110° | 46km/h | 1658m | -16.4m/s | 5.7°C | 0% | 0hPa | 2.7V | 00:00:00 | 00:00:00 | 00:00:00 | |
| OE3JTB-15 | 2026-09-05 07:18:52 | 49.97986 | 16.19857 | 109° | 47km/h | 1691m | -15.9m/s | 5.5°C | 0% | 0hPa | 2.6V | 00:00:00 | 00:00:00 | 00:00:00 | |
| OE3JTB-15 | 2026-09-05 07:18:50 | 49.97994 | 16.19822 | 108° | 66km/h | 1723m | -16.0m/s | 5.3°C | 0% | 0hPa | 2.6V | 00:00:00 | 02:16:04 | 00:00:00 | |
| OK1ALN | 2026-09-05 07:18:40 | 49.98034 | 16.19648 | 114° | 53km/h | 1875m | -17.3m/s | 4.6°C | 96.2% | 0hPa | 2.6V | 08:17:00 | 00:00:00 | 00:00:00 | |
| OK1ALN | 2026-09-05 07:18:16 | 49.98165 | 16.19147 | 119° | 66km/h | 2272m | -16.9m/s | 3.8°C | 38.9% | 0hPa | 2.6V | 08:17:00 | 00:00:00 | 00:00:00 | |
| OK1ALN | 2026-09-05 07:17:55 | 49.98359 | 16.18664 | 123° | 71km/h | 2630m | -16.9m/s | 3.1°C | 12.3% | 0hPa | 2.6V | 08:17:00 | 00:00:00 | 00:00:00 | |
| OK1ALN | 2026-09-05 07:17:34 | 49.98569 | 16.18145 | 124° | 69km/h | 3000m | -18.4m/s | 1.9°C | 9.9% | 0hPa | 2.6V | 08:17:00 | 00:00:00 | 00:00:00 | |
| OE3JTB-15 | 2026-09-05 07:17:31 | 49.98610 | 16.18053 | 124° | 69km/h | 3072m | -18.1m/s | 1.5°C | 11.0% | 0hPa | 2.6V | 08:17:00 | 00:00:00 | 00:00:00 | |
| SP6BVK | 2026-09-05 07:17:21 | 49.98697 | 16.17847 | 125° | 73km/h | 3236m | -18.4m/s | 0.6°C | 8.6% | 0hPa | 2.7V | 08:17:00 | 00:00:00 | 00:00:00 | |
| OK1ALN | 2026-09-05 07:17:13 | 49.98776 | 16.17665 | 124° | 68km/h | 3381m | -18.2m/s | -0.0°C | 8.1% | 0hPa | 2.7V | 08:17:00 | 00:00:00 | 00:00:00 | |
| OE3JTB-15 | 2026-09-05 07:17:10 | 49.98814 | 16.17573 | 121° | 69km/h | 3454m | -18.1m/s | -0.3°C | 6.6% | 0hPa | 2.7V | 00:00:00 | 00:00:00 | 00:00:00 | |
| OE3OSB-13 | 2026-09-05 07:16:46 | 49.99010 | 16.16995 | 114° | 71km/h | 3898m | -18.7m/s | -3.2°C | 7.7% | -1.0hPa | 2.7V | 00:00:00 | 00:00:00 | 00:00:00 | |
| OE3JTB-15 | 2026-09-05 07:16:41 | 49.99046 | 16.16868 | 116° | 75km/h | 3993m | -18.8m/s | -3.8°C | 7.6% | 0hPa | 2.7V | 00:00:00 | 02:13:55 | 00:00:00 | |
| SP6BVK | 2026-09-05 07:16:40 | 49.99046 | 16.16868 | 116° | 71km/h | 3993m | -18.9m/s | -3.8°C | 7.2% | 0hPa | 2.7V | 08:18:00 | 00:00:00 | 00:00:00 | |
| OK1ALN | 2026-09-05 07:16:31 | 49.99114 | 16.16640 | 114° | 71km/h | 4162m | -18.9m/s | -4.9°C | 17.1% | 0hPa | 2.7V | 08:18:00 | 00:00:00 | 00:00:00 | |
| OE3MUC-15 | 2026-09-05 07:16:27 | 49.99145 | 16.16503 | 109° | 77km/h | 4257m | -18.8m/s | -5.5°C | 27.7% | 0hPa | 2.7V | 08:18:00 | 00:00:00 | 00:00:00 | |
| OE3MUC-15 | 2026-09-05 07:16:23 | 49.99168 | 16.16386 | 108° | 80km/h | 4332m | -19.0m/s | -6.2°C | 31.3% | 0hPa | 2.6V | 00:00:00 | 00:00:00 | 00:00:00 | |
| POL2MAQ | 2026-09-05 07:16:21 | 49.99174 | 16.16357 | 109° | 78km/h | 4351m | -19.0m/s | -6.5°C | 30.0% | 0hPa | 2.6V | 00:00:00 | 00:00:00 | 00:00:00 | |
| SP6BVK | 2026-09-05 07:16:20 | 49.99180 | 16.16327 | 108° | 82km/h | 4370m | -18.9m/s | -6.6°C | 31.5% | 0hPa | 2.6V | 08:18:00 | 00:00:00 | 00:00:00 | |
| OE3MUC-15 | 2026-09-05 07:16:19 | 49.99193 | 16.16265 | 108° | 82km/h | 4408m | -18.9m/s | -6.9°C | 35.3% | 0hPa | 2.6V | 00:00:00 | 00:00:00 | 00:00:00 | |
| OE3MUC-15 | 2026-09-05 07:16:15 | 49.99220 | 16.16142 | 110° | 82km/h | 4485m | -18.8m/s | -7.6°C | 37.7% | 0hPa | 2.6V | 00:00:00 | 00:00:00 | 00:00:00 | |
| OE3MUC-15 | 2026-09-05 07:16:11 | 49.99249 | 16.16019 | 111° | 84km/h | 4560m | -19.1m/s | -8.3°C | 40.4% | 0hPa | 2.6V | 00:00:00 | 00:00:00 | 00:00:00 | |
| OE3MUC-15 | 2026-09-05 07:16:07 | 49.99280 | 16.15895 | 110° | 86km/h | 4635m | -18.8m/s | -9.0°C | 43.4% | 0hPa | 2.6V | 00:00:00 | 00:00:00 | 00:00:00 | |
| OE3MUC-15 | 2026-09-05 07:16:03 | 49.99311 | 16.15770 | 114° | 88km/h | 4710m | -18.9m/s | -9.8°C | 45.6% | 0hPa | 2.6V | 00:00:00 | 00:00:00 | 00:00:00 | |
| OE3MUC-15 | 2026-09-05 07:15:59 | 49.99345 | 16.15641 | 113° | 102km/h | 4784m | -18.4m/s | -10.4°C | 49.6% | 0hPa | 2.6V | 00:00:00 | 00:00:00 | 00:00:00 | |
| POL1PZ | 2026-09-05 07:15:58 | 49.99345 | 16.15641 | 114° | 91km/h | 4784m | -18.4m/s | -10.5°C | 46.4% | 0hPa | 2.6V | 00:00:00 | 00:00:00 | 00:00:00 | |
| OK1ALN | 2026-09-05 07:15:51 | 49.99398 | 16.15389 | 106° | 100km/h | 4915m | -18.9m/s | -8.5°C | 5.1% | 0hPa | 2.6V | 08:19:00 | 00:00:00 | 00:00:00 | |
| OE3OSB-13 | 2026-09-05 07:15:44 | 49.99447 | 16.15033 | 98° | 106km/h | 5087m | -19.5m/s | -9.0°C | 2.6% | -1.0hPa | 2.6V | 00:00:00 | 00:00:00 | 00:00:00 | |
| SP6BVK | 2026-09-05 07:15:38 | 49.99463 | 16.14864 | 99° | 111km/h | 5165m | -19.8m/s | -9.5°C | 2.5% | 0hPa | 2.6V | 08:19:00 | 00:00:00 | 00:00:00 | |
| POL2MAQ | 2026-09-05 07:15:37 | 49.99467 | 16.14821 | 98° | 110km/h | 5185m | -19.4m/s | -9.6°C | 2.3% | 0hPa | 2.6V | 00:00:00 | 00:00:00 | 00:00:00 | |
| OE3JTB-15 | 2026-09-05 07:15:36 | 49.99474 | 16.14735 | 98° | 117km/h | 5224m | -19.6m/s | -9.7°C | 2.6% | 0hPa | 2.6V | 00:00:00 | 00:00:00 | 00:00:00 | |
| POL1PZ | 2026-09-05 07:15:35 | 49.99474 | 16.14735 | 99° | 111km/h | 5224m | -19.7m/s | -9.7°C | 2.3% | 0hPa | 2.6V | 00:00:00 | 00:00:00 | 00:00:00 | |
| OK1ALN | 2026-09-05 07:15:30 | 49.99487 | 16.14518 | 94° | 111km/h | 5321m | -19.7m/s | -10.1°C | 2.5% | 0hPa | 2.6V | 08:19:00 | 00:00:00 | 00:00:00 | |
| OE3MUC-15 | 2026-09-05 07:15:20 | 49.99491 | 16.14023 | 89° | 119km/h | 5537m | -19.9m/s | -11.6°C | 2.6% | 0hPa | 2.6V | 00:00:00 | 00:00:00 | 00:00:00 | |
| SP6BVK | 2026-09-05 07:15:18 | 49.99490 | 16.13976 | 88° | 119km/h | 5557m | -19.9m/s | -11.8°C | 2.2% | 0hPa | 2.6V | 08:20:00 | 00:00:00 | 00:00:00 | |
| OE3MUC-15 | 2026-09-05 07:15:16 | 49.99487 | 16.13837 | 87° | 119km/h | 5616m | -19.9m/s | -12.0°C | 2.6% | 0hPa | 2.6V | 00:00:00 | 00:00:00 | 00:00:00 | |
| OE3OSB-13 | 2026-09-05 07:15:13 | 49.99481 | 16.13696 | 84° | 119km/h | 5676m | -20.1m/s | -12.5°C | 2.1% | -1.0hPa | 2.6V | 00:00:00 | 00:00:00 | 00:00:00 | |
| OE3MUC-15 | 2026-09-05 07:15:12 | 49.99478 | 16.13649 | 85° | 120km/h | 5696m | -20.1m/s | -12.5°C | 2.5% | 0hPa | 2.6V | 00:00:00 | 00:00:00 | 00:00:00 | |
| POL1PZ | 2026-09-05 07:15:11 | 49.99478 | 16.13649 | 85° | 120km/h | 5696m | -20.2m/s | -12.6°C | 2.2% | 0hPa | 2.6V | 08:20:00 | 00:00:00 | 00:00:00 | |
| OE3MUC-15 | 2026-09-05 07:15:08 | 49.99466 | 16.13460 | 85° | 124km/h | 5776m | -20.3m/s | -13.1°C | 2.6% | 0hPa | 2.6V | 00:00:00 | 00:00:00 | 00:00:00 | |
| OE3JTB-15 | 2026-09-05 07:15:07 | 49.99463 | 16.13412 | 84° | 130km/h | 5796m | -20.1m/s | -13.3°C | 2.5% | 0hPa | 2.6V | 00:00:00 | 02:12:21 | 00:00:00 | |
| OE3MUC-15 | 2026-09-05 07:15:04 | 49.99453 | 16.13266 | 85° | 126km/h | 5857m | -20.4m/s | -13.7°C | 2.3% | 0hPa | 2.6V | 00:00:00 | 00:00:00 | 00:00:00 | |
| OE3MUC-15 | 2026-09-05 07:15:00 | 49.99439 | 16.13067 | 84° | 128km/h | 5939m | -20.3m/s | -14.2°C | 2.3% | 0hPa | 2.6V | 00:00:00 | 00:00:00 | 00:00:00 | |
| SP6BVK | 2026-09-05 07:14:57 | 49.99432 | 16.12967 | 84° | 128km/h | 5980m | -20.3m/s | -14.6°C | 2.0% | 0hPa | 2.6V | 08:20:00 | 00:00:00 | 00:00:00 | |
| OE3MUC-15 | 2026-09-05 07:14:56 | 49.99425 | 16.12867 | 86° | 130km/h | 6021m | -20.3m/s | -14.9°C | 2.4% | 0hPa | 2.6V | 00:00:00 | 00:00:00 | 00:00:00 | |
| OE3MUC-15 | 2026-09-05 07:14:52 | 49.99416 | 16.12663 | 88° | 130km/h | 6102m | -20.5m/s | -15.3°C | 3.0% | 0hPa | 2.6V | 00:00:00 | 00:00:00 | 00:00:00 | |
| POL1PZ | 2026-09-05 07:14:51 | 49.99416 | 16.12663 | 88° | 130km/h | 6102m | -20.5m/s | -15.4°C | 2.6% | 0hPa | 2.6V | 08:20:00 | 00:00:00 | 00:00:00 | |
| OK1ALN | 2026-09-05 07:14:48 | 49.99412 | 16.12508 | 90° | 131km/h | 6165m | -20.8m/s | -15.9°C | 3.2% | 0hPa | 2.6V | 08:20:00 | 00:00:00 | 00:00:00 | |
| OE3MUC-15 | 2026-09-05 07:14:42 | 49.99406 | 16.12146 | 87° | 128km/h | 6309m | -20.5m/s | -16.5°C | 3.2% | 0hPa | 2.6V | 08:20:00 | 00:00:00 | 00:00:00 | |
| POL2MAQ | 2026-09-05 07:14:41 | 49.99406 | 16.12146 | 88° | 130km/h | 6309m | -20.5m/s | -16.6°C | 2.7% | 0hPa | 2.6V | 08:20:00 | 00:00:00 | 00:00:00 | |
| OE3JTB-15 | 2026-09-05 07:14:38 | 49.99400 | 16.11945 | 87° | 131km/h | 6392m | -20.6m/s | -17.1°C | 3.0% | 0hPa | 2.6V | 00:00:00 | 00:00:00 | 00:00:00 | |
| SP6BVK | 2026-09-05 07:14:37 | 49.99400 | 16.11945 | 87° | 126km/h | 6392m | -20.6m/s | -17.1°C | 2.5% | 0hPa | 2.6V | 08:20:00 | 00:00:00 | 00:00:00 | |
| OE3MUC-15 | 2026-09-05 07:14:36 | 49.99397 | 16.11845 | 89° | 128km/h | 6433m | -20.8m/s | -17.3°C | 2.9% | 0hPa | 2.6V | 00:00:00 | 00:00:00 | 00:00:00 | |
| OE3MUC-15 | 2026-09-05 07:14:32 | 49.99395 | 16.11642 | 91° | 131km/h | 6518m | -21.4m/s | -17.4°C | 4.5% | 0hPa | 2.6V | 00:00:00 | 00:00:00 | 00:00:00 | |
| POL1PZ | 2026-09-05 07:14:30 | 49.99395 | 16.11590 | 91° | 133km/h | 6539m | -21.4m/s | -17.6°C | 4.1% | 0hPa | 2.6V | 08:20:00 | 00:00:00 | 00:00:00 | |
| OK1ALN | 2026-09-05 07:14:28 | 49.99396 | 16.11485 | 91° | 131km/h | 6582m | -21.4m/s | -17.9°C | 4.3% | 0hPa | 2.6V | 08:21:00 | 00:00:00 | 00:00:00 | |
| OE3MUC-15 | 2026-09-05 07:14:26 | 49.99396 | 16.11328 | 90° | 133km/h | 6646m | -21.4m/s | -18.5°C | 5.9% | 0hPa | 2.6V | 00:00:00 | 00:00:00 | 00:00:00 | |
| OE3MUC-15 | 2026-09-05 07:14:21 | 49.99395 | 16.11067 | 89° | 133km/h | 6754m | -21.3m/s | -19.4°C | 6.4% | 0hPa | 2.5V | 00:00:00 | 00:00:00 | 00:00:00 | |
| POL2MAQ | 2026-09-05 07:14:20 | 49.99395 | 16.11067 | 90° | 131km/h | 6754m | -21.4m/s | -19.5°C | 5.5% | 0hPa | 2.5V | 08:21:00 | 00:00:00 | 00:00:00 | |
| OE3MUC-15 | 2026-09-05 07:14:17 | 49.99393 | 16.10859 | 89° | 131km/h | 6840m | -21.4m/s | -20.2°C | 6.4% | 0hPa | 2.5V | 00:00:00 | 00:00:00 | 00:00:00 | |
| SP6BVK | 2026-09-05 07:14:16 | 49.99393 | 16.10859 | 90° | 133km/h | 6840m | -21.5m/s | -20.2°C | 5.4% | 0hPa | 2.5V | 08:21:00 | 00:00:00 | 00:00:00 | |
| OE3MUC-15 | 2026-09-05 07:14:13 | 49.99389 | 16.10653 | 89° | 130km/h | 6926m | -21.9m/s | -21.0°C | 6.2% | 0hPa | 2.5V | 00:00:00 | 00:00:00 | 00:00:00 | |
| POL1PZ | 2026-09-05 07:14:10 | 49.99386 | 16.10551 | 89° | 131km/h | 6970m | -22.2m/s | -21.4°C | 5.6% | 0hPa | 2.6V | 08:21:00 | 00:00:00 | 00:00:00 | |
| OE3MUC-15 | 2026-09-05 07:14:09 | 49.99383 | 16.10449 | 88° | 130km/h | 7014m | -21.8m/s | -21.7°C | 7.3% | 0hPa | 2.6V | 00:00:00 | 00:00:00 | 00:00:00 | |
| OK1ALN | 2026-09-05 07:14:07 | 49.99382 | 16.10398 | 88° | 130km/h | 7035m | -22.1m/s | -22.0°C | 6.4% | 0hPa | 2.6V | 08:21:00 | 00:00:00 | 00:00:00 | |
| OE3MUC-15 | 2026-09-05 07:14:05 | 49.99376 | 16.10245 | 87° | 133km/h | 7102m | -22.0m/s | -22.5°C | 9.2% | 0hPa | 2.6V | 00:00:00 | 00:00:00 | 00:00:00 | |
| SQ6EMJ | 2026-09-05 07:14:02 | 49.99373 | 16.10143 | 89° | 131km/h | 7145m | -22.2m/s | -23.0°C | 8.3% | 0hPa | 2.6V | 08:21:00 | 00:00:00 | 00:00:00 | |
| SONDE2-11 | 2026-09-05 07:13:53 | 49.99336 | 16.09277 | 83° | 130km/h | 7519m | -22.1m/s | -26.4°C | 10.7% | -1.0hPa | 2.6V | 00:00:00 | 00:00:00 | 00:00:00 | |
| POL1PZ | 2026-09-05 07:13:49 | 49.99349 | 16.09480 | 85° | 130km/h | 7430m | -22.1m/s | -25.6°C | 10.5% | 0hPa | 2.6V | 08:21:00 | 00:00:00 | 00:00:00 | |
| OK1ALN | 2026-09-05 07:13:47 | 49.99343 | 16.09378 | 86° | 130km/h | 7474m | -22.6m/s | -26.0°C | 10.8% | 0hPa | 2.6V | 08:21:00 | 00:00:00 | 00:00:00 | |
| OE3OSB-13 | 2026-09-05 07:13:40 | 49.99305 | 16.08920 | 81° | 135km/h | 7674m | -22.3m/s | -27.5°C | 10.7% | -1.0hPa | 2.6V | 00:00:00 | 00:00:00 | 00:00:00 | |
| SQ6EMJ | 2026-09-05 07:13:37 | 49.99300 | 16.08867 | 82° | 135km/h | 7696m | -22.6m/s | -27.6°C | 10.7% | 0hPa | 2.6V | 00:00:00 | 00:00:00 | 00:00:00 | |
| SP6BVK | 2026-09-05 07:13:35 | 49.99289 | 16.08762 | 82° | 137km/h | 7741m | -22.7m/s | -27.9°C | 10.6% | 0hPa | 2.6V | 08:22:00 | 00:00:00 | 00:00:00 | |
| PETON7-10 | 2026-09-05 07:13:34 | 49.99280 | 16.08656 | 82° | 142km/h | 7787m | -22.5m/s | -28.2°C | 12.2% | 0hPa | 2.6V | 00:00:00 | 02:10:48 | 00:00:00 | |
| SQ6EMJ | 2026-09-05 07:13:32 | 49.99275 | 16.08602 | 84° | 137km/h | 7809m | -22.4m/s | -28.4°C | 9.9% | 0hPa | 2.6V | 00:00:00 | 00:00:00 | 00:00:00 | |
| POL1PZ | 2026-09-05 07:13:29 | 49.99262 | 16.08443 | 84° | 137km/h | 7877m | -22.4m/s | -28.9°C | 9.6% | 0hPa | 2.6V | 08:22:00 | 00:00:00 | 00:00:00 | |
| OK1ALN | 2026-09-05 07:13:27 | 49.99255 | 16.08336 | 86° | 137km/h | 7922m | -22.8m/s | -29.2°C | 9.5% | 0hPa | 2.6V | 08:22:00 | 00:00:00 | 00:00:00 | |
| SQ6EMJ | 2026-09-05 07:13:25 | 49.99247 | 16.08171 | 88° | 141km/h | 7990m | -22.9m/s | -29.7°C | 9.1% | 0hPa | 2.6V | 00:00:00 | 00:00:00 | 00:00:00 | |
| OK1SLM-15 | 2026-09-05 07:13:24 | 49.99247 | 16.08171 | 88° | 141km/h | 7990m | -22.9m/s | -29.7°C | 9.1% | 0hPa | 2.6V | 08:22:00 | 00:00:00 | 00:00:00 | |
| SONDE2-11 | 2026-09-05 07:13:22 | 49.99243 | 16.08003 | 88° | 144km/h | 8057m | -22.6m/s | -30.1°C | 8.1% | -1.0hPa | 2.6V | 00:00:00 | 00:00:00 | 00:00:00 | |
| SQ6EMJ | 2026-09-05 07:13:19 | 49.99242 | 16.07890 | 90° | 144km/h | 8102m | -22.5m/s | -30.4°C | 7.7% | 0hPa | 2.6V | 00:00:00 | 00:00:00 | 00:00:00 | |
| OE3MUC-15 | 2026-09-05 07:13:18 | 49.99242 | 16.07774 | 91° | 150km/h | 8147m | -23.1m/s | -30.6°C | 9.0% | 0hPa | 2.6V | 00:00:00 | 00:00:00 | 00:00:00 | |
| PETON7-10 | 2026-09-05 07:13:15 | 49.99244 | 16.07599 | 91° | 146km/h | 8216m | -22.9m/s | -30.4°C | 7.5% | 0hPa | 2.6V | 00:00:00 | 00:00:00 | 00:00:00 | |
| OE3MUC-15 | 2026-09-05 07:13:14 | 49.99244 | 16.07541 | 91° | 148km/h | 8239m | -23.0m/s | -30.6°C | 7.5% | 0hPa | 2.7V | 00:00:00 | 00:00:00 | 00:00:00 | |
| SQ6EMJ | 2026-09-05 07:13:11 | 49.99242 | 16.07368 | 89° | 146km/h | 8308m | -23.6m/s | -30.7°C | 5.5% | 0hPa | 2.7V | 00:00:00 | 00:00:00 | 00:00:00 | |
| OE3MUC-15 | 2026-09-05 07:13:10 | 49.99240 | 16.07310 | 87° | 146km/h | 8331m | -23.1m/s | -30.8°C | 7.0% | 0hPa | 2.7V | 00:00:00 | 00:00:00 | 00:00:00 | |
| POL1PZ | 2026-09-05 07:13:08 | 49.99238 | 16.07253 | 88° | 146km/h | 8355m | -23.5m/s | -31.0°C | 5.5% | 0hPa | 2.6V | 08:22:00 | 00:00:00 | 00:00:00 | |
| OE5DRO-10 | 2026-09-05 07:13:07 | 49.99234 | 16.07140 | 86° | 142km/h | 8401m | -23.5m/s | -31.4°C | 7.1% | 0hPa | 2.6V | 00:00:00 | 00:00:00 | 00:00:00 | |
| OK1ALN | 2026-09-05 07:13:06 | 49.99234 | 16.07140 | 87° | 144km/h | 8401m | -23.5m/s | -31.4°C | 5.5% | 0hPa | 2.6V | 08:22:00 | 00:00:00 | 00:00:00 | |
| OE3MUC-15 | 2026-09-05 07:13:05 | 49.99229 | 16.07025 | 86° | 146km/h | 8448m | -23.2m/s | -31.8°C | 7.0% | 0hPa | 2.6V | 00:00:00 | 00:00:00 | 00:00:00 | |
| OE3MUC-15 | 2026-09-05 07:13:01 | 49.99215 | 16.06797 | 84° | 144km/h | 8541m | -23.5m/s | -31.9°C | 6.4% | 0hPa | 2.6V | 00:00:00 | 00:00:00 | 00:00:00 | |
| PETON7-10 | 2026-09-05 07:13:00 | 49.99211 | 16.06740 | 83° | 146km/h | 8564m | -23.6m/s | -31.9°C | 6.3% | 0hPa | 2.6V | 00:00:00 | 00:00:00 | 00:00:00 | |
| POL2MAQ | 2026-09-05 07:12:59 | 49.99211 | 16.06740 | 84° | 144km/h | 8564m | -23.7m/s | -31.9°C | 4.8% | 0hPa | 2.6V | 08:22:00 | 00:00:00 | 00:00:00 | |
| DO3MHA-11 | 2026-09-05 07:12:57 | 49.99198 | 16.06574 | 84° | 142km/h | 8635m | -23.4m/s | -32.3°C | 6.5% | 0hPa | 2.6V | 08:22:00 | 02:10:11 | 00:00:00 | |
| PG1ADW-2 | 2026-09-05 07:12:55 | 49.99191 | 16.06464 | 86° | 153km/h | 8683m | -24.2m/s | -32.6°C | 6.7% | 0hPa | 2.7V | 00:00:00 | 02:10:09 | 00:00:00 | |
| SP6BVK | 2026-09-05 07:12:54 | 49.99191 | 16.06464 | 86° | 141km/h | 8683m | -24.3m/s | -32.6°C | 5.1% | 0hPa | 2.7V | 08:22:00 | 00:00:00 | 00:00:00 | |
| OE3MUC-15 | 2026-09-05 07:12:53 | 49.99186 | 16.06354 | 86° | 141km/h | 8731m | -23.7m/s | -33.0°C | 6.9% | 0hPa | 2.7V | 00:00:00 | 00:00:00 | 00:00:00 | |
| OK1SLM-15 | 2026-09-05 07:12:52 | 49.99186 | 16.06354 | 87° | 139km/h | 8731m | -23.8m/s | -33.0°C | 5.3% | 0hPa | 2.7V | 08:22:00 | 00:00:00 | 00:00:00 | |
| OE3JTB-15 | 2026-09-05 07:12:51 | 49.99182 | 16.06244 | 88° | 150km/h | 8779m | -24.3m/s | -33.4°C | 7.1% | 0hPa | 2.7V | 08:22:00 | 00:00:00 | 00:00:00 | |
| OE3MUC-15 | 2026-09-05 07:12:49 | 49.99181 | 16.06133 | 90° | 144km/h | 8828m | -24.1m/s | -33.8°C | 7.4% | 0hPa | 2.6V | 00:00:00 | 00:00:00 | 00:00:00 | |
| POL1PZ | 2026-09-05 07:12:48 | 49.99181 | 16.06133 | 91° | 142km/h | 8828m | -24.1m/s | -33.9°C | 5.6% | 0hPa | 2.6V | 08:22:00 | 00:00:00 | 00:00:00 | |
| OE5DRO-10 | 2026-09-05 07:12:47 | 49.99182 | 16.06020 | 92° | 153km/h | 8876m | -23.9m/s | -34.1°C | 7.6% | 0hPa | 2.6V | 00:00:00 | 00:00:00 | 00:00:00 | |
| DO3MHA-11 | 2026-09-05 07:12:46 | 49.99183 | 16.05962 | 93° | 151km/h | 8900m | -24.1m/s | -34.1°C | 7.7% | 0hPa | 2.6V | 00:00:00 | 02:10:00 | 00:00:00 | |
| OK1ALN | 2026-09-05 07:12:45 | 49.99183 | 16.05962 | 93° | 146km/h | 8900m | -24.1m/s | -34.2°C | 5.8% | 0hPa | 2.6V | 08:23:00 | 00:00:00 | 00:00:00 | |
| OE3MUC-15 | 2026-09-05 07:12:41 | 49.99197 | 16.05669 | 96° | 151km/h | 9021m | -24.3m/s | -34.9°C | 8.1% | 0hPa | 2.6V | 00:00:00 | 00:00:00 | 00:00:00 | |
| OE3OSB-13 | 2026-09-05 07:12:38 | 49.99214 | 16.05431 | 97° | 159km/h | 9122m | -25.7m/s | -35.8°C | 6.3% | -1.0hPa | 2.6V | 00:00:00 | 00:00:00 | 00:00:00 | |
| SQ6EMJ | 2026-09-05 07:12:37 | 49.99214 | 16.05430 | 98° | 159km/h | 9122m | -25.7m/s | -35.8°C | 6.4% | 0hPa | 2.6V | 08:23:00 | 00:00:00 | 00:00:00 | |
| DO3MHA-11 | 2026-09-05 07:12:36 | 49.99219 | 16.05369 | 98° | 155km/h | 9148m | -26.1m/s | -35.8°C | 8.4% | 0hPa | 2.6V | 00:00:00 | 02:09:50 | 00:00:00 | |
| SP6BVK | 2026-09-05 07:12:33 | 49.99229 | 16.05246 | 98° | 157km/h | 9199m | -25.5m/s | -36.1°C | 6.3% | 0hPa | 2.6V | 08:23:00 | 00:00:00 | 00:00:00 | |
| SQ6EMJ | 2026-09-05 07:12:31 | 49.99242 | 16.05064 | 96° | 153km/h | 9275m | -24.9m/s | -36.7°C | 6.2% | 0hPa | 2.6V | 08:23:00 | 00:00:00 | 00:00:00 | |
| PETON7-10 | 2026-09-05 07:12:30 | 49.99245 | 16.05004 | 95° | 151km/h | 9300m | -25.2m/s | -36.7°C | 8.3% | 0hPa | 2.6V | 00:00:00 | 02:09:44 | 00:00:00 | |
| OE5DRO-10 | 2026-09-05 07:12:28 | 49.99250 | 16.04885 | 93° | 150km/h | 9349m | -24.7m/s | -37.0°C | 8.2% | 0hPa | 2.6V | 08:22:00 | 00:00:00 | 00:00:00 | |
| OE3MUC-15 | 2026-09-05 07:12:27 | 49.99252 | 16.04826 | 94° | 151km/h | 9374m | -24.6m/s | -37.2°C | 8.1% | 0hPa | 2.6V | 00:00:00 | 00:00:00 | 00:00:00 | |
| DO3MHA-11 | 2026-09-05 07:12:26 | 49.99255 | 16.04766 | 94° | 150km/h | 9399m | -24.9m/s | -37.4°C | 8.2% | 0hPa | 2.6V | 00:00:00 | 02:09:40 | 00:00:00 | |
| OK1ALN | 2026-09-05 07:12:25 | 49.99255 | 16.04766 | 95° | 151km/h | 9399m | -24.9m/s | -37.4°C | 6.0% | 0hPa | 2.7V | 08:23:00 | 00:00:00 | 00:00:00 | |
| OM5KV | 2026-09-05 07:12:24 | 49.99257 | 16.04707 | 94° | 150km/h | 9424m | -24.9m/s | -37.6°C | 6.1% | 0hPa | 2.7V | 08:23:00 | 00:00:00 | 00:00:00 | |
| OE3MUC-15 | 2026-09-05 07:12:23 | 49.99260 | 16.04590 | 92° | 150km/h | 9473m | -24.8m/s | -38.0°C | 8.8% | 0hPa | 2.7V | 00:00:00 | 02:09:37 | 00:00:00 | |
| OE3JTB-15 | 2026-09-05 07:12:22 | 49.99261 | 16.04531 | 92° | 148km/h | 9498m | -24.8m/s | -38.2°C | 9.1% | 0hPa | 2.7V | 00:00:00 | 00:00:00 | 00:00:00 | |
| SQ6EMJ | 2026-09-05 07:12:20 | 49.99262 | 16.04414 | 93° | 150km/h | 9548m | -25.4m/s | -38.8°C | 6.9% | 0hPa | 2.7V | 08:23:00 | 00:00:00 | 00:00:00 | |
| OE3MUC-15 | 2026-09-05 07:12:19 | 49.99264 | 16.04355 | 91° | 150km/h | 9574m | -25.0m/s | -39.1°C | 9.6% | 0hPa | 2.7V | 00:00:00 | 00:00:00 | 00:00:00 | |
| OM5KV | 2026-09-05 07:12:17 | 49.99264 | 16.04238 | 92° | 148km/h | 9624m | -25.1m/s | -39.5°C | 7.5% | 0hPa | 2.7V | 08:23:00 | 00:00:00 | 00:00:00 | |
| DO3MHA-11 | 2026-09-05 07:12:16 | 49.99264 | 16.04179 | 90° | 148km/h | 9649m | -24.8m/s | -39.7°C | 10.5% | 0hPa | 2.7V | 00:00:00 | 02:09:30 | 00:00:00 | |
| SP6BVK | 2026-09-05 07:12:12 | 49.99262 | 16.04005 | 90° | 150km/h | 9724m | -25.1m/s | -40.3°C | 8.5% | 0hPa | 2.7V | 08:23:00 | 00:00:00 | 00:00:00 | |
| PG1ADW-2 | 2026-09-05 07:12:11 | 49.99260 | 16.03889 | 88° | 148km/h | 9775m | -25.2m/s | -40.6°C | 12.1% | 0hPa | 2.7V | 00:00:00 | 00:00:00 | 00:00:00 | |
| OM5KV | 2026-09-05 07:12:10 | 49.99260 | 16.03889 | 89° | 146km/h | 9775m | -25.2m/s | -40.7°C | 9.0% | 0hPa | 2.7V | 08:23:00 | 00:00:00 | 00:00:00 | |
| OE5DRO-10 | 2026-09-05 07:12:09 | 49.99256 | 16.03774 | 87° | 148km/h | 9825m | -24.8m/s | -40.9°C | 12.6% | 0hPa | 2.7V | 00:00:00 | 00:00:00 | 00:00:00 | |
| OE3MUC-15 | 2026-09-05 07:12:07 | 49.99251 | 16.03658 | 86° | 148km/h | 9875m | -25.3m/s | -41.3°C | 13.1% | 0hPa | 2.7V | 08:22:00 | 00:00:00 | 00:00:00 | |
| DO3MHA-11 | 2026-09-05 07:12:06 | 49.99248 | 16.03601 | 86° | 148km/h | 9901m | -25.6m/s | -41.6°C | 13.5% | 0hPa | 2.7V | 00:00:00 | 02:09:20 | 00:00:00 | |
| OE5DXL-15 | 2026-09-05 07:12:05 | 49.99244 | 16.03544 | 84° | 151km/h | 9926m | -25.5m/s | -41.8°C | 13.8% | 0hPa | 2.7V | 00:00:00 | 00:00:00 | 00:00:00 | |
| OK1ALN | 2026-09-05 07:12:04 | 49.99244 | 16.03544 | 85° | 146km/h | 9926m | -25.6m/s | -41.9°C | 10.3% | 0hPa | 2.7V | 08:23:00 | 00:00:00 | 00:00:00 | |
| OE3MUC-15 | 2026-09-05 07:12:03 | 49.99236 | 16.03429 | 83° | 148km/h | 9978m | -25.7m/s | -42.2°C | 14.4% | 0hPa | 2.7V | 00:00:00 | 00:00:00 | 00:00:00 | |
| EDDB2-11 | 2026-09-05 07:11:55 | 49.99195 | 16.02967 | 81° | 148km/h | 10187m | -26.4m/s | -44.2°C | 13.1% | -1.0hPa | 2.7V | 00:00:00 | 00:00:00 | 00:00:00 | |
| SONDE2-11 | 2026-09-05 07:11:49 | 49.99161 | 16.02619 | 81° | 150km/h | 10346m | -26.7m/s | -45.7°C | 15.3% | -1.0hPa | 2.7V | 00:00:00 | 00:00:00 | 00:00:00 | |
| OE3MUC-15 | 2026-09-05 07:11:47 | 49.99150 | 16.02502 | 82° | 124km/h | 10400m | -26.6m/s | -46.2°C | 21.6% | 0hPa | 2.7V | 00:00:00 | 00:00:00 | 00:00:00 | |
| DO3MHA-11 | 2026-09-05 07:11:46 | 49.99144 | 16.02443 | 81° | 153km/h | 10427m | -26.1m/s | -46.4°C | 22.2% | 0hPa | 2.7V | 00:00:00 | 02:09:00 | 00:00:00 | |
| OE5MMP-10 | 2026-09-05 07:11:45 | 49.99138 | 16.02384 | 82° | 153km/h | 10453m | -25.9m/s | -46.7°C | 22.6% | 0hPa | 2.7V | 00:00:00 | 02:08:59 | 00:00:00 | |
| OK1ALN | 2026-09-05 07:11:43 | 49.99132 | 16.02325 | 82° | 151km/h | 10479m | -26.2m/s | -47.0°C | 17.2% | 0hPa | 2.7V | 08:23:00 | 00:00:00 | 00:00:00 | |
| OM5KV | 2026-09-05 07:11:42 | 49.99126 | 16.02267 | 82° | 151km/h | 10506m | -26.4m/s | -47.2°C | 17.5% | 0hPa | 2.7V | 08:23:00 | 00:00:00 | 00:00:00 | |
| OM5KV | 2026-09-05 07:11:41 | 49.99114 | 16.02149 | 82° | 153km/h | 10559m | -26.9m/s | -47.7°C | 18.1% | 0hPa | 2.7V | 08:23:00 | 00:00:00 | 00:00:00 | |
| SP6BVK | 2026-09-05 07:11:40 | 49.99114 | 16.02149 | 82° | 153km/h | 10559m | -26.9m/s | -47.7°C | 18.1% | 0hPa | 2.7V | 08:23:00 | 00:00:00 | 00:00:00 | |
| OK1SLM-15 | 2026-09-05 07:11:39 | 49.99108 | 16.02090 | 82° | 153km/h | 10586m | -27.2m/s | -48.0°C | 18.4% | 0hPa | 2.7V | 00:00:00 | 00:00:00 | 00:00:00 | |
| DO3MHA-11 | 2026-09-05 07:11:36 | 49.99083 | 16.01851 | 81° | 159km/h | 10693m | -25.9m/s | -48.9°C | 26.3% | 0hPa | 2.7V | 00:00:00 | 02:08:50 | 00:00:00 | |
| OE5DXL-15 | 2026-09-05 07:11:35 | 49.99077 | 16.01790 | 82° | 159km/h | 10719m | -26.1m/s | -49.2°C | 26.5% | 0hPa | 2.7V | 00:00:00 | 00:00:00 | 00:00:00 | |
| OE5MMP-10 | 2026-09-05 07:11:34 | 49.99071 | 16.01729 | 82° | 161km/h | 10745m | -26.2m/s | -49.4°C | 26.8% | 0hPa | 2.7V | 00:00:00 | 02:08:48 | 00:00:00 | |
| OK1SLM-15 | 2026-09-05 07:11:33 | 49.99071 | 16.01729 | 83° | 155km/h | 10745m | -26.3m/s | -49.4°C | 19.7% | 0hPa | 2.6V | 00:00:00 | 00:00:00 | 00:00:00 | |
| PG1ADW-2 | 2026-09-05 07:11:31 | 49.99054 | 16.01546 | 83° | 161km/h | 10826m | -26.9m/s | -50.1°C | 27.5% | 0hPa | 2.6V | 00:00:00 | 02:08:45 | 00:00:00 | |
| PETON7-10 | 2026-09-05 07:11:30 | 49.99049 | 16.01484 | 83° | 161km/h | 10853m | -27.0m/s | -50.4°C | 27.7% | 0hPa | 2.6V | 00:00:00 | 00:00:00 | 00:00:00 | |
| OM5KV | 2026-09-05 07:11:29 | 49.99044 | 16.01422 | 84° | 161km/h | 10879m | -26.6m/s | -50.7°C | 20.5% | 0hPa | 2.6V | 08:23:00 | 00:00:00 | 00:00:00 | |
| OK1SLM-15 | 2026-09-05 07:11:28 | 49.99044 | 16.01422 | 84° | 161km/h | 10879m | -26.6m/s | -50.7°C | 20.4% | 0hPa | 2.6V | 00:00:00 | 00:00:00 | 00:00:00 | |
| OM5KV | 2026-09-05 07:11:27 | 49.99039 | 16.01359 | 84° | 161km/h | 10906m | -26.6m/s | -50.9°C | 20.7% | 0hPa | 2.6V | 08:23:00 | 00:00:00 | 00:00:00 | |
| DO3MHA-11 | 2026-09-05 07:11:26 | 49.99030 | 16.01234 | 84° | 161km/h | 10959m | -27.1m/s | -51.3°C | 28.5% | 0hPa | 2.6V | 08:23:00 | 02:08:40 | 00:00:00 | |
| POL1PZ | 2026-09-05 07:11:25 | 49.99030 | 16.01233 | 84° | 161km/h | 10959m | -27.2m/s | -51.4°C | 20.7% | 0hPa | 2.7V | 08:23:00 | 00:00:00 | 00:00:00 | |
| OE3JTB-15 | 2026-09-05 07:11:24 | 49.99020 | 16.01108 | 84° | 159km/h | 11014m | -27.3m/s | -51.9°C | 29.0% | 0hPa | 2.7V | 00:00:00 | 00:00:00 | 00:00:00 | |
| OE5MMP-10 | 2026-09-05 07:11:23 | 49.99016 | 16.01045 | 84° | 161km/h | 11041m | -27.5m/s | -52.1°C | 29.2% | 0hPa | 2.5V | 00:00:00 | 02:08:37 | 00:00:00 | |
| OM5KV | 2026-09-05 07:11:21 | 49.99011 | 16.00982 | 84° | 162km/h | 11069m | -27.1m/s | -52.5°C | 21.3% | 0hPa | 2.5V | 08:23:00 | 00:00:00 | 00:00:00 | |
| SQ6EMJ | 2026-09-05 07:11:20 | 49.99002 | 16.00856 | 84° | 161km/h | 11122m | -26.5m/s | -53.0°C | 21.6% | 0hPa | 2.5V | 08:23:00 | 00:00:00 | 00:00:00 | |
| SONDE2-11 | 2026-09-05 07:11:18 | 49.98989 | 16.00669 | 84° | 159km/h | 11203m | -27.8m/s | -53.7°C | 21.4% | -1.0hPa | 2.5V | 00:00:00 | 00:00:00 | 00:00:00 | |
| DO3MHA-11 | 2026-09-05 07:11:16 | 49.98985 | 16.00607 | 85° | 157km/h | 11231m | -28.1m/s | -53.9°C | 30.5% | 0hPa | 2.5V | 00:00:00 | 02:08:30 | 00:00:00 | |
| PETON7-10 | 2026-09-05 07:11:15 | 49.98981 | 16.00545 | 84° | 157km/h | 11259m | -27.6m/s | -54.2°C | 30.7% | 0hPa | 2.5V | 00:00:00 | 00:00:00 | 00:00:00 | |
| SQ6EMJ | 2026-09-05 07:11:14 | 49.98977 | 16.00482 | 86° | 161km/h | 11287m | -27.8m/s | -54.5°C | 21.9% | 0hPa | 2.5V | 08:23:00 | 00:00:00 | 00:00:00 | |
| OE5MMP-10 | 2026-09-05 07:11:13 | 49.98973 | 16.00421 | 85° | 157km/h | 11315m | -27.1m/s | -54.7°C | 31.1% | 0hPa | 2.5V | 00:00:00 | 02:08:27 | 00:00:00 | |
| OE5DRO-10 | 2026-09-05 07:11:12 | 49.98969 | 16.00359 | 86° | 155km/h | 11342m | -26.8m/s | -55.0°C | 31.2% | 0hPa | 2.5V | 00:00:00 | 00:00:00 | 00:00:00 | |
| PG1ADW-2 | 2026-09-05 07:11:11 | 49.98966 | 16.00297 | 86° | 155km/h | 11369m | -26.6m/s | -55.3°C | 31.3% | 0hPa | 2.5V | 00:00:00 | 00:00:00 | 00:00:00 | |
| OM5KV | 2026-09-05 07:11:10 | 49.98966 | 16.00297 | 87° | 157km/h | 11369m | -26.7m/s | -55.3°C | 22.1% | 0hPa | 2.5V | 08:23:00 | 00:00:00 | 00:00:00 | |
| SQ6EMJ | 2026-09-05 07:11:08 | 49.98960 | 16.00174 | 87° | 157km/h | 11423m | -27.5m/s | -55.8°C | 21.8% | 0hPa | 2.5V | 08:23:00 | 00:00:00 | 00:00:00 | |
| DO3MHA-11 | 2026-09-05 07:11:06 | 49.98951 | 15.99991 | 87° | 155km/h | 11506m | -27.6m/s | -56.5°C | 31.1% | 0hPa | 2.5V | 00:00:00 | 02:08:20 | 00:00:00 | |
| OE5DXL-15 | 2026-09-05 07:11:05 | 49.98949 | 15.99930 | 86° | 150km/h | 11533m | -26.9m/s | -56.8°C | 31.1% | 0hPa | 2.5V | 00:00:00 | 00:00:00 | 00:00:00 | |
| OE3OSB-13 | 2026-09-05 07:11:04 | 49.98946 | 15.99870 | 86° | 153km/h | 11560m | -27.0m/s | -57.0°C | 20.9% | -1.0hPa | 2.5V | 00:00:00 | 00:00:00 | 00:00:00 | |
| PETON7-10 | 2026-09-05 07:11:00 | 49.98934 | 15.99628 | 86° | 153km/h | 11670m | -28.2m/s | -57.8°C | 30.2% | 0hPa | 2.5V | 00:00:00 | 02:08:14 | 00:00:00 | |
| SP6BVK | 2026-09-05 07:10:59 | 49.98934 | 15.99628 | 86° | 153km/h | 11670m | -28.2m/s | -57.8°C | 20.5% | 0hPa | 2.5V | 08:24:00 | 00:00:00 | 00:00:00 | |
| SQ6EMJ | 2026-09-05 07:10:58 | 49.98928 | 15.99508 | 86° | 155km/h | 11726m | -27.7m/s | -58.2°C | 20.0% | 0hPa | 2.5V | 08:24:00 | 00:00:00 | 00:00:00 | |
| DO3MHA-11 | 2026-09-05 07:10:56 | 49.98921 | 15.99387 | 85° | 153km/h | 11781m | -27.9m/s | -58.4°C | 29.0% | 0hPa | 2.5V | 00:00:00 | 02:08:10 | 00:00:00 | |
| OE3JTB-15 | 2026-09-05 07:10:55 | 49.98917 | 15.99327 | 84° | 130km/h | 11809m | -27.9m/s | -58.5°C | 28.4% | 0hPa | 2.5V | 00:00:00 | 00:00:00 | 00:00:00 | |
| POL2MAQ | 2026-09-05 07:10:54 | 49.98917 | 15.99327 | 85° | 155km/h | 11809m | -27.9m/s | -58.6°C | 18.8% | 0hPa | 2.5V | 08:24:00 | 00:00:00 | 00:00:00 | |
| OE5MMP-10 | 2026-09-05 07:10:53 | 49.98909 | 15.99206 | 85° | 151km/h | 11864m | -27.5m/s | -58.5°C | 25.8% | 0hPa | 2.5V | 00:00:00 | 02:08:07 | 00:00:00 | |
| SQ6EMJ | 2026-09-05 07:10:52 | 49.98909 | 15.99206 | 86° | 157km/h | 11864m | -27.6m/s | -58.5°C | 16.8% | 0hPa | 2.5V | 08:24:00 | 00:00:00 | 00:00:00 | |
| PG1ADW-2 | 2026-09-05 07:10:51 | 49.98902 | 15.99084 | 86° | 141km/h | 11920m | -28.3m/s | -58.2°C | 21.8% | 0hPa | 2.5V | 00:00:00 | 00:00:00 | 00:00:00 | |
| 13BRC | 2026-09-05 07:10:49 | 49.98899 | 15.99025 | 86° | 151km/h | 11948m | -27.7m/s | -58.3°C | 12.9% | 0hPa | 2.5V | 00:00:00 | 00:00:00 | 00:00:00 | |
| SQ6EMJ | 2026-09-05 07:10:47 | 49.98891 | 15.98848 | 89° | 150km/h | 12032m | -28.3m/s | -58.6°C | 10.4% | 0hPa | 2.5V | 08:24:00 | 00:00:00 | 00:00:00 | |
| DO3MHA-11 | 2026-09-05 07:10:46 | 49.98890 | 15.98789 | 89° | 142km/h | 12060m | -28.5m/s | -58.6°C | 16.3% | 0hPa | 2.5V | 00:00:00 | 02:08:00 | 00:00:00 | |
| PETON7-10 | 2026-09-05 07:10:45 | 49.98888 | 15.98731 | 88° | 135km/h | 12089m | -28.2m/s | -58.7°C | 15.6% | 0hPa | 2.5V | 00:00:00 | 00:00:00 | 00:00:00 | |
| POL1PZ | 2026-09-05 07:10:44 | 49.98888 | 15.98731 | 89° | 148km/h | 12089m | -28.3m/s | -58.8°C | 9.1% | 0hPa | 2.6V | 08:24:00 | 00:00:00 | 00:00:00 | |
| NBG1-10 | 2026-09-05 07:10:43 | 49.98886 | 15.98616 | 89° | 144km/h | 12145m | -28.7m/s | -58.4°C | 13.6% | 0hPa | 2.6V | 00:00:00 | 02:07:57 | 00:00:00 | |
| OK1ALN | 2026-09-05 07:10:42 | 49.98886 | 15.98616 | 89° | 144km/h | 12145m | -28.8m/s | -58.4°C | 7.7% | 0hPa | 2.5V | 08:24:00 | 00:00:00 | 00:00:00 | |
| SQ6EMJ | 2026-09-05 07:10:41 | 49.98884 | 15.98505 | 88° | 139km/h | 12203m | -28.5m/s | -57.9°C | 6.4% | 0hPa | 2.5V | 08:24:00 | 00:00:00 | 00:00:00 | |
| SP6BVK | 2026-09-05 07:10:40 | 49.98882 | 15.98450 | 89° | 139km/h | 12231m | -28.0m/s | -57.7°C | 6.0% | 0hPa | 2.5V | 08:24:00 | 00:00:00 | 00:00:00 | |
| OM5KV | 2026-09-05 07:10:39 | 49.98882 | 15.98450 | 89° | 139km/h | 12231m | -28.0m/s | -57.7°C | 6.0% | 0hPa | 2.5V | 08:24:00 | 00:00:00 | 00:00:00 | |
| DO3MHA-11 | 2026-09-05 07:10:36 | 49.98878 | 15.98236 | 89° | 126km/h | 12345m | -28.6m/s | -56.3°C | 8.6% | 0hPa | 2.5V | 00:00:00 | 02:07:50 | 00:00:00 | |
| SQ6EMJ | 2026-09-05 07:10:35 | 49.98877 | 15.98184 | 89° | 128km/h | 12374m | -28.9m/s | -55.8°C | 4.0% | 0hPa | 2.5V | 08:24:00 | 00:00:00 | 00:00:00 | |
| OE5DRO-10 | 2026-09-05 07:10:34 | 49.98876 | 15.98135 | 89° | 133km/h | 12404m | -29.6m/s | -54.9°C | 7.2% | 0hPa | 2.5V | 00:00:00 | 00:00:00 | 00:00:00 | |
| OE5MMP-10 | 2026-09-05 07:10:33 | 49.98875 | 15.98087 | 88° | 126km/h | 12433m | -29.7m/s | -54.7°C | 7.0% | 0hPa | 2.6V | 08:24:00 | 02:07:47 | 00:00:00 | |
| PG1ADW-2 | 2026-09-05 07:10:31 | 49.98870 | 15.97991 | 85° | 139km/h | 12493m | -29.6m/s | -54.6°C | 6.6% | 0hPa | 2.6V | 08:24:00 | 00:00:00 | 00:00:00 | |
| PETON7-10 | 2026-09-05 07:10:30 | 49.98867 | 15.97944 | 83° | 137km/h | 12522m | -29.3m/s | -54.7°C | 6.6% | 0hPa | 2.5V | 00:00:00 | 00:00:00 | 00:00:00 | |
| SQ6EMJ | 2026-09-05 07:10:28 | 49.98862 | 15.97896 | 83° | 124km/h | 12551m | -29.4m/s | -54.8°C | 3.0% | 0hPa | 2.5V | 08:24:00 | 00:00:00 | 00:00:00 | |
| DO3MHA-11 | 2026-09-05 07:10:26 | 49.98846 | 15.97749 | 79° | 139km/h | 12641m | -30.0m/s | -54.6°C | 6.3% | 0hPa | 2.5V | 00:00:00 | 02:07:40 | 00:00:00 | |
| OE5MMP-10 | 2026-09-05 07:10:23 | 49.98825 | 15.97596 | 78° | 144km/h | 12731m | -30.6m/s | -54.4°C | 6.0% | 0hPa | 2.6V | 00:00:00 | 02:07:37 | 00:00:00 | |
| EDDB2-11 | 2026-09-05 07:10:22 | 49.98818 | 15.97543 | 77° | 137km/h | 12762m | -31.0m/s | -54.7°C | 2.4% | -1.0hPa | 2.6V | 00:00:00 | 00:00:00 | 00:00:00 | |
| OM5KV | 2026-09-05 07:10:21 | 49.98817 | 15.97543 | 79° | 137km/h | 12762m | -31.0m/s | -54.7°C | 2.6% | 0hPa | 2.6V | 08:24:00 | 00:00:00 | 00:00:00 | |
| SP6BVK | 2026-09-05 07:10:18 | 49.98794 | 15.97381 | 79° | 146km/h | 12853m | -30.3m/s | -55.1°C | 2.6% | 0hPa | 2.6V | 08:24:00 | 00:00:00 | 00:00:00 | |
| SONDE2-11 | 2026-09-05 07:10:16 | 49.98764 | 15.97154 | 78° | 150km/h | 12977m | -31.3m/s | -55.9°C | 2.3% | -1.0hPa | 2.6V | 00:00:00 | 00:00:00 | 00:00:00 | |
| PETON7-10 | 2026-09-05 07:10:15 | 49.98764 | 15.97153 | 79° | 153km/h | 12977m | -31.2m/s | -55.8°C | 6.2% | 0hPa | 2.6V | 00:00:00 | 02:07:29 | 00:00:00 | |
| POL2MAQ | 2026-09-05 07:10:14 | 49.98764 | 15.97153 | 79° | 150km/h | 12977m | -31.3m/s | -55.9°C | 2.5% | 0hPa | 2.6V | 08:25:00 | 00:00:00 | 00:00:00 | |
| OE5MMP-10 | 2026-09-05 07:10:13 | 49.98749 | 15.97036 | 81° | 155km/h | 13039m | -31.2m/s | -56.4°C | 6.4% | 0hPa | 2.6V | 00:00:00 | 02:07:27 | 00:00:00 | |
| PG1ADW-2 | 2026-09-05 07:10:11 | 49.98737 | 15.96918 | 82° | 148km/h | 13102m | -31.7m/s | -56.8°C | 6.5% | 0hPa | 2.6V | 00:00:00 | 02:07:25 | 00:00:00 | |
| SQ6EMJ | 2026-09-05 07:10:10 | 49.98737 | 15.96918 | 82° | 153km/h | 13102m | -31.8m/s | -56.8°C | 2.5% | 0hPa | 2.6V | 08:25:00 | 00:00:00 | 00:00:00 | |
| OM5KV | 2026-09-05 07:10:09 | 49.98732 | 15.96858 | 83° | 155km/h | 13134m | -31.5m/s | -57.1°C | 2.5% | 0hPa | 2.6V | 08:25:00 | 00:00:00 | 00:00:00 | |
| OM5KV | 2026-09-05 07:10:08 | 49.98726 | 15.96798 | 84° | 155km/h | 13165m | -31.2m/s | -57.3°C | 2.5% | 0hPa | 2.6V | 08:25:00 | 00:00:00 | 00:00:00 | |
| OE5DXL-15 | 2026-09-05 07:10:05 | 49.98710 | 15.96554 | 87° | 126km/h | 13290m | -31.6m/s | -57.6°C | 6.6% | 0hPa | 2.6V | 08:24:00 | 00:00:00 | 00:00:00 | |
| OE5MMP-10 | 2026-09-05 07:10:03 | 49.98706 | 15.96432 | 88° | 146km/h | 13354m | -31.4m/s | -57.2°C | 6.2% | 0hPa | 2.5V | 00:00:00 | 02:07:17 | 00:00:00 | |
| OE3OSB-13 | 2026-09-05 07:10:02 | 49.98705 | 15.96372 | 88° | 151km/h | 13386m | -31.8m/s | -57.0°C | 2.0% | -1.0hPa | 2.7V | 00:00:00 | 00:00:00 | 00:00:00 | |
| EDDB2-11 | 2026-09-05 07:09:51 | 49.98728 | 15.95769 | 96° | 130km/h | 13742m | -32.6m/s | -53.6°C | 1.4% | -1.0hPa | 2.7V | 00:00:00 | 00:00:00 | 00:00:00 | |
| SP3WXH-11 | 2026-09-05 07:09:49 | 49.98751 | 15.95483 | 95° | 113km/h | 13939m | -33.7m/s | -52.0°C | 1.3% | -1.0hPa | 2.7V | 00:00:00 | 00:00:00 | 00:00:00 | |
| NBG1-10 | 2026-09-05 07:09:47 | 49.98744 | 15.95575 | 98° | 84km/h | 13873m | -32.9m/s | -52.3°C | 4.3% | 0hPa | 2.7V | 00:00:00 | 02:07:01 | 00:00:00 | |
| OK1SLM-15 | 2026-09-05 07:09:46 | 49.98744 | 15.95575 | 98° | 120km/h | 13873m | -33.0m/s | -52.3°C | 1.4% | 0hPa | 2.7V | 00:00:00 | 00:00:00 | 00:00:00 | |
| SONDE2-11 | 2026-09-05 07:09:45 | 49.98753 | 15.95439 | 93° | 111km/h | 13973m | -33.9m/s | -51.9°C | 1.2% | -1.0hPa | 2.7V | 00:00:00 | 00:00:00 | 00:00:00 | |
| OE5MMP-10 | 2026-09-05 07:09:43 | 49.98755 | 15.95395 | 95° | 108km/h | 14007m | -33.3m/s | -51.6°C | 4.0% | 0hPa | 2.7V | 00:00:00 | 02:06:57 | 00:00:00 | |
| DO3MHA-11 | 2026-09-05 07:09:42 | 49.98758 | 15.95352 | 95° | 106km/h | 14041m | -33.7m/s | -51.6°C | 4.0% | 0hPa | 2.7V | 00:00:00 | 02:06:56 | 00:00:00 | |
| S52SK | 2026-09-05 07:09:41 | 49.98758 | 15.95352 | 96° | 110km/h | 14041m | -33.8m/s | -51.6°C | 1.4% | 0hPa | 2.7V | 00:00:00 | 00:00:00 | 00:00:00 | |
| OM5KV | 2026-09-05 07:09:40 | 49.98759 | 15.95310 | 94° | 106km/h | 14075m | -34.1m/s | -51.6°C | 1.3% | 0hPa | 2.7V | 08:25:00 | 00:00:00 | 00:00:00 | |
| OM5KV | 2026-09-05 07:09:39 | 49.98760 | 15.95269 | 92° | 106km/h | 14109m | -33.5m/s | -51.6°C | 1.3% | 0hPa | 2.7V | 08:25:00 | 00:00:00 | 00:00:00 | |
| OE5DRO-10 | 2026-09-05 07:09:37 | 49.98760 | 15.95146 | 88° | 108km/h | 14211m | -33.9m/s | -51.8°C | 4.0% | 0hPa | 2.7V | 08:25:00 | 00:00:00 | 00:00:00 | |
| SQ6EMJ | 2026-09-05 07:09:36 | 49.98759 | 15.95105 | 88° | 104km/h | 14245m | -33.7m/s | -51.9°C | 1.3% | 0hPa | 2.6V | 08:25:00 | 00:00:00 | 00:00:00 | |
| OE5DXL-15 | 2026-09-05 07:09:35 | 49.98757 | 15.95064 | 87° | 99km/h | 14279m | -34.4m/s | -51.9°C | 4.0% | 0hPa | 2.6V | 00:00:00 | 00:00:00 | 00:00:00 | |
| OM5KV | 2026-09-05 07:09:34 | 49.98758 | 15.95064 | 87° | 106km/h | 14279m | -34.4m/s | -52.0°C | 1.3% | 0hPa | 2.6V | 08:25:00 | 00:00:00 | 00:00:00 | |
| OE5MMP-10 | 2026-09-05 07:09:33 | 49.98755 | 15.94980 | 87° | 108km/h | 14348m | -34.5m/s | -51.7°C | 3.9% | 0hPa | 2.6V | 00:00:00 | 02:06:47 | 00:00:00 | |
| PG1ADW-2 | 2026-09-05 07:09:31 | 49.98752 | 15.94896 | 88° | 102km/h | 14418m | -34.8m/s | -51.8°C | 4.0% | 0hPa | 2.7V | 00:00:00 | 00:00:00 | 00:00:00 | |
| PETON7-10 | 2026-09-05 07:09:30 | 49.98751 | 15.94854 | 88° | 106km/h | 14453m | -34.9m/s | -51.7°C | 3.9% | 0hPa | 2.5V | 00:00:00 | 02:06:44 | 00:00:00 | |
| OM5KV | 2026-09-05 07:09:27 | 49.98747 | 15.94771 | 87° | 108km/h | 14522m | -35.1m/s | -51.9°C | 1.3% | 0hPa | 2.5V | 08:25:00 | 00:00:00 | 00:00:00 | |
| SQ6EMJ | 2026-09-05 07:09:24 | 49.98743 | 15.94643 | 89° | 110km/h | 14629m | -35.2m/s | -52.7°C | 1.4% | 0hPa | 2.5V | 08:25:00 | 00:00:00 | 00:00:00 | |
| OE5MMP-10 | 2026-09-05 07:09:23 | 49.98742 | 15.94558 | 90° | 82km/h | 14700m | -35.2m/s | -53.0°C | 4.3% | 0hPa | 2.5V | 00:00:00 | 02:06:37 | 00:00:00 | |
| DO3MHA-11 | 2026-09-05 07:09:22 | 49.98742 | 15.94515 | 92° | 99km/h | 14735m | -35.3m/s | -53.3°C | 4.4% | 0hPa | 2.5V | 00:00:00 | 02:06:36 | 00:00:00 | |
| POL1PZ | 2026-09-05 07:09:21 | 49.98742 | 15.94515 | 92° | 110km/h | 14735m | -35.4m/s | -53.3°C | 1.4% | 0hPa | 2.6V | 08:26:00 | 00:00:00 | 00:00:00 | |
| EDDB2-11 | 2026-09-05 07:09:20 | 49.98744 | 15.94432 | 92° | 102km/h | 14807m | -35.7m/s | -53.5°C | 1.2% | -1.0hPa | 2.6V | 00:00:00 | 00:00:00 | 00:00:00 | |
| OM5KV | 2026-09-05 07:09:19 | 49.98744 | 15.94432 | 94° | 104km/h | 14807m | -35.7m/s | -53.5°C | 1.4% | 0hPa | 2.6V | 08:26:00 | 00:00:00 | 00:00:00 | |
| OE5DRO-10 | 2026-09-05 07:09:18 | 49.98747 | 15.94352 | 96° | 84km/h | 14879m | -36.1m/s | -53.5°C | 4.4% | 0hPa | 2.6V | 00:00:00 | 00:00:00 | 00:00:00 | |
| SP6BVK | 2026-09-05 07:09:17 | 49.98747 | 15.94352 | 96° | 102km/h | 14879m | -36.2m/s | -53.5°C | 1.4% | 0hPa | 2.6V | 08:26:00 | 00:00:00 | 00:00:00 | |
| OM5KV | 2026-09-05 07:09:16 | 49.98749 | 15.94313 | 95° | 97km/h | 14915m | -35.6m/s | -53.7°C | 1.4% | 0hPa | 2.6V | 08:26:00 | 00:00:00 | 00:00:00 | |
| PETON7-10 | 2026-09-05 07:09:15 | 49.98753 | 15.94239 | 97° | 82km/h | 14987m | -36.1m/s | -54.0°C | 4.5% | 0hPa | 2.6V | 00:00:00 | 00:00:00 | 00:00:00 | |
| EDDB2-12 | 2026-09-05 07:09:14 | 49.98756 | 15.94203 | 97° | 91km/h | 15023m | -36.5m/s | -54.1°C | 1.2% | -1.0hPa | 2.7V | 00:00:00 | 00:00:00 | 00:00:00 | |
| OM5KV | 2026-09-05 07:09:13 | 49.98756 | 15.94203 | 99° | 91km/h | 15023m | -36.5m/s | -54.1°C | 1.4% | 0hPa | 2.7V | 08:26:00 | 00:00:00 | 00:00:00 | |
| DO3MHA-11 | 2026-09-05 07:09:12 | 49.98761 | 15.94133 | 97° | 82km/h | 15096m | -35.7m/s | -53.7°C | 4.4% | 0hPa | 2.7V | 00:00:00 | 02:06:26 | 00:00:00 | |
| PG1ADW-2 | 2026-09-05 07:09:11 | 49.98763 | 15.94100 | 95° | 78km/h | 15131m | -36.7m/s | -53.5°C | 4.2% | 0hPa | 2.7V | 00:00:00 | 00:00:00 | 00:00:00 | |
| OM5KV | 2026-09-05 07:09:10 | 49.98763 | 15.94100 | 96° | 86km/h | 15131m | -36.7m/s | -53.5°C | 1.3% | 0hPa | 2.7V | 08:26:00 | 00:00:00 | 00:00:00 | |
| OE3JTB-15 | 2026-09-05 07:09:09 | 49.98766 | 15.94033 | 93° | 77km/h | 15206m | -36.7m/s | -53.6°C | 4.2% | 0hPa | 2.7V | 00:00:00 | 02:06:23 | 00:00:00 | |
| OM5KV | 2026-09-05 07:09:08 | 49.98766 | 15.94033 | 93° | 84km/h | 15206m | -36.7m/s | -53.6°C | 1.3% | 0hPa | 2.7V | 08:26:00 | 00:00:00 | 00:00:00 | |
| OM5KV | 2026-09-05 07:09:03 | 49.98766 | 15.93875 | 86° | 75km/h | 15395m | -38.7m/s | -52.9°C | 1.2% | 0hPa | 2.7V | 08:26:00 | 00:00:00 | 00:00:00 | |
| OE3OSB-13 | 2026-09-05 07:09:00 | 49.98754 | 15.93762 | 78° | 71km/h | 15552m | -39.4m/s | -53.8°C | 1.0% | -1.0hPa | 2.7V | 00:00:00 | 00:00:00 | 00:00:00 | |
| SP3WXH-11 | 2026-09-05 07:08:47 | 49.98726 | 15.93378 | 88° | 75km/h | 16081m | -41.8m/s | -54.3°C | 1.0% | -1.0hPa | 2.7V | 00:00:00 | 00:00:00 | 00:00:00 | |
| OM5KV | 2026-09-05 07:08:46 | 49.98725 | 15.93378 | 89° | 77km/h | 16081m | -41.8m/s | -54.3°C | 1.2% | 0hPa | 2.7V | 08:26:00 | 00:00:00 | 00:00:00 | |
| PETON7-10 | 2026-09-05 07:08:45 | 49.98725 | 15.93318 | 92° | 71km/h | 16165m | -41.8m/s | -54.8°C | 4.6% | 0hPa | 2.7V | 00:00:00 | 02:05:59 | 00:00:00 | |
| EDDB2-12 | 2026-09-05 07:08:43 | 49.98726 | 15.93258 | 91° | 73km/h | 16248m | -41.8m/s | -55.1°C | 1.1% | -1.0hPa | 2.7V | 00:00:00 | 00:00:00 | 00:00:00 | |
| DO3MHA-11 | 2026-09-05 07:08:42 | 49.98727 | 15.93229 | 94° | 71km/h | 16290m | -42.4m/s | -54.6°C | 4.4% | 0hPa | 2.7V | 00:00:00 | 02:05:56 | 00:00:00 | |
| OM5KV | 2026-09-05 07:08:41 | 49.98727 | 15.93229 | 94° | 73km/h | 16290m | -42.5m/s | -54.7°C | 1.2% | 0hPa | 2.7V | 08:26:00 | 00:00:00 | 00:00:00 | |
| OE5DRO-10 | 2026-09-05 07:08:40 | 49.98727 | 15.93172 | 90° | 62km/h | 16375m | -42.9m/s | -54.9°C | 4.4% | 0hPa | 2.7V | 00:00:00 | 00:00:00 | 00:00:00 | |
| OE5MMP-10 | 2026-09-05 07:08:39 | 49.98727 | 15.93144 | 92° | 68km/h | 16418m | -42.8m/s | -55.0°C | 4.5% | 0hPa | 2.6V | 00:00:00 | 02:05:53 | 00:00:00 | |
| HA6NAB-11 | 2026-09-05 07:08:38 | 49.98727 | 15.93144 | 92° | 71km/h | 16418m | -42.9m/s | -55.0°C | 1.2% | 0hPa | 2.6V | 08:26:00 | 00:00:00 | 00:00:00 | |
| SP6BVK | 2026-09-05 07:08:36 | 49.98728 | 15.93088 | 92° | 71km/h | 16505m | -43.0m/s | -54.9°C | 1.1% | 0hPa | 2.6V | 08:26:00 | 00:00:00 | 00:00:00 | |
| OE5DXL-15 | 2026-09-05 07:08:35 | 49.98729 | 15.93033 | 94° | 58km/h | 16591m | -43.0m/s | -55.0°C | 4.5% | 0hPa | 2.6V | 00:00:00 | 00:00:00 | 00:00:00 | |
| OE3JTB-15 | 2026-09-05 07:08:34 | 49.98730 | 15.93006 | 93° | 55km/h | 16634m | -43.4m/s | -54.9°C | 4.5% | 0hPa | 2.6V | 00:00:00 | 00:00:00 | 00:00:00 | |
| SQ6EMJ | 2026-09-05 07:08:33 | 49.98731 | 15.92980 | 93° | 66km/h | 16677m | -43.5m/s | -54.6°C | 1.1% | 0hPa | 2.7V | 08:27:00 | 00:00:00 | 00:00:00 | |
| DO3MHA-11 | 2026-09-05 07:08:32 | 49.98732 | 15.92955 | 94° | 58km/h | 16721m | -43.9m/s | -53.7°C | 4.2% | 0hPa | 2.7V | 00:00:00 | 02:05:46 | 00:00:00 | |
| PG1ADW-2 | 2026-09-05 07:08:31 | 49.98733 | 15.92931 | 94° | 53km/h | 16765m | -43.8m/s | -53.1°C | 3.9% | 0hPa | 2.7V | 00:00:00 | 00:00:00 | 00:00:00 | |
| PETON7-10 | 2026-09-05 07:08:30 | 49.98734 | 15.92907 | 92° | 53km/h | 16809m | -43.9m/s | -52.9°C | 3.8% | 0hPa | 2.6V | 00:00:00 | 00:00:00 | 00:00:00 | |
| OE5MMP-10 | 2026-09-05 07:08:29 | 49.98734 | 15.92883 | 93° | 55km/h | 16853m | -44.1m/s | -52.6°C | 3.8% | 0hPa | 2.6V | 00:00:00 | 02:05:43 | 00:00:00 | |
| OM5KV | 2026-09-05 07:08:28 | 49.98734 | 15.92883 | 93° | 60km/h | 16853m | -44.1m/s | -52.6°C | 1.0% | 0hPa | 2.6V | 08:27:00 | 00:00:00 | 00:00:00 | |
| S52SK | 2026-09-05 07:08:27 | 49.98734 | 15.92860 | 94° | 58km/h | 16897m | -44.4m/s | -52.5°C | 0.8% | 0hPa | 2.6V | 00:00:00 | 00:00:00 | 00:00:00 | |
| HA6NAB-11 | 2026-09-05 07:08:26 | 49.98736 | 15.92837 | 98° | 57km/h | 16941m | -44.2m/s | -52.8°C | 1.0% | 0hPa | 2.6V | 00:00:00 | 00:00:00 | 00:00:00 | |
| OM5KV | 2026-09-05 07:08:24 | 49.98741 | 15.92793 | 101° | 55km/h | 17031m | -45.1m/s | -53.1°C | 0.9% | 0hPa | 2.6V | 08:27:00 | 00:00:00 | 00:00:00 | |
| DO3MHA-11 | 2026-09-05 07:08:22 | 49.98747 | 15.92733 | 101° | 49km/h | 17166m | -45.3m/s | -53.4°C | 3.9% | 0hPa | 2.6V | 08:26:00 | 02:05:36 | 00:00:00 | |
| OE5DRO-10 | 2026-09-05 07:08:21 | 49.98749 | 15.92714 | 100° | 53km/h | 17211m | -45.5m/s | -53.5°C | 3.9% | 0hPa | 2.7V | 00:00:00 | 00:00:00 | 00:00:00 | |
| POL1PZ | 2026-09-05 07:08:20 | 49.98749 | 15.92714 | 100° | 49km/h | 17211m | -45.5m/s | -53.5°C | 1.0% | 0hPa | 2.7V | 00:00:00 | 00:00:00 | 00:00:00 | |
| OE5MMP-10 | 2026-09-05 07:08:19 | 49.98752 | 15.92676 | 94° | 51km/h | 17302m | -45.5m/s | -53.7°C | 4.0% | 0hPa | 2.7V | 00:00:00 | 02:05:33 | 00:00:00 | |
| OM5KV | 2026-09-05 07:08:18 | 49.98752 | 15.92676 | 94° | 49km/h | 17302m | -45.5m/s | -53.7°C | 1.0% | 0hPa | 2.7V | 08:27:00 | 00:00:00 | 00:00:00 | |
| OM5KV | 2026-09-05 07:08:17 | 49.98753 | 15.92657 | 91° | 46km/h | 17348m | -46.1m/s | -53.9°C | 1.0% | 0hPa | 2.7V | 08:27:00 | 00:00:00 | 00:00:00 | |
| NBG1-10 | 2026-09-05 07:08:16 | 49.98751 | 15.92622 | 85° | 47km/h | 17440m | -46.4m/s | -53.8°C | 4.2% | 0hPa | 2.7V | 00:00:00 | 02:05:30 | 00:00:00 | |
| PETON7-10 | 2026-09-05 07:08:15 | 49.98749 | 15.92604 | 83° | 57km/h | 17487m | -46.5m/s | -53.8°C | 4.2% | 0hPa | 2.7V | 00:00:00 | 00:00:00 | 00:00:00 | |
| DO3MHA-11 | 2026-09-05 07:08:12 | 49.98742 | 15.92544 | 78° | 57km/h | 17627m | -46.6m/s | -53.9°C | 4.1% | 0hPa | 2.7V | 00:00:00 | 02:05:26 | 00:00:00 | |
| SQ6EMJ | 2026-09-05 07:08:11 | 49.98738 | 15.92523 | 76° | 55km/h | 17674m | -47.1m/s | -54.4°C | 1.0% | 0hPa | 2.7V | 08:27:00 | 00:00:00 | 00:00:00 | |
| OE5MMP-10 | 2026-09-05 07:08:09 | 49.98731 | 15.92479 | 78° | 57km/h | 17768m | -47.3m/s | -54.9°C | 4.6% | 0hPa | 2.7V | 00:00:00 | 02:05:23 | 00:00:00 | |
| OM5KV | 2026-09-05 07:08:07 | 49.98728 | 15.92456 | 79° | 62km/h | 17816m | -47.4m/s | -54.8°C | 1.1% | 0hPa | 2.7V | 08:27:00 | 00:00:00 | 00:00:00 | |
| SQ6EMJ | 2026-09-05 07:08:06 | 49.98722 | 15.92408 | 82° | 60km/h | 17911m | -48.4m/s | -55.2°C | 1.1% | 0hPa | 2.7V | 08:27:00 | 00:00:00 | 00:00:00 | |
| OE5DXL-15 | 2026-09-05 07:08:05 | 49.98720 | 15.92385 | 84° | 40km/h | 17959m | -48.0m/s | -55.3°C | 4.6% | 0hPa | 2.7V | 00:00:00 | 00:00:00 | 00:00:00 | |
| OE3OSB-13 | 2026-09-05 07:07:58 | 49.98719 | 15.92246 | 91° | 40km/h | 18303m | -49.9m/s | -53.9°C | 0.8% | -1.0hPa | 2.7V | 00:00:00 | 00:00:00 | 00:00:00 | |
| EDDB2-11 | 2026-09-05 07:07:47 | 49.98721 | 15.92079 | 90° | 38km/h | 18916m | -51.2m/s | -53.5°C | 0.8% | -1.0hPa | 2.7V | 00:00:00 | 00:00:00 | 00:00:00 | |
| PETON7-10 | 2026-09-05 07:07:45 | 49.98721 | 15.92063 | 93° | 31km/h | 18967m | -50.8m/s | -53.8°C | 4.3% | 0hPa | 2.7V | 08:27:00 | 00:00:00 | 00:00:00 | |
| DO3MHA-11 | 2026-09-05 07:07:44 | 49.98722 | 15.92048 | 94° | 35km/h | 19017m | -50.2m/s | -54.1°C | 4.4% | 0hPa | 2.6V | 00:00:00 | 02:04:58 | 00:00:00 | |
| NBG1-10 | 2026-09-05 07:07:43 | 49.98723 | 15.92032 | 101° | 18km/h | 19068m | -50.7m/s | -54.1°C | 4.4% | 0hPa | 2.6V | 00:00:00 | 02:04:57 | 00:00:00 | |
| KRY50SP | 2026-09-05 07:07:42 | 49.98723 | 15.92032 | 101° | 40km/h | 19068m | -50.7m/s | -54.1°C | 1.0% | 0hPa | 2.6V | 08:27:00 | 00:00:00 | 00:00:00 | |
| EDDB2-12 | 2026-09-05 07:07:41 | 49.98727 | 15.92003 | 101° | 38km/h | 19169m | -50.9m/s | -54.1°C | 0.8% | -1.0hPa | 2.6V | 00:00:00 | 00:00:00 | 00:00:00 | |
| OE5MMP-10 | 2026-09-05 07:07:39 | 49.98730 | 15.91975 | 100° | 26km/h | 19272m | -51.1m/s | -53.8°C | 4.3% | 0hPa | 2.6V | 00:00:00 | 02:04:53 | 00:00:00 | |
| OK1ALN | 2026-09-05 07:07:38 | 49.98730 | 15.91975 | 100° | 37km/h | 19272m | -51.1m/s | -53.9°C | 0.9% | 0hPa | 2.6V | 08:28:00 | 00:00:00 | 00:00:00 | |
| SQ6EMJ | 2026-09-05 07:07:37 | 49.98733 | 15.91948 | 99° | 33km/h | 19373m | -51.5m/s | -53.6°C | 0.9% | 0hPa | 2.6V | 08:28:00 | 00:00:00 | 00:00:00 | |
| OE5DXL-15 | 2026-09-05 07:07:35 | 49.98736 | 15.91925 | 103° | 16km/h | 19479m | -53.3m/s | -53.4°C | 4.2% | 0hPa | 2.6V | 00:00:00 | 00:00:00 | 00:00:00 | |
| DO3MHA-11 | 2026-09-05 07:07:34 | 49.98738 | 15.91915 | 113° | 13km/h | 19532m | -53.6m/s | -52.9°C | 4.0% | 0hPa | 2.6V | 00:00:00 | 02:04:48 | 00:00:00 | |
| OE3JTB-15 | 2026-09-05 07:07:33 | 49.98741 | 15.91906 | 113° | 15km/h | 19586m | -53.7m/s | -52.7°C | 3.9% | 0hPa | 2.6V | 00:00:00 | 02:04:47 | 00:00:00 | |
| OM5KV | 2026-09-05 07:07:32 | 49.98741 | 15.91906 | 114° | 22km/h | 19586m | -53.8m/s | -52.7°C | 0.8% | 0hPa | 2.6V | 08:28:00 | 00:00:00 | 00:00:00 | |
| DB0UT-7 | 2026-09-05 07:07:31 | 49.98745 | 15.91894 | 112° | 7km/h | 19693m | -52.8m/s | -52.8°C | 3.9% | 0hPa | 2.6V | 00:00:00 | 02:04:45 | 00:00:00 | |
| PETON7-10 | 2026-09-05 07:07:30 | 49.98746 | 15.91890 | 106° | 11km/h | 19746m | -53.4m/s | -52.8°C | 3.9% | 0hPa | 2.6V | 00:00:00 | 00:00:00 | 00:00:00 | |
| OE5MMP-10 | 2026-09-05 07:07:29 | 49.98747 | 15.91886 | 103° | 11km/h | 19800m | -53.8m/s | -52.7°C | 3.9% | 0hPa | 2.6V | 00:00:00 | 02:04:43 | 00:00:00 | |
| HA6NAB-11 | 2026-09-05 07:07:28 | 49.98747 | 15.91886 | 103° | 9km/h | 19800m | -53.8m/s | -52.8°C | 0.8% | 0hPa | 2.6V | 08:28:00 | 00:00:00 | 00:00:00 | |
| OM5KV | 2026-09-05 07:07:27 | 49.98747 | 15.91884 | 75° | 5km/h | 19853m | -53.5m/s | -52.9°C | 0.9% | 0hPa | 2.6V | 08:28:00 | 00:00:00 | 00:00:00 | |
| OM5KV | 2026-09-05 07:07:26 | 49.98747 | 15.91881 | 83° | 9km/h | 19907m | -53.5m/s | -52.8°C | 0.9% | 0hPa | 2.6V | 08:28:00 | 00:00:00 | 00:00:00 | |
| SQ6EMJ | 2026-09-05 07:07:25 | 49.98746 | 15.91878 | 74° | 9km/h | 19961m | -54.8m/s | -52.9°C | 0.9% | 0hPa | 2.6V | 08:28:00 | 00:00:00 | 00:00:00 | |
| DO3MHA-11 | 2026-09-05 07:07:24 | 49.98745 | 15.91868 | 70° | 13km/h | 20073m | -56.0m/s | -52.1°C | 3.9% | 0hPa | 2.6V | 00:00:00 | 02:04:38 | 00:00:00 | |
| 13BRC | 2026-09-05 07:07:22 | 49.98744 | 15.91863 | 92° | 13km/h | 20128m | -56.2m/s | -52.0°C | 0.8% | 0hPa | 2.6V | 08:28:00 | 00:00:00 | 00:00:00 | |
| OK1SLM-15 | 2026-09-05 07:07:21 | 49.98744 | 15.91858 | 87° | 13km/h | 20184m | -56.1m/s | -51.8°C | 0.8% | 0hPa | 2.6V | 00:00:00 | 00:00:00 | 00:00:00 | |
| S52SK | 2026-09-05 07:07:20 | 49.98744 | 15.91853 | 70° | 11km/h | 20241m | -56.1m/s | -51.9°C | 0.7% | 0hPa | 2.6V | 00:00:00 | 00:00:00 | 00:00:00 | |
| OE5MMP-10 | 2026-09-05 07:07:19 | 49.98743 | 15.91844 | 78° | 18km/h | 20352m | -55.4m/s | -52.5°C | 4.0% | 0hPa | 2.6V | 08:27:00 | 02:04:33 | 00:00:00 | |
| OE3MUC-15 | 2026-09-05 07:07:18 | 49.98742 | 15.91839 | 83° | 16km/h | 20408m | -55.5m/s | -52.6°C | 4.0% | 0hPa | 2.7V | 08:27:00 | 00:00:00 | 00:00:00 | |
| OK1ALN | 2026-09-05 07:07:17 | 49.98742 | 15.91840 | 83° | 13km/h | 20408m | -55.6m/s | -52.6°C | 0.8% | 0hPa | 2.7V | 08:28:00 | 00:00:00 | 00:00:00 | |
| EDDB2-11 | 2026-09-05 07:07:16 | 49.98741 | 15.91821 | 87° | 18km/h | 20576m | -56.6m/s | -53.4°C | 0.8% | -1.0hPa | 2.7V | 00:00:00 | 00:00:00 | 00:00:00 | |
| OE3MUC-15 | 2026-09-05 07:07:14 | 49.98740 | 15.91815 | 72° | 16km/h | 20632m | -55.8m/s | -53.2°C | 4.3% | 0hPa | 2.7V | 00:00:00 | 00:00:00 | 00:00:00 | |
| SP6BVK | 2026-09-05 07:07:13 | 49.98740 | 15.91815 | 73° | 16km/h | 20632m | -55.8m/s | -53.3°C | 0.9% | 0hPa | 2.7V | 08:28:00 | 00:00:00 | 00:00:00 | |
| PG1ADW-2 | 2026-09-05 07:07:11 | 49.98735 | 15.91793 | 69° | 13km/h | 20803m | -57.3m/s | -52.5°C | 4.1% | 0hPa | 2.7V | 00:00:00 | 00:00:00 | 00:00:00 | |
| EDDB2-12 | 2026-09-05 07:07:10 | 49.98730 | 15.91777 | 69° | 22km/h | 20918m | -58.3m/s | -51.9°C | 0.7% | -1.0hPa | 2.7V | 00:00:00 | 00:00:00 | 00:00:00 | |
| OE5MMP-10 | 2026-09-05 07:07:09 | 49.98730 | 15.91777 | 70° | 13km/h | 20918m | -58.3m/s | -51.8°C | 3.8% | 0hPa | 2.7V | 00:00:00 | 02:04:23 | 00:00:00 | |
| OM5KV | 2026-09-05 07:07:08 | 49.98730 | 15.91777 | 71° | 22km/h | 20918m | -58.3m/s | -51.9°C | 0% | 0hPa | 2.7V | 08:28:00 | 00:00:00 | 00:00:00 | |
| POL2MAQ | 2026-09-05 07:07:06 | 49.98728 | 15.91760 | 89° | 18km/h | 21035m | -58.6m/s | -52.0°C | 0.8% | 0hPa | 2.7V | 08:28:00 | 00:00:00 | 00:00:00 | |
| OE5DXL-15 | 2026-09-05 07:07:05 | 49.98728 | 15.91748 | 92° | 15km/h | 21153m | -58.4m/s | -51.1°C | 3.6% | 0hPa | 2.7V | 00:00:00 | 00:00:00 | 00:00:00 | |
| DO3MHA-11 | 2026-09-05 07:07:04 | 49.98729 | 15.91744 | 96° | 9km/h | 21211m | -58.6m/s | -50.9°C | 3.6% | 0hPa | 2.7V | 00:00:00 | 02:04:18 | 00:00:00 | |
| OM5KV | 2026-09-05 07:07:03 | 49.98729 | 15.91744 | 97° | 9km/h | 21211m | -58.7m/s | -51.0°C | 0% | 0hPa | 2.7V | 08:28:00 | 00:00:00 | 00:00:00 | |
| OM5KV | 2026-09-05 07:07:02 | 49.98729 | 15.91740 | 103° | 7km/h | 21270m | -59.4m/s | -50.8°C | 0% | 0hPa | 2.7V | 08:28:00 | 00:00:00 | 00:00:00 | |
| OE3OSB-13 | 2026-09-05 07:06:56 | 49.98719 | 15.91717 | 65° | 13km/h | 21757m | -61.3m/s | -51.6°C | 0.6% | -1.0hPa | 2.7V | 00:00:00 | 00:00:00 | 00:00:00 | |
| DO3MHA-11 | 2026-09-05 07:06:54 | 49.98717 | 15.91712 | 75° | 16km/h | 21818m | -61.3m/s | -51.5°C | 3.7% | 0hPa | 2.7V | 00:00:00 | 02:04:08 | 00:00:00 | |
| SP6BVK | 2026-09-05 07:06:53 | 49.98717 | 15.91712 | 75° | 15km/h | 21818m | -61.4m/s | -51.6°C | 0.7% | 0hPa | 2.7V | 08:28:00 | 00:00:00 | 00:00:00 | |
| HA6NAB-11 | 2026-09-05 07:06:52 | 49.98716 | 15.91706 | 71° | 13km/h | 21880m | -61.9m/s | -51.3°C | 0.7% | 0hPa | 2.7V | 08:28:00 | 00:00:00 | 00:00:00 | |
| KRY50SP | 2026-09-05 07:06:51 | 49.98714 | 15.91698 | 63° | 13km/h | 22004m | -62.6m/s | -50.3°C | 0.6% | 0hPa | 2.7V | 08:28:00 | 00:00:00 | 00:00:00 | |
| OM5KV | 2026-09-05 07:06:50 | 49.98714 | 15.91698 | 63° | 13km/h | 22004m | -62.6m/s | 0°C | 0% | 0hPa | 2.7V | 00:00:00 | 00:00:00 | 00:00:00 | |
| OE5MMP-10 | 2026-09-05 07:06:49 | 49.98710 | 15.91687 | 56° | 18km/h | 22129m | -63.5m/s | -50.7°C | 3.4% | 0hPa | 2.7V | 00:00:00 | 02:04:03 | 00:00:00 | |
| OE5DRO-10 | 2026-09-05 07:06:46 | 49.98704 | 15.91666 | 73° | 16km/h | 22321m | -64.3m/s | -52.0°C | 3.9% | 0hPa | 2.6V | 08:28:00 | 00:00:00 | 00:00:00 | |
| NBG1-10 | 2026-09-05 07:06:45 | 49.98703 | 15.91658 | 83° | 16km/h | 22385m | -64.0m/s | -52.2°C | 3.9% | 0hPa | 2.6V | 00:00:00 | 02:03:59 | 00:00:00 | |
| DO3MHA-11 | 2026-09-05 07:06:44 | 49.98703 | 15.91649 | 91° | 18km/h | 22449m | -65.0m/s | -52.2°C | 4.0% | 0hPa | 2.6V | 08:28:00 | 02:03:58 | 00:00:00 | |
| SP3WXH-11 | 2026-09-05 07:06:43 | 49.98704 | 15.91641 | 95° | 18km/h | 22514m | -65.2m/s | -52.2°C | 0.7% | -1.0hPa | 2.7V | 00:00:00 | 00:00:00 | 00:00:00 | |
| 13BRC | 2026-09-05 07:06:41 | 49.98704 | 15.91634 | 93° | 16km/h | 22579m | -65.4m/s | -52.1°C | 0.8% | 0hPa | 2.7V | 08:28:00 | 00:00:00 | 00:00:00 | |
| HA6NAB-11 | 2026-09-05 07:06:40 | 49.98705 | 15.91628 | 102° | 16km/h | 22644m | -65.1m/s | -52.3°C | 0.8% | 0hPa | 2.7V | 08:28:00 | 00:00:00 | 00:00:00 | |
| OE5MMP-10 | 2026-09-05 07:06:39 | 49.98705 | 15.91616 | 88° | 16km/h | 22774m | -65.9m/s | -52.4°C | 4.2% | 0hPa | 2.7V | 00:00:00 | 02:03:53 | 00:00:00 | |
| SONDE2-11 | 2026-09-05 07:06:38 | 49.98705 | 15.91610 | 86° | 16km/h | 22839m | -66.6m/s | -52.5°C | 0.7% | -1.0hPa | 2.7V | 00:00:00 | 00:00:00 | 00:00:00 | |
| OK1ALN | 2026-09-05 07:06:37 | 49.98705 | 15.91610 | 87° | 16km/h | 22840m | -66.6m/s | -52.5°C | 0.8% | 0hPa | 2.7V | 08:28:00 | 00:00:00 | 00:00:00 | |
| OM5KV | 2026-09-05 07:06:34 | 49.98710 | 15.91581 | 118° | 18km/h | 23106m | -67.6m/s | 0°C | 0% | 0hPa | 2.7V | 00:00:00 | 00:00:00 | 00:00:00 | |
| OM5KV | 2026-09-05 07:06:33 | 49.98710 | 15.91581 | 118° | 18km/h | 23106m | -67.6m/s | 0°C | 0% | 0hPa | 2.7V | 00:00:00 | 00:00:00 | 00:00:00 | |
| OM5KV | 2026-09-05 07:06:32 | 49.98712 | 15.91576 | 118° | 13km/h | 23173m | -67.5m/s | 0°C | 0% | 0hPa | 2.7V | 00:00:00 | 00:00:00 | 00:00:00 | |
| PG1ADW-2 | 2026-09-05 07:06:31 | 49.98715 | 15.91566 | 120° | 11km/h | 23308m | -67.6m/s | -52.5°C | 4.4% | 0hPa | 2.7V | 00:00:00 | 00:00:00 | 00:00:00 | |
| PETON7-10 | 2026-09-05 07:06:30 | 49.98717 | 15.91561 | 107° | 13km/h | 23375m | -66.6m/s | -52.5°C | 4.5% | 0hPa | 2.7V | 00:00:00 | 02:03:44 | 00:00:00 | |
| OE5MMP-10 | 2026-09-05 07:06:29 | 49.98718 | 15.91556 | 105° | 15km/h | 23442m | -66.6m/s | -52.4°C | 4.5% | 0hPa | 2.7V | 00:00:00 | 02:03:43 | 00:00:00 | |
| SQ6EMJ | 2026-09-05 07:06:28 | 49.98718 | 15.91556 | 105° | 15km/h | 23442m | -66.7m/s | -52.4°C | 0.8% | 0hPa | 2.7V | 08:28:00 | 00:00:00 | 00:00:00 | |
| OE5DRO-10 | 2026-09-05 07:06:27 | 49.98721 | 15.91546 | 128° | 9km/h | 23576m | -66.9m/s | -51.7°C | 4.3% | 0hPa | 2.7V | 00:00:00 | 00:00:00 | 00:00:00 | |
| OM5KV | 2026-09-05 07:06:26 | 49.98722 | 15.91546 | 128° | 15km/h | 23576m | -66.9m/s | 0°C | 0% | 0hPa | 2.7V | 00:00:00 | 00:00:00 | 00:00:00 | |
| OE3OSB-13 | 2026-09-05 07:06:25 | 49.98729 | 15.91533 | 133° | 13km/h | 23778m | -68.6m/s | -50.6°C | 0.6% | -1.0hPa | 2.7V | 00:00:00 | 00:00:00 | 00:00:00 | |
| DO3MHA-11 | 2026-09-05 07:06:24 | 49.98729 | 15.91533 | 134° | 13km/h | 23778m | -68.6m/s | -50.6°C | 3.9% | 0hPa | 2.7V | 00:00:00 | 02:03:38 | 00:00:00 | |
| SQ6EMJ | 2026-09-05 07:06:23 | 49.98729 | 15.91533 | 134° | 15km/h | 23778m | -68.6m/s | -50.6°C | 0.7% | 0hPa | 2.7V | 08:28:00 | 00:00:00 | 00:00:00 | |
| POL1PZ | 2026-09-05 07:06:20 | 49.98737 | 15.91522 | 150° | 11km/h | 23987m | -70.5m/s | -49.9°C | 0.6% | 0hPa | 2.7V | 08:28:00 | 00:00:00 | 00:00:00 | |
| OE5MMP-10 | 2026-09-05 07:06:19 | 49.98743 | 15.91518 | 162° | 7km/h | 24128m | -70.7m/s | -48.9°C | 3.4% | 0hPa | 2.7V | 00:00:00 | 02:03:33 | 00:00:00 | |
| SQ6EMJ | 2026-09-05 07:06:17 | 49.98746 | 15.91518 | 181° | 13km/h | 24198m | -71.2m/s | -48.4°C | 0.6% | 0hPa | 2.6V | 08:28:00 | 00:00:00 | 00:00:00 | |
| OK1ALN | 2026-09-05 07:06:16 | 49.98749 | 15.91518 | 189° | 11km/h | 24269m | -71.0m/s | -48.6°C | 0.5% | 0hPa | 2.6V | 08:28:00 | 00:00:00 | 00:00:00 | |
| PETON7-10 | 2026-09-05 07:06:15 | 49.98753 | 15.91520 | 185° | 4km/h | 24412m | -71.4m/s | -48.7°C | 3.4% | 0hPa | 2.6V | 00:00:00 | 00:00:00 | 00:00:00 | |
| DO3MHA-11 | 2026-09-05 07:06:14 | 49.98753 | 15.91520 | 230° | 4km/h | 24483m | -71.5m/s | -48.5°C | 3.4% | 0hPa | 2.7V | 00:00:00 | 02:03:28 | 00:00:00 | |
| S52SK | 2026-09-05 07:06:13 | 49.98754 | 15.91520 | 230° | 4km/h | 24483m | -71.5m/s | -48.5°C | 0.5% | 0hPa | 2.7V | 00:00:00 | 00:00:00 | 00:00:00 | |
| NBG1-10 | 2026-09-05 07:06:12 | 49.98754 | 15.91522 | 324° | 9km/h | 24626m | -70.7m/s | -48.1°C | 3.3% | 0hPa | 2.7V | 08:28:00 | 02:03:26 | 00:00:00 | |
| PG1ADW-2 | 2026-09-05 07:06:11 | 49.98753 | 15.91523 | 319° | 7km/h | 24697m | -70.9m/s | -47.8°C | 3.2% | 0hPa | 2.7V | 00:00:00 | 02:03:25 | 00:00:00 | |
| OE5MMP-10 | 2026-09-05 07:06:09 | 49.98752 | 15.91524 | 7° | 5km/h | 24841m | -72.9m/s | -47.8°C | 3.2% | 0hPa | 2.7V | 00:00:00 | 02:03:23 | 00:00:00 | |
| OE5DRO-10 | 2026-09-05 07:06:08 | 49.98751 | 15.91524 | 2° | 9km/h | 24915m | -73.8m/s | -47.8°C | 3.3% | 0hPa | 2.7V | 00:00:00 | 00:00:00 | 00:00:00 | |
| SONDE2-11 | 2026-09-05 07:06:07 | 49.98750 | 15.91525 | 336° | 4km/h | 24989m | -74.7m/s | -47.9°C | 0.5% | -1.0hPa | 2.7V | 00:00:00 | 00:00:00 | 00:00:00 | |
| SQ6EMJ | 2026-09-05 07:06:06 | 49.98750 | 15.91525 | 338° | 4km/h | 24989m | -74.7m/s | -47.9°C | 0.5% | 0hPa | 2.7V | 08:28:00 | 00:00:00 | 00:00:00 | |
| DO3MHA-11 | 2026-09-05 07:06:04 | 49.98748 | 15.91527 | 342° | 9km/h | 25218m | -77.7m/s | -47.8°C | 3.3% | 0hPa | 2.7V | 00:00:00 | 02:03:18 | 00:00:00 | |
| OK1SLM-15 | 2026-09-05 07:06:03 | 49.98748 | 15.91527 | 343° | 5km/h | 25218m | -77.7m/s | -47.9°C | 0.5% | 0hPa | 2.7V | 00:00:00 | 00:00:00 | 00:00:00 | |
| OE3OSB-13 | 2026-09-05 07:05:54 | 49.98729 | 15.91508 | 69° | 11km/h | 26080m | -80.4m/s | -46.6°C | 0.5% | -1.0hPa | 2.7V | 00:00:00 | 00:00:00 | 00:00:00 | |
| PG1ADW-2 | 2026-09-05 07:05:51 | 49.98728 | 15.91501 | 90° | 11km/h | 26243m | -83.1m/s | -46.3°C | 3.0% | 0hPa | 2.7V | 00:00:00 | 00:00:00 | 00:00:00 | |
| OE5MMP-10 | 2026-09-05 07:05:49 | 49.98727 | 15.91495 | 90° | 9km/h | 26410m | -84.8m/s | -46.3°C | 3.0% | 0hPa | 2.7V | 08:29:00 | 02:03:03 | 00:00:00 | |
| HA6NAB-11 | 2026-09-05 07:05:48 | 49.98728 | 15.91495 | 91° | 7km/h | 26410m | -84.9m/s | -46.3°C | 0.5% | 0hPa | 2.7V | 00:00:00 | 00:00:00 | 00:00:00 | |
| DO3MHA-11 | 2026-09-05 07:05:44 | 49.98723 | 15.91485 | 45° | 13km/h | 26834m | -84.7m/s | -45.3°C | 2.9% | 0hPa | 2.7V | 00:00:00 | 02:02:58 | 00:00:00 | |
| OE5DXL-15 | 2026-09-05 07:05:43 | 49.98720 | 15.91482 | 43° | 15km/h | 26919m | -86.1m/s | -45.1°C | 2.9% | 0hPa | 2.7V | 00:00:00 | 00:00:00 | 00:00:00 | |
| HA6NAB-11 | 2026-09-05 07:05:42 | 49.98720 | 15.91482 | 44° | 13km/h | 26919m | -86.2m/s | -45.2°C | 0.5% | 0hPa | 2.7V | 00:00:00 | 00:00:00 | 00:00:00 | |
| SP3WXH-11 | 2026-09-05 07:05:41 | 49.98716 | 15.91473 | 59° | 15km/h | 27092m | -87.2m/s | -45.3°C | 0.4% | -1.0hPa | 2.7V | 00:00:00 | 00:00:00 | 00:00:00 | |
| NBG1-10 | 2026-09-05 07:05:39 | 49.98713 | 15.91462 | 86° | 13km/h | 27266m | -86.7m/s | -45.5°C | 3.0% | 0hPa | 2.7V | 00:00:00 | 02:02:53 | 00:00:00 | |
| KRY50SP | 2026-09-05 07:05:38 | 49.98713 | 15.91462 | 87° | 15km/h | 27266m | -86.7m/s | -45.6°C | 0.5% | 0hPa | 2.7V | 08:29:00 | 00:00:00 | 00:00:00 | |
| EDDB2-12 | 2026-09-05 07:05:37 | 49.98713 | 15.91447 | 81° | 9km/h | 27524m | -87.3m/s | -45.5°C | 0.4% | -1.0hPa | 2.7V | 00:00:00 | 00:00:00 | 00:00:00 | |
| SONDE2-11 | 2026-09-05 07:05:36 | 49.98713 | 15.91447 | 81° | 9km/h | 27524m | -87.3m/s | -45.5°C | 0.4% | -1.0hPa | 2.7V | 00:00:00 | 00:00:00 | 00:00:00 | |
| OE3JTB-15 | 2026-09-05 07:05:35 | 49.98712 | 15.91443 | 81° | 15km/h | 27612m | -87.5m/s | -45.2°C | 3.0% | 0hPa | 2.7V | 00:00:00 | 00:00:00 | 00:00:00 | |
| DO3MHA-11 | 2026-09-05 07:05:34 | 49.98712 | 15.91438 | 83° | 13km/h | 27699m | -88.3m/s | -45.2°C | 3.0% | 0hPa | 2.7V | 00:00:00 | 02:02:48 | 00:00:00 | |
| SQ6EMJ | 2026-09-05 07:05:33 | 49.98710 | 15.91434 | 71° | 13km/h | 27788m | -89.0m/s | -45.2°C | 0.5% | 0hPa | 2.7V | 08:29:00 | 00:00:00 | 00:00:00 | |
| DC4HF-4 | 2026-09-05 07:05:32 | 49.98709 | 15.91429 | 70° | 13km/h | 27877m | -88.9m/s | -45.2°C | 0.4% | -1.0hPa | 2.7V | 00:00:00 | 00:00:00 | 00:00:00 | |
| PG1ADW-2 | 2026-09-05 07:05:31 | 49.98708 | 15.91424 | 84° | 15km/h | 27966m | -89.6m/s | -44.8°C | 3.1% | 0hPa | 2.7V | 00:00:00 | 00:00:00 | 00:00:00 | |
| PETON7-10 | 2026-09-05 07:05:30 | 49.98708 | 15.91418 | 86° | 15km/h | 28056m | -89.9m/s | -44.5°C | 3.0% | 0hPa | 2.7V | 08:29:00 | 00:00:00 | 00:00:00 | |
| OE5MMP-10 | 2026-09-05 07:05:29 | 49.98708 | 15.91412 | 91° | 15km/h | 28146m | -91.8m/s | -44.2°C | 2.9% | 0hPa | 2.7V | 00:00:00 | 02:02:43 | 00:00:00 | |
| OK1SLM-15 | 2026-09-05 07:05:26 | 49.98708 | 15.91402 | 91° | 13km/h | 28332m | -94.5m/s | -43.5°C | 0.4% | 0hPa | 2.7V | 00:00:00 | 00:00:00 | 00:00:00 | |
| DO3MHA-11 | 2026-09-05 07:05:24 | 49.98708 | 15.91387 | 91° | 13km/h | 28615m | -94.3m/s | -43.2°C | 2.8% | 0hPa | 2.7V | 00:00:00 | 02:02:38 | 00:00:00 | |
| POL2MAQ | 2026-09-05 07:05:22 | 49.98708 | 15.91382 | 81° | 13km/h | 28710m | -95.7m/s | -43.2°C | 0.4% | 0hPa | 2.7V | 08:29:00 | 00:00:00 | 00:00:00 | |
| KRY50SP | 2026-09-05 07:05:21 | 49.98707 | 15.91377 | 81° | 15km/h | 28806m | -96.9m/s | -43.4°C | 0.4% | 0hPa | 2.7V | 08:29:00 | 00:00:00 | 00:00:00 | |
| OE3MUC-15 | 2026-09-05 07:05:19 | 49.98707 | 15.91358 | 103° | 16km/h | 29095m | -96.6m/s | -43.2°C | 2.9% | 0hPa | 2.7V | 00:00:00 | 00:00:00 | 00:00:00 | |
| SQ6EMJ | 2026-09-05 07:05:16 | 49.98710 | 15.91346 | 118° | 16km/h | 29290m | -97.7m/s | -42.0°C | 0.4% | 0hPa | 2.7V | 08:29:00 | 00:00:00 | 00:00:00 | |
| PETON7-10 | 2026-09-05 07:05:15 | 49.98714 | 15.91334 | 115° | 15km/h | 29487m | -99.7m/s | -40.7°C | 2.4% | 0hPa | 2.7V | 00:00:00 | 00:00:00 | 00:00:00 | |
| OE5DXL-15 | 2026-09-05 07:05:13 | 49.98718 | 15.91323 | 123° | 13km/h | 29685m | -98.4m/s | -40.4°C | 2.4% | 0hPa | 2.7V | 08:29:00 | 00:00:00 | 00:00:00 | |
| EDDB2-11 | 2026-09-05 07:05:12 | 49.98721 | 15.91312 | 120° | 13km/h | 29882m | -99.0m/s | -39.4°C | 0.2% | -1.0hPa | 2.7V | 00:00:00 | 00:00:00 | 00:00:00 | |
| PG1ADW-2 | 2026-09-05 07:05:11 | 49.98721 | 15.91312 | 121° | 13km/h | 29883m | -99.0m/s | -39.4°C | 2.2% | 0hPa | 2.7V | 00:00:00 | 00:00:00 | 00:00:00 | |
| SP3WXH-11 | 2026-09-05 07:05:10 | 49.98724 | 15.91307 | 128° | 15km/h | 29982m | -100.1m/s | -38.8°C | 0.2% | -1.0hPa | 2.7V | 00:00:00 | 00:00:00 | 00:00:00 | |
| OE5MMP-10 | 2026-09-05 07:05:09 | 49.98726 | 15.91303 | 128° | 13km/h | 30082m | -100.6m/s | -38.2°C | 2.0% | 0hPa | 2.7V | 00:00:00 | 02:02:23 | 00:00:00 | |
| SONCRA | 2026-09-05 07:05:08 | 49.98728 | 15.91299 | 130° | 13km/h | 30183m | -101.7m/s | -38.0°C | 0.2% | -1.0hPa | 2.7V | 00:00:00 | 00:00:00 | 00:00:00 | |
| OE3MUC-15 | 2026-09-05 07:05:07 | 49.98730 | 15.91295 | 134° | 11km/h | 30285m | -102.2m/s | -37.9°C | 1.9% | 0hPa | 2.7V | 00:00:00 | 00:00:00 | 00:00:00 | |
| SQ6EMJ | 2026-09-05 07:05:06 | 49.98732 | 15.91292 | 131° | 13km/h | 30387m | -102.5m/s | -38.0°C | 0.2% | 0hPa | 2.7V | 00:00:00 | 00:00:00 | 00:00:00 | |
| OE3MUC-15 | 2026-09-05 07:05:03 | 49.98738 | 15.91280 | 114° | 13km/h | 30699m | -105.3m/s | -37.6°C | 1.9% | 0hPa | 2.7V | 00:00:00 | 00:00:00 | 00:00:00 | |
| DC4HF-4 | 2026-09-05 07:04:56 | 49.98740 | 15.91246 | 101° | 15km/h | 31447m | -107.6m/s | -38.5°C | 0.2% | -1.0hPa | 2.7V | 00:00:00 | 00:00:00 | 00:00:00 | |
| OE3MUC-15 | 2026-09-05 07:04:55 | 49.98740 | 15.91241 | 106° | 15km/h | 31554m | -106.8m/s | -38.2°C | 2.1% | 0hPa | 2.7V | 00:00:00 | 00:00:00 | 00:00:00 | |
| OK1ALN | 2026-09-05 07:04:54 | 49.98740 | 15.91241 | 106° | 15km/h | 31554m | -106.8m/s | -38.3°C | 0.2% | 0hPa | 2.7V | 00:00:00 | 00:00:00 | 00:00:00 | |
| OK1SLM-15 | 2026-09-05 07:04:53 | 49.98742 | 15.91235 | 109° | 15km/h | 31660m | -105.6m/s | -38.0°C | 0.2% | 0hPa | 2.7V | 00:00:00 | 00:00:00 | 00:00:00 | |
| DO3MHA-11 | 2026-09-05 07:04:52 | 49.98743 | 15.91225 | 104° | 13km/h | 31869m | -102.6m/s | -37.2°C | 1.9% | 0hPa | 2.7V | 00:00:00 | 02:02:06 | 00:00:00 | |
| PG1ADW-2 | 2026-09-05 07:04:51 | 49.98743 | 15.91221 | 109° | 13km/h | 31971m | -102.0m/s | -37.0°C | 1.9% | 0hPa | 2.7V | 00:00:00 | 02:02:05 | 00:00:00 | |
| SP6BVK | 2026-09-05 07:04:50 | 49.98743 | 15.91221 | 109° | 9km/h | 31971m | -102.0m/s | -37.1°C | 0.2% | 0hPa | 2.7V | 00:00:00 | 00:00:00 | 00:00:00 | |
| OE5MMP-10 | 2026-09-05 07:04:49 | 49.98745 | 15.91212 | 99° | 13km/h | 32173m | -99.2m/s | -36.8°C | 1.9% | 0hPa | 2.7V | 00:00:00 | 02:02:03 | 00:00:00 | |
| OE3MUC-15 | 2026-09-05 07:04:47 | 49.98745 | 15.91202 | 103° | 13km/h | 32366m | -94.2m/s | -36.6°C | 1.8% | 0hPa | 2.6V | 00:00:00 | 00:00:00 | 00:00:00 | |
| HA6NAB-11 | 2026-09-05 07:04:46 | 49.98746 | 15.91202 | 104° | 13km/h | 32366m | -94.3m/s | -36.7°C | 0.2% | 0hPa | 2.6V | 00:00:00 | 00:00:00 | 00:00:00 | |
| PETON7-10 | 2026-09-05 07:04:45 | 49.98747 | 15.91193 | 105° | 13km/h | 32553m | -91.2m/s | -36.5°C | 1.8% | 0hPa | 2.6V | 00:00:00 | 00:00:00 | 00:00:00 | |
| OE5DXL-15 | 2026-09-05 07:04:43 | 49.98749 | 15.91183 | 109° | 16km/h | 32729m | -84.4m/s | -36.5°C | 1.8% | 0hPa | 2.6V | 00:00:00 | 00:00:00 | 00:00:00 | |
| DO3MHA-11 | 2026-09-05 07:04:42 | 49.98750 | 15.91179 | 111° | 13km/h | 32812m | -81.1m/s | -36.2°C | 1.8% | 0hPa | 2.6V | 00:00:00 | 02:01:56 | 00:00:00 | |
| HA6NAB-11 | 2026-09-05 07:04:41 | 49.98750 | 15.91179 | 112° | 11km/h | 32812m | -81.1m/s | -36.3°C | 0.2% | 0hPa | 2.6V | 00:00:00 | 00:00:00 | 00:00:00 | |
| KRY50SP | 2026-09-05 07:04:40 | 49.98751 | 15.91175 | 114° | 11km/h | 32892m | -77.9m/s | -36.1°C | 0.2% | 0hPa | 2.6V | 00:00:00 | 00:00:00 | 00:00:00 | |
| OE3MUC-15 | 2026-09-05 07:04:39 | 49.98754 | 15.91168 | 131° | 13km/h | 33039m | -69.6m/s | -36.0°C | 1.7% | 0hPa | 2.6V | 00:00:00 | 00:00:00 | 00:00:00 | |
| POL2MAQ | 2026-09-05 07:04:38 | 49.98754 | 15.91168 | 132° | 9km/h | 33039m | -69.7m/s | -36.0°C | 0.2% | 0hPa | 2.6V | 00:00:00 | 00:00:00 | 00:00:00 | |
| 13BRC | 2026-09-05 07:04:37 | 49.98756 | 15.91165 | 147° | 13km/h | 33107m | -66.2m/s | -35.9°C | 0.2% | 0hPa | 2.6V | 00:00:00 | 00:00:00 | 00:00:00 | |
| OE3JTB-15 | 2026-09-05 07:04:36 | 49.98762 | 15.91160 | 149° | 16km/h | 33231m | -57.7m/s | -35.4°C | 1.6% | 0hPa | 2.6V | 00:00:00 | 02:01:50 | 00:00:00 | |
| EDDB2-12 | 2026-09-05 07:04:35 | 49.98769 | 15.91154 | 155° | 16km/h | 33338m | -47.7m/s | -35.8°C | 0.2% | -1.0hPa | 2.6V | 00:00:00 | 00:00:00 | 00:00:00 | |
| OE3MUC-15 | 2026-09-05 07:04:34 | 49.98769 | 15.91154 | 156° | 15km/h | 33338m | -47.7m/s | -35.8°C | 1.6% | 0hPa | 2.6V | 00:00:00 | 00:00:00 | 08:30:00 | |
| DB0UT-7 | 2026-09-05 07:04:33 | 49.98773 | 15.91151 | 156° | 20km/h | 33382m | -41.1m/s | -35.9°C | 1.7% | 0hPa | 2.6V | 00:00:00 | 02:01:47 | 00:00:00 | |
| DO3MHA-11 | 2026-09-05 07:04:32 | 49.98777 | 15.91149 | 156° | 16km/h | 33420m | -34.6m/s | -36.0°C | 1.7% | 0hPa | 2.7V | 00:00:00 | 02:01:46 | 00:00:00 | |
| PG1ADW-2 | 2026-09-05 07:04:31 | 49.98780 | 15.91146 | 149° | 20km/h | 33451m | -27.5m/s | -35.9°C | 1.7% | 0hPa | 2.7V | 00:00:00 | 00:00:00 | 08:30:00 | |
| PETON7-10 | 2026-09-05 07:04:30 | 49.98782 | 15.91144 | 117° | 18km/h | 33475m | -19.5m/s | -35.9°C | 1.7% | 0hPa | 2.7V | 00:00:00 | 00:00:00 | 00:00:00 | |
| OE5MMP-10 | 2026-09-05 07:04:29 | 49.98782 | 15.91141 | 52° | 18km/h | 33491m | -11.1m/s | -35.9°C | 1.7% | 0hPa | 2.7V | 00:00:00 | 02:01:43 | 00:00:00 | |
| HA6NAB-11 | 2026-09-05 07:04:23 | 49.98761 | 15.91133 | 356° | 26km/h | 33470m | 6.1m/s | -36.1°C | 0.2% | 0hPa | 2.7V | 00:00:00 | 00:00:00 | 00:00:00 | |
| DO3MHA-11 | 2026-09-05 07:04:22 | 49.98749 | 15.91133 | 4° | 20km/h | 33459m | 5.7m/s | -36.0°C | 1.7% | 0hPa | 2.7V | 00:00:00 | 02:01:36 | 00:00:00 | |
| DC4HF-4 | 2026-09-05 07:04:20 | 49.98740 | 15.91129 | 40° | 15km/h | 33445m | 8.1m/s | -36.1°C | 0.2% | -1.0hPa | 2.7V | 00:00:00 | 00:00:00 | 00:00:00 | |
| OE3MUC-15 | 2026-09-05 07:04:19 | 49.98738 | 15.91125 | 66° | 18km/h | 33437m | 7.0m/s | -36.0°C | 1.7% | 0hPa | 2.7V | 00:00:00 | 00:00:00 | 00:00:00 | |
| OE5MMP-10 | 2026-09-05 07:04:18 | 49.98736 | 15.91119 | 71° | 16km/h | 33431m | 5.9m/s | -36.0°C | 1.7% | 0hPa | 2.7V | 00:00:00 | 02:01:32 | 08:30:00 | |
| KRY50SP | 2026-09-05 07:04:17 | 49.98736 | 15.91119 | 71° | 18km/h | 33431m | 6.0m/s | -36.1°C | 0.2% | 0hPa | 2.7V | 00:00:00 | 00:00:00 | 00:00:00 | |
| 13BRC | 2026-09-05 07:04:16 | 49.98734 | 15.91112 | 65° | 20km/h | 33424m | 7.4m/s | -36.1°C | 0.2% | 0hPa | 2.7V | 00:00:00 | 00:00:00 | 00:00:00 | |
| OE3MUC-15 | 2026-09-05 07:04:15 | 49.98728 | 15.91098 | 48° | 20km/h | 33409m | 6.9m/s | -36.0°C | 1.7% | 0hPa | 2.7V | 00:00:00 | 00:00:00 | 00:00:00 | |
| OE5DRO-10 | 2026-09-05 07:04:14 | 49.98724 | 15.91091 | 45° | 15km/h | 33402m | 6.0m/s | -36.1°C | 1.7% | 0hPa | 2.7V | 00:00:00 | 00:00:00 | 00:00:00 | |
| OE5DXL-15 | 2026-09-05 07:04:13 | 49.98720 | 15.91085 | 47° | 13km/h | 33396m | 6.4m/s | -36.1°C | 1.7% | 0hPa | 2.7V | 00:00:00 | 00:00:00 | 00:00:00 | |
| DO3MHA-11 | 2026-09-05 07:04:12 | 49.98717 | 15.91080 | 54° | 9km/h | 33388m | 8.2m/s | -36.0°C | 1.7% | 0hPa | 2.7V | 00:00:00 | 02:01:26 | 00:00:00 | |
| OE3MUC-15 | 2026-09-05 07:04:11 | 49.98716 | 15.91076 | 64° | 7km/h | 33380m | 7.7m/s | -36.1°C | 1.7% | 0hPa | 2.7V | 00:00:00 | 00:00:00 | 00:00:00 | |
| EDDB2-11 | 2026-09-05 07:04:10 | 49.98714 | 15.91072 | 4° | 4km/h | 33366m | 7.3m/s | -36.1°C | 0.1% | -1.0hPa | 2.7V | 00:00:00 | 00:00:00 | 00:00:00 | |
| OE5MMP-10 | 2026-09-05 07:04:08 | 49.98712 | 15.91073 | 343° | 13km/h | 33358m | 8.4m/s | -36.0°C | 1.7% | 0hPa | 2.7V | 00:00:00 | 02:01:22 | 00:00:00 | |
| OE3MUC-15 | 2026-09-05 07:04:07 | 49.98710 | 15.91074 | 340° | 9km/h | 33350m | 6.6m/s | -36.1°C | 1.7% | 0hPa | 2.7V | 00:00:00 | 00:00:00 | 00:00:00 | |
| HA6NAB-11 | 2026-09-05 07:04:06 | 49.98710 | 15.91074 | 341° | 13km/h | 33350m | 6.7m/s | -36.1°C | 0.2% | 0hPa | 2.6V | 00:00:00 | 00:00:00 | 00:00:00 | |
| KRY50SP | 2026-09-05 07:04:05 | 49.98707 | 15.91075 | 347° | 11km/h | 33345m | 4.9m/s | -36.1°C | 0.2% | 0hPa | 2.6V | 00:00:00 | 00:00:00 | 00:00:00 | |
| EDDB2-12 | 2026-09-05 07:04:04 | 49.98701 | 15.91073 | 71° | 7km/h | 33324m | 7.7m/s | -36.1°C | 0.2% | -1.0hPa | 2.6V | 00:00:00 | 00:00:00 | 00:00:00 | |
| DB0UT-7 | 2026-09-05 07:04:03 | 49.98701 | 15.91073 | 72° | 16km/h | 33324m | 7.6m/s | -36.1°C | 1.7% | 0hPa | 2.6V | 00:00:00 | 00:00:00 | 00:00:00 | |
| DO3MHA-11 | 2026-09-05 07:04:02 | 49.98701 | 15.91069 | 79° | 16km/h | 33317m | 6.3m/s | -36.0°C | 1.7% | 0hPa | 2.6V | 00:00:00 | 02:01:16 | 00:00:00 | |
| PETON7-10 | 2026-09-05 07:04:00 | 49.98697 | 15.91056 | 54° | 15km/h | 33304m | 8.4m/s | -36.1°C | 1.7% | 0hPa | 2.7V | 00:00:00 | 00:00:00 | 00:00:00 | |
| OE3MUC-15 | 2026-09-05 07:03:59 | 49.98693 | 15.91050 | 41° | 22km/h | 33295m | 8.0m/s | -36.0°C | 1.7% | 0hPa | 2.7V | 00:00:00 | 00:00:00 | 00:00:00 | |
| OE5MMP-10 | 2026-09-05 07:03:58 | 49.98688 | 15.91044 | 32° | 11km/h | 33288m | 5.8m/s | -35.9°C | 1.7% | 0hPa | 2.7V | 00:00:00 | 02:01:12 | 00:00:00 | |
| POL2MAQ | 2026-09-05 07:03:57 | 49.98688 | 15.91044 | 33° | 26km/h | 33288m | 5.9m/s | -36.0°C | 0.2% | 0hPa | 2.7V | 00:00:00 | 00:00:00 | 00:00:00 | |
| OE3MUC-15 | 2026-09-05 07:03:55 | 49.98675 | 15.91033 | 30° | 7km/h | 33269m | 8.4m/s | -36.1°C | 1.7% | 0hPa | 2.7V | 00:00:00 | 00:00:00 | 08:30:00 | |
| OK1ALN | 2026-09-05 07:03:54 | 49.98673 | 15.91032 | 22° | 4km/h | 33261m | 7.1m/s | -36.1°C | 0.2% | 0hPa | 2.7V | 00:00:00 | 00:00:00 | 00:00:00 | |
| DO3MHA-11 | 2026-09-05 07:03:52 | 49.98672 | 15.91033 | 312° | 15km/h | 33247m | 7.4m/s | -36.3°C | 1.7% | 0hPa | 2.7V | 00:00:00 | 02:01:06 | 00:00:00 | |
| OE3MUC-15 | 2026-09-05 07:03:51 | 49.98671 | 15.91035 | 333° | 9km/h | 33240m | 7.9m/s | -36.4°C | 1.7% | 0hPa | 2.7V | 00:00:00 | 00:00:00 | 00:00:00 | |
| PG1ADW-2 | 2026-09-05 07:03:50 | 49.98668 | 15.91036 | 355° | 13km/h | 33232m | 6.5m/s | -36.3°C | 1.7% | 0hPa | 2.7V | 00:00:00 | 00:00:00 | 00:00:00 | |
| KRY50SP | 2026-09-05 07:03:49 | 49.98666 | 15.91035 | 23° | 9km/h | 33226m | 5.9m/s | -36.5°C | 0.2% | 0hPa | 2.7V | 00:00:00 | 00:00:00 | 00:00:00 | |
| OE5MMP-10 | 2026-09-05 07:03:48 | 49.98664 | 15.91033 | 53° | 15km/h | 33219m | 7.3m/s | -36.5°C | 1.7% | 0hPa | 2.7V | 00:00:00 | 02:01:02 | 00:00:00 | |
| OE3MUC-15 | 2026-09-05 07:03:47 | 49.98663 | 15.91028 | 76° | 20km/h | 33211m | 8.4m/s | -36.6°C | 1.7% | 0hPa | 2.7V | 00:00:00 | 00:00:00 | 00:00:00 | |
| OK1SLM-15 | 2026-09-05 07:03:46 | 49.98662 | 15.91028 | 77° | 15km/h | 33211m | 8.5m/s | -36.6°C | 0.2% | 0hPa | 2.7V | 00:00:00 | 00:00:00 | 00:00:00 | |
| PETON7-10 | 2026-09-05 07:03:45 | 49.98661 | 15.91013 | 80° | 13km/h | 33198m | 5.4m/s | -36.7°C | 1.7% | 0hPa | 2.7V | 00:00:00 | 00:00:00 | 00:00:00 | |
| DC4HF-4 | 2026-09-05 07:03:44 | 49.98660 | 15.91005 | 69° | 20km/h | 33192m | 6.6m/s | -36.9°C | 0.2% | -1.0hPa | 2.7V | 00:00:00 | 00:00:00 | 00:00:00 | |
| OE5DXL-15 | 2026-09-05 07:03:43 | 49.98657 | 15.90998 | 56° | 16km/h | 33184m | 8.1m/s | -36.8°C | 1.8% | 0hPa | 2.7V | 00:00:00 | 00:00:00 | 00:00:00 | |
| DO3MHA-11 | 2026-09-05 07:03:42 | 49.98654 | 15.90992 | 38° | 7km/h | 33177m | 6.9m/s | -36.8°C | 1.8% | 0hPa | 2.7V | 00:00:00 | 02:00:56 | 00:00:00 | |
| OM5KV | 2026-09-05 07:03:41 | 49.98654 | 15.90992 | 39° | 18km/h | 33177m | 7.0m/s | -36.9°C | 0.2% | 0hPa | 2.7V | 00:00:00 | 00:00:00 | 00:00:00 | |
| EDDB2-11 | 2026-09-05 07:03:39 | 49.98647 | 15.90986 | 170° | 2km/h | 33148m | 6.9m/s | -37.2°C | 0.2% | -1.0hPa | 2.7V | 00:00:00 | 00:00:00 | 00:00:00 | |
| OE3JTB-15 | 2026-09-05 07:03:38 | 49.98647 | 15.90986 | 171° | 18km/h | 33149m | 6.8m/s | -37.1°C | 1.8% | 0hPa | 2.7V | 00:00:00 | 00:00:00 | 00:00:00 | |
| SP3WXH-11 | 2026-09-05 07:03:37 | 49.98648 | 15.90986 | 167° | 4km/h | 33142m | 5.4m/s | -37.2°C | 0.2% | -1.0hPa | 2.7V | 00:00:00 | 00:00:00 | 00:00:00 | |
| 13BRC | 2026-09-05 07:03:36 | 49.98649 | 15.90985 | 141° | 4km/h | 33137m | 6.1m/s | -37.3°C | 0.2% | 0hPa | 2.7V | 00:00:00 | 00:00:00 | 00:00:00 | |
| SONCRA | 2026-09-05 07:03:35 | 49.98649 | 15.90984 | 72° | 2km/h | 33130m | 7.4m/s | -37.3°C | 0.2% | -1.0hPa | 2.7V | 00:00:00 | 00:00:00 | 00:00:00 | |
| OM5KV | 2026-09-05 07:03:34 | 49.98648 | 15.90982 | 56° | 9km/h | 33123m | 7.0m/s | -37.3°C | 0.2% | 0hPa | 2.7V | 00:00:00 | 00:00:00 | 00:00:00 | |
| HA6NAB-11 | 2026-09-05 07:03:33 | 49.98647 | 15.90979 | 63° | 15km/h | 33116m | 6.0m/s | -37.3°C | 0.2% | 0hPa | 2.7V | 00:00:00 | 00:00:00 | 00:00:00 | |
| DO3MHA-11 | 2026-09-05 07:03:32 | 49.98645 | 15.90973 | 75° | 22km/h | 33110m | 5.9m/s | -37.3°C | 1.8% | 0hPa | 2.7V | 00:00:00 | 02:00:46 | 08:30:00 | |
| PETON7-10 | 2026-09-05 07:03:30 | 49.98644 | 15.90955 | 93° | 20km/h | 33095m | 7.2m/s | -37.4°C | 1.8% | 0hPa | 2.6V | 00:00:00 | 02:00:44 | 00:00:00 | |
| OE5MMP-10 | 2026-09-05 07:03:28 | 49.98644 | 15.90934 | 82° | 16km/h | 33084m | 4.9m/s | -37.4°C | 1.8% | 0hPa | 2.6V | 00:00:00 | 02:00:42 | 00:00:00 | |
| HA6NAB-11 | 2026-09-05 07:03:26 | 49.98643 | 15.90925 | 69° | 24km/h | 33078m | 7.3m/s | -37.4°C | 0.2% | 0hPa | 2.6V | 00:00:00 | 00:00:00 | 00:00:00 | |
| OM5KV | 2026-09-05 07:03:25 | 49.98635 | 15.90913 | 24° | 22km/h | 33063m | 6.1m/s | -37.6°C | 0.2% | 0hPa | 2.6V | 00:00:00 | 00:00:00 | 00:00:00 | |
| OM5KV | 2026-09-05 07:03:24 | 49.98635 | 15.90913 | 24° | 22km/h | 33063m | 6.1m/s | -37.6°C | 0.2% | 0hPa | 2.6V | 00:00:00 | 00:00:00 | 00:00:00 | |
| DO3MHA-11 | 2026-09-05 07:03:22 | 49.98623 | 15.90910 | 8° | 18km/h | 33043m | 7.2m/s | -37.7°C | 1.9% | 0hPa | 2.6V | 00:00:00 | 02:00:36 | 00:00:00 | |
| HA6NAB-11 | 2026-09-05 07:03:20 | 49.98621 | 15.90909 | 21° | 9km/h | 33037m | 5.7m/s | -37.8°C | 0.2% | 0hPa | 2.6V | 00:00:00 | 00:00:00 | 00:00:00 | |
| OM5KV | 2026-09-05 07:03:19 | 49.98619 | 15.90907 | 29° | 13km/h | 33032m | 5.1m/s | -37.7°C | 0.2% | 0hPa | 2.6V | 00:00:00 | 00:00:00 | 00:00:00 | |
| OE5MMP-10 | 2026-09-05 07:03:18 | 49.98611 | 15.90901 | 29° | 22km/h | 33018m | 8.3m/s | -37.8°C | 1.9% | 0hPa | 2.6V | 00:00:00 | 02:00:32 | 00:00:00 | |
| OE5DRO-10 | 2026-09-05 07:03:17 | 49.98606 | 15.90896 | 34° | 16km/h | 33011m | 6.0m/s | -37.7°C | 1.9% | 0hPa | 2.7V | 00:00:00 | 00:00:00 | 00:00:00 | |
| OM5KV | 2026-09-05 07:03:16 | 49.98606 | 15.90896 | 35° | 27km/h | 33011m | 6.1m/s | -37.8°C | 0.2% | 0hPa | 2.7V | 00:00:00 | 00:00:00 | 00:00:00 | |
| PETON7-10 | 2026-09-05 07:03:15 | 49.98596 | 15.90882 | 55° | 16km/h | 32999m | 7.6m/s | -37.8°C | 1.9% | 0hPa | 2.7V | 00:00:00 | 00:00:00 | 08:30:00 | |
| KRY50SP | 2026-09-05 07:03:14 | 49.98597 | 15.90882 | 55° | 24km/h | 32999m | 7.7m/s | -37.8°C | 0.2% | 0hPa | 2.6V | 00:00:00 | 00:00:00 | 00:00:00 | |
| OE5DXL-15 | 2026-09-05 07:03:13 | 49.98592 | 15.90866 | 85° | 16km/h | 32984m | 5.2m/s | -37.8°C | 1.9% | 0hPa | 2.6V | 00:00:00 | 00:00:00 | 00:00:00 | |
| DO3MHA-11 | 2026-09-05 07:03:12 | 49.98592 | 15.90858 | 86° | 13km/h | 32979m | 4.6m/s | -37.8°C | 1.9% | 0hPa | 2.6V | 00:00:00 | 02:00:26 | 00:00:00 | |
| OE3MUC-15 | 2026-09-05 07:03:11 | 49.98591 | 15.90850 | 77° | 18km/h | 32973m | 7.2m/s | -37.9°C | 1.9% | 0hPa | 2.6V | 00:00:00 | 00:00:00 | 00:00:00 | |
| PG1ADW-2 | 2026-09-05 07:03:10 | 49.98590 | 15.90843 | 64° | 16km/h | 32965m | 8.4m/s | -37.8°C | 1.9% | 0hPa | 2.6V | 00:00:00 | 00:00:00 | 00:00:00 | |
| OE3JTB-15 | 2026-09-05 07:03:09 | 49.98587 | 15.90837 | 52° | 16km/h | 32958m | 5.8m/s | -37.9°C | 1.8% | 0hPa | 2.6V | 00:00:00 | 02:00:23 | 00:00:00 | |
| EDDB2-11 | 2026-09-05 07:03:08 | 49.98583 | 15.90829 | 53° | 11km/h | 32947m | 7.3m/s | -38.0°C | 0.2% | -1.0hPa | 2.6V | 00:00:00 | 00:00:00 | 00:00:00 | |
| OE3MUC-15 | 2026-09-05 07:03:07 | 49.98582 | 15.90829 | 54° | 9km/h | 32947m | 7.2m/s | -38.0°C | 1.9% | 0hPa | 2.6V | 00:00:00 | 00:00:00 | 00:00:00 | |
| SP3WXH-11 | 2026-09-05 07:03:06 | 49.98581 | 15.90825 | 71° | 7km/h | 32939m | 8.1m/s | -38.0°C | 0.2% | -1.0hPa | 2.7V | 00:00:00 | 00:00:00 | 00:00:00 | |
| OM5KV | 2026-09-05 07:03:05 | 49.98581 | 15.90825 | 73° | 9km/h | 32939m | 8.1m/s | -38.0°C | 0.2% | 0hPa | 2.7V | 00:00:00 | 00:00:00 | 00:00:00 | |
| SONCRA | 2026-09-05 07:03:04 | 49.98580 | 15.90819 | 71° | 7km/h | 32927m | 5.5m/s | -38.2°C | 0.2% | -1.0hPa | 2.7V | 00:00:00 | 00:00:00 | 00:00:00 | |
| OE3MUC-15 | 2026-09-05 07:03:03 | 49.98579 | 15.90816 | 55° | 15km/h | 32921m | 7.4m/s | -38.2°C | 1.9% | 0hPa | 2.7V | 00:00:00 | 00:00:00 | 00:00:00 | |
| KRY50SP | 2026-09-05 07:03:02 | 49.98579 | 15.90816 | 55° | 11km/h | 32921m | 7.4m/s | -38.2°C | 0.2% | 0hPa | 2.7V | 00:00:00 | 00:00:00 | 00:00:00 | |
| SONDE2-11 | 2026-09-05 07:03:01 | 49.98575 | 15.90808 | 46° | 16km/h | 32906m | 5.7m/s | -38.3°C | 0.2% | -1.0hPa | 2.7V | 00:00:00 | 00:00:00 | 00:00:00 | |
| PETON7-10 | 2026-09-05 07:03:00 | 49.98572 | 15.90803 | 56° | 16km/h | 32900m | 5.1m/s | -38.3°C | 1.9% | 0hPa | 2.7V | 00:00:00 | 00:00:00 | 00:00:00 | |
| OE3MUC-15 | 2026-09-05 07:02:59 | 49.98570 | 15.90797 | 69° | 20km/h | 32894m | 7.7m/s | -38.4°C | 1.9% | 0hPa | 2.7V | 00:00:00 | 00:00:00 | 00:00:00 | |
| OE5DRO-10 | 2026-09-05 07:02:58 | 49.98569 | 15.90790 | 84° | 18km/h | 32886m | 7.3m/s | -38.4°C | 1.9% | 0hPa | 2.7V | 00:00:00 | 00:00:00 | 00:00:00 | |
| KRY50SP | 2026-09-05 07:02:57 | 49.98569 | 15.90790 | 85° | 18km/h | 32886m | 7.4m/s | -38.4°C | 0.2% | 0hPa | 2.6V | 00:00:00 | 00:00:00 | 00:00:00 | |
| 13BRC | 2026-09-05 07:02:56 | 49.98568 | 15.90783 | 87° | 20km/h | 32880m | 5.2m/s | -38.5°C | 0.2% | 0hPa | 2.6V | 00:00:00 | 00:00:00 | 00:00:00 | |
| OE3MUC-15 | 2026-09-05 07:02:55 | 49.98566 | 15.90767 | 66° | 22km/h | 32868m | 7.5m/s | -38.7°C | 2.0% | 0hPa | 2.6V | 00:00:00 | 00:00:00 | 00:00:00 | |
| POL2MAQ | 2026-09-05 07:02:54 | 49.98566 | 15.90767 | 66° | 22km/h | 32868m | 7.6m/s | -38.7°C | 0.2% | 0hPa | 2.6V | 00:00:00 | 00:00:00 | 00:00:00 | |
| DO3MHA-11 | 2026-09-05 07:02:52 | 49.98554 | 15.90749 | 27° | 15km/h | 32849m | 5.4m/s | -38.9°C | 2.0% | 0hPa | 2.6V | 00:00:00 | 02:00:06 | 00:00:00 | |
| DB0UT-7 | 2026-09-05 07:02:51 | 49.98551 | 15.90747 | 23° | 20km/h | 32842m | 7.5m/s | -39.0°C | 2.0% | 0hPa | 2.6V | 00:00:00 | 02:00:05 | 00:00:00 | |
| PG1ADW-2 | 2026-09-05 07:02:50 | 49.98548 | 15.90745 | 19° | 18km/h | 32835m | 7.4m/s | -39.0°C | 2.0% | 0hPa | 2.6V | 00:00:00 | 00:00:00 | 00:00:00 | |
| OE5MMP-10 | 2026-09-05 07:02:48 | 49.98546 | 15.90744 | 40° | 20km/h | 32823m | 5.4m/s | -39.1°C | 2.0% | 0hPa | 2.6V | 00:00:00 | 02:00:02 | 08:30:00 | |
| OE3MUC-15 | 2026-09-05 07:02:47 | 49.98545 | 15.90742 | 46° | 18km/h | 32816m | 7.1m/s | -39.3°C | 2.0% | 0hPa | 2.6V | 00:00:00 | 00:00:00 | 00:00:00 | |
| KRY50SP | 2026-09-05 07:02:46 | 49.98545 | 15.90742 | 47° | 9km/h | 32816m | 7.1m/s | -39.3°C | 0.2% | 0hPa | 2.6V | 00:00:00 | 00:00:00 | 00:00:00 | |
| PETON7-10 | 2026-09-05 07:02:45 | 49.98540 | 15.90732 | 61° | 22km/h | 32803m | 6.0m/s | -39.2°C | 2.0% | 0hPa | 2.6V | 00:00:00 | 01:59:59 | 00:00:00 | |
| OE3MUC-15 | 2026-09-05 07:02:43 | 49.98536 | 15.90715 | 79° | 24km/h | 32790m | 6.9m/s | -39.3°C | 2.1% | 0hPa | 2.6V | 00:00:00 | 00:00:00 | 08:30:00 | |
| DO3MHA-11 | 2026-09-05 07:02:42 | 49.98535 | 15.90705 | 88° | 20km/h | 32783m | 7.1m/s | -39.3°C | 2.0% | 0hPa | 2.7V | 00:00:00 | 01:59:56 | 00:00:00 | |
| OE3JTB-15 | 2026-09-05 07:02:40 | 49.98535 | 15.90686 | 89° | 22km/h | 32771m | 5.3m/s | -39.3°C | 2.0% | 0hPa | 2.7V | 00:00:00 | 00:00:00 | 08:30:00 | |
| OE3MUC-15 | 2026-09-05 07:02:39 | 49.98534 | 15.90678 | 77° | 20km/h | 32765m | 6.9m/s | -39.4°C | 2.0% | 0hPa | 2.6V | 00:00:00 | 00:00:00 | 00:00:00 | |
| EDDB2-11 | 2026-09-05 07:02:37 | 49.98525 | 15.90660 | 41° | 20km/h | 32746m | 4.9m/s | -39.4°C | 0.2% | -1.0hPa | 2.6V | 00:00:00 | 00:00:00 | 00:00:00 | |
| SQ6EMJ | 2026-09-05 07:02:36 | 49.98525 | 15.90660 | 42° | 20km/h | 32746m | 4.9m/s | -39.4°C | 0.3% | 0hPa | 2.6V | 00:00:00 | 00:00:00 | 00:00:00 | |
| SP3WXH-11 | 2026-09-05 07:02:35 | 49.98522 | 15.90655 | 49° | 16km/h | 32740m | 6.0m/s | -39.5°C | 0.2% | -1.0hPa | 2.6V | 00:00:00 | 00:00:00 | 00:00:00 | |
| SONCRA | 2026-09-05 07:02:33 | 49.98520 | 15.90636 | 99° | 20km/h | 32720m | 5.2m/s | -39.5°C | 0.2% | -1.0hPa | 2.6V | 00:00:00 | 00:00:00 | 00:00:00 | |
| DO3MHA-11 | 2026-09-05 07:02:32 | 49.98520 | 15.90636 | 100° | 24km/h | 32720m | 5.2m/s | -39.4°C | 2.1% | 0hPa | 2.6V | 00:00:00 | 01:59:46 | 00:00:00 | |
| OE3MUC-15 | 2026-09-05 07:02:31 | 49.98521 | 15.90627 | 94° | 24km/h | 32714m | 5.7m/s | -39.5°C | 2.1% | 0hPa | 2.6V | 00:00:00 | 00:00:00 | 00:00:00 | |
| PG1ADW-2 | 2026-09-05 07:02:30 | 49.98520 | 15.90618 | 83° | 22km/h | 32708m | 7.6m/s | -39.4°C | 2.0% | 0hPa | 2.7V | 00:00:00 | 00:00:00 | 00:00:00 | |
| NBG1-10 | 2026-09-05 07:02:29 | 49.98519 | 15.90609 | 73° | 20km/h | 32700m | 7.4m/s | -39.3°C | 2.0% | 0hPa | 2.7V | 00:00:00 | 01:59:43 | 00:00:00 | |
| SP6BVK | 2026-09-05 07:02:28 | 49.98517 | 15.90601 | 69° | 24km/h | 32694m | 4.2m/s | -39.4°C | 0.3% | 0hPa | 2.6V | 00:00:00 | 00:00:00 | 00:00:00 | |
| OE3MUC-15 | 2026-09-05 07:02:27 | 49.98515 | 15.90592 | 74° | 24km/h | 32690m | 4.6m/s | -39.4°C | 2.1% | 0hPa | 2.6V | 00:00:00 | 00:00:00 | 00:00:00 | |
| HA6NAB-11 | 2026-09-05 07:02:26 | 49.98515 | 15.90592 | 74° | 22km/h | 32690m | 4.6m/s | -39.5°C | 0.3% | 0hPa | 2.6V | 00:00:00 | 00:00:00 | 00:00:00 | |
| OM5KV | 2026-09-05 07:02:24 | 49.98513 | 15.90575 | 94° | 22km/h | 32676m | 8.1m/s | -39.4°C | 0.2% | 0hPa | 2.6V | 00:00:00 | 00:00:00 | 00:00:00 | |
| OE3MUC-15 | 2026-09-05 07:02:23 | 49.98514 | 15.90556 | 88° | 27km/h | 32665m | 5.1m/s | -39.4°C | 2.0% | 0hPa | 2.6V | 00:00:00 | 00:00:00 | 00:00:00 | |
| DO3MHA-11 | 2026-09-05 07:02:22 | 49.98513 | 15.90546 | 77° | 22km/h | 32658m | 7.5m/s | -39.5°C | 2.1% | 0hPa | 2.6V | 00:00:00 | 01:59:36 | 00:00:00 | |
| DB0UT-7 | 2026-09-05 07:02:21 | 49.98511 | 15.90536 | 68° | 13km/h | 32650m | 9.0m/s | -39.4°C | 2.0% | 0hPa | 2.6V | 00:00:00 | 00:00:00 | 00:00:00 | |
| OE5DRO-10 | 2026-09-05 07:02:20 | 49.98508 | 15.90525 | 59° | 18km/h | 32643m | 5.5m/s | -39.4°C | 2.1% | 0hPa | 2.7V | 00:00:00 | 00:00:00 | 00:00:00 | |
| OE3MUC-15 | 2026-09-05 07:02:19 | 49.98504 | 15.90515 | 61° | 22km/h | 32637m | 5.1m/s | -39.5°C | 2.1% | 0hPa | 2.7V | 00:00:00 | 00:00:00 | 00:00:00 | |
| KRY50SP | 2026-09-05 07:02:18 | 49.98501 | 15.90506 | 69° | 26km/h | 32631m | 7.4m/s | -39.6°C | 0.3% | 0hPa | 2.7V | 00:00:00 | 00:00:00 | 00:00:00 | |
| HA6NAB-11 | 2026-09-05 07:02:17 | 49.98499 | 15.90497 | 81° | 20km/h | 32623m | 8.1m/s | -39.5°C | 0.2% | 0hPa | 2.7V | 00:00:00 | 00:00:00 | 00:00:00 | |
| OE3OSB-13 | 2026-09-05 07:02:16 | 49.98499 | 15.90490 | 94° | 15km/h | 32616m | 5.2m/s | -39.6°C | 0.2% | -1.0hPa | 2.7V | 00:00:00 | 00:00:00 | 00:00:00 | |
| OE3MUC-15 | 2026-09-05 07:02:15 | 49.98499 | 15.90484 | 97° | 13km/h | 32611m | 5.2m/s | -39.6°C | 2.0% | 0hPa | 2.7V | 00:00:00 | 00:00:00 | 00:00:00 | |
| OE5DXL-15 | 2026-09-05 07:02:13 | 49.98499 | 15.90475 | 73° | 15km/h | 32597m | 8.0m/s | -39.6°C | 2.0% | 0hPa | 2.7V | 00:00:00 | 00:00:00 | 00:00:00 | |
| DO3MHA-11 | 2026-09-05 07:02:12 | 49.98497 | 15.90470 | 69° | 20km/h | 32590m | 5.1m/s | -39.6°C | 2.0% | 0hPa | 2.7V | 00:00:00 | 01:59:26 | 00:00:00 | |
| OE3MUC-15 | 2026-09-05 07:02:11 | 49.98496 | 15.90465 | 80° | 20km/h | 32585m | 5.4m/s | -39.7°C | 2.0% | 0hPa | 2.7V | 00:00:00 | 00:00:00 | 00:00:00 | |
| PG1ADW-2 | 2026-09-05 07:02:10 | 49.98496 | 15.90458 | 90° | 15km/h | 32578m | 7.7m/s | -39.7°C | 2.1% | 0hPa | 2.7V | 00:00:00 | 01:59:24 | 00:00:00 | |
| OE5MMP-10 | 2026-09-05 07:02:08 | 49.98497 | 15.90442 | 94° | 16km/h | 32564m | 5.4m/s | -39.7°C | 2.0% | 0hPa | 2.7V | 00:00:00 | 01:59:22 | 00:00:00 | |
| OE3MUC-15 | 2026-09-05 07:02:07 | 49.98497 | 15.90433 | 85° | 22km/h | 32558m | 5.9m/s | -39.8°C | 2.1% | 0hPa | 2.7V | 00:00:00 | 00:00:00 | 08:30:00 | |
| SP6BVK | 2026-09-05 07:02:06 | 49.98497 | 15.90433 | 85° | 24km/h | 32558m | 6.0m/s | -39.8°C | 0.3% | 0hPa | 2.7V | 00:00:00 | 00:00:00 | 00:00:00 | |
| HA6NAB-11 | 2026-09-05 07:02:05 | 49.98496 | 15.90424 | 74° | 24km/h | 32551m | 8.4m/s | -39.8°C | 0.3% | 0hPa | 2.7V | 00:00:00 | 00:00:00 | 00:00:00 | |
| SP3WXH-11 | 2026-09-05 07:02:04 | 49.98490 | 15.90409 | 51° | 18km/h | 32537m | 4.5m/s | -39.8°C | 0.2% | -1.0hPa | 2.7V | 00:00:00 | 00:00:00 | 00:00:00 | |
| OE3MUC-15 | 2026-09-05 07:02:03 | 49.98488 | 15.90404 | 53° | 9km/h | 32532m | 5.6m/s | -39.8°C | 2.1% | 0hPa | 2.7V | 00:00:00 | 00:00:00 | 00:00:00 | |
| DO3MHA-11 | 2026-09-05 07:02:02 | 49.98486 | 15.90400 | 70° | 11km/h | 32525m | 8.1m/s | -39.7°C | 2.1% | 0hPa | 2.7V | 00:00:00 | 01:59:16 | 08:30:00 | |
| OE5DRO-10 | 2026-09-05 07:02:01 | 49.98486 | 15.90397 | 122° | 13km/h | 32518m | 7.4m/s | -39.7°C | 2.1% | 0hPa | 2.7V | 00:00:00 | 00:00:00 | 00:00:00 | |
| PETON7-10 | 2026-09-05 07:02:00 | 49.98488 | 15.90395 | 147° | 11km/h | 32511m | 6.0m/s | -39.7°C | 2.1% | 0hPa | 2.7V | 00:00:00 | 01:59:14 | 00:00:00 | |
| OE3MUC-15 | 2026-09-05 07:01:59 | 49.98489 | 15.90393 | 142° | 9km/h | 32504m | 6.4m/s | -39.8°C | 2.1% | 0hPa | 2.7V | 00:00:00 | 00:00:00 | 00:00:00 | |
| OE5MMP-10 | 2026-09-05 07:01:58 | 49.98491 | 15.90391 | 131° | 13km/h | 32497m | 8.2m/s | -39.7°C | 2.1% | 0hPa | 2.7V | 00:00:00 | 01:59:12 | 00:00:00 | |
| NBG1-10 | 2026-09-05 07:01:56 | 49.98493 | 15.90384 | 117° | 15km/h | 32484m | 5.6m/s | -39.8°C | 2.1% | 0hPa | 2.7V | 00:00:00 | 01:59:10 | 00:00:00 | |
| OE3MUC-15 | 2026-09-05 07:01:55 | 49.98495 | 15.90380 | 129° | 15km/h | 32478m | 6.6m/s | -39.9°C | 2.1% | 0hPa | 2.7V | 00:00:00 | 00:00:00 | 00:00:00 | |
| OM5KV | 2026-09-05 07:01:54 | 49.98495 | 15.90380 | 130° | 13km/h | 32478m | 6.6m/s | -39.9°C | 0.3% | 0hPa | 2.7V | 00:00:00 | 00:00:00 | 00:00:00 | |
| S52SK | 2026-09-05 07:01:53 | 49.98497 | 15.90376 | 141° | 16km/h | 32470m | 8.2m/s | -39.9°C | 0.3% | 0hPa | 2.7V | 00:00:00 | 00:00:00 | 00:00:00 | |
| DO3MHA-11 | 2026-09-05 07:01:52 | 49.98504 | 15.90369 | 143° | 13km/h | 32457m | 5.5m/s | -40.0°C | 2.1% | 0hPa | 2.7V | 00:00:00 | 01:59:06 | 00:00:00 | |
| OE3MUC-15 | 2026-09-05 07:01:51 | 49.98506 | 15.90365 | 130° | 9km/h | 32451m | 6.0m/s | -40.1°C | 2.1% | 0hPa | 2.7V | 00:00:00 | 00:00:00 | 00:00:00 | |
| PG1ADW-2 | 2026-09-05 07:01:50 | 49.98508 | 15.90361 | 108° | 13km/h | 32444m | 8.1m/s | -39.9°C | 2.1% | 0hPa | 2.7V | 00:00:00 | 00:00:00 | 00:00:00 | |
| 13BRC | 2026-09-05 07:01:49 | 49.98508 | 15.90361 | 108° | 9km/h | 32444m | 8.2m/s | -40.0°C | 0.3% | 0hPa | 2.7V | 00:00:00 | 00:00:00 | 00:00:00 | |
| S52SK | 2026-09-05 07:01:48 | 49.98508 | 15.90358 | 83° | 9km/h | 32437m | 7.0m/s | -40.0°C | 0.3% | 0hPa | 2.7V | 00:00:00 | 00:00:00 | 00:00:00 | |
| OE3MUC-15 | 2026-09-05 07:01:47 | 49.98508 | 15.90352 | 112° | 16km/h | 32425m | 5.4m/s | -40.0°C | 2.1% | 0hPa | 2.7V | 00:00:00 | 00:00:00 | 00:00:00 | |
| PETON7-10 | 2026-09-05 07:01:45 | 49.98512 | 15.90348 | 168° | 15km/h | 32411m | 7.0m/s | -39.9°C | 2.1% | 0hPa | 2.7V | 00:00:00 | 00:00:00 | 00:00:00 | |
| OE5DXL-15 | 2026-09-05 07:01:43 | 49.98522 | 15.90345 | 166° | 13km/h | 32398m | 5.8m/s | -40.1°C | 2.1% | 0hPa | 2.7V | 00:00:00 | 00:00:00 | 00:00:00 | |
| DO3MHA-11 | 2026-09-05 07:01:42 | 49.98527 | 15.90342 | 157° | 13km/h | 32391m | 6.9m/s | -40.0°C | 2.1% | 0hPa | 2.7V | 00:00:00 | 01:58:56 | 00:00:00 | |
| KRY50SP | 2026-09-05 07:01:41 | 49.98527 | 15.90342 | 158° | 20km/h | 32391m | 6.9m/s | -40.1°C | 0.3% | 0hPa | 2.7V | 00:00:00 | 00:00:00 | 00:00:00 | |
| OE5MMP-10 | 2026-09-05 07:01:38 | 49.98536 | 15.90322 | 99° | 11km/h | 32366m | 6.5m/s | -40.1°C | 2.1% | 0hPa | 2.7V | 00:00:00 | 01:58:52 | 00:00:00 | |
| S52SK | 2026-09-05 07:01:37 | 49.98536 | 15.90322 | 99° | 15km/h | 32366m | 6.6m/s | -40.2°C | 0.3% | 0hPa | 2.7V | 00:00:00 | 00:00:00 | 00:00:00 | |
| KRY50SP | 2026-09-05 07:01:36 | 49.98537 | 15.90313 | 107° | 9km/h | 32351m | 6.7m/s | -40.3°C | 0.3% | 0hPa | 2.7V | 00:00:00 | 00:00:00 | 00:00:00 | |
| SQ6EMJ | 2026-09-05 07:01:35 | 49.98537 | 15.90310 | 93° | 7km/h | 32345m | 5.8m/s | -40.4°C | 0.3% | 0hPa | 2.7V | 00:00:00 | 00:00:00 | 00:00:00 | |
| EDDB2-11 | 2026-09-05 07:01:34 | 49.98537 | 15.90307 | 62° | 7km/h | 32340m | 5.9m/s | -40.3°C | 0.2% | -1.0hPa | 2.7V | 00:00:00 | 00:00:00 | 00:00:00 | |
| SP3WXH-11 | 2026-09-05 07:01:33 | 49.98536 | 15.90304 | 45° | 9km/h | 32332m | 8.2m/s | -40.4°C | 0.2% | -1.0hPa | 2.7V | 00:00:00 | 00:00:00 | 00:00:00 | |
| DO3MHA-11 | 2026-09-05 07:01:32 | 49.98533 | 15.90301 | 41° | 15km/h | 32325m | 7.3m/s | -40.4°C | 2.1% | 0hPa | 2.7V | 00:00:00 | 01:58:46 | 00:00:00 | |
| SONCRA | 2026-09-05 07:01:31 | 49.98531 | 15.90297 | 46° | 13km/h | 32318m | 5.3m/s | 0°C | -1.0% | -1.0hPa | 2.6V | 00:00:00 | 00:00:00 | 00:00:00 | |
| PETON7-10 | 2026-09-05 07:01:30 | 49.98529 | 15.90293 | 68° | 13km/h | 32313m | 5.0m/s | -40.4°C | 2.1% | 0hPa | 2.6V | 00:00:00 | 00:00:00 | 00:00:00 | |
| KRY50SP | 2026-09-05 07:01:29 | 49.98529 | 15.90293 | 69° | 11km/h | 32313m | 5.0m/s | -40.4°C | 0.3% | 0hPa | 2.6V | 00:00:00 | 00:00:00 | 00:00:00 | |
| OE5MMP-10 | 2026-09-05 07:01:28 | 49.98530 | 15.90286 | 133° | 15km/h | 32299m | 8.0m/s | -40.5°C | 2.1% | 0hPa | 2.6V | 00:00:00 | 01:58:42 | 00:00:00 | |
| OM5KV | 2026-09-05 07:01:27 | 49.98530 | 15.90286 | 134° | 15km/h | 32299m | 8.1m/s | -40.5°C | 0.3% | 0hPa | 2.6V | 00:00:00 | 00:00:00 | 00:00:00 | |
| POL1PZ | 2026-09-05 07:01:26 | 49.98533 | 15.90282 | 143° | 18km/h | 32292m | 6.3m/s | -40.6°C | 0.3% | 0hPa | 2.6V | 00:00:00 | 00:00:00 | 00:00:00 | |
| SP6BVK | 2026-09-05 07:01:25 | 49.98537 | 15.90277 | 140° | 20km/h | 32286m | 5.6m/s | -40.5°C | 0.3% | 0hPa | 2.6V | 00:00:00 | 00:00:00 | 00:00:00 | |
| NBG1-10 | 2026-09-05 07:01:23 | 49.98542 | 15.90260 | 74° | 13km/h | 32266m | 6.9m/s | -40.5°C | 2.2% | 0hPa | 2.6V | 00:00:00 | 01:58:37 | 00:00:00 | |
| DO3MHA-11 | 2026-09-05 07:01:22 | 49.98540 | 15.90256 | 45° | 9km/h | 32260m | 6.2m/s | -40.4°C | 2.2% | 0hPa | 2.6V | 00:00:00 | 01:58:36 | 00:00:00 | |
| DC4HF-4 | 2026-09-05 07:01:20 | 49.98534 | 15.90250 | 12° | 5km/h | 32239m | 6.8m/s | -40.5°C | 0.2% | -1.0hPa | 2.6V | 00:00:00 | 00:00:00 | 00:00:00 | |
| SQ6EMJ | 2026-09-05 07:01:19 | 49.98534 | 15.90250 | 13° | 7km/h | 32239m | 6.8m/s | -40.5°C | 0.3% | 0hPa | 2.6V | 00:00:00 | 00:00:00 | 00:00:00 | |
| OE5MMP-10 | 2026-09-05 07:01:18 | 49.98532 | 15.90250 | 9° | 9km/h | 32233m | 5.8m/s | -40.4°C | 2.2% | 0hPa | 2.6V | 00:00:00 | 01:58:32 | 08:30:00 | |
| HA6NAB-11 | 2026-09-05 07:01:17 | 49.98532 | 15.90250 | 10° | 5km/h | 32233m | 5.8m/s | -40.5°C | 0.3% | 0hPa | 2.7V | 00:00:00 | 00:00:00 | 00:00:00 | |
| PETON7-10 | 2026-09-05 07:01:15 | 49.98527 | 15.90247 | 24° | 13km/h | 32212m | 7.7m/s | -40.3°C | 2.1% | 0hPa | 2.7V | 00:00:00 | 01:58:29 | 00:00:00 | |
| OE3MUC-15 | 2026-09-05 07:01:14 | 49.98525 | 15.90245 | 36° | 9km/h | 32205m | 5.3m/s | -40.3°C | 2.1% | 0hPa | 2.7V | 00:00:00 | 00:00:00 | 00:00:00 | |
| OE5DXL-15 | 2026-09-05 07:01:13 | 49.98523 | 15.90242 | 61° | 11km/h | 32200m | 4.8m/s | -40.2°C | 2.1% | 0hPa | 2.7V | 00:00:00 | 00:00:00 | 00:00:00 | |
| SQ6EMJ | 2026-09-05 07:01:12 | 49.98523 | 15.90240 | 104° | 7km/h | 32195m | 6.4m/s | -40.2°C | 0.3% | 0hPa | 2.7V | 00:00:00 | 00:00:00 | 00:00:00 | |
| HA6NAB-11 | 2026-09-05 07:01:11 | 49.98523 | 15.90240 | 104° | 7km/h | 32195m | 6.4m/s | -40.2°C | 0.3% | 0hPa | 2.7V | 00:00:00 | 00:00:00 | 00:00:00 | |
| PG1ADW-2 | 2026-09-05 07:01:10 | 49.98527 | 15.90234 | 152° | 13km/h | 32180m | 6.5m/s | -40.2°C | 2.1% | 0hPa | 2.7V | 00:00:00 | 00:00:00 | 00:00:00 | |
| OK1ALN | 2026-09-05 07:01:09 | 49.98527 | 15.90234 | 153° | 15km/h | 32180m | 6.6m/s | -40.3°C | 0.3% | 0hPa | 2.7V | 00:00:00 | 00:00:00 | 00:00:00 | |
| OE5MMP-10 | 2026-09-05 07:01:08 | 49.98532 | 15.90229 | 134° | 16km/h | 32169m | 5.2m/s | -40.4°C | 2.1% | 0hPa | 2.7V | 00:00:00 | 01:58:22 | 00:00:00 | |
| DB0UT-7 | 2026-09-05 07:01:06 | 49.98531 | 15.90224 | 25° | 13km/h | 32155m | 7.8m/s | -40.3°C | 2.1% | 0hPa | 2.7V | 00:00:00 | 01:58:20 | 00:00:00 | |
| OE5DRO-10 | 2026-09-05 07:01:04 | 49.98523 | 15.90224 | 348° | 11km/h | 32142m | 5.7m/s | -40.6°C | 2.1% | 0hPa | 2.7V | 00:00:00 | 00:00:00 | 08:30:00 | |
| EDDB2-11 | 2026-09-05 07:01:03 | 49.98518 | 15.90227 | 334° | 20km/h | 32135m | 6.7m/s | -40.8°C | 0.3% | -1.0hPa | 2.6V | 00:00:00 | 00:00:00 | 00:00:00 | |
| SP3WXH-11 | 2026-09-05 07:01:02 | 49.98511 | 15.90237 | 292° | 16km/h | 32121m | 6.9m/s | -40.8°C | 0.3% | -1.0hPa | 2.6V | 00:00:00 | 00:00:00 | 00:00:00 | |
| SONDE2-11 | 2026-09-05 07:00:57 | 49.98512 | 15.90256 | 242° | 2km/h | 32095m | 7.4m/s | -40.9°C | 0.3% | -1.0hPa | 2.6V | 00:00:00 | 00:00:00 | 00:00:00 | |
| OM5KV | 2026-09-05 07:00:56 | 49.98512 | 15.90256 | 243° | 4km/h | 32095m | 7.4m/s | -40.9°C | 0.3% | 0hPa | 2.6V | 00:00:00 | 00:00:00 | 00:00:00 | |
| HA6NAB-11 | 2026-09-05 07:00:55 | 49.98512 | 15.90256 | 92° | 4km/h | 32088m | 6.5m/s | -40.9°C | 0.3% | 0hPa | 2.6V | 00:00:00 | 00:00:00 | 00:00:00 | |
| OE3MUC-15 | 2026-09-05 07:00:54 | 49.98513 | 15.90251 | 106° | 7km/h | 32076m | 6.2m/s | -41.0°C | 2.3% | 0hPa | 2.6V | 00:00:00 | 00:00:00 | 08:30:00 | |
| OM5KV | 2026-09-05 07:00:53 | 49.98512 | 15.90251 | 107° | 7km/h | 32076m | 6.3m/s | -41.0°C | 0.3% | 0hPa | 2.6V | 00:00:00 | 00:00:00 | 00:00:00 | |
| DO3MHA-11 | 2026-09-05 07:00:52 | 49.98515 | 15.90247 | 163° | 7km/h | 32062m | 7.8m/s | -40.8°C | 2.2% | 0hPa | 2.6V | 00:00:00 | 01:58:06 | 00:00:00 | |
| OE3MUC-15 | 2026-09-05 07:00:50 | 49.98518 | 15.90246 | 179° | 5km/h | 32049m | 5.2m/s | -40.9°C | 2.2% | 0hPa | 2.6V | 00:00:00 | 00:00:00 | 00:00:00 | |
| OK1ALN | 2026-09-05 07:00:49 | 49.98518 | 15.90246 | 179° | 4km/h | 32049m | 5.2m/s | -40.9°C | 0.3% | 0hPa | 2.6V | 00:00:00 | 00:00:00 | 00:00:00 | |
| OE5MMP-10 | 2026-09-05 07:00:48 | 49.98518 | 15.90245 | 31° | 15km/h | 32035m | 8.0m/s | -40.7°C | 2.2% | 0hPa | 2.6V | 00:00:00 | 01:58:02 | 00:00:00 | |
| OM5KV | 2026-09-05 07:00:47 | 49.98518 | 15.90245 | 32° | 7km/h | 32035m | 8.1m/s | -40.8°C | 0.3% | 0hPa | 2.6V | 00:00:00 | 00:00:00 | 00:00:00 | |
| OE3MUC-15 | 2026-09-05 07:00:46 | 49.98514 | 15.90242 | 13° | 7km/h | 32022m | 5.5m/s | -40.8°C | 2.2% | 0hPa | 2.6V | 00:00:00 | 00:00:00 | 00:00:00 | |
| PETON7-10 | 2026-09-05 07:00:45 | 49.98512 | 15.90242 | 348° | 16km/h | 32016m | 6.4m/s | -40.8°C | 2.2% | 0hPa | 2.6V | 00:00:00 | 00:00:00 | 00:00:00 | |
| DC4HF-4 | 2026-09-05 07:00:44 | 49.98513 | 15.90244 | 184° | 11km/h | 32001m | 6.6m/s | -40.7°C | 0.3% | -1.0hPa | 2.6V | 00:00:00 | 00:00:00 | 00:00:00 | |
| OE5DXL-15 | 2026-09-05 07:00:43 | 49.98513 | 15.90243 | 185° | 22km/h | 32001m | 6.6m/s | -40.7°C | 2.1% | 0hPa | 2.6V | 00:00:00 | 00:00:00 | 08:30:00 | |
| DO3MHA-11 | 2026-09-05 07:00:42 | 49.98517 | 15.90243 | 165° | 20km/h | 31995m | 6.0m/s | -40.7°C | 2.2% | 0hPa | 2.7V | 00:00:00 | 01:57:56 | 00:00:00 | |
| SQ6EMJ | 2026-09-05 07:00:39 | 49.98534 | 15.90225 | 132° | 33km/h | 31973m | 6.3m/s | -40.7°C | 0.3% | 0hPa | 2.7V | 00:00:00 | 00:00:00 | 00:00:00 | |
| OE5MMP-10 | 2026-09-05 07:00:38 | 49.98538 | 15.90215 | 128° | 13km/h | 31967m | 5.1m/s | -40.7°C | 2.2% | 0hPa | 2.7V | 00:00:00 | 01:57:52 | 00:00:00 | |
| OM5KV | 2026-09-05 07:00:37 | 49.98538 | 15.90215 | 129° | 31km/h | 31967m | 5.2m/s | -40.7°C | 0.3% | 0hPa | 2.7V | 00:00:00 | 00:00:00 | 00:00:00 | |
| DB0UT-7 | 2026-09-05 07:00:36 | 49.98547 | 15.90200 | 137° | 20km/h | 31954m | 7.9m/s | -40.7°C | 2.2% | 0hPa | 2.7V | 00:00:00 | 00:00:00 | 00:00:00 | |
| S52SK | 2026-09-05 07:00:35 | 49.98547 | 15.90200 | 138° | 20km/h | 31954m | 7.9m/s | -40.7°C | 0.3% | 0hPa | 2.7V | 00:00:00 | 00:00:00 | 00:00:00 | |
| OE3MUC-15 | 2026-09-05 07:00:34 | 49.98553 | 15.90194 | 164° | 5km/h | 31939m | 6.8m/s | -40.8°C | 2.2% | 0hPa | 2.7V | 00:00:00 | 00:00:00 | 00:00:00 | |
| SQ6EMJ | 2026-09-05 07:00:32 | 49.98553 | 15.90193 | 59° | 4km/h | 31925m | 8.1m/s | -41.0°C | 0.3% | 0hPa | 2.7V | 00:00:00 | 00:00:00 | 00:00:00 | |
| OK1SLM-15 | 2026-09-05 07:00:31 | 49.98553 | 15.90193 | 59° | 4km/h | 31925m | 8.1m/s | -41.0°C | 0.3% | 0hPa | 2.7V | 00:00:00 | 00:00:00 | 00:00:00 | |
| PG1ADW-2 | 2026-09-05 07:00:30 | 49.98553 | 15.90188 | 94° | 26km/h | 31911m | 5.4m/s | -41.1°C | 2.2% | 0hPa | 2.7V | 00:00:00 | 00:00:00 | 00:00:00 | |
| SONCRA | 2026-09-05 07:00:29 | 49.98556 | 15.90179 | 139° | 18km/h | 31899m | 7.7m/s | 0°C | -1.0% | -1.0hPa | 2.7V | 00:00:00 | 00:00:00 | 00:00:00 | |
| OE5MMP-10 | 2026-09-05 07:00:28 | 49.98556 | 15.90179 | 140° | 27km/h | 31899m | 7.6m/s | -41.1°C | 2.2% | 0hPa | 2.7V | 00:00:00 | 01:57:42 | 00:00:00 | |
| 13BRC | 2026-09-05 07:00:26 | 49.98567 | 15.90169 | 156° | 31km/h | 31883m | 6.6m/s | -41.0°C | 0.3% | 0hPa | 2.7V | 00:00:00 | 00:00:00 | 00:00:00 | |
| POL1PZ | 2026-09-05 07:00:25 | 49.98567 | 15.90169 | 156° | 31km/h | 31883m | 6.6m/s | -41.0°C | 0.3% | 0hPa | 2.7V | 00:00:00 | 00:00:00 | 00:00:00 | |
| OM5KV | 2026-09-05 07:00:24 | 49.98574 | 15.90163 | 150° | 33km/h | 31878m | 5.4m/s | -41.1°C | 0.3% | 0hPa | 2.7V | 00:00:00 | 00:00:00 | 00:00:00 | |
| SP6BVK | 2026-09-05 07:00:23 | 49.98581 | 15.90156 | 141° | 35km/h | 31871m | 6.7m/s | -41.1°C | 0.3% | 0hPa | 2.7V | 00:00:00 | 00:00:00 | 00:00:00 | |
| DO3MHA-11 | 2026-09-05 07:00:22 | 49.98592 | 15.90135 | 116° | 24km/h | 31857m | 6.7m/s | -40.9°C | 2.2% | 0hPa | 2.7V | 00:00:00 | 01:57:36 | 00:00:00 | |
| OM5KV | 2026-09-05 07:00:21 | 49.98592 | 15.90135 | 117° | 33km/h | 31857m | 6.7m/s | -41.0°C | 0.3% | 0hPa | 2.7V | 00:00:00 | 00:00:00 | 00:00:00 | |
| HA6NAB-11 | 2026-09-05 07:00:20 | 49.98595 | 15.90124 | 107° | 27km/h | 31851m | 5.9m/s | -41.0°C | 0.3% | 0hPa | 2.7V | 00:00:00 | 00:00:00 | 00:00:00 | |
| OM5KV | 2026-09-05 07:00:19 | 49.98596 | 15.90115 | 104° | 22km/h | 31844m | 6.7m/s | -41.0°C | 0.3% | 0hPa | 2.7V | 00:00:00 | 00:00:00 | 00:00:00 | |
| OE3MUC-15 | 2026-09-05 07:00:18 | 49.98599 | 15.90102 | 116° | 20km/h | 31829m | 6.4m/s | -41.1°C | 2.2% | 0hPa | 2.7V | 00:00:00 | 00:00:00 | 08:30:00 | |
| PETON7-10 | 2026-09-05 07:00:15 | 49.98606 | 15.90082 | 117° | 26km/h | 31810m | 8.8m/s | -41.2°C | 2.2% | 0hPa | 2.6V | 00:00:00 | 00:00:00 | 00:00:00 | |
| OE3MUC-15 | 2026-09-05 07:00:14 | 49.98609 | 15.90072 | 115° | 31km/h | 31802m | 7.0m/s | -41.3°C | 2.3% | 0hPa | 2.6V | 00:00:00 | 00:00:00 | 00:00:00 | |
| OE5DXL-15 | 2026-09-05 07:00:13 | 49.98612 | 15.90060 | 116° | 27km/h | 31795m | 6.0m/s | -41.3°C | 2.2% | 0hPa | 2.6V | 00:00:00 | 01:57:27 | 00:00:00 | |
| DO3MHA-11 | 2026-09-05 07:00:12 | 49.98616 | 15.90049 | 119° | 26km/h | 31789m | 6.8m/s | -41.4°C | 2.2% | 0hPa | 2.6V | 00:00:00 | 01:57:26 | 00:00:00 | |
| OE3MUC-15 | 2026-09-05 07:00:10 | 49.98623 | 15.90031 | 121° | 22km/h | 31774m | 6.8m/s | -41.5°C | 2.3% | 0hPa | 2.6V | 00:00:00 | 00:00:00 | 00:00:00 | |
| OM5KV | 2026-09-05 07:00:09 | 49.98623 | 15.90031 | 121° | 22km/h | 31774m | 6.8m/s | -41.5°C | 0.3% | 0hPa | 2.6V | 00:00:00 | 00:00:00 | 00:00:00 | |
| DC4HF-4 | 2026-09-05 07:00:08 | 49.98627 | 15.90006 | 91° | 24km/h | 31752m | 8.3m/s | -41.7°C | 0.3% | -1.0hPa | 2.6V | 00:00:00 | 00:00:00 | 00:00:00 | |
| OE5DRO-10 | 2026-09-05 07:00:07 | 49.98627 | 15.90006 | 92° | 29km/h | 31753m | 8.2m/s | -41.6°C | 2.3% | 0hPa | 2.6V | 00:00:00 | 00:00:00 | 00:00:00 | |
| OE3MUC-15 | 2026-09-05 07:00:06 | 49.98627 | 15.89996 | 88° | 26km/h | 31745m | 6.6m/s | -41.7°C | 2.3% | 0hPa | 2.6V | 00:00:00 | 00:00:00 | 00:00:00 | |
| POL1PZ | 2026-09-05 07:00:05 | 49.98627 | 15.89996 | 88° | 27km/h | 31745m | 6.6m/s | -41.8°C | 0.3% | 0hPa | 2.7V | 00:00:00 | 00:00:00 | 00:00:00 | |
| HA6NAB-11 | 2026-09-05 07:00:03 | 49.98627 | 15.89975 | 91° | 26km/h | 31732m | 7.6m/s | -41.9°C | 0.3% | 0hPa | 2.7V | 00:00:00 | 00:00:00 | 00:00:00 | |
| KRY50SP | 2026-09-05 07:00:02 | 49.98627 | 15.89966 | 101° | 24km/h | 31724m | 7.6m/s | -41.9°C | 0.3% | 0hPa | 2.7V | 00:00:00 | 00:00:00 | 00:00:00 | |
| EDDB2-11 | 2026-09-05 07:00:01 | 49.98632 | 15.89947 | 119° | 29km/h | 31711m | 5.6m/s | -42.0°C | 0.3% | -1.0hPa | 2.7V | 00:00:00 | 00:00:00 | 00:00:00 | |
| SP3WXH-11 | 2026-09-05 07:00:00 | 49.98641 | 15.89923 | 117° | 42km/h | 31697m | 8.9m/s | -42.0°C | 0.3% | -1.0hPa | 2.7V | 00:00:00 | 00:00:00 | 00:00:00 | |
| SONCRA | 2026-09-05 06:59:58 | 49.98650 | 15.89891 | 113° | 44km/h | 31683m | 5.3m/s | 0°C | -1.0% | -1.0hPa | 2.7V | 00:00:00 | 00:00:00 | 00:00:00 | |
| SONDE2-11 | 2026-09-05 06:59:55 | 49.98658 | 15.89862 | 112° | 33km/h | 31670m | 8.5m/s | -41.9°C | 0.3% | -1.0hPa | 2.7V | 00:00:00 | 00:00:00 | 00:00:00 | |
| OE3MUC-15 | 2026-09-05 06:59:54 | 49.98661 | 15.89852 | 114° | 20km/h | 31662m | 7.7m/s | -41.8°C | 2.3% | 0hPa | 2.7V | 00:00:00 | 00:00:00 | 00:00:00 | |
| DO3MHA-11 | 2026-09-05 06:59:52 | 49.98664 | 15.89837 | 106° | 24km/h | 31649m | 6.3m/s | -41.8°C | 2.3% | 0hPa | 2.7V | 00:00:00 | 01:57:06 | 00:00:00 | |
| OM5KV | 2026-09-05 06:59:51 | 49.98664 | 15.89837 | 106° | 18km/h | 31649m | 6.4m/s | -41.8°C | 0.3% | 0hPa | 2.7V | 00:00:00 | 00:00:00 | 00:00:00 | |
| PG1ADW-2 | 2026-09-05 06:59:50 | 49.98666 | 15.89820 | 96° | 24km/h | 31634m | 7.1m/s | -41.8°C | 2.3% | 0hPa | 2.7V | 00:00:00 | 00:00:00 | 00:00:00 | |
| POL2MAQ | 2026-09-05 06:59:49 | 49.98666 | 15.89820 | 97° | 26km/h | 31634m | 7.1m/s | -41.9°C | 0.3% | 0hPa | 2.7V | 00:00:00 | 00:00:00 | 00:00:00 | |
| OE5MMP-10 | 2026-09-05 06:59:48 | 49.98667 | 15.89800 | 94° | 27km/h | 31621m | 6.7m/s | -41.9°C | 2.3% | 0hPa | 2.7V | 00:00:00 | 01:57:02 | 08:30:00 | |
| OE3MUC-15 | 2026-09-05 06:59:46 | 49.98669 | 15.89782 | 101° | 26km/h | 31606m | 7.6m/s | -42.0°C | 2.3% | 0hPa | 2.6V | 00:00:00 | 00:00:00 | 00:00:00 | |
| PETON7-10 | 2026-09-05 06:59:45 | 49.98670 | 15.89773 | 108° | 24km/h | 31599m | 6.7m/s | -42.1°C | 2.4% | 0hPa | 2.6V | 00:00:00 | 01:56:59 | 00:00:00 | |
| POL1PZ | 2026-09-05 06:59:44 | 49.98670 | 15.89773 | 108° | 24km/h | 31599m | 6.7m/s | -42.1°C | 0.3% | 0hPa | 2.6V | 00:00:00 | 00:00:00 | 00:00:00 | |
| OE5DXL-15 | 2026-09-05 06:59:43 | 49.98675 | 15.89753 | 111° | 22km/h | 31584m | 8.4m/s | -42.1°C | 2.4% | 0hPa | 2.6V | 00:00:00 | 00:00:00 | 00:00:00 | |
| DO3MHA-11 | 2026-09-05 06:59:42 | 49.98677 | 15.89741 | 109° | 22km/h | 31576m | 6.4m/s | -42.1°C | 2.4% | 0hPa | 2.6V | 00:00:00 | 01:56:56 | 00:00:00 | |
| OM5KV | 2026-09-05 06:59:40 | 49.98680 | 15.89729 | 107° | 33km/h | 31571m | 5.0m/s | -42.2°C | 0.3% | 0hPa | 2.6V | 00:00:00 | 00:00:00 | 00:00:00 | |
| KRY50SP | 2026-09-05 06:59:39 | 49.98682 | 15.89717 | 103° | 29km/h | 31565m | 5.1m/s | -42.2°C | 0.3% | 0hPa | 2.6V | 00:00:00 | 00:00:00 | 00:00:00 | |
| OE5MMP-10 | 2026-09-05 06:59:38 | 49.98683 | 15.89699 | 85° | 22km/h | 31551m | 8.2m/s | -42.2°C | 2.4% | 0hPa | 2.6V | 00:00:00 | 01:56:52 | 00:00:00 | |
| OM5KV | 2026-09-05 06:59:37 | 49.98684 | 15.89699 | 86° | 16km/h | 31551m | 8.2m/s | -42.3°C | 0.3% | 0hPa | 2.6V | 00:00:00 | 00:00:00 | 00:00:00 | |
| OM5KV | 2026-09-05 06:59:34 | 49.98681 | 15.89686 | 84° | 15km/h | 31532m | 6.7m/s | -42.4°C | 0.3% | 0hPa | 2.6V | 00:00:00 | 00:00:00 | 00:00:00 | |
| KRY50SP | 2026-09-05 06:59:33 | 49.98681 | 15.89679 | 99° | 20km/h | 31524m | 7.9m/s | -42.4°C | 0.3% | 0hPa | 2.6V | 00:00:00 | 00:00:00 | 00:00:00 | |
| OM5KV | 2026-09-05 06:59:31 | 49.98684 | 15.89659 | 110° | 31km/h | 31510m | 6.4m/s | -42.4°C | 0.3% | 0hPa | 2.6V | 00:00:00 | 00:00:00 | 00:00:00 | |
| PETON7-10 | 2026-09-05 06:59:30 | 49.98689 | 15.89637 | 106° | 20km/h | 31497m | 7.8m/s | -42.3°C | 2.4% | 0hPa | 2.6V | 00:00:00 | 00:00:00 | 00:00:00 | |
| OE5DRO-10 | 2026-09-05 06:59:29 | 49.98690 | 15.89627 | 101° | 20km/h | 31489m | 7.3m/s | -42.2°C | 2.4% | 0hPa | 2.6V | 00:00:00 | 00:00:00 | 00:00:00 | |
| NBG1-10 | 2026-09-05 06:59:28 | 49.98690 | 15.89619 | 88° | 16km/h | 31482m | 6.4m/s | -42.3°C | 2.4% | 0hPa | 2.6V | 00:00:00 | 01:56:42 | 00:00:00 | |
| OK1ALN | 2026-09-05 06:59:27 | 49.98691 | 15.89619 | 89° | 20km/h | 31482m | 6.5m/s | -42.3°C | 0.3% | 0hPa | 2.6V | 00:00:00 | 00:00:00 | 00:00:00 | |
| S52SK | 2026-09-05 06:59:25 | 49.98689 | 15.89604 | 78° | 20km/h | 31469m | 7.3m/s | -42.3°C | 0.4% | 0hPa | 2.6V | 00:00:00 | 00:00:00 | 00:00:00 | |
| SONDE2-11 | 2026-09-05 06:59:24 | 49.98684 | 15.89579 | 64° | 22km/h | 31448m | 6.4m/s | -42.2°C | 0.3% | -1.0hPa | 2.6V | 00:00:00 | 00:00:00 | 00:00:00 | |
| DB0UT-7 | 2026-09-05 06:59:23 | 49.98684 | 15.89579 | 65° | 16km/h | 31448m | 6.3m/s | -42.1°C | 2.4% | 0hPa | 2.6V | 00:00:00 | 01:56:37 | 08:30:00 | |
| SP6BVK | 2026-09-05 06:59:22 | 49.98684 | 15.89579 | 65° | 24km/h | 31448m | 6.4m/s | -42.2°C | 0.3% | 0hPa | 2.6V | 00:00:00 | 00:00:00 | 00:00:00 | |
| KRY50SP | 2026-09-05 06:59:21 | 49.98681 | 15.89571 | 56° | 22km/h | 31441m | 8.0m/s | -42.2°C | 0.3% | 0hPa | 2.6V | 00:00:00 | 00:00:00 | 00:00:00 | |
| S52SK | 2026-09-05 06:59:20 | 49.98678 | 15.89565 | 42° | 20km/h | 31433m | 8.0m/s | -42.2°C | 0.4% | 0hPa | 2.6V | 00:00:00 | 00:00:00 | 00:00:00 | |
| OM5KV | 2026-09-05 06:59:19 | 49.98674 | 15.89560 | 36° | 16km/h | 31426m | 6.5m/s | -42.1°C | 0.3% | 0hPa | 2.6V | 00:00:00 | 00:00:00 | 00:00:00 | |
| OE5MMP-10 | 2026-09-05 06:59:18 | 49.98669 | 15.89551 | 71° | 16km/h | 31414m | 6.7m/s | -42.1°C | 2.4% | 0hPa | 2.6V | 00:00:00 | 01:56:32 | 00:00:00 | |
| KRY50SP | 2026-09-05 06:59:17 | 49.98668 | 15.89544 | 90° | 20km/h | 31406m | 8.7m/s | -42.1°C | 0.3% | 0hPa | 2.7V | 00:00:00 | 00:00:00 | 00:00:00 | |
| PETON7-10 | 2026-09-05 06:59:15 | 49.98670 | 15.89525 | 100° | 16km/h | 31393m | 4.4m/s | -42.0°C | 2.4% | 0hPa | 2.7V | 00:00:00 | 00:00:00 | 00:00:00 | |
| OE3MUC-15 | 2026-09-05 06:59:14 | 49.98670 | 15.89516 | 95° | 15km/h | 31388m | 5.5m/s | -42.0°C | 2.4% | 0hPa | 2.7V | 00:00:00 | 00:00:00 | 00:00:00 | |
| OE5DXL-15 | 2026-09-05 06:59:13 | 49.98670 | 15.89508 | 83° | 13km/h | 31381m | 8.4m/s | -42.0°C | 2.4% | 0hPa | 2.7V | 00:00:00 | 00:00:00 | 00:00:00 | |
| OE3JTB-15 | 2026-09-05 06:59:12 | 49.98669 | 15.89503 | 56° | 13km/h | 31372m | 7.8m/s | -42.0°C | 2.4% | 0hPa | 2.7V | 00:00:00 | 00:00:00 | 00:00:00 | |
| PG1ADW-2 | 2026-09-05 06:59:10 | 49.98665 | 15.89499 | 12° | 13km/h | 31360m | 6.1m/s | -42.1°C | 2.4% | 0hPa | 2.7V | 00:00:00 | 00:00:00 | 00:00:00 | |
| POL2MAQ | 2026-09-05 06:59:09 | 49.98663 | 15.89499 | 20° | 7km/h | 31352m | 8.6m/s | -42.1°C | 0.3% | 0hPa | 2.7V | 00:00:00 | 00:00:00 | 00:00:00 | |
| OE5MMP-10 | 2026-09-05 06:59:08 | 49.98661 | 15.89497 | 36° | 16km/h | 31344m | 6.6m/s | -42.1°C | 2.4% | 0hPa | 2.7V | 00:00:00 | 01:56:22 | 00:00:00 | |
| OK1SLM-15 | 2026-09-05 06:59:07 | 49.98661 | 15.89497 | 36° | 9km/h | 31344m | 6.7m/s | -42.1°C | 0.3% | 0hPa | 2.7V | 00:00:00 | 00:00:00 | 00:00:00 | |
| KRY50SP | 2026-09-05 06:59:06 | 49.98655 | 15.89490 | 32° | 18km/h | 31331m | 7.7m/s | -42.2°C | 0.3% | 0hPa | 2.7V | 00:00:00 | 00:00:00 | 00:00:00 | |
| HA6NAB-11 | 2026-09-05 06:59:05 | 49.98655 | 15.89490 | 32° | 18km/h | 31331m | 7.7m/s | -42.2°C | 0.3% | 0hPa | 2.7V | 00:00:00 | 00:00:00 | 00:00:00 | |
| POL1PZ | 2026-09-05 06:59:04 | 49.98650 | 15.89486 | 30° | 24km/h | 31323m | 9.4m/s | -42.1°C | 0.3% | 0hPa | 2.7V | 00:00:00 | 00:00:00 | 00:00:00 | |
| 13BRC | 2026-09-05 06:59:03 | 49.98645 | 15.89482 | 31° | 26km/h | 31315m | 6.7m/s | -42.1°C | 0.3% | 0hPa | 2.7V | 00:00:00 | 00:00:00 | 00:00:00 | |
| EDDB2-11 | 2026-09-05 06:58:59 | 49.98632 | 15.89457 | 102° | 4km/h | 31281m | 5.9m/s | -42.1°C | 0.3% | -1.0hPa | 2.7V | 00:00:00 | 00:00:00 | 00:00:00 | |
| SP3WXH-11 | 2026-09-05 06:58:58 | 49.98631 | 15.89457 | 316° | 5km/h | 31265m | 8.1m/s | -42.1°C | 0.3% | -1.0hPa | 2.7V | 00:00:00 | 00:00:00 | 00:00:00 | |
| DC4HF-4 | 2026-09-05 06:58:56 | 49.98628 | 15.89462 | 307° | 9km/h | 31252m | 6.1m/s | -42.0°C | 0.3% | -1.0hPa | 2.7V | 00:00:00 | 00:00:00 | 00:00:00 | |
| SONDE2-11 | 2026-09-05 06:58:53 | 49.98625 | 15.89467 | 10° | 4km/h | 31230m | 6.0m/s | -41.9°C | 0.3% | -1.0hPa | 2.7V | 00:00:00 | 00:00:00 | 00:00:00 | |
| OE5DRO-10 | 2026-09-05 06:58:51 | 49.98623 | 15.89466 | 19° | 11km/h | 31224m | 6.2m/s | -41.8°C | 2.4% | 0hPa | 2.7V | 00:00:00 | 00:00:00 | 00:00:00 | |
| OE3MUC-15 | 2026-09-05 06:58:50 | 49.98620 | 15.89465 | 14° | 15km/h | 31217m | 8.7m/s | -41.9°C | 2.3% | 0hPa | 2.7V | 00:00:00 | 00:00:00 | 00:00:00 | |
| HA6NAB-11 | 2026-09-05 06:58:49 | 49.98620 | 15.89465 | 14° | 15km/h | 31217m | 8.7m/s | -41.9°C | 0.3% | 0hPa | 2.7V | 00:00:00 | 00:00:00 | 00:00:00 | |
| OE5MMP-10 | 2026-09-05 06:58:48 | 49.98612 | 15.89463 | 4° | 9km/h | 31201m | 6.2m/s | -41.9°C | 2.4% | 0hPa | 2.7V | 00:00:00 | 01:56:02 | 00:00:00 | |
| POL2MAQ | 2026-09-05 06:58:47 | 49.98611 | 15.89463 | 5° | 16km/h | 31201m | 6.3m/s | -41.9°C | 0.3% | 0hPa | 2.6V | 00:00:00 | 00:00:00 | 00:00:00 | |
| OE3MUC-15 | 2026-09-05 06:58:46 | 49.98606 | 15.89463 | 345° | 7km/h | 31187m | 8.4m/s | -41.9°C | 2.3% | 0hPa | 2.6V | 00:00:00 | 00:00:00 | 00:00:00 | |
| PETON7-10 | 2026-09-05 06:58:45 | 49.98606 | 15.89464 | 216° | 11km/h | 31180m | 6.8m/s | -41.8°C | 2.4% | 0hPa | 2.6V | 00:00:00 | 00:00:00 | 08:30:00 | |
| HA6NAB-11 | 2026-09-05 06:58:44 | 49.98608 | 15.89466 | 214° | 9km/h | 31174m | 5.5m/s | -41.9°C | 0.3% | 0hPa | 2.7V | 00:00:00 | 00:00:00 | 00:00:00 | |
| OE5DXL-15 | 2026-09-05 06:58:43 | 49.98610 | 15.89468 | 222° | 13km/h | 31168m | 6.7m/s | -41.8°C | 2.4% | 0hPa | 2.7V | 00:00:00 | 00:00:00 | 00:00:00 | |
| KRY50SP | 2026-09-05 06:58:42 | 49.98611 | 15.89471 | 246° | 9km/h | 31160m | 7.8m/s | -41.9°C | 0.3% | 0hPa | 2.7V | 00:00:00 | 00:00:00 | 00:00:00 | |
| OK1SLM-15 | 2026-09-05 06:58:41 | 49.98611 | 15.89471 | 246° | 9km/h | 31160m | 7.8m/s | -41.9°C | 0.3% | 0hPa | 2.7V | 00:00:00 | 00:00:00 | 00:00:00 | |
| SP6BVK | 2026-09-05 06:58:40 | 49.98611 | 15.89474 | 274° | 9km/h | 31153m | 7.1m/s | -41.8°C | 0.3% | 0hPa | 2.7V | 00:00:00 | 00:00:00 | 00:00:00 | |
| OE3OSB-13 | 2026-09-05 06:58:39 | 49.98608 | 15.89480 | 8° | 4km/h | 31133m | 7.4m/s | -41.8°C | 0.3% | -1.0hPa | 2.7V | 00:00:00 | 00:00:00 | 00:00:00 | |
| OE5MMP-10 | 2026-09-05 06:58:38 | 49.98608 | 15.89480 | 9° | 11km/h | 31133m | 7.3m/s | -41.7°C | 2.3% | 0hPa | 2.7V | 00:00:00 | 01:55:52 | 00:00:00 | |
| HA6NAB-11 | 2026-09-05 06:58:37 | 49.98608 | 15.89480 | 9° | 5km/h | 31133m | 7.4m/s | -41.8°C | 0.3% | 0hPa | 2.7V | 00:00:00 | 00:00:00 | 00:00:00 | |
| OK1SLM-15 | 2026-09-05 06:58:36 | 49.98608 | 15.89479 | 63° | 5km/h | 31126m | 8.1m/s | -41.7°C | 0.3% | 0hPa | 2.7V | 00:00:00 | 00:00:00 | 00:00:00 | |
| OE3MUC-15 | 2026-09-05 06:58:34 | 49.98604 | 15.89465 | 54° | 15km/h | 31105m | 6.9m/s | -41.6°C | 2.3% | 0hPa | 2.7V | 00:00:00 | 00:00:00 | 00:00:00 | |
| OE5DRO-10 | 2026-09-05 06:58:32 | 49.98597 | 15.89458 | 15° | 13km/h | 31092m | 6.2m/s | -41.6°C | 2.3% | 0hPa | 2.7V | 00:00:00 | 00:00:00 | 00:00:00 | |
| OM5KV | 2026-09-05 06:58:31 | 49.98597 | 15.89458 | 16° | 15km/h | 31092m | 6.2m/s | -41.7°C | 0.3% | 0hPa | 2.7V | 00:00:00 | 00:00:00 | 00:00:00 | |
| PG1ADW-2 | 2026-09-05 06:58:30 | 49.98592 | 15.89459 | 305° | 15km/h | 31079m | 7.9m/s | -41.7°C | 2.3% | 0hPa | 2.7V | 00:00:00 | 00:00:00 | 08:30:00 | |
| OE5MMP-10 | 2026-09-05 06:58:28 | 49.98594 | 15.89464 | 217° | 18km/h | 31063m | 6.0m/s | -41.6°C | 2.3% | 0hPa | 2.7V | 00:00:00 | 01:55:42 | 00:00:00 | |
| SP3WXH-11 | 2026-09-05 06:58:27 | 49.98598 | 15.89467 | 201° | 2km/h | 31053m | 6.5m/s | -41.7°C | 0.3% | -1.0hPa | 2.7V | 00:00:00 | 00:00:00 | 00:00:00 | |
| OE3MUC-15 | 2026-09-05 06:58:26 | 49.98597 | 15.89467 | 202° | 15km/h | 31053m | 6.5m/s | -41.6°C | 2.3% | 0hPa | 2.7V | 00:00:00 | 00:00:00 | 00:00:00 | |
| OM5KV | 2026-09-05 06:58:25 | 49.98598 | 15.89467 | 202° | 2km/h | 31053m | 6.5m/s | -41.7°C | 0.3% | 0hPa | 2.7V | 00:00:00 | 00:00:00 | 00:00:00 | |
| OM5KV | 2026-09-05 06:58:24 | 49.98597 | 15.89466 | 61° | 7km/h | 31045m | 8.3m/s | -41.6°C | 0.3% | 0hPa | 2.7V | 00:00:00 | 00:00:00 | 00:00:00 | |
| 13BRC | 2026-09-05 06:58:23 | 49.98596 | 15.89462 | 67° | 20km/h | 31038m | 6.2m/s | -41.6°C | 0.3% | 0hPa | 2.7V | 00:00:00 | 00:00:00 | 00:00:00 | |
| SONDE2-11 | 2026-09-05 06:58:22 | 49.98593 | 15.89429 | 93° | 29km/h | 31016m | 8.2m/s | -41.5°C | 0.3% | -1.0hPa | 2.7V | 00:00:00 | 00:00:00 | 00:00:00 | |
| OM5KV | 2026-09-05 06:58:20 | 49.98594 | 15.89419 | 108° | 24km/h | 31010m | 4.5m/s | -41.4°C | 0.3% | 0hPa | 2.7V | 00:00:00 | 00:00:00 | 00:00:00 | |
| KRY50SP | 2026-09-05 06:58:19 | 49.98594 | 15.89419 | 108° | 24km/h | 31010m | 4.5m/s | -41.4°C | 0.3% | 0hPa | 2.7V | 00:00:00 | 00:00:00 | 00:00:00 | |
| OE3MUC-15 | 2026-09-05 06:58:18 | 49.98597 | 15.89407 | 117° | 5km/h | 30997m | 8.7m/s | -41.4°C | 2.3% | 0hPa | 2.7V | 00:00:00 | 00:00:00 | 00:00:00 | |
| PETON7-10 | 2026-09-05 06:58:15 | 49.98598 | 15.89403 | 131° | 18km/h | 30976m | 5.5m/s | -41.3°C | 2.3% | 0hPa | 2.7V | 00:00:00 | 01:55:29 | 00:00:00 | |
| OE3MUC-15 | 2026-09-05 06:58:14 | 49.98599 | 15.89401 | 134° | 16km/h | 30970m | 7.7m/s | -41.3°C | 2.3% | 0hPa | 2.7V | 00:00:00 | 00:00:00 | 00:00:00 | |
| OE5DXL-15 | 2026-09-05 06:58:13 | 49.98601 | 15.89398 | 139° | 26km/h | 30961m | 8.9m/s | -41.2°C | 2.3% | 0hPa | 2.7V | 00:00:00 | 00:00:00 | 00:00:00 | |
| OM5KV | 2026-09-05 06:58:12 | 49.98601 | 15.89398 | 140° | 15km/h | 30961m | 9.0m/s | -41.3°C | 0.3% | 0hPa | 2.7V | 00:00:00 | 00:00:00 | 00:00:00 | |
| OM5KV | 2026-09-05 06:58:11 | 49.98605 | 15.89393 | 133° | 20km/h | 30954m | 5.4m/s | -41.3°C | 0.3% | 0hPa | 2.7V | 00:00:00 | 00:00:00 | 00:00:00 | |
| OE3MUC-15 | 2026-09-05 06:58:10 | 49.98610 | 15.89380 | 115° | 24km/h | 30941m | 7.9m/s | -41.2°C | 2.3% | 0hPa | 2.7V | 00:00:00 | 00:00:00 | 00:00:00 | |
| OE3OSB-13 | 2026-09-05 06:58:08 | 49.98612 | 15.89352 | 89° | 26km/h | 30919m | 7.1m/s | -41.3°C | 0.3% | -1.0hPa | 2.7V | 00:00:00 | 00:00:00 | 00:00:00 | |
| OE3MUC-15 | 2026-09-05 06:58:06 | 49.98613 | 15.89342 | 97° | 22km/h | 30911m | 8.1m/s | -41.2°C | 2.3% | 0hPa | 2.7V | 00:00:00 | 00:00:00 | 00:00:00 | |
| POL2MAQ | 2026-09-05 06:58:05 | 49.98612 | 15.89342 | 98° | 26km/h | 30911m | 8.1m/s | -41.3°C | 0.3% | 0hPa | 2.7V | 00:00:00 | 00:00:00 | 00:00:00 | |
| OK1ALN | 2026-09-05 06:58:04 | 49.98614 | 15.89332 | 113° | 24km/h | 30904m | 5.5m/s | -41.2°C | 0.3% | 0hPa | 2.7V | 00:00:00 | 00:00:00 | 00:00:00 | |
| OM5KV | 2026-09-05 06:58:03 | 49.98620 | 15.89319 | 135° | 18km/h | 30891m | 8.1m/s | -41.2°C | 0.3% | 0hPa | 2.7V | 00:00:00 | 00:00:00 | 00:00:00 | |
| EDDB2-11 | 2026-09-05 06:57:57 | 49.98644 | 15.89280 | 135° | 33km/h | 30846m | 6.5m/s | -41.1°C | 0.3% | -1.0hPa | 2.7V | 00:00:00 | 00:00:00 | 00:00:00 | |
| SP3WXH-11 | 2026-09-05 06:57:56 | 49.98655 | 15.89262 | 127° | 27km/h | 30835m | 6.7m/s | -41.1°C | 0.3% | -1.0hPa | 2.7V | 00:00:00 | 00:00:00 | 00:00:00 | |
| SONDE2-11 | 2026-09-05 06:57:51 | 49.98666 | 15.89211 | 111° | 29km/h | 30799m | 8.6m/s | -41.0°C | 0.3% | -1.0hPa | 2.7V | 00:00:00 | 00:00:00 | 00:00:00 | |
| PG1ADW-2 | 2026-09-05 06:57:50 | 49.98666 | 15.89210 | 112° | 31km/h | 30799m | 8.6m/s | -40.9°C | 2.2% | 0hPa | 2.7V | 00:00:00 | 00:00:00 | 00:00:00 | |
| OM5KV | 2026-09-05 06:57:49 | 49.98666 | 15.89210 | 112° | 31km/h | 30799m | 8.6m/s | -41.0°C | 0.3% | 0hPa | 2.7V | 00:00:00 | 00:00:00 | 00:00:00 | |
| OE5MMP-10 | 2026-09-05 06:57:48 | 49.98674 | 15.89190 | 130° | 31km/h | 30785m | 7.1m/s | -40.9°C | 2.3% | 0hPa | 2.7V | 00:00:00 | 01:55:02 | 00:00:00 | |
| OE3MUC-15 | 2026-09-05 06:57:46 | 49.98684 | 15.89173 | 139° | 29km/h | 30769m | 7.4m/s | -40.8°C | 2.3% | 0hPa | 2.7V | 00:00:00 | 01:55:00 | 00:00:00 | |
| SQ6EMJ | 2026-09-05 06:57:45 | 49.98690 | 15.89167 | 143° | 27km/h | 30763m | 5.4m/s | -40.8°C | 0.3% | 0hPa | 2.7V | 00:00:00 | 00:00:00 | 00:00:00 | |
| OE5DXL-15 | 2026-09-05 06:57:43 | 49.98701 | 15.89153 | 147° | 27km/h | 30749m | 8.6m/s | -40.8°C | 2.2% | 0hPa | 2.7V | 00:00:00 | 00:00:00 | 00:00:00 | |
| SP3BTT-10 | 2026-09-05 06:57:42 | 49.98709 | 15.89146 | 147° | 18km/h | 30741m | 7.6m/s | -40.7°C | 2.2% | 0hPa | 2.7V | 00:00:00 | 00:00:00 | 00:00:00 | |
| HA6NAB-11 | 2026-09-05 06:57:41 | 49.98709 | 15.89146 | 147° | 35km/h | 30741m | 7.6m/s | -40.8°C | 0.3% | 0hPa | 2.7V | 00:00:00 | 00:00:00 | 00:00:00 | |
| DB0UT-7 | 2026-09-05 06:57:40 | 49.98722 | 15.89129 | 136° | 27km/h | 30728m | 6.4m/s | -40.7°C | 2.2% | 0hPa | 2.7V | 00:00:00 | 01:54:54 | 00:00:00 | |
| OE5MMP-10 | 2026-09-05 06:57:38 | 49.98731 | 15.89108 | 108° | 29km/h | 30714m | 6.9m/s | -40.7°C | 2.2% | 0hPa | 2.7V | 00:00:00 | 01:54:52 | 00:00:00 | |
| NBG1-10 | 2026-09-05 06:57:37 | 49.98733 | 15.89097 | 99° | 27km/h | 30707m | 5.9m/s | -40.7°C | 2.2% | 0hPa | 2.7V | 00:00:00 | 01:54:51 | 00:00:00 | |
| OE3OSB-13 | 2026-09-05 06:57:36 | 49.98734 | 15.89085 | 97° | 29km/h | 30700m | 7.1m/s | -40.7°C | 0.3% | -1.0hPa | 2.7V | 00:00:00 | 00:00:00 | 00:00:00 | |
| OE5DRO-10 | 2026-09-05 06:57:35 | 49.98735 | 15.89074 | 105° | 26km/h | 30693m | 8.8m/s | -40.6°C | 2.2% | 0hPa | 2.7V | 00:00:00 | 00:00:00 | 00:00:00 | |
| KRY50SP | 2026-09-05 06:57:34 | 49.98735 | 15.89074 | 106° | 29km/h | 30693m | 8.8m/s | -40.7°C | 0.3% | 0hPa | 2.7V | 00:00:00 | 00:00:00 | 00:00:00 | |
| SQ6EMJ | 2026-09-05 06:57:30 | 49.98756 | 15.89030 | 134° | 27km/h | 30657m | 6.6m/s | -40.7°C | 0.3% | 0hPa | 2.7V | 00:00:00 | 00:00:00 | 00:00:00 | |
| OE5MMP-10 | 2026-09-05 06:57:28 | 49.98767 | 15.89014 | 140° | 24km/h | 30646m | 6.7m/s | -40.7°C | 2.2% | 0hPa | 2.7V | 00:00:00 | 01:54:42 | 00:00:00 | |
| OK1SLM-15 | 2026-09-05 06:57:27 | 49.98767 | 15.89014 | 141° | 33km/h | 30646m | 6.7m/s | -40.7°C | 0.3% | 0hPa | 2.7V | 00:00:00 | 00:00:00 | 00:00:00 | |
| EDDB2-11 | 2026-09-05 06:57:26 | 49.98780 | 15.88997 | 139° | 33km/h | 30630m | 5.1m/s | -40.7°C | 0.3% | -1.0hPa | 2.7V | 00:00:00 | 00:00:00 | 00:00:00 | |
| SP3WXH-11 | 2026-09-05 06:57:25 | 49.98789 | 15.88980 | 118° | 24km/h | 30620m | 7.5m/s | -40.7°C | 0.3% | -1.0hPa | 2.7V | 00:00:00 | 00:00:00 | 00:00:00 | |
| SQ6EMJ | 2026-09-05 06:57:24 | 49.98789 | 15.88980 | 120° | 24km/h | 30620m | 7.5m/s | -40.7°C | 0.3% | 0hPa | 2.7V | 00:00:00 | 00:00:00 | 00:00:00 | |
| KRY50SP | 2026-09-05 06:57:23 | 49.98789 | 15.88980 | 120° | 24km/h | 30620m | 7.5m/s | -40.7°C | 0.3% | 0hPa | 2.7V | 00:00:00 | 00:00:00 | 00:00:00 | |
| 13BRC | 2026-09-05 06:57:22 | 49.98791 | 15.88964 | 72° | 16km/h | 30603m | 5.7m/s | -40.7°C | 0.3% | 0hPa | 2.7V | 00:00:00 | 00:00:00 | 00:00:00 | |
| EDDB2-12 | 2026-09-05 06:57:20 | 49.98788 | 15.88954 | 66° | 13km/h | 30592m | 6.7m/s | -40.7°C | 0.3% | -1.0hPa | 2.7V | 00:00:00 | 00:00:00 | 00:00:00 | |
| HA6NAB-11 | 2026-09-05 06:57:19 | 49.98788 | 15.88954 | 67° | 13km/h | 30592m | 6.7m/s | -40.7°C | 0.3% | 0hPa | 2.7V | 00:00:00 | 00:00:00 | 00:00:00 | |
| OE5MMP-10 | 2026-09-05 06:57:18 | 49.98788 | 15.88944 | 112° | 26km/h | 30578m | 5.6m/s | -40.7°C | 2.2% | 0hPa | 2.7V | 00:00:00 | 01:54:32 | 00:00:00 | |
| OK1SLM-15 | 2026-09-05 06:57:17 | 49.98790 | 15.88937 | 117° | 20km/h | 30573m | 5.9m/s | -40.8°C | 0.3% | 0hPa | 2.6V | 00:00:00 | 00:00:00 | 00:00:00 | |
| OE5DRO-10 | 2026-09-05 06:57:16 | 49.98792 | 15.88930 | 115° | 18km/h | 30565m | 8.3m/s | -40.8°C | 2.2% | 0hPa | 2.6V | 00:00:00 | 00:00:00 | 00:00:00 | |
| PETON7-10 | 2026-09-05 06:57:15 | 49.98795 | 15.88920 | 117° | 18km/h | 30558m | 6.6m/s | -40.8°C | 2.2% | 0hPa | 2.7V | 00:00:00 | 00:00:00 | 00:00:00 | |
| OE3MUC-15 | 2026-09-05 06:57:14 | 49.98799 | 15.88910 | 126° | 33km/h | 30552m | 5.3m/s | -40.8°C | 2.2% | 0hPa | 2.6V | 00:00:00 | 00:00:00 | 00:00:00 | |
| OE5DXL-15 | 2026-09-05 06:57:13 | 49.98804 | 15.88901 | 136° | 16km/h | 30546m | 6.9m/s | -40.8°C | 2.2% | 0hPa | 2.6V | 00:00:00 | 00:00:00 | 00:00:00 | |
| OM5KV | 2026-09-05 06:57:12 | 49.98804 | 15.88901 | 136° | 33km/h | 30546m | 7.0m/s | -40.9°C | 0.3% | 0hPa | 2.6V | 00:00:00 | 00:00:00 | 00:00:00 | |
| S52SK | 2026-09-05 06:57:11 | 49.98810 | 15.88892 | 146° | 35km/h | 30538m | 8.5m/s | -40.9°C | 0.3% | 0hPa | 2.6V | 00:00:00 | 00:00:00 | 00:00:00 | |
| DB0UT-7 | 2026-09-05 06:57:10 | 49.98823 | 15.88882 | 158° | 20km/h | 30525m | 4.8m/s | -41.0°C | 2.2% | 0hPa | 2.6V | 00:00:00 | 00:00:00 | 00:00:00 | |
| OE5MMP-10 | 2026-09-05 06:57:08 | 49.98830 | 15.88876 | 130° | 11km/h | 30511m | 9.0m/s | -41.1°C | 2.2% | 0hPa | 2.6V | 00:00:00 | 01:54:22 | 00:00:00 | |
| KRY50SP | 2026-09-05 06:57:07 | 49.98831 | 15.88873 | 62° | 7km/h | 30503m | 6.6m/s | -41.1°C | 0.3% | 0hPa | 2.6V | 00:00:00 | 00:00:00 | 00:00:00 | |
| S52SK | 2026-09-05 06:57:06 | 49.98831 | 15.88873 | 62° | 7km/h | 30503m | 6.6m/s | -41.1°C | 0.3% | 0hPa | 2.6V | 00:00:00 | 00:00:00 | 00:00:00 | |
| OE3OSB-13 | 2026-09-05 06:57:05 | 49.98828 | 15.88870 | 47° | 4km/h | 30490m | 7.8m/s | -41.2°C | 0.3% | -1.0hPa | 2.6V | 00:00:00 | 00:00:00 | 00:00:00 | |
| NBG1-10 | 2026-09-05 06:57:04 | 49.98828 | 15.88868 | 108° | 16km/h | 30482m | 6.7m/s | -41.1°C | 2.3% | 0hPa | 2.6V | 00:00:00 | 01:54:18 | 00:00:00 | |
| EDDB2-11 | 2026-09-05 06:56:55 | 49.98860 | 15.88834 | 169° | 22km/h | 30426m | 3.9m/s | -41.3°C | 0.3% | -1.0hPa | 2.6V | 00:00:00 | 00:00:00 | 00:00:00 | |
| SP3WXH-11 | 2026-09-05 06:56:54 | 49.98869 | 15.88829 | 142° | 13km/h | 30413m | 8.3m/s | -41.3°C | 0.3% | -1.0hPa | 2.6V | 00:00:00 | 00:00:00 | 00:00:00 | |
| EDDB2-12 | 2026-09-05 06:56:49 | 49.98873 | 15.88816 | 143° | 5km/h | 30385m | 7.5m/s | -41.2°C | 0.3% | -1.0hPa | 2.6V | 00:00:00 | 00:00:00 | 00:00:00 | |
| OE5MMP-10 | 2026-09-05 06:56:48 | 49.98875 | 15.88815 | 165° | 22km/h | 30379m | 6.1m/s | -41.1°C | 2.3% | 0hPa | 2.6V | 00:00:00 | 01:54:02 | 08:30:00 | |
| SQ6EMJ | 2026-09-05 06:56:46 | 49.98880 | 15.88813 | 166° | 13km/h | 30365m | 7.9m/s | -41.1°C | 0.3% | 0hPa | 2.7V | 00:00:00 | 00:00:00 | 00:00:00 | |
| PETON7-10 | 2026-09-05 06:56:45 | 49.98884 | 15.88811 | 164° | 18km/h | 30358m | 6.2m/s | -41.0°C | 2.3% | 0hPa | 2.7V | 00:00:00 | 01:53:59 | 00:00:00 | |
| OE3JTB-15 | 2026-09-05 06:56:44 | 49.98888 | 15.88810 | 167° | 22km/h | 30352m | 5.6m/s | -41.0°C | 2.3% | 0hPa | 2.7V | 00:00:00 | 01:53:58 | 00:00:00 | |
| OE5DXL-15 | 2026-09-05 06:56:43 | 49.98894 | 15.88808 | 170° | 22km/h | 30346m | 6.7m/s | -41.0°C | 2.3% | 0hPa | 2.7V | 00:00:00 | 00:00:00 | 00:00:00 | |
| OK1ALN | 2026-09-05 06:56:42 | 49.98902 | 15.88806 | 175° | 33km/h | 30339m | 8.1m/s | -41.0°C | 0.3% | 0hPa | 2.7V | 00:00:00 | 00:00:00 | 00:00:00 | |
| POL1PZ | 2026-09-05 06:56:41 | 49.98902 | 15.88806 | 175° | 33km/h | 30339m | 8.1m/s | -41.0°C | 0.3% | 0hPa | 2.7V | 00:00:00 | 00:00:00 | 00:00:00 | |
| 13BRC | 2026-09-05 06:56:39 | 49.98919 | 15.88803 | 175° | 33km/h | 30325m | 5.5m/s | -40.9°C | 0.3% | 0hPa | 2.7V | 00:00:00 | 00:00:00 | 00:00:00 | |
| OE3MUC-15 | 2026-09-05 06:56:38 | 49.98931 | 15.88799 | 152° | 13km/h | 30312m | 7.3m/s | -40.8°C | 2.2% | 0hPa | 2.7V | 00:00:00 | 00:00:00 | 00:00:00 | |
| OM5KV | 2026-09-05 06:56:35 | 49.98936 | 15.88791 | 121° | 11km/h | 30300m | 5.3m/s | -40.8°C | 0.3% | 0hPa | 2.7V | 00:00:00 | 00:00:00 | 00:00:00 | |
| OE3MUC-15 | 2026-09-05 06:56:34 | 49.98939 | 15.88788 | 191° | 9km/h | 30286m | 8.1m/s | -40.8°C | 2.2% | 0hPa | 2.7V | 00:00:00 | 00:00:00 | 00:00:00 | |
| SQ6EMJ | 2026-09-05 06:56:33 | 49.98941 | 15.88789 | 208° | 9km/h | 30279m | 6.2m/s | -40.9°C | 0.3% | 0hPa | 2.7V | 00:00:00 | 00:00:00 | 00:00:00 | |
| HA6NAB-11 | 2026-09-05 06:56:32 | 49.98941 | 15.88789 | 208° | 9km/h | 30279m | 6.2m/s | -40.9°C | 0.3% | 0hPa | 2.7V | 00:00:00 | 00:00:00 | 00:00:00 | |
| DC4HF-4 | 2026-09-05 06:56:31 | 49.98946 | 15.88790 | 170° | 11km/h | 30267m | 7.0m/s | -40.9°C | 0.3% | -1.0hPa | 2.7V | 00:00:00 | 00:00:00 | 00:00:00 | |
| OM5KV | 2026-09-05 06:56:30 | 49.98946 | 15.88790 | 171° | 11km/h | 30267m | 7.0m/s | -40.9°C | 0.3% | 0hPa | 2.7V | 00:00:00 | 00:00:00 | 00:00:00 | |
| OE5MMP-10 | 2026-09-05 06:56:28 | 49.98959 | 15.88777 | 145° | 27km/h | 30246m | 6.2m/s | -40.9°C | 2.2% | 0hPa | 2.7V | 00:00:00 | 01:53:42 | 00:00:00 | |
| OE3MUC-15 | 2026-09-05 06:56:26 | 49.98973 | 15.88764 | 154° | 35km/h | 30232m | 7.6m/s | -41.1°C | 2.2% | 0hPa | 2.7V | 00:00:00 | 00:00:00 | 00:00:00 | |
| OM5KV | 2026-09-05 06:56:25 | 49.98973 | 15.88764 | 154° | 37km/h | 30232m | 7.6m/s | -41.1°C | 0.3% | 0hPa | 2.7V | 00:00:00 | 00:00:00 | 00:00:00 | |
| EDDB2-11 | 2026-09-05 06:56:24 | 49.98989 | 15.88750 | 142° | 33km/h | 30220m | 5.3m/s | -41.2°C | 0.3% | -1.0hPa | 2.7V | 00:00:00 | 00:00:00 | 00:00:00 | |
| SP3WXH-11 | 2026-09-05 06:56:23 | 49.98999 | 15.88732 | 117° | 26km/h | 30205m | 7.3m/s | -41.3°C | 0.3% | -1.0hPa | 2.7V | 00:00:00 | 00:00:00 | 00:00:00 | |
| OE3MUC-15 | 2026-09-05 06:56:22 | 49.98999 | 15.88732 | 118° | 20km/h | 30206m | 7.2m/s | -41.2°C | 2.3% | 0hPa | 2.7V | 00:00:00 | 00:00:00 | 00:00:00 | |
| POL1PZ | 2026-09-05 06:56:21 | 49.98999 | 15.88732 | 118° | 27km/h | 30206m | 7.3m/s | -41.3°C | 0.3% | 0hPa | 2.7V | 00:00:00 | 00:00:00 | 00:00:00 | |
| OK1ALN | 2026-09-05 06:56:20 | 49.99001 | 15.88723 | 105° | 22km/h | 30199m | 5.5m/s | -41.2°C | 0.3% | 0hPa | 2.7V | 00:00:00 | 00:00:00 | 00:00:00 | |
| OE5DRO-10 | 2026-09-05 06:56:19 | 49.99003 | 15.88710 | 102° | 20km/h | 30186m | 7.9m/s | -41.2°C | 2.2% | 0hPa | 2.7V | 00:00:00 | 00:00:00 | 00:00:00 | |
| OE3MUC-15 | 2026-09-05 06:56:18 | 49.99004 | 15.88706 | 112° | 16km/h | 30179m | 6.1m/s | -41.3°C | 2.3% | 0hPa | 2.7V | 00:00:00 | 00:00:00 | 00:00:00 | |
| SONDE2-11 | 2026-09-05 06:56:17 | 49.99005 | 15.88702 | 121° | 13km/h | 30173m | 5.5m/s | -41.3°C | 0.3% | -1.0hPa | 2.7V | 00:00:00 | 00:00:00 | 00:00:00 | |
| OM5KV | 2026-09-05 06:56:16 | 49.99005 | 15.88702 | 123° | 13km/h | 30173m | 5.5m/s | -41.3°C | 0.3% | 0hPa | 2.7V | 00:00:00 | 00:00:00 | 00:00:00 | |
| PETON7-10 | 2026-09-05 06:56:15 | 49.99010 | 15.88690 | 127° | 24km/h | 30159m | 7.3m/s | -41.2°C | 2.3% | 0hPa | 2.7V | 00:00:00 | 00:00:00 | 00:00:00 | |
| OE3MUC-15 | 2026-09-05 06:56:14 | 49.99015 | 15.88680 | 133° | 38km/h | 30153m | 6.0m/s | -41.2°C | 2.2% | 0hPa | 2.7V | 00:00:00 | 00:00:00 | 00:00:00 | |
| OE5DXL-15 | 2026-09-05 06:56:13 | 49.99022 | 15.88671 | 140° | 26km/h | 30146m | 6.1m/s | -41.2°C | 2.2% | 0hPa | 2.7V | 00:00:00 | 00:00:00 | 08:30:00 | |
| SP3BTT-10 | 2026-09-05 06:56:12 | 49.99030 | 15.88661 | 146° | 31km/h | 30139m | 7.8m/s | -41.2°C | 2.2% | 0hPa | 2.7V | 00:00:00 | 00:00:00 | 08:30:00 | |
| KRY50SP | 2026-09-05 06:56:11 | 49.99030 | 15.88661 | 147° | 42km/h | 30139m | 7.9m/s | -41.3°C | 0.3% | 0hPa | 2.7V | 00:00:00 | 00:00:00 | 00:00:00 | |
| OE3MUC-15 | 2026-09-05 06:56:10 | 49.99047 | 15.88647 | 154° | 26km/h | 30126m | 5.1m/s | -41.1°C | 2.2% | 0hPa | 2.7V | 00:00:00 | 00:00:00 | 00:00:00 | |
| S52SK | 2026-09-05 06:56:09 | 49.99047 | 15.88647 | 155° | 33km/h | 30126m | 5.2m/s | -41.2°C | 0.3% | 0hPa | 2.7V | 00:00:00 | 00:00:00 | 00:00:00 | |
| OE5MMP-10 | 2026-09-05 06:56:08 | 49.99058 | 15.88635 | 135° | 15km/h | 30115m | 7.4m/s | -41.2°C | 2.2% | 0hPa | 2.7V | 00:00:00 | 01:53:22 | 00:00:00 | |
| OE3MUC-15 | 2026-09-05 06:56:06 | 49.99062 | 15.88622 | 94° | 13km/h | 30101m | 5.4m/s | -41.2°C | 2.2% | 0hPa | 2.7V | 00:00:00 | 00:00:00 | 08:30:00 | |
| KRY50SP | 2026-09-05 06:56:05 | 49.99062 | 15.88622 | 94° | 18km/h | 30101m | 5.5m/s | -41.2°C | 0.3% | 0hPa | 2.7V | 00:00:00 | 00:00:00 | 00:00:00 | |
| S52SK | 2026-09-05 06:56:04 | 49.99061 | 15.88616 | 75° | 15km/h | 30096m | 4.9m/s | -41.4°C | 0.3% | 0hPa | 2.7V | 00:00:00 | 00:00:00 | 00:00:00 | |
| SQ6EMJ | 2026-09-05 06:56:03 | 49.99058 | 15.88608 | 41° | 9km/h | 30083m | 7.6m/s | -41.4°C | 0.3% | 0hPa | 2.7V | 00:00:00 | 00:00:00 | 00:00:00 | |
| DG1MFX-10 | 2026-09-05 06:56:02 | 49.99058 | 15.88608 | 41° | 9km/h | 30083m | 7.6m/s | 0°C | 0% | 0hPa | 2.7V | 00:00:00 | 00:00:00 | 00:00:00 | |
| DC4HF-4 | 2026-09-05 06:55:55 | 49.99083 | 15.88551 | 129° | 37km/h | 30031m | 7.0m/s | -41.9°C | 0.3% | -1.0hPa | 2.7V | 00:00:00 | 00:00:00 | 00:00:00 | |
| EDDB2-11 | 2026-09-05 06:55:53 | 49.99095 | 15.88531 | 130° | 29km/h | 30019m | 4.9m/s | -41.9°C | 0.3% | -1.0hPa | 2.7V | 00:00:00 | 00:00:00 | 00:00:00 | |
| SP3WXH-11 | 2026-09-05 06:55:51 | 49.99101 | 15.88513 | 102° | 24km/h | 30009m | 6.7m/s | -42.1°C | 0.3% | -1.0hPa | 2.7V | 00:00:00 | 00:00:00 | 00:00:00 | |
| EDDB2-12 | 2026-09-05 06:55:47 | 49.99099 | 15.88471 | 85° | 26km/h | 29982m | 6.2m/s | -42.2°C | 0.3% | -1.0hPa | 2.7V | 00:00:00 | 00:00:00 | 00:00:00 | |
| OE3MUC-15 | 2026-09-05 06:55:46 | 49.99099 | 15.88462 | 94° | 15km/h | 29975m | 8.8m/s | -42.2°C | 2.3% | 0hPa | 2.7V | 00:00:00 | 00:00:00 | 00:00:00 | |
| PETON7-10 | 2026-09-05 06:55:45 | 49.99099 | 15.88455 | 114° | 26km/h | 29968m | 5.4m/s | -42.2°C | 2.3% | 0hPa | 2.7V | 00:00:00 | 00:00:00 | 00:00:00 | |
| OM5KV | 2026-09-05 06:55:44 | 49.99101 | 15.88451 | 133° | 11km/h | 29963m | 4.9m/s | -42.4°C | 0.4% | 0hPa | 2.7V | 00:00:00 | 00:00:00 | 00:00:00 | |
| KRY50SP | 2026-09-05 06:55:43 | 49.99103 | 15.88448 | 142° | 9km/h | 29957m | 6.6m/s | -42.4°C | 0.4% | 0hPa | 2.7V | 00:00:00 | 00:00:00 | 00:00:00 | |
| OM5KV | 2026-09-05 06:55:42 | 49.99103 | 15.88448 | 142° | 9km/h | 29957m | 6.6m/s | -42.4°C | 0.4% | 0hPa | 2.7V | 00:00:00 | 00:00:00 | 00:00:00 | |
| OE5DRO-10 | 2026-09-05 06:55:41 | 49.99106 | 15.88441 | 121° | 27km/h | 29944m | 5.2m/s | -42.5°C | 2.3% | 0hPa | 2.7V | 00:00:00 | 00:00:00 | 00:00:00 | |
| OK1ALN | 2026-09-05 06:55:39 | 49.99109 | 15.88434 | 120° | 24km/h | 29938m | 7.1m/s | -42.6°C | 0.4% | 0hPa | 2.7V | 00:00:00 | 00:00:00 | 00:00:00 | |
| 13BRC | 2026-09-05 06:55:38 | 49.99117 | 15.88414 | 125° | 35km/h | 29923m | 6.5m/s | -42.8°C | 0.4% | 0hPa | 2.7V | 00:00:00 | 00:00:00 | 00:00:00 | |
| OM5KV | 2026-09-05 06:55:37 | 49.99117 | 15.88414 | 125° | 35km/h | 29923m | 6.5m/s | -42.8°C | 0.4% | 0hPa | 2.7V | 00:00:00 | 00:00:00 | 00:00:00 | |
| KRY50SP | 2026-09-05 06:55:36 | 49.99122 | 15.88402 | 124° | 37km/h | 29916m | 6.2m/s | -42.9°C | 0.4% | 0hPa | 2.7V | 00:00:00 | 00:00:00 | 00:00:00 | |
| OM5KV | 2026-09-05 06:55:34 | 49.99130 | 15.88377 | 110° | 35km/h | 29902m | 7.5m/s | -43.0°C | 0.4% | 0hPa | 2.7V | 00:00:00 | 00:00:00 | 00:00:00 | |
| HA6NAB-11 | 2026-09-05 06:55:33 | 49.99133 | 15.88364 | 103° | 37km/h | 29895m | 6.0m/s | -43.0°C | 0.4% | 0hPa | 2.7V | 00:00:00 | 00:00:00 | 00:00:00 | |
| OE3OSB-13 | 2026-09-05 06:55:32 | 49.99136 | 15.88336 | 101° | 33km/h | 29881m | 7.1m/s | -43.0°C | 0.3% | -1.0hPa | 2.7V | 00:00:00 | 00:00:00 | 00:00:00 | |
| KRY50SP | 2026-09-05 06:55:31 | 49.99136 | 15.88336 | 102° | 35km/h | 29882m | 7.1m/s | -43.0°C | 0.4% | 0hPa | 2.7V | 00:00:00 | 00:00:00 | 00:00:00 | |
| PETON7-10 | 2026-09-05 06:55:30 | 49.99140 | 15.88315 | 106° | 24km/h | 29869m | 6.8m/s | -43.0°C | 2.4% | 0hPa | 2.7V | 00:00:00 | 00:00:00 | 00:00:00 | |
| OM5KV | 2026-09-05 06:55:29 | 49.99140 | 15.88315 | 106° | 22km/h | 29869m | 6.8m/s | -43.1°C | 0.4% | 0hPa | 2.7V | 00:00:00 | 00:00:00 | 00:00:00 | |
| DB0UT-7 | 2026-09-05 06:55:28 | 49.99141 | 15.88301 | 93° | 20km/h | 29854m | 6.8m/s | -43.1°C | 2.5% | 0hPa | 2.7V | 00:00:00 | 00:00:00 | 00:00:00 | |
| SP3BTT-10 | 2026-09-05 06:55:27 | 49.99142 | 15.88294 | 96° | 20km/h | 29848m | 5.3m/s | -43.2°C | 2.4% | 0hPa | 2.7V | 00:00:00 | 00:00:00 | 00:00:00 | |
| OK1SLM-15 | 2026-09-05 06:55:26 | 49.99142 | 15.88294 | 96° | 20km/h | 29848m | 5.3m/s | -43.2°C | 0.4% | 0hPa | 2.7V | 00:00:00 | 00:00:00 | 00:00:00 | |
| OM5KV | 2026-09-05 06:55:25 | 49.99142 | 15.88286 | 104° | 22km/h | 29842m | 6.5m/s | -43.3°C | 0.4% | 0hPa | 2.7V | 00:00:00 | 00:00:00 | 00:00:00 | |
| NBG1-10 | 2026-09-05 06:55:24 | 49.99147 | 15.88268 | 126° | 20km/h | 29827m | 6.5m/s | -43.3°C | 2.5% | 0hPa | 2.7V | 00:00:00 | 01:52:38 | 08:30:00 | |
| OE5DRO-10 | 2026-09-05 06:55:22 | 49.99155 | 15.88253 | 128° | 20km/h | 29816m | 5.3m/s | -43.4°C | 2.5% | 0hPa | 2.6V | 00:00:00 | 00:00:00 | 08:30:00 | |
| OM5KV | 2026-09-05 06:55:20 | 49.99158 | 15.88246 | 120° | 22km/h | 29809m | 7.9m/s | -43.6°C | 0.4% | 0hPa | 2.6V | 00:00:00 | 00:00:00 | 00:00:00 | |
| DC4HF-4 | 2026-09-05 06:55:19 | 49.99162 | 15.88227 | 99° | 27km/h | 29797m | 5.1m/s | -43.7°C | 0.3% | -1.0hPa | 2.6V | 00:00:00 | 00:00:00 | 00:00:00 | |
| OE5MMP-10 | 2026-09-05 06:55:18 | 49.99163 | 15.88216 | 102° | 22km/h | 29791m | 6.4m/s | -43.7°C | 2.5% | 0hPa | 2.6V | 00:00:00 | 01:52:32 | 08:30:00 | |
| OM5KV | 2026-09-05 06:55:17 | 49.99163 | 15.88216 | 102° | 31km/h | 29791m | 6.5m/s | -43.7°C | 0.4% | 0hPa | 2.6V | 00:00:00 | 00:00:00 | 00:00:00 | |
| EDDB2-12 | 2026-09-05 06:55:16 | 49.99168 | 15.88192 | 113° | 31km/h | 29775m | 6.7m/s | -43.8°C | 0.3% | -1.0hPa | 2.6V | 00:00:00 | 00:00:00 | 00:00:00 | |
| DO3MHA-11 | 2026-09-05 06:55:15 | 49.99171 | 15.88182 | 117° | 13km/h | 29770m | 4.8m/s | -43.8°C | 2.5% | 0hPa | 2.6V | 00:00:00 | 01:52:29 | 00:00:00 | |
| OE3MUC-15 | 2026-09-05 06:55:14 | 49.99173 | 15.88173 | 115° | 16km/h | 29764m | 6.7m/s | -43.9°C | 2.6% | 0hPa | 2.6V | 00:00:00 | 00:00:00 | 00:00:00 | |
| OE5DXL-15 | 2026-09-05 06:55:13 | 49.99175 | 15.88166 | 106° | 16km/h | 29756m | 9.2m/s | -43.8°C | 2.6% | 0hPa | 2.6V | 00:00:00 | 00:00:00 | 00:00:00 | |
| OM5KV | 2026-09-05 06:55:11 | 49.99176 | 15.88159 | 91° | 15km/h | 29748m | 6.3m/s | -43.9°C | 0.4% | 0hPa | 2.6V | 00:00:00 | 00:00:00 | 00:00:00 | |
| PG1ADW-2 | 2026-09-05 06:55:10 | 49.99176 | 15.88149 | 98° | 16km/h | 29735m | 7.5m/s | -43.9°C | 2.5% | 0hPa | 2.6V | 00:00:00 | 00:00:00 | 00:00:00 | |
| KRY50SP | 2026-09-05 06:55:09 | 49.99176 | 15.88149 | 99° | 13km/h | 29735m | 7.5m/s | -43.9°C | 0.4% | 0hPa | 2.6V | 00:00:00 | 00:00:00 | 00:00:00 | |
| OE5MMP-10 | 2026-09-05 06:55:08 | 49.99179 | 15.88142 | 142° | 15km/h | 29720m | 6.0m/s | -43.9°C | 2.5% | 0hPa | 2.6V | 00:00:00 | 01:52:22 | 00:00:00 | |
| OM5KV | 2026-09-05 06:55:07 | 49.99179 | 15.88142 | 142° | 11km/h | 29720m | 6.1m/s | -44.0°C | 0.4% | 0hPa | 2.6V | 00:00:00 | 00:00:00 | 00:00:00 | |
| OE3MUC-15 | 2026-09-05 06:55:06 | 49.99182 | 15.88138 | 140° | 13km/h | 29707m | 7.5m/s | -44.0°C | 2.5% | 0hPa | 2.6V | 00:00:00 | 00:00:00 | 00:00:00 | |
| SQ6EMJ | 2026-09-05 06:55:04 | 49.99186 | 15.88130 | 117° | 15km/h | 29693m | 6.6m/s | -44.1°C | 0.4% | 0hPa | 2.7V | 00:00:00 | 00:00:00 | 00:00:00 | |
| OE5DRO-10 | 2026-09-05 06:55:03 | 49.99188 | 15.88124 | 122° | 18km/h | 29686m | 7.8m/s | -44.1°C | 2.6% | 0hPa | 2.7V | 00:00:00 | 00:00:00 | 00:00:00 | |
| OE3OSB-13 | 2026-09-05 06:55:01 | 49.99194 | 15.88112 | 130° | 18km/h | 29673m | 6.4m/s | -44.2°C | 0.3% | -1.0hPa | 2.7V | 00:00:00 | 00:00:00 | 00:00:00 | |
| EDDB2-11 | 2026-09-05 06:54:51 | 49.99208 | 15.88048 | 96° | 20km/h | 29602m | 5.7m/s | -44.3°C | 0.4% | -1.0hPa | 2.7V | 00:00:00 | 00:00:00 | 00:00:00 | |
| PG1ADW-2 | 2026-09-05 06:54:50 | 49.99209 | 15.88039 | 97° | 20km/h | 29596m | 6.3m/s | -44.3°C | 2.6% | 0hPa | 2.7V | 00:00:00 | 00:00:00 | 00:00:00 | |
| OK1SLM-15 | 2026-09-05 06:54:49 | 49.99209 | 15.88039 | 97° | 24km/h | 29596m | 6.3m/s | -44.3°C | 0.4% | 0hPa | 2.7V | 00:00:00 | 00:00:00 | 00:00:00 | |
| SQ6EMJ | 2026-09-05 06:54:46 | 49.99215 | 15.88008 | 124° | 16km/h | 29567m | 6.0m/s | -44.4°C | 0.4% | 0hPa | 2.7V | 00:00:00 | 00:00:00 | 00:00:00 | |
| PETON7-10 | 2026-09-05 06:54:45 | 49.99217 | 15.88003 | 117° | 18km/h | 29561m | 7.6m/s | -44.3°C | 2.6% | 0hPa | 2.7V | 00:00:00 | 00:00:00 | 00:00:00 | |
| OE5DRO-10 | 2026-09-05 06:54:44 | 49.99218 | 15.87998 | 101° | 22km/h | 29552m | 8.7m/s | -44.4°C | 2.6% | 0hPa | 2.7V | 00:00:00 | 00:00:00 | 00:00:00 | |
| OE5DXL-15 | 2026-09-05 06:54:43 | 49.99219 | 15.87992 | 92° | 24km/h | 29545m | 5.7m/s | -44.5°C | 2.6% | 0hPa | 2.7V | 00:00:00 | 00:00:00 | 00:00:00 | |
| OE3MUC-15 | 2026-09-05 06:54:42 | 49.99219 | 15.87985 | 95° | 18km/h | 29539m | 6.0m/s | -44.5°C | 2.6% | 0hPa | 2.7V | 00:00:00 | 00:00:00 | 00:00:00 | |
| DO3MHA-11 | 2026-09-05 06:54:41 | 49.99219 | 15.87978 | 101° | 26km/h | 29533m | 7.5m/s | -44.5°C | 2.6% | 0hPa | 2.6V | 00:00:00 | 01:51:55 | 00:00:00 | |
| POL2MAQ | 2026-09-05 06:54:40 | 49.99219 | 15.87978 | 102° | 18km/h | 29533m | 7.6m/s | -44.6°C | 0.4% | 0hPa | 2.6V | 00:00:00 | 00:00:00 | 00:00:00 | |
| SQ6EMJ | 2026-09-05 06:54:39 | 49.99221 | 15.87972 | 106° | 18km/h | 29525m | 7.2m/s | -44.7°C | 0.4% | 0hPa | 2.6V | 00:00:00 | 00:00:00 | 00:00:00 | |
| OE5MMP-10 | 2026-09-05 06:54:38 | 49.99222 | 15.87958 | 94° | 22km/h | 29512m | 7.4m/s | -44.6°C | 2.5% | 0hPa | 2.6V | 00:00:00 | 01:51:52 | 00:00:00 | |
| POL1PZ | 2026-09-05 06:54:37 | 49.99222 | 15.87951 | 82° | 20km/h | 29504m | 7.7m/s | -44.8°C | 0.4% | 0hPa | 2.6V | 00:00:00 | 00:00:00 | 00:00:00 | |
| 13BRC | 2026-09-05 06:54:35 | 49.99221 | 15.87943 | 76° | 22km/h | 29497m | 6.1m/s | -44.8°C | 0.4% | 0hPa | 2.6V | 00:00:00 | 00:00:00 | 00:00:00 | |
| OE3MUC-15 | 2026-09-05 06:54:34 | 49.99218 | 15.87925 | 79° | 20km/h | 29482m | 8.8m/s | -44.9°C | 2.6% | 0hPa | 2.6V | 00:00:00 | 00:00:00 | 00:00:00 | |
| SP6BVK | 2026-09-05 06:54:33 | 49.99218 | 15.87925 | 80° | 22km/h | 29482m | 8.8m/s | -45.0°C | 0.4% | 0hPa | 2.6V | 00:00:00 | 00:00:00 | 00:00:00 | |
| PG1ADW-2 | 2026-09-05 06:54:30 | 49.99220 | 15.87893 | 102° | 26km/h | 29453m | 9.5m/s | -45.3°C | 2.7% | 0hPa | 2.6V | 00:00:00 | 00:00:00 | 00:00:00 | |
| OM5KV | 2026-09-05 06:54:29 | 49.99220 | 15.87893 | 102° | 22km/h | 29453m | 9.6m/s | -45.3°C | 0.4% | 0hPa | 2.6V | 00:00:00 | 00:00:00 | 00:00:00 | |
| OE5MMP-10 | 2026-09-05 06:54:28 | 49.99223 | 15.87873 | 110° | 26km/h | 29439m | 5.5m/s | -45.4°C | 2.7% | 0hPa | 2.6V | 00:00:00 | 01:51:42 | 00:00:00 | |
| OE3MUC-15 | 2026-09-05 06:54:26 | 49.99230 | 15.87850 | 122° | 27km/h | 29425m | 7.6m/s | -45.6°C | 2.7% | 0hPa | 2.6V | 00:00:00 | 00:00:00 | 00:00:00 | |
| OE5DRO-10 | 2026-09-05 06:54:25 | 49.99234 | 15.87840 | 123° | 22km/h | 29418m | 5.7m/s | -45.7°C | 2.8% | 0hPa | 2.6V | 00:00:00 | 00:00:00 | 00:00:00 | |
| KRY50SP | 2026-09-05 06:54:24 | 49.99234 | 15.87840 | 123° | 29km/h | 29418m | 5.7m/s | -45.7°C | 0.4% | 0hPa | 2.6V | 00:00:00 | 00:00:00 | 00:00:00 | |
| SQ6EMJ | 2026-09-05 06:54:23 | 49.99240 | 15.87822 | 108° | 22km/h | 29404m | 8.5m/s | -45.8°C | 0.4% | 0hPa | 2.6V | 00:00:00 | 00:00:00 | 00:00:00 | |
| OE3MUC-15 | 2026-09-05 06:54:22 | 49.99241 | 15.87813 | 89° | 20km/h | 29396m | 7.0m/s | -45.8°C | 2.7% | 0hPa | 2.6V | 00:00:00 | 00:00:00 | 00:00:00 | |
| DO3MHA-11 | 2026-09-05 06:54:21 | 49.99240 | 15.87805 | 80° | 26km/h | 29389m | 7.2m/s | -45.9°C | 2.8% | 0hPa | 2.6V | 00:00:00 | 01:51:35 | 00:00:00 | |
| OK1SLM-15 | 2026-09-05 06:54:20 | 49.99240 | 15.87798 | 83° | 20km/h | 29382m | 8.4m/s | -45.8°C | 0.4% | 0hPa | 2.6V | 00:00:00 | 00:00:00 | 00:00:00 | |
| POL2MAQ | 2026-09-05 06:54:19 | 49.99240 | 15.87798 | 83° | 20km/h | 29382m | 8.4m/s | -45.8°C | 0.4% | 0hPa | 2.6V | 00:00:00 | 00:00:00 | 00:00:00 | |
| OE3MUC-15 | 2026-09-05 06:54:18 | 49.99240 | 15.87783 | 98° | 26km/h | 29367m | 6.0m/s | -46.0°C | 2.7% | 0hPa | 2.6V | 00:00:00 | 00:00:00 | 08:30:00 | |
| KRY50SP | 2026-09-05 06:54:17 | 49.99240 | 15.87783 | 99° | 20km/h | 29367m | 6.0m/s | -46.0°C | 0.4% | 0hPa | 2.7V | 00:00:00 | 00:00:00 | 00:00:00 | |
| SQ6EMJ | 2026-09-05 06:54:16 | 49.99240 | 15.87774 | 102° | 24km/h | 29360m | 7.8m/s | -46.1°C | 0.4% | 0hPa | 2.7V | 00:00:00 | 00:00:00 | 00:00:00 | |
| PETON7-10 | 2026-09-05 06:54:15 | 49.99243 | 15.87753 | 101° | 20km/h | 29344m | 5.3m/s | -46.1°C | 2.8% | 0hPa | 2.7V | 00:00:00 | 00:00:00 | 08:30:00 | |
| OE3MUC-15 | 2026-09-05 06:54:14 | 49.99245 | 15.87741 | 101° | 27km/h | 29338m | 6.1m/s | -46.2°C | 2.8% | 0hPa | 2.7V | 00:00:00 | 00:00:00 | 00:00:00 | |
| KRY50SP | 2026-09-05 06:54:13 | 49.99246 | 15.87729 | 104° | 31km/h | 29332m | 6.9m/s | -46.2°C | 0.5% | 0hPa | 2.7V | 00:00:00 | 00:00:00 | 00:00:00 | |
| POL1PZ | 2026-09-05 06:54:12 | 49.99246 | 15.87729 | 104° | 31km/h | 29332m | 6.9m/s | -46.2°C | 0.5% | 0hPa | 2.7V | 00:00:00 | 00:00:00 | 00:00:00 | |
| DO3MHA-11 | 2026-09-05 06:54:11 | 49.99250 | 15.87709 | 115° | 15km/h | 29316m | 7.6m/s | -46.4°C | 2.8% | 0hPa | 2.7V | 00:00:00 | 01:51:25 | 00:00:00 | |
| PG1ADW-2 | 2026-09-05 06:54:10 | 49.99252 | 15.87703 | 114° | 16km/h | 29310m | 5.6m/s | -46.4°C | 2.8% | 0hPa | 2.7V | 00:00:00 | 01:51:24 | 00:00:00 | |
| OE5MMP-10 | 2026-09-05 06:54:08 | 49.99253 | 15.87694 | 84° | 18km/h | 29294m | 10.2m/s | -46.6°C | 2.9% | 0hPa | 2.7V | 00:00:00 | 01:51:22 | 00:00:00 | |
| DC4HF-4 | 2026-09-05 06:54:07 | 49.99252 | 15.87690 | 68° | 11km/h | 29285m | 6.3m/s | -46.6°C | 0.4% | -1.0hPa | 2.7V | 00:00:00 | 00:00:00 | 00:00:00 | |
| OE5DRO-10 | 2026-09-05 06:54:06 | 49.99251 | 15.87686 | 70° | 16km/h | 29280m | 4.9m/s | -46.6°C | 2.9% | 0hPa | 2.7V | 00:00:00 | 00:00:00 | 00:00:00 | |
| SQ6EMJ | 2026-09-05 06:54:05 | 49.99251 | 15.87686 | 71° | 11km/h | 29280m | 5.0m/s | -46.7°C | 0.5% | 0hPa | 2.7V | 00:00:00 | 00:00:00 | 00:00:00 | |
| EDDB2-11 | 2026-09-05 06:53:49 | 49.99266 | 15.87581 | 92° | 15km/h | 29162m | 7.5m/s | -47.3°C | 0.5% | -1.0hPa | 2.7V | 00:00:00 | 00:00:00 | 00:00:00 | |
| OE5MMP-10 | 2026-09-05 06:53:48 | 49.99267 | 15.87574 | 102° | 22km/h | 29155m | 6.8m/s | -47.3°C | 3.1% | 0hPa | 2.7V | 00:00:00 | 01:51:02 | 08:30:00 | |
| OE5DRO-10 | 2026-09-05 06:53:47 | 49.99268 | 15.87566 | 103° | 20km/h | 29149m | 6.1m/s | -47.2°C | 3.0% | 0hPa | 2.7V | 00:00:00 | 00:00:00 | 00:00:00 | |
| OE3MUC-15 | 2026-09-05 06:53:46 | 49.99269 | 15.87557 | 97° | 24km/h | 29142m | 7.9m/s | -47.3°C | 3.1% | 0hPa | 2.7V | 00:00:00 | 00:00:00 | 00:00:00 | |
| DO3MHA-11 | 2026-09-05 06:53:45 | 49.99269 | 15.87547 | 88° | 20km/h | 29133m | 8.8m/s | -47.2°C | 3.0% | 0hPa | 2.7V | 00:00:00 | 01:50:59 | 00:00:00 | |
| OK1SLM-15 | 2026-09-05 06:53:44 | 49.99269 | 15.87547 | 88° | 26km/h | 29133m | 8.8m/s | -47.2°C | 0.5% | 0hPa | 2.7V | 00:00:00 | 00:00:00 | 00:00:00 | |
| OE5DXL-15 | 2026-09-05 06:53:43 | 49.99265 | 15.87530 | 62° | 18km/h | 29119m | 7.2m/s | -47.2°C | 3.0% | 0hPa | 2.7V | 00:00:00 | 00:00:00 | 00:00:00 | |
| OE3MUC-15 | 2026-09-05 06:53:42 | 49.99263 | 15.87522 | 61° | 18km/h | 29111m | 8.5m/s | -47.2°C | 3.0% | 0hPa | 2.7V | 00:00:00 | 00:00:00 | 08:30:00 | |
| POL2MAQ | 2026-09-05 06:53:38 | 49.99255 | 15.87495 | 65° | 20km/h | 29082m | 9.6m/s | -47.4°C | 0.5% | 0hPa | 2.6V | 00:00:00 | 00:00:00 | 00:00:00 | |
| OK1SLM-15 | 2026-09-05 06:53:37 | 49.99255 | 15.87495 | 65° | 20km/h | 29082m | 9.6m/s | -47.4°C | 0.5% | 0hPa | 2.6V | 00:00:00 | 00:00:00 | 00:00:00 | |
| OM5KV | 2026-09-05 06:53:36 | 49.99253 | 15.87488 | 56° | 20km/h | 29075m | 5.7m/s | -47.3°C | 0.5% | 0hPa | 2.6V | 00:00:00 | 00:00:00 | 00:00:00 | |
| OK1ALN | 2026-09-05 06:53:35 | 49.99250 | 15.87482 | 54° | 16km/h | 29068m | 6.5m/s | -47.3°C | 0.5% | 0hPa | 2.6V | 00:00:00 | 00:00:00 | 00:00:00 | |
| 13BRC | 2026-09-05 06:53:34 | 49.99248 | 15.87477 | 61° | 15km/h | 29061m | 7.6m/s | -47.4°C | 0.5% | 0hPa | 2.6V | 00:00:00 | 00:00:00 | 00:00:00 | |
| SQ6EMJ | 2026-09-05 06:53:32 | 49.99246 | 15.87466 | 95° | 16km/h | 29046m | 5.6m/s | -47.3°C | 0.5% | 0hPa | 2.6V | 00:00:00 | 00:00:00 | 00:00:00 | |
| DC4HF-4 | 2026-09-05 06:53:31 | 49.99247 | 15.87453 | 84° | 18km/h | 29032m | 8.3m/s | -47.3°C | 0.5% | -1.0hPa | 2.6V | 00:00:00 | 00:00:00 | 00:00:00 | |
| PETON7-10 | 2026-09-05 06:53:30 | 49.99245 | 15.87446 | 67° | 18km/h | 29024m | 8.8m/s | -47.3°C | 3.1% | 0hPa | 2.6V | 00:00:00 | 00:00:00 | 00:00:00 | |
| DO3MHA-11 | 2026-09-05 06:53:29 | 49.99243 | 15.87440 | 49° | 20km/h | 29016m | 6.2m/s | -47.3°C | 3.1% | 0hPa | 2.7V | 00:00:00 | 01:50:43 | 00:00:00 | |
| NBG1-10 | 2026-09-05 06:53:28 | 49.99239 | 15.87434 | 44° | 16km/h | 29010m | 6.9m/s | -47.2°C | 3.1% | 0hPa | 2.7V | 00:00:00 | 01:50:42 | 00:00:00 | |
| OM5KV | 2026-09-05 06:53:27 | 49.99239 | 15.87434 | 45° | 20km/h | 29010m | 6.9m/s | -47.2°C | 0.5% | 0hPa | 2.6V | 00:00:00 | 00:00:00 | 00:00:00 | |
| SQ6EMJ | 2026-09-05 06:53:26 | 49.99236 | 15.87429 | 46° | 20km/h | 29002m | 8.5m/s | -47.2°C | 0.5% | 0hPa | 2.6V | 00:00:00 | 00:00:00 | 00:00:00 | |
| OM5KV | 2026-09-05 06:53:25 | 49.99232 | 15.87423 | 53° | 20km/h | 28995m | 6.3m/s | -47.2°C | 0.5% | 0hPa | 2.6V | 00:00:00 | 00:00:00 | 00:00:00 | |
| KRY50SP | 2026-09-05 06:53:23 | 49.99226 | 15.87409 | 55° | 24km/h | 28981m | 7.7m/s | -47.1°C | 0.5% | 0hPa | 2.6V | 00:00:00 | 00:00:00 | 00:00:00 | |
| OM5KV | 2026-09-05 06:53:21 | 49.99218 | 15.87395 | 49° | 22km/h | 28967m | 4.5m/s | -47.0°C | 0.5% | 0hPa | 2.6V | 00:00:00 | 00:00:00 | 00:00:00 | |
| OM5KV | 2026-09-05 06:53:20 | 49.99214 | 15.87388 | 48° | 20km/h | 28961m | 6.8m/s | -47.0°C | 0.5% | 0hPa | 2.6V | 00:00:00 | 00:00:00 | 00:00:00 | |
| OE5MMP-10 | 2026-09-05 06:53:18 | 49.99208 | 15.87371 | 84° | 18km/h | 28936m | 6.1m/s | -46.8°C | 3.0% | 0hPa | 2.6V | 00:00:00 | 01:50:32 | 00:00:00 | |
| POL2MAQ | 2026-09-05 06:53:17 | 49.99208 | 15.87371 | 84° | 15km/h | 28936m | 6.1m/s | -46.8°C | 0.5% | 0hPa | 2.6V | 00:00:00 | 00:00:00 | 00:00:00 | |
| SQ6EMJ | 2026-09-05 06:53:16 | 49.99206 | 15.87361 | 69° | 13km/h | 28925m | 6.6m/s | -46.9°C | 0.5% | 0hPa | 2.6V | 00:00:00 | 00:00:00 | 00:00:00 | |
| PETON7-10 | 2026-09-05 06:53:15 | 49.99205 | 15.87356 | 51° | 18km/h | 28917m | 8.8m/s | -46.7°C | 3.0% | 0hPa | 2.6V | 00:00:00 | 00:00:00 | 00:00:00 | |
| OE3MUC-15 | 2026-09-05 06:53:14 | 49.99202 | 15.87353 | 31° | 18km/h | 28909m | 6.3m/s | -46.7°C | 3.0% | 0hPa | 2.6V | 00:00:00 | 00:00:00 | 00:00:00 | |
| OE5DXL-15 | 2026-09-05 06:53:13 | 49.99198 | 15.87349 | 29° | 15km/h | 28903m | 6.7m/s | -46.7°C | 3.0% | 0hPa | 2.6V | 00:00:00 | 00:00:00 | 00:00:00 | |
| SP3BTT-10 | 2026-09-05 06:53:12 | 49.99194 | 15.87345 | 35° | 13km/h | 28895m | 8.8m/s | -46.8°C | 3.1% | 0hPa | 2.7V | 00:00:00 | 00:00:00 | 00:00:00 | |
| SONDE2-11 | 2026-09-05 06:53:11 | 49.99191 | 15.87341 | 47° | 18km/h | 28887m | 7.6m/s | -46.7°C | 0.4% | -1.0hPa | 2.7V | 00:00:00 | 00:00:00 | 00:00:00 | |
| PG1ADW-2 | 2026-09-05 06:53:10 | 49.99187 | 15.87334 | 54° | 18km/h | 28879m | 6.9m/s | -46.7°C | 3.0% | 0hPa | 2.7V | 00:00:00 | 00:00:00 | 00:00:00 | |
| OE5DRO-10 | 2026-09-05 06:53:09 | 49.99184 | 15.87327 | 56° | 16km/h | 28872m | 7.6m/s | -46.7°C | 3.0% | 0hPa | 2.7V | 00:00:00 | 00:00:00 | 00:00:00 | |
| OE5MMP-10 | 2026-09-05 06:53:08 | 49.99180 | 15.87320 | 52° | 16km/h | 28865m | 7.3m/s | -46.6°C | 3.0% | 0hPa | 2.7V | 00:00:00 | 01:50:22 | 00:00:00 | |
| OM5KV | 2026-09-05 06:53:07 | 49.99180 | 15.87320 | 53° | 24km/h | 28865m | 7.4m/s | -46.7°C | 0.5% | 0hPa | 2.7V | 00:00:00 | 00:00:00 | 00:00:00 | |
| OE3MUC-15 | 2026-09-05 06:53:06 | 49.99174 | 15.87306 | 52° | 16km/h | 28851m | 7.5m/s | -46.5°C | 3.0% | 0hPa | 2.7V | 00:00:00 | 00:00:00 | 08:30:00 | |
| SQ6EMJ | 2026-09-05 06:53:05 | 49.99174 | 15.87306 | 53° | 20km/h | 28851m | 7.6m/s | -46.6°C | 0.5% | 0hPa | 2.7V | 00:00:00 | 00:00:00 | 00:00:00 | |
| KRY50SP | 2026-09-05 06:53:04 | 49.99171 | 15.87300 | 59° | 18km/h | 28842m | 9.1m/s | -46.6°C | 0.5% | 0hPa | 2.7V | 00:00:00 | 00:00:00 | 00:00:00 | |
| OM5KV | 2026-09-05 06:53:03 | 49.99169 | 15.87295 | 66° | 15km/h | 28834m | 6.5m/s | -46.6°C | 0.5% | 0hPa | 2.7V | 00:00:00 | 00:00:00 | 00:00:00 | |
| OE3OSB-13 | 2026-09-05 06:52:57 | 49.99155 | 15.87274 | 73° | 13km/h | 28785m | 5.4m/s | -46.4°C | 0.4% | -1.0hPa | 2.7V | 00:00:00 | 00:00:00 | 00:00:00 | |
| DC4HF-4 | 2026-09-05 06:52:55 | 49.99153 | 15.87260 | 79° | 20km/h | 28772m | 8.1m/s | -46.3°C | 0.4% | -1.0hPa | 2.7V | 00:00:00 | 00:00:00 | 00:00:00 | |
| EDDB2-11 | 2026-09-05 06:52:47 | 49.99144 | 15.87219 | 49° | 0km/h | 28712m | 8.9m/s | -46.2°C | 0.4% | -1.0hPa | 2.7V | 00:00:00 | 00:00:00 | 00:00:00 | |
| OE3MUC-15 | 2026-09-05 06:52:46 | 49.99143 | 15.87218 | 43° | 11km/h | 28706m | 4.0m/s | -46.1°C | 2.9% | 0hPa | 2.7V | 00:00:00 | 00:00:00 | 00:00:00 | |
| PETON7-10 | 2026-09-05 06:52:45 | 49.99142 | 15.87216 | 56° | 15km/h | 28701m | 6.4m/s | -46.1°C | 2.9% | 0hPa | 2.7V | 00:00:00 | 00:00:00 | 00:00:00 | |
| OE5DXL-15 | 2026-09-05 06:52:43 | 49.99140 | 15.87207 | 83° | 13km/h | 28685m | 9.6m/s | -46.1°C | 2.9% | 0hPa | 2.6V | 00:00:00 | 00:00:00 | 00:00:00 | |
| OE3MUC-15 | 2026-09-05 06:52:42 | 49.99140 | 15.87199 | 95° | 24km/h | 28677m | 6.1m/s | -46.1°C | 2.9% | 0hPa | 2.6V | 00:00:00 | 00:00:00 | 00:00:00 | |
| EDDB2-12 | 2026-09-05 06:52:41 | 49.99140 | 15.87180 | 88° | 24km/h | 28666m | 7.2m/s | -46.1°C | 0.4% | -1.0hPa | 2.7V | 00:00:00 | 00:00:00 | 00:00:00 | |
| SONDE2-11 | 2026-09-05 06:52:40 | 49.99140 | 15.87180 | 88° | 24km/h | 28666m | 7.2m/s | -46.1°C | 0.4% | -1.0hPa | 2.7V | 00:00:00 | 00:00:00 | 00:00:00 | |
| OM5KV | 2026-09-05 06:52:39 | 49.99140 | 15.87180 | 90° | 26km/h | 28666m | 7.2m/s | -46.1°C | 0.5% | 0hPa | 2.7V | 00:00:00 | 00:00:00 | 00:00:00 | |
| OE3MUC-15 | 2026-09-05 06:52:38 | 49.99138 | 15.87163 | 67° | 13km/h | 28649m | 6.4m/s | -46.2°C | 2.9% | 0hPa | 2.7V | 00:00:00 | 00:00:00 | 00:00:00 | |
| HA6NAB-11 | 2026-09-05 06:52:37 | 49.99138 | 15.87163 | 67° | 20km/h | 28649m | 6.4m/s | -46.2°C | 0.5% | 0hPa | 2.7V | 00:00:00 | 00:00:00 | 00:00:00 | |
| KRY50SP | 2026-09-05 06:52:36 | 49.99135 | 15.87152 | 74° | 11km/h | 28637m | 7.1m/s | -46.2°C | 0.5% | 0hPa | 2.7V | 00:00:00 | 00:00:00 | 00:00:00 | |
| OK1ALN | 2026-09-05 06:52:35 | 49.99135 | 15.87152 | 74° | 11km/h | 28637m | 7.1m/s | -46.2°C | 0.5% | 0hPa | 2.7V | 00:00:00 | 00:00:00 | 00:00:00 | |
| OE3MUC-15 | 2026-09-05 06:52:34 | 49.99136 | 15.87147 | 168° | 7km/h | 28622m | 6.5m/s | -46.2°C | 2.9% | 0hPa | 2.7V | 00:00:00 | 00:00:00 | 00:00:00 | |
| 13BRC | 2026-09-05 06:52:33 | 49.99136 | 15.87147 | 168° | 7km/h | 28622m | 6.6m/s | -46.3°C | 0.5% | 0hPa | 2.7V | 00:00:00 | 00:00:00 | 00:00:00 | |
| SQ6EMJ | 2026-09-05 06:52:31 | 49.99142 | 15.87148 | 179° | 5km/h | 28602m | 5.2m/s | -46.3°C | 0.5% | 0hPa | 2.7V | 00:00:00 | 00:00:00 | 00:00:00 | |
| OE3MUC-15 | 2026-09-05 06:52:30 | 49.99143 | 15.87147 | 148° | 9km/h | 28595m | 7.1m/s | -46.1°C | 2.9% | 0hPa | 2.7V | 00:00:00 | 00:00:00 | 08:30:00 | |
| OK1SLM-15 | 2026-09-05 06:52:29 | 49.99143 | 15.87147 | 148° | 5km/h | 28595m | 7.1m/s | -46.2°C | 0.5% | 0hPa | 2.7V | 00:00:00 | 00:00:00 | 00:00:00 | |
| OE5MMP-10 | 2026-09-05 06:52:28 | 49.99146 | 15.87143 | 128° | 15km/h | 28579m | 7.0m/s | -46.1°C | 2.9% | 0hPa | 2.7V | 00:00:00 | 01:49:42 | 00:00:00 | |
| SP3BTT-10 | 2026-09-05 06:52:27 | 49.99148 | 15.87139 | 124° | 15km/h | 28573m | 5.8m/s | -46.1°C | 2.9% | 0hPa | 2.7V | 00:00:00 | 00:00:00 | 00:00:00 | |
| OE3MUC-15 | 2026-09-05 06:52:26 | 49.99149 | 15.87135 | 118° | 13km/h | 28566m | 7.3m/s | -46.1°C | 2.9% | 0hPa | 2.7V | 00:00:00 | 00:00:00 | 00:00:00 | |
| SQ6EMJ | 2026-09-05 06:52:25 | 49.99149 | 15.87135 | 119° | 13km/h | 28566m | 7.3m/s | -46.1°C | 0.5% | 0hPa | 2.7V | 00:00:00 | 00:00:00 | 00:00:00 | |
| OK1SLM-15 | 2026-09-05 06:52:24 | 49.99150 | 15.87130 | 105° | 13km/h | 28558m | 8.5m/s | -46.1°C | 0.5% | 0hPa | 2.7V | 00:00:00 | 00:00:00 | 00:00:00 | |
| OE3MUC-15 | 2026-09-05 06:52:22 | 49.99153 | 15.87115 | 119° | 15km/h | 28538m | 7.7m/s | -46.0°C | 2.9% | 0hPa | 2.7V | 00:00:00 | 00:00:00 | 00:00:00 | |
| DC4HF-4 | 2026-09-05 06:52:19 | 49.99162 | 15.87107 | 178° | 13km/h | 28519m | 6.9m/s | -46.1°C | 0.4% | -1.0hPa | 2.7V | 00:00:00 | 00:00:00 | 00:00:00 | |
| OE5MMP-10 | 2026-09-05 06:52:18 | 49.99166 | 15.87107 | 193° | 11km/h | 28511m | 8.3m/s | -45.9°C | 2.8% | 0hPa | 2.7V | 00:00:00 | 01:49:32 | 08:30:00 | |
| POL2MAQ | 2026-09-05 06:52:17 | 49.99166 | 15.87107 | 193° | 13km/h | 28511m | 8.3m/s | -46.0°C | 0.5% | 0hPa | 2.7V | 00:00:00 | 00:00:00 | 00:00:00 | |
| EDDB2-11 | 2026-09-05 06:52:16 | 49.99169 | 15.87109 | 212° | 2km/h | 28498m | 5.4m/s | -46.1°C | 0.4% | -1.0hPa | 2.7V | 00:00:00 | 00:00:00 | 00:00:00 | |
| PETON7-10 | 2026-09-05 06:52:15 | 49.99170 | 15.87110 | 178° | 11km/h | 28491m | 7.2m/s | -45.9°C | 2.8% | 0hPa | 2.7V | 00:00:00 | 01:49:29 | 00:00:00 | |
| OE3MUC-15 | 2026-09-05 06:52:14 | 49.99171 | 15.87109 | 146° | 11km/h | 28484m | 8.1m/s | -45.9°C | 2.8% | 0hPa | 2.7V | 00:00:00 | 00:00:00 | 00:00:00 | |
| OE5DXL-15 | 2026-09-05 06:52:13 | 49.99172 | 15.87106 | 129° | 15km/h | 28477m | 5.5m/s | -45.9°C | 2.8% | 0hPa | 2.7V | 00:00:00 | 00:00:00 | 00:00:00 | |
| OE5DRO-10 | 2026-09-05 06:52:12 | 49.99174 | 15.87102 | 117° | 13km/h | 28471m | 6.7m/s | -45.9°C | 2.8% | 0hPa | 2.7V | 00:00:00 | 00:00:00 | 00:00:00 | |
| PG1ADW-2 | 2026-09-05 06:52:10 | 49.99176 | 15.87090 | 92° | 15km/h | 28456m | 5.6m/s | -45.8°C | 2.8% | 0hPa | 2.7V | 00:00:00 | 00:00:00 | 00:00:00 | |
| SONDE2-11 | 2026-09-05 06:52:09 | 49.99176 | 15.87082 | 89° | 20km/h | 28450m | 6.8m/s | -45.9°C | 0.4% | -1.0hPa | 2.7V | 00:00:00 | 00:00:00 | 00:00:00 | |
| OE5MMP-10 | 2026-09-05 06:52:08 | 49.99176 | 15.87074 | 92° | 11km/h | 28443m | 7.9m/s | -45.9°C | 2.8% | 0hPa | 2.7V | 00:00:00 | 01:49:22 | 00:00:00 | |
| SQ6EMJ | 2026-09-05 06:52:07 | 49.99176 | 15.87074 | 92° | 20km/h | 28443m | 7.9m/s | -46.0°C | 0.5% | 0hPa | 2.7V | 00:00:00 | 00:00:00 | 00:00:00 | |
| OE3MUC-15 | 2026-09-05 06:52:06 | 49.99178 | 15.87060 | 118° | 9km/h | 28428m | 5.6m/s | -45.8°C | 2.8% | 0hPa | 2.7V | 00:00:00 | 00:00:00 | 00:00:00 | |
| KRY50SP | 2026-09-05 06:52:05 | 49.99178 | 15.87060 | 119° | 15km/h | 28428m | 5.6m/s | -45.9°C | 0.5% | 0hPa | 2.7V | 00:00:00 | 00:00:00 | 00:00:00 | |
| NBG1-10 | 2026-09-05 06:52:03 | 49.99182 | 15.87051 | 161° | 15km/h | 28407m | 5.4m/s | -46.0°C | 2.8% | 0hPa | 2.7V | 00:00:00 | 01:49:17 | 00:00:00 | |
| OE3MUC-15 | 2026-09-05 06:52:02 | 49.99183 | 15.87051 | 203° | 7km/h | 28401m | 6.1m/s | -45.9°C | 2.8% | 0hPa | 2.7V | 00:00:00 | 00:00:00 | 00:00:00 | |
| POL1PZ | 2026-09-05 06:52:01 | 49.99183 | 15.87051 | 203° | 4km/h | 28401m | 6.2m/s | -46.0°C | 0.5% | 0hPa | 2.7V | 00:00:00 | 00:00:00 | 00:00:00 | |
| PETON7-10 | 2026-09-05 06:52:00 | 49.99186 | 15.87053 | 192° | 16km/h | 28386m | 8.5m/s | -46.0°C | 2.8% | 0hPa | 2.7V | 00:00:00 | 00:00:00 | 08:30:00 | |
| OE3JTB-15 | 2026-09-05 06:51:59 | 49.99188 | 15.87053 | 172° | 26km/h | 28379m | 4.5m/s | -46.1°C | 2.9% | 0hPa | 2.7V | 00:00:00 | 00:00:00 | 00:00:00 | |
| OE3MUC-15 | 2026-09-05 06:51:58 | 49.99191 | 15.87051 | 157° | 15km/h | 28374m | 5.8m/s | -46.1°C | 2.9% | 0hPa | 2.7V | 00:00:00 | 00:00:00 | 00:00:00 | |
| SQ6EMJ | 2026-09-05 06:51:56 | 49.99195 | 15.87045 | 107° | 15km/h | 28360m | 7.2m/s | -46.3°C | 0.5% | 0hPa | 2.7V | 00:00:00 | 00:00:00 | 00:00:00 | |
| OK1ALN | 2026-09-05 06:51:55 | 49.99196 | 15.87038 | 96° | 20km/h | 28353m | 5.7m/s | -46.4°C | 0.5% | 0hPa | 2.7V | 00:00:00 | 00:00:00 | 00:00:00 | |
| OE3MUC-15 | 2026-09-05 06:51:54 | 49.99197 | 15.87029 | 98° | 26km/h | 28346m | 7.1m/s | -46.3°C | 2.9% | 0hPa | 2.7V | 00:00:00 | 01:49:08 | 08:30:00 | |
| OE5DRO-10 | 2026-09-05 06:51:53 | 49.99198 | 15.87019 | 104° | 16km/h | 28338m | 8.6m/s | -46.3°C | 2.9% | 0hPa | 2.7V | 00:00:00 | 00:00:00 | 00:00:00 | |
| 13BRC | 2026-09-05 06:51:52 | 49.99198 | 15.87019 | 104° | 26km/h | 28338m | 8.7m/s | -46.3°C | 0.5% | 0hPa | 2.7V | 00:00:00 | 00:00:00 | 00:00:00 | |
| OE3MUC-15 | 2026-09-05 06:51:50 | 49.99204 | 15.86992 | 110° | 13km/h | 28320m | 7.9m/s | -46.3°C | 2.9% | 0hPa | 2.7V | 00:00:00 | 00:00:00 | 00:00:00 | |
| OE5MMP-10 | 2026-09-05 06:51:48 | 49.99206 | 15.86981 | 91° | 13km/h | 28305m | 5.7m/s | -46.5°C | 2.9% | 0hPa | 2.7V | 00:00:00 | 01:49:02 | 00:00:00 | |
| KRY50SP | 2026-09-05 06:51:47 | 49.99206 | 15.86981 | 91° | 9km/h | 28305m | 5.7m/s | -46.5°C | 0.5% | 0hPa | 2.6V | 00:00:00 | 00:00:00 | 00:00:00 | |
| OE3MUC-15 | 2026-09-05 06:51:46 | 49.99206 | 15.86977 | 158° | 11km/h | 28292m | 8.1m/s | -46.4°C | 2.9% | 0hPa | 2.6V | 00:00:00 | 00:00:00 | 00:00:00 | |
| SQ6EMJ | 2026-09-05 06:51:45 | 49.99208 | 15.86977 | 182° | 9km/h | 28285m | 5.8m/s | -46.4°C | 0.5% | 0hPa | 2.6V | 00:00:00 | 00:00:00 | 00:00:00 | |
| OE5DXL-15 | 2026-09-05 06:51:43 | 49.99215 | 15.86977 | 179° | 20km/h | 28271m | 7.8m/s | -46.4°C | 2.9% | 0hPa | 2.6V | 00:00:00 | 00:00:00 | 08:30:00 | |
| SP3BTT-10 | 2026-09-05 06:51:42 | 49.99218 | 15.86976 | 165° | 18km/h | 28264m | 5.7m/s | -46.4°C | 2.9% | 0hPa | 2.7V | 00:00:00 | 00:00:00 | 00:00:00 | |
| EDDB2-12 | 2026-09-05 06:51:39 | 49.99234 | 15.86961 | 137° | 24km/h | 28238m | 6.0m/s | -46.4°C | 0.4% | -1.0hPa | 2.6V | 00:00:00 | 00:00:00 | 00:00:00 | |
| OE5MMP-10 | 2026-09-05 06:51:38 | 49.99234 | 15.86961 | 138° | 18km/h | 28238m | 6.0m/s | -46.4°C | 2.9% | 0hPa | 2.6V | 00:00:00 | 01:48:52 | 00:00:00 | |
| POL2MAQ | 2026-09-05 06:51:36 | 49.99238 | 15.86954 | 129° | 24km/h | 28232m | 5.3m/s | -46.5°C | 0.5% | 0hPa | 2.6V | 00:00:00 | 00:00:00 | 00:00:00 | |
| OE5DRO-10 | 2026-09-05 06:51:34 | 49.99242 | 15.86932 | 73° | 20km/h | 28212m | 5.7m/s | -46.4°C | 2.9% | 0hPa | 2.6V | 00:00:00 | 00:00:00 | 00:00:00 | |
| SQ6EMJ | 2026-09-05 06:51:33 | 49.99242 | 15.86932 | 73° | 20km/h | 28212m | 5.8m/s | -46.4°C | 0.5% | 0hPa | 2.6V | 00:00:00 | 00:00:00 | 00:00:00 | |
| 13BRC | 2026-09-05 06:51:31 | 49.99238 | 15.86918 | 61° | 18km/h | 28198m | 8.2m/s | -46.3°C | 0.4% | 0hPa | 2.6V | 00:00:00 | 00:00:00 | 00:00:00 | |
| PG1ADW-2 | 2026-09-05 06:51:30 | 49.99236 | 15.86908 | 89° | 22km/h | 28184m | 4.9m/s | -46.4°C | 2.9% | 0hPa | 2.6V | 00:00:00 | 01:48:44 | 00:00:00 | |
| SQ6EMJ | 2026-09-05 06:51:28 | 49.99237 | 15.86899 | 99° | 13km/h | 28171m | 8.5m/s | -46.6°C | 0.5% | 0hPa | 2.7V | 00:00:00 | 00:00:00 | 00:00:00 | |
| SP6BVK | 2026-09-05 06:51:27 | 49.99237 | 15.86899 | 99° | 13km/h | 28171m | 8.5m/s | -46.6°C | 0.5% | 0hPa | 2.7V | 00:00:00 | 00:00:00 | 00:00:00 | |
| OE3OSB-13 | 2026-09-05 06:51:24 | 49.99243 | 15.86861 | 111° | 22km/h | 28136m | 5.3m/s | -47.0°C | 0.4% | -1.0hPa | 2.7V | 00:00:00 | 00:00:00 | 00:00:00 | |
| DO3MHA-11 | 2026-09-05 06:51:22 | 49.99245 | 15.86853 | 104° | 24km/h | 28131m | 5.7m/s | -47.0°C | 3.0% | 0hPa | 2.7V | 00:00:00 | 01:48:36 | 00:00:00 | |
| SQ6EMJ | 2026-09-05 06:51:21 | 49.99245 | 15.86853 | 105° | 22km/h | 28131m | 5.7m/s | -47.1°C | 0.5% | 0hPa | 2.7V | 00:00:00 | 00:00:00 | 00:00:00 | |
| KRY50SP | 2026-09-05 06:51:19 | 49.99244 | 15.86837 | 63° | 22km/h | 28117m | 6.0m/s | -47.1°C | 0.5% | 0hPa | 2.7V | 00:00:00 | 00:00:00 | 00:00:00 | |
| OE5MMP-10 | 2026-09-05 06:51:18 | 49.99236 | 15.86823 | 45° | 27km/h | 28103m | 7.7m/s | -47.2°C | 3.0% | 0hPa | 2.7V | 00:00:00 | 01:48:32 | 00:00:00 | |
| OK1SLM-15 | 2026-09-05 06:51:17 | 49.99237 | 15.86823 | 45° | 24km/h | 28103m | 7.8m/s | -47.2°C | 0.5% | 0hPa | 2.7V | 00:00:00 | 00:00:00 | 00:00:00 | |
| HA6NAB-11 | 2026-09-05 06:51:16 | 49.99232 | 15.86816 | 47° | 24km/h | 28096m | 8.2m/s | -47.2°C | 0.6% | 0hPa | 2.7V | 00:00:00 | 00:00:00 | 00:00:00 | |
| OE5DRO-10 | 2026-09-05 06:51:15 | 49.99224 | 15.86802 | 50° | 24km/h | 28083m | 6.2m/s | -47.1°C | 3.0% | 0hPa | 2.7V | 00:00:00 | 00:00:00 | 00:00:00 | |
| EDDB2-11 | 2026-09-05 06:51:14 | 49.99215 | 15.86785 | 49° | 31km/h | 28068m | 6.3m/s | -47.2°C | 0.5% | -1.0hPa | 2.7V | 00:00:00 | 00:00:00 | 00:00:00 | |
| OE5DXL-15 | 2026-09-05 06:51:13 | 49.99215 | 15.86785 | 50° | 20km/h | 28068m | 6.2m/s | -47.2°C | 3.0% | 0hPa | 2.7V | 00:00:00 | 00:00:00 | 00:00:00 | |
| DO3MHA-11 | 2026-09-05 06:51:12 | 49.99210 | 15.86775 | 53° | 24km/h | 28063m | 5.6m/s | -47.2°C | 3.0% | 0hPa | 2.7V | 00:00:00 | 01:48:26 | 00:00:00 | |
| SQ6EMJ | 2026-09-05 06:51:11 | 49.99205 | 15.86766 | 57° | 31km/h | 28056m | 7.2m/s | -47.2°C | 0.5% | 0hPa | 2.7V | 00:00:00 | 00:00:00 | 00:00:00 | |
| PG1ADW-2 | 2026-09-05 06:51:10 | 49.99201 | 15.86756 | 63° | 20km/h | 28048m | 8.7m/s | -47.2°C | 3.0% | 0hPa | 2.7V | 00:00:00 | 00:00:00 | 00:00:00 | |
| EDDB2-12 | 2026-09-05 06:51:08 | 49.99193 | 15.86731 | 51° | 20km/h | 28028m | 7.3m/s | -47.2°C | 0.4% | -1.0hPa | 2.7V | 00:00:00 | 00:00:00 | 00:00:00 | |
| DC4HF-4 | 2026-09-05 06:51:07 | 49.99193 | 15.86731 | 51° | 20km/h | 28028m | 7.3m/s | -47.2°C | 0.4% | -1.0hPa | 2.7V | 00:00:00 | 00:00:00 | 00:00:00 | |
| OE3MUC-15 | 2026-09-05 06:51:06 | 49.99189 | 15.86726 | 32° | 18km/h | 28021m | 6.8m/s | -47.2°C | 3.0% | 0hPa | 2.7V | 00:00:00 | 00:00:00 | 00:00:00 | |
| SQ6EMJ | 2026-09-05 06:51:05 | 49.99185 | 15.86723 | 18° | 20km/h | 28014m | 6.6m/s | -47.2°C | 0.5% | 0hPa | 2.7V | 00:00:00 | 00:00:00 | 00:00:00 | |
| OE3OSB-13 | 2026-09-05 06:50:53 | 49.99143 | 15.86663 | 30° | 13km/h | 27926m | 4.3m/s | -47.5°C | 0.4% | -1.0hPa | 2.7V | 00:00:00 | 00:00:00 | 00:00:00 | |
| OK1ALN | 2026-09-05 06:50:52 | 49.99145 | 15.86667 | 56° | 13km/h | 27932m | 8.0m/s | -47.5°C | 0.5% | 0hPa | 2.7V | 00:00:00 | 00:00:00 | 00:00:00 | |
| DO3MHA-11 | 2026-09-05 06:50:51 | 49.99140 | 15.86661 | 22° | 20km/h | 27921m | 6.3m/s | -47.5°C | 3.1% | 0hPa | 2.7V | 00:00:00 | 01:48:05 | 00:00:00 | |
| OE3MUC-15 | 2026-09-05 06:50:50 | 49.99137 | 15.86659 | 13° | 11km/h | 27914m | 6.9m/s | -47.6°C | 3.1% | 0hPa | 2.7V | 00:00:00 | 00:00:00 | 00:00:00 | |
| SQ6EMJ | 2026-09-05 06:50:48 | 49.99132 | 15.86658 | 4° | 9km/h | 27899m | 8.3m/s | -47.6°C | 0.5% | 0hPa | 2.7V | 00:00:00 | 00:00:00 | 00:00:00 | |
| OE3MUC-15 | 2026-09-05 06:50:46 | 49.99127 | 15.86658 | 11° | 20km/h | 27887m | 6.0m/s | -47.5°C | 3.0% | 0hPa | 2.7V | 00:00:00 | 00:00:00 | 00:00:00 | |
| PETON7-10 | 2026-09-05 06:50:45 | 49.99123 | 15.86656 | 15° | 18km/h | 27880m | 8.3m/s | -47.6°C | 3.1% | 0hPa | 2.7V | 00:00:00 | 01:47:59 | 00:00:00 | |
| 13BRC | 2026-09-05 06:50:44 | 49.99123 | 15.86656 | 15° | 16km/h | 27880m | 8.3m/s | -47.6°C | 0.5% | 0hPa | 2.7V | 00:00:00 | 00:00:00 | 00:00:00 | |
| NBG1-10 | 2026-09-05 06:50:43 | 49.99112 | 15.86651 | 19° | 16km/h | 27865m | 5.2m/s | -47.6°C | 3.1% | 0hPa | 2.7V | 00:00:00 | 01:47:57 | 00:00:00 | |
| OE3MUC-15 | 2026-09-05 06:50:42 | 49.99105 | 15.86648 | 18° | 22km/h | 27860m | 6.4m/s | -47.6°C | 3.1% | 0hPa | 2.7V | 00:00:00 | 00:00:00 | 08:30:00 | |
| DB0UT-7 | 2026-09-05 06:50:41 | 49.99099 | 15.86645 | 15° | 22km/h | 27852m | 8.2m/s | -47.6°C | 3.1% | 0hPa | 2.7V | 00:00:00 | 01:47:55 | 00:00:00 | |
| OK1SLM-15 | 2026-09-05 06:50:40 | 49.99099 | 15.86645 | 16° | 24km/h | 27852m | 8.3m/s | -47.7°C | 0.5% | 0hPa | 2.7V | 00:00:00 | 00:00:00 | 00:00:00 | |
| DO3MHA-11 | 2026-09-05 06:50:38 | 49.99086 | 15.86647 | 330° | 16km/h | 27831m | 8.3m/s | -47.6°C | 3.1% | 0hPa | 2.7V | 00:00:00 | 01:47:52 | 00:00:00 | |
| KRY50SP | 2026-09-05 06:50:37 | 49.99083 | 15.86651 | 314° | 18km/h | 27823m | 7.0m/s | -47.7°C | 0.5% | 0hPa | 2.7V | 00:00:00 | 00:00:00 | 00:00:00 | |
| SONDE2-11 | 2026-09-05 06:50:36 | 49.99080 | 15.86657 | 295° | 18km/h | 27817m | 5.2m/s | -47.7°C | 0.5% | -1.0hPa | 2.7V | 00:00:00 | 00:00:00 | 00:00:00 | |
| POL2MAQ | 2026-09-05 06:50:34 | 49.99079 | 15.86664 | 283° | 20km/h | 27811m | 7.7m/s | -47.7°C | 0.5% | 0hPa | 2.7V | 00:00:00 | 00:00:00 | 00:00:00 | |
| OK1ALN | 2026-09-05 06:50:32 | 49.99078 | 15.86677 | 274° | 13km/h | 27797m | 4.5m/s | -47.7°C | 0.5% | 0hPa | 2.7V | 00:00:00 | 00:00:00 | 00:00:00 | |
| DC4HF-4 | 2026-09-05 06:50:31 | 49.99072 | 15.86686 | 357° | 15km/h | 27776m | 5.7m/s | -47.6°C | 0.5% | -1.0hPa | 2.7V | 00:00:00 | 00:00:00 | 00:00:00 | |
| PG1ADW-2 | 2026-09-05 06:50:30 | 49.99072 | 15.86686 | 358° | 9km/h | 27776m | 5.7m/s | -47.5°C | 3.1% | 0hPa | 2.7V | 00:00:00 | 00:00:00 | 00:00:00 | |
| OE3MUC-15 | 2026-09-05 06:50:29 | 49.99068 | 15.86685 | 11° | 11km/h | 27772m | 3.6m/s | -47.5°C | 3.1% | 0hPa | 2.7V | 00:00:00 | 00:00:00 | 00:00:00 | |
| DO3MHA-11 | 2026-09-05 06:50:28 | 49.99065 | 15.86684 | 14° | 9km/h | 27766m | 7.4m/s | -47.5°C | 3.1% | 0hPa | 2.7V | 00:00:00 | 01:47:42 | 00:00:00 | |
| S52SK | 2026-09-05 06:50:26 | 49.99063 | 15.86683 | 15° | 7km/h | 27758m | 9.3m/s | -47.5°C | 0.5% | 0hPa | 2.7V | 00:00:00 | 00:00:00 | 00:00:00 | |
| OE3MUC-15 | 2026-09-05 06:50:25 | 49.99061 | 15.86685 | 290° | 9km/h | 27745m | 5.3m/s | -47.4°C | 3.1% | 0hPa | 2.7V | 00:00:00 | 00:00:00 | 00:00:00 | |
| SQ6EMJ | 2026-09-05 06:50:21 | 49.99055 | 15.86697 | 312° | 11km/h | 27717m | 6.9m/s | -47.5°C | 0.5% | 0hPa | 2.7V | 00:00:00 | 00:00:00 | 00:00:00 | |
| S52SK | 2026-09-05 06:50:20 | 49.99055 | 15.86697 | 312° | 11km/h | 27717m | 6.9m/s | -47.5°C | 0.5% | 0hPa | 2.7V | 00:00:00 | 00:00:00 | 00:00:00 | |
| KRY50SP | 2026-09-05 06:50:19 | 49.99053 | 15.86700 | 298° | 9km/h | 27709m | 9.5m/s | -47.5°C | 0.5% | 0hPa | 2.7V | 00:00:00 | 00:00:00 | 00:00:00 | |
| DO3MHA-11 | 2026-09-05 06:50:18 | 49.99052 | 15.86704 | 303° | 5km/h | 27696m | 4.7m/s | -47.4°C | 3.0% | 0hPa | 2.7V | 00:00:00 | 01:47:32 | 00:00:00 | |
| OE3MUC-15 | 2026-09-05 06:50:17 | 49.99051 | 15.86705 | 354° | 5km/h | 27690m | 8.2m/s | -47.5°C | 3.0% | 0hPa | 2.7V | 00:00:00 | 00:00:00 | 00:00:00 | |
| 13BRC | 2026-09-05 06:50:16 | 49.99051 | 15.86705 | 354° | 5km/h | 27690m | 8.2m/s | -47.5°C | 0.5% | 0hPa | 2.7V | 00:00:00 | 00:00:00 | 00:00:00 | |
| SQ6EMJ | 2026-09-05 06:50:15 | 49.99048 | 15.86704 | 7° | 7km/h | 27675m | 3.9m/s | -47.5°C | 0.5% | 0hPa | 2.7V | 00:00:00 | 00:00:00 | 00:00:00 | |
| OE3MUC-15 | 2026-09-05 06:50:13 | 49.99047 | 15.86705 | 254° | 7km/h | 27663m | 8.5m/s | -47.5°C | 3.0% | 0hPa | 2.7V | 00:00:00 | 00:00:00 | 00:00:00 | |
| SP3BTT-10 | 2026-09-05 06:50:11 | 49.99049 | 15.86709 | 205° | 11km/h | 27649m | 4.9m/s | -47.6°C | 3.0% | 0hPa | 2.7V | 00:00:00 | 00:00:00 | 00:00:00 | |
| NBG1-10 | 2026-09-05 06:50:10 | 49.99052 | 15.86710 | 195° | 9km/h | 27643m | 6.9m/s | -47.6°C | 3.1% | 0hPa | 2.7V | 00:00:00 | 01:47:24 | 00:00:00 | |
| DO3MHA-11 | 2026-09-05 06:50:08 | 49.99054 | 15.86710 | 119° | 4km/h | 27627m | 5.7m/s | -47.6°C | 3.0% | 0hPa | 2.7V | 00:00:00 | 01:47:22 | 00:00:00 | |
| KRY50SP | 2026-09-05 06:50:07 | 49.99054 | 15.86710 | 120° | 2km/h | 27627m | 5.8m/s | -47.6°C | 0.5% | 0hPa | 2.7V | 00:00:00 | 00:00:00 | 00:00:00 | |
| SP6BVK | 2026-09-05 06:50:06 | 49.99054 | 15.86710 | 0° | 0km/h | 27622m | 5.9m/s | -47.7°C | 0% | 0hPa | 2.7V | 00:00:00 | 00:00:00 | 00:00:00 | |
| SONDE2-11 | 2026-09-05 06:50:05 | 49.99055 | 15.86710 | 216° | 4km/h | 27606m | 7.2m/s | -47.6°C | 0.5% | -1.0hPa | 2.7V | 00:00:00 | 00:00:00 | 00:00:00 | |
| SQ6EMJ | 2026-09-05 06:50:04 | 49.99056 | 15.86711 | 206° | 4km/h | 27600m | 5.4m/s | -47.7°C | 0.5% | 0hPa | 2.7V | 00:00:00 | 00:00:00 | 00:00:00 | |
| OK1SLM-15 | 2026-09-05 06:50:03 | 49.99056 | 15.86711 | 206° | 4km/h | 27600m | 5.4m/s | -47.7°C | 0.5% | 0hPa | 2.7V | 00:00:00 | 00:00:00 | 00:00:00 | |
| KRY50SP | 2026-09-05 06:50:02 | 49.99057 | 15.86711 | 160° | 2km/h | 27594m | 6.6m/s | -47.8°C | 0.5% | 0hPa | 2.7V | 00:00:00 | 00:00:00 | 00:00:00 | |
| DC4HF-4 | 2026-09-05 06:49:55 | 49.99076 | 15.86692 | 120° | 13km/h | 27531m | 6.6m/s | -48.1°C | 0.5% | -1.0hPa | 2.7V | 00:00:00 | 00:00:00 | 00:00:00 | |
| OE3MUC-15 | 2026-09-05 06:49:54 | 49.99076 | 15.86692 | 121° | 11km/h | 27531m | 6.6m/s | -48.1°C | 3.2% | 0hPa | 2.7V | 00:00:00 | 00:00:00 | 00:00:00 | |
| 13BRC | 2026-09-05 06:49:53 | 49.99076 | 15.86692 | 122° | 15km/h | 27531m | 6.6m/s | -48.1°C | 0.5% | 0hPa | 2.7V | 00:00:00 | 00:00:00 | 00:00:00 | |
| POL2MAQ | 2026-09-05 06:49:52 | 49.99078 | 15.86688 | 112° | 13km/h | 27525m | 5.9m/s | -48.1°C | 0.5% | 0hPa | 2.7V | 00:00:00 | 00:00:00 | 00:00:00 | |
| KRY50SP | 2026-09-05 06:49:51 | 49.99079 | 15.86683 | 114° | 11km/h | 27519m | 6.0m/s | -48.1°C | 0.6% | 0hPa | 2.7V | 00:00:00 | 00:00:00 | 00:00:00 | |
| PG1ADW-2 | 2026-09-05 06:49:50 | 49.99082 | 15.86679 | 169° | 13km/h | 27505m | 6.5m/s | -48.0°C | 3.2% | 0hPa | 2.7V | 00:00:00 | 00:00:00 | 00:00:00 | |
| DO3MHA-11 | 2026-09-05 06:49:48 | 49.99087 | 15.86677 | 164° | 9km/h | 27492m | 6.3m/s | -48.0°C | 3.2% | 0hPa | 2.7V | 00:00:00 | 01:47:02 | 00:00:00 | |
| SQ6EMJ | 2026-09-05 06:49:47 | 49.99089 | 15.86675 | 134° | 11km/h | 27486m | 7.0m/s | -48.0°C | 0.5% | 0hPa | 2.7V | 00:00:00 | 00:00:00 | 00:00:00 | |
| OE3MUC-15 | 2026-09-05 06:49:46 | 49.99090 | 15.86672 | 108° | 13km/h | 27478m | 8.1m/s | -48.0°C | 3.2% | 0hPa | 2.7V | 00:00:00 | 00:00:00 | 00:00:00 | |
| PETON7-10 | 2026-09-05 06:49:45 | 49.99091 | 15.86667 | 101° | 13km/h | 27471m | 6.0m/s | -47.9°C | 3.2% | 0hPa | 2.7V | 00:00:00 | 00:00:00 | 08:30:00 | |
| OE5DXL-15 | 2026-09-05 06:49:43 | 49.99093 | 15.86658 | 122° | 18km/h | 27458m | 8.7m/s | -47.9°C | 3.2% | 0hPa | 2.7V | 00:00:00 | 00:00:00 | 00:00:00 | |
| EDDB2-11 | 2026-09-05 06:49:41 | 49.99097 | 15.86651 | 99° | 5km/h | 27439m | 6.0m/s | -47.8°C | 0.5% | -1.0hPa | 2.7V | 00:00:00 | 00:00:00 | 00:00:00 | |
| OE5DRO-10 | 2026-09-05 06:49:40 | 49.99097 | 15.86651 | 100° | 16km/h | 27439m | 5.9m/s | -47.8°C | 3.2% | 0hPa | 2.7V | 00:00:00 | 00:00:00 | 08:30:00 | |
| SP3WXH-11 | 2026-09-05 06:49:39 | 49.99097 | 15.86648 | 79° | 9km/h | 27432m | 8.8m/s | -47.9°C | 0.5% | -1.0hPa | 2.7V | 00:00:00 | 00:00:00 | 00:00:00 | |
| DO3MHA-11 | 2026-09-05 06:49:38 | 49.99096 | 15.86643 | 80° | 15km/h | 27424m | 7.1m/s | -47.7°C | 3.2% | 0hPa | 2.7V | 00:00:00 | 01:46:52 | 00:00:00 | |
| KRY50SP | 2026-09-05 06:49:35 | 49.99096 | 15.86629 | 101° | 20km/h | 27411m | 7.1m/s | -47.8°C | 0.5% | 0hPa | 2.7V | 00:00:00 | 00:00:00 | 00:00:00 | |
| SONDE2-11 | 2026-09-05 06:49:34 | 49.99099 | 15.86615 | 111° | 15km/h | 27397m | 5.1m/s | -47.8°C | 0.5% | -1.0hPa | 2.7V | 00:00:00 | 00:00:00 | 00:00:00 | |
| 13BRC | 2026-09-05 06:49:32 | 49.99100 | 15.86610 | 99° | 11km/h | 27391m | 6.0m/s | -47.7°C | 0.5% | 0hPa | 2.7V | 00:00:00 | 00:00:00 | 00:00:00 | |
| POL2MAQ | 2026-09-05 06:49:31 | 49.99100 | 15.86606 | 73° | 9km/h | 27384m | 9.3m/s | -47.8°C | 0.5% | 0hPa | 2.7V | 00:00:00 | 00:00:00 | 00:00:00 | |
| PETON7-10 | 2026-09-05 06:49:30 | 49.99095 | 15.86599 | 33° | 22km/h | 27368m | 5.6m/s | -47.7°C | 3.0% | 0hPa | 2.7V | 00:00:00 | 00:00:00 | 00:00:00 | |
| SQ6EMJ | 2026-09-05 06:49:29 | 49.99092 | 15.86596 | 38° | 13km/h | 27362m | 7.4m/s | -47.8°C | 0.5% | 0hPa | 2.7V | 00:00:00 | 00:00:00 | 00:00:00 | |
| DO3MHA-11 | 2026-09-05 06:49:28 | 49.99090 | 15.86593 | 50° | 24km/h | 27354m | 8.8m/s | -47.7°C | 3.0% | 0hPa | 2.7V | 00:00:00 | 01:46:42 | 08:30:00 | |
| OK1SLM-15 | 2026-09-05 06:49:26 | 49.99089 | 15.86590 | 66° | 11km/h | 27347m | 5.1m/s | -47.8°C | 0.5% | 0hPa | 2.6V | 00:00:00 | 00:00:00 | 00:00:00 | |
| SP3BTT-10 | 2026-09-05 06:49:25 | 49.99085 | 15.86579 | 65° | 22km/h | 27334m | 7.9m/s | -47.7°C | 3.1% | 0hPa | 2.6V | 00:00:00 | 00:00:00 | 08:30:00 | |
| SQ6EMJ | 2026-09-05 06:49:24 | 49.99083 | 15.86570 | 69° | 27km/h | 27326m | 6.8m/s | -47.8°C | 0.5% | 0hPa | 2.7V | 00:00:00 | 00:00:00 | 00:00:00 | |
| KRY50SP | 2026-09-05 06:49:23 | 49.99083 | 15.86570 | 69° | 27km/h | 27326m | 6.8m/s | -47.8°C | 0.5% | 0hPa | 2.7V | 00:00:00 | 00:00:00 | 00:00:00 | |
| OE5DRO-10 | 2026-09-05 06:49:21 | 49.99076 | 15.86533 | 78° | 24km/h | 27304m | 5.8m/s | -47.8°C | 3.1% | 0hPa | 2.7V | 00:00:00 | 00:00:00 | 00:00:00 | |
| DC4HF-4 | 2026-09-05 06:49:19 | 49.99068 | 15.86503 | 45° | 24km/h | 27283m | 7.1m/s | -47.9°C | 0.5% | -1.0hPa | 2.7V | 00:00:00 | 00:00:00 | 00:00:00 | |
| SQ6EMJ | 2026-09-05 06:49:18 | 49.99068 | 15.86503 | 47° | 26km/h | 27283m | 7.1m/s | -47.9°C | 0.6% | 0hPa | 2.7V | 00:00:00 | 00:00:00 | 00:00:00 | |
| KRY50SP | 2026-09-05 06:49:17 | 49.99068 | 15.86503 | 47° | 26km/h | 27283m | 7.1m/s | -47.9°C | 0.6% | 0hPa | 2.7V | 00:00:00 | 00:00:00 | 00:00:00 | |
| PETON7-10 | 2026-09-05 06:49:15 | 49.99053 | 15.86488 | 21° | 24km/h | 27262m | 7.3m/s | -47.9°C | 3.1% | 0hPa | 2.7V | 00:00:00 | 01:46:29 | 00:00:00 | |
| OE5DXL-15 | 2026-09-05 06:49:13 | 49.99043 | 15.86484 | 18° | 22km/h | 27247m | 6.2m/s | -47.8°C | 3.1% | 0hPa | 2.7V | 00:00:00 | 00:00:00 | 00:00:00 | |
| SQ6EMJ | 2026-09-05 06:49:12 | 49.99039 | 15.86480 | 34° | 22km/h | 27242m | 5.2m/s | -47.9°C | 0.5% | 0hPa | 2.7V | 00:00:00 | 00:00:00 | 00:00:00 | |
| POL2MAQ | 2026-09-05 06:49:11 | 49.99039 | 15.86480 | 34° | 22km/h | 27242m | 5.2m/s | -47.9°C | 0.5% | 0hPa | 2.7V | 00:00:00 | 00:00:00 | 00:00:00 | |
| PG1ADW-2 | 2026-09-05 06:49:10 | 49.99030 | 15.86466 | 66° | 24km/h | 27227m | 9.1m/s | -48.0°C | 3.2% | 0hPa | 2.7V | 00:00:00 | 00:00:00 | 00:00:00 | |
| OK1ALN | 2026-09-05 06:49:09 | 49.99031 | 15.86466 | 66° | 27km/h | 27227m | 9.2m/s | -48.0°C | 0.6% | 0hPa | 2.7V | 00:00:00 | 00:00:00 | 00:00:00 | |
| DO3MHA-11 | 2026-09-05 06:49:08 | 49.99028 | 15.86445 | 87° | 24km/h | 27215m | 6.2m/s | -48.0°C | 3.2% | 0hPa | 2.7V | 00:00:00 | 01:46:22 | 00:00:00 | |
| SQ6EMJ | 2026-09-05 06:49:07 | 49.99027 | 15.86435 | 84° | 24km/h | 27208m | 7.1m/s | -48.1°C | 0.5% | 0hPa | 2.7V | 00:00:00 | 00:00:00 | 00:00:00 | |
| KRY50SP | 2026-09-05 06:49:04 | 49.99023 | 15.86420 | 41° | 22km/h | 27193m | 5.2m/s | -48.1°C | 0.6% | 0hPa | 2.7V | 00:00:00 | 00:00:00 | 00:00:00 | |
| SONDE2-11 | 2026-09-05 06:49:03 | 49.99013 | 15.86411 | 20° | 22km/h | 27181m | 6.7m/s | -48.1°C | 0.5% | -1.0hPa | 2.7V | 00:00:00 | 00:00:00 | 00:00:00 | |
| OE5DRO-10 | 2026-09-05 06:49:02 | 49.99008 | 15.86408 | 18° | 22km/h | 27173m | 9.9m/s | -48.0°C | 3.2% | 0hPa | 2.7V | 00:00:00 | 00:00:00 | 00:00:00 | |
| SQ6EMJ | 2026-09-05 06:49:01 | 49.99002 | 15.86406 | 12° | 20km/h | 27165m | 5.4m/s | -48.0°C | 0.6% | 0hPa | 2.7V | 00:00:00 | 00:00:00 | 00:00:00 | |
| PETON7-10 | 2026-09-05 06:49:00 | 49.98997 | 15.86405 | 7° | 22km/h | 27159m | 6.0m/s | -48.0°C | 3.2% | 0hPa | 2.7V | 00:00:00 | 00:00:00 | 00:00:00 | |
| DO3MHA-11 | 2026-09-05 06:48:58 | 49.98986 | 15.86403 | 9° | 22km/h | 27143m | 9.0m/s | -47.8°C | 3.1% | 0hPa | 2.7V | 00:00:00 | 01:46:12 | 00:00:00 | |
| SQ6EMJ | 2026-09-05 06:48:55 | 49.98973 | 15.86396 | 34° | 24km/h | 27131m | 6.5m/s | -47.9°C | 0.5% | 0hPa | 2.7V | 00:00:00 | 00:00:00 | 00:00:00 | |
| KRY50SP | 2026-09-05 06:48:52 | 49.98964 | 15.86376 | 65° | 20km/h | 27110m | 3.8m/s | -47.8°C | 0.5% | 0hPa | 2.7V | 00:00:00 | 00:00:00 | 00:00:00 | |
| PG1ADW-2 | 2026-09-05 06:48:50 | 49.98953 | 15.86358 | 31° | 16km/h | 27089m | 4.9m/s | -47.7°C | 3.1% | 0hPa | 2.7V | 00:00:00 | 01:46:04 | 00:00:00 | |
| POL1PZ | 2026-09-05 06:48:49 | 49.98953 | 15.86357 | 32° | 22km/h | 27089m | 4.9m/s | -47.7°C | 0.5% | 0hPa | 2.7V | 00:00:00 | 00:00:00 | 00:00:00 | |
| DO3MHA-11 | 2026-09-05 06:48:48 | 49.98944 | 15.86351 | 19° | 16km/h | 27077m | 8.1m/s | -47.7°C | 3.1% | 0hPa | 2.7V | 00:00:00 | 01:46:02 | 00:00:00 | |
| KRY50SP | 2026-09-05 06:48:46 | 49.98940 | 15.86349 | 17° | 16km/h | 27069m | 7.7m/s | -47.7°C | 0.5% | 0hPa | 2.7V | 00:00:00 | 00:00:00 | 00:00:00 | |
| SQ6EMJ | 2026-09-05 06:48:45 | 49.98931 | 15.86345 | 12° | 18km/h | 27057m | 6.7m/s | -47.6°C | 0.5% | 0hPa | 2.7V | 00:00:00 | 00:00:00 | 00:00:00 | |
| OK1SLM-15 | 2026-09-05 06:48:44 | 49.98931 | 15.86345 | 12° | 18km/h | 27057m | 6.7m/s | -47.6°C | 0.5% | 0hPa | 2.7V | 00:00:00 | 00:00:00 | 00:00:00 | |
| DC4HF-4 | 2026-09-05 06:48:43 | 49.98915 | 15.86342 | 7° | 16km/h | 27037m | 5.2m/s | -47.6°C | 0.5% | -1.0hPa | 2.7V | 00:00:00 | 00:00:00 | 00:00:00 | |
| NBG1-10 | 2026-09-05 06:48:41 | 49.98912 | 15.86341 | 10° | 13km/h | 27030m | 8.9m/s | -47.5°C | 3.1% | 0hPa | 2.7V | 00:00:00 | 01:45:55 | 00:00:00 | |
| SP3BTT-10 | 2026-09-05 06:48:40 | 49.98909 | 15.86340 | 22° | 15km/h | 27021m | 7.9m/s | -47.5°C | 3.1% | 0hPa | 2.7V | 00:00:00 | 00:00:00 | 00:00:00 | |
| SQ6EMJ | 2026-09-05 06:48:38 | 49.98908 | 15.86339 | 33° | 5km/h | 27015m | 4.6m/s | -47.6°C | 0.5% | 0hPa | 2.7V | 00:00:00 | 00:00:00 | 00:00:00 | |
| SP3WXH-11 | 2026-09-05 06:48:37 | 49.98904 | 15.86337 | 12° | 11km/h | 27001m | 9.6m/s | -47.6°C | 0.4% | -1.0hPa | 2.7V | 00:00:00 | 00:00:00 | 00:00:00 | |
| KRY50SP | 2026-09-05 06:48:35 | 49.98901 | 15.86336 | 7° | 16km/h | 26993m | 5.4m/s | -47.6°C | 0.5% | 0hPa | 2.7V | 00:00:00 | 00:00:00 | 00:00:00 | |
| SONDE2-11 | 2026-09-05 06:48:32 | 49.98881 | 15.86336 | 334° | 13km/h | 26960m | 6.6m/s | -47.8°C | 0.5% | -1.0hPa | 2.7V | 00:00:00 | 00:00:00 | 00:00:00 | |
| POL2MAQ | 2026-09-05 06:48:30 | 49.98878 | 15.86339 | 335° | 16km/h | 26953m | 9.3m/s | -47.8°C | 0.5% | 0hPa | 2.7V | 00:00:00 | 00:00:00 | 00:00:00 | |
| OK1ALN | 2026-09-05 06:48:29 | 49.98878 | 15.86339 | 335° | 16km/h | 26953m | 9.3m/s | -47.8°C | 0.5% | 0hPa | 2.7V | 00:00:00 | 00:00:00 | 00:00:00 | |
| DO3MHA-11 | 2026-09-05 06:48:28 | 49.98870 | 15.86344 | 344° | 15km/h | 26939m | 4.9m/s | -47.9°C | 3.1% | 0hPa | 2.7V | 00:00:00 | 01:45:42 | 00:00:00 | |
| SQ6EMJ | 2026-09-05 06:48:26 | 49.98866 | 15.86346 | 344° | 15km/h | 26933m | 6.8m/s | -48.1°C | 0.5% | 0hPa | 2.6V | 00:00:00 | 00:00:00 | 00:00:00 | |
| OE5DRO-10 | 2026-09-05 06:48:24 | 49.98859 | 15.86354 | 303° | 16km/h | 26912m | 8.0m/s | -48.1°C | 3.2% | 0hPa | 2.6V | 00:00:00 | 00:00:00 | 00:00:00 | |
| KRY50SP | 2026-09-05 06:48:23 | 49.98859 | 15.86354 | 304° | 13km/h | 26912m | 8.1m/s | -48.2°C | 0.5% | 0hPa | 2.6V | 00:00:00 | 00:00:00 | 00:00:00 | |
| SQ6EMJ | 2026-09-05 06:48:21 | 49.98853 | 15.86370 | 304° | 16km/h | 26892m | 7.4m/s | -48.2°C | 0.6% | 0hPa | 2.6V | 00:00:00 | 00:00:00 | 00:00:00 | |
| DO3MHA-11 | 2026-09-05 06:48:18 | 49.98848 | 15.86386 | 287° | 15km/h | 26871m | 7.2m/s | -48.2°C | 3.2% | 0hPa | 2.6V | 00:00:00 | 01:45:32 | 00:00:00 | |
| OE3OSB-13 | 2026-09-05 06:48:17 | 49.98847 | 15.86392 | 293° | 15km/h | 26863m | 8.8m/s | -48.2°C | 0.5% | -1.0hPa | 2.6V | 00:00:00 | 00:00:00 | 00:00:00 | |
| PETON7-10 | 2026-09-05 06:48:15 | 49.98842 | 15.86402 | 320° | 16km/h | 26850m | 5.0m/s | -48.1°C | 3.2% | 0hPa | 2.6V | 00:00:00 | 00:00:00 | 00:00:00 | |
| OE5DXL-15 | 2026-09-05 06:48:13 | 49.98839 | 15.86408 | 291° | 20km/h | 26836m | 9.4m/s | -48.1°C | 3.2% | 0hPa | 2.7V | 00:00:00 | 00:00:00 | 00:00:00 | |
| 13BRC | 2026-09-05 06:48:12 | 49.98839 | 15.86408 | 292° | 7km/h | 26836m | 9.5m/s | -48.1°C | 0.6% | 0hPa | 2.7V | 00:00:00 | 00:00:00 | 00:00:00 | |
| KRY50SP | 2026-09-05 06:48:11 | 49.98839 | 15.86411 | 259° | 11km/h | 26828m | 6.0m/s | -48.2°C | 0.6% | 0hPa | 2.7V | 00:00:00 | 00:00:00 | 00:00:00 | |
| PG1ADW-2 | 2026-09-05 06:48:10 | 49.98840 | 15.86422 | 262° | 18km/h | 26814m | 8.0m/s | -48.1°C | 3.2% | 0hPa | 2.7V | 00:00:00 | 00:00:00 | 00:00:00 | |
| POL2MAQ | 2026-09-05 06:48:09 | 49.98840 | 15.86422 | 263° | 18km/h | 26814m | 8.1m/s | -48.1°C | 0.6% | 0hPa | 2.7V | 00:00:00 | 00:00:00 | 00:00:00 | |
| NBG1-10 | 2026-09-05 06:48:08 | 49.98841 | 15.86445 | 262° | 20km/h | 26794m | 7.5m/s | -48.1°C | 3.2% | 0hPa | 2.7V | 00:00:00 | 01:45:21 | 00:00:00 | |
| DC4HF-4 | 2026-09-05 06:48:07 | 49.98842 | 15.86453 | 252° | 20km/h | 26787m | 6.0m/s | -48.1°C | 0.5% | -1.0hPa | 2.7V | 00:00:00 | 00:00:00 | 00:00:00 | |
| SP3WXH-11 | 2026-09-05 06:48:06 | 49.98842 | 15.86453 | 252° | 20km/h | 26787m | 6.0m/s | -48.1°C | 0.5% | -1.0hPa | 2.7V | 00:00:00 | 00:00:00 | 00:00:00 | |
| SQ6EMJ | 2026-09-05 06:48:05 | 49.98844 | 15.86461 | 255° | 22km/h | 26781m | 6.6m/s | -48.2°C | 0.5% | 0hPa | 2.7V | 00:00:00 | 00:00:00 | 00:00:00 | |
| SONDE2-11 | 2026-09-05 06:48:01 | 49.98848 | 15.86494 | 249° | 15km/h | 26743m | 8.5m/s | -48.1°C | 0.5% | -1.0hPa | 2.7V | 00:00:00 | 00:00:00 | 00:00:00 | |
| PETON7-10 | 2026-09-05 06:48:00 | 49.98848 | 15.86494 | 250° | 18km/h | 26743m | 8.5m/s | -48.0°C | 3.2% | 0hPa | 2.7V | 00:00:00 | 00:00:00 | 00:00:00 | |
| SQ6EMJ | 2026-09-05 06:47:59 | 49.98850 | 15.86499 | 235° | 15km/h | 26736m | 5.4m/s | -48.1°C | 0.6% | 0hPa | 2.7V | 00:00:00 | 00:00:00 | 00:00:00 | |
| DO3MHA-11 | 2026-09-05 06:47:58 | 49.98852 | 15.86504 | 226° | 16km/h | 26730m | 7.3m/s | -48.0°C | 3.1% | 0hPa | 2.7V | 00:00:00 | 01:45:12 | 08:30:00 | |
| SP3BTT-10 | 2026-09-05 06:47:55 | 49.98860 | 15.86517 | 235° | 22km/h | 26707m | 5.8m/s | -47.9°C | 3.2% | 0hPa | 2.7V | 00:00:00 | 00:00:00 | 00:00:00 | |
| SQ6EMJ | 2026-09-05 06:47:53 | 49.98862 | 15.86521 | 236° | 15km/h | 26700m | 7.4m/s | -48.0°C | 0.6% | 0hPa | 2.7V | 00:00:00 | 00:00:00 | 00:00:00 | |
| PG1ADW-2 | 2026-09-05 06:47:50 | 49.98875 | 15.86544 | 229° | 22km/h | 26671m | 8.8m/s | -48.1°C | 3.2% | 0hPa | 2.7V | 00:00:00 | 00:00:00 | 00:00:00 | |
| KRY50SP | 2026-09-05 06:47:49 | 49.98875 | 15.86544 | 230° | 20km/h | 26671m | 8.9m/s | -48.2°C | 0.6% | 0hPa | 2.7V | 00:00:00 | 00:00:00 | 00:00:00 | |
| DO3MHA-11 | 2026-09-05 06:47:48 | 49.98880 | 15.86556 | 240° | 24km/h | 26656m | 5.8m/s | -48.1°C | 3.2% | 0hPa | 2.7V | 00:00:00 | 01:45:02 | 00:00:00 | |
| SQ6EMJ | 2026-09-05 06:47:47 | 49.98880 | 15.86556 | 240° | 18km/h | 26656m | 5.9m/s | -48.2°C | 0.6% | 0hPa | 2.7V | 00:00:00 | 00:00:00 | 00:00:00 | |
| OE5DRO-10 | 2026-09-05 06:47:46 | 49.98886 | 15.86568 | 225° | 24km/h | 26642m | 7.3m/s | -48.1°C | 3.2% | 0hPa | 2.7V | 00:00:00 | 00:00:00 | 00:00:00 | |
| PETON7-10 | 2026-09-05 06:47:45 | 49.98891 | 15.86573 | 211° | 22km/h | 26635m | 6.0m/s | -48.0°C | 3.2% | 0hPa | 2.7V | 00:00:00 | 01:44:59 | 00:00:00 | |
| KRY50SP | 2026-09-05 06:47:44 | 49.98891 | 15.86573 | 211° | 26km/h | 26635m | 6.1m/s | -48.0°C | 0.6% | 0hPa | 2.7V | 00:00:00 | 00:00:00 | 00:00:00 | |
| SQ6EMJ | 2026-09-05 06:47:43 | 49.98903 | 15.86581 | 197° | 26km/h | 26619m | 9.5m/s | -48.0°C | 0.5% | 0hPa | 2.7V | 00:00:00 | 00:00:00 | 00:00:00 | |
| OK1SLM-15 | 2026-09-05 06:47:42 | 49.98903 | 15.86581 | 197° | 26km/h | 26619m | 9.5m/s | -48.0°C | 0.5% | 0hPa | 2.7V | 00:00:00 | 00:00:00 | 00:00:00 | |
| DO3MHA-11 | 2026-09-05 06:47:38 | 49.98934 | 15.86588 | 190° | 22km/h | 26585m | 6.4m/s | -47.8°C | 3.1% | 0hPa | 2.7V | 00:00:00 | 01:44:52 | 00:00:00 | |
| OK1SLM-15 | 2026-09-05 06:47:37 | 49.98934 | 15.86588 | 191° | 26km/h | 26585m | 6.4m/s | -47.9°C | 0.5% | 0hPa | 2.7V | 00:00:00 | 00:00:00 | 00:00:00 | |
| EDDB2-11 | 2026-09-05 06:47:36 | 49.98945 | 15.86591 | 190° | 18km/h | 26569m | 9.4m/s | -47.9°C | 0.5% | -1.0hPa | 2.7V | 00:00:00 | 00:00:00 | 00:00:00 | |
| NBG1-10 | 2026-09-05 06:47:35 | 49.98949 | 15.86593 | 195° | 18km/h | 26561m | 5.6m/s | -47.8°C | 3.1% | 0hPa | 2.7V | 00:00:00 | 01:44:49 | 00:00:00 | |
| KRY50SP | 2026-09-05 06:47:33 | 49.98957 | 15.86596 | 199° | 16km/h | 26549m | 7.9m/s | -47.9°C | 0.6% | 0hPa | 2.7V | 00:00:00 | 00:00:00 | 00:00:00 | |
| OK1SLM-15 | 2026-09-05 06:47:31 | 49.98961 | 15.86598 | 195° | 22km/h | 26541m | 7.9m/s | -47.9°C | 0.6% | 0hPa | 2.7V | 00:00:00 | 00:00:00 | 00:00:00 | |
| SONDE2-11 | 2026-09-05 06:47:30 | 49.98982 | 15.86599 | 170° | 27km/h | 26519m | 9.2m/s | -48.0°C | 0.5% | -1.0hPa | 2.7V | 00:00:00 | 00:00:00 | 00:00:00 | |
| DO3MHA-11 | 2026-09-05 06:47:28 | 49.98989 | 15.86597 | 166° | 22km/h | 26512m | 5.5m/s | -47.9°C | 3.2% | 0hPa | 2.7V | 00:00:00 | 01:44:42 | 00:00:00 | |
| POL1PZ | 2026-09-05 06:47:27 | 49.98995 | 15.86594 | 166° | 26km/h | 26506m | 6.5m/s | -48.0°C | 0.6% | 0hPa | 2.7V | 00:00:00 | 00:00:00 | 00:00:00 | |
| SQ6EMJ | 2026-09-05 06:47:25 | 49.99002 | 15.86592 | 169° | 26km/h | 26499m | 8.6m/s | -48.0°C | 0.6% | 0hPa | 2.7V | 00:00:00 | 00:00:00 | 00:00:00 | |
| DB0UT-7 | 2026-09-05 06:47:24 | 49.99014 | 15.86587 | 164° | 24km/h | 26485m | 5.9m/s | -47.9°C | 3.1% | 0hPa | 2.7V | 00:00:00 | 00:00:00 | 00:00:00 | |
| OE5DXL-15 | 2026-09-05 06:47:22 | 49.99023 | 15.86581 | 146° | 22km/h | 26472m | 5.1m/s | -47.8°C | 3.1% | 0hPa | 2.7V | 00:00:00 | 00:00:00 | 00:00:00 | |
| SQ6EMJ | 2026-09-05 06:47:21 | 49.99026 | 15.86577 | 144° | 15km/h | 26466m | 6.9m/s | -48.0°C | 0.6% | 0hPa | 2.7V | 00:00:00 | 00:00:00 | 00:00:00 | |
| DO3MHA-11 | 2026-09-05 06:47:18 | 49.99038 | 15.86569 | 160° | 24km/h | 26444m | 6.2m/s | -47.9°C | 3.1% | 0hPa | 2.7V | 00:00:00 | 01:44:32 | 00:00:00 | |
| KRY50SP | 2026-09-05 06:47:16 | 49.99043 | 15.86565 | 156° | 26km/h | 26437m | 7.2m/s | -48.0°C | 0.6% | 0hPa | 2.7V | 00:00:00 | 00:00:00 | 00:00:00 | |
| PETON7-10 | 2026-09-05 06:47:15 | 49.99056 | 15.86553 | 144° | 22km/h | 26423m | 5.0m/s | -48.1°C | 3.2% | 0hPa | 2.7V | 00:00:00 | 00:00:00 | 00:00:00 | |
| SQ6EMJ | 2026-09-05 06:47:14 | 49.99055 | 15.86553 | 145° | 29km/h | 26423m | 5.0m/s | -48.1°C | 0.6% | 0hPa | 2.7V | 00:00:00 | 00:00:00 | 00:00:00 | |
| OE3MUC-15 | 2026-09-05 06:47:11 | 49.99079 | 15.86530 | 153° | 15km/h | 26396m | 5.8m/s | -48.1°C | 3.2% | 0hPa | 2.7V | 00:00:00 | 00:00:00 | 00:00:00 | |
| PG1ADW-2 | 2026-09-05 06:47:10 | 49.99083 | 15.86526 | 146° | 20km/h | 26389m | 7.5m/s | -48.1°C | 3.2% | 0hPa | 2.7V | 00:00:00 | 00:00:00 | 00:00:00 | |
| DO3MHA-11 | 2026-09-05 06:47:08 | 49.99089 | 15.86516 | 125° | 20km/h | 26376m | 6.2m/s | -48.1°C | 3.1% | 0hPa | 2.7V | 00:00:00 | 01:44:22 | 00:00:00 | |
| OK1ALN | 2026-09-05 06:47:07 | 49.99089 | 15.86516 | 125° | 16km/h | 26376m | 6.3m/s | -48.1°C | 0.5% | 0hPa | 2.7V | 00:00:00 | 00:00:00 | 00:00:00 | |
| POL1PZ | 2026-09-05 06:47:06 | 49.99092 | 15.86511 | 125° | 15km/h | 26369m | 7.8m/s | -48.1°C | 0.6% | 0hPa | 2.7V | 00:00:00 | 00:00:00 | 00:00:00 | |
| EDDB2-11 | 2026-09-05 06:47:05 | 49.99097 | 15.86502 | 135° | 15km/h | 26353m | 4.8m/s | -48.2°C | 0.5% | -1.0hPa | 2.7V | 00:00:00 | 00:00:00 | 00:00:00 | |
| SP3WXH-11 | 2026-09-05 06:47:04 | 49.99099 | 15.86497 | 132° | 16km/h | 26348m | 5.3m/s | -48.2°C | 0.5% | -1.0hPa | 2.7V | 00:00:00 | 00:00:00 | 00:00:00 | |
| SQ6EMJ | 2026-09-05 06:47:03 | 49.99099 | 15.86497 | 134° | 16km/h | 26348m | 5.3m/s | -48.2°C | 0.6% | 0hPa | 2.7V | 00:00:00 | 00:00:00 | 00:00:00 | |
| SONDE2-11 | 2026-09-05 06:46:59 | 49.99117 | 15.86446 | 127° | 27km/h | 26305m | 6.4m/s | -48.3°C | 0.5% | -1.0hPa | 2.7V | 00:00:00 | 00:00:00 | 00:00:00 | |
| DO3MHA-11 | 2026-09-05 06:46:58 | 49.99117 | 15.86446 | 128° | 18km/h | 26305m | 6.3m/s | -48.2°C | 3.2% | 0hPa | 2.7V | 00:00:00 | 01:44:12 | 00:00:00 | |
| SQ6EMJ | 2026-09-05 06:46:57 | 49.99117 | 15.86446 | 129° | 27km/h | 26305m | 6.4m/s | -48.3°C | 0.5% | 0hPa | 2.7V | 00:00:00 | 00:00:00 | 00:00:00 | |
| DB0UT-7 | 2026-09-05 06:46:54 | 49.99129 | 15.86416 | 106° | 13km/h | 26279m | 7.0m/s | -48.3°C | 3.2% | 0hPa | 2.7V | 00:00:00 | 01:44:08 | 00:00:00 | |
| KRY50SP | 2026-09-05 06:46:53 | 49.99129 | 15.86417 | 106° | 18km/h | 26279m | 7.1m/s | -48.3°C | 0.6% | 0hPa | 2.7V | 00:00:00 | 00:00:00 | 00:00:00 | |
| OE5DXL-15 | 2026-09-05 06:46:52 | 49.99130 | 15.86404 | 84° | 11km/h | 26265m | 5.5m/s | -48.2°C | 3.2% | 0hPa | 2.7V | 00:00:00 | 00:00:00 | 08:30:00 | |
| SQ6EMJ | 2026-09-05 06:46:51 | 49.99130 | 15.86404 | 85° | 13km/h | 26265m | 5.5m/s | -48.2°C | 0.6% | 0hPa | 2.6V | 00:00:00 | 00:00:00 | 00:00:00 | |
| PG1ADW-2 | 2026-09-05 06:46:50 | 49.99128 | 15.86395 | 67° | 13km/h | 26251m | 8.2m/s | -48.2°C | 3.2% | 0hPa | 2.6V | 00:00:00 | 00:00:00 | 00:00:00 | |
| OE5DRO-10 | 2026-09-05 06:46:49 | 49.99127 | 15.86389 | 74° | 13km/h | 26243m | 7.6m/s | -48.2°C | 3.1% | 0hPa | 2.6V | 00:00:00 | 00:00:00 | 08:30:00 | |
| DO3MHA-11 | 2026-09-05 06:46:48 | 49.99126 | 15.86382 | 90° | 18km/h | 26237m | 5.3m/s | -48.2°C | 3.2% | 0hPa | 2.6V | 00:00:00 | 01:44:02 | 00:00:00 | |
| OK1ALN | 2026-09-05 06:46:46 | 49.99127 | 15.86373 | 101° | 22km/h | 26231m | 6.9m/s | -48.2°C | 0.6% | 0hPa | 2.6V | 00:00:00 | 00:00:00 | 00:00:00 | |
| PETON7-10 | 2026-09-05 06:46:45 | 49.99130 | 15.86358 | 115° | 11km/h | 26217m | 5.1m/s | -48.2°C | 3.2% | 0hPa | 2.6V | 00:00:00 | 00:00:00 | 00:00:00 | |
| OE3OSB-13 | 2026-09-05 06:46:44 | 49.99132 | 15.86351 | 109° | 16km/h | 26211m | 6.5m/s | -48.2°C | 0.5% | -1.0hPa | 2.7V | 00:00:00 | 00:00:00 | 00:00:00 | |
| KRY50SP | 2026-09-05 06:46:42 | 49.99133 | 15.86345 | 103° | 18km/h | 26203m | 8.8m/s | -48.2°C | 0.5% | 0hPa | 2.7V | 00:00:00 | 00:00:00 | 00:00:00 | |
| NBG1-10 | 2026-09-05 06:46:40 | 49.99134 | 15.86325 | 102° | 13km/h | 26184m | 7.2m/s | -48.1°C | 3.1% | 0hPa | 2.7V | 00:00:00 | 01:43:54 | 00:00:00 | |
| SQ6EMJ | 2026-09-05 06:46:39 | 49.99135 | 15.86325 | 103° | 13km/h | 26184m | 7.2m/s | -48.2°C | 0.6% | 0hPa | 2.7V | 00:00:00 | 00:00:00 | 00:00:00 | |
| DO3MHA-11 | 2026-09-05 06:46:38 | 49.99135 | 15.86319 | 86° | 7km/h | 26171m | 6.3m/s | -48.3°C | 3.2% | 0hPa | 2.7V | 00:00:00 | 01:43:52 | 00:00:00 | |
| KRY50SP | 2026-09-05 06:46:36 | 49.99135 | 15.86317 | 76° | 5km/h | 26164m | 8.2m/s | -48.3°C | 0.6% | 0hPa | 2.7V | 00:00:00 | 00:00:00 | 00:00:00 | |
| SQ6EMJ | 2026-09-05 06:46:34 | 49.99136 | 15.86307 | 111° | 9km/h | 26144m | 7.9m/s | -48.4°C | 0.5% | 0hPa | 2.7V | 00:00:00 | 00:00:00 | 00:00:00 | |
| SP3WXH-11 | 2026-09-05 06:46:33 | 49.99137 | 15.86304 | 116° | 7km/h | 26136m | 7.4m/s | -48.5°C | 0.5% | -1.0hPa | 2.7V | 00:00:00 | 00:00:00 | 00:00:00 | |
| PG1ADW-2 | 2026-09-05 06:46:30 | 49.99136 | 15.86295 | 73° | 7km/h | 26116m | 7.9m/s | -48.5°C | 3.1% | 0hPa | 2.7V | 00:00:00 | 00:00:00 | 08:30:00 | |
| SONDE2-11 | 2026-09-05 06:46:28 | 49.99136 | 15.86285 | 117° | 4km/h | 26096m | 7.9m/s | -48.8°C | 0.5% | -1.0hPa | 2.7V | 00:00:00 | 00:00:00 | 00:00:00 | |
| SP3BTT-10 | 2026-09-05 06:46:25 | 49.99136 | 15.86284 | 289° | 11km/h | 26084m | 6.1m/s | -48.6°C | 3.1% | 0hPa | 2.7V | 00:00:00 | 00:00:00 | 00:00:00 | |
| SQ6EMJ | 2026-09-05 06:46:23 | 49.99136 | 15.86284 | 137° | 2km/h | 26072m | 4.8m/s | -48.7°C | 0.6% | 0hPa | 2.7V | 00:00:00 | 00:00:00 | 00:00:00 | |
| OE5DXL-15 | 2026-09-05 06:46:22 | 49.99137 | 15.86284 | 158° | 11km/h | 26066m | 6.4m/s | -48.7°C | 3.2% | 0hPa | 2.7V | 00:00:00 | 00:00:00 | 00:00:00 | |
| KRY50SP | 2026-09-05 06:46:20 | 49.99138 | 15.86284 | 180° | 5km/h | 26059m | 8.4m/s | -48.7°C | 0.6% | 0hPa | 2.7V | 00:00:00 | 00:00:00 | 00:00:00 | |
| DO3MHA-11 | 2026-09-05 06:46:18 | 49.99142 | 15.86284 | 158° | 11km/h | 26040m | 6.6m/s | -48.8°C | 3.2% | 0hPa | 2.7V | 00:00:00 | 01:43:32 | 00:00:00 | |
| SQ6EMJ | 2026-09-05 06:46:16 | 49.99143 | 15.86283 | 124° | 7km/h | 26033m | 6.9m/s | -48.9°C | 0.6% | 0hPa | 2.7V | 00:00:00 | 00:00:00 | 00:00:00 | |
| PETON7-10 | 2026-09-05 06:46:15 | 49.99145 | 15.86277 | 131° | 15km/h | 26020m | 6.8m/s | -49.0°C | 3.3% | 0hPa | 2.7V | 00:00:00 | 01:43:29 | 00:00:00 | |
| KRY50SP | 2026-09-05 06:46:14 | 49.99145 | 15.86277 | 131° | 9km/h | 26020m | 6.9m/s | -49.1°C | 0.6% | 0hPa | 2.7V | 00:00:00 | 00:00:00 | 00:00:00 | |
| OE3OSB-13 | 2026-09-05 06:46:13 | 49.99149 | 15.86275 | 177° | 9km/h | 26006m | 5.5m/s | -49.3°C | 0.5% | -1.0hPa | 2.7V | 00:00:00 | 00:00:00 | 00:00:00 | |
| SQ6EMJ | 2026-09-05 06:46:12 | 49.99152 | 15.86275 | 180° | 11km/h | 25999m | 6.4m/s | -49.5°C | 0.6% | 0hPa | 2.7V | 00:00:00 | 00:00:00 | 00:00:00 | |
| OE5DRO-10 | 2026-09-05 06:46:11 | 49.99155 | 15.86274 | 170° | 13km/h | 25992m | 7.9m/s | -49.4°C | 3.3% | 0hPa | 2.7V | 00:00:00 | 00:00:00 | 00:00:00 | |
| PG1ADW-2 | 2026-09-05 06:46:10 | 49.99159 | 15.86273 | 159° | 13km/h | 25986m | 5.3m/s | -49.3°C | 3.3% | 0hPa | 2.7V | 00:00:00 | 01:43:24 | 00:00:00 | |
| OE5MMP-10 | 2026-09-05 06:46:08 | 49.99167 | 15.86268 | 163° | 15km/h | 25972m | 8.1m/s | -49.4°C | 3.3% | 0hPa | 2.7V | 00:00:00 | 01:43:22 | 00:00:00 | |
| SQ6EMJ | 2026-09-05 06:46:06 | 49.99171 | 15.86266 | 169° | 18km/h | 25966m | 5.6m/s | -49.6°C | 0.6% | 0hPa | 2.7V | 00:00:00 | 00:00:00 | 00:00:00 | |
| OK1ALN | 2026-09-05 06:46:05 | 49.99176 | 15.86264 | 169° | 16km/h | 25960m | 5.6m/s | -49.6°C | 0.6% | 0hPa | 2.7V | 00:00:00 | 00:00:00 | 00:00:00 | |
| EDDB2-11 | 2026-09-05 06:46:03 | 49.99187 | 15.86255 | 132° | 16km/h | 25941m | 5.9m/s | -49.6°C | 0.5% | -1.0hPa | 2.7V | 00:00:00 | 00:00:00 | 00:00:00 | |
| SP3WXH-11 | 2026-09-05 06:46:02 | 49.99189 | 15.86251 | 127° | 15km/h | 25934m | 7.1m/s | -49.5°C | 0.5% | -1.0hPa | 2.7V | 00:00:00 | 00:00:00 | 00:00:00 | |
| EDDB2-12 | 2026-09-05 06:45:57 | 49.99194 | 15.86233 | 88° | 11km/h | 25900m | 4.6m/s | -50.0°C | 0.5% | -1.0hPa | 2.7V | 00:00:00 | 00:00:00 | 00:00:00 | |
| SONDE2-11 | 2026-09-05 06:45:56 | 49.99194 | 15.86228 | 89° | 11km/h | 25894m | 6.9m/s | -50.1°C | 0.5% | -1.0hPa | 2.7V | 00:00:00 | 00:00:00 | 00:00:00 | |
| SQ6EMJ | 2026-09-05 06:45:54 | 49.99194 | 15.86224 | 90° | 11km/h | 25887m | 8.2m/s | -50.1°C | 0.6% | 0hPa | 2.7V | 00:00:00 | 00:00:00 | 00:00:00 | |
| OE5DRO-10 | 2026-09-05 06:45:52 | 49.99194 | 15.86215 | 90° | 13km/h | 25868m | 6.8m/s | -50.3°C | 3.5% | 0hPa | 2.7V | 00:00:00 | 00:00:00 | 00:00:00 | |
| OE5DXL-15 | 2026-09-05 06:45:51 | 49.99194 | 15.86210 | 83° | 15km/h | 25860m | 9.0m/s | -50.3°C | 3.5% | 0hPa | 2.7V | 00:00:00 | 00:00:00 | 00:00:00 | |
| PG1ADW-2 | 2026-09-05 06:45:50 | 49.99193 | 15.86204 | 76° | 13km/h | 25853m | 4.8m/s | -50.4°C | 3.5% | 0hPa | 2.7V | 00:00:00 | 00:00:00 | 00:00:00 | |
| SQ6EMJ | 2026-09-05 06:45:49 | 49.99193 | 15.86204 | 77° | 18km/h | 25853m | 4.8m/s | -50.4°C | 0.6% | 0hPa | 2.7V | 00:00:00 | 00:00:00 | 00:00:00 | |
| DO3MHA-11 | 2026-09-05 06:45:48 | 49.99191 | 15.86190 | 79° | 13km/h | 25842m | 6.9m/s | -50.5°C | 3.5% | 0hPa | 2.7V | 00:00:00 | 01:43:02 | 00:00:00 | |
| KRY50SP | 2026-09-05 06:45:47 | 49.99191 | 15.86190 | 79° | 18km/h | 25842m | 6.9m/s | -50.6°C | 0.6% | 0hPa | 2.7V | 00:00:00 | 00:00:00 | 00:00:00 | |
| PETON7-10 | 2026-09-05 06:45:45 | 49.99190 | 15.86175 | 79° | 13km/h | 25822m | 6.9m/s | -50.6°C | 3.6% | 0hPa | 2.7V | 00:00:00 | 00:00:00 | 00:00:00 | |
| POL1PZ | 2026-09-05 06:45:44 | 49.99190 | 15.86175 | 80° | 11km/h | 25822m | 7.0m/s | -50.6°C | 0.7% | 0hPa | 2.7V | 00:00:00 | 00:00:00 | 00:00:00 | |
| SQ6EMJ | 2026-09-05 06:45:43 | 49.99189 | 15.86171 | 58° | 11km/h | 25815m | 6.0m/s | -50.6°C | 0.7% | 0hPa | 2.7V | 00:00:00 | 00:00:00 | 00:00:00 | |
| OE3OSB-13 | 2026-09-05 06:45:42 | 49.99184 | 15.86166 | 16° | 11km/h | 25804m | 6.6m/s | -50.7°C | 0.6% | -1.0hPa | 2.7V | 00:00:00 | 00:00:00 | 00:00:00 | |
| DB0UT-7 | 2026-09-05 06:45:41 | 49.99182 | 15.86165 | 356° | 15km/h | 25796m | 8.9m/s | -50.7°C | 3.5% | 0hPa | 2.7V | 00:00:00 | 00:00:00 | 08:30:00 | |
| SP3BTT-10 | 2026-09-05 06:45:40 | 49.99179 | 15.86167 | 327° | 13km/h | 25789m | 5.2m/s | -50.8°C | 3.6% | 0hPa | 2.7V | 00:00:00 | 00:00:00 | 00:00:00 | |
| DO3MHA-11 | 2026-09-05 06:45:38 | 49.99174 | 15.86172 | 329° | 13km/h | 25777m | 7.8m/s | -50.7°C | 3.5% | 0hPa | 2.7V | 00:00:00 | 01:42:52 | 00:00:00 | |
| KRY50SP | 2026-09-05 06:45:37 | 49.99174 | 15.86172 | 330° | 15km/h | 25777m | 7.9m/s | -50.8°C | 0.6% | 0hPa | 2.7V | 00:00:00 | 00:00:00 | 00:00:00 | |
| SQ6EMJ | 2026-09-05 06:45:33 | 49.99158 | 15.86172 | 33° | 9km/h | 25742m | 4.9m/s | -51.1°C | 0.7% | 0hPa | 2.7V | 00:00:00 | 00:00:00 | 00:00:00 | |
| EDDB2-11 | 2026-09-05 06:45:32 | 49.99156 | 15.86170 | 33° | 9km/h | 25737m | 6.2m/s | -51.1°C | 0.6% | -1.0hPa | 2.7V | 00:00:00 | 00:00:00 | 00:00:00 | |
| SP3WXH-11 | 2026-09-05 06:45:31 | 49.99153 | 15.86168 | 26° | 11km/h | 25730m | 7.8m/s | -51.2°C | 0.6% | -1.0hPa | 2.7V | 00:00:00 | 00:00:00 | 00:00:00 | |
| PG1ADW-2 | 2026-09-05 06:45:30 | 49.99151 | 15.86166 | 10° | 16km/h | 25724m | 4.7m/s | -51.1°C | 3.7% | 0hPa | 2.7V | 00:00:00 | 00:00:00 | 00:00:00 | |
| DO3MHA-11 | 2026-09-05 06:45:28 | 49.99145 | 15.86167 | 338° | 18km/h | 25711m | 8.1m/s | -51.1°C | 3.7% | 0hPa | 2.7V | 00:00:00 | 01:42:42 | 00:00:00 | |
| EDDB2-12 | 2026-09-05 06:45:26 | 49.99140 | 15.86175 | 295° | 15km/h | 25699m | 6.5m/s | -51.1°C | 0.6% | -1.0hPa | 2.6V | 00:00:00 | 00:00:00 | 00:00:00 | |
| SONDE2-11 | 2026-09-05 06:45:25 | 49.99139 | 15.86180 | 297° | 16km/h | 25691m | 8.6m/s | -51.1°C | 0.6% | -1.0hPa | 2.6V | 00:00:00 | 00:00:00 | 00:00:00 | |
| POL1PZ | 2026-09-05 06:45:24 | 49.99138 | 15.86180 | 298° | 18km/h | 25692m | 8.6m/s | -51.1°C | 0.7% | 0hPa | 2.6V | 00:00:00 | 00:00:00 | 00:00:00 | |
| OK1ALN | 2026-09-05 06:45:23 | 49.99136 | 15.86187 | 304° | 20km/h | 25685m | 5.5m/s | -51.1°C | 0.7% | 0hPa | 2.6V | 00:00:00 | 00:00:00 | 00:00:00 | |
| OE5DXL-15 | 2026-09-05 06:45:21 | 49.99128 | 15.86208 | 290° | 16km/h | 25665m | 7.2m/s | -51.1°C | 3.7% | 0hPa | 2.6V | 00:00:00 | 00:00:00 | 00:00:00 | |
| KRY50SP | 2026-09-05 06:45:20 | 49.99128 | 15.86208 | 290° | 20km/h | 25665m | 7.3m/s | -51.1°C | 0.7% | 0hPa | 2.6V | 00:00:00 | 00:00:00 | 00:00:00 | |
| DG1MFX-10 | 2026-09-05 06:45:19 | 49.99127 | 15.86216 | 285° | 20km/h | 25658m | 5.1m/s | 0°C | 0% | 0hPa | 2.6V | 00:00:00 | 00:00:00 | 00:00:00 | |
| DO3MHA-11 | 2026-09-05 06:45:18 | 49.99124 | 15.86229 | 296° | 15km/h | 25644m | 9.0m/s | -51.0°C | 3.7% | 0hPa | 2.6V | 00:00:00 | 01:42:32 | 00:00:00 | |
| SQ6EMJ | 2026-09-05 06:45:16 | 49.99120 | 15.86238 | 309° | 11km/h | 25631m | 6.3m/s | -51.0°C | 0.7% | 0hPa | 2.6V | 00:00:00 | 00:00:00 | 00:00:00 | |
| PETON7-10 | 2026-09-05 06:45:15 | 49.99119 | 15.86242 | 297° | 15km/h | 25624m | 7.8m/s | -50.9°C | 3.7% | 0hPa | 2.6V | 00:00:00 | 00:00:00 | 08:30:00 | |
| OE5DRO-10 | 2026-09-05 06:45:14 | 49.99118 | 15.86246 | 277° | 15km/h | 25617m | 5.2m/s | -50.8°C | 3.7% | 0hPa | 2.6V | 00:00:00 | 00:00:00 | 00:00:00 | |
| KRY50SP | 2026-09-05 06:45:13 | 49.99118 | 15.86246 | 277° | 13km/h | 25617m | 5.3m/s | -50.8°C | 0.7% | 0hPa | 2.6V | 00:00:00 | 00:00:00 | 00:00:00 | |
| DB0UT-7 | 2026-09-05 06:45:11 | 49.99116 | 15.86265 | 286° | 9km/h | 25598m | 4.8m/s | -50.7°C | 3.6% | 0hPa | 2.6V | 00:00:00 | 01:42:25 | 00:00:00 | |
| PG1ADW-2 | 2026-09-05 06:45:10 | 49.99114 | 15.86273 | 287° | 16km/h | 25593m | 6.6m/s | -50.8°C | 3.6% | 0hPa | 2.6V | 00:00:00 | 00:00:00 | 00:00:00 | |
| SQ6EMJ | 2026-09-05 06:45:09 | 49.99114 | 15.86273 | 287° | 24km/h | 25593m | 6.7m/s | -50.8°C | 0.7% | 0hPa | 2.6V | 00:00:00 | 00:00:00 | 00:00:00 | |
| DO3MHA-11 | 2026-09-05 06:45:08 | 49.99112 | 15.86291 | 275° | 13km/h | 25577m | 7.0m/s | -50.7°C | 3.6% | 0hPa | 2.6V | 00:00:00 | 01:42:22 | 00:00:00 | |
| KRY50SP | 2026-09-05 06:45:07 | 49.99112 | 15.86291 | 276° | 22km/h | 25577m | 7.1m/s | -50.8°C | 0.7% | 0hPa | 2.6V | 00:00:00 | 00:00:00 | 00:00:00 | |
| OK1SLM-15 | 2026-09-05 06:45:05 | 49.99112 | 15.86306 | 271° | 15km/h | 25564m | 7.2m/s | -50.8°C | 0.7% | 0hPa | 2.6V | 00:00:00 | 00:00:00 | 00:00:00 | |
| SQ6EMJ | 2026-09-05 06:45:04 | 49.99112 | 15.86310 | 278° | 9km/h | 25558m | 5.9m/s | -50.7°C | 0.6% | 0hPa | 2.6V | 00:00:00 | 00:00:00 | 00:00:00 | |
| POL2MAQ | 2026-09-05 06:45:02 | 49.99111 | 15.86316 | 275° | 5km/h | 25546m | 7.0m/s | -50.8°C | 0.6% | 0hPa | 2.6V | 00:00:00 | 00:00:00 | 00:00:00 | |
| EDDB2-11 | 2026-09-05 06:45:01 | 49.99113 | 15.86322 | 227° | 11km/h | 25530m | 6.5m/s | -50.7°C | 0.6% | -1.0hPa | 2.6V | 00:00:00 | 00:00:00 | 00:00:00 | |
| SP3WXH-11 | 2026-09-05 06:45:00 | 49.99115 | 15.86325 | 224° | 13km/h | 25524m | 5.6m/s | -50.7°C | 0.6% | -1.0hPa | 2.6V | 00:00:00 | 00:00:00 | 00:00:00 | |
| SONDE2-11 | 2026-09-05 06:44:55 | 49.99127 | 15.86361 | 237° | 20km/h | 25483m | 5.2m/s | -50.9°C | 0.6% | -1.0hPa | 2.6V | 00:00:00 | 00:00:00 | 00:00:00 | |
| OE3MUC-15 | 2026-09-05 06:44:52 | 49.99132 | 15.86374 | 236° | 15km/h | 25470m | 8.1m/s | -50.9°C | 3.6% | 0hPa | 2.6V | 00:00:00 | 00:00:00 | 00:00:00 | |
| OE5DXL-15 | 2026-09-05 06:44:51 | 49.99134 | 15.86379 | 235° | 13km/h | 25463m | 6.0m/s | -51.0°C | 3.6% | 0hPa | 2.6V | 00:00:00 | 00:00:00 | 00:00:00 | |
| PG1ADW-2 | 2026-09-05 06:44:50 | 49.99136 | 15.86383 | 227° | 13km/h | 25457m | 6.7m/s | -51.0°C | 3.6% | 0hPa | 2.6V | 00:00:00 | 01:42:04 | 00:00:00 | |
| S52SK | 2026-09-05 06:44:49 | 49.99136 | 15.86383 | 228° | 13km/h | 25457m | 6.8m/s | -51.1°C | 0.7% | 0hPa | 2.6V | 00:00:00 | 00:00:00 | 00:00:00 | |
| SQ6EMJ | 2026-09-05 06:44:48 | 49.99141 | 15.86389 | 213° | 15km/h | 25443m | 6.5m/s | -51.1°C | 0.7% | 0hPa | 2.6V | 00:00:00 | 00:00:00 | 00:00:00 | |
| NBG1-10 | 2026-09-05 06:44:45 | 49.99150 | 15.86396 | 204° | 15km/h | 25423m | 6.2m/s | -51.1°C | 3.7% | 0hPa | 2.6V | 00:00:00 | 01:41:59 | 00:00:00 | |
| POL2MAQ | 2026-09-05 06:44:43 | 49.99158 | 15.86400 | 195° | 18km/h | 25408m | 8.3m/s | -51.2°C | 0.7% | 0hPa | 2.7V | 00:00:00 | 00:00:00 | 00:00:00 | |
| OK1ALN | 2026-09-05 06:44:42 | 49.99158 | 15.86400 | 195° | 18km/h | 25408m | 8.3m/s | -51.2°C | 0.7% | 0hPa | 2.7V | 00:00:00 | 00:00:00 | 00:00:00 | |
| OK1SLM-15 | 2026-09-05 06:44:39 | 49.99171 | 15.86404 | 192° | 15km/h | 25386m | 7.4m/s | -51.2°C | 0.7% | 0hPa | 2.7V | 00:00:00 | 00:00:00 | 00:00:00 | |
| DO3MHA-11 | 2026-09-05 06:44:38 | 49.99178 | 15.86407 | 206° | 9km/h | 25372m | 7.7m/s | -51.2°C | 3.7% | 0hPa | 2.7V | 00:00:00 | 01:41:52 | 00:00:00 | |
| OE5DRO-10 | 2026-09-05 06:44:36 | 49.99183 | 15.86412 | 225° | 7km/h | 25358m | 5.9m/s | -51.2°C | 3.7% | 0hPa | 2.7V | 00:00:00 | 00:00:00 | 00:00:00 | |
| KRY50SP | 2026-09-05 06:44:35 | 49.99185 | 15.86416 | 238° | 11km/h | 25351m | 7.7m/s | -51.2°C | 0.7% | 0hPa | 2.7V | 00:00:00 | 00:00:00 | 00:00:00 | |
| OK1SLM-15 | 2026-09-05 06:44:34 | 49.99185 | 15.86416 | 238° | 11km/h | 25351m | 7.7m/s | -51.2°C | 0.7% | 0hPa | 2.7V | 00:00:00 | 00:00:00 | 00:00:00 | |
| SQ6EMJ | 2026-09-05 06:44:31 | 49.99186 | 15.86425 | 286° | 5km/h | 25330m | 7.0m/s | -51.1°C | 0.7% | 0hPa | 2.7V | 00:00:00 | 00:00:00 | 00:00:00 | |
| PG1ADW-2 | 2026-09-05 06:44:30 | 49.99186 | 15.86429 | 194° | 7km/h | 25315m | 4.9m/s | -51.0°C | 3.7% | 0hPa | 2.7V | 00:00:00 | 00:00:00 | 00:00:00 | |
| SP3WXH-11 | 2026-09-05 06:44:29 | 49.99189 | 15.86429 | 179° | 7km/h | 25309m | 6.3m/s | -51.1°C | 0.6% | -1.0hPa | 2.7V | 00:00:00 | 00:00:00 | 00:00:00 | |
| DO3MHA-11 | 2026-09-05 06:44:28 | 49.99191 | 15.86429 | 167° | 7km/h | 25302m | 8.8m/s | -51.0°C | 3.7% | 0hPa | 2.7V | 00:00:00 | 01:41:42 | 00:00:00 | |
| SQ6EMJ | 2026-09-05 06:44:26 | 49.99192 | 15.86427 | 145° | 7km/h | 25294m | 6.6m/s | -51.0°C | 0.7% | 0hPa | 2.7V | 00:00:00 | 00:00:00 | 00:00:00 | |
| OE3MUC-15 | 2026-09-05 06:44:24 | 49.99198 | 15.86422 | 163° | 7km/h | 25273m | 6.0m/s | -50.9°C | 3.6% | 0hPa | 2.7V | 00:00:00 | 00:00:00 | 00:00:00 | |
| SONDE2-11 | 2026-09-05 06:44:23 | 49.99200 | 15.86421 | 180° | 9km/h | 25267m | 6.3m/s | -51.0°C | 0.6% | -1.0hPa | 2.7V | 00:00:00 | 00:00:00 | 00:00:00 | |
| SQ6EMJ | 2026-09-05 06:44:21 | 49.99203 | 15.86423 | 239° | 5km/h | 25252m | 7.7m/s | -51.0°C | 0.7% | 0hPa | 2.7V | 00:00:00 | 00:00:00 | 00:00:00 | |
| OE3MUC-15 | 2026-09-05 06:44:20 | 49.99204 | 15.86425 | 262° | 7km/h | 25245m | 5.8m/s | -51.0°C | 3.7% | 0hPa | 2.7V | 00:00:00 | 00:00:00 | 00:00:00 | |
| DO3MHA-11 | 2026-09-05 06:44:18 | 49.99205 | 15.86429 | 227° | 9km/h | 25231m | 8.3m/s | -51.0°C | 3.7% | 0hPa | 2.7V | 00:00:00 | 01:41:32 | 00:00:00 | |
| OE5DRO-10 | 2026-09-05 06:44:17 | 49.99206 | 15.86430 | 193° | 5km/h | 25224m | 5.2m/s | -51.1°C | 3.7% | 0hPa | 2.7V | 00:00:00 | 00:00:00 | 00:00:00 | |
| OE3MUC-15 | 2026-09-05 06:44:16 | 49.99208 | 15.86431 | 180° | 7km/h | 25218m | 7.2m/s | -51.0°C | 3.7% | 0hPa | 2.7V | 00:00:00 | 01:41:30 | 00:00:00 | |
| PETON7-10 | 2026-09-05 06:44:15 | 49.99210 | 15.86430 | 164° | 5km/h | 25210m | 8.8m/s | -51.1°C | 3.7% | 0hPa | 2.7V | 00:00:00 | 00:00:00 | 00:00:00 | |
| SQ6EMJ | 2026-09-05 06:44:14 | 49.99211 | 15.86430 | 164° | 7km/h | 25210m | 8.8m/s | -51.1°C | 0.7% | 0hPa | 2.7V | 00:00:00 | 00:00:00 | 00:00:00 | |
| OE3MUC-15 | 2026-09-05 06:44:12 | 49.99214 | 15.86425 | 126° | 9km/h | 25190m | 8.0m/s | -51.0°C | 3.7% | 0hPa | 2.7V | 00:00:00 | 00:00:00 | 08:30:00 | |
| NBG1-10 | 2026-09-05 06:44:11 | 49.99215 | 15.86422 | 134° | 9km/h | 25181m | 9.6m/s | -51.1°C | 3.7% | 0hPa | 2.6V | 00:00:00 | 01:41:25 | 00:00:00 | |
| PG1ADW-2 | 2026-09-05 06:44:10 | 49.99217 | 15.86419 | 137° | 7km/h | 25174m | 4.1m/s | -51.0°C | 3.7% | 0hPa | 2.6V | 00:00:00 | 00:00:00 | 00:00:00 | |
| OE3OSB-13 | 2026-09-05 06:44:09 | 49.99220 | 15.86413 | 127° | 5km/h | 25162m | 8.1m/s | -51.1°C | 0.6% | -1.0hPa | 2.6V | 00:00:00 | 00:00:00 | 00:00:00 | |
| OE5MMP-10 | 2026-09-05 06:44:08 | 49.99220 | 15.86413 | 128° | 4km/h | 25162m | 8.1m/s | -51.1°C | 3.7% | 0hPa | 2.6V | 00:00:00 | 01:41:22 | 00:00:00 | |
| KRY50SP | 2026-09-05 06:44:07 | 49.99221 | 15.86413 | 129° | 7km/h | 25162m | 8.1m/s | -51.1°C | 0.7% | 0hPa | 2.6V | 00:00:00 | 00:00:00 | 00:00:00 | |
| SQ6EMJ | 2026-09-05 06:44:03 | 49.99222 | 15.86410 | 195° | 5km/h | 25135m | 8.0m/s | -51.1°C | 0.7% | 0hPa | 2.6V | 00:00:00 | 00:00:00 | 00:00:00 | |
| EDDB2-11 | 2026-09-05 06:43:59 | 49.99223 | 15.86411 | 67° | 5km/h | 25103m | 6.0m/s | -51.1°C | 0.6% | -1.0hPa | 2.6V | 00:00:00 | 00:00:00 | 00:00:00 | |
| SP3WXH-11 | 2026-09-05 06:43:58 | 49.99222 | 15.86403 | 90° | 11km/h | 25089m | 6.0m/s | -51.0°C | 0.6% | -1.0hPa | 2.6V | 00:00:00 | 00:00:00 | 00:00:00 | |
| EDDB2-12 | 2026-09-05 06:43:53 | 49.99219 | 15.86386 | 58° | 9km/h | 25063m | 5.8m/s | -51.0°C | 0.6% | -1.0hPa | 2.6V | 00:00:00 | 00:00:00 | 00:00:00 | |
| SONDE2-11 | 2026-09-05 06:43:52 | 49.99218 | 15.86383 | 69° | 7km/h | 25056m | 7.6m/s | -51.0°C | 0.6% | -1.0hPa | 2.6V | 00:00:00 | 00:00:00 | 00:00:00 | |
| KRY50SP | 2026-09-05 06:43:51 | 49.99218 | 15.86383 | 70° | 9km/h | 25056m | 7.6m/s | -51.0°C | 0.7% | 0hPa | 2.6V | 00:00:00 | 00:00:00 | 00:00:00 | |
| PG1ADW-2 | 2026-09-05 06:43:50 | 49.99216 | 15.86378 | 31° | 11km/h | 25044m | 5.4m/s | -50.9°C | 3.7% | 0hPa | 2.6V | 00:00:00 | 00:00:00 | 00:00:00 | |
| SQ6EMJ | 2026-09-05 06:43:48 | 49.99210 | 15.86376 | 361° | 16km/h | 25030m | 6.8m/s | -50.9°C | 0.7% | 0hPa | 2.6V | 00:00:00 | 00:00:00 | 00:00:00 | |
| S52SK | 2026-09-05 06:43:46 | 49.99206 | 15.86376 | 3° | 16km/h | 25024m | 5.0m/s | -50.9°C | 0.7% | 0hPa | 2.6V | 00:00:00 | 00:00:00 | 00:00:00 | |
| PETON7-10 | 2026-09-05 06:43:45 | 49.99200 | 15.86374 | 43° | 11km/h | 25012m | 6.6m/s | -50.8°C | 3.6% | 0hPa | 2.6V | 00:00:00 | 00:00:00 | 00:00:00 | |
| KRY50SP | 2026-09-05 06:43:41 | 49.99197 | 15.86356 | 91° | 13km/h | 24988m | 6.2m/s | -50.9°C | 0.7% | 0hPa | 2.7V | 00:00:00 | 00:00:00 | 00:00:00 | |
| OK1ALN | 2026-09-05 06:43:40 | 49.99197 | 15.86356 | 91° | 13km/h | 24988m | 6.2m/s | -50.9°C | 0.7% | 0hPa | 2.7V | 00:00:00 | 00:00:00 | 00:00:00 | |
| OE5DRO-10 | 2026-09-05 06:43:39 | 49.99199 | 15.86348 | 127° | 9km/h | 24976m | 6.3m/s | -50.8°C | 3.6% | 0hPa | 2.7V | 00:00:00 | 00:00:00 | 00:00:00 | |
| OE3OSB-13 | 2026-09-05 06:43:38 | 49.99204 | 15.86342 | 150° | 9km/h | 24963m | 5.5m/s | -50.9°C | 0.6% | -1.0hPa | 2.7V | 00:00:00 | 00:00:00 | 00:00:00 | |
| SQ6EMJ | 2026-09-05 06:43:37 | 49.99203 | 15.86342 | 152° | 9km/h | 24963m | 5.5m/s | -50.9°C | 0.7% | 0hPa | 2.7V | 00:00:00 | 00:00:00 | 00:00:00 | |
| S52SK | 2026-09-05 06:43:35 | 49.99205 | 15.86341 | 149° | 5km/h | 24957m | 5.7m/s | -50.8°C | 0.7% | 0hPa | 2.7V | 00:00:00 | 00:00:00 | 00:00:00 | |
| KRY50SP | 2026-09-05 06:43:34 | 49.99205 | 15.86340 | 21° | 2km/h | 24950m | 7.2m/s | -50.9°C | 0.7% | 0hPa | 2.7V | 00:00:00 | 00:00:00 | 00:00:00 | |
| SQ6EMJ | 2026-09-05 06:43:31 | 49.99198 | 15.86341 | 351° | 11km/h | 24932m | 6.4m/s | -50.9°C | 0.7% | 0hPa | 2.7V | 00:00:00 | 00:00:00 | 00:00:00 | |
| PETON7-10 | 2026-09-05 06:43:30 | 49.99194 | 15.86342 | 357° | 7km/h | 24919m | 5.9m/s | -50.9°C | 3.6% | 0hPa | 2.7V | 00:00:00 | 00:00:00 | 00:00:00 | |
| DB0UT-7 | 2026-09-05 06:43:28 | 49.99192 | 15.86340 | 57° | 16km/h | 24906m | 7.6m/s | -50.8°C | 3.6% | 0hPa | 2.7V | 00:00:00 | 01:40:42 | 00:00:00 | |
| SQ6EMJ | 2026-09-05 06:43:26 | 49.99191 | 15.86335 | 100° | 7km/h | 24893m | 5.3m/s | -50.8°C | 0.7% | 0hPa | 2.7V | 00:00:00 | 00:00:00 | 00:00:00 | |
| SP3BTT-10 | 2026-09-05 06:43:25 | 49.99192 | 15.86332 | 133° | 15km/h | 24887m | 7.3m/s | -50.6°C | 3.6% | 0hPa | 2.7V | 00:00:00 | 00:00:00 | 00:00:00 | |
| KRY50SP | 2026-09-05 06:43:24 | 49.99194 | 15.86331 | 180° | 9km/h | 24880m | 6.6m/s | -50.7°C | 0.7% | 0hPa | 2.7V | 00:00:00 | 00:00:00 | 00:00:00 | |
| OK1SLM-15 | 2026-09-05 06:43:23 | 49.99194 | 15.86331 | 180° | 9km/h | 24880m | 6.6m/s | -50.7°C | 0.7% | 0hPa | 2.7V | 00:00:00 | 00:00:00 | 00:00:00 | |
| EDDB2-12 | 2026-09-05 06:43:22 | 49.99198 | 15.86334 | 228° | 9km/h | 24869m | 5.5m/s | -50.6°C | 0.6% | -1.0hPa | 2.7V | 00:00:00 | 00:00:00 | 00:00:00 | |
| POL1PZ | 2026-09-05 06:43:21 | 49.99198 | 15.86334 | 230° | 9km/h | 24869m | 5.5m/s | -50.6°C | 0.7% | 0hPa | 2.7V | 00:00:00 | 00:00:00 | 00:00:00 | |
| SQ6EMJ | 2026-09-05 06:43:20 | 49.99199 | 15.86340 | 271° | 7km/h | 24856m | 5.8m/s | -50.5°C | 0.6% | 0hPa | 2.7V | 00:00:00 | 00:00:00 | 00:00:00 | |
| POL2MAQ | 2026-09-05 06:43:19 | 49.99199 | 15.86343 | 274° | 7km/h | 24851m | 5.4m/s | -50.6°C | 0.7% | 0hPa | 2.7V | 00:00:00 | 00:00:00 | 00:00:00 | |
| DO3MHA-11 | 2026-09-05 06:43:18 | 49.99199 | 15.86346 | 253° | 9km/h | 24845m | 7.1m/s | -50.5°C | 3.5% | 0hPa | 2.7V | 00:00:00 | 01:40:32 | 00:00:00 | |
| OK1SLM-15 | 2026-09-05 06:43:17 | 49.99200 | 15.86346 | 253° | 7km/h | 24845m | 7.2m/s | -50.6°C | 0.6% | 0hPa | 2.7V | 00:00:00 | 00:00:00 | 00:00:00 | |
| PETON7-10 | 2026-09-05 06:43:15 | 49.99203 | 15.86353 | 216° | 13km/h | 24825m | 6.6m/s | -50.5°C | 3.5% | 0hPa | 2.7V | 00:00:00 | 01:40:29 | 00:00:00 | |
| SQ6EMJ | 2026-09-05 06:43:14 | 49.99203 | 15.86353 | 216° | 5km/h | 24825m | 6.7m/s | -50.6°C | 0.6% | 0hPa | 2.7V | 00:00:00 | 00:00:00 | 00:00:00 | |
| PG1ADW-2 | 2026-09-05 06:43:10 | 49.99210 | 15.86364 | 230° | 16km/h | 24795m | 6.5m/s | -50.6°C | 3.5% | 0hPa | 2.7V | 00:00:00 | 00:00:00 | 00:00:00 | |
| DO3MHA-11 | 2026-09-05 06:43:08 | 49.99217 | 15.86378 | 241° | 15km/h | 24783m | 7.0m/s | -50.7°C | 3.6% | 0hPa | 2.7V | 00:00:00 | 01:40:22 | 00:00:00 | |
| OE3OSB-13 | 2026-09-05 06:43:07 | 49.99220 | 15.86391 | 249° | 15km/h | 24769m | 4.6m/s | -50.9°C | 0.6% | -1.0hPa | 2.7V | 00:00:00 | 00:00:00 | 00:00:00 | |
| OE3MUC-15 | 2026-09-05 06:43:05 | 49.99222 | 15.86397 | 245° | 13km/h | 24764m | 5.0m/s | -50.9°C | 3.6% | 0hPa | 2.7V | 00:00:00 | 00:00:00 | 00:00:00 | |
| SQ6EMJ | 2026-09-05 06:43:03 | 49.99227 | 15.86405 | 213° | 15km/h | 24751m | 6.2m/s | -51.0°C | 0.7% | 0hPa | 2.7V | 00:00:00 | 00:00:00 | 00:00:00 | |
| KRY50SP | 2026-09-05 06:43:02 | 49.99227 | 15.86405 | 213° | 15km/h | 24751m | 6.2m/s | -51.0°C | 0.7% | 0hPa | 2.7V | 00:00:00 | 00:00:00 | 00:00:00 | |
| EDDB2-11 | 2026-09-05 06:42:57 | 49.99244 | 15.86408 | 191° | 16km/h | 24714m | 7.0m/s | -51.2°C | 0.6% | -1.0hPa | 2.7V | 00:00:00 | 00:00:00 | 00:00:00 | |
| SP3WXH-11 | 2026-09-05 06:42:56 | 49.99255 | 15.86414 | 206° | 24km/h | 24703m | 4.7m/s | -51.1°C | 0.6% | -1.0hPa | 2.7V | 00:00:00 | 00:00:00 | 00:00:00 | |
| EDDB2-12 | 2026-09-05 06:42:51 | 49.99269 | 15.86435 | 243° | 11km/h | 24678m | 5.2m/s | -51.2°C | 0.6% | -1.0hPa | 2.7V | 00:00:00 | 00:00:00 | 00:00:00 | |
| PG1ADW-2 | 2026-09-05 06:42:50 | 49.99271 | 15.86439 | 235° | 11km/h | 24673m | 5.5m/s | -51.1°C | 3.6% | 0hPa | 2.7V | 00:00:00 | 00:00:00 | 00:00:00 | |
| DO3MHA-11 | 2026-09-05 06:42:48 | 49.99275 | 15.86445 | 205° | 18km/h | 24661m | 5.5m/s | -51.1°C | 3.6% | 0hPa | 2.7V | 00:00:00 | 01:40:02 | 00:00:00 | |
| OK1SLM-15 | 2026-09-05 06:42:46 | 49.99279 | 15.86447 | 201° | 15km/h | 24656m | 5.5m/s | -51.3°C | 0.7% | 0hPa | 2.7V | 00:00:00 | 00:00:00 | 00:00:00 | |
| PETON7-10 | 2026-09-05 06:42:45 | 49.99286 | 15.86450 | 197° | 11km/h | 24642m | 5.3m/s | -51.2°C | 3.7% | 0hPa | 2.7V | 00:00:00 | 00:00:00 | 00:00:00 | |
| NBG1-10 | 2026-09-05 06:42:42 | 49.99299 | 15.86457 | 200° | 13km/h | 24624m | 5.9m/s | -51.4°C | 3.6% | 0hPa | 2.7V | 00:00:00 | 01:39:56 | 08:30:00 | |
| SQ6EMJ | 2026-09-05 06:42:41 | 49.99305 | 15.86460 | 207° | 24km/h | 24619m | 5.0m/s | -51.6°C | 0.7% | 0hPa | 2.7V | 00:00:00 | 00:00:00 | 00:00:00 | |
| SP3BTT-10 | 2026-09-05 06:42:40 | 49.99310 | 15.86464 | 216° | 24km/h | 24613m | 6.7m/s | -51.6°C | 3.7% | 0hPa | 2.7V | 00:00:00 | 00:00:00 | 08:30:00 | |
| DO3MHA-11 | 2026-09-05 06:42:38 | 49.99314 | 15.86472 | 253° | 9km/h | 24600m | 5.2m/s | -51.6°C | 3.7% | 0hPa | 2.7V | 00:00:00 | 01:39:52 | 00:00:00 | |
| POL2MAQ | 2026-09-05 06:42:36 | 49.99314 | 15.86475 | 262° | 4km/h | 24594m | 6.0m/s | -51.7°C | 0.7% | 0hPa | 2.7V | 00:00:00 | 00:00:00 | 00:00:00 | |
| SQ6EMJ | 2026-09-05 06:42:35 | 49.99314 | 15.86476 | 0° | 0km/h | 24582m | 5.3m/s | -51.7°C | 0.7% | 0hPa | 2.7V | 00:00:00 | 00:00:00 | 00:00:00 | |
| OE3MUC-15 | 2026-09-05 06:42:34 | 49.99315 | 15.86476 | 231° | 5km/h | 24576m | 5.8m/s | -51.7°C | 3.8% | 0hPa | 2.7V | 00:00:00 | 00:00:00 | 00:00:00 | |
| S52SK | 2026-09-05 06:42:32 | 49.99315 | 15.86477 | 0° | 0km/h | 24570m | 6.9m/s | -51.8°C | 0.7% | 0hPa | 2.7V | 00:00:00 | 00:00:00 | 00:00:00 | |
| KRY50SP | 2026-09-05 06:42:30 | 49.99321 | 15.86482 | 200° | 20km/h | 24552m | 8.4m/s | -51.8°C | 0.7% | 0hPa | 2.7V | 00:00:00 | 00:00:00 | 00:00:00 | |
| DO3MHA-11 | 2026-09-05 06:42:28 | 49.99334 | 15.86488 | 199° | 20km/h | 24539m | 5.2m/s | -51.8°C | 3.9% | 0hPa | 2.7V | 00:00:00 | 01:39:42 | 00:00:00 | |
| S52SK | 2026-09-05 06:42:27 | 49.99334 | 15.86488 | 200° | 33km/h | 24539m | 5.2m/s | -51.8°C | 0.7% | 0hPa | 2.6V | 00:00:00 | 00:00:00 | 00:00:00 | |
| OE3MUC-15 | 2026-09-05 06:42:26 | 49.99349 | 15.86498 | 209° | 24km/h | 24526m | 5.9m/s | -51.6°C | 3.8% | 0hPa | 2.6V | 00:00:00 | 00:00:00 | 00:00:00 | |
| KRY50SP | 2026-09-05 06:42:24 | 49.99355 | 15.86503 | 208° | 24km/h | 24520m | 5.3m/s | -51.6°C | 0.7% | 0hPa | 2.6V | 00:00:00 | 00:00:00 | 00:00:00 | |
| SQ6EMJ | 2026-09-05 06:42:23 | 49.99364 | 15.86509 | 195° | 18km/h | 24508m | 6.8m/s | -51.7°C | 0.7% | 0hPa | 2.6V | 00:00:00 | 00:00:00 | 00:00:00 | |
| OE3MUC-15 | 2026-09-05 06:42:22 | 49.99369 | 15.86510 | 190° | 13km/h | 24501m | 5.9m/s | -51.7°C | 3.7% | 0hPa | 2.6V | 00:00:00 | 00:00:00 | 00:00:00 | |
| EDDB2-12 | 2026-09-05 06:42:20 | 49.99377 | 15.86514 | 198° | 11km/h | 24483m | 4.5m/s | -51.7°C | 0.6% | -1.0hPa | 2.6V | 00:00:00 | 00:00:00 | 00:00:00 | |
| SONDE2-11 | 2026-09-05 06:42:19 | 49.99377 | 15.86514 | 198° | 11km/h | 24483m | 4.5m/s | -51.7°C | 0.6% | -1.0hPa | 2.6V | 00:00:00 | 00:00:00 | 00:00:00 | |
| SQ6EMJ | 2026-09-05 06:42:18 | 49.99381 | 15.86515 | 192° | 16km/h | 24478m | 5.1m/s | -51.7°C | 0.7% | 0hPa | 2.6V | 00:00:00 | 00:00:00 | 00:00:00 | |
| OK1ALN | 2026-09-05 06:42:17 | 49.99381 | 15.86515 | 192° | 16km/h | 24478m | 5.1m/s | -51.7°C | 0.7% | 0hPa | 2.6V | 00:00:00 | 00:00:00 | 00:00:00 | |
| POL2MAQ | 2026-09-05 06:42:16 | 49.99392 | 15.86518 | 188° | 31km/h | 24465m | 5.9m/s | -51.7°C | 0.7% | 0hPa | 2.6V | 00:00:00 | 00:00:00 | 00:00:00 | |
| PETON7-10 | 2026-09-05 06:42:15 | 49.99400 | 15.86519 | 190° | 27km/h | 24460m | 5.5m/s | -51.7°C | 3.7% | 0hPa | 2.6V | 00:00:00 | 00:00:00 | 00:00:00 | |
| OE3MUC-15 | 2026-09-05 06:42:14 | 49.99409 | 15.86522 | 194° | 33km/h | 24453m | 6.7m/s | -51.5°C | 3.6% | 0hPa | 2.7V | 00:00:00 | 00:00:00 | 00:00:00 | |
| KRY50SP | 2026-09-05 06:42:13 | 49.99409 | 15.86522 | 194° | 37km/h | 24453m | 6.8m/s | -51.6°C | 0.7% | 0hPa | 2.7V | 00:00:00 | 00:00:00 | 00:00:00 | |
| SQ6EMJ | 2026-09-05 06:42:11 | 49.99426 | 15.86529 | 193° | 31km/h | 24442m | 4.5m/s | -51.6°C | 0.7% | 0hPa | 2.7V | 00:00:00 | 00:00:00 | 00:00:00 | |
| PG1ADW-2 | 2026-09-05 06:42:10 | 49.99441 | 15.86531 | 176° | 29km/h | 24431m | 6.9m/s | -51.4°C | 3.6% | 0hPa | 2.7V | 00:00:00 | 01:39:24 | 00:00:00 | |
| OE3MUC-15 | 2026-09-05 06:42:09 | 49.99449 | 15.86529 | 170° | 26km/h | 24424m | 5.5m/s | -51.4°C | 3.6% | 0hPa | 2.7V | 00:00:00 | 00:00:00 | 00:00:00 | |
| OE5MMP-10 | 2026-09-05 06:42:08 | 49.99455 | 15.86527 | 167° | 26km/h | 24419m | 5.5m/s | -51.5°C | 3.6% | 0hPa | 2.7V | 00:00:00 | 01:39:22 | 00:00:00 | |
| KRY50SP | 2026-09-05 06:42:07 | 49.99455 | 15.86527 | 167° | 26km/h | 24419m | 5.5m/s | -51.6°C | 0.7% | 0hPa | 2.7V | 00:00:00 | 00:00:00 | 00:00:00 | |
| SQ6EMJ | 2026-09-05 06:42:06 | 49.99461 | 15.86525 | 169° | 22km/h | 24413m | 7.0m/s | -51.7°C | 0.7% | 0hPa | 2.7V | 00:00:00 | 00:00:00 | 00:00:00 | |
| OE3MUC-15 | 2026-09-05 06:42:04 | 49.99476 | 15.86522 | 174° | 26km/h | 24394m | 6.7m/s | -51.6°C | 3.6% | 0hPa | 2.7V | 00:00:00 | 00:00:00 | 00:00:00 | |
| EDDB2-11 | 2026-09-05 06:41:55 | 49.99541 | 15.86506 | 155° | 35km/h | 24340m | 4.9m/s | -52.3°C | 0.6% | -1.0hPa | 2.7V | 00:00:00 | 00:00:00 | 00:00:00 | |
| SP3WXH-11 | 2026-09-05 06:41:54 | 49.99558 | 15.86495 | 159° | 35km/h | 24328m | 6.1m/s | -52.2°C | 0.6% | -1.0hPa | 2.7V | 00:00:00 | 00:00:00 | 00:00:00 | |
| EDDB2-12 | 2026-09-05 06:41:49 | 49.99597 | 15.86458 | 139° | 33km/h | 24298m | 5.4m/s | -52.7°C | 0.7% | -1.0hPa | 2.7V | 00:00:00 | 00:00:00 | 00:00:00 | |
| DO3MHA-11 | 2026-09-05 06:41:48 | 49.99597 | 15.86458 | 140° | 29km/h | 24299m | 5.3m/s | -52.6°C | 3.9% | 0hPa | 2.7V | 00:00:00 | 01:39:02 | 00:00:00 | |
| DB0UT-7 | 2026-09-05 06:41:46 | 49.99610 | 15.86443 | 149° | 20km/h | 24286m | 5.8m/s | -52.8°C | 3.9% | 0hPa | 2.7V | 00:00:00 | 01:39:00 | 00:00:00 | |
| PETON7-10 | 2026-09-05 06:41:45 | 49.99616 | 15.86438 | 152° | 26km/h | 24280m | 5.6m/s | -52.9°C | 3.9% | 0hPa | 2.7V | 00:00:00 | 01:38:59 | 00:00:00 | |
| KRY50SP | 2026-09-05 06:41:44 | 49.99616 | 15.86438 | 152° | 27km/h | 24280m | 5.7m/s | -52.9°C | 0.7% | 0hPa | 2.7V | 00:00:00 | 00:00:00 | 00:00:00 | |
| DO3MHA-11 | 2026-09-05 06:41:38 | 49.99654 | 15.86391 | 124° | 24km/h | 24235m | 7.9m/s | -52.9°C | 4.0% | 0hPa | 2.7V | 00:00:00 | 01:38:52 | 00:00:00 | |
| OE5MMP-10 | 2026-09-05 06:41:37 | 49.99658 | 15.86381 | 120° | 24km/h | 24228m | 6.4m/s | -52.9°C | 3.9% | 0hPa | 2.7V | 00:00:00 | 01:38:51 | 00:00:00 | |
| NBG1-10 | 2026-09-05 06:41:36 | 49.99662 | 15.86371 | 120° | 18km/h | 24223m | 3.8m/s | -52.9°C | 4.0% | 0hPa | 2.7V | 00:00:00 | 01:38:50 | 00:00:00 | |
| SQ6EMJ | 2026-09-05 06:41:34 | 49.99669 | 15.86354 | 126° | 20km/h | 24210m | 8.8m/s | -53.0°C | 0.8% | 0hPa | 2.7V | 00:00:00 | 00:00:00 | 00:00:00 | |
| OE3OSB-13 | 2026-09-05 06:41:33 | 49.99672 | 15.86348 | 135° | 16km/h | 24203m | 3.9m/s | -53.1°C | 0.7% | -1.0hPa | 2.7V | 00:00:00 | 00:00:00 | 00:00:00 | |
| PETON7-10 | 2026-09-05 06:41:30 | 49.99683 | 15.86331 | 127° | 20km/h | 24186m | 5.1m/s | -53.0°C | 4.0% | 0hPa | 2.7V | 00:00:00 | 00:00:00 | 00:00:00 | |
| DO3MHA-11 | 2026-09-05 06:41:28 | 49.99688 | 15.86314 | 110° | 20km/h | 24173m | 8.1m/s | -53.1°C | 4.0% | 0hPa | 2.7V | 00:00:00 | 01:38:42 | 00:00:00 | |
| OE5MMP-10 | 2026-09-05 06:41:27 | 49.99690 | 15.86305 | 105° | 20km/h | 24167m | 5.0m/s | -53.1°C | 4.0% | 0hPa | 2.7V | 00:00:00 | 01:38:41 | 00:00:00 | |
| OE5DRO-10 | 2026-09-05 06:41:26 | 49.99692 | 15.86296 | 107° | 20km/h | 24162m | 5.0m/s | -53.0°C | 4.0% | 0hPa | 2.7V | 00:00:00 | 00:00:00 | 00:00:00 | |
| S52SK | 2026-09-05 06:41:25 | 49.99692 | 15.86296 | 108° | 24km/h | 24162m | 5.1m/s | -53.0°C | 0.8% | 0hPa | 2.7V | 00:00:00 | 00:00:00 | 00:00:00 | |
| EDDB2-11 | 2026-09-05 06:41:24 | 49.99700 | 15.86271 | 116° | 22km/h | 24143m | 4.7m/s | -53.1°C | 0.7% | -1.0hPa | 2.7V | 00:00:00 | 00:00:00 | 00:00:00 | |
| 13BRC | 2026-09-05 06:41:23 | 49.99699 | 15.86271 | 118° | 22km/h | 24144m | 4.7m/s | -53.1°C | 0.8% | 0hPa | 2.7V | 00:00:00 | 00:00:00 | 00:00:00 | |
| SQ6EMJ | 2026-09-05 06:41:22 | 49.99702 | 15.86263 | 112° | 20km/h | 24137m | 7.9m/s | -53.2°C | 0.8% | 0hPa | 2.7V | 00:00:00 | 00:00:00 | 00:00:00 | |
| OK1SLM-15 | 2026-09-05 06:41:21 | 49.99702 | 15.86263 | 112° | 20km/h | 24137m | 7.9m/s | -53.2°C | 0.8% | 0hPa | 2.7V | 00:00:00 | 00:00:00 | 00:00:00 | |
| S52SK | 2026-09-05 06:41:19 | 49.99704 | 15.86250 | 105° | 13km/h | 24124m | 4.2m/s | -53.1°C | 0.8% | 0hPa | 2.7V | 00:00:00 | 00:00:00 | 00:00:00 | |
| DO3MHA-11 | 2026-09-05 06:41:18 | 49.99706 | 15.86241 | 126° | 22km/h | 24112m | 7.2m/s | -53.0°C | 4.0% | 0hPa | 2.7V | 00:00:00 | 01:38:32 | 00:00:00 | |
| OE5MMP-10 | 2026-09-05 06:41:17 | 49.99709 | 15.86236 | 129° | 22km/h | 24105m | 5.2m/s | -53.1°C | 4.0% | 0hPa | 2.7V | 00:00:00 | 01:38:31 | 00:00:00 | |
| SQ6EMJ | 2026-09-05 06:41:16 | 49.99708 | 15.86236 | 130° | 15km/h | 24105m | 5.2m/s | -53.1°C | 0.8% | 0hPa | 2.6V | 00:00:00 | 00:00:00 | 00:00:00 | |
| PETON7-10 | 2026-09-05 06:41:15 | 49.99713 | 15.86225 | 116° | 18km/h | 24093m | 6.8m/s | -53.2°C | 4.0% | 0hPa | 2.6V | 00:00:00 | 00:00:00 | 00:00:00 | |
| OE3MUC-15 | 2026-09-05 06:41:14 | 49.99715 | 15.86219 | 119° | 22km/h | 24087m | 5.1m/s | -53.2°C | 4.0% | 0hPa | 2.6V | 00:00:00 | 00:00:00 | 00:00:00 | |
| POL2MAQ | 2026-09-05 06:41:13 | 49.99715 | 15.86219 | 119° | 22km/h | 24087m | 5.2m/s | -53.3°C | 0.8% | 0hPa | 2.6V | 00:00:00 | 00:00:00 | 00:00:00 | |
| SQ6EMJ | 2026-09-05 06:41:11 | 49.99727 | 15.86194 | 131° | 27km/h | 24067m | 5.6m/s | -53.3°C | 0.8% | 0hPa | 2.6V | 00:00:00 | 00:00:00 | 00:00:00 | |
| PG1ADW-2 | 2026-09-05 06:41:10 | 49.99731 | 15.86186 | 128° | 18km/h | 24061m | 7.0m/s | -53.2°C | 4.1% | 0hPa | 2.6V | 00:00:00 | 00:00:00 | 00:00:00 | |
| OE5DXL-15 | 2026-09-05 06:41:08 | 49.99738 | 15.86170 | 125° | 16km/h | 24048m | 5.0m/s | -53.1°C | 4.1% | 0hPa | 2.6V | 00:00:00 | 00:00:00 | 00:00:00 | |
| OE5MMP-10 | 2026-09-05 06:41:07 | 49.99741 | 15.86164 | 131° | 13km/h | 24042m | 7.4m/s | -53.1°C | 4.1% | 0hPa | 2.7V | 00:00:00 | 01:38:21 | 00:00:00 | |
| KRY50SP | 2026-09-05 06:41:06 | 49.99741 | 15.86164 | 131° | 20km/h | 24042m | 7.4m/s | -53.2°C | 0.8% | 0hPa | 2.7V | 00:00:00 | 00:00:00 | 00:00:00 | |
| SQ6EMJ | 2026-09-05 06:41:05 | 49.99744 | 15.86158 | 138° | 16km/h | 24035m | 6.1m/s | -53.2°C | 0.8% | 0hPa | 2.7V | 00:00:00 | 00:00:00 | 00:00:00 | |
| OE3OSB-13 | 2026-09-05 06:41:02 | 49.99751 | 15.86145 | 115° | 7km/h | 24010m | 4.7m/s | -53.4°C | 0.7% | -1.0hPa | 2.7V | 00:00:00 | 00:00:00 | 00:00:00 | |
| EDDB2-11 | 2026-09-05 06:40:53 | 49.99774 | 15.86091 | 122° | 22km/h | 23954m | 3.4m/s | -53.2°C | 0.7% | -1.0hPa | 2.7V | 00:00:00 | 00:00:00 | 00:00:00 | |
| SP3WXH-11 | 2026-09-05 06:40:52 | 49.99778 | 15.86077 | 101° | 16km/h | 23942m | 9.2m/s | -53.2°C | 0.7% | -1.0hPa | 2.7V | 00:00:00 | 00:00:00 | 00:00:00 | |
| EDDB2-12 | 2026-09-05 06:40:47 | 49.99780 | 15.86045 | 113° | 20km/h | 23912m | 4.5m/s | -53.2°C | 0.7% | -1.0hPa | 2.7V | 00:00:00 | 00:00:00 | 00:00:00 | |
| SONDE2-11 | 2026-09-05 06:40:46 | 49.99780 | 15.86045 | 113° | 20km/h | 23912m | 4.5m/s | -53.2°C | 0.7% | -1.0hPa | 2.7V | 00:00:00 | 00:00:00 | 00:00:00 | |
| OK1SLM-15 | 2026-09-05 06:40:45 | 49.99780 | 15.86045 | 115° | 20km/h | 23912m | 4.5m/s | -53.2°C | 0.8% | 0hPa | 2.7V | 00:00:00 | 00:00:00 | 00:00:00 | |
| SQ6EMJ | 2026-09-05 06:40:44 | 49.99783 | 15.86031 | 109° | 18km/h | 23899m | 8.4m/s | -53.0°C | 0.8% | 0hPa | 2.7V | 00:00:00 | 00:00:00 | 00:00:00 | |
| KRY50SP | 2026-09-05 06:40:42 | 49.99784 | 15.86025 | 110° | 15km/h | 23892m | 4.7m/s | -53.0°C | 0.8% | 0hPa | 2.7V | 00:00:00 | 00:00:00 | 00:00:00 | |
| DB0UT-7 | 2026-09-05 06:40:41 | 49.99788 | 15.86016 | 139° | 15km/h | 23879m | 8.3m/s | -53.0°C | 3.9% | 0hPa | 2.7V | 00:00:00 | 00:00:00 | 00:00:00 | |
| SQ6EMJ | 2026-09-05 06:40:38 | 49.99794 | 15.86008 | 119° | 9km/h | 23861m | 8.6m/s | -53.2°C | 0.8% | 0hPa | 2.7V | 00:00:00 | 00:00:00 | 00:00:00 | |
| OE5MMP-10 | 2026-09-05 06:40:37 | 49.99795 | 15.86004 | 102° | 16km/h | 23854m | 4.4m/s | -53.0°C | 4.0% | 0hPa | 2.7V | 00:00:00 | 01:37:51 | 00:00:00 | |
| OK1ALN | 2026-09-05 06:40:34 | 49.99797 | 15.85993 | 114° | 16km/h | 23842m | 8.5m/s | -53.2°C | 0.8% | 0hPa | 2.7V | 00:00:00 | 00:00:00 | 00:00:00 | |
| SQ6EMJ | 2026-09-05 06:40:32 | 49.99803 | 15.85971 | 107° | 22km/h | 23824m | 7.8m/s | -53.1°C | 0.8% | 0hPa | 2.7V | 00:00:00 | 00:00:00 | 00:00:00 | |
| OE3OSB-13 | 2026-09-05 06:40:31 | 49.99804 | 15.85963 | 98° | 20km/h | 23817m | 5.9m/s | -53.1°C | 0.7% | -1.0hPa | 2.7V | 00:00:00 | 00:00:00 | 00:00:00 | |
| PG1ADW-2 | 2026-09-05 06:40:30 | 49.99805 | 15.85956 | 101° | 15km/h | 23811m | 5.5m/s | -53.1°C | 4.0% | 0hPa | 2.7V | 00:00:00 | 00:00:00 | 08:30:00 | |
| OE5DRO-10 | 2026-09-05 06:40:29 | 49.99806 | 15.85949 | 110° | 15km/h | 23805m | 7.6m/s | -53.1°C | 4.0% | 0hPa | 2.7V | 00:00:00 | 00:00:00 | 00:00:00 | |
| DO3MHA-11 | 2026-09-05 06:40:28 | 49.99807 | 15.85945 | 121° | 15km/h | 23798m | 5.5m/s | -53.1°C | 4.0% | 0hPa | 2.7V | 00:00:00 | 01:37:42 | 08:30:00 | |
| OE5MMP-10 | 2026-09-05 06:40:27 | 49.99808 | 15.85941 | 112° | 15km/h | 23793m | 4.7m/s | -53.2°C | 4.1% | 0hPa | 2.6V | 00:00:00 | 01:37:41 | 00:00:00 | |
| KRY50SP | 2026-09-05 06:40:26 | 49.99808 | 15.85941 | 113° | 7km/h | 23793m | 4.8m/s | -53.3°C | 0.8% | 0hPa | 2.6V | 00:00:00 | 00:00:00 | 00:00:00 | |
| SP3BTT-10 | 2026-09-05 06:40:25 | 49.99808 | 15.85935 | 73° | 16km/h | 23780m | 5.8m/s | -53.3°C | 4.0% | 0hPa | 2.6V | 00:00:00 | 00:00:00 | 00:00:00 | |
| EDDB2-11 | 2026-09-05 06:40:22 | 49.99808 | 15.85915 | 91° | 16km/h | 23756m | 5.1m/s | -53.4°C | 0.7% | -1.0hPa | 2.7V | 00:00:00 | 00:00:00 | 00:00:00 | |
| SQ6EMJ | 2026-09-05 06:40:20 | 49.99808 | 15.85915 | 93° | 18km/h | 23757m | 5.1m/s | -53.4°C | 0.8% | 0hPa | 2.7V | 00:00:00 | 00:00:00 | 00:00:00 | |
| OK1SLM-15 | 2026-09-05 06:40:19 | 49.99808 | 15.85908 | 88° | 22km/h | 23751m | 7.1m/s | -53.5°C | 0.8% | 0hPa | 2.7V | 00:00:00 | 00:00:00 | 00:00:00 | |
| S52SK | 2026-09-05 06:40:18 | 49.99806 | 15.85889 | 86° | 24km/h | 23738m | 5.4m/s | -53.6°C | 0.8% | 0hPa | 2.7V | 00:00:00 | 00:00:00 | 00:00:00 | |
| OE5MMP-10 | 2026-09-05 06:40:17 | 49.99806 | 15.85880 | 90° | 15km/h | 23732m | 7.2m/s | -53.6°C | 4.1% | 0hPa | 2.7V | 00:00:00 | 01:37:31 | 08:30:00 | |
| EDDB2-12 | 2026-09-05 06:40:16 | 49.99806 | 15.85865 | 91° | 15km/h | 23720m | 4.7m/s | -53.6°C | 0.7% | -1.0hPa | 2.7V | 00:00:00 | 00:00:00 | 00:00:00 | |
| PETON7-10 | 2026-09-05 06:40:15 | 49.99806 | 15.85865 | 92° | 16km/h | 23720m | 4.6m/s | -53.6°C | 4.1% | 0hPa | 2.7V | 00:00:00 | 01:37:29 | 00:00:00 | |
| OK1SLM-15 | 2026-09-05 06:40:14 | 49.99806 | 15.85865 | 93° | 16km/h | 23720m | 4.7m/s | -53.6°C | 0.8% | 0hPa | 2.7V | 00:00:00 | 00:00:00 | 00:00:00 | |
| S52SK | 2026-09-05 06:40:12 | 49.99805 | 15.85854 | 71° | 13km/h | 23708m | 6.1m/s | -53.6°C | 0.8% | 0hPa | 2.7V | 00:00:00 | 00:00:00 | 00:00:00 | |
| DB0UT-7 | 2026-09-05 06:40:11 | 49.99803 | 15.85846 | 79° | 13km/h | 23697m | 6.4m/s | -53.6°C | 4.1% | 0hPa | 2.7V | 00:00:00 | 01:37:25 | 00:00:00 | |
| OE5DRO-10 | 2026-09-05 06:40:10 | 49.99803 | 15.85842 | 101° | 15km/h | 23690m | 6.6m/s | -53.6°C | 4.1% | 0hPa | 2.7V | 00:00:00 | 00:00:00 | 00:00:00 | |
| SQ6EMJ | 2026-09-05 06:40:09 | 49.99804 | 15.85837 | 108° | 13km/h | 23684m | 5.1m/s | -53.7°C | 0.8% | 0hPa | 2.7V | 00:00:00 | 00:00:00 | 00:00:00 | |
| DO3MHA-11 | 2026-09-05 06:40:08 | 49.99805 | 15.85831 | 102° | 20km/h | 23679m | 5.3m/s | -53.6°C | 4.1% | 0hPa | 2.7V | 00:00:00 | 01:37:22 | 00:00:00 | |
| OE5MMP-10 | 2026-09-05 06:40:07 | 49.99805 | 15.85825 | 92° | 18km/h | 23673m | 7.3m/s | -53.7°C | 4.1% | 0hPa | 2.7V | 00:00:00 | 01:37:21 | 00:00:00 | |
| SQ6EMJ | 2026-09-05 06:40:03 | 49.99804 | 15.85789 | 94° | 22km/h | 23649m | 6.2m/s | -53.7°C | 0.8% | 0hPa | 2.7V | 00:00:00 | 00:00:00 | 00:00:00 | |
| OE3OSB-13 | 2026-09-05 06:40:00 | 49.99804 | 15.85767 | 74° | 15km/h | 23631m | 6.6m/s | -53.7°C | 0.7% | -1.0hPa | 2.7V | 00:00:00 | 00:00:00 | 00:00:00 | |
| EDDB2-11 | 2026-09-05 06:39:51 | 49.99792 | 15.85736 | 66° | 16km/h | 23577m | 6.8m/s | -53.7°C | 0.7% | -1.0hPa | 2.7V | 00:00:00 | 00:00:00 | 00:00:00 | |
| SP3WXH-11 | 2026-09-05 06:39:50 | 49.99790 | 15.85720 | 80° | 22km/h | 23566m | 4.1m/s | -53.7°C | 0.7% | -1.0hPa | 2.7V | 00:00:00 | 00:00:00 | 00:00:00 | |
| DO3MHA-11 | 2026-09-05 06:39:48 | 49.99788 | 15.85711 | 80° | 15km/h | 23561m | 5.5m/s | -53.6°C | 4.1% | 0hPa | 2.7V | 00:00:00 | 01:37:02 | 00:00:00 | |
| SQ6EMJ | 2026-09-05 06:39:47 | 49.99787 | 15.85701 | 77° | 29km/h | 23555m | 6.5m/s | -53.7°C | 0.8% | 0hPa | 2.7V | 00:00:00 | 00:00:00 | 00:00:00 | |
| EDDB2-12 | 2026-09-05 06:39:45 | 49.99783 | 15.85671 | 84° | 20km/h | 23539m | 6.3m/s | -53.8°C | 0.8% | -1.0hPa | 2.7V | 00:00:00 | 00:00:00 | 00:00:00 | |
| SONDE2-11 | 2026-09-05 06:39:44 | 49.99783 | 15.85671 | 84° | 20km/h | 23539m | 6.3m/s | -53.8°C | 0.8% | -1.0hPa | 2.7V | 00:00:00 | 00:00:00 | 00:00:00 | |
| KRY50SP | 2026-09-05 06:39:43 | 49.99782 | 15.85671 | 85° | 20km/h | 23540m | 6.3m/s | -53.8°C | 0.9% | 0hPa | 2.7V | 00:00:00 | 00:00:00 | 00:00:00 | |
| SQ6EMJ | 2026-09-05 06:39:40 | 49.99784 | 15.85659 | 143° | 2km/h | 23523m | 5.5m/s | -53.6°C | 0.8% | 0hPa | 2.7V | 00:00:00 | 00:00:00 | 00:00:00 | |
| SP3BTT-10 | 2026-09-05 06:39:39 | 49.99782 | 15.85660 | 352° | 11km/h | 23510m | 5.5m/s | -53.6°C | 4.1% | 0hPa | 2.7V | 00:00:00 | 00:00:00 | 00:00:00 | |
| DO3MHA-11 | 2026-09-05 06:39:38 | 49.99781 | 15.85660 | 8° | 11km/h | 23506m | 4.2m/s | -53.6°C | 4.1% | 0hPa | 2.7V | 00:00:00 | 01:36:52 | 00:00:00 | |
| NBG1-10 | 2026-09-05 06:39:37 | 49.99779 | 15.85659 | 28° | 13km/h | 23500m | 5.8m/s | -53.6°C | 4.2% | 0hPa | 2.7V | 00:00:00 | 01:36:51 | 00:00:00 | |
| SQ6EMJ | 2026-09-05 06:39:36 | 49.99778 | 15.85657 | 72° | 5km/h | 23494m | 6.8m/s | -53.6°C | 0.8% | 0hPa | 2.7V | 00:00:00 | 00:00:00 | 00:00:00 | |
| OK1ALN | 2026-09-05 06:39:34 | 49.99777 | 15.85650 | 87° | 13km/h | 23483m | 6.0m/s | -53.6°C | 0.8% | 0hPa | 2.7V | 00:00:00 | 00:00:00 | 00:00:00 | |
| OK1SLM-15 | 2026-09-05 06:39:33 | 49.99777 | 15.85650 | 87° | 13km/h | 23483m | 6.0m/s | -53.6°C | 0.8% | 0hPa | 2.7V | 00:00:00 | 00:00:00 | 00:00:00 | |
| OE5DRO-10 | 2026-09-05 06:39:32 | 49.99776 | 15.85640 | 78° | 11km/h | 23469m | 5.1m/s | -53.5°C | 4.2% | 0hPa | 2.7V | 00:00:00 | 00:00:00 | 00:00:00 | |
| SQ6EMJ | 2026-09-05 06:39:31 | 49.99776 | 15.85634 | 84° | 13km/h | 23464m | 5.2m/s | -53.6°C | 0.8% | 0hPa | 2.7V | 00:00:00 | 00:00:00 | 00:00:00 | |
| PG1ADW-2 | 2026-09-05 06:39:30 | 49.99776 | 15.85630 | 96° | 9km/h | 23458m | 7.2m/s | -53.6°C | 4.2% | 0hPa | 2.7V | 00:00:00 | 01:36:44 | 00:00:00 | |
| OE3OSB-13 | 2026-09-05 06:39:29 | 49.99776 | 15.85625 | 102° | 11km/h | 23451m | 5.3m/s | -53.6°C | 0.7% | -1.0hPa | 2.7V | 00:00:00 | 00:00:00 | 00:00:00 | |
| OE5MMP-10 | 2026-09-05 06:39:27 | 49.99776 | 15.85618 | 76° | 9km/h | 23439m | 7.3m/s | -53.5°C | 4.2% | 0hPa | 2.7V | 00:00:00 | 01:36:41 | 00:00:00 | |
| KRY50SP | 2026-09-05 06:39:26 | 49.99776 | 15.85618 | 76° | 7km/h | 23439m | 7.3m/s | -53.6°C | 0.8% | 0hPa | 2.7V | 00:00:00 | 00:00:00 | 00:00:00 | |
| SQ6EMJ | 2026-09-05 06:39:25 | 49.99775 | 15.85612 | 87° | 7km/h | 23428m | 5.8m/s | -53.5°C | 0.8% | 0hPa | 2.7V | 00:00:00 | 00:00:00 | 00:00:00 | |
| KRY50SP | 2026-09-05 06:39:21 | 49.99776 | 15.85604 | 100° | 9km/h | 23409m | 6.2m/s | -53.6°C | 0.8% | 0hPa | 2.7V | 00:00:00 | 00:00:00 | 00:00:00 | |
| EDDB2-11 | 2026-09-05 06:39:20 | 49.99777 | 15.85592 | 98° | 11km/h | 23391m | 6.4m/s | -53.5°C | 0.7% | -1.0hPa | 2.7V | 00:00:00 | 00:00:00 | 00:00:00 | |
| SQ6EMJ | 2026-09-05 06:39:19 | 49.99777 | 15.85592 | 100° | 13km/h | 23391m | 6.4m/s | -53.5°C | 0.8% | 0hPa | 2.7V | 00:00:00 | 00:00:00 | 00:00:00 | |
| DO3MHA-11 | 2026-09-05 06:39:18 | 49.99777 | 15.85587 | 110° | 9km/h | 23384m | 6.4m/s | -53.4°C | 4.2% | 0hPa | 2.7V | 00:00:00 | 01:36:32 | 00:00:00 | |
| OE5MMP-10 | 2026-09-05 06:39:17 | 49.99779 | 15.85582 | 111° | 9km/h | 23379m | 4.7m/s | -53.4°C | 4.2% | 0hPa | 2.7V | 00:00:00 | 01:36:31 | 00:00:00 | |
| PETON7-10 | 2026-09-05 06:39:15 | 49.99780 | 15.85573 | 97° | 9km/h | 23366m | 6.5m/s | -53.4°C | 4.1% | 0hPa | 2.6V | 00:00:00 | 00:00:00 | 00:00:00 | |
| EDDB2-12 | 2026-09-05 06:39:14 | 49.99782 | 15.85566 | 119° | 7km/h | 23353m | 7.4m/s | -53.4°C | 0.7% | -1.0hPa | 2.6V | 00:00:00 | 00:00:00 | 00:00:00 | |
| OE5DRO-10 | 2026-09-05 06:39:13 | 49.99782 | 15.85566 | 120° | 11km/h | 23353m | 7.3m/s | -53.4°C | 4.2% | 0hPa | 2.6V | 00:00:00 | 00:00:00 | 00:00:00 | |
| OK1ALN | 2026-09-05 06:39:12 | 49.99781 | 15.85566 | 121° | 7km/h | 23353m | 7.4m/s | -53.4°C | 0.8% | 0hPa | 2.7V | 00:00:00 | 00:00:00 | 00:00:00 | |
| PG1ADW-2 | 2026-09-05 06:39:10 | 49.99785 | 15.85560 | 125° | 13km/h | 23335m | 7.3m/s | -53.3°C | 4.2% | 0hPa | 2.7V | 00:00:00 | 00:00:00 | 00:00:00 | |
| POL2MAQ | 2026-09-05 06:39:09 | 49.99785 | 15.85560 | 125° | 5km/h | 23335m | 7.4m/s | -53.4°C | 0.8% | 0hPa | 2.7V | 00:00:00 | 00:00:00 | 00:00:00 | |
| DO3MHA-11 | 2026-09-05 06:39:08 | 49.99786 | 15.85556 | 96° | 13km/h | 23323m | 4.7m/s | -53.4°C | 4.2% | 0hPa | 2.7V | 00:00:00 | 01:36:22 | 00:00:00 | |
| OE5MMP-10 | 2026-09-05 06:39:07 | 49.99786 | 15.85553 | 108° | 13km/h | 23318m | 6.1m/s | -53.4°C | 4.2% | 0hPa | 2.7V | 00:00:00 | 01:36:21 | 00:00:00 | |
| S52SK | 2026-09-05 06:39:05 | 49.99787 | 15.85549 | 124° | 11km/h | 23311m | 6.7m/s | -53.4°C | 0.8% | 0hPa | 2.7V | 00:00:00 | 00:00:00 | 00:00:00 | |
| SQ6EMJ | 2026-09-05 06:39:03 | 49.99792 | 15.85538 | 130° | 11km/h | 23292m | 5.6m/s | -53.3°C | 0.8% | 0hPa | 2.7V | 00:00:00 | 00:00:00 | 00:00:00 | |
| OE3OSB-13 | 2026-09-05 06:38:58 | 49.99807 | 15.85521 | 144° | 13km/h | 23261m | 7.9m/s | -53.0°C | 0.7% | -1.0hPa | 2.7V | 00:00:00 | 00:00:00 | 00:00:00 | |
| EDDB2-11 | 2026-09-05 06:38:49 | 49.99828 | 15.85478 | 125° | 16km/h | 23202m | 5.4m/s | -52.6°C | 0.7% | -1.0hPa | 2.7V | 00:00:00 | 00:00:00 | 00:00:00 | |
| DO3MHA-11 | 2026-09-05 06:38:48 | 49.99828 | 15.85478 | 126° | 15km/h | 23202m | 5.4m/s | -52.5°C | 3.9% | 0hPa | 2.7V | 00:00:00 | 01:36:02 | 00:00:00 | |
| OE5MMP-10 | 2026-09-05 06:38:47 | 49.99830 | 15.85472 | 126° | 15km/h | 23196m | 5.7m/s | -52.6°C | 3.9% | 0hPa | 2.7V | 00:00:00 | 01:36:01 | 08:30:00 | |
| PETON7-10 | 2026-09-05 06:38:45 | 49.99835 | 15.85463 | 126° | 16km/h | 23184m | 5.1m/s | -52.6°C | 3.9% | 0hPa | 2.6V | 00:00:00 | 01:35:59 | 00:00:00 | |
| NBG1-10 | 2026-09-05 06:38:44 | 49.99837 | 15.85459 | 135° | 20km/h | 23179m | 5.5m/s | -52.6°C | 4.0% | 0hPa | 2.6V | 00:00:00 | 01:35:58 | 00:00:00 | |
| EDDB2-12 | 2026-09-05 06:38:43 | 49.99843 | 15.85452 | 147° | 16km/h | 23166m | 4.9m/s | -52.8°C | 0.7% | -1.0hPa | 2.7V | 00:00:00 | 00:00:00 | 00:00:00 | |
| SONDE2-11 | 2026-09-05 06:38:42 | 49.99843 | 15.85452 | 147° | 16km/h | 23166m | 4.9m/s | -52.8°C | 0.7% | -1.0hPa | 2.7V | 00:00:00 | 00:00:00 | 00:00:00 | |
| SQ6EMJ | 2026-09-05 06:38:39 | 49.99851 | 15.85442 | 128° | 13km/h | 23148m | 4.9m/s | -52.7°C | 0.8% | 0hPa | 2.7V | 00:00:00 | 00:00:00 | 00:00:00 | |
| DO3MHA-11 | 2026-09-05 06:38:38 | 49.99853 | 15.85437 | 125° | 20km/h | 23143m | 5.4m/s | -52.7°C | 4.0% | 0hPa | 2.7V | 00:00:00 | 01:35:52 | 00:00:00 | |
| OE5MMP-10 | 2026-09-05 06:38:37 | 49.99856 | 15.85432 | 127° | 20km/h | 23137m | 7.3m/s | -52.7°C | 4.0% | 0hPa | 2.7V | 00:00:00 | 01:35:51 | 00:00:00 | |
| OE5DRO-10 | 2026-09-05 06:38:35 | 49.99861 | 15.85420 | 120° | 24km/h | 23126m | 5.3m/s | 0°C | 0% | 0hPa | 2.7V | 00:00:00 | 00:00:00 | 00:00:00 | |
| SQ6EMJ | 2026-09-05 06:38:33 | 49.99863 | 15.85413 | 114° | 20km/h | 23119m | 7.3m/s | -52.6°C | 0.8% | 0hPa | 2.7V | 00:00:00 | 00:00:00 | 00:00:00 | |
| OK1SLM-15 | 2026-09-05 06:38:32 | 49.99867 | 15.85397 | 116° | 24km/h | 23107m | 6.3m/s | -52.6°C | 0.8% | 0hPa | 2.7V | 00:00:00 | 00:00:00 | 00:00:00 | |
| OK1ALN | 2026-09-05 06:38:31 | 49.99867 | 15.85397 | 116° | 24km/h | 23107m | 6.3m/s | -52.6°C | 0.8% | 0hPa | 2.7V | 00:00:00 | 00:00:00 | 00:00:00 | |
| PG1ADW-2 | 2026-09-05 06:38:30 | 49.99873 | 15.85381 | 124° | 26km/h | 23096m | 4.0m/s | -52.4°C | 3.9% | 0hPa | 2.7V | 00:00:00 | 00:00:00 | 00:00:00 | |
| SQ6EMJ | 2026-09-05 06:38:28 | 49.99879 | 15.85367 | 120° | 18km/h | 23084m | 6.9m/s | -52.6°C | 0.8% | 0hPa | 2.6V | 00:00:00 | 00:00:00 | 00:00:00 | |
| OE5MMP-10 | 2026-09-05 06:38:27 | 49.99881 | 15.85360 | 114° | 26km/h | 23078m | 5.1m/s | -52.5°C | 3.9% | 0hPa | 2.6V | 00:00:00 | 01:35:41 | 00:00:00 | |
| KRY50SP | 2026-09-05 06:38:23 | 49.99886 | 15.85338 | 104° | 26km/h | 23061m | 4.8m/s | -52.8°C | 0.8% | 0hPa | 2.6V | 00:00:00 | 00:00:00 | 00:00:00 | |
| SQ6EMJ | 2026-09-05 06:38:22 | 49.99887 | 15.85329 | 97° | 27km/h | 23055m | 6.1m/s | -52.8°C | 0.8% | 0hPa | 2.6V | 00:00:00 | 00:00:00 | 00:00:00 | |
| DB0UT-7 | 2026-09-05 06:38:20 | 49.99888 | 15.85294 | 99° | 27km/h | 23038m | 5.0m/s | -52.9°C | 4.0% | 0hPa | 2.6V | 00:00:00 | 01:35:34 | 08:30:00 | |
| EDDB2-11 | 2026-09-05 06:38:18 | 49.99897 | 15.85259 | 118° | 29km/h | 23021m | 4.9m/s | -52.9°C | 0.7% | -1.0hPa | 2.7V | 00:00:00 | 00:00:00 | 00:00:00 | |
| OE5MMP-10 | 2026-09-05 06:38:17 | 49.99897 | 15.85259 | 119° | 26km/h | 23021m | 4.9m/s | -52.9°C | 4.1% | 0hPa | 2.7V | 00:00:00 | 01:35:31 | 00:00:00 | |
| OE5DRO-10 | 2026-09-05 06:38:16 | 49.99900 | 15.85249 | 118° | 26km/h | 23015m | 6.6m/s | -52.8°C | 4.0% | 0hPa | 2.7V | 00:00:00 | 00:00:00 | 08:30:00 | |
| PETON7-10 | 2026-09-05 06:38:15 | 49.99903 | 15.85240 | 113° | 26km/h | 23009m | 5.3m/s | -52.9°C | 4.1% | 0hPa | 2.6V | 00:00:00 | 00:00:00 | 00:00:00 | |
| NBG1-10 | 2026-09-05 06:38:11 | 49.99911 | 15.85204 | 107° | 24km/h | 22987m | 5.2m/s | -52.8°C | 4.0% | 0hPa | 2.6V | 00:00:00 | 01:35:25 | 00:00:00 | |
| PG1ADW-2 | 2026-09-05 06:38:10 | 49.99912 | 15.85195 | 97° | 24km/h | 22982m | 5.8m/s | -52.8°C | 4.0% | 0hPa | 2.6V | 00:00:00 | 01:35:24 | 00:00:00 | |
| SP3BTT-10 | 2026-09-05 06:38:09 | 49.99912 | 15.85185 | 84° | 22km/h | 22975m | 6.9m/s | -52.8°C | 4.0% | 0hPa | 2.6V | 00:00:00 | 00:00:00 | 00:00:00 | |
| DO3MHA-11 | 2026-09-05 06:38:08 | 49.99911 | 15.85175 | 78° | 27km/h | 22969m | 5.4m/s | -52.8°C | 4.0% | 0hPa | 2.7V | 00:00:00 | 01:35:22 | 00:00:00 | |
| OE5MMP-10 | 2026-09-05 06:38:07 | 49.99910 | 15.85164 | 79° | 27km/h | 22963m | 6.3m/s | -52.8°C | 4.0% | 0hPa | 2.7V | 00:00:00 | 01:35:21 | 00:00:00 | |
| KRY50SP | 2026-09-05 06:38:06 | 49.99910 | 15.85164 | 79° | 27km/h | 22963m | 6.4m/s | -52.8°C | 0.8% | 0hPa | 2.7V | 00:00:00 | 00:00:00 | 00:00:00 | |
| OE5DXL-15 | 2026-09-05 06:38:03 | 49.99906 | 15.85120 | 79° | 22km/h | 22940m | 7.2m/s | -52.6°C | 4.0% | 0hPa | 2.7V | 00:00:00 | 00:00:00 | 00:00:00 | |
| S52SK | 2026-09-05 06:38:02 | 49.99906 | 15.85120 | 79° | 27km/h | 22940m | 7.2m/s | -52.7°C | 0.8% | 0hPa | 2.7V | 00:00:00 | 00:00:00 | 00:00:00 | |
| OE3OSB-13 | 2026-09-05 06:37:56 | 49.99902 | 15.85055 | 73° | 16km/h | 22899m | 5.7m/s | -52.4°C | 0.7% | -1.0hPa | 2.7V | 00:00:00 | 00:00:00 | 00:00:00 | |
| EDDB2-11 | 2026-09-05 06:37:47 | 49.99883 | 15.84978 | 75° | 26km/h | 22841m | 5.6m/s | -52.4°C | 0.7% | -1.0hPa | 2.7V | 00:00:00 | 00:00:00 | 00:00:00 | |
| POL2MAQ | 2026-09-05 06:37:46 | 49.99885 | 15.84988 | 70° | 27km/h | 22848m | 6.6m/s | -52.4°C | 0.8% | 0hPa | 2.7V | 00:00:00 | 00:00:00 | 00:00:00 | |
| SQ6EMJ | 2026-09-05 06:37:45 | 49.99881 | 15.84968 | 78° | 26km/h | 22836m | 5.0m/s | -52.4°C | 0.8% | 0hPa | 2.7V | 00:00:00 | 00:00:00 | 00:00:00 | |
| OK1SLM-15 | 2026-09-05 06:37:44 | 49.99881 | 15.84968 | 78° | 26km/h | 22836m | 5.0m/s | -52.4°C | 0.8% | 0hPa | 2.7V | 00:00:00 | 00:00:00 | 00:00:00 | |
| EDDB2-12 | 2026-09-05 06:37:41 | 49.99869 | 15.84928 | 59° | 20km/h | 22808m | 6.7m/s | -52.4°C | 0.7% | -1.0hPa | 2.7V | 00:00:00 | 00:00:00 | 00:00:00 | |
| KRY50SP | 2026-09-05 06:37:39 | 49.99869 | 15.84928 | 60° | 22km/h | 22808m | 6.7m/s | -52.4°C | 0.8% | 0hPa | 2.7V | 00:00:00 | 00:00:00 | 00:00:00 | |
| DO3MHA-11 | 2026-09-05 06:37:38 | 49.99863 | 15.84915 | 51° | 20km/h | 22797m | 5.6m/s | -52.4°C | 3.9% | 0hPa | 2.7V | 00:00:00 | 01:34:52 | 00:00:00 | |
| OE5MMP-10 | 2026-09-05 06:37:37 | 49.99860 | 15.84909 | 42° | 20km/h | 22791m | 7.1m/s | -52.4°C | 4.0% | 0hPa | 2.7V | 00:00:00 | 01:34:51 | 00:00:00 | |
| SQ6EMJ | 2026-09-05 06:37:33 | 49.99848 | 15.84892 | 49° | 22km/h | 22773m | 6.3m/s | -52.4°C | 0.8% | 0hPa | 2.7V | 00:00:00 | 00:00:00 | 00:00:00 | |
| KRY50SP | 2026-09-05 06:37:32 | 49.99844 | 15.84886 | 50° | 22km/h | 22768m | 3.9m/s | -52.5°C | 0.8% | 0hPa | 2.7V | 00:00:00 | 00:00:00 | 00:00:00 | |
| PG1ADW-2 | 2026-09-05 06:37:30 | 49.99832 | 15.84871 | 27° | 16km/h | 22751m | 5.5m/s | -52.4°C | 3.9% | 0hPa | 2.7V | 00:00:00 | 00:00:00 | 08:30:00 | |
| DO3MHA-11 | 2026-09-05 06:37:28 | 49.99825 | 15.84864 | 36° | 22km/h | 22740m | 6.6m/s | -52.5°C | 3.9% | 0hPa | 2.7V | 00:00:00 | 01:34:42 | 08:30:00 | |
| OE5MMP-10 | 2026-09-05 06:37:27 | 49.99822 | 15.84860 | 45° | 22km/h | 22734m | 5.5m/s | -52.5°C | 3.9% | 0hPa | 2.6V | 00:00:00 | 01:34:41 | 00:00:00 | |
| POL2MAQ | 2026-09-05 06:37:26 | 49.99822 | 15.84860 | 46° | 16km/h | 22734m | 5.5m/s | -52.6°C | 0.8% | 0hPa | 2.6V | 00:00:00 | 00:00:00 | 00:00:00 | |
| OE3OSB-13 | 2026-09-05 06:37:25 | 49.99815 | 15.84851 | 36° | 18km/h | 22722m | 6.8m/s | -52.6°C | 0.7% | -1.0hPa | 2.6V | 00:00:00 | 00:00:00 | 00:00:00 | |
| SP3BTT-10 | 2026-09-05 06:37:24 | 49.99811 | 15.84847 | 34° | 20km/h | 22716m | 5.1m/s | -52.5°C | 3.9% | 0hPa | 2.6V | 00:00:00 | 00:00:00 | 00:00:00 | |
| SQ6EMJ | 2026-09-05 06:37:23 | 49.99811 | 15.84847 | 35° | 20km/h | 22716m | 5.1m/s | -52.6°C | 0.8% | 0hPa | 2.6V | 00:00:00 | 00:00:00 | 00:00:00 | |
| DB0UT-7 | 2026-09-05 06:37:21 | 49.99798 | 15.84829 | 49° | 18km/h | 22700m | 5.5m/s | -52.6°C | 4.0% | 0hPa | 2.6V | 00:00:00 | 00:00:00 | 00:00:00 | |
| OE5DRO-10 | 2026-09-05 06:37:19 | 49.99789 | 15.84815 | 39° | 13km/h | 22689m | 6.7m/s | -52.6°C | 4.0% | 0hPa | 2.6V | 00:00:00 | 00:00:00 | 00:00:00 | |
| DO3MHA-11 | 2026-09-05 06:37:18 | 49.99784 | 15.84810 | 27° | 11km/h | 22683m | 5.3m/s | -52.6°C | 4.0% | 0hPa | 2.7V | 00:00:00 | 01:34:32 | 00:00:00 | |
| OE5MMP-10 | 2026-09-05 06:37:17 | 49.99780 | 15.84807 | 17° | 9km/h | 22679m | 4.2m/s | -52.6°C | 3.9% | 0hPa | 2.7V | 00:00:00 | 01:34:31 | 08:30:00 | |
| OE5DXL-15 | 2026-09-05 06:37:16 | 49.99777 | 15.84806 | 13° | 13km/h | 22673m | 6.3m/s | -52.6°C | 3.9% | 0hPa | 2.7V | 00:00:00 | 00:00:00 | 08:30:00 | |
| PETON7-10 | 2026-09-05 06:37:15 | 49.99774 | 15.84805 | 9° | 13km/h | 22667m | 6.2m/s | -52.6°C | 4.0% | 0hPa | 2.7V | 00:00:00 | 01:34:29 | 00:00:00 | |
| OK1SLM-15 | 2026-09-05 06:37:13 | 49.99773 | 15.84805 | 353° | 5km/h | 22662m | 4.7m/s | -52.6°C | 0.8% | 0hPa | 2.7V | 00:00:00 | 00:00:00 | 00:00:00 | |
| SQ6EMJ | 2026-09-05 06:37:11 | 49.99769 | 15.84807 | 333° | 11km/h | 22650m | 6.3m/s | -52.6°C | 0.8% | 0hPa | 2.7V | 00:00:00 | 00:00:00 | 00:00:00 | |
| PG1ADW-2 | 2026-09-05 06:37:10 | 49.99765 | 15.84810 | 347° | 13km/h | 22639m | 6.1m/s | -52.7°C | 4.0% | 0hPa | 2.7V | 00:00:00 | 00:00:00 | 00:00:00 | |
| SONDE2-11 | 2026-09-05 06:37:09 | 49.99761 | 15.84809 | 32° | 9km/h | 22627m | 5.2m/s | -52.7°C | 0.7% | -1.0hPa | 2.7V | 00:00:00 | 00:00:00 | 00:00:00 | |
| DO3MHA-11 | 2026-09-05 06:37:08 | 49.99761 | 15.84809 | 33° | 15km/h | 22627m | 5.1m/s | -52.7°C | 4.0% | 0hPa | 2.7V | 00:00:00 | 01:34:22 | 00:00:00 | |
| OE5MMP-10 | 2026-09-05 06:37:07 | 49.99759 | 15.84806 | 35° | 15km/h | 22622m | 6.3m/s | -52.6°C | 4.0% | 0hPa | 2.7V | 00:00:00 | 01:34:21 | 00:00:00 | |
| SQ6EMJ | 2026-09-05 06:37:06 | 49.99755 | 15.84803 | 34° | 16km/h | 22616m | 5.9m/s | -52.7°C | 0.8% | 0hPa | 2.7V | 00:00:00 | 00:00:00 | 00:00:00 | |
| POL2MAQ | 2026-09-05 06:37:05 | 49.99755 | 15.84803 | 34° | 16km/h | 22616m | 5.9m/s | -52.7°C | 0.8% | 0hPa | 2.7V | 00:00:00 | 00:00:00 | 00:00:00 | |
| OE3OSB-13 | 2026-09-05 06:36:54 | 49.99734 | 15.84757 | 59° | 7km/h | 22547m | 6.2m/s | -52.4°C | 0.7% | -1.0hPa | 2.7V | 00:00:00 | 00:00:00 | 00:00:00 | |
| KRY50SP | 2026-09-05 06:36:51 | 49.99731 | 15.84749 | 69° | 16km/h | 22536m | 5.1m/s | -52.4°C | 0.8% | 0hPa | 2.7V | 00:00:00 | 00:00:00 | 00:00:00 | |
| PG1ADW-2 | 2026-09-05 06:36:50 | 49.99728 | 15.84734 | 78° | 20km/h | 22524m | 5.0m/s | -52.4°C | 4.0% | 0hPa | 2.7V | 00:00:00 | 01:34:04 | 00:00:00 | |
| S52SK | 2026-09-05 06:36:49 | 49.99728 | 15.84734 | 79° | 24km/h | 22524m | 5.0m/s | -52.4°C | 0.8% | 0hPa | 2.7V | 00:00:00 | 00:00:00 | 00:00:00 | |
| DO3MHA-11 | 2026-09-05 06:36:48 | 49.99725 | 15.84717 | 68° | 16km/h | 22513m | 6.3m/s | -52.4°C | 3.9% | 0hPa | 2.7V | 00:00:00 | 01:34:02 | 00:00:00 | |
| OE5MMP-10 | 2026-09-05 06:36:47 | 49.99723 | 15.84709 | 66° | 16km/h | 22507m | 4.9m/s | -52.3°C | 3.9% | 0hPa | 2.7V | 00:00:00 | 01:34:01 | 00:00:00 | |
| KRY50SP | 2026-09-05 06:36:46 | 49.99723 | 15.84709 | 67° | 20km/h | 22507m | 4.9m/s | -52.4°C | 0.8% | 0hPa | 2.7V | 00:00:00 | 00:00:00 | 00:00:00 | |
| OE5DXL-15 | 2026-09-05 06:36:45 | 49.99720 | 15.84695 | 79° | 15km/h | 22497m | 6.4m/s | -52.3°C | 3.9% | 0hPa | 2.7V | 00:00:00 | 00:00:00 | 00:00:00 | |
| HA6NAB-11 | 2026-09-05 06:36:44 | 49.99719 | 15.84689 | 90° | 16km/h | 22491m | 5.7m/s | -52.4°C | 0.8% | 0hPa | 2.7V | 00:00:00 | 00:00:00 | 00:00:00 | |
| SQ6EMJ | 2026-09-05 06:36:42 | 49.99719 | 15.84683 | 95° | 15km/h | 22486m | 4.9m/s | -52.4°C | 0.8% | 0hPa | 2.7V | 00:00:00 | 00:00:00 | 00:00:00 | |
| OE5DRO-10 | 2026-09-05 06:36:41 | 49.99719 | 15.84673 | 73° | 24km/h | 22474m | 5.0m/s | -52.3°C | 3.9% | 0hPa | 2.7V | 00:00:00 | 00:00:00 | 00:00:00 | |
| SP3BTT-10 | 2026-09-05 06:36:39 | 49.99717 | 15.84661 | 80° | 24km/h | 22463m | 6.3m/s | -52.4°C | 3.9% | 0hPa | 2.7V | 00:00:00 | 00:00:00 | 00:00:00 | |
| DO3MHA-11 | 2026-09-05 06:36:38 | 49.99716 | 15.84653 | 84° | 24km/h | 22458m | 5.3m/s | -52.3°C | 3.9% | 0hPa | 2.7V | 00:00:00 | 01:33:52 | 00:00:00 | |
| OE5MMP-10 | 2026-09-05 06:36:37 | 49.99715 | 15.84645 | 81° | 24km/h | 22452m | 4.5m/s | -52.4°C | 3.9% | 0hPa | 2.7V | 00:00:00 | 01:33:51 | 00:00:00 | |
| OK1SLM-15 | 2026-09-05 06:36:36 | 49.99715 | 15.84645 | 81° | 22km/h | 22452m | 4.6m/s | -52.4°C | 0.8% | 0hPa | 2.7V | 00:00:00 | 00:00:00 | 00:00:00 | |
| KRY50SP | 2026-09-05 06:36:33 | 49.99710 | 15.84620 | 71° | 24km/h | 22436m | 4.2m/s | -52.4°C | 0.8% | 0hPa | 2.7V | 00:00:00 | 00:00:00 | 00:00:00 | |
| SQ6EMJ | 2026-09-05 06:36:32 | 49.99708 | 15.84611 | 78° | 26km/h | 22431m | 4.9m/s | -52.4°C | 0.8% | 0hPa | 2.7V | 00:00:00 | 00:00:00 | 00:00:00 | |
| OK1SLM-15 | 2026-09-05 06:36:31 | 49.99707 | 15.84601 | 87° | 26km/h | 22425m | 6.3m/s | -52.5°C | 0.8% | 0hPa | 2.7V | 00:00:00 | 00:00:00 | 00:00:00 | |
| PG1ADW-2 | 2026-09-05 06:36:30 | 49.99708 | 15.84581 | 97° | 29km/h | 22414m | 5.3m/s | -52.4°C | 3.9% | 0hPa | 2.7V | 00:00:00 | 00:00:00 | 00:00:00 | |
| HA6NAB-11 | 2026-09-05 06:36:29 | 49.99708 | 15.84581 | 98° | 26km/h | 22414m | 5.3m/s | -52.5°C | 0.8% | 0hPa | 2.7V | 00:00:00 | 00:00:00 | 00:00:00 | |
| DO3MHA-11 | 2026-09-05 06:36:28 | 49.99709 | 15.84562 | 91° | 31km/h | 22401m | 5.0m/s | -52.5°C | 4.0% | 0hPa | 2.7V | 00:00:00 | 01:33:42 | 00:00:00 | |
| OE5MMP-10 | 2026-09-05 06:36:27 | 49.99709 | 15.84553 | 89° | 31km/h | 22397m | 3.9m/s | -52.5°C | 3.9% | 0hPa | 2.7V | 00:00:00 | 01:33:41 | 00:00:00 | |
| POL2MAQ | 2026-09-05 06:36:24 | 49.99708 | 15.84534 | 86° | 27km/h | 22386m | 5.3m/s | -52.6°C | 0.8% | 0hPa | 2.7V | 00:00:00 | 00:00:00 | 00:00:00 | |
| OE3OSB-13 | 2026-09-05 06:36:23 | 49.99701 | 15.84500 | 59° | 33km/h | 22370m | 5.9m/s | -52.6°C | 0.7% | -1.0hPa | 2.7V | 00:00:00 | 00:00:00 | 00:00:00 | |
| OE5DRO-10 | 2026-09-05 06:36:22 | 49.99701 | 15.84500 | 60° | 29km/h | 22370m | 5.8m/s | -52.6°C | 4.0% | 0hPa | 2.7V | 00:00:00 | 00:00:00 | 00:00:00 | |
| DO3MHA-11 | 2026-09-05 06:36:18 | 49.99685 | 15.84449 | 77° | 27km/h | 22349m | 4.7m/s | -52.5°C | 4.0% | 0hPa | 2.7V | 00:00:00 | 01:33:32 | 00:00:00 | |
| OE5MMP-10 | 2026-09-05 06:36:17 | 49.99683 | 15.84436 | 79° | 27km/h | 22344m | 3.9m/s | -52.6°C | 4.0% | 0hPa | 2.7V | 00:00:00 | 01:33:31 | 00:00:00 | |
| SQ6EMJ | 2026-09-05 06:36:16 | 49.99681 | 15.84424 | 77° | 33km/h | 22339m | 6.3m/s | -52.7°C | 0.8% | 0hPa | 2.7V | 00:00:00 | 00:00:00 | 00:00:00 | |
| POL1PZ | 2026-09-05 06:36:15 | 49.99679 | 15.84413 | 70° | 29km/h | 22333m | 6.3m/s | -52.7°C | 1.0% | 0hPa | 2.7V | 00:00:00 | 00:00:00 | 00:00:00 | |
| EDDB2-11 | 2026-09-05 06:36:13 | 49.99673 | 15.84394 | 63° | 24km/h | 22322m | 5.1m/s | -52.8°C | 0.7% | -1.0hPa | 2.7V | 00:00:00 | 00:00:00 | 00:00:00 | |
| NBG1-10 | 2026-09-05 06:36:11 | 49.99668 | 15.84377 | 67° | 24km/h | 22311m | 5.4m/s | -52.6°C | 4.1% | 0hPa | 2.7V | 00:00:00 | 01:33:25 | 00:00:00 | |
| SQ6EMJ | 2026-09-05 06:36:10 | 49.99666 | 15.84368 | 67° | 26km/h | 22305m | 6.6m/s | -52.7°C | 0.9% | 0hPa | 2.7V | 00:00:00 | 00:00:00 | 00:00:00 | |
| KRY50SP | 2026-09-05 06:36:09 | 49.99666 | 15.84368 | 67° | 26km/h | 22305m | 6.6m/s | -52.7°C | 0.9% | 0hPa | 2.7V | 00:00:00 | 00:00:00 | 00:00:00 | |
| DO3MHA-11 | 2026-09-05 06:36:08 | 49.99660 | 15.84348 | 66° | 27km/h | 22293m | 4.3m/s | -52.5°C | 4.0% | 0hPa | 2.7V | 00:00:00 | 01:33:22 | 00:00:00 | |
| SONDE2-11 | 2026-09-05 06:36:07 | 49.99654 | 15.84327 | 65° | 27km/h | 22281m | 5.5m/s | -52.5°C | 0.7% | -1.0hPa | 2.7V | 00:00:00 | 00:00:00 | 00:00:00 | |
| OK1SLM-15 | 2026-09-05 06:36:05 | 49.99654 | 15.84327 | 66° | 27km/h | 22281m | 5.5m/s | -52.5°C | 0.8% | 0hPa | 2.7V | 00:00:00 | 00:00:00 | 00:00:00 | |
| POL2MAQ | 2026-09-05 06:36:04 | 49.99647 | 15.84308 | 57° | 31km/h | 22271m | 6.0m/s | -52.4°C | 0.8% | 0hPa | 2.7V | 00:00:00 | 00:00:00 | 00:00:00 | |
| OE5DRO-10 | 2026-09-05 06:36:03 | 49.99642 | 15.84298 | 51° | 24km/h | 22265m | 6.2m/s | -52.3°C | 4.0% | 0hPa | 2.7V | 00:00:00 | 00:00:00 | 00:00:00 | |
| OE3OSB-13 | 2026-09-05 06:35:52 | 49.99593 | 15.84213 | 45° | 26km/h | 22195m | 6.3m/s | -52.0°C | 0.7% | -1.0hPa | 2.7V | 00:00:00 | 00:00:00 | 00:00:00 | |
| PG1ADW-2 | 2026-09-05 06:35:50 | 49.99588 | 15.84205 | 39° | 18km/h | 22189m | 5.0m/s | -51.9°C | 3.9% | 0hPa | 2.7V | 00:00:00 | 00:00:00 | 00:00:00 | |
| DO3MHA-11 | 2026-09-05 06:35:48 | 49.99578 | 15.84195 | 28° | 16km/h | 22177m | 5.4m/s | -51.8°C | 3.8% | 0hPa | 2.7V | 00:00:00 | 01:33:02 | 00:00:00 | |
| OE5MMP-10 | 2026-09-05 06:35:47 | 49.99573 | 15.84191 | 25° | 16km/h | 22172m | 4.1m/s | -51.7°C | 3.7% | 0hPa | 2.7V | 00:00:00 | 01:33:01 | 08:30:00 | |
| PETON7-10 | 2026-09-05 06:35:45 | 49.99562 | 15.84183 | 28° | 16km/h | 22161m | 5.9m/s | -51.7°C | 3.8% | 0hPa | 2.7V | 00:00:00 | 01:32:59 | 00:00:00 | |
| OE5DRO-10 | 2026-09-05 06:35:44 | 49.99558 | 15.84179 | 30° | 15km/h | 22156m | 4.8m/s | -51.7°C | 3.7% | 0hPa | 2.7V | 00:00:00 | 00:00:00 | 00:00:00 | |
| POL2MAQ | 2026-09-05 06:35:43 | 49.99558 | 15.84179 | 30° | 20km/h | 22156m | 4.9m/s | -51.7°C | 0.8% | 0hPa | 2.7V | 00:00:00 | 00:00:00 | 00:00:00 | |
| EDDB2-11 | 2026-09-05 06:35:42 | 49.99550 | 15.84173 | 26° | 13km/h | 22144m | 7.3m/s | -51.8°C | 0.7% | -1.0hPa | 2.7V | 00:00:00 | 00:00:00 | 00:00:00 | |
| DB0UT-7 | 2026-09-05 06:35:41 | 49.99548 | 15.84171 | 26° | 13km/h | 22138m | 5.3m/s | -51.6°C | 3.8% | 0hPa | 2.7V | 00:00:00 | 00:00:00 | 00:00:00 | |
| SQ6EMJ | 2026-09-05 06:35:40 | 49.99547 | 15.84171 | 26° | 9km/h | 22138m | 5.4m/s | -51.7°C | 0.8% | 0hPa | 2.7V | 00:00:00 | 00:00:00 | 00:00:00 | |
| DO3MHA-11 | 2026-09-05 06:35:38 | 49.99541 | 15.84164 | 37° | 18km/h | 22120m | 5.1m/s | -51.5°C | 3.8% | 0hPa | 2.7V | 00:00:00 | 01:32:52 | 00:00:00 | |
| EDDB2-12 | 2026-09-05 06:35:37 | 49.99535 | 15.84158 | 32° | 13km/h | 22108m | 6.7m/s | -51.6°C | 0.7% | -1.0hPa | 2.7V | 00:00:00 | 00:00:00 | 00:00:00 | |
| 13BRC | 2026-09-05 06:35:35 | 49.99535 | 15.84158 | 33° | 15km/h | 22108m | 6.7m/s | -51.6°C | 0.8% | 0hPa | 2.7V | 00:00:00 | 00:00:00 | 00:00:00 | |
| KRY50SP | 2026-09-05 06:35:31 | 49.99518 | 15.84139 | 33° | 26km/h | 22086m | 4.6m/s | -51.7°C | 0.8% | 0hPa | 2.7V | 00:00:00 | 00:00:00 | 00:00:00 | |
| PETON7-10 | 2026-09-05 06:35:30 | 49.99508 | 15.84133 | 10° | 11km/h | 22075m | 7.4m/s | -51.7°C | 3.7% | 0hPa | 2.7V | 00:00:00 | 00:00:00 | 00:00:00 | |
| SQ6EMJ | 2026-09-05 06:35:29 | 49.99508 | 15.84133 | 11° | 18km/h | 22075m | 7.4m/s | -51.7°C | 0.7% | 0hPa | 2.7V | 00:00:00 | 00:00:00 | 00:00:00 | |
| DO3MHA-11 | 2026-09-05 06:35:28 | 49.99501 | 15.84135 | 328° | 9km/h | 22062m | 5.9m/s | -51.7°C | 3.7% | 0hPa | 2.7V | 00:00:00 | 01:32:42 | 00:00:00 | |
| OE5MMP-10 | 2026-09-05 06:35:27 | 49.99499 | 15.84137 | 321° | 11km/h | 22056m | 7.4m/s | -51.7°C | 3.8% | 0hPa | 2.6V | 00:00:00 | 01:32:41 | 00:00:00 | |
| KRY50SP | 2026-09-05 06:35:26 | 49.99499 | 15.84137 | 322° | 9km/h | 22056m | 7.5m/s | -51.8°C | 0.8% | 0hPa | 2.6V | 00:00:00 | 00:00:00 | 00:00:00 | |
| OE5DRO-10 | 2026-09-05 06:35:25 | 49.99497 | 15.84142 | 297° | 9km/h | 22043m | 5.8m/s | -51.7°C | 3.8% | 0hPa | 2.6V | 00:00:00 | 00:00:00 | 08:30:00 | |
| SQ6EMJ | 2026-09-05 06:35:24 | 49.99497 | 15.84142 | 298° | 5km/h | 22043m | 5.9m/s | -51.7°C | 0.8% | 0hPa | 2.7V | 00:00:00 | 00:00:00 | 00:00:00 | |
| OK1SLM-15 | 2026-09-05 06:35:23 | 49.99495 | 15.84145 | 332° | 4km/h | 22031m | 5.0m/s | -51.6°C | 0.8% | 0hPa | 2.7V | 00:00:00 | 00:00:00 | 00:00:00 | |
| OE3MUC-15 | 2026-09-05 06:35:20 | 49.99491 | 15.84138 | 56° | 13km/h | 22014m | 5.0m/s | -51.4°C | 3.7% | 0hPa | 2.7V | 00:00:00 | 00:00:00 | 00:00:00 | |
| DO3MHA-11 | 2026-09-05 06:35:18 | 49.99485 | 15.84127 | 43° | 9km/h | 22004m | 5.8m/s | -51.4°C | 3.6% | 0hPa | 2.7V | 00:00:00 | 01:32:32 | 00:00:00 | |
| OE5MMP-10 | 2026-09-05 06:35:17 | 49.99482 | 15.84123 | 30° | 7km/h | 21998m | 6.3m/s | -51.5°C | 3.6% | 0hPa | 2.7V | 00:00:00 | 01:32:31 | 00:00:00 | |
| PETON7-10 | 2026-09-05 06:35:15 | 49.99479 | 15.84123 | 311° | 9km/h | 21988m | 5.6m/s | -51.6°C | 3.6% | 0hPa | 2.7V | 00:00:00 | 00:00:00 | 00:00:00 | |
| 13BRC | 2026-09-05 06:35:14 | 49.99479 | 15.84123 | 311° | 2km/h | 21988m | 5.7m/s | -51.6°C | 0.8% | 0hPa | 2.7V | 00:00:00 | 00:00:00 | 00:00:00 | |
| HA6NAB-11 | 2026-09-05 06:35:13 | 49.99479 | 15.84123 | 233° | 4km/h | 21982m | 6.8m/s | -51.8°C | 0.8% | 0hPa | 2.7V | 00:00:00 | 00:00:00 | 00:00:00 | |
| EDDB2-11 | 2026-09-05 06:35:12 | 49.99484 | 15.84129 | 225° | 9km/h | 21963m | 6.6m/s | -52.1°C | 0.7% | -1.0hPa | 2.7V | 00:00:00 | 00:00:00 | 00:00:00 | |
| DB0UT-7 | 2026-09-05 06:35:11 | 49.99484 | 15.84129 | 226° | 13km/h | 21963m | 6.5m/s | -52.1°C | 3.8% | 0hPa | 2.7V | 00:00:00 | 01:32:25 | 00:00:00 | |
| PG1ADW-2 | 2026-09-05 06:35:10 | 49.99485 | 15.84131 | 222° | 13km/h | 21958m | 4.8m/s | -52.0°C | 3.8% | 0hPa | 2.7V | 00:00:00 | 00:00:00 | 00:00:00 | |
| SP3BTT-10 | 2026-09-05 06:35:09 | 49.99488 | 15.84150 | 203° | 11km/h | 21953m | 5.0m/s | -52.2°C | 3.7% | 0hPa | 2.7V | 00:00:00 | 00:00:00 | 00:00:00 | |
| DO3MHA-11 | 2026-09-05 06:35:08 | 49.99490 | 15.84134 | 176° | 13km/h | 21947m | 7.0m/s | -52.2°C | 3.8% | 0hPa | 2.7V | 00:00:00 | 01:32:22 | 00:00:00 | |
| OE5MMP-10 | 2026-09-05 06:35:07 | 49.99493 | 15.84132 | 145° | 13km/h | 21940m | 5.5m/s | -52.2°C | 3.8% | 0hPa | 2.7V | 00:00:00 | 01:32:21 | 00:00:00 | |
| OE5DXL-15 | 2026-09-05 06:35:06 | 49.99495 | 15.84129 | 124° | 13km/h | 21935m | 4.8m/s | -52.2°C | 3.8% | 0hPa | 2.7V | 00:00:00 | 00:00:00 | 00:00:00 | |
| SONDE2-11 | 2026-09-05 06:35:05 | 49.99497 | 15.84121 | 98° | 9km/h | 21923m | 6.0m/s | -52.2°C | 0.7% | -1.0hPa | 2.7V | 00:00:00 | 00:00:00 | 00:00:00 | |
| SQ6EMJ | 2026-09-05 06:35:03 | 49.99497 | 15.84118 | 92° | 9km/h | 21918m | 4.4m/s | -52.3°C | 0.8% | 0hPa | 2.7V | 00:00:00 | 00:00:00 | 00:00:00 | |
| POL2MAQ | 2026-09-05 06:35:02 | 49.99497 | 15.84118 | 92° | 9km/h | 21918m | 4.4m/s | -52.3°C | 0.8% | 0hPa | 2.7V | 00:00:00 | 00:00:00 | 00:00:00 | |
| PETON7-10 | 2026-09-05 06:35:00 | 49.99500 | 15.84105 | 129° | 11km/h | 21902m | 5.3m/s | -52.4°C | 3.8% | 0hPa | 2.7V | 00:00:00 | 01:32:14 | 00:00:00 | |
| DO3MHA-11 | 2026-09-05 06:34:58 | 49.99506 | 15.84096 | 139° | 13km/h | 21891m | 6.4m/s | -52.5°C | 3.9% | 0hPa | 2.7V | 00:00:00 | 01:32:12 | 00:00:00 | |
| OE5MMP-10 | 2026-09-05 06:34:57 | 49.99508 | 15.84092 | 139° | 11km/h | 21885m | 5.2m/s | -52.5°C | 4.0% | 0hPa | 2.7V | 00:00:00 | 01:32:11 | 00:00:00 | |
| HA6NAB-11 | 2026-09-05 06:34:55 | 49.99511 | 15.84089 | 135° | 15km/h | 21880m | 5.0m/s | -52.6°C | 0.8% | 0hPa | 2.7V | 00:00:00 | 00:00:00 | 00:00:00 | |
| 13BRC | 2026-09-05 06:34:53 | 49.99516 | 15.84079 | 121° | 16km/h | 21868m | 4.8m/s | -52.7°C | 0.8% | 0hPa | 2.7V | 00:00:00 | 00:00:00 | 00:00:00 | |
| SQ6EMJ | 2026-09-05 06:34:51 | 49.99518 | 15.84069 | 104° | 11km/h | 21858m | 6.5m/s | -52.7°C | 0.8% | 0hPa | 2.7V | 00:00:00 | 00:00:00 | 00:00:00 | |
| PG1ADW-2 | 2026-09-05 06:34:50 | 49.99518 | 15.84062 | 60° | 11km/h | 21846m | 5.5m/s | -52.7°C | 4.0% | 0hPa | 2.7V | 00:00:00 | 00:00:00 | 00:00:00 | |
| HA6NAB-11 | 2026-09-05 06:34:49 | 49.99518 | 15.84062 | 60° | 7km/h | 21846m | 5.5m/s | -52.7°C | 0.8% | 0hPa | 2.7V | 00:00:00 | 00:00:00 | 00:00:00 | |
| DO3MHA-11 | 2026-09-05 06:34:48 | 49.99516 | 15.84057 | 71° | 11km/h | 21834m | 6.1m/s | -52.7°C | 4.0% | 0hPa | 2.7V | 00:00:00 | 01:32:02 | 00:00:00 | |
| OE5MMP-10 | 2026-09-05 06:34:47 | 49.99515 | 15.84054 | 72° | 13km/h | 21829m | 4.7m/s | -52.7°C | 4.0% | 0hPa | 2.7V | 00:00:00 | 01:32:01 | 00:00:00 | |
| KRY50SP | 2026-09-05 06:34:46 | 49.99516 | 15.84054 | 72° | 7km/h | 21829m | 4.7m/s | -52.8°C | 0.8% | 0hPa | 2.6V | 00:00:00 | 00:00:00 | 00:00:00 | |
| PETON7-10 | 2026-09-05 06:34:45 | 49.99515 | 15.84049 | 88° | 13km/h | 21816m | 5.3m/s | -52.7°C | 4.0% | 0hPa | 2.6V | 00:00:00 | 00:00:00 | 00:00:00 | |
| HA6NAB-11 | 2026-09-05 06:34:44 | 49.99515 | 15.84049 | 89° | 5km/h | 21816m | 5.4m/s | -52.7°C | 0.8% | 0hPa | 2.7V | 00:00:00 | 00:00:00 | 00:00:00 | |
| POL2MAQ | 2026-09-05 06:34:42 | 49.99516 | 15.84042 | 104° | 13km/h | 21806m | 7.1m/s | -52.7°C | 0.8% | 0hPa | 2.7V | 00:00:00 | 00:00:00 | 00:00:00 | |
| SQ6EMJ | 2026-09-05 06:34:41 | 49.99517 | 15.84029 | 98° | 18km/h | 21795m | 4.7m/s | -52.7°C | 0.8% | 0hPa | 2.7V | 00:00:00 | 00:00:00 | 00:00:00 | |
| S52SK | 2026-09-05 06:34:40 | 49.99517 | 15.84029 | 98° | 18km/h | 21795m | 4.7m/s | -52.7°C | 0.8% | 0hPa | 2.7V | 00:00:00 | 00:00:00 | 00:00:00 | |
| KRY50SP | 2026-09-05 06:34:39 | 49.99517 | 15.84022 | 91° | 16km/h | 21789m | 6.7m/s | -52.7°C | 0.9% | 0hPa | 2.7V | 00:00:00 | 00:00:00 | 00:00:00 | |
| DO3MHA-11 | 2026-09-05 06:34:38 | 49.99516 | 15.84011 | 70° | 13km/h | 21777m | 5.2m/s | -52.6°C | 4.0% | 0hPa | 2.7V | 00:00:00 | 01:31:52 | 00:00:00 | |
| OE5MMP-10 | 2026-09-05 06:34:37 | 49.99514 | 15.84007 | 63° | 13km/h | 21772m | 5.3m/s | -52.6°C | 4.0% | 0hPa | 2.7V | 00:00:00 | 01:31:51 | 00:00:00 | |
| OE5DXL-15 | 2026-09-05 06:34:36 | 49.99513 | 15.84002 | 59° | 13km/h | 21766m | 6.9m/s | -52.5°C | 4.0% | 0hPa | 2.7V | 00:00:00 | 00:00:00 | 00:00:00 | |
| SQ6EMJ | 2026-09-05 06:34:35 | 49.99510 | 15.83997 | 51° | 15km/h | 21760m | 5.3m/s | -52.5°C | 0.9% | 0hPa | 2.7V | 00:00:00 | 00:00:00 | 00:00:00 | |
| SONDE2-11 | 2026-09-05 06:34:34 | 49.99506 | 15.83991 | 21° | 11km/h | 21747m | 7.5m/s | -52.5°C | 0.7% | -1.0hPa | 2.7V | 00:00:00 | 00:00:00 | 00:00:00 | |
| HA6NAB-11 | 2026-09-05 06:34:32 | 49.99506 | 15.83991 | 23° | 13km/h | 21747m | 7.5m/s | -52.5°C | 0.8% | 0hPa | 2.7V | 00:00:00 | 00:00:00 | 00:00:00 | |
| PETON7-10 | 2026-09-05 06:34:30 | 49.99497 | 15.83988 | 29° | 15km/h | 21731m | 7.3m/s | -52.5°C | 4.0% | 0hPa | 2.7V | 00:00:00 | 00:00:00 | 00:00:00 | |
| DO3MHA-11 | 2026-09-05 06:34:28 | 49.99494 | 15.83982 | 57° | 16km/h | 21719m | 4.8m/s | -52.5°C | 4.0% | 0hPa | 2.7V | 00:00:00 | 01:31:42 | 08:30:00 | |
| OE5MMP-10 | 2026-09-05 06:34:27 | 49.99492 | 15.83979 | 47° | 16km/h | 21713m | 7.0m/s | -52.5°C | 4.0% | 0hPa | 2.7V | 00:00:00 | 01:31:41 | 00:00:00 | |
| SP3BTT-10 | 2026-09-05 06:34:23 | 49.99480 | 15.83970 | 15° | 15km/h | 21689m | 5.4m/s | -52.2°C | 3.9% | 0hPa | 2.7V | 00:00:00 | 00:00:00 | 00:00:00 | |
| HA6NAB-11 | 2026-09-05 06:34:21 | 49.99476 | 15.83969 | 4° | 18km/h | 21683m | 5.8m/s | -52.3°C | 0.8% | 0hPa | 2.7V | 00:00:00 | 00:00:00 | 00:00:00 | |
| SQ6EMJ | 2026-09-05 06:34:18 | 49.99455 | 15.83974 | 354° | 18km/h | 21660m | 6.4m/s | -52.2°C | 0.8% | 0hPa | 2.7V | 00:00:00 | 00:00:00 | 00:00:00 | |
| OE5MMP-10 | 2026-09-05 06:34:17 | 49.99451 | 15.83975 | 6° | 9km/h | 21654m | 5.7m/s | -52.1°C | 3.9% | 0hPa | 2.7V | 00:00:00 | 01:31:31 | 08:30:00 | |
| HA6NAB-11 | 2026-09-05 06:34:16 | 49.99451 | 15.83975 | 6° | 13km/h | 21654m | 5.7m/s | -52.1°C | 0.8% | 0hPa | 2.7V | 00:00:00 | 00:00:00 | 00:00:00 | |
| PETON7-10 | 2026-09-05 06:34:15 | 49.99447 | 15.83973 | 19° | 13km/h | 21643m | 6.4m/s | -52.1°C | 3.8% | 0hPa | 2.7V | 00:00:00 | 01:31:29 | 00:00:00 | |
| SQ6EMJ | 2026-09-05 06:34:12 | 49.99445 | 15.83971 | 62° | 4km/h | 21632m | 5.0m/s | -52.1°C | 0.8% | 0hPa | 2.7V | 00:00:00 | 00:00:00 | 00:00:00 | |
| 13BRC | 2026-09-05 06:34:11 | 49.99445 | 15.83969 | 66° | 7km/h | 21626m | 6.5m/s | -52.1°C | 0.8% | 0hPa | 2.7V | 00:00:00 | 00:00:00 | 00:00:00 | |
| PG1ADW-2 | 2026-09-05 06:34:10 | 49.99441 | 15.83963 | 31° | 11km/h | 21615m | 4.3m/s | -52.1°C | 3.8% | 0hPa | 2.7V | 00:00:00 | 01:31:24 | 00:00:00 | |
| OE5DRO-10 | 2026-09-05 06:34:09 | 49.99438 | 15.83961 | 14° | 11km/h | 21609m | 6.5m/s | -52.1°C | 3.8% | 0hPa | 2.7V | 00:00:00 | 00:00:00 | 00:00:00 | |
| SQ6EMJ | 2026-09-05 06:34:08 | 49.99433 | 15.83960 | 358° | 20km/h | 21603m | 6.3m/s | -52.3°C | 0.8% | 0hPa | 2.7V | 00:00:00 | 00:00:00 | 00:00:00 | |
| OE5MMP-10 | 2026-09-05 06:34:07 | 49.99428 | 15.83961 | 351° | 13km/h | 21597m | 5.2m/s | -52.4°C | 3.9% | 0hPa | 2.7V | 00:00:00 | 01:31:21 | 00:00:00 | |
| OE5DXL-15 | 2026-09-05 06:34:06 | 49.99422 | 15.83963 | 353° | 11km/h | 21592m | 5.6m/s | -52.4°C | 3.9% | 0hPa | 2.7V | 00:00:00 | 00:00:00 | 00:00:00 | |
| OK1SLM-15 | 2026-09-05 06:34:05 | 49.99422 | 15.83963 | 354° | 24km/h | 21592m | 5.6m/s | -52.4°C | 0.8% | 0hPa | 2.7V | 00:00:00 | 00:00:00 | 00:00:00 | |
| EDDB2-12 | 2026-09-05 06:34:03 | 49.99408 | 15.83963 | 6° | 11km/h | 21575m | 5.7m/s | -52.4°C | 0.7% | -1.0hPa | 2.7V | 00:00:00 | 00:00:00 | 00:00:00 | |
| HA6NAB-11 | 2026-09-05 06:34:02 | 49.99408 | 15.83962 | 8° | 11km/h | 21575m | 5.7m/s | -52.4°C | 0.8% | 0hPa | 2.7V | 00:00:00 | 00:00:00 | 00:00:00 | |
| POL2MAQ | 2026-09-05 06:34:01 | 49.99406 | 15.83962 | 356° | 5km/h | 21569m | 6.4m/s | -52.4°C | 0.8% | 0hPa | 2.7V | 00:00:00 | 00:00:00 | 00:00:00 | |
| PETON7-10 | 2026-09-05 06:34:00 | 49.99406 | 15.83962 | 173° | 7km/h | 21557m | 5.1m/s | -52.3°C | 3.9% | 0hPa | 2.7V | 00:00:00 | 00:00:00 | 08:30:00 | |
| DO3MHA-11 | 2026-09-05 06:33:58 | 49.99409 | 15.83960 | 142° | 7km/h | 21544m | 5.7m/s | -52.2°C | 3.9% | 0hPa | 2.7V | 00:00:00 | 01:31:12 | 00:00:00 | |
| OE5MMP-10 | 2026-09-05 06:33:57 | 49.99410 | 15.83958 | 136° | 7km/h | 21539m | 5.7m/s | -52.2°C | 3.9% | 0hPa | 2.7V | 00:00:00 | 01:31:11 | 00:00:00 | |
| SQ6EMJ | 2026-09-05 06:33:56 | 49.99411 | 15.83957 | 137° | 2km/h | 21532m | 6.8m/s | -52.2°C | 0.8% | 0hPa | 2.7V | 00:00:00 | 00:00:00 | 00:00:00 | |
| OE3MUC-15 | 2026-09-05 06:33:52 | 49.99404 | 15.83954 | 31° | 15km/h | 21509m | 5.0m/s | -52.0°C | 3.8% | 0hPa | 2.7V | 00:00:00 | 00:00:00 | 08:30:00 | |
| 13BRC | 2026-09-05 06:33:51 | 49.99404 | 15.83954 | 32° | 13km/h | 21509m | 5.1m/s | -52.1°C | 0.8% | 0hPa | 2.7V | 00:00:00 | 00:00:00 | 00:00:00 | |
| SQ6EMJ | 2026-09-05 06:33:50 | 49.99400 | 15.83949 | 43° | 7km/h | 21500m | 5.7m/s | -52.1°C | 0.8% | 0hPa | 2.7V | 00:00:00 | 00:00:00 | 00:00:00 | |
| DO3MHA-11 | 2026-09-05 06:33:48 | 49.99400 | 15.83949 | 193° | 13km/h | 21488m | 5.0m/s | -52.3°C | 3.9% | 0hPa | 2.7V | 00:00:00 | 01:31:02 | 00:00:00 | |
| OE5MMP-10 | 2026-09-05 06:33:47 | 49.99402 | 15.83949 | 182° | 13km/h | 21483m | 4.6m/s | -52.3°C | 3.9% | 0hPa | 2.7V | 00:00:00 | 01:31:01 | 00:00:00 | |
| HA6NAB-11 | 2026-09-05 06:33:46 | 49.99402 | 15.83949 | 183° | 9km/h | 21483m | 4.7m/s | -52.4°C | 0.8% | 0hPa | 2.6V | 00:00:00 | 00:00:00 | 00:00:00 | |
| PETON7-10 | 2026-09-05 06:33:45 | 49.99407 | 15.83946 | 142° | 15km/h | 21471m | 6.4m/s | -52.5°C | 3.9% | 0hPa | 2.6V | 00:00:00 | 00:00:00 | 00:00:00 | |
| SQ6EMJ | 2026-09-05 06:33:44 | 49.99409 | 15.83942 | 128° | 16km/h | 21465m | 5.9m/s | -52.6°C | 0.9% | 0hPa | 2.6V | 00:00:00 | 00:00:00 | 00:00:00 | |
| DB0UT-7 | 2026-09-05 06:33:42 | 49.99414 | 15.83932 | 119° | 9km/h | 21453m | 6.7m/s | -52.6°C | 4.0% | 0hPa | 2.6V | 00:00:00 | 00:00:00 | 00:00:00 | |
| NBG1-10 | 2026-09-05 06:33:41 | 49.99415 | 15.83927 | 109° | 15km/h | 21448m | 5.1m/s | -52.5°C | 3.9% | 0hPa | 2.6V | 00:00:00 | 01:30:55 | 00:00:00 | |
| KRY50SP | 2026-09-05 06:33:39 | 49.99416 | 15.83917 | 86° | 15km/h | 21437m | 6.2m/s | -52.5°C | 0.8% | 0hPa | 2.6V | 00:00:00 | 00:00:00 | 00:00:00 | |
| SQ6EMJ | 2026-09-05 06:33:38 | 49.99415 | 15.83910 | 82° | 16km/h | 21431m | 6.1m/s | -52.5°C | 0.8% | 0hPa | 2.6V | 00:00:00 | 00:00:00 | 00:00:00 | |
| OE5MMP-10 | 2026-09-05 06:33:37 | 49.99414 | 15.83904 | 84° | 11km/h | 21425m | 5.3m/s | -52.4°C | 3.9% | 0hPa | 2.6V | 00:00:00 | 01:30:51 | 00:00:00 | |
| OE5DXL-15 | 2026-09-05 06:33:36 | 49.99414 | 15.83898 | 90° | 7km/h | 21419m | 6.8m/s | -52.4°C | 3.8% | 0hPa | 2.6V | 00:00:00 | 00:00:00 | 00:00:00 | |
| HA6NAB-11 | 2026-09-05 06:33:33 | 49.99416 | 15.83889 | 123° | 13km/h | 21408m | 4.7m/s | -52.4°C | 0.8% | 0hPa | 2.6V | 00:00:00 | 00:00:00 | 00:00:00 | |
| EDDB2-12 | 2026-09-05 06:33:32 | 49.99420 | 15.83880 | 116° | 13km/h | 21396m | 4.7m/s | -52.5°C | 0.7% | -1.0hPa | 2.6V | 00:00:00 | 00:00:00 | 00:00:00 | |
| OE5DRO-10 | 2026-09-05 06:33:31 | 49.99421 | 15.83875 | 111° | 5km/h | 21392m | 4.1m/s | -52.5°C | 3.9% | 0hPa | 2.6V | 00:00:00 | 00:00:00 | 00:00:00 | |
| OK1SLM-15 | 2026-09-05 06:33:30 | 49.99422 | 15.83869 | 95° | 5km/h | 21380m | 6.0m/s | -52.6°C | 0.8% | 0hPa | 2.7V | 00:00:00 | 00:00:00 | 00:00:00 | |
| DO3MHA-11 | 2026-09-05 06:33:28 | 49.99422 | 15.83867 | 71° | 5km/h | 21375m | 4.9m/s | -52.4°C | 3.9% | 0hPa | 2.7V | 00:00:00 | 01:30:42 | 00:00:00 | |
| SQ6EMJ | 2026-09-05 06:33:27 | 49.99421 | 15.83865 | 70° | 7km/h | 21369m | 7.0m/s | -52.5°C | 0.8% | 0hPa | 2.7V | 00:00:00 | 00:00:00 | 00:00:00 | |
| OK1ALN | 2026-09-05 06:33:26 | 49.99421 | 15.83865 | 70° | 7km/h | 21369m | 7.0m/s | -52.5°C | 0.8% | 0hPa | 2.7V | 00:00:00 | 00:00:00 | 00:00:00 | |
| HA6NAB-11 | 2026-09-05 06:33:22 | 49.99419 | 15.83856 | 71° | 4km/h | 21345m | 4.7m/s | -52.6°C | 0.8% | 0hPa | 2.7V | 00:00:00 | 00:00:00 | 00:00:00 | |
| SQ6EMJ | 2026-09-05 06:33:21 | 49.99419 | 15.83852 | 107° | 7km/h | 21334m | 6.0m/s | -52.7°C | 0.8% | 0hPa | 2.7V | 00:00:00 | 00:00:00 | 00:00:00 | |
| POL2MAQ | 2026-09-05 06:33:20 | 49.99419 | 15.83852 | 107° | 7km/h | 21334m | 6.0m/s | -52.7°C | 0.8% | 0hPa | 2.7V | 00:00:00 | 00:00:00 | 00:00:00 | |
| DO3MHA-11 | 2026-09-05 06:33:18 | 49.99421 | 15.83846 | 150° | 5km/h | 21316m | 6.4m/s | -52.7°C | 3.9% | 0hPa | 2.7V | 00:00:00 | 01:30:32 | 00:00:00 | |
| OE5MMP-10 | 2026-09-05 06:33:17 | 49.99421 | 15.83845 | 181° | 5km/h | 21311m | 4.7m/s | -52.8°C | 4.0% | 0hPa | 2.7V | 00:00:00 | 01:30:31 | 00:00:00 | |
| OE3OSB-13 | 2026-09-05 06:33:16 | 49.99422 | 15.83845 | 172° | 4km/h | 21306m | 5.3m/s | -52.8°C | 0.7% | -1.0hPa | 2.7V | 00:00:00 | 00:00:00 | 00:00:00 | |
| SQ6EMJ | 2026-09-05 06:33:15 | 49.99424 | 15.83845 | 163° | 7km/h | 21300m | 6.4m/s | -52.9°C | 0.8% | 0hPa | 2.7V | 00:00:00 | 00:00:00 | 00:00:00 | |
| OE3MUC-15 | 2026-09-05 06:33:14 | 49.99425 | 15.83844 | 151° | 5km/h | 21294m | 4.8m/s | -52.8°C | 4.0% | 0hPa | 2.7V | 00:00:00 | 00:00:00 | 00:00:00 | |
| DB0UT-7 | 2026-09-05 06:33:12 | 49.99428 | 15.83840 | 128° | 20km/h | 21284m | 5.7m/s | -52.8°C | 4.0% | 0hPa | 2.7V | 00:00:00 | 01:30:26 | 00:00:00 | |
| HA6NAB-11 | 2026-09-05 06:33:10 | 49.99428 | 15.83839 | 63° | 4km/h | 21278m | 6.1m/s | -52.9°C | 0.9% | 0hPa | 2.7V | 00:00:00 | 00:00:00 | 00:00:00 | |
| DO3MHA-11 | 2026-09-05 06:33:08 | 49.99426 | 15.83832 | 71° | 16km/h | 21261m | 6.3m/s | -52.8°C | 3.9% | 0hPa | 2.7V | 00:00:00 | 01:30:22 | 00:00:00 | |
| OE5MMP-10 | 2026-09-05 06:33:07 | 49.99425 | 15.83828 | 74° | 16km/h | 21256m | 4.4m/s | -52.8°C | 4.0% | 0hPa | 2.7V | 00:00:00 | 01:30:21 | 00:00:00 | |
| OE5DXL-15 | 2026-09-05 06:33:06 | 49.99423 | 15.83822 | 71° | 24km/h | 21250m | 5.9m/s | -52.8°C | 3.9% | 0hPa | 2.7V | 00:00:00 | 00:00:00 | 00:00:00 | |
| HA6NAB-11 | 2026-09-05 06:33:05 | 49.99423 | 15.83822 | 71° | 16km/h | 21250m | 6.0m/s | -52.9°C | 0.9% | 0hPa | 2.7V | 00:00:00 | 00:00:00 | 00:00:00 | |
| SQ6EMJ | 2026-09-05 06:33:04 | 49.99420 | 15.83810 | 71° | 16km/h | 21238m | 4.9m/s | -52.9°C | 0.8% | 0hPa | 2.7V | 00:00:00 | 00:00:00 | 00:00:00 | |
| EDDB2-12 | 2026-09-05 06:33:01 | 49.99420 | 15.83791 | 108° | 18km/h | 21221m | 5.1m/s | -52.9°C | 0.7% | -1.0hPa | 2.7V | 00:00:00 | 00:00:00 | 00:00:00 | |
| PETON7-10 | 2026-09-05 06:33:00 | 49.99422 | 15.83784 | 111° | 22km/h | 21216m | 5.3m/s | -52.9°C | 3.9% | 0hPa | 2.7V | 00:00:00 | 00:00:00 | 00:00:00 | |
| SQ6EMJ | 2026-09-05 06:32:59 | 49.99423 | 15.83777 | 105° | 16km/h | 21210m | 6.7m/s | -52.9°C | 0.9% | 0hPa | 2.7V | 00:00:00 | 00:00:00 | 00:00:00 | |
| OE3MUC-15 | 2026-09-05 06:32:58 | 49.99424 | 15.83770 | 89° | 22km/h | 21205m | 4.1m/s | -52.9°C | 3.9% | 0hPa | 2.7V | 00:00:00 | 00:00:00 | 00:00:00 | |
| OE5MMP-10 | 2026-09-05 06:32:57 | 49.99423 | 15.83762 | 86° | 24km/h | 21200m | 4.6m/s | -52.9°C | 3.9% | 0hPa | 2.6V | 00:00:00 | 01:30:11 | 00:00:00 | |
| OE3MUC-15 | 2026-09-05 06:32:54 | 49.99421 | 15.83734 | 76° | 24km/h | 21183m | 5.2m/s | -53.1°C | 3.9% | 0hPa | 2.6V | 00:00:00 | 00:00:00 | 00:00:00 | |
| SQ6EMJ | 2026-09-05 06:32:53 | 49.99419 | 15.83725 | 70° | 24km/h | 21177m | 7.0m/s | -53.3°C | 0.9% | 0hPa | 2.6V | 00:00:00 | 00:00:00 | 00:00:00 | |
| OK1SLM-15 | 2026-09-05 06:32:52 | 49.99419 | 15.83725 | 70° | 24km/h | 21177m | 7.0m/s | -53.3°C | 0.9% | 0hPa | 2.6V | 00:00:00 | 00:00:00 | 00:00:00 | |
| OE3MUC-15 | 2026-09-05 06:32:50 | 49.99412 | 15.83701 | 72° | 24km/h | 21160m | 6.8m/s | -53.6°C | 4.1% | 0hPa | 2.6V | 00:00:00 | 00:00:00 | 00:00:00 | |
| HA6NAB-11 | 2026-09-05 06:32:49 | 49.99412 | 15.83701 | 73° | 22km/h | 21160m | 6.8m/s | -53.6°C | 0.9% | 0hPa | 2.6V | 00:00:00 | 00:00:00 | 00:00:00 | |
| DO3MHA-11 | 2026-09-05 06:32:48 | 49.99410 | 15.83684 | 87° | 31km/h | 21149m | 4.3m/s | -53.7°C | 4.1% | 0hPa | 2.6V | 00:00:00 | 01:30:02 | 00:00:00 | |
| OE5MMP-10 | 2026-09-05 06:32:47 | 49.99410 | 15.83674 | 83° | 31km/h | 21143m | 5.5m/s | -53.7°C | 4.1% | 0hPa | 2.6V | 00:00:00 | 01:30:01 | 08:30:00 | |
| OE3MUC-15 | 2026-09-05 06:32:46 | 49.99409 | 15.83665 | 80° | 27km/h | 21138m | 6.1m/s | -53.8°C | 4.2% | 0hPa | 2.6V | 00:00:00 | 00:00:00 | 00:00:00 | |
| PETON7-10 | 2026-09-05 06:32:45 | 49.99407 | 15.83656 | 75° | 31km/h | 21132m | 4.7m/s | -53.8°C | 4.2% | 0hPa | 2.6V | 00:00:00 | 01:29:59 | 00:00:00 | |
| HA6NAB-11 | 2026-09-05 06:32:44 | 49.99408 | 15.83656 | 75° | 24km/h | 21132m | 4.7m/s | -53.9°C | 0.9% | 0hPa | 2.6V | 00:00:00 | 00:00:00 | 00:00:00 | |
| OE3MUC-15 | 2026-09-05 06:32:42 | 49.99400 | 15.83622 | 69° | 37km/h | 21115m | 5.1m/s | -54.0°C | 4.3% | 0hPa | 2.6V | 00:00:00 | 00:00:00 | 00:00:00 | |
| SQ6EMJ | 2026-09-05 06:32:41 | 49.99400 | 15.83622 | 69° | 37km/h | 21115m | 5.1m/s | -54.1°C | 0.9% | 0hPa | 2.6V | 00:00:00 | 00:00:00 | 00:00:00 | |
| KRY50SP | 2026-09-05 06:32:39 | 49.99392 | 15.83596 | 61° | 37km/h | 21104m | 6.8m/s | -54.2°C | 0.9% | 0hPa | 2.6V | 00:00:00 | 00:00:00 | 00:00:00 | |
| DO3MHA-11 | 2026-09-05 06:32:38 | 49.99383 | 15.83573 | 60° | 31km/h | 21092m | 6.5m/s | -54.1°C | 4.4% | 0hPa | 2.6V | 00:00:00 | 01:29:52 | 00:00:00 | |
| OE5MMP-10 | 2026-09-05 06:32:37 | 49.99378 | 15.83561 | 59° | 29km/h | 21085m | 5.7m/s | -54.1°C | 4.4% | 0hPa | 2.6V | 00:00:00 | 01:29:51 | 00:00:00 | |
| OE5DXL-15 | 2026-09-05 06:32:36 | 49.99373 | 15.83550 | 56° | 27km/h | 21080m | 4.8m/s | -54.0°C | 4.4% | 0hPa | 2.6V | 00:00:00 | 00:00:00 | 00:00:00 | |
| OE3MUC-15 | 2026-09-05 06:32:34 | 49.99364 | 15.83532 | 43° | 29km/h | 21068m | 6.0m/s | -53.9°C | 4.3% | 0hPa | 2.6V | 00:00:00 | 00:00:00 | 08:30:00 | |
| KRY50SP | 2026-09-05 06:32:33 | 49.99364 | 15.83532 | 44° | 27km/h | 21068m | 6.1m/s | -53.9°C | 0.9% | 0hPa | 2.6V | 00:00:00 | 00:00:00 | 00:00:00 | |
| HA6NAB-11 | 2026-09-05 06:32:32 | 49.99359 | 15.83525 | 41° | 27km/h | 21062m | 4.7m/s | -53.9°C | 0.9% | 0hPa | 2.6V | 00:00:00 | 00:00:00 | 00:00:00 | |
| SQ6EMJ | 2026-09-05 06:32:31 | 49.99348 | 15.83509 | 45° | 31km/h | 21051m | 5.1m/s | -53.8°C | 0.9% | 0hPa | 2.6V | 00:00:00 | 00:00:00 | 00:00:00 | |
| 13BRC | 2026-09-05 06:32:30 | 49.99343 | 15.83501 | 44° | 29km/h | 21046m | 5.2m/s | -53.8°C | 0.9% | 0hPa | 2.6V | 00:00:00 | 00:00:00 | 00:00:00 | |
| SONDE2-11 | 2026-09-05 06:32:29 | 49.99337 | 15.83494 | 39° | 27km/h | 21039m | 7.1m/s | -53.7°C | 0.8% | -1.0hPa | 2.6V | 00:00:00 | 00:00:00 | 00:00:00 | |
| DO3MHA-11 | 2026-09-05 06:32:28 | 49.99332 | 15.83487 | 37° | 29km/h | 21033m | 5.3m/s | -53.6°C | 4.3% | 0hPa | 2.6V | 00:00:00 | 01:29:42 | 00:00:00 | |
| OE5MMP-10 | 2026-09-05 06:32:27 | 49.99326 | 15.83480 | 41° | 29km/h | 21028m | 4.0m/s | -53.6°C | 4.2% | 0hPa | 2.6V | 00:00:00 | 01:29:41 | 00:00:00 | |
| OE3MUC-15 | 2026-09-05 06:32:26 | 49.99321 | 15.83473 | 46° | 29km/h | 21023m | 6.5m/s | -53.6°C | 4.2% | 0hPa | 2.6V | 00:00:00 | 00:00:00 | 00:00:00 | |
| SQ6EMJ | 2026-09-05 06:32:25 | 49.99316 | 15.83464 | 51° | 31km/h | 21017m | 5.8m/s | -53.6°C | 0.9% | 0hPa | 2.6V | 00:00:00 | 00:00:00 | 00:00:00 | |
| KRY50SP | 2026-09-05 06:32:22 | 49.99299 | 15.83439 | 37° | 29km/h | 21001m | 6.0m/s | -53.5°C | 0.9% | 0hPa | 2.6V | 00:00:00 | 00:00:00 | 00:00:00 | |
| OK1SLM-15 | 2026-09-05 06:32:21 | 49.99299 | 15.83439 | 37° | 29km/h | 21001m | 6.0m/s | -53.5°C | 0.9% | 0hPa | 2.6V | 00:00:00 | 00:00:00 | 00:00:00 | |
| S52SK | 2026-09-05 06:32:20 | 49.99294 | 15.83433 | 31° | 27km/h | 20996m | 5.0m/s | -53.5°C | 0.9% | 0hPa | 2.6V | 00:00:00 | 00:00:00 | 00:00:00 | |
| SQ6EMJ | 2026-09-05 06:32:19 | 49.99281 | 15.83422 | 34° | 29km/h | 20985m | 6.0m/s | -53.5°C | 0.9% | 0hPa | 2.6V | 00:00:00 | 00:00:00 | 00:00:00 | |
| OE3MUC-15 | 2026-09-05 06:32:18 | 49.99275 | 15.83415 | 38° | 31km/h | 20979m | 5.2m/s | -53.4°C | 4.2% | 0hPa | 2.6V | 00:00:00 | 00:00:00 | 00:00:00 | |
| OE5MMP-10 | 2026-09-05 06:32:17 | 49.99269 | 15.83407 | 38° | 26km/h | 20974m | 4.8m/s | -53.4°C | 4.2% | 0hPa | 2.6V | 00:00:00 | 01:29:31 | 00:00:00 | |
| KRY50SP | 2026-09-05 06:32:16 | 49.99269 | 15.83407 | 38° | 33km/h | 20974m | 4.9m/s | -53.4°C | 0.9% | 0hPa | 2.6V | 00:00:00 | 00:00:00 | 00:00:00 | |
| PETON7-10 | 2026-09-05 06:32:15 | 49.99256 | 15.83394 | 31° | 24km/h | 20963m | 6.9m/s | -53.3°C | 4.1% | 0hPa | 2.6V | 00:00:00 | 00:00:00 | 00:00:00 | |
| SQ6EMJ | 2026-09-05 06:32:14 | 49.99249 | 15.83388 | 30° | 27km/h | 20957m | 5.3m/s | -53.3°C | 0.9% | 0hPa | 2.6V | 00:00:00 | 00:00:00 | 00:00:00 | |
| OE3MUC-15 | 2026-09-05 06:32:10 | 49.99232 | 15.83362 | 61° | 20km/h | 20935m | 4.4m/s | -53.1°C | 4.1% | 0hPa | 2.6V | 00:00:00 | 00:00:00 | 00:00:00 | |
| KRY50SP | 2026-09-05 06:32:09 | 49.99232 | 15.83362 | 62° | 24km/h | 20935m | 4.4m/s | -53.1°C | 0.9% | 0hPa | 2.6V | 00:00:00 | 00:00:00 | 00:00:00 | |
| SQ6EMJ | 2026-09-05 06:32:08 | 49.99226 | 15.83348 | 55° | 20km/h | 20923m | 5.8m/s | -53.1°C | 0.9% | 0hPa | 2.6V | 00:00:00 | 00:00:00 | 00:00:00 | |
| OE5MMP-10 | 2026-09-05 06:32:07 | 49.99223 | 15.83342 | 53° | 24km/h | 20918m | 4.9m/s | -53.0°C | 4.0% | 0hPa | 2.6V | 00:00:00 | 01:29:21 | 00:00:00 | |
| NBG1-10 | 2026-09-05 06:32:06 | 49.99221 | 15.83336 | 55° | 18km/h | 20911m | 6.8m/s | -53.1°C | 4.0% | 0hPa | 2.6V | 00:00:00 | 01:29:20 | 00:00:00 | |
| EDDB2-11 | 2026-09-05 06:32:05 | 49.99217 | 15.83329 | 50° | 20km/h | 20905m | 5.4m/s | -53.1°C | 0.8% | -1.0hPa | 2.6V | 00:00:00 | 00:00:00 | 00:00:00 | |
| HA6NAB-11 | 2026-09-05 06:32:04 | 49.99217 | 15.83329 | 51° | 22km/h | 20905m | 5.4m/s | -53.1°C | 0.9% | 0hPa | 2.6V | 00:00:00 | 00:00:00 | 00:00:00 | |
| KRY50SP | 2026-09-05 06:32:03 | 49.99213 | 15.83323 | 41° | 22km/h | 20900m | 4.9m/s | -53.2°C | 0.9% | 0hPa | 2.6V | 00:00:00 | 00:00:00 | 00:00:00 | |
| EDDB2-12 | 2026-09-05 06:31:59 | 49.99185 | 15.83300 | 33° | 27km/h | 20870m | 4.4m/s | -53.3°C | 0.8% | -1.0hPa | 2.6V | 00:00:00 | 00:00:00 | 00:00:00 | |
| DO3MHA-11 | 2026-09-05 06:31:58 | 49.99179 | 15.83294 | 36° | 18km/h | 20866m | 5.1m/s | -53.2°C | 4.1% | 0hPa | 2.6V | 00:00:00 | 01:29:12 | 00:00:00 | |
| OE3MUC-15 | 2026-09-05 06:31:57 | 49.99174 | 15.83288 | 36° | 20km/h | 20860m | 6.8m/s | -53.3°C | 4.1% | 0hPa | 2.7V | 00:00:00 | 00:00:00 | 08:30:00 | |
| SQ6EMJ | 2026-09-05 06:31:56 | 49.99169 | 15.83283 | 40° | 20km/h | 20853m | 6.2m/s | -53.3°C | 0.9% | 0hPa | 2.6V | 00:00:00 | 00:00:00 | 00:00:00 | |
| OE3MUC-15 | 2026-09-05 06:31:53 | 49.99161 | 15.83267 | 63° | 13km/h | 20835m | 4.8m/s | -53.2°C | 4.0% | 0hPa | 2.6V | 00:00:00 | 00:00:00 | 00:00:00 | |
| KRY50SP | 2026-09-05 06:31:52 | 49.99162 | 15.83267 | 63° | 15km/h | 20835m | 4.8m/s | -53.2°C | 0.9% | 0hPa | 2.6V | 00:00:00 | 00:00:00 | 00:00:00 | |
| SQ6EMJ | 2026-09-05 06:31:51 | 49.99158 | 15.83259 | 42° | 11km/h | 20823m | 5.2m/s | -53.3°C | 0.9% | 0hPa | 2.6V | 00:00:00 | 00:00:00 | 00:00:00 | |
| PG1ADW-2 | 2026-09-05 06:31:50 | 49.99155 | 15.83256 | 32° | 16km/h | 20819m | 4.2m/s | -53.3°C | 4.0% | 0hPa | 2.6V | 00:00:00 | 00:00:00 | 00:00:00 | |
| OE3MUC-15 | 2026-09-05 06:31:49 | 49.99152 | 15.83253 | 35° | 24km/h | 20814m | 5.5m/s | -53.4°C | 4.1% | 0hPa | 2.6V | 00:00:00 | 00:00:00 | 00:00:00 | |
| DO3MHA-11 | 2026-09-05 06:31:48 | 49.99148 | 15.83249 | 40° | 20km/h | 20808m | 6.2m/s | -53.5°C | 4.1% | 0hPa | 2.6V | 00:00:00 | 01:29:02 | 00:00:00 | |
| OE5MMP-10 | 2026-09-05 06:31:47 | 49.99143 | 15.83242 | 42° | 18km/h | 20802m | 5.1m/s | -53.5°C | 4.1% | 0hPa | 2.6V | 00:00:00 | 01:29:01 | 00:00:00 | |
| PETON7-10 | 2026-09-05 06:31:45 | 49.99133 | 15.83229 | 37° | 15km/h | 20790m | 6.4m/s | -53.4°C | 4.1% | 0hPa | 2.7V | 00:00:00 | 00:00:00 | 08:30:00 | |
| SQ6EMJ | 2026-09-05 06:31:44 | 49.99133 | 15.83229 | 37° | 26km/h | 20790m | 6.4m/s | -53.5°C | 0.9% | 0hPa | 2.7V | 00:00:00 | 00:00:00 | 00:00:00 | |
| OE3OSB-13 | 2026-09-05 06:31:43 | 49.99124 | 15.83220 | 32° | 18km/h | 20779m | 5.3m/s | -53.6°C | 0.8% | -1.0hPa | 2.7V | 00:00:00 | 00:00:00 | 00:00:00 | |
| SQ6EMJ | 2026-09-05 06:31:40 | 49.99114 | 15.83206 | 51° | 15km/h | 20761m | 5.2m/s | -53.5°C | 0.9% | 0hPa | 2.7V | 00:00:00 | 00:00:00 | 00:00:00 | |
| KRY50SP | 2026-09-05 06:31:39 | 49.99114 | 15.83206 | 51° | 15km/h | 20761m | 5.2m/s | -53.5°C | 0.9% | 0hPa | 2.7V | 00:00:00 | 00:00:00 | 00:00:00 | |
| DO3MHA-11 | 2026-09-05 06:31:38 | 49.99110 | 15.83201 | 25° | 11km/h | 20750m | 5.6m/s | -53.5°C | 4.3% | 0hPa | 2.7V | 00:00:00 | 01:28:52 | 00:00:00 | |
| OE5MMP-10 | 2026-09-05 06:31:37 | 49.99108 | 15.83200 | 8° | 13km/h | 20745m | 3.9m/s | -53.4°C | 4.2% | 0hPa | 2.7V | 00:00:00 | 01:28:51 | 00:00:00 | |
| OE5DXL-15 | 2026-09-05 06:31:36 | 49.99106 | 15.83199 | 20° | 7km/h | 20740m | 5.8m/s | -53.4°C | 4.2% | 0hPa | 2.7V | 00:00:00 | 01:28:50 | 08:30:00 | |
| KRY50SP | 2026-09-05 06:31:35 | 49.99105 | 15.83198 | 33° | 9km/h | 20734m | 6.4m/s | -53.5°C | 0.9% | 0hPa | 2.6V | 00:00:00 | 00:00:00 | 00:00:00 | |
| EDDB2-11 | 2026-09-05 06:31:34 | 49.99102 | 15.83195 | 34° | 11km/h | 20728m | 5.2m/s | -53.4°C | 0.8% | -1.0hPa | 2.6V | 00:00:00 | 00:00:00 | 00:00:00 | |
| NBG1-10 | 2026-09-05 06:31:33 | 49.99100 | 15.83193 | 30° | 7km/h | 20722m | 5.0m/s | -53.4°C | 4.2% | 0hPa | 2.6V | 00:00:00 | 01:28:47 | 00:00:00 | |
| PG1ADW-2 | 2026-09-05 06:31:30 | 49.99091 | 15.83189 | 14° | 7km/h | 20704m | 5.1m/s | -53.3°C | 4.2% | 0hPa | 2.6V | 00:00:00 | 01:28:44 | 08:30:00 | |
| SQ6EMJ | 2026-09-05 06:31:29 | 49.99087 | 15.83187 | 22° | 16km/h | 20699m | 6.6m/s | -53.4°C | 0.9% | 0hPa | 2.6V | 00:00:00 | 00:00:00 | 00:00:00 | |
| SONDE2-11 | 2026-09-05 06:31:28 | 49.99080 | 15.83182 | 23° | 13km/h | 20687m | 4.8m/s | -53.3°C | 0.8% | -1.0hPa | 2.6V | 00:00:00 | 00:00:00 | 00:00:00 | |
| OE5MMP-10 | 2026-09-05 06:31:27 | 49.99080 | 15.83182 | 24° | 7km/h | 20688m | 4.7m/s | -53.2°C | 4.2% | 0hPa | 2.6V | 00:00:00 | 01:28:41 | 00:00:00 | |
| OK1ALN | 2026-09-05 06:31:25 | 49.99077 | 15.83181 | 14° | 13km/h | 20682m | 6.8m/s | -53.3°C | 0.9% | 0hPa | 2.6V | 00:00:00 | 00:00:00 | 00:00:00 | |
| SP3BTT-10 | 2026-09-05 06:31:23 | 49.99071 | 15.83180 | 10° | 13km/h | 20665m | 7.0m/s | -53.1°C | 4.1% | 0hPa | 2.6V | 00:00:00 | 00:00:00 | 00:00:00 | |
| SQ6EMJ | 2026-09-05 06:31:22 | 49.99071 | 15.83180 | 11° | 5km/h | 20665m | 7.0m/s | -53.2°C | 0.9% | 0hPa | 2.7V | 00:00:00 | 00:00:00 | 00:00:00 | |
| OE3MUC-15 | 2026-09-05 06:31:21 | 49.99069 | 15.83180 | 341° | 5km/h | 20654m | 4.9m/s | -53.0°C | 4.1% | 0hPa | 2.7V | 00:00:00 | 00:00:00 | 08:30:00 | |
| DO3MHA-11 | 2026-09-05 06:31:18 | 49.99066 | 15.83185 | 293° | 2km/h | 20636m | 5.2m/s | -52.9°C | 4.1% | 0hPa | 2.7V | 00:00:00 | 01:28:32 | 00:00:00 | |
| OE3MUC-15 | 2026-09-05 06:31:17 | 49.99065 | 15.83186 | 331° | 2km/h | 20629m | 6.5m/s | -52.9°C | 4.1% | 0hPa | 2.7V | 00:00:00 | 00:00:00 | 00:00:00 | |
| POL2MAQ | 2026-09-05 06:31:16 | 49.99065 | 15.83186 | 332° | 2km/h | 20629m | 6.6m/s | -52.9°C | 0.9% | 0hPa | 2.7V | 00:00:00 | 00:00:00 | 00:00:00 | |
| PETON7-10 | 2026-09-05 06:31:15 | 49.99065 | 15.83186 | 183° | 4km/h | 20619m | 4.8m/s | -52.7°C | 4.1% | 0hPa | 2.7V | 00:00:00 | 01:28:29 | 00:00:00 | |
| OE3MUC-15 | 2026-09-05 06:31:13 | 49.99065 | 15.83187 | 264° | 2km/h | 20606m | 5.7m/s | -52.7°C | 4.1% | 0hPa | 2.7V | 00:00:00 | 00:00:00 | 00:00:00 | |
| SQ6EMJ | 2026-09-05 06:31:12 | 49.99065 | 15.83188 | 264° | 2km/h | 20600m | 5.9m/s | -52.7°C | 0.9% | 0hPa | 2.7V | 00:00:00 | 00:00:00 | 00:00:00 | |
| PG1ADW-2 | 2026-09-05 06:31:10 | 49.99065 | 15.83188 | 92° | 5km/h | 20588m | 4.3m/s | -52.4°C | 4.0% | 0hPa | 2.7V | 00:00:00 | 00:00:00 | 00:00:00 | |
| OE3MUC-15 | 2026-09-05 06:31:09 | 49.99065 | 15.83188 | 234° | 2km/h | 20583m | 5.3m/s | -52.4°C | 4.0% | 0hPa | 2.7V | 00:00:00 | 00:00:00 | 00:00:00 | |
| DO3MHA-11 | 2026-09-05 06:31:08 | 49.99066 | 15.83189 | 250° | 7km/h | 20577m | 7.6m/s | -52.4°C | 4.0% | 0hPa | 2.6V | 00:00:00 | 01:28:22 | 00:00:00 | |
| OE5MMP-10 | 2026-09-05 06:31:07 | 49.99066 | 15.83190 | 250° | 7km/h | 20571m | 4.4m/s | -52.3°C | 4.0% | 0hPa | 2.6V | 00:00:00 | 01:28:21 | 00:00:00 | |
| OE5DXL-15 | 2026-09-05 06:31:06 | 49.99066 | 15.83191 | 196° | 9km/h | 20566m | 5.2m/s | -52.3°C | 4.0% | 0hPa | 2.6V | 00:00:00 | 00:00:00 | 00:00:00 | |
| OE3MUC-15 | 2026-09-05 06:31:05 | 49.99067 | 15.83191 | 143° | 7km/h | 20560m | 6.7m/s | -52.2°C | 4.0% | 0hPa | 2.6V | 00:00:00 | 00:00:00 | 00:00:00 | |
| KRY50SP | 2026-09-05 06:31:04 | 49.99067 | 15.83191 | 143° | 4km/h | 20560m | 6.7m/s | -52.3°C | 0.9% | 0hPa | 2.6V | 00:00:00 | 00:00:00 | 00:00:00 | |
| EDDB2-12 | 2026-09-05 06:30:57 | 49.99082 | 15.83184 | 120° | 5km/h | 20511m | 5.5m/s | -52.0°C | 0.7% | -1.0hPa | 2.6V | 00:00:00 | 00:00:00 | 00:00:00 | |
| SONDE2-11 | 2026-09-05 06:30:56 | 49.99083 | 15.83182 | 103° | 4km/h | 20506m | 5.6m/s | -52.0°C | 0.7% | -1.0hPa | 2.6V | 00:00:00 | 00:00:00 | 00:00:00 | |
| SQ6EMJ | 2026-09-05 06:30:54 | 49.99083 | 15.83180 | 102° | 2km/h | 20499m | 7.9m/s | -52.0°C | 0.8% | 0hPa | 2.6V | 00:00:00 | 00:00:00 | 00:00:00 | |
| OE3MUC-15 | 2026-09-05 06:30:53 | 49.99083 | 15.83179 | 51° | 4km/h | 20487m | 6.2m/s | -51.8°C | 3.8% | 0hPa | 2.6V | 00:00:00 | 00:00:00 | 00:00:00 | |
| PG1ADW-2 | 2026-09-05 06:30:50 | 49.99083 | 15.83176 | 153° | 15km/h | 20468m | 5.7m/s | -51.8°C | 3.8% | 0hPa | 2.6V | 00:00:00 | 00:00:00 | 00:00:00 | |
| NBG1-10 | 2026-09-05 06:30:49 | 49.99084 | 15.83175 | 178° | 37km/h | 20462m | 6.7m/s | -51.7°C | 3.7% | 0hPa | 2.6V | 00:00:00 | 01:28:03 | 00:00:00 | |
| DO3MHA-11 | 2026-09-05 06:30:48 | 49.99087 | 15.83175 | 182° | 16km/h | 20456m | 5.0m/s | -51.7°C | 3.8% | 0hPa | 2.6V | 00:00:00 | 01:28:02 | 00:00:00 | |
| OE5MMP-10 | 2026-09-05 06:30:47 | 49.99090 | 15.83175 | 170° | 16km/h | 20451m | 5.8m/s | -51.7°C | 3.8% | 0hPa | 2.6V | 00:00:00 | 01:28:01 | 00:00:00 | |
| PETON7-10 | 2026-09-05 06:30:45 | 49.99097 | 15.83170 | 141° | 16km/h | 20437m | 5.8m/s | -51.7°C | 3.8% | 0hPa | 2.7V | 00:00:00 | 00:00:00 | 00:00:00 | |
| OK1ALN | 2026-09-05 06:30:44 | 49.99097 | 15.83170 | 141° | 16km/h | 20437m | 5.8m/s | -51.7°C | 0.8% | 0hPa | 2.7V | 00:00:00 | 00:00:00 | 00:00:00 | |
| KRY50SP | 2026-09-05 06:30:42 | 49.99103 | 15.83161 | 140° | 18km/h | 20426m | 6.9m/s | -51.7°C | 0.8% | 0hPa | 2.7V | 00:00:00 | 00:00:00 | 00:00:00 | |
| OE3MUC-15 | 2026-09-05 06:30:41 | 49.99110 | 15.83152 | 142° | 15km/h | 20414m | 5.4m/s | -51.7°C | 3.8% | 0hPa | 2.7V | 00:00:00 | 00:00:00 | 00:00:00 | |
| OE5DRO-10 | 2026-09-05 06:30:40 | 49.99113 | 15.83148 | 137° | 22km/h | 20408m | 6.3m/s | -51.7°C | 3.8% | 0hPa | 2.7V | 00:00:00 | 00:00:00 | 00:00:00 | |
| DO3MHA-11 | 2026-09-05 06:30:38 | 49.99118 | 15.83139 | 121° | 18km/h | 20397m | 4.4m/s | -51.7°C | 3.7% | 0hPa | 2.6V | 00:00:00 | 01:27:52 | 00:00:00 | |
| POL2MAQ | 2026-09-05 06:30:37 | 49.99119 | 15.83134 | 130° | 13km/h | 20391m | 6.0m/s | -51.7°C | 0.8% | 0hPa | 2.6V | 00:00:00 | 00:00:00 | 00:00:00 | |
| OE5DXL-15 | 2026-09-05 06:30:36 | 49.99122 | 15.83131 | 146° | 24km/h | 20385m | 6.6m/s | -51.7°C | 3.7% | 0hPa | 2.6V | 00:00:00 | 00:00:00 | 00:00:00 | |
| KRY50SP | 2026-09-05 06:30:35 | 49.99122 | 15.83131 | 147° | 15km/h | 20385m | 6.6m/s | -51.7°C | 0.8% | 0hPa | 2.6V | 00:00:00 | 00:00:00 | 00:00:00 | |
| EDDB2-11 | 2026-09-05 06:30:32 | 49.99135 | 15.83116 | 130° | 18km/h | 20362m | 4.9m/s | -51.8°C | 0.7% | -1.0hPa | 2.6V | 00:00:00 | 00:00:00 | 00:00:00 | |
| OK1SLM-15 | 2026-09-05 06:30:31 | 49.99134 | 15.83116 | 131° | 18km/h | 20362m | 4.9m/s | -51.8°C | 0.8% | 0hPa | 2.6V | 00:00:00 | 00:00:00 | 00:00:00 | |
| PG1ADW-2 | 2026-09-05 06:30:30 | 49.99141 | 15.83103 | 130° | 26km/h | 20350m | 6.0m/s | -51.8°C | 3.8% | 0hPa | 2.6V | 00:00:00 | 00:00:00 | 00:00:00 | |
| OE3MUC-15 | 2026-09-05 06:30:29 | 49.99145 | 15.83095 | 124° | 33km/h | 20345m | 4.6m/s | -51.9°C | 3.8% | 0hPa | 2.7V | 00:00:00 | 00:00:00 | 00:00:00 | |
| DO3MHA-11 | 2026-09-05 06:30:28 | 49.99149 | 15.83084 | 119° | 27km/h | 20339m | 6.6m/s | -51.9°C | 3.8% | 0hPa | 2.7V | 00:00:00 | 01:27:42 | 00:00:00 | |
| OE5MMP-10 | 2026-09-05 06:30:27 | 49.99153 | 15.83073 | 115° | 26km/h | 20333m | 5.8m/s | -51.9°C | 3.8% | 0hPa | 2.7V | 00:00:00 | 01:27:41 | 00:00:00 | |
| EDDB2-12 | 2026-09-05 06:30:26 | 49.99157 | 15.83061 | 113° | 33km/h | 20328m | 4.5m/s | -52.0°C | 0.7% | -1.0hPa | 2.7V | 00:00:00 | 00:00:00 | 00:00:00 | |
| OE3MUC-15 | 2026-09-05 06:30:25 | 49.99160 | 15.83049 | 119° | 29km/h | 20323m | 6.5m/s | -51.9°C | 3.8% | 0hPa | 2.7V | 00:00:00 | 00:00:00 | 00:00:00 | |
| HA6NAB-11 | 2026-09-05 06:30:24 | 49.99160 | 15.83049 | 119° | 33km/h | 20323m | 6.6m/s | -52.0°C | 0.8% | 0hPa | 2.7V | 00:00:00 | 00:00:00 | 00:00:00 | |
| SQ6EMJ | 2026-09-05 06:30:21 | 49.99174 | 15.83013 | 122° | 20km/h | 20299m | 4.8m/s | -51.9°C | 0.8% | 0hPa | 2.7V | 00:00:00 | 00:00:00 | 00:00:00 | |
| KRY50SP | 2026-09-05 06:30:20 | 49.99174 | 15.83013 | 122° | 20km/h | 20299m | 4.8m/s | -51.9°C | 0.8% | 0hPa | 2.7V | 00:00:00 | 00:00:00 | 00:00:00 | |
| DO3MHA-11 | 2026-09-05 06:30:18 | 49.99183 | 15.82995 | 123° | 26km/h | 20283m | 3.8m/s | -51.8°C | 3.8% | 0hPa | 2.7V | 00:00:00 | 01:27:32 | 00:00:00 | |
| OE5MMP-10 | 2026-09-05 06:30:17 | 49.99185 | 15.82989 | 115° | 24km/h | 20278m | 5.7m/s | -51.9°C | 3.8% | 0hPa | 2.7V | 00:00:00 | 01:27:31 | 00:00:00 | |
| SQ6EMJ | 2026-09-05 06:30:16 | 49.99187 | 15.82982 | 106° | 16km/h | 20272m | 5.7m/s | -51.9°C | 0.8% | 0hPa | 2.7V | 00:00:00 | 00:00:00 | 00:00:00 | |
| PETON7-10 | 2026-09-05 06:30:15 | 49.99188 | 15.82975 | 100° | 20km/h | 20267m | 4.9m/s | -52.0°C | 3.8% | 0hPa | 2.7V | 00:00:00 | 00:00:00 | 00:00:00 | |
| KRY50SP | 2026-09-05 06:30:14 | 49.99187 | 15.82975 | 100° | 20km/h | 20267m | 5.0m/s | -52.0°C | 0.8% | 0hPa | 2.7V | 00:00:00 | 00:00:00 | 00:00:00 | |
| OE3MUC-15 | 2026-09-05 06:30:13 | 49.99190 | 15.82958 | 105° | 29km/h | 20255m | 5.0m/s | -52.0°C | 3.8% | 0hPa | 2.7V | 00:00:00 | 00:00:00 | 00:00:00 | |
| PG1ADW-2 | 2026-09-05 06:30:10 | 49.99195 | 15.82925 | 97° | 18km/h | 20241m | 5.5m/s | -52.0°C | 3.8% | 0hPa | 2.7V | 00:00:00 | 01:27:24 | 00:00:00 | |
| OE3MUC-15 | 2026-09-05 06:30:09 | 49.99195 | 15.82914 | 95° | 26km/h | 20236m | 4.9m/s | -52.0°C | 3.8% | 0hPa | 2.7V | 00:00:00 | 00:00:00 | 08:30:00 | |
| DO3MHA-11 | 2026-09-05 06:30:08 | 49.99196 | 15.82903 | 101° | 15km/h | 20230m | 5.2m/s | -52.0°C | 3.8% | 0hPa | 2.6V | 00:00:00 | 01:27:22 | 00:00:00 | |
| OE5MMP-10 | 2026-09-05 06:30:07 | 49.99198 | 15.82893 | 109° | 15km/h | 20225m | 5.4m/s | -52.0°C | 3.8% | 0hPa | 2.6V | 00:00:00 | 01:27:21 | 00:00:00 | |
| OE5DXL-15 | 2026-09-05 06:30:06 | 49.99200 | 15.82885 | 115° | 20km/h | 20220m | 4.0m/s | -52.0°C | 3.8% | 0hPa | 2.6V | 00:00:00 | 00:00:00 | 00:00:00 | |
| SQ6EMJ | 2026-09-05 06:30:05 | 49.99202 | 15.82879 | 119° | 15km/h | 20216m | 5.2m/s | -52.2°C | 0.8% | 0hPa | 2.7V | 00:00:00 | 00:00:00 | 00:00:00 | |
| OK1ALN | 2026-09-05 06:30:03 | 49.99203 | 15.82875 | 117° | 9km/h | 20210m | 6.3m/s | -52.2°C | 0.8% | 0hPa | 2.7V | 00:00:00 | 00:00:00 | 00:00:00 | |
| KRY50SP | 2026-09-05 06:30:02 | 49.99204 | 15.82872 | 109° | 7km/h | 20205m | 4.9m/s | -52.1°C | 0.8% | 0hPa | 2.7V | 00:00:00 | 00:00:00 | 00:00:00 | |
| EDDB2-11 | 2026-09-05 06:30:01 | 49.99205 | 15.82867 | 103° | 7km/h | 20194m | 5.8m/s | -52.1°C | 0.7% | -1.0hPa | 2.7V | 00:00:00 | 00:00:00 | 00:00:00 | |
| EDDB2-12 | 2026-09-05 06:29:55 | 49.99204 | 15.82813 | 86° | 24km/h | 20155m | 4.4m/s | -51.8°C | 0.7% | -1.0hPa | 2.7V | 00:00:00 | 00:00:00 | 00:00:00 | |
| SONDE2-11 | 2026-09-05 06:29:54 | 49.99204 | 15.82813 | 86° | 24km/h | 20155m | 4.4m/s | -51.8°C | 0.7% | -1.0hPa | 2.7V | 00:00:00 | 00:00:00 | 00:00:00 | |
| OE3MUC-15 | 2026-09-05 06:29:53 | 49.99203 | 15.82804 | 82° | 16km/h | 20150m | 5.6m/s | -51.8°C | 3.7% | 0hPa | 2.7V | 00:00:00 | 00:00:00 | 00:00:00 | |
| SP3BTT-10 | 2026-09-05 06:29:52 | 49.99202 | 15.82796 | 77° | 24km/h | 20145m | 5.0m/s | -51.7°C | 3.7% | 0hPa | 2.7V | 00:00:00 | 00:00:00 | 00:00:00 | |
| PG1ADW-2 | 2026-09-05 06:29:50 | 49.99201 | 15.82784 | 90° | 24km/h | 20135m | 6.2m/s | -51.7°C | 3.6% | 0hPa | 2.7V | 00:00:00 | 00:00:00 | 00:00:00 | |
| OE3MUC-15 | 2026-09-05 06:29:49 | 49.99202 | 15.82780 | 110° | 13km/h | 20129m | 6.0m/s | -51.8°C | 3.6% | 0hPa | 2.7V | 00:00:00 | 00:00:00 | 00:00:00 | |
| DO3MHA-11 | 2026-09-05 06:29:48 | 49.99203 | 15.82775 | 120° | 24km/h | 20124m | 5.3m/s | -51.9°C | 3.7% | 0hPa | 2.7V | 00:00:00 | 01:27:02 | 00:00:00 | |
| OE5MMP-10 | 2026-09-05 06:29:47 | 49.99205 | 15.82771 | 117° | 26km/h | 20118m | 5.0m/s | -52.0°C | 3.7% | 0hPa | 2.7V | 00:00:00 | 01:27:01 | 08:30:00 | |
| DB0UT-7 | 2026-09-05 06:29:46 | 49.99206 | 15.82766 | 106° | 33km/h | 20113m | 6.3m/s | -52.0°C | 3.7% | 0hPa | 2.7V | 00:00:00 | 01:27:00 | 00:00:00 | |
| PETON7-10 | 2026-09-05 06:29:45 | 49.99206 | 15.82760 | 92° | 27km/h | 20107m | 4.3m/s | -52.0°C | 3.7% | 0hPa | 2.7V | 00:00:00 | 01:26:59 | 00:00:00 | |
| OE5DRO-10 | 2026-09-05 06:29:43 | 49.99206 | 15.82745 | 96° | 29km/h | 20097m | 6.8m/s | -52.2°C | 3.8% | 0hPa | 2.7V | 00:00:00 | 00:00:00 | 08:30:00 | |
| OK1ALN | 2026-09-05 06:29:42 | 49.99206 | 15.82745 | 96° | 24km/h | 20097m | 6.8m/s | -52.3°C | 0.8% | 0hPa | 2.6V | 00:00:00 | 00:00:00 | 00:00:00 | |
| SQ6EMJ | 2026-09-05 06:29:39 | 49.99211 | 15.82695 | 94° | 35km/h | 20074m | 5.5m/s | -52.4°C | 0.8% | 0hPa | 2.6V | 00:00:00 | 00:00:00 | 00:00:00 | |
| DO3MHA-11 | 2026-09-05 06:29:38 | 49.99211 | 15.82682 | 94° | 27km/h | 20068m | 4.7m/s | -52.3°C | 3.8% | 0hPa | 2.6V | 00:00:00 | 01:26:52 | 00:00:00 | |
| OE5MMP-10 | 2026-09-05 06:29:37 | 49.99212 | 15.82669 | 99° | 26km/h | 20063m | 6.2m/s | -52.3°C | 3.8% | 0hPa | 2.6V | 00:00:00 | 01:26:51 | 00:00:00 | |
| OE5DXL-15 | 2026-09-05 06:29:36 | 49.99213 | 15.82656 | 101° | 29km/h | 20057m | 4.2m/s | -52.3°C | 3.8% | 0hPa | 2.6V | 00:00:00 | 00:00:00 | 00:00:00 | |
| POL2MAQ | 2026-09-05 06:29:33 | 49.99215 | 15.82634 | 91° | 26km/h | 20047m | 6.2m/s | -52.4°C | 0.8% | 0hPa | 2.6V | 00:00:00 | 00:00:00 | 00:00:00 | |
| KRY50SP | 2026-09-05 06:29:31 | 49.99215 | 15.82616 | 90° | 22km/h | 20037m | 5.3m/s | -52.5°C | 0.8% | 0hPa | 2.6V | 00:00:00 | 00:00:00 | 00:00:00 | |
| PETON7-10 | 2026-09-05 06:29:30 | 49.99216 | 15.82599 | 98° | 29km/h | 20026m | 4.3m/s | -52.5°C | 3.8% | 0hPa | 2.6V | 00:00:00 | 00:00:00 | 08:30:00 | |
| DO3MHA-11 | 2026-09-05 06:29:28 | 49.99216 | 15.82580 | 86° | 33km/h | 20016m | 5.5m/s | -52.6°C | 3.8% | 0hPa | 2.7V | 00:00:00 | 01:26:42 | 00:00:00 | |
| OE5MMP-10 | 2026-09-05 06:29:27 | 49.99215 | 15.82568 | 84° | 31km/h | 20011m | 4.0m/s | -52.6°C | 3.8% | 0hPa | 2.7V | 00:00:00 | 01:26:41 | 00:00:00 | |
| KRY50SP | 2026-09-05 06:29:25 | 49.99214 | 15.82556 | 85° | 33km/h | 20006m | 5.5m/s | -52.6°C | 0.8% | 0hPa | 2.7V | 00:00:00 | 00:00:00 | 00:00:00 | |
| OE5DRO-10 | 2026-09-05 06:29:24 | 49.99213 | 15.82529 | 90° | 29km/h | 19995m | 5.1m/s | -52.6°C | 3.8% | 0hPa | 2.7V | 00:00:00 | 00:00:00 | 00:00:00 | |
| 13BRC | 2026-09-05 06:29:23 | 49.99213 | 15.82516 | 90° | 35km/h | 19991m | 3.7m/s | -52.7°C | 0.9% | 0hPa | 2.7V | 00:00:00 | 00:00:00 | 00:00:00 | |
| OE3MUC-15 | 2026-09-05 06:29:21 | 49.99212 | 15.82488 | 82° | 29km/h | 19981m | 5.7m/s | -52.9°C | 3.9% | 0hPa | 2.7V | 00:00:00 | 00:00:00 | 00:00:00 | |
| OK1SLM-15 | 2026-09-05 06:29:20 | 49.99212 | 15.82488 | 83° | 35km/h | 19981m | 5.8m/s | -52.9°C | 0.9% | 0hPa | 2.7V | 00:00:00 | 00:00:00 | 00:00:00 | |
| KRY50SP | 2026-09-05 06:29:19 | 49.99210 | 15.82476 | 80° | 31km/h | 19975m | 4.1m/s | -53.0°C | 0.9% | 0hPa | 2.7V | 00:00:00 | 00:00:00 | 00:00:00 | |
| SQ6EMJ | 2026-09-05 06:29:17 | 49.99207 | 15.82446 | 79° | 22km/h | 19959m | 4.6m/s | -53.2°C | 0.9% | 0hPa | 2.7V | 00:00:00 | 00:00:00 | 00:00:00 | |
| OK1SLM-15 | 2026-09-05 06:29:15 | 49.99204 | 15.82429 | 75° | 22km/h | 19948m | 4.9m/s | -53.3°C | 0.9% | 0hPa | 2.7V | 00:00:00 | 00:00:00 | 00:00:00 | |
| POL2MAQ | 2026-09-05 06:29:13 | 49.99201 | 15.82412 | 85° | 22km/h | 19937m | 6.2m/s | -53.4°C | 0.9% | 0hPa | 2.7V | 00:00:00 | 00:00:00 | 00:00:00 | |
| HA6NAB-11 | 2026-09-05 06:29:12 | 49.99201 | 15.82412 | 85° | 22km/h | 19937m | 6.2m/s | -53.4°C | 0.9% | 0hPa | 2.7V | 00:00:00 | 00:00:00 | 00:00:00 | |
| SQ6EMJ | 2026-09-05 06:29:11 | 49.99201 | 15.82402 | 87° | 26km/h | 19931m | 4.9m/s | -53.5°C | 0.9% | 0hPa | 2.7V | 00:00:00 | 00:00:00 | 00:00:00 | |
| PG1ADW-2 | 2026-09-05 06:29:10 | 49.99199 | 15.82379 | 82° | 31km/h | 19920m | 5.3m/s | -53.6°C | 4.0% | 0hPa | 2.7V | 00:00:00 | 00:00:00 | 00:00:00 | |
| OE3MUC-15 | 2026-09-05 06:29:09 | 49.99198 | 15.82366 | 83° | 37km/h | 19916m | 3.1m/s | -53.7°C | 4.0% | 0hPa | 2.7V | 00:00:00 | 01:26:23 | 00:00:00 | |
| OE3OSB-13 | 2026-09-05 06:29:08 | 49.99196 | 15.82336 | 88° | 37km/h | 19906m | 6.9m/s | -53.9°C | 0.8% | -1.0hPa | 2.6V | 00:00:00 | 00:00:00 | 00:00:00 | |
| SP3BTT-10 | 2026-09-05 06:29:07 | 49.99196 | 15.82336 | 89° | 38km/h | 19906m | 6.9m/s | -53.8°C | 4.1% | 0hPa | 2.6V | 00:00:00 | 00:00:00 | 08:30:00 | |
| OE5DXL-15 | 2026-09-05 06:29:06 | 49.99196 | 15.82323 | 94° | 35km/h | 19900m | 5.3m/s | -53.9°C | 4.1% | 0hPa | 2.6V | 00:00:00 | 00:00:00 | 00:00:00 | |
| OE3MUC-15 | 2026-09-05 06:29:05 | 49.99197 | 15.82310 | 95° | 26km/h | 19895m | 4.0m/s | -53.9°C | 4.1% | 0hPa | 2.6V | 00:00:00 | 00:00:00 | 00:00:00 | |
| S52SK | 2026-09-05 06:29:04 | 49.99197 | 15.82310 | 96° | 29km/h | 19895m | 4.0m/s | -54.0°C | 0.9% | 0hPa | 2.6V | 00:00:00 | 00:00:00 | 00:00:00 | |
| EDDB2-11 | 2026-09-05 06:28:59 | 49.99205 | 15.82247 | 112° | 26km/h | 19857m | 5.6m/s | -54.3°C | 0.8% | -1.0hPa | 2.6V | 00:00:00 | 00:00:00 | 00:00:00 | |
| EDDB2-12 | 2026-09-05 06:28:53 | 49.99218 | 15.82189 | 119° | 35km/h | 19829m | 5.7m/s | -54.3°C | 0.8% | -1.0hPa | 2.6V | 00:00:00 | 00:00:00 | 00:00:00 | |
| SONDE2-11 | 2026-09-05 06:28:52 | 49.99222 | 15.82176 | 120° | 37km/h | 19824m | 4.9m/s | -54.3°C | 0.8% | -1.0hPa | 2.6V | 00:00:00 | 00:00:00 | 00:00:00 | |
| PG1ADW-2 | 2026-09-05 06:28:50 | 49.99231 | 15.82151 | 116° | 38km/h | 19813m | 6.1m/s | -54.3°C | 4.2% | 0hPa | 2.6V | 00:00:00 | 01:26:04 | 00:00:00 | |
| OE3MUC-15 | 2026-09-05 06:28:49 | 49.99235 | 15.82137 | 115° | 37km/h | 19807m | 4.6m/s | -54.3°C | 4.2% | 0hPa | 2.6V | 00:00:00 | 00:00:00 | 00:00:00 | |
| SQ6EMJ | 2026-09-05 06:28:48 | 49.99239 | 15.82124 | 118° | 37km/h | 19802m | 6.3m/s | -54.3°C | 1.0% | 0hPa | 2.6V | 00:00:00 | 00:00:00 | 00:00:00 | |
| OE5MMP-10 | 2026-09-05 06:28:47 | 49.99243 | 15.82112 | 121° | 33km/h | 19796m | 4.8m/s | -54.3°C | 4.2% | 0hPa | 2.6V | 00:00:00 | 01:26:01 | 00:00:00 | |
| OE5DRO-10 | 2026-09-05 06:28:46 | 49.99248 | 15.82100 | 121° | 38km/h | 19792m | 3.9m/s | -54.4°C | 4.3% | 0hPa | 2.6V | 00:00:00 | 00:00:00 | 00:00:00 | |
| PETON7-10 | 2026-09-05 06:28:45 | 49.99252 | 15.82088 | 119° | 38km/h | 19787m | 5.5m/s | -54.5°C | 4.3% | 0hPa | 2.7V | 00:00:00 | 00:00:00 | 00:00:00 | |
| OK1SLM-15 | 2026-09-05 06:28:44 | 49.99251 | 15.82088 | 119° | 31km/h | 19787m | 5.6m/s | -54.6°C | 1.0% | 0hPa | 2.6V | 00:00:00 | 00:00:00 | 00:00:00 | |
| HA6NAB-11 | 2026-09-05 06:28:43 | 49.99255 | 15.82078 | 120° | 29km/h | 19782m | 4.1m/s | -54.5°C | 1.0% | 0hPa | 2.6V | 00:00:00 | 00:00:00 | 00:00:00 | |
| SQ6EMJ | 2026-09-05 06:28:42 | 49.99260 | 15.82068 | 127° | 29km/h | 19778m | 4.6m/s | -54.6°C | 0.9% | 0hPa | 2.6V | 00:00:00 | 00:00:00 | 00:00:00 | |
| OE3MUC-15 | 2026-09-05 06:28:41 | 49.99269 | 15.82049 | 132° | 35km/h | 19768m | 4.1m/s | -54.6°C | 4.3% | 0hPa | 2.6V | 00:00:00 | 00:00:00 | 00:00:00 | |
| OK1ALN | 2026-09-05 06:28:40 | 49.99269 | 15.82049 | 132° | 33km/h | 19768m | 4.1m/s | -54.6°C | 1.0% | 0hPa | 2.6V | 00:00:00 | 00:00:00 | 00:00:00 | |
| DO3MHA-11 | 2026-09-05 06:28:38 | 49.99284 | 15.82015 | 119° | 44km/h | 19754m | 3.9m/s | -54.6°C | 4.3% | 0hPa | 2.6V | 00:00:00 | 01:25:52 | 00:00:00 | |
| OE5MMP-10 | 2026-09-05 06:28:37 | 49.99289 | 15.82001 | 118° | 44km/h | 19749m | 5.0m/s | -54.6°C | 4.3% | 0hPa | 2.6V | 00:00:00 | 01:25:51 | 00:00:00 | |
| SQ6EMJ | 2026-09-05 06:28:36 | 49.99289 | 15.82001 | 119° | 42km/h | 19749m | 5.0m/s | -54.6°C | 1.0% | 0hPa | 2.6V | 00:00:00 | 00:00:00 | 00:00:00 | |
| OE5DXL-15 | 2026-09-05 06:28:35 | 49.99299 | 15.81970 | 116° | 44km/h | 19739m | 4.1m/s | -54.5°C | 4.3% | 0hPa | 2.6V | 00:00:00 | 00:00:00 | 00:00:00 | |
| DB0UT-7 | 2026-09-05 06:28:34 | 49.99303 | 15.81953 | 113° | 44km/h | 19734m | 5.1m/s | -54.5°C | 4.3% | 0hPa | 2.7V | 00:00:00 | 00:00:00 | 00:00:00 | |
| OE3MUC-15 | 2026-09-05 06:28:33 | 49.99308 | 15.81936 | 108° | 42km/h | 19728m | 5.8m/s | -54.5°C | 4.2% | 0hPa | 2.7V | 00:00:00 | 00:00:00 | 00:00:00 | |
| HA6NAB-11 | 2026-09-05 06:28:31 | 49.99311 | 15.81919 | 105° | 44km/h | 19724m | 3.3m/s | -54.6°C | 1.0% | 0hPa | 2.6V | 00:00:00 | 00:00:00 | 00:00:00 | |
| PG1ADW-2 | 2026-09-05 06:28:30 | 49.99317 | 15.81888 | 110° | 44km/h | 19714m | 6.1m/s | -54.6°C | 4.2% | 0hPa | 2.6V | 00:00:00 | 00:00:00 | 08:30:00 | |
| OE3MUC-15 | 2026-09-05 06:28:28 | 49.99324 | 15.81859 | 115° | 42km/h | 19705m | 4.8m/s | -54.7°C | 4.2% | 0hPa | 2.7V | 00:00:00 | 00:00:00 | 00:00:00 | |
| OE5MMP-10 | 2026-09-05 06:28:27 | 49.99328 | 15.81845 | 114° | 46km/h | 19700m | 5.2m/s | -54.7°C | 4.3% | 0hPa | 2.7V | 00:00:00 | 01:25:41 | 00:00:00 | |
| SQ6EMJ | 2026-09-05 06:28:26 | 49.99332 | 15.81830 | 112° | 42km/h | 19694m | 4.8m/s | -54.9°C | 1.0% | 0hPa | 2.7V | 00:00:00 | 00:00:00 | 00:00:00 | |
| KRY50SP | 2026-09-05 06:28:25 | 49.99332 | 15.81830 | 112° | 42km/h | 19694m | 4.8m/s | -54.9°C | 0% | 0hPa | 2.7V | 00:00:00 | 00:00:00 | 00:00:00 | |
| OE3MUC-15 | 2026-09-05 06:28:24 | 49.99340 | 15.81798 | 112° | 46km/h | 19684m | 5.2m/s | -54.9°C | 4.4% | 0hPa | 2.7V | 00:00:00 | 00:00:00 | 00:00:00 | |
| SP3BTT-10 | 2026-09-05 06:28:23 | 49.99344 | 15.81781 | 108° | 49km/h | 19679m | 4.2m/s | -54.8°C | 4.4% | 0hPa | 2.7V | 00:00:00 | 00:00:00 | 00:00:00 | |
| EDDB2-12 | 2026-09-05 06:28:22 | 49.99349 | 15.81745 | 96° | 47km/h | 19668m | 5.0m/s | -54.8°C | 0.8% | -1.0hPa | 2.7V | 00:00:00 | 00:00:00 | 00:00:00 | |
| SONDE2-11 | 2026-09-05 06:28:21 | 49.99349 | 15.81745 | 96° | 47km/h | 19668m | 5.0m/s | -54.8°C | 0.8% | -1.0hPa | 2.7V | 00:00:00 | 00:00:00 | 00:00:00 | |
| OE3MUC-15 | 2026-09-05 06:28:20 | 49.99350 | 15.81726 | 96° | 47km/h | 19663m | 3.9m/s | -54.7°C | 4.3% | 0hPa | 2.7V | 00:00:00 | 00:00:00 | 08:30:00 | |
| KRY50SP | 2026-09-05 06:28:19 | 49.99350 | 15.81726 | 96° | 47km/h | 19663m | 4.0m/s | -54.8°C | 0% | 0hPa | 2.6V | 00:00:00 | 00:00:00 | 00:00:00 | |
| DO3MHA-11 | 2026-09-05 06:28:18 | 49.99353 | 15.81690 | 102° | 44km/h | 19653m | 4.6m/s | -54.7°C | 4.3% | 0hPa | 2.6V | 00:00:00 | 01:25:32 | 00:00:00 | |
| OE3MUC-15 | 2026-09-05 06:28:16 | 49.99358 | 15.81653 | 100° | 44km/h | 19644m | 5.3m/s | -54.7°C | 4.3% | 0hPa | 2.6V | 00:00:00 | 00:00:00 | 00:00:00 | |
| PETON7-10 | 2026-09-05 06:28:15 | 49.99359 | 15.81635 | 98° | 47km/h | 19638m | 5.3m/s | -54.8°C | 4.3% | 0hPa | 2.6V | 00:00:00 | 01:25:29 | 00:00:00 | |
| SQ6EMJ | 2026-09-05 06:28:14 | 49.99360 | 15.81635 | 98° | 46km/h | 19638m | 5.4m/s | -54.8°C | 1.0% | 0hPa | 2.6V | 00:00:00 | 00:00:00 | 00:00:00 | |
| HA6NAB-11 | 2026-09-05 06:28:13 | 49.99361 | 15.81618 | 98° | 44km/h | 19633m | 4.8m/s | -54.9°C | 1.0% | 0hPa | 2.6V | 00:00:00 | 00:00:00 | 00:00:00 | |
| OE3MUC-15 | 2026-09-05 06:28:12 | 49.99364 | 15.81586 | 101° | 40km/h | 19623m | 3.9m/s | -55.0°C | 4.3% | 0hPa | 2.6V | 00:00:00 | 00:00:00 | 00:00:00 | |
| PG1ADW-2 | 2026-09-05 06:28:10 | 49.99366 | 15.81555 | 92° | 53km/h | 19613m | 5.4m/s | -55.2°C | 4.4% | 0hPa | 2.6V | 00:00:00 | 00:00:00 | 00:00:00 | |
| SQ6EMJ | 2026-09-05 06:28:09 | 49.99366 | 15.81539 | 94° | 44km/h | 19608m | 3.5m/s | -55.3°C | 1.0% | 0hPa | 2.6V | 00:00:00 | 00:00:00 | 00:00:00 | |
| OE3MUC-15 | 2026-09-05 06:28:08 | 49.99367 | 15.81521 | 96° | 49km/h | 19604m | 5.2m/s | -55.3°C | 4.4% | 0hPa | 2.6V | 00:00:00 | 00:00:00 | 00:00:00 | |
| OE5MMP-10 | 2026-09-05 06:28:07 | 49.99368 | 15.81503 | 98° | 55km/h | 19598m | 5.7m/s | -55.3°C | 4.4% | 0hPa | 2.6V | 00:00:00 | 01:25:21 | 00:00:00 | |
| OE5DXL-15 | 2026-09-05 06:28:05 | 49.99372 | 15.81464 | 97° | 53km/h | 19588m | 4.7m/s | -55.5°C | 4.6% | 0hPa | 2.6V | 00:00:00 | 00:00:00 | 00:00:00 | |
| DB0UT-7 | 2026-09-05 06:28:04 | 49.99373 | 15.81443 | 94° | 46km/h | 19582m | 6.1m/s | -55.6°C | 4.6% | 0hPa | 2.6V | 00:00:00 | 01:25:18 | 00:00:00 | |
| SQ6EMJ | 2026-09-05 06:28:03 | 49.99373 | 15.81443 | 94° | 55km/h | 19582m | 6.1m/s | -55.7°C | 1.0% | 0hPa | 2.6V | 00:00:00 | 00:00:00 | 00:00:00 | |
| EDDB2-11 | 2026-09-05 06:27:57 | 49.99363 | 15.81264 | 82° | 53km/h | 19540m | 5.5m/s | -55.4°C | 0.9% | -1.0hPa | 2.6V | 00:00:00 | 00:00:00 | 00:00:00 | |
| EDDB2-12 | 2026-09-05 06:27:51 | 49.99352 | 15.81140 | 90° | 55km/h | 19508m | 4.5m/s | -55.3°C | 0.9% | -1.0hPa | 2.6V | 00:00:00 | 00:00:00 | 00:00:00 | |
| PG1ADW-2 | 2026-09-05 06:27:50 | 49.99352 | 15.81140 | 91° | 49km/h | 19508m | 4.5m/s | -55.2°C | 4.6% | 0hPa | 2.6V | 00:00:00 | 00:00:00 | 00:00:00 | |
| OE5DRO-10 | 2026-09-05 06:27:49 | 49.99352 | 15.81119 | 89° | 49km/h | 19504m | 5.0m/s | -55.2°C | 4.5% | 0hPa | 2.6V | 00:00:00 | 00:00:00 | 00:00:00 | |
| OE3MUC-15 | 2026-09-05 06:27:48 | 49.99351 | 15.81098 | 87° | 49km/h | 19498m | 6.1m/s | -55.1°C | 4.5% | 0hPa | 2.6V | 00:00:00 | 00:00:00 | 00:00:00 | |
| OE5MMP-10 | 2026-09-05 06:27:47 | 49.99351 | 15.81079 | 88° | 49km/h | 19493m | 4.5m/s | -55.1°C | 4.5% | 0hPa | 2.6V | 00:00:00 | 01:25:01 | 00:00:00 | |
| SQ6EMJ | 2026-09-05 06:27:46 | 49.99351 | 15.81079 | 88° | 49km/h | 19493m | 4.5m/s | -55.2°C | 1.0% | 0hPa | 2.7V | 00:00:00 | 00:00:00 | 00:00:00 | |
| PETON7-10 | 2026-09-05 06:27:45 | 49.99349 | 15.81042 | 87° | 47km/h | 19482m | 4.9m/s | -55.0°C | 4.5% | 0hPa | 2.7V | 00:00:00 | 00:00:00 | 00:00:00 | |
| OE3MUC-15 | 2026-09-05 06:27:44 | 49.99348 | 15.81024 | 83° | 47km/h | 19476m | 5.3m/s | -55.0°C | 4.5% | 0hPa | 2.7V | 00:00:00 | 00:00:00 | 08:30:00 | |
| 13BRC | 2026-09-05 06:27:40 | 49.99340 | 15.80950 | 82° | 53km/h | 19456m | 6.3m/s | -54.9°C | 1.0% | 0hPa | 2.6V | 00:00:00 | 00:00:00 | 00:00:00 | |
| DO3MHA-11 | 2026-09-05 06:27:38 | 49.99337 | 15.80906 | 87° | 46km/h | 19446m | 3.9m/s | -54.7°C | 4.4% | 0hPa | 2.6V | 00:00:00 | 01:24:52 | 00:00:00 | |
| OE5MMP-10 | 2026-09-05 06:27:37 | 49.99335 | 15.80883 | 85° | 44km/h | 19441m | 5.4m/s | -54.7°C | 4.4% | 0hPa | 2.6V | 00:00:00 | 01:24:51 | 00:00:00 | |
| NBG1-10 | 2026-09-05 06:27:35 | 49.99332 | 15.80842 | 84° | 47km/h | 19430m | 4.3m/s | -54.6°C | 4.3% | 0hPa | 2.6V | 00:00:00 | 01:24:49 | 08:30:00 | |
| OE5DXL-15 | 2026-09-05 06:27:34 | 49.99331 | 15.80824 | 86° | 46km/h | 19425m | 4.5m/s | -54.5°C | 4.3% | 0hPa | 2.7V | 00:00:00 | 00:00:00 | 00:00:00 | |
| HA6NAB-11 | 2026-09-05 06:27:31 | 49.99330 | 15.80791 | 90° | 38km/h | 19415m | 4.8m/s | -54.6°C | 1.0% | 0hPa | 2.7V | 00:00:00 | 00:00:00 | 00:00:00 | |
| SQ6EMJ | 2026-09-05 06:27:30 | 49.99329 | 15.80763 | 89° | 37km/h | 19403m | 5.4m/s | -54.5°C | 0.9% | 0hPa | 2.7V | 00:00:00 | 00:00:00 | 00:00:00 | |
| OK1SLM-15 | 2026-09-05 06:27:29 | 49.99329 | 15.80763 | 89° | 37km/h | 19403m | 5.4m/s | -54.5°C | 0.9% | 0hPa | 2.7V | 00:00:00 | 00:00:00 | 00:00:00 | |
| DO3MHA-11 | 2026-09-05 06:27:28 | 49.99329 | 15.80733 | 89° | 51km/h | 19393m | 6.4m/s | -54.5°C | 4.3% | 0hPa | 2.7V | 00:00:00 | 01:24:42 | 00:00:00 | |
| OE5MMP-10 | 2026-09-05 06:27:27 | 49.99329 | 15.80716 | 90° | 51km/h | 19387m | 4.9m/s | -54.5°C | 4.3% | 0hPa | 2.7V | 00:00:00 | 01:24:41 | 00:00:00 | |
| EDDB2-11 | 2026-09-05 06:27:26 | 49.99328 | 15.80677 | 85° | 51km/h | 19377m | 6.6m/s | -54.5°C | 0.8% | -1.0hPa | 2.7V | 00:00:00 | 00:00:00 | 00:00:00 | |
| OK1SLM-15 | 2026-09-05 06:27:24 | 49.99328 | 15.80677 | 86° | 51km/h | 19377m | 6.6m/s | -54.5°C | 1.0% | 0hPa | 2.7V | 00:00:00 | 00:00:00 | 00:00:00 | |
| KRY50SP | 2026-09-05 06:27:21 | 49.99324 | 15.80594 | 91° | 55km/h | 19356m | 6.2m/s | -54.6°C | 0% | 0hPa | 2.7V | 00:00:00 | 00:00:00 | 00:00:00 | |
| SQ6EMJ | 2026-09-05 06:27:20 | 49.99325 | 15.80573 | 96° | 51km/h | 19350m | 5.1m/s | -54.6°C | 1.0% | 0hPa | 2.7V | 00:00:00 | 00:00:00 | 00:00:00 | |
| OE3MUC-15 | 2026-09-05 06:27:19 | 49.99326 | 15.80554 | 96° | 44km/h | 19345m | 4.8m/s | -54.5°C | 4.2% | 0hPa | 2.7V | 00:00:00 | 00:00:00 | 00:00:00 | |
| DO3MHA-11 | 2026-09-05 06:27:18 | 49.99327 | 15.80535 | 97° | 42km/h | 19340m | 6.0m/s | -54.5°C | 4.2% | 0hPa | 2.6V | 00:00:00 | 01:24:32 | 00:00:00 | |
| OE5MMP-10 | 2026-09-05 06:27:17 | 49.99328 | 15.80518 | 96° | 44km/h | 19333m | 5.4m/s | -54.5°C | 4.2% | 0hPa | 2.6V | 00:00:00 | 01:24:31 | 00:00:00 | |
| PETON7-10 | 2026-09-05 06:27:15 | 49.99330 | 15.80487 | 100° | 44km/h | 19322m | 6.1m/s | -54.6°C | 4.2% | 0hPa | 2.7V | 00:00:00 | 00:00:00 | 08:30:00 | |
| SQ6EMJ | 2026-09-05 06:27:13 | 49.99332 | 15.80472 | 101° | 40km/h | 19317m | 4.7m/s | -54.7°C | 1.0% | 0hPa | 2.6V | 00:00:00 | 00:00:00 | 00:00:00 | |
| OE3MUC-15 | 2026-09-05 06:27:11 | 49.99335 | 15.80424 | 93° | 47km/h | 19300m | 4.3m/s | -54.7°C | 4.3% | 0hPa | 2.6V | 00:00:00 | 00:00:00 | 00:00:00 | |
| PG1ADW-2 | 2026-09-05 06:27:10 | 49.99336 | 15.80407 | 96° | 44km/h | 19294m | 6.7m/s | -54.8°C | 4.3% | 0hPa | 2.6V | 00:00:00 | 00:00:00 | 00:00:00 | |
| DO3MHA-11 | 2026-09-05 06:27:08 | 49.99339 | 15.80369 | 97° | 44km/h | 19282m | 5.6m/s | -54.9°C | 4.3% | 0hPa | 2.6V | 00:00:00 | 01:24:22 | 00:00:00 | |
| OE3MUC-15 | 2026-09-05 06:27:07 | 49.99340 | 15.80348 | 96° | 49km/h | 19276m | 6.6m/s | -55.0°C | 4.4% | 0hPa | 2.6V | 00:00:00 | 00:00:00 | 08:30:00 | |
| KRY50SP | 2026-09-05 06:27:05 | 49.99342 | 15.80328 | 97° | 51km/h | 19270m | 4.1m/s | -55.0°C | 0% | 0hPa | 2.7V | 00:00:00 | 00:00:00 | 00:00:00 | |
| OE5DXL-15 | 2026-09-05 06:27:04 | 49.99344 | 15.80291 | 99° | 42km/h | 19259m | 5.7m/s | -55.0°C | 4.3% | 0hPa | 2.7V | 00:00:00 | 00:00:00 | 08:30:00 | |
| OE3OSB-13 | 2026-09-05 06:27:03 | 49.99346 | 15.80274 | 98° | 40km/h | 19254m | 5.2m/s | -55.1°C | 0.9% | -1.0hPa | 2.6V | 00:00:00 | 00:00:00 | 00:00:00 | |
| EDDB2-11 | 2026-09-05 06:26:55 | 49.99357 | 15.80133 | 95° | 46km/h | 19207m | 4.2m/s | -55.2°C | 0.9% | -1.0hPa | 2.6V | 00:00:00 | 00:00:00 | 00:00:00 | |
| EDDB2-12 | 2026-09-05 06:26:49 | 49.99365 | 15.80035 | 102° | 38km/h | 19174m | 5.8m/s | -55.4°C | 0.9% | -1.0hPa | 2.6V | 00:00:00 | 00:00:00 | 00:00:00 | |
| SONDE2-11 | 2026-09-05 06:26:48 | 49.99368 | 15.80020 | 105° | 38km/h | 19168m | 5.6m/s | -55.3°C | 0.9% | -1.0hPa | 2.6V | 00:00:00 | 00:00:00 | 00:00:00 | |
| OE3MUC-15 | 2026-09-05 06:26:47 | 49.99368 | 15.80020 | 106° | 44km/h | 19169m | 5.5m/s | -55.3°C | 4.6% | 0hPa | 2.6V | 00:00:00 | 00:00:00 | 00:00:00 | |
| PETON7-10 | 2026-09-05 06:26:45 | 49.99374 | 15.79989 | 107° | 42km/h | 19159m | 5.4m/s | -55.3°C | 4.5% | 0hPa | 2.6V | 00:00:00 | 01:23:59 | 00:00:00 | |
| HA6NAB-11 | 2026-09-05 06:26:44 | 49.99373 | 15.79989 | 107° | 44km/h | 19159m | 5.5m/s | -55.3°C | 1.0% | 0hPa | 2.6V | 00:00:00 | 00:00:00 | 00:00:00 | |
| OE3MUC-15 | 2026-09-05 06:26:43 | 49.99379 | 15.79953 | 100° | 47km/h | 19148m | 4.5m/s | -55.2°C | 4.5% | 0hPa | 2.6V | 00:00:00 | 00:00:00 | 00:00:00 | |
| KRY50SP | 2026-09-05 06:26:42 | 49.99379 | 15.79953 | 101° | 49km/h | 19148m | 4.6m/s | -55.2°C | 0% | 0hPa | 2.7V | 00:00:00 | 00:00:00 | 00:00:00 | |
| OE3MUC-15 | 2026-09-05 06:26:39 | 49.99387 | 15.79881 | 102° | 40km/h | 19127m | 3.9m/s | -55.0°C | 4.4% | 0hPa | 2.7V | 00:00:00 | 00:00:00 | 00:00:00 | |
| DO3MHA-11 | 2026-09-05 06:26:38 | 49.99389 | 15.79865 | 96° | 37km/h | 19123m | 5.9m/s | -55.0°C | 4.4% | 0hPa | 2.7V | 00:00:00 | 01:23:52 | 00:00:00 | |
| OE5MMP-10 | 2026-09-05 06:26:37 | 49.99389 | 15.79849 | 94° | 37km/h | 19117m | 5.4m/s | -55.0°C | 4.4% | 0hPa | 2.7V | 00:00:00 | 01:23:51 | 00:00:00 | |
| OK1ALN | 2026-09-05 06:26:36 | 49.99389 | 15.79849 | 94° | 40km/h | 19117m | 5.4m/s | -55.0°C | 1.0% | 0hPa | 2.7V | 00:00:00 | 00:00:00 | 00:00:00 | |
| OE3MUC-15 | 2026-09-05 06:26:35 | 49.99390 | 15.79819 | 91° | 35km/h | 19105m | 6.7m/s | -54.9°C | 4.4% | 0hPa | 2.7V | 00:00:00 | 00:00:00 | 00:00:00 | |
| OE5DXL-15 | 2026-09-05 06:26:34 | 49.99390 | 15.79806 | 93° | 37km/h | 19099m | 5.3m/s | -54.9°C | 4.4% | 0hPa | 2.7V | 00:00:00 | 00:00:00 | 00:00:00 | |
| OE5DRO-10 | 2026-09-05 06:26:33 | 49.99390 | 15.79792 | 93° | 37km/h | 19094m | 4.3m/s | -54.9°C | 4.4% | 0hPa | 2.7V | 00:00:00 | 00:00:00 | 00:00:00 | |
| OE3OSB-13 | 2026-09-05 06:26:32 | 49.99390 | 15.79778 | 88° | 37km/h | 19089m | 6.6m/s | -54.9°C | 0.9% | -1.0hPa | 2.7V | 00:00:00 | 00:00:00 | 00:00:00 | |
| OE3MUC-15 | 2026-09-05 06:26:31 | 49.99390 | 15.79764 | 87° | 37km/h | 19083m | 4.8m/s | -54.8°C | 4.3% | 0hPa | 2.7V | 00:00:00 | 00:00:00 | 08:30:00 | |
| PG1ADW-2 | 2026-09-05 06:26:30 | 49.99389 | 15.79749 | 90° | 37km/h | 19078m | 4.7m/s | -54.9°C | 4.4% | 0hPa | 2.7V | 00:00:00 | 00:00:00 | 00:00:00 | |
| SQ6EMJ | 2026-09-05 06:26:29 | 49.99389 | 15.79749 | 91° | 37km/h | 19078m | 4.8m/s | -55.0°C | 1.0% | 0hPa | 2.6V | 00:00:00 | 00:00:00 | 00:00:00 | |
| DO3MHA-11 | 2026-09-05 06:26:28 | 49.99390 | 15.79721 | 95° | 38km/h | 19067m | 4.1m/s | -55.1°C | 4.5% | 0hPa | 2.6V | 00:00:00 | 01:23:42 | 00:00:00 | |
| OE3JTB-15 | 2026-09-05 06:26:27 | 49.99390 | 15.79706 | 93° | 47km/h | 19062m | 5.4m/s | -55.1°C | 4.5% | 0hPa | 2.6V | 00:00:00 | 01:23:41 | 00:00:00 | |
| KRY50SP | 2026-09-05 06:26:25 | 49.99390 | 15.79690 | 90° | 42km/h | 19056m | 5.2m/s | -55.1°C | 0% | 0hPa | 2.6V | 00:00:00 | 00:00:00 | 00:00:00 | |
| EDDB2-11 | 2026-09-05 06:26:24 | 49.99389 | 15.79641 | 88° | 38km/h | 19039m | 5.7m/s | -55.0°C | 0.9% | -1.0hPa | 2.6V | 00:00:00 | 00:00:00 | 00:00:00 | |
| OE3MUC-15 | 2026-09-05 06:26:23 | 49.99389 | 15.79640 | 89° | 38km/h | 19040m | 5.6m/s | -54.9°C | 4.5% | 0hPa | 2.6V | 00:00:00 | 00:00:00 | 00:00:00 | |
| DB0UT-7 | 2026-09-05 06:26:21 | 49.99388 | 15.79610 | 86° | 27km/h | 19029m | 6.2m/s | -54.8°C | 4.5% | 0hPa | 2.6V | 00:00:00 | 01:23:35 | 00:00:00 | |
| OE3MUC-15 | 2026-09-05 06:26:19 | 49.99386 | 15.79582 | 80° | 31km/h | 19018m | 4.7m/s | -54.7°C | 4.5% | 0hPa | 2.6V | 00:00:00 | 00:00:00 | 00:00:00 | |
| EDDB2-12 | 2026-09-05 06:26:18 | 49.99383 | 15.79558 | 79° | 29km/h | 19007m | 4.8m/s | -54.7°C | 0.9% | -1.0hPa | 2.6V | 00:00:00 | 00:00:00 | 00:00:00 | |
| SONDE2-11 | 2026-09-05 06:26:17 | 49.99382 | 15.79546 | 83° | 31km/h | 19002m | 5.4m/s | -54.7°C | 0.9% | -1.0hPa | 2.6V | 00:00:00 | 00:00:00 | 00:00:00 | |
| OE3MUC-15 | 2026-09-05 06:26:15 | 49.99381 | 15.79533 | 81° | 35km/h | 18997m | 5.3m/s | -54.6°C | 4.4% | 0hPa | 2.6V | 00:00:00 | 00:00:00 | 00:00:00 | |
| OE5DRO-10 | 2026-09-05 06:26:14 | 49.99380 | 15.79520 | 86° | 33km/h | 18991m | 4.5m/s | -54.6°C | 4.4% | 0hPa | 2.6V | 00:00:00 | 00:00:00 | 00:00:00 | |
| KRY50SP | 2026-09-05 06:26:13 | 49.99380 | 15.79520 | 86° | 35km/h | 18991m | 4.5m/s | -54.6°C | 0% | 0hPa | 2.6V | 00:00:00 | 00:00:00 | 00:00:00 | |
| SQ6EMJ | 2026-09-05 06:26:12 | 49.99379 | 15.79506 | 88° | 35km/h | 18986m | 6.5m/s | -54.6°C | 1.0% | 0hPa | 2.6V | 00:00:00 | 00:00:00 | 00:00:00 | |
| OE3MUC-15 | 2026-09-05 06:26:11 | 49.99379 | 15.79480 | 92° | 37km/h | 18975m | 4.5m/s | -54.4°C | 4.4% | 0hPa | 2.6V | 00:00:00 | 01:23:25 | 00:00:00 | |
| PG1ADW-2 | 2026-09-05 06:26:10 | 49.99379 | 15.79465 | 92° | 31km/h | 18969m | 6.0m/s | -54.4°C | 4.4% | 0hPa | 2.6V | 00:00:00 | 01:23:24 | 00:00:00 | |
| KRY50SP | 2026-09-05 06:26:08 | 49.99379 | 15.79450 | 89° | 38km/h | 18964m | 4.1m/s | -54.4°C | 0% | 0hPa | 2.6V | 00:00:00 | 00:00:00 | 00:00:00 | |
| OE3MUC-15 | 2026-09-05 06:26:07 | 49.99379 | 15.79422 | 88° | 29km/h | 18954m | 5.8m/s | -54.3°C | 4.4% | 0hPa | 2.6V | 00:00:00 | 00:00:00 | 00:00:00 | |
| OE5DXL-15 | 2026-09-05 06:26:04 | 49.99376 | 15.79387 | 77° | 27km/h | 18938m | 6.5m/s | -54.2°C | 4.3% | 0hPa | 2.6V | 00:00:00 | 00:00:00 | 00:00:00 | |
| OE3MUC-15 | 2026-09-05 06:26:03 | 49.99374 | 15.79376 | 74° | 29km/h | 18932m | 5.0m/s | -54.2°C | 4.3% | 0hPa | 2.6V | 00:00:00 | 00:00:00 | 00:00:00 | |
| KRY50SP | 2026-09-05 06:26:02 | 49.99373 | 15.79376 | 74° | 31km/h | 18932m | 5.0m/s | -54.2°C | 0% | 0hPa | 2.6V | 00:00:00 | 00:00:00 | 00:00:00 | |
| OE3OSB-13 | 2026-09-05 06:26:01 | 49.99369 | 15.79353 | 72° | 29km/h | 18920m | 6.4m/s | -54.2°C | 0.8% | -1.0hPa | 2.6V | 00:00:00 | 00:00:00 | 00:00:00 | |
| EDDB2-11 | 2026-09-05 06:25:53 | 49.99364 | 15.79249 | 82° | 27km/h | 18873m | 4.8m/s | -53.8°C | 0.8% | -1.0hPa | 2.6V | 00:00:00 | 00:00:00 | 00:00:00 | |
| SONDE2-11 | 2026-09-05 06:25:46 | 49.99363 | 15.79173 | 95° | 27km/h | 18835m | 4.9m/s | -53.6°C | 0.8% | -1.0hPa | 2.6V | 00:00:00 | 00:00:00 | 00:00:00 | |
| SQ6EMJ | 2026-09-05 06:25:45 | 49.99363 | 15.79173 | 97° | 27km/h | 18836m | 4.9m/s | -53.6°C | 1.0% | 0hPa | 2.6V | 00:00:00 | 00:00:00 | 00:00:00 | |
| HA6NAB-11 | 2026-09-05 06:25:42 | 49.99364 | 15.79153 | 90° | 24km/h | 18825m | 4.6m/s | -53.6°C | 0% | 0hPa | 2.6V | 00:00:00 | 00:00:00 | 00:00:00 | |
| OK1SLM-15 | 2026-09-05 06:25:41 | 49.99364 | 15.79144 | 83° | 24km/h | 18819m | 6.3m/s | -53.6°C | 1.0% | 0hPa | 2.6V | 00:00:00 | 00:00:00 | 00:00:00 | |
| SQ6EMJ | 2026-09-05 06:25:39 | 49.99359 | 15.79119 | 73° | 22km/h | 18802m | 6.2m/s | -53.6°C | 0.9% | 0hPa | 2.6V | 00:00:00 | 00:00:00 | 00:00:00 | |
| DO3MHA-11 | 2026-09-05 06:25:37 | 49.99356 | 15.79103 | 72° | 22km/h | 18791m | 5.8m/s | -53.5°C | 4.0% | 0hPa | 2.6V | 00:00:00 | 01:22:51 | 00:00:00 | |
| OE5DRO-10 | 2026-09-05 06:25:36 | 49.99354 | 15.79094 | 78° | 20km/h | 18785m | 5.0m/s | -53.4°C | 4.0% | 0hPa | 2.6V | 00:00:00 | 00:00:00 | 00:00:00 | |
| OK1SLM-15 | 2026-09-05 06:25:35 | 49.99354 | 15.79094 | 79° | 24km/h | 18785m | 5.1m/s | -53.5°C | 0.9% | 0hPa | 2.6V | 00:00:00 | 00:00:00 | 00:00:00 | |
| SQ6EMJ | 2026-09-05 06:25:34 | 49.99353 | 15.79075 | 95° | 24km/h | 18776m | 6.2m/s | -53.6°C | 0.9% | 0hPa | 2.6V | 00:00:00 | 00:00:00 | 00:00:00 | |
| PETON7-10 | 2026-09-05 06:25:30 | 49.99355 | 15.79040 | 92° | 20km/h | 18754m | 5.2m/s | -53.4°C | 3.9% | 0hPa | 2.6V | 00:00:00 | 00:00:00 | 00:00:00 | |
| SQ6EMJ | 2026-09-05 06:25:28 | 49.99355 | 15.79032 | 94° | 22km/h | 18749m | 3.9m/s | -53.5°C | 0.9% | 0hPa | 2.6V | 00:00:00 | 00:00:00 | 00:00:00 | |
| DO3MHA-11 | 2026-09-05 06:25:27 | 49.99356 | 15.79016 | 96° | 18km/h | 18738m | 5.6m/s | -53.5°C | 3.9% | 0hPa | 2.6V | 00:00:00 | 01:22:41 | 08:30:00 | |
| POL2MAQ | 2026-09-05 06:25:25 | 49.99356 | 15.79009 | 100° | 20km/h | 18733m | 3.7m/s | -53.5°C | 0.9% | 0hPa | 2.7V | 00:00:00 | 00:00:00 | 00:00:00 | |
| HA6NAB-11 | 2026-09-05 06:25:24 | 49.99357 | 15.79001 | 95° | 20km/h | 18729m | 5.1m/s | -53.6°C | 0% | 0hPa | 2.7V | 00:00:00 | 00:00:00 | 00:00:00 | |
| SQ6EMJ | 2026-09-05 06:25:23 | 49.99356 | 15.78993 | 85° | 20km/h | 18724m | 5.6m/s | -53.7°C | 0.9% | 0hPa | 2.7V | 00:00:00 | 00:00:00 | 00:00:00 | |
| EDDB2-11 | 2026-09-05 06:25:22 | 49.99353 | 15.78971 | 81° | 15km/h | 18707m | 5.8m/s | -54.4°C | 0.8% | -1.0hPa | 2.7V | 00:00:00 | 00:00:00 | 00:00:00 | |
| SQ6EMJ | 2026-09-05 06:25:18 | 49.99354 | 15.78952 | 108° | 22km/h | 18691m | 5.8m/s | -54.8°C | 1.0% | 0hPa | 2.7V | 00:00:00 | 00:00:00 | 00:00:00 | |
| OE3MUC-15 | 2026-09-05 06:25:17 | 49.99356 | 15.78943 | 111° | 27km/h | 18685m | 4.8m/s | -54.8°C | 4.4% | 0hPa | 2.7V | 00:00:00 | 00:00:00 | 00:00:00 | |
| PETON7-10 | 2026-09-05 06:25:15 | 49.99362 | 15.78925 | 128° | 29km/h | 18674m | 6.1m/s | -55.0°C | 4.4% | 0hPa | 2.7V | 00:00:00 | 01:22:29 | 00:00:00 | |
| 13BRC | 2026-09-05 06:25:14 | 49.99362 | 15.78925 | 128° | 31km/h | 18674m | 6.2m/s | -55.0°C | 1.0% | 0hPa | 2.7V | 00:00:00 | 00:00:00 | 00:00:00 | |
| OE3MUC-15 | 2026-09-05 06:25:13 | 49.99371 | 15.78905 | 125° | 31km/h | 18664m | 4.7m/s | -55.1°C | 4.5% | 0hPa | 2.7V | 00:00:00 | 00:00:00 | 08:30:00 | |
| HA6NAB-11 | 2026-09-05 06:25:12 | 49.99371 | 15.78905 | 125° | 31km/h | 18664m | 4.7m/s | 0°C | 0% | 0hPa | 2.7V | 00:00:00 | 00:00:00 | 00:00:00 | |
| DB0UT-7 | 2026-09-05 06:25:11 | 49.99379 | 15.78883 | 107° | 57km/h | 18652m | 5.5m/s | -55.1°C | 4.5% | 0hPa | 2.7V | 00:00:00 | 00:00:00 | 00:00:00 | |
| PG1ADW-2 | 2026-09-05 06:25:10 | 49.99380 | 15.78872 | 100° | 27km/h | 18646m | 5.9m/s | -55.0°C | 4.5% | 0hPa | 2.7V | 00:00:00 | 00:00:00 | 00:00:00 | |
| OE3MUC-15 | 2026-09-05 06:25:09 | 49.99381 | 15.78862 | 96° | 27km/h | 18640m | 6.0m/s | -55.0°C | 4.4% | 0hPa | 2.7V | 00:00:00 | 00:00:00 | 00:00:00 | |
| SQ6EMJ | 2026-09-05 06:25:07 | 49.99380 | 15.78843 | 86° | 26km/h | 18629m | 6.6m/s | -54.9°C | 1.0% | 0hPa | 2.7V | 00:00:00 | 00:00:00 | 00:00:00 | |
| OK1SLM-15 | 2026-09-05 06:25:05 | 49.99380 | 15.78832 | 88° | 27km/h | 18622m | 5.4m/s | -54.9°C | 1.0% | 0hPa | 2.7V | 00:00:00 | 00:00:00 | 00:00:00 | |
| OE5DXL-15 | 2026-09-05 06:25:04 | 49.99379 | 15.78811 | 88° | 27km/h | 18611m | 6.3m/s | -54.7°C | 4.4% | 0hPa | 2.7V | 00:00:00 | 00:00:00 | 00:00:00 | |
| KRY50SP | 2026-09-05 06:25:03 | 49.99379 | 15.78811 | 89° | 26km/h | 18611m | 6.4m/s | -54.8°C | 0% | 0hPa | 2.7V | 00:00:00 | 00:00:00 | 00:00:00 | |
| OE3OSB-13 | 2026-09-05 06:24:59 | 49.99386 | 15.78755 | 104° | 29km/h | 18584m | 5.8m/s | -54.6°C | 0.9% | -1.0hPa | 2.7V | 00:00:00 | 00:00:00 | 00:00:00 | |
| EDDB2-11 | 2026-09-05 06:24:51 | 49.99396 | 15.78667 | 97° | 24km/h | 18534m | 6.1m/s | -54.6°C | 0.9% | -1.0hPa | 2.7V | 00:00:00 | 00:00:00 | 00:00:00 | |
| PG1ADW-2 | 2026-09-05 06:24:50 | 49.99395 | 15.78667 | 98° | 29km/h | 18534m | 6.0m/s | -54.6°C | 4.4% | 0hPa | 2.7V | 00:00:00 | 01:22:04 | 00:00:00 | |
| SQ6EMJ | 2026-09-05 06:24:48 | 49.99396 | 15.78658 | 90° | 26km/h | 18528m | 5.3m/s | -54.6°C | 1.0% | 0hPa | 2.7V | 00:00:00 | 00:00:00 | 00:00:00 | |
| OE5MMP-10 | 2026-09-05 06:24:47 | 49.99395 | 15.78638 | 82° | 29km/h | 18518m | 6.1m/s | -54.6°C | 4.3% | 0hPa | 2.7V | 00:00:00 | 01:22:01 | 00:00:00 | |
| PETON7-10 | 2026-09-05 06:24:45 | 49.99393 | 15.78618 | 90° | 31km/h | 18507m | 3.8m/s | -54.5°C | 4.3% | 0hPa | 2.6V | 00:00:00 | 00:00:00 | 00:00:00 | |
| SQ6EMJ | 2026-09-05 06:24:44 | 49.99393 | 15.78608 | 88° | 26km/h | 18502m | 5.4m/s | -54.6°C | 1.0% | 0hPa | 2.6V | 00:00:00 | 00:00:00 | 00:00:00 | |
| POL2MAQ | 2026-09-05 06:24:43 | 49.99393 | 15.78608 | 88° | 26km/h | 18502m | 5.4m/s | -54.6°C | 1.0% | 0hPa | 2.6V | 00:00:00 | 00:00:00 | 00:00:00 | |
| KRY50SP | 2026-09-05 06:24:40 | 49.99393 | 15.78574 | 102° | 31km/h | 18485m | 6.8m/s | -54.4°C | 0% | 0hPa | 2.6V | 00:00:00 | 00:00:00 | 00:00:00 | |
| OE5DRO-10 | 2026-09-05 06:24:39 | 49.99397 | 15.78550 | 107° | 33km/h | 18474m | 5.2m/s | -54.3°C | 4.3% | 0hPa | 2.6V | 00:00:00 | 00:00:00 | 00:00:00 | |
| HA6NAB-11 | 2026-09-05 06:24:38 | 49.99397 | 15.78550 | 108° | 33km/h | 18474m | 5.3m/s | 0°C | 0% | 0hPa | 2.6V | 00:00:00 | 00:00:00 | 00:00:00 | |
| DO3MHA-11 | 2026-09-05 06:24:37 | 49.99401 | 15.78525 | 101° | 31km/h | 18461m | 5.2m/s | -54.3°C | 4.3% | 0hPa | 2.6V | 00:00:00 | 01:21:51 | 00:00:00 | |
| OE5DXL-15 | 2026-09-05 06:24:34 | 49.99406 | 15.78485 | 101° | 38km/h | 18444m | 5.1m/s | -54.3°C | 4.2% | 0hPa | 2.6V | 00:00:00 | 00:00:00 | 00:00:00 | |
| OK1ALN | 2026-09-05 06:24:33 | 49.99406 | 15.78485 | 102° | 31km/h | 18444m | 5.2m/s | -54.3°C | 1.0% | 0hPa | 2.6V | 00:00:00 | 00:00:00 | 00:00:00 | |
| SQ6EMJ | 2026-09-05 06:24:32 | 49.99408 | 15.78460 | 92° | 31km/h | 18434m | 6.7m/s | -54.4°C | 1.0% | 0hPa | 2.6V | 00:00:00 | 00:00:00 | 00:00:00 | |
| PETON7-10 | 2026-09-05 06:24:30 | 49.99408 | 15.78436 | 91° | 35km/h | 18423m | 4.9m/s | -54.4°C | 4.3% | 0hPa | 2.6V | 00:00:00 | 01:21:44 | 00:00:00 | |
| S52SK | 2026-09-05 06:24:29 | 49.99408 | 15.78436 | 92° | 29km/h | 18423m | 4.9m/s | -54.5°C | 1.1% | 0hPa | 2.6V | 00:00:00 | 00:00:00 | 00:00:00 | |
| OE3OSB-13 | 2026-09-05 06:24:28 | 49.99409 | 15.78414 | 100° | 31km/h | 18413m | 4.7m/s | -54.5°C | 0.9% | -1.0hPa | 2.6V | 00:00:00 | 00:00:00 | 00:00:00 | |
| DO3MHA-11 | 2026-09-05 06:24:27 | 49.99411 | 15.78401 | 107° | 35km/h | 18407m | 5.3m/s | -54.4°C | 4.3% | 0hPa | 2.6V | 00:00:00 | 01:21:41 | 00:00:00 | |
| OE3MUC-15 | 2026-09-05 06:24:26 | 49.99414 | 15.78388 | 106° | 33km/h | 18402m | 5.4m/s | -54.4°C | 4.3% | 0hPa | 2.6V | 00:00:00 | 00:00:00 | 00:00:00 | |
| SQ6EMJ | 2026-09-05 06:24:25 | 49.99414 | 15.78388 | 106° | 37km/h | 18402m | 5.4m/s | -54.5°C | 1.0% | 0hPa | 2.6V | 00:00:00 | 00:00:00 | 00:00:00 | |
| OK1SLM-15 | 2026-09-05 06:24:23 | 49.99418 | 15.78362 | 105° | 35km/h | 18391m | 6.2m/s | -54.5°C | 1.0% | 0hPa | 2.6V | 00:00:00 | 00:00:00 | 00:00:00 | |
| HA6NAB-11 | 2026-09-05 06:24:22 | 49.99420 | 15.78349 | 107° | 33km/h | 18385m | 5.4m/s | 0°C | 0% | 0hPa | 2.6V | 00:00:00 | 00:00:00 | 00:00:00 | |
| KRY50SP | 2026-09-05 06:24:21 | 49.99423 | 15.78324 | 99° | 33km/h | 18375m | 6.4m/s | -54.5°C | 0% | 0hPa | 2.6V | 00:00:00 | 00:00:00 | 00:00:00 | |
| EDDB2-11 | 2026-09-05 06:24:20 | 49.99425 | 15.78296 | 98° | 37km/h | 18364m | 5.2m/s | -54.5°C | 0.9% | -1.0hPa | 2.6V | 00:00:00 | 00:00:00 | 00:00:00 | |
| DO3MHA-11 | 2026-09-05 06:24:17 | 49.99429 | 15.78268 | 103° | 49km/h | 18353m | 4.1m/s | -54.4°C | 4.1% | 0hPa | 2.6V | 00:00:00 | 01:21:31 | 00:00:00 | |
| OE3MUC-15 | 2026-09-05 06:24:16 | 49.99431 | 15.78251 | 103° | 47km/h | 18347m | 5.7m/s | -54.4°C | 4.1% | 0hPa | 2.6V | 00:00:00 | 00:00:00 | 00:00:00 | |
| PETON7-10 | 2026-09-05 06:24:15 | 49.99433 | 15.78234 | 100° | 47km/h | 18342m | 6.4m/s | -54.3°C | 4.1% | 0hPa | 2.6V | 00:00:00 | 00:00:00 | 00:00:00 | |
| SQ6EMJ | 2026-09-05 06:24:14 | 49.99434 | 15.78234 | 101° | 46km/h | 18342m | 6.4m/s | -54.4°C | 1.0% | 0hPa | 2.7V | 00:00:00 | 00:00:00 | 00:00:00 | |
| EDDB2-12 | 2026-09-05 06:24:13 | 49.99439 | 15.78196 | 105° | 49km/h | 18329m | 6.5m/s | -54.4°C | 0.9% | -1.0hPa | 2.7V | 00:00:00 | 00:00:00 | 00:00:00 | |
| OE3MUC-15 | 2026-09-05 06:24:12 | 49.99442 | 15.78177 | 106° | 51km/h | 18324m | 4.5m/s | -54.3°C | 4.1% | 0hPa | 2.7V | 00:00:00 | 00:00:00 | 00:00:00 | |
| PG1ADW-2 | 2026-09-05 06:24:10 | 49.99448 | 15.78137 | 103° | 49km/h | 18315m | 6.1m/s | -54.4°C | 4.1% | 0hPa | 2.7V | 00:00:00 | 00:00:00 | 00:00:00 | |
| SQ6EMJ | 2026-09-05 06:24:09 | 49.99448 | 15.78137 | 103° | 53km/h | 18315m | 6.2m/s | -54.5°C | 1.0% | 0hPa | 2.7V | 00:00:00 | 00:00:00 | 00:00:00 | |
| OE3MUC-15 | 2026-09-05 06:24:08 | 49.99451 | 15.78098 | 94° | 44km/h | 18304m | 4.1m/s | -54.6°C | 4.2% | 0hPa | 2.7V | 00:00:00 | 00:00:00 | 00:00:00 | |
| DO3MHA-11 | 2026-09-05 06:24:07 | 49.99452 | 15.78080 | 92° | 46km/h | 18299m | 6.4m/s | -54.8°C | 4.2% | 0hPa | 2.6V | 00:00:00 | 01:21:21 | 00:00:00 | |
| SQ6EMJ | 2026-09-05 06:24:04 | 49.99453 | 15.78033 | 89° | 40km/h | 18284m | 5.6m/s | -55.6°C | 1.1% | 0hPa | 2.6V | 00:00:00 | 00:00:00 | 00:00:00 | |
| OE3OSB-13 | 2026-09-05 06:23:57 | 49.99456 | 15.77899 | 92° | 57km/h | 18245m | 6.5m/s | -55.8°C | 1.0% | -1.0hPa | 2.6V | 00:00:00 | 00:00:00 | 00:00:00 | |
| EDDB2-11 | 2026-09-05 06:23:48 | 49.99465 | 15.77714 | 92° | 47km/h | 18197m | 4.2m/s | -56.0°C | 1.0% | -1.0hPa | 2.6V | 00:00:00 | 00:00:00 | 00:00:00 | |
| DO3MHA-11 | 2026-09-05 06:23:47 | 49.99466 | 15.77695 | 91° | 55km/h | 18192m | 6.1m/s | -56.0°C | 4.6% | 0hPa | 2.6V | 00:00:00 | 01:21:01 | 00:00:00 | |
| OK1SLM-15 | 2026-09-05 06:23:46 | 49.99466 | 15.77695 | 91° | 49km/h | 18192m | 6.2m/s | -56.0°C | 1.2% | 0hPa | 2.6V | 00:00:00 | 00:00:00 | 00:00:00 | |
| PETON7-10 | 2026-09-05 06:23:45 | 49.99466 | 15.77654 | 91° | 55km/h | 18180m | 5.4m/s | -56.0°C | 4.7% | 0hPa | 2.6V | 00:00:00 | 01:20:59 | 00:00:00 | |
| OE5DRO-10 | 2026-09-05 06:23:42 | 49.99467 | 15.77592 | 92° | 58km/h | 18165m | 5.7m/s | -56.2°C | 4.7% | 0hPa | 2.6V | 00:00:00 | 00:00:00 | 00:00:00 | |
| SQ6EMJ | 2026-09-05 06:23:41 | 49.99467 | 15.77570 | 92° | 58km/h | 18158m | 8.1m/s | -56.2°C | 1.2% | 0hPa | 2.6V | 00:00:00 | 00:00:00 | 00:00:00 | |
| POL2MAQ | 2026-09-05 06:23:40 | 49.99467 | 15.77570 | 92° | 58km/h | 18158m | 8.1m/s | -56.2°C | 1.2% | 0hPa | 2.6V | 00:00:00 | 00:00:00 | 00:00:00 | |
| DO3MHA-11 | 2026-09-05 06:23:37 | 49.99467 | 15.77482 | 92° | 57km/h | 18134m | 5.8m/s | -56.1°C | 4.8% | 0hPa | 2.6V | 00:00:00 | 01:20:51 | 00:00:00 | |
| KRY50SP | 2026-09-05 06:23:36 | 49.99467 | 15.77482 | 93° | 53km/h | 18134m | 5.9m/s | -56.1°C | 0% | 0hPa | 2.6V | 00:00:00 | 00:00:00 | 00:00:00 | |
| SQ6EMJ | 2026-09-05 06:23:34 | 49.99468 | 15.77442 | 95° | 51km/h | 18126m | 6.6m/s | -56.1°C | 1.2% | 0hPa | 2.6V | 00:00:00 | 00:00:00 | 00:00:00 | |
| 13BRC | 2026-09-05 06:23:32 | 49.99469 | 15.77400 | 89° | 57km/h | 18112m | 2.9m/s | -56.0°C | 1.1% | 0hPa | 2.6V | 00:00:00 | 00:00:00 | 00:00:00 | |
| OK1ALN | 2026-09-05 06:23:31 | 49.99468 | 15.77377 | 88° | 58km/h | 18109m | 3.8m/s | -56.0°C | 1.1% | 0hPa | 2.6V | 00:00:00 | 00:00:00 | 00:00:00 | |
| PETON7-10 | 2026-09-05 06:23:30 | 49.99466 | 15.77330 | 89° | 64km/h | 18097m | 7.1m/s | -56.1°C | 4.5% | 0hPa | 2.6V | 00:00:00 | 00:00:00 | 00:00:00 | |
| SQ6EMJ | 2026-09-05 06:23:29 | 49.99466 | 15.77330 | 89° | 60km/h | 18097m | 7.1m/s | -56.1°C | 1.1% | 0hPa | 2.7V | 00:00:00 | 00:00:00 | 00:00:00 | |
| S52SK | 2026-09-05 06:23:28 | 49.99466 | 15.77306 | 91° | 64km/h | 18088m | 10.0m/s | -56.3°C | 1.1% | 0hPa | 2.7V | 00:00:00 | 00:00:00 | 00:00:00 | |
| DO3MHA-11 | 2026-09-05 06:23:27 | 49.99468 | 15.77256 | 94° | 62km/h | 18076m | 6.3m/s | -56.3°C | 4.7% | 0hPa | 2.7V | 00:00:00 | 01:20:41 | 00:00:00 | |
| OE3OSB-13 | 2026-09-05 06:23:26 | 49.99468 | 15.77232 | 92° | 58km/h | 18070m | 6.2m/s | -56.5°C | 1.0% | -1.0hPa | 2.6V | 00:00:00 | 00:00:00 | 00:00:00 | |
| NBG1-10 | 2026-09-05 06:23:24 | 49.99469 | 15.77185 | 91° | 57km/h | 18058m | 7.0m/s | -56.3°C | 4.8% | 0hPa | 2.6V | 00:00:00 | 01:20:38 | 00:00:00 | |
| OE5DRO-10 | 2026-09-05 06:23:23 | 49.99469 | 15.77162 | 91° | 64km/h | 18051m | 6.9m/s | -56.3°C | 4.7% | 0hPa | 2.6V | 00:00:00 | 00:00:00 | 00:00:00 | |
| S52SK | 2026-09-05 06:23:22 | 49.99469 | 15.77162 | 91° | 58km/h | 18051m | 7.0m/s | -56.3°C | 1.2% | 0hPa | 2.6V | 00:00:00 | 00:00:00 | 00:00:00 | |
| OK1SLM-15 | 2026-09-05 06:23:20 | 49.99467 | 15.77115 | 84° | 62km/h | 18040m | 3.4m/s | -56.4°C | 1.2% | 0hPa | 2.6V | 00:00:00 | 00:00:00 | 00:00:00 | |
| POL2MAQ | 2026-09-05 06:23:19 | 49.99465 | 15.77091 | 81° | 64km/h | 18035m | 6.8m/s | -56.4°C | 1.2% | 0hPa | 2.6V | 00:00:00 | 00:00:00 | 00:00:00 | |
| SQ6EMJ | 2026-09-05 06:23:18 | 49.99462 | 15.77066 | 79° | 66km/h | 18028m | 6.6m/s | -56.3°C | 1.2% | 0hPa | 2.6V | 00:00:00 | 00:00:00 | 00:00:00 | |
| DO3MHA-11 | 2026-09-05 06:23:17 | 49.99455 | 15.77014 | 81° | 64km/h | 18012m | 5.9m/s | -56.1°C | 4.7% | 0hPa | 2.6V | 00:00:00 | 01:20:31 | 00:00:00 | |
| PETON7-10 | 2026-09-05 06:23:15 | 49.99449 | 15.76962 | 80° | 64km/h | 17999m | 6.3m/s | -56.1°C | 4.7% | 0hPa | 2.6V | 00:00:00 | 00:00:00 | 00:00:00 | |
| POL1PZ | 2026-09-05 06:23:14 | 49.99449 | 15.76962 | 80° | 66km/h | 17999m | 6.4m/s | -56.1°C | 1.1% | 0hPa | 2.6V | 00:00:00 | 00:00:00 | 00:00:00 | |
| SQ6EMJ | 2026-09-05 06:23:12 | 49.99444 | 15.76912 | 82° | 64km/h | 17986m | 6.2m/s | -56.2°C | 1.2% | 0hPa | 2.6V | 00:00:00 | 00:00:00 | 00:00:00 | |
| EDDB2-12 | 2026-09-05 06:23:11 | 49.99439 | 15.76864 | 83° | 60km/h | 17977m | 5.7m/s | -56.2°C | 1.0% | -1.0hPa | 2.6V | 00:00:00 | 00:00:00 | 00:00:00 | |
| PG1ADW-2 | 2026-09-05 06:23:10 | 49.99438 | 15.76840 | 85° | 60km/h | 17971m | 6.8m/s | -56.1°C | 4.8% | 0hPa | 2.6V | 00:00:00 | 00:00:00 | 00:00:00 | |
| SQ6EMJ | 2026-09-05 06:23:07 | 49.99429 | 15.76764 | 78° | 69km/h | 17952m | 5.8m/s | -56.2°C | 1.2% | 0hPa | 2.6V | 00:00:00 | 00:00:00 | 00:00:00 | |
| OE5DRO-10 | 2026-09-05 06:23:04 | 49.99416 | 15.76687 | 74° | 57km/h | 17935m | 7.7m/s | -56.0°C | 4.8% | 0hPa | 2.6V | 00:00:00 | 00:00:00 | 00:00:00 | |
| OE3OSB-13 | 2026-09-05 06:22:55 | 49.99369 | 15.76508 | 74° | 58km/h | 17874m | 9.5m/s | -55.7°C | 1.0% | -1.0hPa | 2.7V | 00:00:00 | 00:00:00 | 00:00:00 | |
| EDDB2-11 | 2026-09-05 06:22:46 | 49.99333 | 15.76319 | 69° | 57km/h | 17816m | 5.6m/s | -55.4°C | 1.0% | -1.0hPa | 2.7V | 00:00:00 | 00:00:00 | 00:00:00 | |
| PETON7-10 | 2026-09-05 06:22:45 | 49.99328 | 15.76297 | 73° | 53km/h | 17810m | 7.2m/s | -55.3°C | 4.7% | 0hPa | 2.7V | 00:00:00 | 00:00:00 | 08:30:00 | |
| SQ6EMJ | 2026-09-05 06:22:43 | 49.99323 | 15.76274 | 75° | 62km/h | 17804m | 5.8m/s | -55.2°C | 1.2% | 0hPa | 2.6V | 00:00:00 | 00:00:00 | 00:00:00 | |
| KRY50SP | 2026-09-05 06:22:41 | 49.99314 | 15.76227 | 74° | 62km/h | 17791m | 5.2m/s | -55.1°C | 0% | 0hPa | 2.6V | 00:00:00 | 00:00:00 | 00:00:00 | |
| EDDB2-12 | 2026-09-05 06:22:40 | 49.99305 | 15.76180 | 74° | 60km/h | 17778m | 8.4m/s | -55.1°C | 0.9% | -1.0hPa | 2.6V | 00:00:00 | 00:00:00 | 00:00:00 | |
| SONDE2-11 | 2026-09-05 06:22:39 | 49.99302 | 15.76158 | 76° | 55km/h | 17771m | 5.8m/s | -55.0°C | 1.0% | -1.0hPa | 2.6V | 00:00:00 | 00:00:00 | 00:00:00 | |
| DO3MHA-11 | 2026-09-05 06:22:37 | 49.99295 | 15.76118 | 73° | 51km/h | 17757m | 9.2m/s | -54.9°C | 4.4% | 0hPa | 2.6V | 00:00:00 | 01:19:51 | 00:00:00 | |
| KRY50SP | 2026-09-05 06:22:35 | 49.99290 | 15.76100 | 69° | 47km/h | 17750m | 5.7m/s | -54.9°C | 0% | 0hPa | 2.6V | 00:00:00 | 00:00:00 | 00:00:00 | |
| OE5DXL-15 | 2026-09-05 06:22:34 | 49.99282 | 15.76068 | 68° | 49km/h | 17737m | 4.9m/s | -54.8°C | 4.4% | 0hPa | 2.6V | 00:00:00 | 00:00:00 | 08:30:00 | |
| SQ6EMJ | 2026-09-05 06:22:32 | 49.99278 | 15.76053 | 69° | 40km/h | 17732m | 5.8m/s | -54.9°C | 1.1% | 0hPa | 2.6V | 00:00:00 | 00:00:00 | 00:00:00 | |
| PETON7-10 | 2026-09-05 06:22:30 | 49.99266 | 15.75999 | 73° | 51km/h | 17712m | 7.0m/s | -55.2°C | 4.5% | 0hPa | 2.6V | 00:00:00 | 00:00:00 | 00:00:00 | |
| 13BRC | 2026-09-05 06:22:29 | 49.99266 | 15.75999 | 74° | 57km/h | 17712m | 7.0m/s | -55.2°C | 1.1% | 0hPa | 2.6V | 00:00:00 | 00:00:00 | 00:00:00 | |
| OK1ALN | 2026-09-05 06:22:28 | 49.99261 | 15.75977 | 75° | 60km/h | 17706m | 4.3m/s | -55.2°C | 1.1% | 0hPa | 2.6V | 00:00:00 | 00:00:00 | 00:00:00 | |
| SQ6EMJ | 2026-09-05 06:22:27 | 49.99255 | 15.75929 | 83° | 62km/h | 17694m | 7.6m/s | -55.2°C | 1.2% | 0hPa | 2.6V | 00:00:00 | 00:00:00 | 00:00:00 | |
| OE5DRO-10 | 2026-09-05 06:22:26 | 49.99253 | 15.75906 | 85° | 47km/h | 17688m | 4.8m/s | -55.2°C | 4.7% | 0hPa | 2.6V | 00:00:00 | 00:00:00 | 00:00:00 | |
| NBG1-10 | 2026-09-05 06:22:25 | 49.99252 | 15.75886 | 84° | 46km/h | 17682m | 7.5m/s | -55.2°C | 4.7% | 0hPa | 2.6V | 00:00:00 | 01:19:39 | 00:00:00 | |
| OE3OSB-13 | 2026-09-05 06:22:24 | 49.99247 | 15.75849 | 75° | 42km/h | 17670m | 5.6m/s | -55.2°C | 1.0% | -1.0hPa | 2.6V | 00:00:00 | 00:00:00 | 00:00:00 | |
| SP3BTT-10 | 2026-09-05 06:22:22 | 49.99244 | 15.75833 | 72° | 51km/h | 17666m | 2.9m/s | -55.0°C | 4.6% | 0hPa | 2.6V | 00:00:00 | 00:00:00 | 08:30:00 | |
| SQ6EMJ | 2026-09-05 06:22:21 | 49.99244 | 15.75833 | 72° | 46km/h | 17666m | 2.9m/s | -55.0°C | 1.1% | 0hPa | 2.7V | 00:00:00 | 00:00:00 | 00:00:00 | |
| S52SK | 2026-09-05 06:22:19 | 49.99236 | 15.75798 | 72° | 47km/h | 17655m | 7.7m/s | -55.0°C | 1.1% | 0hPa | 2.7V | 00:00:00 | 00:00:00 | 00:00:00 | |
| KRY50SP | 2026-09-05 06:22:18 | 49.99232 | 15.75781 | 71° | 49km/h | 17646m | 9.8m/s | -55.0°C | 0% | 0hPa | 2.7V | 00:00:00 | 00:00:00 | 00:00:00 | |
| DO3MHA-11 | 2026-09-05 06:22:17 | 49.99226 | 15.75743 | 82° | 47km/h | 17636m | 2.6m/s | -54.7°C | 4.3% | 0hPa | 2.7V | 00:00:00 | 01:19:31 | 00:00:00 | |
| SQ6EMJ | 2026-09-05 06:22:16 | 49.99226 | 15.75743 | 83° | 51km/h | 17636m | 2.6m/s | -54.8°C | 1.1% | 0hPa | 2.7V | 00:00:00 | 00:00:00 | 00:00:00 | |
| PETON7-10 | 2026-09-05 06:22:15 | 49.99224 | 15.75702 | 90° | 46km/h | 17624m | 6.8m/s | -54.7°C | 4.3% | 0hPa | 2.7V | 00:00:00 | 01:19:29 | 00:00:00 | |
| S52SK | 2026-09-05 06:22:14 | 49.99224 | 15.75702 | 90° | 55km/h | 17624m | 6.8m/s | -54.7°C | 1.1% | 0hPa | 2.7V | 00:00:00 | 00:00:00 | 00:00:00 | |
| KRY50SP | 2026-09-05 06:22:13 | 49.99224 | 15.75681 | 93° | 51km/h | 17615m | 10.1m/s | -54.7°C | 0% | 0hPa | 2.7V | 00:00:00 | 00:00:00 | 00:00:00 | |
| SQ6EMJ | 2026-09-05 06:22:11 | 49.99225 | 15.75627 | 90° | 44km/h | 17596m | 3.7m/s | -54.5°C | 1.1% | 0hPa | 2.7V | 00:00:00 | 00:00:00 | 00:00:00 | |
| PG1ADW-2 | 2026-09-05 06:22:10 | 49.99225 | 15.75610 | 87° | 42km/h | 17592m | 5.0m/s | -54.4°C | 4.3% | 0hPa | 2.7V | 00:00:00 | 01:19:24 | 00:00:00 | |
| EDDB2-12 | 2026-09-05 06:22:09 | 49.99224 | 15.75594 | 84° | 38km/h | 17585m | 7.9m/s | -54.5°C | 0.9% | -1.0hPa | 2.7V | 00:00:00 | 00:00:00 | 00:00:00 | |
| SONDE2-11 | 2026-09-05 06:22:08 | 49.99223 | 15.75579 | 83° | 38km/h | 17579m | 4.1m/s | -54.4°C | 0.9% | -1.0hPa | 2.7V | 00:00:00 | 00:00:00 | 00:00:00 | |
| OE5MMP-10 | 2026-09-05 06:22:07 | 49.99222 | 15.75563 | 83° | 44km/h | 17574m | 5.3m/s | -54.4°C | 4.3% | 0hPa | 2.7V | 00:00:00 | 01:19:21 | 00:00:00 | |
| SQ6EMJ | 2026-09-05 06:22:05 | 49.99218 | 15.75528 | 80° | 47km/h | 17562m | 5.4m/s | -54.4°C | 1.1% | 0hPa | 2.7V | 00:00:00 | 00:00:00 | 00:00:00 | |
| OE5DXL-15 | 2026-09-05 06:22:04 | 49.99216 | 15.75510 | 78° | 47km/h | 17556m | 6.0m/s | -54.4°C | 4.3% | 0hPa | 2.7V | 00:00:00 | 00:00:00 | 00:00:00 | |
| OK1SLM-15 | 2026-09-05 06:22:03 | 49.99216 | 15.75510 | 78° | 47km/h | 17556m | 6.1m/s | -54.5°C | 1.1% | 0hPa | 2.7V | 00:00:00 | 00:00:00 | 00:00:00 | |
| POL1PZ | 2026-09-05 06:22:02 | 49.99213 | 15.75492 | 79° | 46km/h | 17552m | 3.1m/s | -54.5°C | 1.1% | 0hPa | 2.7V | 00:00:00 | 00:00:00 | 00:00:00 | |
| OE3OSB-13 | 2026-09-05 06:21:53 | 49.99206 | 15.75322 | 93° | 38km/h | 17480m | 6.2m/s | -55.2°C | 1.0% | -1.0hPa | 2.7V | 00:00:00 | 00:00:00 | 00:00:00 | |
| PG1ADW-2 | 2026-09-05 06:21:50 | 49.99208 | 15.75288 | 99° | 53km/h | 17472m | 5.8m/s | -55.1°C | 4.5% | 0hPa | 2.7V | 00:00:00 | 00:00:00 | 00:00:00 | |
| KRY50SP | 2026-09-05 06:21:49 | 49.99208 | 15.75288 | 100° | 46km/h | 17472m | 5.8m/s | -55.1°C | 0% | 0hPa | 2.7V | 00:00:00 | 00:00:00 | 00:00:00 | |
| OE5DRO-10 | 2026-09-05 06:21:48 | 49.99212 | 15.75250 | 96° | 55km/h | 17457m | 9.2m/s | -55.0°C | 4.5% | 0hPa | 2.7V | 00:00:00 | 00:00:00 | 00:00:00 | |
| DO3MHA-11 | 2026-09-05 06:21:47 | 49.99212 | 15.75229 | 92° | 53km/h | 17450m | 4.8m/s | -55.0°C | 4.5% | 0hPa | 2.7V | 00:00:00 | 01:19:01 | 00:00:00 | |
| PETON7-10 | 2026-09-05 06:21:45 | 49.99213 | 15.75186 | 93° | 55km/h | 17438m | 6.7m/s | -55.0°C | 4.5% | 0hPa | 2.7V | 00:00:00 | 00:00:00 | 00:00:00 | |
| SQ6EMJ | 2026-09-05 06:21:44 | 49.99214 | 15.75164 | 94° | 55km/h | 17432m | 5.4m/s | -55.1°C | 1.2% | 0hPa | 2.7V | 00:00:00 | 00:00:00 | 00:00:00 | |
| NBG1-10 | 2026-09-05 06:21:43 | 49.99214 | 15.75143 | 93° | 57km/h | 17425m | 7.4m/s | -55.0°C | 4.5% | 0hPa | 2.7V | 00:00:00 | 01:18:57 | 00:00:00 | |
| DB0UT-7 | 2026-09-05 06:21:42 | 49.99215 | 15.75123 | 94° | 57km/h | 17420m | 4.1m/s | 0°C | 0% | 0hPa | 2.7V | 00:00:00 | 00:00:00 | 00:00:00 | |
| SP3BTT-10 | 2026-09-05 06:21:38 | 49.99223 | 15.75041 | 99° | 60km/h | 17396m | 4.3m/s | -54.8°C | 4.5% | 0hPa | 2.7V | 00:00:00 | 00:00:00 | 00:00:00 | |
| DO3MHA-11 | 2026-09-05 06:21:37 | 49.99225 | 15.75020 | 98° | 57km/h | 17391m | 5.7m/s | -54.9°C | 4.4% | 0hPa | 2.7V | 00:00:00 | 01:18:51 | 00:00:00 | |
| POL2MAQ | 2026-09-05 06:21:35 | 49.99226 | 15.74998 | 97° | 57km/h | 17385m | 6.4m/s | -54.9°C | 1.1% | 0hPa | 2.7V | 00:00:00 | 00:00:00 | 00:00:00 | |
| OE5DXL-15 | 2026-09-05 06:21:34 | 49.99230 | 15.74955 | 98° | 58km/h | 17371m | 5.2m/s | -54.7°C | 4.4% | 0hPa | 2.7V | 00:00:00 | 00:00:00 | 00:00:00 | |
| SQ6EMJ | 2026-09-05 06:21:33 | 49.99230 | 15.74955 | 99° | 55km/h | 17371m | 5.2m/s | -54.8°C | 1.1% | 0hPa | 2.7V | 00:00:00 | 00:00:00 | 00:00:00 | |
| OK1SLM-15 | 2026-09-05 06:21:32 | 49.99231 | 15.74934 | 97° | 55km/h | 17365m | 7.3m/s | -54.8°C | 1.1% | 0hPa | 2.7V | 00:00:00 | 00:00:00 | 00:00:00 | |
| PETON7-10 | 2026-09-05 06:21:30 | 49.99237 | 15.74868 | 100° | 57km/h | 17347m | 5.4m/s | -54.8°C | 4.4% | 0hPa | 2.7V | 00:00:00 | 01:18:44 | 00:00:00 | |
| SQ6EMJ | 2026-09-05 06:21:29 | 49.99240 | 15.74846 | 104° | 57km/h | 17342m | 5.2m/s | -54.8°C | 1.1% | 0hPa | 2.7V | 00:00:00 | 00:00:00 | 00:00:00 | |
| 13BRC | 2026-09-05 06:21:28 | 49.99240 | 15.74846 | 104° | 57km/h | 17342m | 5.2m/s | -54.8°C | 1.1% | 0hPa | 2.7V | 00:00:00 | 00:00:00 | 00:00:00 | |
| OK1ALN | 2026-09-05 06:21:27 | 49.99243 | 15.74825 | 105° | 55km/h | 17336m | 6.8m/s | -54.8°C | 1.1% | 0hPa | 2.7V | 00:00:00 | 00:00:00 | 00:00:00 | |
| OK1SLM-15 | 2026-09-05 06:21:26 | 49.99247 | 15.74804 | 106° | 55km/h | 17328m | 8.1m/s | -54.8°C | 1.1% | 0hPa | 2.7V | 00:00:00 | 00:00:00 | 00:00:00 | |
| SQ6EMJ | 2026-09-05 06:21:23 | 49.99262 | 15.74717 | 110° | 57km/h | 17303m | 4.9m/s | -54.8°C | 1.1% | 0hPa | 2.7V | 00:00:00 | 00:00:00 | 00:00:00 | |
| KRY50SP | 2026-09-05 06:21:22 | 49.99262 | 15.74717 | 110° | 57km/h | 17303m | 4.9m/s | -54.8°C | 0% | 0hPa | 2.7V | 00:00:00 | 00:00:00 | 00:00:00 | |
| OK1SLM-15 | 2026-09-05 06:21:21 | 49.99267 | 15.74696 | 108° | 58km/h | 17297m | 7.5m/s | -54.9°C | 1.1% | 0hPa | 2.7V | 00:00:00 | 00:00:00 | 00:00:00 | |
| POL1PZ | 2026-09-05 06:21:19 | 49.99274 | 15.74651 | 106° | 58km/h | 17284m | 5.2m/s | -54.9°C | 1.1% | 0hPa | 2.7V | 00:00:00 | 00:00:00 | 00:00:00 | |
| DO3MHA-11 | 2026-09-05 06:21:17 | 49.99287 | 15.74586 | 107° | 60km/h | 17265m | 6.7m/s | -54.9°C | 4.5% | 0hPa | 2.7V | 00:00:00 | 01:18:31 | 00:00:00 | |
| KRY50SP | 2026-09-05 06:21:16 | 49.99287 | 15.74586 | 107° | 57km/h | 17265m | 6.7m/s | -54.9°C | 0% | 0hPa | 2.7V | 00:00:00 | 00:00:00 | 00:00:00 | |
| PETON7-10 | 2026-09-05 06:21:15 | 49.99295 | 15.74542 | 106° | 62km/h | 17251m | 5.6m/s | -54.8°C | 4.5% | 0hPa | 2.7V | 00:00:00 | 00:00:00 | 00:00:00 | |
| EDDB2-11 | 2026-09-05 06:21:13 | 49.99304 | 15.74495 | 108° | 60km/h | 17238m | 4.3m/s | -54.8°C | 1.0% | -1.0hPa | 2.6V | 00:00:00 | 00:00:00 | 00:00:00 | |
| SQ6EMJ | 2026-09-05 06:21:12 | 49.99309 | 15.74472 | 110° | 60km/h | 17232m | 6.5m/s | -54.8°C | 1.2% | 0hPa | 2.6V | 00:00:00 | 00:00:00 | 00:00:00 | |
| KRY50SP | 2026-09-05 06:21:11 | 49.99309 | 15.74472 | 110° | 60km/h | 17232m | 6.5m/s | -54.8°C | 0% | 0hPa | 2.6V | 00:00:00 | 00:00:00 | 00:00:00 | |
| PG1ADW-2 | 2026-09-05 06:21:10 | 49.99318 | 15.74427 | 105° | 60km/h | 17218m | 4.8m/s | -54.6°C | 4.4% | 0hPa | 2.6V | 00:00:00 | 00:00:00 | 00:00:00 | |
| 13BRC | 2026-09-05 06:21:08 | 49.99322 | 15.74404 | 105° | 58km/h | 17211m | 7.6m/s | -54.7°C | 1.1% | 0hPa | 2.6V | 00:00:00 | 00:00:00 | 00:00:00 | |
| DO3MHA-11 | 2026-09-05 06:21:07 | 49.99329 | 15.74360 | 104° | 62km/h | 17201m | 5.7m/s | -54.6°C | 4.5% | 0hPa | 2.6V | 00:00:00 | 01:18:21 | 00:00:00 | |
| KRY50SP | 2026-09-05 06:21:06 | 49.99329 | 15.74360 | 105° | 58km/h | 17201m | 5.7m/s | -54.6°C | 0% | 0hPa | 2.6V | 00:00:00 | 00:00:00 | 00:00:00 | |
| SQ6EMJ | 2026-09-05 06:21:05 | 49.99332 | 15.74338 | 102° | 60km/h | 17194m | 9.0m/s | -54.6°C | 1.2% | 0hPa | 2.6V | 00:00:00 | 00:00:00 | 00:00:00 | |
| OE5DXL-15 | 2026-09-05 06:21:04 | 49.99337 | 15.74289 | 100° | 62km/h | 17182m | 6.1m/s | -54.5°C | 4.5% | 0hPa | 2.6V | 00:00:00 | 00:00:00 | 00:00:00 | |
| OE3OSB-13 | 2026-09-05 06:20:51 | 49.99385 | 15.73959 | 99° | 62km/h | 17095m | 7.1m/s | -54.4°C | 1.0% | -1.0hPa | 2.6V | 00:00:00 | 00:00:00 | 00:00:00 | |
| PG1ADW-2 | 2026-09-05 06:20:50 | 49.99385 | 15.73959 | 100° | 64km/h | 17096m | 7.1m/s | -54.3°C | 4.4% | 0hPa | 2.6V | 00:00:00 | 01:18:04 | 00:00:00 | |
| OK1SLM-15 | 2026-09-05 06:20:49 | 49.99385 | 15.73959 | 101° | 62km/h | 17096m | 7.1m/s | -54.4°C | 1.2% | 0hPa | 2.6V | 00:00:00 | 00:00:00 | 00:00:00 | |
| DO3MHA-11 | 2026-09-05 06:20:47 | 49.99391 | 15.73886 | 96° | 64km/h | 17076m | 3.7m/s | -54.2°C | 4.5% | 0hPa | 2.6V | 00:00:00 | 01:18:01 | 00:00:00 | |
| OK1ALN | 2026-09-05 06:20:46 | 49.99391 | 15.73886 | 96° | 62km/h | 17076m | 3.8m/s | -54.2°C | 1.2% | 0hPa | 2.6V | 00:00:00 | 00:00:00 | 00:00:00 | |
| PETON7-10 | 2026-09-05 06:20:45 | 49.99393 | 15.73837 | 95° | 64km/h | 17065m | 5.4m/s | -54.1°C | 4.4% | 0hPa | 2.6V | 00:00:00 | 01:17:59 | 00:00:00 | |
| OK1SLM-15 | 2026-09-05 06:20:44 | 49.99393 | 15.73837 | 96° | 66km/h | 17065m | 5.4m/s | -54.2°C | 1.2% | 0hPa | 2.6V | 00:00:00 | 00:00:00 | 00:00:00 | |
| SQ6EMJ | 2026-09-05 06:20:43 | 49.99396 | 15.73785 | 95° | 66km/h | 17054m | 4.7m/s | -54.1°C | 1.1% | 0hPa | 2.6V | 00:00:00 | 00:00:00 | 00:00:00 | |
| EDDB2-11 | 2026-09-05 06:20:42 | 49.99397 | 15.73759 | 95° | 64km/h | 17049m | 5.6m/s | -54.1°C | 1.0% | -1.0hPa | 2.6V | 00:00:00 | 00:00:00 | 00:00:00 | |
| OE3JTB-15 | 2026-09-05 06:20:39 | 49.99405 | 15.73686 | 101° | 62km/h | 17030m | 8.4m/s | -54.0°C | 4.3% | 0hPa | 2.6V | 00:00:00 | 00:00:00 | 00:00:00 | |
| NBG1-10 | 2026-09-05 06:20:37 | 49.99409 | 15.73641 | 97° | 64km/h | 17019m | 5.2m/s | -53.9°C | 4.3% | 0hPa | 2.6V | 00:00:00 | 01:17:51 | 00:00:00 | |
| EDDB2-12 | 2026-09-05 06:20:36 | 49.99411 | 15.73619 | 94° | 57km/h | 17014m | 3.3m/s | -53.9°C | 1.0% | -1.0hPa | 2.6V | 00:00:00 | 00:00:00 | 00:00:00 | |
| SONDE2-11 | 2026-09-05 06:20:35 | 49.99411 | 15.73595 | 92° | 58km/h | 17009m | 6.6m/s | -54.0°C | 1.0% | -1.0hPa | 2.6V | 00:00:00 | 00:00:00 | 00:00:00 | |
| OE5DXL-15 | 2026-09-05 06:20:34 | 49.99412 | 15.73571 | 90° | 64km/h | 17002m | 7.4m/s | -53.9°C | 4.2% | 0hPa | 2.6V | 00:00:00 | 00:00:00 | 00:00:00 | |
| POL2MAQ | 2026-09-05 06:20:33 | 49.99412 | 15.73571 | 91° | 64km/h | 17002m | 7.5m/s | -53.9°C | 1.1% | 0hPa | 2.6V | 00:00:00 | 00:00:00 | 00:00:00 | |
| OE5DRO-10 | 2026-09-05 06:20:32 | 49.99411 | 15.73516 | 90° | 62km/h | 16988m | 7.5m/s | -53.8°C | 4.3% | 0hPa | 2.6V | 00:00:00 | 00:00:00 | 00:00:00 | |
| SQ6EMJ | 2026-09-05 06:20:31 | 49.99411 | 15.73516 | 90° | 71km/h | 16988m | 7.6m/s | -53.9°C | 1.2% | 0hPa | 2.6V | 00:00:00 | 00:00:00 | 00:00:00 | |
| PG1ADW-2 | 2026-09-05 06:20:30 | 49.99410 | 15.73462 | 89° | 62km/h | 16977m | 5.2m/s | -53.9°C | 4.3% | 0hPa | 2.6V | 00:00:00 | 00:00:00 | 00:00:00 | |
| OE5MMP-10 | 2026-09-05 06:20:27 | 49.99412 | 15.73384 | 96° | 58km/h | 16958m | 6.0m/s | -54.0°C | 4.3% | 0hPa | 2.7V | 00:00:00 | 01:17:41 | 00:00:00 | |
| SQ6EMJ | 2026-09-05 06:20:26 | 49.99413 | 15.73360 | 96° | 58km/h | 16951m | 7.7m/s | -54.1°C | 1.2% | 0hPa | 2.7V | 00:00:00 | 00:00:00 | 00:00:00 | |
| 13BRC | 2026-09-05 06:20:24 | 49.99414 | 15.73339 | 93° | 53km/h | 16945m | 5.3m/s | -54.2°C | 1.2% | 0hPa | 2.7V | 00:00:00 | 00:00:00 | 00:00:00 | |
| SQ6EMJ | 2026-09-05 06:20:20 | 49.99407 | 15.73232 | 79° | 60km/h | 16916m | 8.0m/s | -54.6°C | 1.3% | 0hPa | 2.7V | 00:00:00 | 00:00:00 | 00:00:00 | |
| KRY50SP | 2026-09-05 06:20:19 | 49.99407 | 15.73232 | 79° | 60km/h | 16916m | 8.0m/s | 0°C | 0% | 0hPa | 2.7V | 00:00:00 | 00:00:00 | 00:00:00 | |
| DO3MHA-11 | 2026-09-05 06:20:17 | 49.99398 | 15.73157 | 84° | 68km/h | 16897m | 5.1m/s | -54.5°C | 4.5% | 0hPa | 2.7V | 00:00:00 | 01:17:31 | 00:00:00 | |
| PETON7-10 | 2026-09-05 06:20:15 | 49.99395 | 15.73105 | 84° | 68km/h | 16884m | 6.3m/s | -54.6°C | 4.5% | 0hPa | 2.7V | 00:00:00 | 00:00:00 | 00:00:00 | |
| OK1SLM-15 | 2026-09-05 06:20:14 | 49.99395 | 15.73105 | 84° | 68km/h | 16884m | 6.4m/s | -54.6°C | 1.3% | 0hPa | 2.7V | 00:00:00 | 00:00:00 | 00:00:00 | |
| OE5DRO-10 | 2026-09-05 06:20:13 | 49.99388 | 15.73053 | 77° | 68km/h | 16873m | 6.6m/s | -54.5°C | 4.4% | 0hPa | 2.7V | 00:00:00 | 00:00:00 | 00:00:00 | |
| POL2MAQ | 2026-09-05 06:20:12 | 49.99388 | 15.73053 | 78° | 68km/h | 16873m | 6.6m/s | -54.6°C | 1.2% | 0hPa | 2.6V | 00:00:00 | 00:00:00 | 00:00:00 | |
| EDDB2-11 | 2026-09-05 06:20:11 | 49.99381 | 15.73001 | 79° | 66km/h | 16858m | 7.9m/s | -54.5°C | 1.1% | -1.0hPa | 2.6V | 00:00:00 | 00:00:00 | 00:00:00 | |
| PG1ADW-2 | 2026-09-05 06:20:10 | 49.99378 | 15.72976 | 83° | 69km/h | 16851m | 6.1m/s | -54.5°C | 4.3% | 0hPa | 2.6V | 00:00:00 | 00:00:00 | 00:00:00 | |
| KRY50SP | 2026-09-05 06:20:09 | 49.99378 | 15.72976 | 84° | 66km/h | 16851m | 6.2m/s | 0°C | 0% | 0hPa | 2.6V | 00:00:00 | 00:00:00 | 00:00:00 | |
| OK1SLM-15 | 2026-09-05 06:20:08 | 49.99376 | 15.72950 | 84° | 68km/h | 16844m | 7.9m/s | -54.5°C | 1.2% | 0hPa | 2.6V | 00:00:00 | 00:00:00 | 00:00:00 | |
| DO3MHA-11 | 2026-09-05 06:20:07 | 49.99373 | 15.72896 | 87° | 68km/h | 16831m | 6.5m/s | -54.5°C | 4.3% | 0hPa | 2.6V | 00:00:00 | 01:17:21 | 00:00:00 | |
| SP3BTT-10 | 2026-09-05 06:20:06 | 49.99372 | 15.72869 | 88° | 75km/h | 16826m | 3.2m/s | -54.6°C | 4.3% | 0hPa | 2.6V | 00:00:00 | 00:00:00 | 00:00:00 | |
| EDDB2-12 | 2026-09-05 06:20:05 | 49.99371 | 15.72842 | 88° | 66km/h | 16821m | 5.7m/s | -54.8°C | 1.1% | -1.0hPa | 2.7V | 00:00:00 | 00:00:00 | 00:00:00 | |
| NBG1-10 | 2026-09-05 06:20:04 | 49.99371 | 15.72816 | 88° | 73km/h | 16814m | 8.2m/s | -54.9°C | 4.4% | 0hPa | 2.7V | 00:00:00 | 01:17:18 | 00:00:00 | |
| 13BRC | 2026-09-05 06:20:03 | 49.99371 | 15.72816 | 88° | 66km/h | 16814m | 8.3m/s | 0°C | 0% | 0hPa | 2.7V | 00:00:00 | 00:00:00 | 00:00:00 | |
| SQ6EMJ | 2026-09-05 06:20:02 | 49.99370 | 15.72790 | 89° | 68km/h | 16808m | 4.7m/s | -55.2°C | 1.3% | 0hPa | 2.7V | 00:00:00 | 00:00:00 | 00:00:00 | |
| OE3OSB-13 | 2026-09-05 06:19:48 | 49.99379 | 15.72372 | 99° | 68km/h | 16724m | 8.0m/s | -56.7°C | 1.4% | -1.0hPa | 2.7V | 00:00:00 | 00:00:00 | 00:00:00 | |
| DO3MHA-11 | 2026-09-05 06:19:47 | 49.99382 | 15.72347 | 102° | 71km/h | 16718m | 5.2m/s | -56.7°C | 5.2% | 0hPa | 2.7V | 00:00:00 | 01:17:01 | 00:00:00 | |
| SQ6EMJ | 2026-09-05 06:19:46 | 49.99385 | 15.72322 | 101° | 62km/h | 16712m | 6.0m/s | -56.6°C | 1.5% | 0hPa | 2.7V | 00:00:00 | 00:00:00 | 00:00:00 | |
| PETON7-10 | 2026-09-05 06:19:45 | 49.99387 | 15.72297 | 98° | 77km/h | 16707m | 4.9m/s | -56.5°C | 5.2% | 0hPa | 2.7V | 00:00:00 | 00:00:00 | 00:00:00 | |
| OK1ALN | 2026-09-05 06:19:44 | 49.99387 | 15.72298 | 98° | 64km/h | 16707m | 4.9m/s | -56.6°C | 1.5% | 0hPa | 2.6V | 00:00:00 | 00:00:00 | 00:00:00 | |
| 13BRC | 2026-09-05 06:19:42 | 49.99390 | 15.72247 | 91° | 68km/h | 16695m | 4.2m/s | 0°C | 0% | 0hPa | 2.6V | 00:00:00 | 00:00:00 | 00:00:00 | |
| EDDB2-11 | 2026-09-05 06:19:40 | 49.99389 | 15.72160 | 89° | 77km/h | 16677m | 3.2m/s | -56.6°C | 1.4% | -1.0hPa | 2.6V | 00:00:00 | 00:00:00 | 00:00:00 | |
| KRY50SP | 2026-09-05 06:19:39 | 49.99389 | 15.72129 | 89° | 78km/h | 16671m | 7.6m/s | 0°C | 0% | 0hPa | 2.6V | 00:00:00 | 00:00:00 | 00:00:00 | |
| DO3MHA-11 | 2026-09-05 06:19:37 | 49.99387 | 15.72066 | 88° | 78km/h | 16659m | 8.2m/s | -56.4°C | 5.3% | 0hPa | 2.6V | 00:00:00 | 01:16:51 | 00:00:00 | |
| OE5DRO-10 | 2026-09-05 06:19:35 | 49.99386 | 15.72000 | 91° | 78km/h | 16648m | 6.2m/s | -56.3°C | 5.3% | 0hPa | 2.6V | 00:00:00 | 00:00:00 | 00:00:00 | |
| OE5DXL-15 | 2026-09-05 06:19:34 | 49.99387 | 15.71968 | 91° | 77km/h | 16644m | 1.9m/s | -56.2°C | 5.3% | 0hPa | 2.6V | 00:00:00 | 00:00:00 | 00:00:00 | |
| SONDE2-11 | 2026-09-05 06:19:33 | 49.99387 | 15.71937 | 90° | 77km/h | 16640m | 4.7m/s | -56.3°C | 1.3% | -1.0hPa | 2.7V | 00:00:00 | 00:00:00 | 00:00:00 | |
| KRY50SP | 2026-09-05 06:19:32 | 49.99387 | 15.71937 | 91° | 78km/h | 16640m | 4.7m/s | 0°C | 0% | 0hPa | 2.7V | 00:00:00 | 00:00:00 | 00:00:00 | |
| NBG1-10 | 2026-09-05 06:19:31 | 49.99387 | 15.71877 | 92° | 75km/h | 16627m | 7.7m/s | -56.2°C | 5.1% | 0hPa | 2.7V | 00:00:00 | 01:16:45 | 00:00:00 | |
| PETON7-10 | 2026-09-05 06:19:30 | 49.99388 | 15.71848 | 93° | 77km/h | 16621m | 4.2m/s | -56.1°C | 5.1% | 0hPa | 2.7V | 00:00:00 | 00:00:00 | 00:00:00 | |
| SQ6EMJ | 2026-09-05 06:19:29 | 49.99388 | 15.71819 | 93° | 75km/h | 16616m | 5.9m/s | -56.2°C | 1.5% | 0hPa | 2.7V | 00:00:00 | 00:00:00 | 00:00:00 | |
| DO3MHA-11 | 2026-09-05 06:19:27 | 49.99388 | 15.71760 | 88° | 78km/h | 16605m | 5.5m/s | -56.0°C | 5.1% | 0hPa | 2.7V | 00:00:00 | 01:16:41 | 08:30:00 | |
| KRY50SP | 2026-09-05 06:19:25 | 49.99388 | 15.71729 | 89° | 78km/h | 16599m | 6.9m/s | 0°C | 0% | 0hPa | 2.7V | 00:00:00 | 00:00:00 | 00:00:00 | |
| SQ6EMJ | 2026-09-05 06:19:23 | 49.99385 | 15.71637 | 87° | 80km/h | 16582m | 8.0m/s | -55.9°C | 1.5% | 0hPa | 2.7V | 00:00:00 | 00:00:00 | 00:00:00 | |
| 13BRC | 2026-09-05 06:19:22 | 49.99385 | 15.71637 | 87° | 80km/h | 16582m | 8.0m/s | 0°C | 0% | 0hPa | 2.7V | 00:00:00 | 00:00:00 | 00:00:00 | |
| OE3MUC-15 | 2026-09-05 06:19:21 | 49.99382 | 15.71574 | 87° | 78km/h | 16569m | 7.8m/s | -55.8°C | 5.1% | 0hPa | 2.7V | 00:00:00 | 00:00:00 | 08:30:00 | |
| OE3JTB-15 | 2026-09-05 06:19:20 | 49.99381 | 15.71543 | 89° | 75km/h | 16563m | 4.8m/s | -55.7°C | 5.1% | 0hPa | 2.7V | 00:00:00 | 00:00:00 | 08:30:00 | |
| KRY50SP | 2026-09-05 06:19:19 | 49.99381 | 15.71543 | 89° | 80km/h | 16563m | 4.9m/s | 0°C | 0% | 0hPa | 2.6V | 00:00:00 | 00:00:00 | 00:00:00 | |
| OE3MUC-15 | 2026-09-05 06:19:17 | 49.99379 | 15.71451 | 89° | 75km/h | 16549m | 6.0m/s | -55.6°C | 5.0% | 0hPa | 2.6V | 00:00:00 | 00:00:00 | 00:00:00 | |
| OE5DRO-10 | 2026-09-05 06:19:16 | 49.99379 | 15.71422 | 90° | 73km/h | 16542m | 6.6m/s | -55.5°C | 4.9% | 0hPa | 2.6V | 00:00:00 | 00:00:00 | 00:00:00 | |
| PETON7-10 | 2026-09-05 06:19:15 | 49.99379 | 15.71393 | 91° | 75km/h | 16536m | 5.9m/s | -55.5°C | 5.0% | 0hPa | 2.7V | 00:00:00 | 01:16:29 | 00:00:00 | |
| OE3MUC-15 | 2026-09-05 06:19:13 | 49.99379 | 15.71336 | 90° | 75km/h | 16524m | 7.4m/s | -55.5°C | 5.0% | 0hPa | 2.7V | 00:00:00 | 00:00:00 | 00:00:00 | |
| KRY50SP | 2026-09-05 06:19:12 | 49.99379 | 15.71336 | 91° | 71km/h | 16524m | 7.5m/s | 0°C | 0% | 0hPa | 2.7V | 00:00:00 | 00:00:00 | 00:00:00 | |
| SQ6EMJ | 2026-09-05 06:19:11 | 49.99377 | 15.71279 | 86° | 75km/h | 16513m | 6.1m/s | -55.5°C | 1.4% | 0hPa | 2.7V | 00:00:00 | 00:00:00 | 00:00:00 | |
| PG1ADW-2 | 2026-09-05 06:19:10 | 49.99376 | 15.71249 | 86° | 73km/h | 16507m | 4.8m/s | -55.5°C | 4.9% | 0hPa | 2.7V | 00:00:00 | 00:00:00 | 00:00:00 | |
| OE3MUC-15 | 2026-09-05 06:19:09 | 49.99374 | 15.71218 | 84° | 78km/h | 16502m | 6.0m/s | -55.6°C | 4.9% | 0hPa | 2.7V | 00:00:00 | 00:00:00 | 00:00:00 | |
| DO3MHA-11 | 2026-09-05 06:19:07 | 49.99368 | 15.71157 | 81° | 73km/h | 16488m | 4.6m/s | -55.6°C | 4.9% | 0hPa | 2.7V | 00:00:00 | 01:16:21 | 00:00:00 | |
| OE3MUC-15 | 2026-09-05 06:19:05 | 49.99363 | 15.71097 | 85° | 73km/h | 16475m | 3.9m/s | -55.5°C | 4.9% | 0hPa | 2.7V | 00:00:00 | 00:00:00 | 00:00:00 | |
| OE5DXL-15 | 2026-09-05 06:19:04 | 49.99361 | 15.71068 | 85° | 75km/h | 16470m | 6.4m/s | -55.5°C | 4.9% | 0hPa | 2.7V | 00:00:00 | 00:00:00 | 00:00:00 | |
| EDDB2-12 | 2026-09-05 06:19:03 | 49.99360 | 15.71040 | 87° | 69km/h | 16465m | 4.0m/s | -55.6°C | 1.3% | -1.0hPa | 2.7V | 00:00:00 | 00:00:00 | 00:00:00 | |
| SONDE2-11 | 2026-09-05 06:19:02 | 49.99359 | 15.71013 | 89° | 68km/h | 16460m | 6.1m/s | -55.5°C | 1.3% | -1.0hPa | 2.7V | 00:00:00 | 00:00:00 | 00:00:00 | |
| OE3OSB-13 | 2026-09-05 06:18:46 | 49.99372 | 15.70558 | 91° | 77km/h | 16367m | 5.4m/s | -55.6°C | 1.3% | -1.0hPa | 2.7V | 00:00:00 | 00:00:00 | 00:00:00 | |
| PETON7-10 | 2026-09-05 06:18:45 | 49.99372 | 15.70528 | 91° | 77km/h | 16363m | 4.8m/s | -55.6°C | 4.9% | 0hPa | 2.7V | 00:00:00 | 00:00:00 | 00:00:00 | |
| SQ6EMJ | 2026-09-05 06:18:43 | 49.99373 | 15.70468 | 93° | 78km/h | 16353m | 5.9m/s | -55.6°C | 1.4% | 0hPa | 2.7V | 00:00:00 | 00:00:00 | 00:00:00 | |
| OM5KV | 2026-09-05 06:18:42 | 49.99373 | 15.70468 | 93° | 78km/h | 16353m | 5.9m/s | -55.6°C | 1.4% | 0hPa | 2.7V | 00:00:00 | 00:00:00 | 00:00:00 | |
| OE3MUC-15 | 2026-09-05 06:18:41 | 49.99374 | 15.70404 | 91° | 82km/h | 16339m | 5.0m/s | -55.6°C | 4.9% | 0hPa | 2.7V | 00:00:00 | 00:00:00 | 00:00:00 | |
| OE5DRO-10 | 2026-09-05 06:18:38 | 49.99377 | 15.70308 | 93° | 77km/h | 16323m | 5.2m/s | -55.5°C | 4.9% | 0hPa | 2.7V | 00:00:00 | 00:00:00 | 00:00:00 | |
| SQ6EMJ | 2026-09-05 06:18:37 | 49.99377 | 15.70277 | 92° | 78km/h | 16319m | 1.7m/s | -55.6°C | 1.5% | 0hPa | 2.7V | 00:00:00 | 00:00:00 | 00:00:00 | |
| KRY50SP | 2026-09-05 06:18:34 | 49.99377 | 15.70216 | 89° | 77km/h | 16310m | 7.0m/s | 0°C | 0% | 0hPa | 2.7V | 00:00:00 | 00:00:00 | 00:00:00 | |
| OE5DXL-15 | 2026-09-05 06:18:33 | 49.99376 | 15.70158 | 88° | 78km/h | 16296m | 4.1m/s | -55.4°C | 4.8% | 0hPa | 2.7V | 00:00:00 | 00:00:00 | 00:00:00 | |
| EDDB2-12 | 2026-09-05 06:18:32 | 49.99375 | 15.70130 | 86° | 69km/h | 16291m | 6.0m/s | -55.4°C | 1.3% | -1.0hPa | 2.7V | 00:00:00 | 00:00:00 | 00:00:00 | |
| SONDE2-11 | 2026-09-05 06:18:31 | 49.99373 | 15.70102 | 84° | 71km/h | 16286m | 2.9m/s | -55.4°C | 1.2% | -1.0hPa | 2.7V | 00:00:00 | 00:00:00 | 00:00:00 | |
| PG1ADW-2 | 2026-09-05 06:18:30 | 49.99372 | 15.70073 | 86° | 78km/h | 16282m | 5.8m/s | -55.4°C | 4.8% | 0hPa | 2.7V | 00:00:00 | 00:00:00 | 00:00:00 | |
| OE3MUC-15 | 2026-09-05 06:18:29 | 49.99371 | 15.70045 | 88° | 77km/h | 16275m | 8.2m/s | -55.4°C | 4.8% | 0hPa | 2.7V | 00:00:00 | 01:15:43 | 00:00:00 | |
| POL2MAQ | 2026-09-05 06:18:28 | 49.99371 | 15.70045 | 88° | 73km/h | 16275m | 8.3m/s | -55.4°C | 1.4% | 0hPa | 2.7V | 00:00:00 | 00:00:00 | 00:00:00 | |
| OE5MMP-10 | 2026-09-05 06:18:27 | 49.99369 | 15.69986 | 88° | 80km/h | 16263m | 6.8m/s | -55.6°C | 4.8% | 0hPa | 2.7V | 00:00:00 | 01:15:41 | 00:00:00 | |
| NBG1-10 | 2026-09-05 06:18:25 | 49.99367 | 15.69922 | 86° | 80km/h | 16254m | 6.1m/s | -55.9°C | 4.9% | 0hPa | 2.7V | 00:00:00 | 01:15:39 | 00:00:00 | |
| OK1SLM-15 | 2026-09-05 06:18:24 | 49.99367 | 15.69923 | 86° | 82km/h | 16254m | 6.1m/s | -55.9°C | 1.4% | 0hPa | 2.7V | 00:00:00 | 00:00:00 | 00:00:00 | |
| SQ6EMJ | 2026-09-05 06:18:23 | 49.99365 | 15.69890 | 88° | 82km/h | 16247m | 9.0m/s | -55.9°C | 1.4% | 0hPa | 2.7V | 00:00:00 | 00:00:00 | 00:00:00 | |
| OK1ALN | 2026-09-05 06:18:22 | 49.99364 | 15.69858 | 88° | 80km/h | 16240m | 4.1m/s | -55.9°C | 1.5% | 0hPa | 2.7V | 00:00:00 | 00:00:00 | 00:00:00 | |
| OE3MUC-15 | 2026-09-05 06:18:21 | 49.99361 | 15.69795 | 85° | 78km/h | 16230m | 2.9m/s | -55.8°C | 4.9% | 0hPa | 2.7V | 00:00:00 | 00:00:00 | 00:00:00 | |
| OE5DRO-10 | 2026-09-05 06:18:19 | 49.99357 | 15.69734 | 86° | 80km/h | 16219m | 7.5m/s | -55.9°C | 4.8% | 0hPa | 2.6V | 00:00:00 | 00:00:00 | 08:30:00 | |
| OK1SLM-15 | 2026-09-05 06:18:18 | 49.99357 | 15.69734 | 86° | 78km/h | 16219m | 7.6m/s | -55.9°C | 1.4% | 0hPa | 2.6V | 00:00:00 | 00:00:00 | 00:00:00 | |
| OE3MUC-15 | 2026-09-05 06:18:17 | 49.99355 | 15.69673 | 86° | 78km/h | 16208m | 6.8m/s | -56.0°C | 4.9% | 0hPa | 2.6V | 00:00:00 | 00:00:00 | 00:00:00 | |
| PETON7-10 | 2026-09-05 06:18:15 | 49.99351 | 15.69612 | 84° | 80km/h | 16198m | 4.5m/s | -56.1°C | 5.0% | 0hPa | 2.6V | 00:00:00 | 00:00:00 | 08:30:00 | |
| SQ6EMJ | 2026-09-05 06:18:13 | 49.99348 | 15.69551 | 90° | 77km/h | 16187m | 5.3m/s | -56.3°C | 1.5% | 0hPa | 2.6V | 00:00:00 | 00:00:00 | 00:00:00 | |
| DO3MHA-11 | 2026-09-05 06:18:10 | 49.99350 | 15.69461 | 96° | 80km/h | 16168m | 7.5m/s | -56.2°C | 5.1% | 0hPa | 2.6V | 00:00:00 | 01:15:24 | 00:00:00 | |
| OE3MUC-15 | 2026-09-05 06:18:09 | 49.99352 | 15.69430 | 98° | 82km/h | 16162m | 3.0m/s | -56.1°C | 5.1% | 0hPa | 2.6V | 00:00:00 | 00:00:00 | 08:30:00 | |
| POL2MAQ | 2026-09-05 06:18:08 | 49.99353 | 15.69430 | 99° | 78km/h | 16162m | 3.0m/s | -56.2°C | 1.5% | 0hPa | 2.7V | 00:00:00 | 00:00:00 | 00:00:00 | |
| SQ6EMJ | 2026-09-05 06:18:07 | 49.99357 | 15.69367 | 94° | 84km/h | 16155m | 3.4m/s | -56.1°C | 1.5% | 0hPa | 2.7V | 00:00:00 | 00:00:00 | 00:00:00 | |
| OE3MUC-15 | 2026-09-05 06:18:05 | 49.99357 | 15.69302 | 87° | 84km/h | 16144m | 5.0m/s | -56.0°C | 5.1% | 0hPa | 2.7V | 00:00:00 | 00:00:00 | 00:00:00 | |
| OM5KV | 2026-09-05 06:18:04 | 49.99357 | 15.69302 | 88° | 82km/h | 16144m | 5.0m/s | -56.0°C | 1.5% | 0hPa | 2.7V | 00:00:00 | 00:00:00 | 00:00:00 | |
| SONDE2-11 | 2026-09-05 06:18:00 | 49.99348 | 15.69106 | 89° | 80km/h | 16115m | 6.4m/s | -55.8°C | 1.3% | -1.0hPa | 2.7V | 00:00:00 | 00:00:00 | 00:00:00 | |
| DO3MHA-11 | 2026-09-05 06:17:59 | 49.99348 | 15.69106 | 90° | 78km/h | 16115m | 6.3m/s | -55.8°C | 4.9% | 0hPa | 2.7V | 00:00:00 | 01:15:13 | 00:00:00 | |
| OE5MMP-10 | 2026-09-05 06:17:57 | 49.99348 | 15.69043 | 90° | 78km/h | 16099m | 5.2m/s | -55.6°C | 4.9% | 0hPa | 2.7V | 00:00:00 | 01:15:11 | 00:00:00 | |
| OE3MUC-15 | 2026-09-05 06:17:56 | 49.99348 | 15.69013 | 91° | 78km/h | 16093m | 6.7m/s | -55.6°C | 4.9% | 0hPa | 2.7V | 00:00:00 | 00:00:00 | 00:00:00 | |
| S52SK | 2026-09-05 06:17:55 | 49.99348 | 15.69013 | 91° | 78km/h | 16093m | 6.7m/s | -55.7°C | 1.5% | 0hPa | 2.6V | 00:00:00 | 00:00:00 | 00:00:00 | |
| SQ6EMJ | 2026-09-05 06:17:54 | 49.99348 | 15.68982 | 94° | 78km/h | 16087m | 5.4m/s | -55.6°C | 1.5% | 0hPa | 2.6V | 00:00:00 | 00:00:00 | 00:00:00 | |
| OE3MUC-15 | 2026-09-05 06:17:52 | 49.99351 | 15.68890 | 93° | 77km/h | 16070m | 4.9m/s | -55.4°C | 4.8% | 0hPa | 2.6V | 00:00:00 | 00:00:00 | 00:00:00 | |
| SP3BTT-10 | 2026-09-05 06:17:51 | 49.99353 | 15.68859 | 95° | 73km/h | 16064m | 7.1m/s | -55.3°C | 4.8% | 0hPa | 2.6V | 00:00:00 | 00:00:00 | 00:00:00 | |
| PG1ADW-2 | 2026-09-05 06:17:50 | 49.99354 | 15.68829 | 95° | 75km/h | 16058m | 4.9m/s | -55.3°C | 4.8% | 0hPa | 2.7V | 00:00:00 | 00:00:00 | 00:00:00 | |
| DO3MHA-11 | 2026-09-05 06:17:49 | 49.99356 | 15.68800 | 94° | 75km/h | 16051m | 7.6m/s | -55.2°C | 4.8% | 0hPa | 2.7V | 00:00:00 | 01:15:03 | 08:30:00 | |
| OE3MUC-15 | 2026-09-05 06:17:48 | 49.99356 | 15.68770 | 92° | 75km/h | 16045m | 4.4m/s | -55.1°C | 4.8% | 0hPa | 2.6V | 00:00:00 | 00:00:00 | 00:00:00 | |
| OE5MMP-10 | 2026-09-05 06:17:47 | 49.99357 | 15.68739 | 91° | 75km/h | 16040m | 6.3m/s | -55.1°C | 4.7% | 0hPa | 2.6V | 00:00:00 | 01:15:01 | 08:30:00 | |
| S52SK | 2026-09-05 06:17:46 | 49.99357 | 15.68710 | 91° | 75km/h | 16034m | 5.2m/s | -55.1°C | 1.4% | 0hPa | 2.7V | 00:00:00 | 00:00:00 | 00:00:00 | |
| PETON7-10 | 2026-09-05 06:17:45 | 49.99357 | 15.68681 | 92° | 73km/h | 16027m | 9.6m/s | -55.0°C | 4.7% | 0hPa | 2.7V | 00:00:00 | 01:14:59 | 00:00:00 | |
| SQ6EMJ | 2026-09-05 06:17:44 | 49.99358 | 15.68653 | 92° | 69km/h | 16020m | 3.2m/s | -55.0°C | 1.4% | 0hPa | 2.7V | 00:00:00 | 00:00:00 | 00:00:00 | |
| OE5DRO-10 | 2026-09-05 06:17:41 | 49.99359 | 15.68570 | 93° | 75km/h | 16004m | 8.2m/s | -55.0°C | 4.5% | 0hPa | 2.7V | 00:00:00 | 00:00:00 | 00:00:00 | |
| OK1ALN | 2026-09-05 06:17:40 | 49.99359 | 15.68570 | 94° | 75km/h | 16004m | 8.3m/s | -55.1°C | 1.4% | 0hPa | 2.7V | 00:00:00 | 00:00:00 | 00:00:00 | |
| DO3MHA-11 | 2026-09-05 06:17:39 | 49.99361 | 15.68509 | 93° | 77km/h | 15991m | 9.0m/s | -55.5°C | 4.7% | 0hPa | 2.7V | 00:00:00 | 01:14:53 | 00:00:00 | |
| OE5MMP-10 | 2026-09-05 06:17:37 | 49.99362 | 15.68447 | 91° | 71km/h | 15975m | 10.0m/s | -55.5°C | 4.8% | 0hPa | 2.7V | 00:00:00 | 01:14:51 | 00:00:00 | |
| EDDB2-11 | 2026-09-05 06:17:36 | 49.99361 | 15.68418 | 87° | 73km/h | 15968m | 3.0m/s | -55.6°C | 1.3% | -1.0hPa | 2.7V | 00:00:00 | 00:00:00 | 00:00:00 | |
| OM5KV | 2026-09-05 06:17:34 | 49.99360 | 15.68388 | 86° | 75km/h | 15964m | 5.3m/s | -55.5°C | 1.5% | 0hPa | 2.7V | 00:00:00 | 00:00:00 | 00:00:00 | |
| SQ6EMJ | 2026-09-05 06:17:33 | 49.99356 | 15.68332 | 85° | 71km/h | 15953m | 7.1m/s | -55.5°C | 1.5% | 0hPa | 2.7V | 00:00:00 | 00:00:00 | 00:00:00 | |
| OE5DXL-15 | 2026-09-05 06:17:32 | 49.99355 | 15.68304 | 88° | 68km/h | 15947m | 2.8m/s | -55.5°C | 5.0% | 0hPa | 2.7V | 00:00:00 | 00:00:00 | 00:00:00 | |
| PG1ADW-2 | 2026-09-05 06:17:30 | 49.99354 | 15.68250 | 91° | 68km/h | 15939m | 3.7m/s | -55.6°C | 5.0% | 0hPa | 2.7V | 00:00:00 | 00:00:00 | 00:00:00 | |
| SONDE2-11 | 2026-09-05 06:17:29 | 49.99355 | 15.68197 | 90° | 69km/h | 15929m | 5.4m/s | -55.6°C | 1.3% | -1.0hPa | 2.6V | 00:00:00 | 00:00:00 | 00:00:00 | |
| SQ6EMJ | 2026-09-05 06:17:28 | 49.99355 | 15.68197 | 92° | 71km/h | 15929m | 5.4m/s | -55.6°C | 1.5% | 0hPa | 2.6V | 00:00:00 | 00:00:00 | 00:00:00 | |
| OE5MMP-10 | 2026-09-05 06:17:27 | 49.99355 | 15.68169 | 90° | 68km/h | 15921m | 8.9m/s | -55.6°C | 4.9% | 0hPa | 2.6V | 00:00:00 | 01:14:41 | 00:00:00 | |
| DO3MHA-11 | 2026-09-05 06:17:23 | 49.99355 | 15.68046 | 96° | 64km/h | 15896m | 8.8m/s | -55.5°C | 4.8% | 0hPa | 2.6V | 00:00:00 | 01:14:37 | 00:00:00 | |
| OE5DRO-10 | 2026-09-05 06:17:22 | 49.99357 | 15.68018 | 98° | 68km/h | 15889m | 5.2m/s | -55.6°C | 4.9% | 0hPa | 2.6V | 00:00:00 | 00:00:00 | 00:00:00 | |
| SQ6EMJ | 2026-09-05 06:17:21 | 49.99358 | 15.68018 | 98° | 68km/h | 15889m | 5.3m/s | -55.7°C | 1.5% | 0hPa | 2.6V | 00:00:00 | 00:00:00 | 00:00:00 | |
| OE3MUC-15 | 2026-09-05 06:17:19 | 49.99360 | 15.67947 | 85° | 58km/h | 15868m | 6.0m/s | -55.7°C | 5.0% | 0hPa | 2.6V | 00:00:00 | 00:00:00 | 00:00:00 | |
| NBG1-10 | 2026-09-05 06:17:18 | 49.99358 | 15.67925 | 79° | 68km/h | 15862m | 5.5m/s | -55.8°C | 5.0% | 0hPa | 2.7V | 00:00:00 | 01:14:32 | 00:00:00 | |
| OE5MMP-10 | 2026-09-05 06:17:17 | 49.99355 | 15.67903 | 79° | 71km/h | 15858m | 3.3m/s | -56.0°C | 5.1% | 0hPa | 2.7V | 00:00:00 | 01:14:31 | 00:00:00 | |
| SQ6EMJ | 2026-09-05 06:17:16 | 49.99355 | 15.67903 | 79° | 60km/h | 15858m | 3.4m/s | -56.0°C | 1.6% | 0hPa | 2.7V | 00:00:00 | 00:00:00 | 00:00:00 | |
| PETON7-10 | 2026-09-05 06:17:15 | 49.99349 | 15.67854 | 81° | 71km/h | 15846m | 7.5m/s | -56.3°C | 5.1% | 0hPa | 2.7V | 00:00:00 | 00:00:00 | 00:00:00 | |
| DO3MHA-11 | 2026-09-05 06:17:13 | 49.99342 | 15.67801 | 79° | 73km/h | 15831m | 9.7m/s | -56.3°C | 5.1% | 0hPa | 2.7V | 00:00:00 | 01:14:27 | 00:00:00 | |
| OE3MUC-15 | 2026-09-05 06:17:11 | 49.99332 | 15.67747 | 71° | 77km/h | 15818m | 7.4m/s | -56.3°C | 5.2% | 0hPa | 2.7V | 00:00:00 | 00:00:00 | 00:00:00 | |
| PG1ADW-2 | 2026-09-05 06:17:10 | 49.99325 | 15.67719 | 68° | 69km/h | 15810m | 5.8m/s | -56.3°C | 5.3% | 0hPa | 2.7V | 00:00:00 | 00:00:00 | 00:00:00 | |
| OE3MUC-15 | 2026-09-05 06:17:07 | 49.99305 | 15.67634 | 72° | 69km/h | 15795m | 4.3m/s | -56.2°C | 5.3% | 0hPa | 2.7V | 00:00:00 | 00:00:00 | 00:00:00 | |
| POL2MAQ | 2026-09-05 06:17:06 | 49.99305 | 15.67634 | 73° | 75km/h | 15795m | 4.4m/s | -56.2°C | 1.6% | 0hPa | 2.7V | 00:00:00 | 00:00:00 | 00:00:00 | |
| SP3BTT-10 | 2026-09-05 06:17:05 | 49.99295 | 15.67580 | 77° | 66km/h | 15783m | 5.9m/s | -56.1°C | 5.3% | 0hPa | 2.7V | 00:00:00 | 00:00:00 | 00:00:00 | |
| OK1SLM-15 | 2026-09-05 06:17:04 | 49.99295 | 15.67580 | 78° | 69km/h | 15783m | 5.9m/s | -56.1°C | 1.6% | 0hPa | 2.7V | 00:00:00 | 00:00:00 | 00:00:00 | |
| OE3MUC-15 | 2026-09-05 06:17:03 | 49.99287 | 15.67529 | 76° | 68km/h | 15775m | 3.7m/s | -56.0°C | 5.1% | 0hPa | 2.7V | 00:00:00 | 00:00:00 | 00:00:00 | |
| OM5KV | 2026-09-05 06:17:02 | 49.99287 | 15.67529 | 77° | 66km/h | 15775m | 3.7m/s | -56.0°C | 1.5% | 0hPa | 2.7V | 00:00:00 | 00:00:00 | 00:00:00 | |
| EDDB2-12 | 2026-09-05 06:16:59 | 49.99269 | 15.67397 | 74° | 69km/h | 15741m | 3.6m/s | -55.7°C | 1.4% | -1.0hPa | 2.7V | 00:00:00 | 00:00:00 | 00:00:00 | |
| SONDE2-11 | 2026-09-05 06:16:58 | 49.99265 | 15.67371 | 73° | 69km/h | 15737m | 4.9m/s | -55.7°C | 1.4% | -1.0hPa | 2.7V | 00:00:00 | 00:00:00 | 00:00:00 | |
| OE5MMP-10 | 2026-09-05 06:16:57 | 49.99264 | 15.67371 | 74° | 64km/h | 15737m | 4.9m/s | -55.7°C | 5.1% | 0hPa | 2.7V | 00:00:00 | 01:14:11 | 00:00:00 | |
| SQ6EMJ | 2026-09-05 06:16:56 | 49.99260 | 15.67345 | 74° | 68km/h | 15732m | 4.4m/s | -55.6°C | 1.5% | 0hPa | 2.7V | 00:00:00 | 00:00:00 | 00:00:00 | |
| OE3MUC-15 | 2026-09-05 06:16:55 | 49.99255 | 15.67320 | 73° | 64km/h | 15726m | 7.3m/s | -55.5°C | 5.0% | 0hPa | 2.7V | 00:00:00 | 00:00:00 | 08:30:00 | |
| DO3MHA-11 | 2026-09-05 06:16:53 | 49.99246 | 15.67273 | 74° | 62km/h | 15715m | 5.7m/s | -55.5°C | 5.0% | 0hPa | 2.7V | 00:00:00 | 01:14:07 | 00:00:00 | |
| OE3MUC-15 | 2026-09-05 06:16:51 | 49.99237 | 15.67227 | 74° | 58km/h | 15703m | 5.7m/s | -55.3°C | 4.9% | 0hPa | 2.7V | 00:00:00 | 00:00:00 | 00:00:00 | |
| PG1ADW-2 | 2026-09-05 06:16:50 | 49.99232 | 15.67204 | 70° | 64km/h | 15699m | 3.3m/s | -55.3°C | 4.9% | 0hPa | 2.7V | 00:00:00 | 01:14:04 | 00:00:00 | |
| OE3MUC-15 | 2026-09-05 06:16:47 | 49.99215 | 15.67141 | 68° | 64km/h | 15680m | 7.1m/s | -55.1°C | 4.9% | 0hPa | 2.7V | 00:00:00 | 00:00:00 | 00:00:00 | |
| OM5KV | 2026-09-05 06:16:46 | 49.99215 | 15.67141 | 69° | 57km/h | 15680m | 7.1m/s | -55.2°C | 1.5% | 0hPa | 2.7V | 00:00:00 | 00:00:00 | 00:00:00 | |
| PETON7-10 | 2026-09-05 06:16:45 | 49.99205 | 15.67096 | 73° | 66km/h | 15669m | 4.1m/s | -55.0°C | 5.0% | 0hPa | 2.7V | 00:00:00 | 00:00:00 | 00:00:00 | |
| OM5KV | 2026-09-05 06:16:44 | 49.99200 | 15.67071 | 74° | 69km/h | 15665m | 4.5m/s | -55.0°C | 1.5% | 0hPa | 2.7V | 00:00:00 | 00:00:00 | 00:00:00 | |
| OE3MUC-15 | 2026-09-05 06:16:43 | 49.99195 | 15.67044 | 73° | 69km/h | 15659m | 6.9m/s | -54.9°C | 4.9% | 0hPa | 2.7V | 00:00:00 | 00:00:00 | 00:00:00 | |
| OE3OSB-13 | 2026-09-05 06:16:42 | 49.99189 | 15.67018 | 69° | 71km/h | 15653m | 3.2m/s | -54.9°C | 1.3% | -1.0hPa | 2.6V | 00:00:00 | 00:00:00 | 00:00:00 | |
| SQ6EMJ | 2026-09-05 06:16:39 | 49.99170 | 15.66945 | 70° | 64km/h | 15637m | 6.5m/s | -54.8°C | 1.5% | 0hPa | 2.6V | 00:00:00 | 00:00:00 | 00:00:00 | |
| OK1ALN | 2026-09-05 06:16:38 | 49.99170 | 15.66945 | 70° | 64km/h | 15637m | 6.5m/s | -54.8°C | 1.5% | 0hPa | 2.6V | 00:00:00 | 00:00:00 | 00:00:00 | |
| OE5MMP-10 | 2026-09-05 06:16:37 | 49.99160 | 15.66898 | 75° | 66km/h | 15626m | 6.6m/s | -54.6°C | 4.8% | 0hPa | 2.6V | 00:00:00 | 01:13:51 | 00:00:00 | |
| OE3MUC-15 | 2026-09-05 06:16:35 | 49.99153 | 15.66850 | 81° | 64km/h | 15612m | 6.5m/s | -54.4°C | 4.8% | 0hPa | 2.6V | 00:00:00 | 00:00:00 | 00:00:00 | |
| EDDB2-11 | 2026-09-05 06:16:34 | 49.99151 | 15.66826 | 82° | 60km/h | 15606m | 6.1m/s | -54.5°C | 1.3% | -1.0hPa | 2.6V | 00:00:00 | 00:00:00 | 00:00:00 | |
| DO3MHA-11 | 2026-09-05 06:16:33 | 49.99149 | 15.66801 | 84° | 66km/h | 15600m | 6.0m/s | -54.4°C | 4.8% | 0hPa | 2.6V | 00:00:00 | 01:13:47 | 00:00:00 | |
| OE5DXL-15 | 2026-09-05 06:16:32 | 49.99148 | 15.66776 | 84° | 66km/h | 15593m | 7.3m/s | -54.3°C | 4.7% | 0hPa | 2.6V | 00:00:00 | 00:00:00 | 00:00:00 | |
| OE3MUC-15 | 2026-09-05 06:16:31 | 49.99145 | 15.66749 | 83° | 68km/h | 15586m | 7.7m/s | -54.2°C | 4.7% | 0hPa | 2.6V | 00:00:00 | 00:00:00 | 00:00:00 | |
| PG1ADW-2 | 2026-09-05 06:16:30 | 49.99143 | 15.66722 | 82° | 68km/h | 15578m | 7.5m/s | -54.1°C | 4.7% | 0hPa | 2.7V | 00:00:00 | 00:00:00 | 08:30:00 | |
| SQ6EMJ | 2026-09-05 06:16:28 | 49.99137 | 15.66670 | 77° | 66km/h | 15565m | 4.9m/s | -54.0°C | 1.4% | 0hPa | 2.7V | 00:00:00 | 00:00:00 | 00:00:00 | |
| SONDE2-11 | 2026-09-05 06:16:27 | 49.99129 | 15.66622 | 75° | 62km/h | 15551m | 8.6m/s | -54.0°C | 1.2% | -1.0hPa | 2.7V | 00:00:00 | 00:00:00 | 00:00:00 | |
| OE5DRO-10 | 2026-09-05 06:16:25 | 49.99125 | 15.66598 | 77° | 68km/h | 15544m | 6.2m/s | -53.9°C | 4.5% | 0hPa | 2.7V | 00:00:00 | 00:00:00 | 00:00:00 | |
| POL2MAQ | 2026-09-05 06:16:24 | 49.99125 | 15.66598 | 78° | 60km/h | 15544m | 6.2m/s | -53.9°C | 1.3% | 0hPa | 2.7V | 00:00:00 | 00:00:00 | 00:00:00 | |
| OE3MUC-15 | 2026-09-05 06:16:23 | 49.99117 | 15.66552 | 73° | 60km/h | 15530m | 6.2m/s | -53.8°C | 4.4% | 0hPa | 2.7V | 00:00:00 | 00:00:00 | 00:00:00 | |
| SQ6EMJ | 2026-09-05 06:16:21 | 49.99112 | 15.66529 | 72° | 62km/h | 15524m | 6.1m/s | -53.7°C | 1.3% | 0hPa | 2.7V | 00:00:00 | 00:00:00 | 00:00:00 | |
| SP3BTT-10 | 2026-09-05 06:16:20 | 49.99102 | 15.66484 | 73° | 69km/h | 15512m | 5.2m/s | -53.6°C | 4.4% | 0hPa | 2.7V | 00:00:00 | 00:00:00 | 00:00:00 | |
| OE3MUC-15 | 2026-09-05 06:16:19 | 49.99097 | 15.66460 | 76° | 75km/h | 15505m | 7.4m/s | -53.5°C | 4.4% | 0hPa | 2.7V | 00:00:00 | 00:00:00 | 08:30:00 | |
| OE5MMP-10 | 2026-09-05 06:16:17 | 49.99090 | 15.66410 | 79° | 71km/h | 15493m | 5.0m/s | -53.6°C | 4.5% | 0hPa | 2.6V | 00:00:00 | 01:13:31 | 08:30:00 | |
| OM5KV | 2026-09-05 06:16:16 | 49.99090 | 15.66410 | 79° | 68km/h | 15493m | 5.0m/s | -53.6°C | 1.4% | 0hPa | 2.7V | 00:00:00 | 00:00:00 | 00:00:00 | |
| PETON7-10 | 2026-09-05 06:16:15 | 49.99084 | 15.66358 | 81° | 69km/h | 15482m | 4.3m/s | -53.7°C | 4.7% | 0hPa | 2.7V | 00:00:00 | 01:13:29 | 00:00:00 | |
| DO3MHA-11 | 2026-09-05 06:16:13 | 49.99079 | 15.66301 | 84° | 75km/h | 15471m | 6.1m/s | -53.5°C | 4.7% | 0hPa | 2.7V | 00:00:00 | 01:13:27 | 08:30:00 | |
| OE3OSB-13 | 2026-09-05 06:16:11 | 49.99074 | 15.66241 | 82° | 77km/h | 15460m | 4.8m/s | -53.5°C | 1.2% | -1.0hPa | 2.6V | 00:00:00 | 00:00:00 | 00:00:00 | |
| PG1ADW-2 | 2026-09-05 06:16:10 | 49.99071 | 15.66212 | 80° | 68km/h | 15454m | 6.6m/s | -53.3°C | 4.5% | 0hPa | 2.6V | 00:00:00 | 00:00:00 | 00:00:00 | |
| OM5KV | 2026-09-05 06:16:09 | 49.99071 | 15.66212 | 81° | 75km/h | 15454m | 6.6m/s | -53.4°C | 1.4% | 0hPa | 2.6V | 00:00:00 | 00:00:00 | 00:00:00 | |
| OE5DRO-10 | 2026-09-05 06:16:06 | 49.99055 | 15.66115 | 77° | 68km/h | 15428m | 8.4m/s | -53.4°C | 4.4% | 0hPa | 2.6V | 00:00:00 | 00:00:00 | 00:00:00 | |
| OM5KV | 2026-09-05 06:16:05 | 49.99055 | 15.66115 | 77° | 57km/h | 15428m | 8.5m/s | -53.5°C | 1.3% | 0hPa | 2.6V | 00:00:00 | 00:00:00 | 00:00:00 | |
| POL2MAQ | 2026-09-05 06:16:04 | 49.99051 | 15.66093 | 81° | 58km/h | 15421m | 7.0m/s | -53.4°C | 1.4% | 0hPa | 2.6V | 00:00:00 | 00:00:00 | 00:00:00 | |
| EDDB2-11 | 2026-09-05 06:16:03 | 49.99047 | 15.66042 | 83° | 69km/h | 15404m | 9.0m/s | -53.4°C | 1.2% | -1.0hPa | 2.6V | 00:00:00 | 00:00:00 | 00:00:00 | |
| EDDB2-12 | 2026-09-05 06:15:57 | 49.99037 | 15.65844 | 79° | 66km/h | 15357m | 7.4m/s | -53.0°C | 1.2% | -1.0hPa | 2.6V | 00:00:00 | 00:00:00 | 00:00:00 | |
| SONDE2-11 | 2026-09-05 06:15:56 | 49.99034 | 15.65818 | 80° | 64km/h | 15351m | 3.2m/s | -52.9°C | 1.2% | -1.0hPa | 2.6V | 00:00:00 | 00:00:00 | 00:00:00 | |
| OM5KV | 2026-09-05 06:15:53 | 49.99031 | 15.65794 | 82° | 62km/h | 15346m | 6.6m/s | -52.9°C | 1.3% | 0hPa | 2.6V | 00:00:00 | 00:00:00 | 00:00:00 | |
| OM5KV | 2026-09-05 06:15:52 | 49.99030 | 15.65770 | 89° | 62km/h | 15339m | 7.6m/s | -52.8°C | 1.3% | 0hPa | 2.6V | 00:00:00 | 00:00:00 | 00:00:00 | |
| OK1SLM-15 | 2026-09-05 06:15:51 | 49.99030 | 15.65745 | 96° | 64km/h | 15332m | 5.5m/s | -52.8°C | 1.3% | 0hPa | 2.6V | 00:00:00 | 00:00:00 | 00:00:00 | |
| SQ6EMJ | 2026-09-05 06:15:50 | 49.99033 | 15.65694 | 97° | 69km/h | 15319m | 8.5m/s | -52.8°C | 1.4% | 0hPa | 2.6V | 00:00:00 | 00:00:00 | 00:00:00 | |
| OE5DRO-10 | 2026-09-05 06:15:47 | 49.99034 | 15.65605 | 92° | 73km/h | 15301m | 4.6m/s | -52.7°C | 4.4% | 0hPa | 2.6V | 00:00:00 | 00:00:00 | 00:00:00 | |
| OE5MMP-10 | 2026-09-05 06:15:46 | 49.99035 | 15.65573 | 93° | 69km/h | 15296m | 5.8m/s | -52.6°C | 4.3% | 0hPa | 2.6V | 00:00:00 | 01:13:00 | 00:00:00 | |
| PETON7-10 | 2026-09-05 06:15:45 | 49.99036 | 15.65543 | 94° | 71km/h | 15290m | 4.5m/s | -52.7°C | 4.4% | 0hPa | 2.7V | 00:00:00 | 00:00:00 | 00:00:00 | |
| DO3MHA-11 | 2026-09-05 06:15:44 | 49.99036 | 15.65514 | 92° | 71km/h | 15285m | 5.3m/s | -52.9°C | 4.4% | 0hPa | 2.7V | 00:00:00 | 01:12:58 | 00:00:00 | |
| OM5KV | 2026-09-05 06:15:41 | 49.99034 | 15.65464 | 81° | 60km/h | 15274m | 4.5m/s | -53.1°C | 1.4% | 0hPa | 2.7V | 00:00:00 | 00:00:00 | 00:00:00 | |
| OE3OSB-13 | 2026-09-05 06:15:40 | 49.99028 | 15.65417 | 76° | 64km/h | 15264m | 5.7m/s | -53.1°C | 1.3% | -1.0hPa | 2.7V | 00:00:00 | 00:00:00 | 00:00:00 | |
| POL1PZ | 2026-09-05 06:15:38 | 49.99024 | 15.65390 | 81° | 73km/h | 15259m | 4.9m/s | -53.2°C | 1.4% | 0hPa | 2.7V | 00:00:00 | 00:00:00 | 00:00:00 | |
| S52SK | 2026-09-05 06:15:37 | 49.99021 | 15.65360 | 86° | 78km/h | 15254m | 5.2m/s | 0°C | 0% | 0hPa | 2.7V | 00:00:00 | 00:00:00 | 00:00:00 | |
| OE5MMP-10 | 2026-09-05 06:15:36 | 49.99020 | 15.65297 | 92° | 77km/h | 15238m | 9.1m/s | -53.3°C | 4.5% | 0hPa | 2.7V | 00:00:00 | 01:12:50 | 00:00:00 | |
| SP3BTT-10 | 2026-09-05 06:15:35 | 49.99021 | 15.65266 | 97° | 82km/h | 15229m | 8.2m/s | -53.3°C | 4.5% | 0hPa | 2.7V | 00:00:00 | 00:00:00 | 08:30:00 | |
| OM5KV | 2026-09-05 06:15:34 | 49.99021 | 15.65266 | 97° | 78km/h | 15229m | 8.2m/s | -53.4°C | 1.4% | 0hPa | 2.6V | 00:00:00 | 00:00:00 | 00:00:00 | |
| DO3MHA-11 | 2026-09-05 06:15:33 | 49.99027 | 15.65209 | 104° | 80km/h | 15214m | 5.6m/s | -53.3°C | 4.5% | 0hPa | 2.6V | 00:00:00 | 01:12:47 | 00:00:00 | |
| EDDB2-11 | 2026-09-05 06:15:32 | 49.99032 | 15.65183 | 104° | 64km/h | 15210m | 3.6m/s | -53.4°C | 1.3% | -1.0hPa | 2.6V | 00:00:00 | 00:00:00 | 00:00:00 | |
| SQ6EMJ | 2026-09-05 06:15:31 | 49.99032 | 15.65183 | 106° | 66km/h | 15210m | 3.6m/s | -53.4°C | 1.5% | 0hPa | 2.6V | 00:00:00 | 00:00:00 | 00:00:00 | |
| PETON7-10 | 2026-09-05 06:15:30 | 49.99037 | 15.65132 | 95° | 91km/h | 15201m | 5.3m/s | -53.3°C | 4.5% | 0hPa | 2.6V | 00:00:00 | 01:12:44 | 00:00:00 | |
| OE5DXL-15 | 2026-09-05 06:15:28 | 49.99038 | 15.65070 | 89° | 86km/h | 15190m | 7.9m/s | -53.4°C | 4.5% | 0hPa | 2.6V | 00:00:00 | 00:00:00 | 00:00:00 | |
| EDDB2-12 | 2026-09-05 06:15:26 | 49.99040 | 15.64963 | 99° | 95km/h | 15165m | 6.5m/s | -53.4°C | 1.3% | -1.0hPa | 2.6V | 00:00:00 | 00:00:00 | 00:00:00 | |
| SONDE2-11 | 2026-09-05 06:15:25 | 49.99045 | 15.64926 | 102° | 95km/h | 15158m | 6.3m/s | -53.5°C | 1.3% | -1.0hPa | 2.6V | 00:00:00 | 00:00:00 | 00:00:00 | |
| DO3MHA-11 | 2026-09-05 06:15:23 | 49.99051 | 15.64889 | 106° | 93km/h | 15152m | 7.0m/s | -53.4°C | 4.6% | 0hPa | 2.6V | 00:00:00 | 01:12:37 | 00:00:00 | |
| S52SK | 2026-09-05 06:15:21 | 49.99057 | 15.64853 | 107° | 95km/h | 15146m | 5.3m/s | 0°C | 0% | 0hPa | 2.7V | 00:00:00 | 00:00:00 | 00:00:00 | |
| SQ6EMJ | 2026-09-05 06:15:20 | 49.99069 | 15.64782 | 103° | 93km/h | 15133m | 5.5m/s | -53.4°C | 1.5% | 0hPa | 2.7V | 00:00:00 | 00:00:00 | 00:00:00 | |
| POL1PZ | 2026-09-05 06:15:17 | 49.99077 | 15.64710 | 101° | 93km/h | 15123m | 6.4m/s | -53.4°C | 1.5% | 0hPa | 2.7V | 00:00:00 | 00:00:00 | 00:00:00 | |
| OK1ALN | 2026-09-05 06:15:16 | 49.99085 | 15.64639 | 100° | 93km/h | 15112m | 4.5m/s | -53.3°C | 1.5% | 0hPa | 2.7V | 00:00:00 | 00:00:00 | 00:00:00 | |
| OK1SLM-15 | 2026-09-05 06:15:15 | 49.99089 | 15.64603 | 99° | 93km/h | 15106m | 6.1m/s | -53.3°C | 1.5% | 0hPa | 2.7V | 00:00:00 | 00:00:00 | 00:00:00 | |
| DO3MHA-11 | 2026-09-05 06:15:13 | 49.99095 | 15.64532 | 99° | 84km/h | 15097m | 5.0m/s | -53.2°C | 4.6% | 0hPa | 2.7V | 00:00:00 | 01:12:27 | 00:00:00 | |
| PG1ADW-2 | 2026-09-05 06:15:10 | 49.99106 | 15.64431 | 100° | 84km/h | 15083m | 5.3m/s | -53.3°C | 4.6% | 0hPa | 2.7V | 00:00:00 | 00:00:00 | 00:00:00 | |
| OE5DRO-10 | 2026-09-05 06:15:09 | 49.99109 | 15.64398 | 101° | 84km/h | 15078m | 4.1m/s | -53.3°C | 4.7% | 0hPa | 2.7V | 00:00:00 | 00:00:00 | 00:00:00 | |
| NBG1-10 | 2026-09-05 06:15:08 | 49.99113 | 15.64366 | 102° | 84km/h | 15073m | 5.5m/s | -53.3°C | 4.6% | 0hPa | 2.7V | 00:00:00 | 01:12:22 | 00:00:00 | |
| OE5MMP-10 | 2026-09-05 06:15:06 | 49.99121 | 15.64303 | 101° | 84km/h | 15064m | 5.2m/s | -53.2°C | 4.7% | 0hPa | 2.7V | 00:00:00 | 01:12:20 | 00:00:00 | |
| SQ6EMJ | 2026-09-05 06:15:04 | 49.99129 | 15.64238 | 100° | 84km/h | 15054m | 4.2m/s | -53.2°C | 1.5% | 0hPa | 2.7V | 00:00:00 | 00:00:00 | 00:00:00 | |
| EDDB2-11 | 2026-09-05 06:15:01 | 49.99139 | 15.64139 | 98° | 86km/h | 15040m | 5.1m/s | -53.1°C | 1.3% | -1.0hPa | 2.7V | 00:00:00 | 00:00:00 | 00:00:00 | |
| EDDB2-12 | 2026-09-05 06:14:55 | 49.99165 | 15.63909 | 102° | 86km/h | 15008m | 4.2m/s | -52.8°C | 1.3% | -1.0hPa | 2.7V | 00:00:00 | 00:00:00 | 00:00:00 | |
| SONDE2-11 | 2026-09-05 06:14:54 | 49.99170 | 15.63876 | 104° | 84km/h | 15003m | 6.7m/s | -52.7°C | 1.3% | -1.0hPa | 2.7V | 00:00:00 | 00:00:00 | 00:00:00 | |
| OM5KV | 2026-09-05 06:14:53 | 49.99164 | 15.63908 | 104° | 86km/h | 15008m | 4.2m/s | -52.8°C | 1.5% | 0hPa | 2.7V | 00:00:00 | 00:00:00 | 00:00:00 | |
| SQ6EMJ | 2026-09-05 06:14:52 | 49.99170 | 15.63876 | 105° | 86km/h | 15003m | 6.7m/s | -52.7°C | 1.5% | 0hPa | 2.7V | 00:00:00 | 00:00:00 | 00:00:00 | |
| DO3MHA-11 | 2026-09-05 06:14:51 | 49.99181 | 15.63811 | 105° | 86km/h | 14994m | 4.2m/s | -52.6°C | 4.3% | 0hPa | 2.7V | 00:00:00 | 01:12:05 | 00:00:00 | |
| PG1ADW-2 | 2026-09-05 06:14:50 | 49.99186 | 15.63778 | 103° | 84km/h | 14989m | 6.0m/s | -52.6°C | 4.3% | 0hPa | 2.7V | 00:00:00 | 00:00:00 | 00:00:00 | |
| OM5KV | 2026-09-05 06:14:47 | 49.99195 | 15.63711 | 103° | 88km/h | 14979m | 5.4m/s | -52.6°C | 1.5% | 0hPa | 2.7V | 00:00:00 | 00:00:00 | 00:00:00 | |
| OE5MMP-10 | 2026-09-05 06:14:46 | 49.99205 | 15.63643 | 103° | 82km/h | 14969m | 3.8m/s | -52.7°C | 4.4% | 0hPa | 2.7V | 00:00:00 | 01:12:00 | 08:30:00 | |
| PETON7-10 | 2026-09-05 06:14:45 | 49.99209 | 15.63610 | 102° | 84km/h | 14964m | 6.1m/s | -52.8°C | 4.5% | 0hPa | 2.7V | 00:00:00 | 01:11:59 | 00:00:00 | |
| OM5KV | 2026-09-05 06:14:44 | 49.99209 | 15.63610 | 103° | 88km/h | 14964m | 6.1m/s | -52.9°C | 0% | 0hPa | 2.7V | 00:00:00 | 00:00:00 | 00:00:00 | |
| OE3MUC-15 | 2026-09-05 06:14:43 | 49.99218 | 15.63544 | 103° | 82km/h | 14954m | 4.9m/s | -53.2°C | 4.6% | 0hPa | 2.7V | 00:00:00 | 00:00:00 | 00:00:00 | |
| POL2MAQ | 2026-09-05 06:14:42 | 49.99218 | 15.63544 | 104° | 84km/h | 14954m | 4.9m/s | -53.2°C | 1.5% | 0hPa | 2.7V | 00:00:00 | 00:00:00 | 00:00:00 | |
| DO3MHA-11 | 2026-09-05 06:14:41 | 49.99228 | 15.63481 | 106° | 82km/h | 14945m | 3.3m/s | -53.3°C | 4.6% | 0hPa | 2.7V | 00:00:00 | 01:11:55 | 00:00:00 | |
| OM5KV | 2026-09-05 06:14:40 | 49.99229 | 15.63481 | 106° | 82km/h | 14945m | 3.4m/s | -53.4°C | 1.6% | 0hPa | 2.7V | 00:00:00 | 00:00:00 | 00:00:00 | |
| OE3MUC-15 | 2026-09-05 06:14:39 | 49.99239 | 15.63421 | 105° | 78km/h | 14935m | 4.4m/s | -53.4°C | 4.6% | 0hPa | 2.7V | 00:00:00 | 00:00:00 | 00:00:00 | |
| OE3OSB-13 | 2026-09-05 06:14:38 | 49.99250 | 15.63361 | 107° | 78km/h | 14925m | 4.7m/s | -53.6°C | 1.4% | -1.0hPa | 2.6V | 00:00:00 | 00:00:00 | 00:00:00 | |
| OE3JTB-15 | 2026-09-05 06:14:37 | 49.99249 | 15.63361 | 108° | 99km/h | 14926m | 4.7m/s | -53.5°C | 4.6% | 0hPa | 2.6V | 00:00:00 | 00:00:00 | 00:00:00 | |
| OE5MMP-10 | 2026-09-05 06:14:36 | 49.99256 | 15.63331 | 107° | 89km/h | 14921m | 4.0m/s | -53.5°C | 4.6% | 0hPa | 2.6V | 00:00:00 | 01:11:50 | 00:00:00 | |
| NBG1-10 | 2026-09-05 06:14:35 | 49.99261 | 15.63301 | 107° | 97km/h | 14916m | 5.8m/s | -53.5°C | 4.6% | 0hPa | 2.6V | 00:00:00 | 01:11:49 | 00:00:00 | |
| SQ6EMJ | 2026-09-05 06:14:34 | 49.99267 | 15.63270 | 105° | 82km/h | 14911m | 4.6m/s | -53.5°C | 1.6% | 0hPa | 2.6V | 00:00:00 | 00:00:00 | 00:00:00 | |
| DO3MHA-11 | 2026-09-05 06:14:31 | 49.99280 | 15.63170 | 102° | 93km/h | 14899m | 5.7m/s | -53.5°C | 4.7% | 0hPa | 2.6V | 00:00:00 | 01:11:45 | 00:00:00 | |
| PETON7-10 | 2026-09-05 06:14:30 | 49.99285 | 15.63134 | 102° | 95km/h | 14894m | 4.3m/s | -53.5°C | 4.8% | 0hPa | 2.6V | 00:00:00 | 00:00:00 | 00:00:00 | |
| OM5KV | 2026-09-05 06:14:29 | 49.99286 | 15.63134 | 103° | 95km/h | 14894m | 4.4m/s | -53.5°C | 0% | 0hPa | 2.6V | 00:00:00 | 00:00:00 | 00:00:00 | |
| SQ6EMJ | 2026-09-05 06:14:28 | 49.99295 | 15.63060 | 101° | 95km/h | 14885m | 6.1m/s | -53.5°C | 1.6% | 0hPa | 2.6V | 00:00:00 | 00:00:00 | 00:00:00 | |
| OE3MUC-15 | 2026-09-05 06:14:27 | 49.99298 | 15.63024 | 100° | 91km/h | 14879m | 5.6m/s | -53.4°C | 4.7% | 0hPa | 2.6V | 00:00:00 | 00:00:00 | 00:00:00 | |
| OE5MMP-10 | 2026-09-05 06:14:26 | 49.99303 | 15.62989 | 101° | 95km/h | 14874m | 4.8m/s | -53.4°C | 4.7% | 0hPa | 2.6V | 00:00:00 | 01:11:40 | 00:00:00 | |
| EDDB2-12 | 2026-09-05 06:14:24 | 49.99317 | 15.62884 | 103° | 93km/h | 14858m | 4.9m/s | -53.4°C | 1.4% | -1.0hPa | 2.6V | 00:00:00 | 00:00:00 | 00:00:00 | |
| SONDE2-11 | 2026-09-05 06:14:23 | 49.99323 | 15.62848 | 103° | 95km/h | 14853m | 4.6m/s | -53.3°C | 1.5% | -1.0hPa | 2.6V | 00:00:00 | 00:00:00 | 00:00:00 | |
| DO3MHA-11 | 2026-09-05 06:14:21 | 49.99328 | 15.62811 | 104° | 99km/h | 14848m | 6.0m/s | -53.3°C | 4.7% | 0hPa | 2.6V | 00:00:00 | 01:11:35 | 08:30:00 | |
| OM5KV | 2026-09-05 06:14:20 | 49.99328 | 15.62811 | 104° | 95km/h | 14848m | 6.1m/s | -53.3°C | 1.6% | 0hPa | 2.6V | 00:00:00 | 00:00:00 | 00:00:00 | |
| OE3MUC-15 | 2026-09-05 06:14:19 | 49.99338 | 15.62738 | 102° | 100km/h | 14838m | 4.2m/s | -53.2°C | 4.7% | 0hPa | 2.6V | 00:00:00 | 00:00:00 | 00:00:00 | |
| OM5KV | 2026-09-05 06:14:17 | 49.99343 | 15.62699 | 101° | 100km/h | 14833m | 5.9m/s | -53.2°C | 0% | 0hPa | 2.6V | 00:00:00 | 00:00:00 | 00:00:00 | |
| OE5DXL-15 | 2026-09-05 06:14:16 | 49.99350 | 15.62621 | 97° | 106km/h | 14825m | 4.2m/s | -53.3°C | 4.7% | 0hPa | 2.6V | 00:00:00 | 00:00:00 | 00:00:00 | |
| OE3MUC-15 | 2026-09-05 06:14:15 | 49.99353 | 15.62582 | 96° | 97km/h | 14820m | 5.4m/s | -53.2°C | 4.6% | 0hPa | 2.6V | 00:00:00 | 00:00:00 | 00:00:00 | |
| S52SK | 2026-09-05 06:14:14 | 49.99353 | 15.62582 | 97° | 99km/h | 14820m | 5.4m/s | 0°C | 0% | 0hPa | 2.6V | 00:00:00 | 00:00:00 | 00:00:00 | |
| OE5DRO-10 | 2026-09-05 06:14:12 | 49.99361 | 15.62468 | 99° | 104km/h | 14806m | 5.8m/s | -53.1°C | 4.6% | 0hPa | 2.6V | 00:00:00 | 00:00:00 | 00:00:00 | |
| DO3MHA-11 | 2026-09-05 06:14:11 | 49.99365 | 15.62432 | 101° | 100km/h | 14801m | 3.8m/s | -53.0°C | 4.6% | 0hPa | 2.6V | 00:00:00 | 01:11:25 | 00:00:00 | |
| OE3MUC-15 | 2026-09-05 06:14:10 | 49.99369 | 15.62395 | 102° | 93km/h | 14797m | 4.6m/s | -52.9°C | 4.4% | 0hPa | 2.6V | 00:00:00 | 00:00:00 | 08:30:00 | |
| OM5KV | 2026-09-05 06:14:09 | 49.99369 | 15.62396 | 102° | 93km/h | 14797m | 4.7m/s | -53.0°C | 1.5% | 0hPa | 2.7V | 00:00:00 | 00:00:00 | 00:00:00 | |
| OE3OSB-13 | 2026-09-05 06:14:07 | 49.99387 | 15.62248 | 99° | 104km/h | 14776m | 5.6m/s | -53.2°C | 1.4% | -1.0hPa | 2.7V | 00:00:00 | 00:00:00 | 00:00:00 | |
| OE3MUC-15 | 2026-09-05 06:14:06 | 49.99387 | 15.62248 | 100° | 108km/h | 14776m | 5.6m/s | -53.1°C | 4.6% | 0hPa | 2.7V | 00:00:00 | 00:00:00 | 00:00:00 | |
| SQ6EMJ | 2026-09-05 06:14:05 | 49.99391 | 15.62207 | 100° | 110km/h | 14771m | 4.1m/s | -53.2°C | 1.6% | 0hPa | 2.7V | 00:00:00 | 00:00:00 | 00:00:00 | |
| OM5KV | 2026-09-05 06:14:02 | 49.99399 | 15.62122 | 97° | 110km/h | 14759m | 6.4m/s | -53.1°C | 1.6% | 0hPa | 2.7V | 00:00:00 | 00:00:00 | 00:00:00 | |
| EDDB2-11 | 2026-09-05 06:13:59 | 49.99406 | 15.61904 | 91° | 110km/h | 14731m | 3.9m/s | -53.2°C | 1.4% | -1.0hPa | 2.7V | 00:00:00 | 00:00:00 | 00:00:00 | |
| EDDB2-12 | 2026-09-05 06:13:53 | 49.99422 | 15.61658 | 98° | 110km/h | 14703m | 3.2m/s | -53.4°C | 1.4% | -1.0hPa | 2.7V | 00:00:00 | 00:00:00 | 00:00:00 | |
| DO3MHA-11 | 2026-09-05 06:13:51 | 49.99426 | 15.61614 | 97° | 111km/h | 14700m | 4.8m/s | -53.4°C | 4.7% | 0hPa | 2.7V | 00:00:00 | 01:11:05 | 00:00:00 | |
| PG1ADW-2 | 2026-09-05 06:13:50 | 49.99428 | 15.61570 | 95° | 113km/h | 14694m | 5.8m/s | -53.4°C | 4.7% | 0hPa | 2.7V | 00:00:00 | 00:00:00 | 00:00:00 | |
| OM5KV | 2026-09-05 06:13:49 | 49.99429 | 15.61570 | 95° | 113km/h | 14694m | 5.8m/s | -53.4°C | 1.6% | 0hPa | 2.7V | 00:00:00 | 00:00:00 | 00:00:00 | |
| SQ6EMJ | 2026-09-05 06:13:48 | 49.99430 | 15.61481 | 91° | 111km/h | 14684m | 5.3m/s | -53.4°C | 1.6% | 0hPa | 2.7V | 00:00:00 | 00:00:00 | 00:00:00 | |
| OE5DXL-15 | 2026-09-05 06:13:46 | 49.99431 | 15.61395 | 91° | 110km/h | 14674m | 3.4m/s | -53.5°C | 4.7% | 0hPa | 2.7V | 00:00:00 | 00:00:00 | 00:00:00 | |
| PETON7-10 | 2026-09-05 06:13:45 | 49.99430 | 15.61351 | 90° | 113km/h | 14670m | 4.5m/s | -53.6°C | 4.7% | 0hPa | 2.7V | 00:00:00 | 00:00:00 | 08:30:00 | |
| OM5KV | 2026-09-05 06:13:43 | 49.99430 | 15.61308 | 90° | 111km/h | 14665m | 5.6m/s | -53.8°C | 1.6% | 0hPa | 2.7V | 00:00:00 | 00:00:00 | 00:00:00 | |
| SQ6EMJ | 2026-09-05 06:13:42 | 49.99429 | 15.61265 | 90° | 111km/h | 14660m | 4.2m/s | -53.8°C | 1.6% | 0hPa | 2.7V | 00:00:00 | 00:00:00 | 00:00:00 | |
| DO3MHA-11 | 2026-09-05 06:13:41 | 49.99430 | 15.61177 | 93° | 115km/h | 14650m | 3.7m/s | -53.8°C | 4.8% | 0hPa | 2.7V | 00:00:00 | 01:10:55 | 00:00:00 | |
| POL2MAQ | 2026-09-05 06:13:40 | 49.99430 | 15.61177 | 93° | 113km/h | 14650m | 3.7m/s | -53.9°C | 1.6% | 0hPa | 2.7V | 00:00:00 | 00:00:00 | 00:00:00 | |
| SQ6EMJ | 2026-09-05 06:13:37 | 49.99432 | 15.60997 | 90° | 117km/h | 14635m | 3.0m/s | -53.9°C | 1.6% | 0hPa | 2.7V | 00:00:00 | 00:00:00 | 00:00:00 | |
| OE5MMP-10 | 2026-09-05 06:13:36 | 49.99432 | 15.60951 | 90° | 113km/h | 14631m | 4.4m/s | -53.8°C | 4.7% | 0hPa | 2.7V | 00:00:00 | 01:10:50 | 00:00:00 | |
| OE3OSB-13 | 2026-09-05 06:13:35 | 49.99431 | 15.60907 | 88° | 113km/h | 14627m | 4.2m/s | -53.8°C | 1.4% | -1.0hPa | 2.7V | 00:00:00 | 00:00:00 | 00:00:00 | |
| OE5DRO-10 | 2026-09-05 06:13:34 | 49.99431 | 15.60862 | 89° | 108km/h | 14622m | 3.9m/s | -53.7°C | 4.8% | 0hPa | 2.7V | 00:00:00 | 00:00:00 | 00:00:00 | |
| POL1PZ | 2026-09-05 06:13:33 | 49.99431 | 15.60862 | 90° | 115km/h | 14622m | 3.9m/s | 0°C | 0% | 0hPa | 2.7V | 00:00:00 | 00:00:00 | 00:00:00 | |
| OK1ALN | 2026-09-05 06:13:32 | 49.99430 | 15.60817 | 89° | 117km/h | 14618m | 4.8m/s | -53.8°C | 1.6% | 0hPa | 2.7V | 00:00:00 | 00:00:00 | 00:00:00 | |
| DO3MHA-11 | 2026-09-05 06:13:31 | 49.99428 | 15.60727 | 88° | 108km/h | 14610m | 5.3m/s | -53.6°C | 4.7% | 0hPa | 2.7V | 00:00:00 | 01:10:45 | 00:00:00 | |
| PETON7-10 | 2026-09-05 06:13:30 | 49.99426 | 15.60683 | 87° | 108km/h | 14605m | 3.9m/s | -53.6°C | 4.8% | 0hPa | 2.7V | 00:00:00 | 00:00:00 | 00:00:00 | |
| NBG1-10 | 2026-09-05 06:13:29 | 49.99424 | 15.60640 | 85° | 104km/h | 14602m | 3.7m/s | -53.6°C | 4.8% | 0hPa | 2.7V | 00:00:00 | 01:10:43 | 00:00:00 | |
| EDDB2-11 | 2026-09-05 06:13:28 | 49.99422 | 15.60597 | 84° | 110km/h | 14597m | 5.7m/s | -53.6°C | 1.4% | -1.0hPa | 2.7V | 00:00:00 | 00:00:00 | 00:00:00 | |
| OM5KV | 2026-09-05 06:13:27 | 49.99422 | 15.60597 | 86° | 111km/h | 14597m | 5.7m/s | -53.6°C | 1.6% | 0hPa | 2.7V | 00:00:00 | 00:00:00 | 00:00:00 | |
| OE5MMP-10 | 2026-09-05 06:13:26 | 49.99416 | 15.60512 | 84° | 106km/h | 14589m | 3.4m/s | -53.5°C | 4.7% | 0hPa | 2.7V | 00:00:00 | 01:10:40 | 00:00:00 | |
| SQ6EMJ | 2026-09-05 06:13:25 | 49.99416 | 15.60512 | 84° | 108km/h | 14589m | 3.4m/s | -53.5°C | 1.6% | 0hPa | 2.7V | 00:00:00 | 00:00:00 | 00:00:00 | |
| OK1SLM-15 | 2026-09-05 06:13:24 | 49.99413 | 15.60470 | 85° | 106km/h | 14585m | 4.7m/s | -53.5°C | 1.6% | 0hPa | 2.7V | 00:00:00 | 00:00:00 | 00:00:00 | |
| EDDB2-12 | 2026-09-05 06:13:22 | 49.99404 | 15.60306 | 84° | 106km/h | 14568m | 3.3m/s | -53.4°C | 1.4% | -1.0hPa | 2.7V | 00:00:00 | 00:00:00 | 00:00:00 | |
| SONDE2-11 | 2026-09-05 06:13:21 | 49.99402 | 15.60264 | 84° | 106km/h | 14563m | 5.2m/s | -53.4°C | 1.4% | -1.0hPa | 2.7V | 00:00:00 | 00:00:00 | 00:00:00 | |
| POL2MAQ | 2026-09-05 06:13:19 | 49.99402 | 15.60264 | 85° | 106km/h | 14564m | 5.2m/s | -53.4°C | 1.6% | 0hPa | 2.7V | 00:00:00 | 00:00:00 | 00:00:00 | |
| OE3MUC-15 | 2026-09-05 06:13:17 | 49.99393 | 15.60141 | 85° | 106km/h | 14550m | 4.5m/s | -53.3°C | 4.7% | 0hPa | 2.7V | 00:00:00 | 00:00:00 | 00:00:00 | |
| OE5MMP-10 | 2026-09-05 06:13:16 | 49.99390 | 15.60099 | 85° | 104km/h | 14545m | 3.8m/s | -53.2°C | 4.6% | 0hPa | 2.7V | 00:00:00 | 01:10:30 | 08:30:00 | |
| PETON7-10 | 2026-09-05 06:13:15 | 49.99388 | 15.60058 | 85° | 102km/h | 14541m | 5.5m/s | -53.2°C | 4.6% | 0hPa | 2.6V | 00:00:00 | 01:10:29 | 00:00:00 | |
| OE3MUC-15 | 2026-09-05 06:13:13 | 49.99384 | 15.59977 | 87° | 104km/h | 14532m | 3.8m/s | -53.2°C | 4.6% | 0hPa | 2.6V | 00:00:00 | 00:00:00 | 08:30:00 | |
| S52SK | 2026-09-05 06:13:12 | 49.99384 | 15.59977 | 87° | 104km/h | 14532m | 3.9m/s | 0°C | 0% | 0hPa | 2.6V | 00:00:00 | 00:00:00 | 00:00:00 | |
| DO3MHA-11 | 2026-09-05 06:13:11 | 49.99380 | 15.59895 | 86° | 100km/h | 14522m | 3.7m/s | -53.2°C | 4.6% | 0hPa | 2.6V | 00:00:00 | 01:10:25 | 00:00:00 | |
| PG1ADW-2 | 2026-09-05 06:13:10 | 49.99378 | 15.59854 | 86° | 100km/h | 14517m | 5.1m/s | -53.2°C | 4.6% | 0hPa | 2.6V | 00:00:00 | 00:00:00 | 00:00:00 | |
| OE3MUC-15 | 2026-09-05 06:13:09 | 49.99376 | 15.59814 | 86° | 102km/h | 14512m | 4.0m/s | -53.2°C | 4.6% | 0hPa | 2.6V | 00:00:00 | 00:00:00 | 00:00:00 | |
| SQ6EMJ | 2026-09-05 06:13:08 | 49.99373 | 15.59774 | 85° | 102km/h | 14508m | 4.4m/s | -53.3°C | 1.6% | 0hPa | 2.6V | 00:00:00 | 00:00:00 | 00:00:00 | |
| OE5MMP-10 | 2026-09-05 06:13:06 | 49.99367 | 15.59694 | 83° | 99km/h | 14499m | 3.7m/s | -53.3°C | 4.5% | 0hPa | 2.6V | 00:00:00 | 01:10:20 | 00:00:00 | |
| OE3OSB-13 | 2026-09-05 06:13:05 | 49.99360 | 15.59617 | 80° | 97km/h | 14490m | 3.4m/s | -53.3°C | 1.4% | -1.0hPa | 2.6V | 00:00:00 | 00:00:00 | 00:00:00 | |
| EDDB2-11 | 2026-09-05 06:12:57 | 49.99335 | 15.59311 | 85° | 100km/h | 14456m | 3.3m/s | -53.5°C | 1.4% | -1.0hPa | 2.6V | 00:00:00 | 00:00:00 | 00:00:00 | |
| EDDB2-12 | 2026-09-05 06:12:50 | 49.99329 | 15.59074 | 89° | 99km/h | 14432m | 4.0m/s | -53.9°C | 1.5% | -1.0hPa | 2.6V | 00:00:00 | 00:00:00 | 00:00:00 | |
| SONDE2-11 | 2026-09-05 06:12:49 | 49.99328 | 15.59035 | 89° | 99km/h | 14428m | 3.2m/s | -53.9°C | 1.5% | -1.0hPa | 2.6V | 00:00:00 | 00:00:00 | 00:00:00 | |
| OK1SLM-15 | 2026-09-05 06:12:48 | 49.99328 | 15.59035 | 91° | 99km/h | 14429m | 3.2m/s | -53.9°C | 1.7% | 0hPa | 2.6V | 00:00:00 | 00:00:00 | 00:00:00 | |
| OE5MMP-10 | 2026-09-05 06:12:46 | 49.99328 | 15.58916 | 90° | 100km/h | 14416m | 4.5m/s | -53.8°C | 4.8% | 0hPa | 2.6V | 00:00:00 | 01:10:00 | 00:00:00 | |
| PETON7-10 | 2026-09-05 06:12:45 | 49.99328 | 15.58877 | 90° | 97km/h | 14412m | 3.8m/s | -53.8°C | 4.8% | 0hPa | 2.7V | 00:00:00 | 00:00:00 | 00:00:00 | |
| SQ6EMJ | 2026-09-05 06:12:44 | 49.99328 | 15.58877 | 91° | 99km/h | 14412m | 3.8m/s | -53.9°C | 1.7% | 0hPa | 2.7V | 00:00:00 | 00:00:00 | 00:00:00 | |
| OM5KV | 2026-09-05 06:12:42 | 49.99327 | 15.58798 | 88° | 102km/h | 14404m | 4.9m/s | -53.9°C | 0% | 0hPa | 2.7V | 00:00:00 | 00:00:00 | 00:00:00 | |
| DO3MHA-11 | 2026-09-05 06:12:41 | 49.99323 | 15.58719 | 86° | 97km/h | 14396m | 4.5m/s | -53.9°C | 4.9% | 0hPa | 2.7V | 00:00:00 | 01:09:55 | 00:00:00 | |
| OE3MUC-15 | 2026-09-05 06:12:39 | 49.99319 | 15.58641 | 87° | 97km/h | 14387m | 3.9m/s | -54.0°C | 4.9% | 0hPa | 2.7V | 00:00:00 | 00:00:00 | 00:00:00 | |
| SQ6EMJ | 2026-09-05 06:12:38 | 49.99319 | 15.58641 | 87° | 99km/h | 14387m | 3.9m/s | -54.0°C | 1.7% | 0hPa | 2.7V | 00:00:00 | 00:00:00 | 00:00:00 | |
| OE5DRO-10 | 2026-09-05 06:12:37 | 49.99316 | 15.58564 | 87° | 97km/h | 14378m | 3.6m/s | -53.9°C | 4.9% | 0hPa | 2.7V | 00:00:00 | 00:00:00 | 08:30:00 | |
| OE5MMP-10 | 2026-09-05 06:12:36 | 49.99314 | 15.58527 | 87° | 97km/h | 14373m | 5.3m/s | -53.9°C | 4.9% | 0hPa | 2.6V | 00:00:00 | 01:09:50 | 00:00:00 | |
| OE3MUC-15 | 2026-09-05 06:12:35 | 49.99312 | 15.58490 | 87° | 93km/h | 14369m | 3.6m/s | -53.9°C | 4.8% | 0hPa | 2.6V | 00:00:00 | 00:00:00 | 00:00:00 | |
| OE5DXL-15 | 2026-09-05 06:12:34 | 49.99310 | 15.58454 | 87° | 111km/h | 14365m | 4.7m/s | -53.9°C | 4.9% | 0hPa | 2.6V | 00:00:00 | 00:00:00 | 00:00:00 | |
| OE3OSB-13 | 2026-09-05 06:12:33 | 49.99309 | 15.58418 | 85° | 95km/h | 14359m | 4.7m/s | -53.9°C | 1.6% | -1.0hPa | 2.6V | 00:00:00 | 00:00:00 | 00:00:00 | |
| SQ6EMJ | 2026-09-05 06:12:32 | 49.99309 | 15.58418 | 86° | 95km/h | 14360m | 4.7m/s | -53.9°C | 1.7% | 0hPa | 2.6V | 00:00:00 | 00:00:00 | 00:00:00 | |
| DO3MHA-11 | 2026-09-05 06:12:31 | 49.99305 | 15.58343 | 85° | 99km/h | 14350m | 5.3m/s | -53.9°C | 4.9% | 0hPa | 2.6V | 00:00:00 | 01:09:45 | 00:00:00 | |
| PG1ADW-2 | 2026-09-05 06:12:30 | 49.99303 | 15.58305 | 85° | 99km/h | 14346m | 3.7m/s | -53.9°C | 4.8% | 0hPa | 2.6V | 00:00:00 | 00:00:00 | 00:00:00 | |
| OE5MMP-10 | 2026-09-05 06:12:26 | 49.99292 | 15.58149 | 84° | 99km/h | 14327m | 5.2m/s | -53.9°C | 4.8% | 0hPa | 2.7V | 00:00:00 | 01:09:40 | 00:00:00 | |
| OE3MUC-15 | 2026-09-05 06:12:25 | 49.99289 | 15.58111 | 84° | 102km/h | 14323m | 3.3m/s | -53.9°C | 4.8% | 0hPa | 2.7V | 00:00:00 | 00:00:00 | 00:00:00 | |
| NBG1-10 | 2026-09-05 06:12:23 | 49.99284 | 15.58035 | 84° | 106km/h | 14314m | 5.1m/s | -53.8°C | 4.8% | 0hPa | 2.7V | 00:00:00 | 01:09:37 | 00:00:00 | |
| DO3MHA-11 | 2026-09-05 06:12:21 | 49.99279 | 15.57959 | 86° | 99km/h | 14306m | 5.0m/s | -53.8°C | 4.8% | 0hPa | 2.7V | 00:00:00 | 01:09:35 | 00:00:00 | |
| OM5KV | 2026-09-05 06:12:20 | 49.99279 | 15.57959 | 87° | 97km/h | 14306m | 5.1m/s | -53.8°C | 0% | 0hPa | 2.6V | 00:00:00 | 00:00:00 | 00:00:00 | |
| EDDB2-12 | 2026-09-05 06:12:19 | 49.99276 | 15.57884 | 86° | 97km/h | 14298m | 3.1m/s | -53.7°C | 1.5% | -1.0hPa | 2.6V | 00:00:00 | 00:00:00 | 00:00:00 | |
| OE5DRO-10 | 2026-09-05 06:12:18 | 49.99274 | 15.57845 | 86° | 104km/h | 14293m | 5.5m/s | -53.7°C | 4.8% | 0hPa | 2.6V | 00:00:00 | 00:00:00 | 00:00:00 | |
| OE3JTB-15 | 2026-09-05 06:12:16 | 49.99271 | 15.57766 | 87° | 108km/h | 14285m | 3.4m/s | -53.6°C | 4.8% | 0hPa | 2.6V | 00:00:00 | 00:00:00 | 00:00:00 | |
| PETON7-10 | 2026-09-05 06:12:15 | 49.99270 | 15.57726 | 88° | 104km/h | 14281m | 5.6m/s | -53.7°C | 4.8% | 0hPa | 2.6V | 00:00:00 | 00:00:00 | 00:00:00 | |
| OK1SLM-15 | 2026-09-05 06:12:12 | 49.99269 | 15.57647 | 91° | 100km/h | 14271m | 4.1m/s | -53.8°C | 1.7% | 0hPa | 2.7V | 00:00:00 | 00:00:00 | 00:00:00 | |
| DO3MHA-11 | 2026-09-05 06:12:11 | 49.99267 | 15.57568 | 87° | 106km/h | 14262m | 4.6m/s | -53.8°C | 4.7% | 0hPa | 2.7V | 00:00:00 | 01:09:25 | 00:00:00 | |
| PG1ADW-2 | 2026-09-05 06:12:10 | 49.99266 | 15.57528 | 87° | 111km/h | 14257m | 4.4m/s | -53.8°C | 4.8% | 0hPa | 2.7V | 00:00:00 | 00:00:00 | 00:00:00 | |
| S52SK | 2026-09-05 06:12:09 | 49.99266 | 15.57528 | 88° | 104km/h | 14257m | 4.5m/s | 0°C | 0% | 0hPa | 2.7V | 00:00:00 | 00:00:00 | 00:00:00 | |
| OE3MUC-15 | 2026-09-05 06:12:08 | 49.99263 | 15.57445 | 88° | 108km/h | 14247m | 3.9m/s | -53.9°C | 4.8% | 0hPa | 2.7V | 00:00:00 | 00:00:00 | 08:30:00 | |
| OE5MMP-10 | 2026-09-05 06:12:06 | 49.99260 | 15.57360 | 87° | 108km/h | 14239m | 5.3m/s | -53.9°C | 4.7% | 0hPa | 2.7V | 00:00:00 | 01:09:20 | 00:00:00 | |
| OE3MUC-15 | 2026-09-05 06:12:04 | 49.99257 | 15.57276 | 87° | 110km/h | 14229m | 2.9m/s | -54.0°C | 4.7% | 0hPa | 2.7V | 00:00:00 | 00:00:00 | 00:00:00 | |
| S52SK | 2026-09-05 06:12:03 | 49.99257 | 15.57276 | 88° | 106km/h | 14229m | 3.0m/s | 0°C | 0% | 0hPa | 2.7V | 00:00:00 | 00:00:00 | 00:00:00 | |
| OE3OSB-13 | 2026-09-05 06:12:02 | 49.99255 | 15.57195 | 89° | 102km/h | 14219m | 5.1m/s | -54.2°C | 1.5% | -1.0hPa | 2.7V | 00:00:00 | 00:00:00 | 00:00:00 | |
| EDDB2-11 | 2026-09-05 06:11:55 | 49.99258 | 15.56841 | 91° | 119km/h | 14181m | 5.7m/s | -54.2°C | 1.5% | -1.0hPa | 2.7V | 00:00:00 | 00:00:00 | 00:00:00 | |
| EDDB2-12 | 2026-09-05 06:11:48 | 49.99270 | 15.56569 | 95° | 110km/h | 14156m | 5.7m/s | -54.6°C | 1.5% | -1.0hPa | 2.7V | 00:00:00 | 00:00:00 | 00:00:00 | |
| SQ6EMJ | 2026-09-05 06:11:47 | 49.99273 | 15.56527 | 96° | 108km/h | 14150m | 4.5m/s | -54.6°C | 1.7% | 0hPa | 2.7V | 00:00:00 | 00:00:00 | 00:00:00 | |
| OE5MMP-10 | 2026-09-05 06:11:46 | 49.99274 | 15.56485 | 94° | 106km/h | 14146m | 4.3m/s | -54.5°C | 4.9% | 0hPa | 2.7V | 00:00:00 | 01:09:00 | 08:30:00 | |
| PETON7-10 | 2026-09-05 06:11:45 | 49.99276 | 15.56444 | 94° | 106km/h | 14142m | 4.6m/s | -54.6°C | 4.9% | 0hPa | 2.7V | 00:00:00 | 01:08:59 | 00:00:00 | |
| SQ6EMJ | 2026-09-05 06:11:41 | 49.99278 | 15.56277 | 88° | 106km/h | 14121m | 5.9m/s | -54.5°C | 1.7% | 0hPa | 2.7V | 00:00:00 | 00:00:00 | 00:00:00 | |
| OE5DRO-10 | 2026-09-05 06:11:40 | 49.99276 | 15.56235 | 86° | 110km/h | 14116m | 3.7m/s | -54.4°C | 4.9% | 0hPa | 2.7V | 00:00:00 | 00:00:00 | 00:00:00 | |
| OE5MMP-10 | 2026-09-05 06:11:36 | 49.99273 | 15.56068 | 91° | 108km/h | 14097m | 5.2m/s | -54.3°C | 4.7% | 0hPa | 2.7V | 00:00:00 | 01:08:50 | 00:00:00 | |
| SQ6EMJ | 2026-09-05 06:11:35 | 49.99273 | 15.56027 | 92° | 102km/h | 14092m | 4.4m/s | -54.4°C | 1.7% | 0hPa | 2.7V | 00:00:00 | 00:00:00 | 00:00:00 | |
| DO3MHA-11 | 2026-09-05 06:11:31 | 49.99275 | 15.55861 | 92° | 113km/h | 14072m | 4.0m/s | -54.2°C | 4.7% | 0hPa | 2.7V | 00:00:00 | 01:08:45 | 00:00:00 | |
| PG1ADW-2 | 2026-09-05 06:11:30 | 49.99276 | 15.55818 | 92° | 115km/h | 14067m | 6.0m/s | -54.2°C | 4.7% | 0hPa | 2.7V | 00:00:00 | 01:08:44 | 00:00:00 | |
| SQ6EMJ | 2026-09-05 06:11:29 | 49.99277 | 15.55775 | 93° | 110km/h | 14062m | 4.0m/s | -54.3°C | 1.6% | 0hPa | 2.7V | 00:00:00 | 00:00:00 | 00:00:00 | |
| OK1ALN | 2026-09-05 06:11:28 | 49.99277 | 15.55775 | 93° | 110km/h | 14062m | 4.0m/s | -54.3°C | 1.6% | 0hPa | 2.7V | 00:00:00 | 00:00:00 | 00:00:00 | |
| OE5MMP-10 | 2026-09-05 06:11:26 | 49.99280 | 15.55641 | 92° | 115km/h | 14047m | 3.7m/s | -54.2°C | 4.7% | 0hPa | 2.7V | 00:00:00 | 01:08:40 | 00:00:00 | |
| EDDB2-11 | 2026-09-05 06:11:24 | 49.99283 | 15.55505 | 92° | 115km/h | 14032m | 4.1m/s | -54.8°C | 1.5% | -1.0hPa | 2.7V | 00:00:00 | 00:00:00 | 00:00:00 | |
| SQ6EMJ | 2026-09-05 06:11:22 | 49.99282 | 15.55505 | 93° | 115km/h | 14032m | 4.1m/s | -54.8°C | 1.7% | 0hPa | 2.7V | 00:00:00 | 00:00:00 | 00:00:00 | |
| DO3MHA-11 | 2026-09-05 06:11:21 | 49.99286 | 15.55413 | 94° | 117km/h | 14021m | 4.2m/s | -55.4°C | 5.2% | 0hPa | 2.7V | 00:00:00 | 01:08:35 | 08:30:00 | |
| SQ6EMJ | 2026-09-05 06:11:17 | 49.99296 | 15.55233 | 97° | 113km/h | 14001m | 5.5m/s | -55.6°C | 1.9% | 0hPa | 2.7V | 00:00:00 | 00:00:00 | 00:00:00 | |
| OE5MMP-10 | 2026-09-05 06:11:16 | 49.99299 | 15.55189 | 96° | 120km/h | 13996m | 5.0m/s | -55.5°C | 5.4% | 0hPa | 2.7V | 00:00:00 | 01:08:30 | 00:00:00 | |
| PETON7-10 | 2026-09-05 06:11:15 | 49.99301 | 15.55143 | 95° | 120km/h | 13992m | 3.1m/s | -55.5°C | 5.4% | 0hPa | 2.7V | 00:00:00 | 00:00:00 | 00:00:00 | |
| POL2MAQ | 2026-09-05 06:11:14 | 49.99301 | 15.55143 | 95° | 117km/h | 13992m | 3.2m/s | -55.5°C | 1.9% | 0hPa | 2.7V | 00:00:00 | 00:00:00 | 00:00:00 | |
| OE3JTB-15 | 2026-09-05 06:11:13 | 49.99305 | 15.55051 | 93° | 120km/h | 13982m | 4.1m/s | -55.4°C | 5.3% | 0hPa | 2.7V | 00:00:00 | 00:00:00 | 08:30:00 | |
| SQ6EMJ | 2026-09-05 06:11:11 | 49.99306 | 15.54957 | 92° | 124km/h | 13972m | 4.3m/s | -55.3°C | 1.9% | 0hPa | 2.7V | 00:00:00 | 00:00:00 | 00:00:00 | |
| PG1ADW-2 | 2026-09-05 06:11:10 | 49.99307 | 15.54909 | 91° | 119km/h | 13968m | 4.6m/s | -55.3°C | 5.2% | 0hPa | 2.7V | 00:00:00 | 00:00:00 | 00:00:00 | |
| OK1ALN | 2026-09-05 06:11:08 | 49.99308 | 15.54860 | 93° | 122km/h | 13962m | 5.6m/s | -55.3°C | 1.8% | 0hPa | 2.7V | 00:00:00 | 00:00:00 | 00:00:00 | |
| OE5MMP-10 | 2026-09-05 06:11:06 | 49.99314 | 15.54717 | 96° | 117km/h | 13950m | 4.2m/s | -55.1°C | 5.1% | 0hPa | 2.7V | 00:00:00 | 01:08:20 | 00:00:00 | |
| SP3BTT-10 | 2026-09-05 06:11:05 | 49.99316 | 15.54667 | 95° | 115km/h | 13945m | 5.4m/s | -55.0°C | 5.1% | 0hPa | 2.7V | 00:00:00 | 00:00:00 | 00:00:00 | |
| OE3OSB-13 | 2026-09-05 06:11:00 | 49.99325 | 15.54439 | 88° | 108km/h | 13920m | 3.0m/s | -54.9°C | 1.6% | -1.0hPa | 2.7V | 00:00:00 | 00:00:00 | 00:00:00 | |
| EDDB2-11 | 2026-09-05 06:10:53 | 49.99314 | 15.54080 | 88° | 117km/h | 13883m | 5.8m/s | -54.9°C | 1.6% | -1.0hPa | 2.7V | 00:00:00 | 00:00:00 | 00:00:00 | |
| DO3MHA-11 | 2026-09-05 06:10:51 | 49.99313 | 15.54034 | 89° | 117km/h | 13878m | 3.8m/s | -54.8°C | 5.1% | 0hPa | 2.7V | 00:00:00 | 01:08:05 | 00:00:00 | |
| PG1ADW-2 | 2026-09-05 06:10:50 | 49.99312 | 15.53987 | 90° | 117km/h | 13874m | 5.0m/s | -54.8°C | 5.1% | 0hPa | 2.7V | 00:00:00 | 00:00:00 | 00:00:00 | |
| SQ6EMJ | 2026-09-05 06:10:49 | 49.99312 | 15.53987 | 90° | 119km/h | 13874m | 5.0m/s | -54.9°C | 1.8% | 0hPa | 2.7V | 00:00:00 | 00:00:00 | 00:00:00 | |
| OK1ALN | 2026-09-05 06:10:47 | 49.99312 | 15.53895 | 91° | 117km/h | 13864m | 3.9m/s | -54.8°C | 1.8% | 0hPa | 2.7V | 00:00:00 | 00:00:00 | 00:00:00 | |
| OE5MMP-10 | 2026-09-05 06:10:46 | 49.99312 | 15.53803 | 90° | 117km/h | 13854m | 5.0m/s | -54.7°C | 5.1% | 0hPa | 2.7V | 00:00:00 | 01:08:00 | 00:00:00 | |
| PETON7-10 | 2026-09-05 06:10:45 | 49.99312 | 15.53756 | 90° | 117km/h | 13850m | 3.4m/s | -54.6°C | 5.0% | 0hPa | 2.7V | 00:00:00 | 00:00:00 | 00:00:00 | |
| SQ6EMJ | 2026-09-05 06:10:44 | 49.99311 | 15.53710 | 91° | 117km/h | 13846m | 4.8m/s | -54.6°C | 1.8% | 0hPa | 2.7V | 00:00:00 | 00:00:00 | 00:00:00 | |
| OE5DRO-10 | 2026-09-05 06:10:43 | 49.99311 | 15.53665 | 91° | 115km/h | 13841m | 4.5m/s | -54.6°C | 4.9% | 0hPa | 2.7V | 00:00:00 | 00:00:00 | 00:00:00 | |
| DO3MHA-11 | 2026-09-05 06:10:41 | 49.99312 | 15.53574 | 92° | 117km/h | 13832m | 4.6m/s | -54.5°C | 5.0% | 0hPa | 2.7V | 00:00:00 | 01:07:55 | 00:00:00 | |
| SQ6EMJ | 2026-09-05 06:10:38 | 49.99313 | 15.53436 | 91° | 115km/h | 13819m | 4.0m/s | -54.5°C | 1.7% | 0hPa | 2.7V | 00:00:00 | 00:00:00 | 00:00:00 | |
| OE5MMP-10 | 2026-09-05 06:10:36 | 49.99311 | 15.53344 | 87° | 115km/h | 13810m | 5.2m/s | -54.4°C | 4.9% | 0hPa | 2.7V | 00:00:00 | 01:07:50 | 00:00:00 | |
| OE5DXL-15 | 2026-09-05 06:10:35 | 49.99309 | 15.53298 | 86° | 111km/h | 13806m | 4.0m/s | -54.4°C | 4.9% | 0hPa | 2.7V | 00:00:00 | 00:00:00 | 00:00:00 | |
| POL2MAQ | 2026-09-05 06:10:34 | 49.99310 | 15.53298 | 86° | 119km/h | 13806m | 4.1m/s | -54.4°C | 1.7% | 0hPa | 2.7V | 00:00:00 | 00:00:00 | 00:00:00 | |
| SQ6EMJ | 2026-09-05 06:10:32 | 49.99303 | 15.53207 | 85° | 117km/h | 13796m | 4.5m/s | -54.4°C | 1.7% | 0hPa | 2.7V | 00:00:00 | 00:00:00 | 00:00:00 | |
| DO3MHA-11 | 2026-09-05 06:10:31 | 49.99297 | 15.53116 | 84° | 111km/h | 13786m | 4.2m/s | -54.2°C | 4.9% | 0hPa | 2.7V | 00:00:00 | 01:07:45 | 00:00:00 | |
| PETON7-10 | 2026-09-05 06:10:30 | 49.99294 | 15.53071 | 85° | 113km/h | 13782m | 3.7m/s | -54.2°C | 4.9% | 0hPa | 2.7V | 00:00:00 | 00:00:00 | 00:00:00 | |
| OE3OSB-13 | 2026-09-05 06:10:29 | 49.99292 | 15.53027 | 86° | 110km/h | 13778m | 5.2m/s | -54.2°C | 1.5% | -1.0hPa | 2.7V | 00:00:00 | 00:00:00 | 00:00:00 | |
| OK1SLM-15 | 2026-09-05 06:10:28 | 49.99292 | 15.53027 | 87° | 111km/h | 13778m | 5.2m/s | -54.2°C | 1.7% | 0hPa | 2.7V | 00:00:00 | 00:00:00 | 00:00:00 | |
| OK1ALN | 2026-09-05 06:10:27 | 49.99290 | 15.52984 | 89° | 108km/h | 13774m | 3.1m/s | -54.2°C | 1.7% | 0hPa | 2.7V | 00:00:00 | 00:00:00 | 00:00:00 | |
| OE5MMP-10 | 2026-09-05 06:10:26 | 49.99288 | 15.52899 | 88° | 115km/h | 13766m | 4.8m/s | -54.1°C | 4.8% | 0hPa | 2.7V | 00:00:00 | 01:07:40 | 00:00:00 | |
| OE5DRO-10 | 2026-09-05 06:10:24 | 49.99285 | 15.52812 | 87° | 110km/h | 13757m | 3.5m/s | -54.0°C | 4.8% | 0hPa | 2.7V | 00:00:00 | 00:00:00 | 00:00:00 | |
| OK1SLM-15 | 2026-09-05 06:10:22 | 49.99283 | 15.52768 | 87° | 113km/h | 13753m | 4.6m/s | -54.1°C | 1.7% | 0hPa | 2.7V | 00:00:00 | 00:00:00 | 00:00:00 | |
| DO3MHA-11 | 2026-09-05 06:10:21 | 49.99279 | 15.52677 | 86° | 108km/h | 13744m | 5.2m/s | -54.0°C | 4.9% | 0hPa | 2.7V | 00:00:00 | 01:07:35 | 00:00:00 | |
| SP3BTT-10 | 2026-09-05 06:10:19 | 49.99275 | 15.52583 | 86° | 117km/h | 13735m | 4.4m/s | -54.1°C | 5.1% | 0hPa | 2.7V | 00:00:00 | 00:00:00 | 00:00:00 | |
| OE5MMP-10 | 2026-09-05 06:10:16 | 49.99268 | 15.52449 | 86° | 104km/h | 13721m | 5.4m/s | -54.0°C | 5.1% | 0hPa | 2.7V | 00:00:00 | 01:07:30 | 08:30:00 | |
| PETON7-10 | 2026-09-05 06:10:15 | 49.99266 | 15.52407 | 85° | 113km/h | 13717m | 3.7m/s | -53.9°C | 4.9% | 0hPa | 2.7V | 00:00:00 | 01:07:29 | 00:00:00 | |
| SONDE2-11 | 2026-09-05 06:10:14 | 49.99263 | 15.52368 | 83° | 99km/h | 13713m | 5.2m/s | -54.1°C | 1.6% | -1.0hPa | 2.7V | 00:00:00 | 00:00:00 | 00:00:00 | |
| POL2MAQ | 2026-09-05 06:10:13 | 49.99263 | 15.52368 | 85° | 99km/h | 13713m | 5.2m/s | -54.1°C | 1.8% | 0hPa | 2.7V | 00:00:00 | 00:00:00 | 00:00:00 | |
| NBG1-10 | 2026-09-05 06:10:11 | 49.99253 | 15.52258 | 80° | 120km/h | 13700m | 5.1m/s | -54.1°C | 5.0% | 0hPa | 2.7V | 00:00:00 | 01:07:25 | 00:00:00 | |
| SQ6EMJ | 2026-09-05 06:10:10 | 49.99249 | 15.52220 | 80° | 102km/h | 13695m | 3.4m/s | -54.1°C | 1.8% | 0hPa | 2.7V | 00:00:00 | 00:00:00 | 00:00:00 | |
| OE5MMP-10 | 2026-09-05 06:10:06 | 49.99229 | 15.52042 | 85° | 124km/h | 13672m | 5.0m/s | -54.4°C | 5.2% | 0hPa | 2.7V | 00:00:00 | 01:07:20 | 00:00:00 | |
| OE5DXL-15 | 2026-09-05 06:10:05 | 49.99226 | 15.51992 | 87° | 122km/h | 13666m | 6.1m/s | -54.4°C | 5.2% | 0hPa | 2.7V | 00:00:00 | 00:00:00 | 00:00:00 | |
| SQ6EMJ | 2026-09-05 06:10:04 | 49.99226 | 15.51992 | 88° | 128km/h | 13666m | 6.2m/s | -54.4°C | 1.9% | 0hPa | 2.7V | 00:00:00 | 00:00:00 | 00:00:00 | |
| OE3OSB-13 | 2026-09-05 06:09:58 | 49.99230 | 15.51650 | 92° | 117km/h | 13621m | 4.6m/s | -54.2°C | 1.7% | -1.0hPa | 2.7V | 00:00:00 | 00:00:00 | 00:00:00 | |
| OE5MMP-10 | 2026-09-05 06:09:56 | 49.99233 | 15.51557 | 93° | 122km/h | 13610m | 3.0m/s | -54.0°C | 5.1% | 0hPa | 2.7V | 00:00:00 | 01:07:10 | 00:00:00 | |
| SQ6EMJ | 2026-09-05 06:09:53 | 49.99236 | 15.51416 | 91° | 120km/h | 13591m | 4.9m/s | -54.1°C | 2.0% | 0hPa | 2.7V | 00:00:00 | 00:00:00 | 00:00:00 | |
| OK1SLM-15 | 2026-09-05 06:09:52 | 49.99236 | 15.51416 | 91° | 120km/h | 13591m | 4.9m/s | -54.1°C | 2.0% | 0hPa | 2.7V | 00:00:00 | 00:00:00 | 00:00:00 | |
| DO3MHA-11 | 2026-09-05 06:09:51 | 49.99235 | 15.51320 | 89° | 122km/h | 13579m | 4.9m/s | -54.0°C | 5.2% | 0hPa | 2.7V | 00:00:00 | 01:07:05 | 08:30:00 | |
| PG1ADW-2 | 2026-09-05 06:09:50 | 49.99235 | 15.51271 | 90° | 120km/h | 13572m | 9.1m/s | -53.9°C | 5.2% | 0hPa | 2.7V | 00:00:00 | 00:00:00 | 00:00:00 | |
| SQ6EMJ | 2026-09-05 06:09:48 | 49.99235 | 15.51172 | 92° | 128km/h | 13559m | 8.8m/s | -53.9°C | 2.0% | 0hPa | 2.7V | 00:00:00 | 00:00:00 | 00:00:00 | |
| OE5MMP-10 | 2026-09-05 06:09:46 | 49.99237 | 15.51073 | 94° | 119km/h | 13546m | 8.2m/s | -53.9°C | 5.1% | 0hPa | 2.7V | 00:00:00 | 01:07:00 | 00:00:00 | |
| PETON7-10 | 2026-09-05 06:09:45 | 49.99239 | 15.51025 | 94° | 119km/h | 13540m | 4.0m/s | -53.9°C | 5.1% | 0hPa | 2.7V | 00:00:00 | 00:00:00 | 00:00:00 | |
| EDDB2-12 | 2026-09-05 06:09:44 | 49.99241 | 15.50978 | 93° | 117km/h | 13535m | 6.4m/s | -54.0°C | 1.8% | -1.0hPa | 2.7V | 00:00:00 | 00:00:00 | 00:00:00 | |
| SONDE2-11 | 2026-09-05 06:09:43 | 49.99242 | 15.50932 | 91° | 117km/h | 13529m | 5.6m/s | -53.9°C | 1.8% | -1.0hPa | 2.7V | 00:00:00 | 00:00:00 | 00:00:00 | |
| SQ6EMJ | 2026-09-05 06:09:42 | 49.99243 | 15.50886 | 91° | 117km/h | 13524m | 6.1m/s | -53.9°C | 2.0% | 0hPa | 2.7V | 00:00:00 | 00:00:00 | 00:00:00 | |
| DO3MHA-11 | 2026-09-05 06:09:41 | 49.99242 | 15.50840 | 88° | 119km/h | 13518m | 5.4m/s | -53.9°C | 5.2% | 0hPa | 2.7V | 00:00:00 | 01:06:55 | 00:00:00 | |
| SQ6EMJ | 2026-09-05 06:09:37 | 49.99236 | 15.50656 | 88° | 115km/h | 13492m | 10.0m/s | -53.8°C | 2.1% | 0hPa | 2.7V | 00:00:00 | 00:00:00 | 00:00:00 | |
| OE5MMP-10 | 2026-09-05 06:09:36 | 49.99234 | 15.50611 | 87° | 120km/h | 13484m | 5.2m/s | -53.7°C | 5.3% | 0hPa | 2.7V | 00:00:00 | 01:06:50 | 00:00:00 | |
| OE5DXL-15 | 2026-09-05 06:09:35 | 49.99233 | 15.50565 | 89° | 130km/h | 13478m | 7.9m/s | 0°C | 0% | 0hPa | 2.7V | 00:00:00 | 00:00:00 | 00:00:00 | |
| SP3BTT-10 | 2026-09-05 06:09:34 | 49.99233 | 15.50519 | 91° | 148km/h | 13472m | 4.2m/s | -53.6°C | 5.3% | 0hPa | 2.7V | 00:00:00 | 00:00:00 | 00:00:00 | |
| SQ6EMJ | 2026-09-05 06:09:32 | 49.99233 | 15.50424 | 91° | 122km/h | 13458m | 4.5m/s | -53.5°C | 2.2% | 0hPa | 2.7V | 00:00:00 | 00:00:00 | 00:00:00 | |
| DO3MHA-11 | 2026-09-05 06:09:31 | 49.99233 | 15.50376 | 91° | 124km/h | 13453m | 6.5m/s | -53.4°C | 5.3% | 0hPa | 2.7V | 00:00:00 | 01:06:45 | 00:00:00 | |
| PG1ADW-2 | 2026-09-05 06:09:30 | 49.99233 | 15.50328 | 91° | 130km/h | 13448m | 3.9m/s | -53.4°C | 5.4% | 0hPa | 2.7V | 00:00:00 | 00:00:00 | 00:00:00 | |
| OE3OSB-13 | 2026-09-05 06:09:28 | 49.99231 | 15.50184 | 85° | 124km/h | 13426m | 5.5m/s | -53.5°C | 2.1% | -1.0hPa | 2.7V | 00:00:00 | 00:00:00 | 00:00:00 | |
| SQ6EMJ | 2026-09-05 06:09:27 | 49.99231 | 15.50184 | 87° | 126km/h | 13427m | 5.5m/s | -53.5°C | 2.2% | 0hPa | 2.7V | 00:00:00 | 00:00:00 | 00:00:00 | |
| OE5MMP-10 | 2026-09-05 06:09:26 | 49.99228 | 15.50135 | 86° | 130km/h | 13420m | 7.7m/s | -53.5°C | 5.3% | 0hPa | 2.7V | 00:00:00 | 01:06:40 | 00:00:00 | |
| OK1SLM-15 | 2026-09-05 06:09:21 | 49.99214 | 15.49890 | 89° | 128km/h | 13391m | 3.9m/s | -53.8°C | 2.3% | 0hPa | 2.7V | 00:00:00 | 00:00:00 | 00:00:00 | |
| OE3MUC-15 | 2026-09-05 06:09:19 | 49.99212 | 15.49788 | 90° | 135km/h | 13377m | 9.2m/s | -53.8°C | 5.6% | 0hPa | 2.7V | 00:00:00 | 00:00:00 | 00:00:00 | |
| OE5MMP-10 | 2026-09-05 06:09:16 | 49.99210 | 15.49628 | 89° | 137km/h | 13354m | 7.1m/s | -53.9°C | 6.0% | 0hPa | 2.7V | 00:00:00 | 01:06:30 | 00:00:00 | |
| PETON7-10 | 2026-09-05 06:09:15 | 49.99209 | 15.49576 | 89° | 144km/h | 13349m | 1.2m/s | -53.8°C | 6.0% | 0hPa | 2.7V | 00:00:00 | 00:00:00 | 08:30:00 | |
| EDDB2-12 | 2026-09-05 06:09:13 | 49.99208 | 15.49469 | 89° | 137km/h | 13340m | 6.1m/s | -54.1°C | 2.5% | -1.0hPa | 2.7V | 00:00:00 | 00:00:00 | 00:00:00 | |
| SONDE2-11 | 2026-09-05 06:09:12 | 49.99207 | 15.49416 | 88° | 133km/h | 13332m | 9.0m/s | -54.4°C | 2.5% | -1.0hPa | 2.7V | 00:00:00 | 00:00:00 | 00:00:00 | |
| DO3MHA-11 | 2026-09-05 06:09:11 | 49.99206 | 15.49364 | 90° | 146km/h | 13326m | 3.7m/s | -54.5°C | 6.2% | 0hPa | 2.7V | 00:00:00 | 01:06:25 | 00:00:00 | |
| OE3MUC-15 | 2026-09-05 06:09:10 | 49.99206 | 15.49312 | 90° | 141km/h | 13320m | 7.9m/s | -54.6°C | 6.2% | 0hPa | 2.7V | 00:00:00 | 00:00:00 | 00:00:00 | |
| OK1SLM-15 | 2026-09-05 06:09:09 | 49.99206 | 15.49312 | 90° | 133km/h | 13320m | 7.9m/s | -54.7°C | 2.8% | 0hPa | 2.7V | 00:00:00 | 00:00:00 | 00:00:00 | |
| OE5DRO-10 | 2026-09-05 06:09:08 | 49.99205 | 15.49204 | 90° | 155km/h | 13308m | 6.6m/s | -54.7°C | 6.3% | 0hPa | 2.7V | 00:00:00 | 00:00:00 | 00:00:00 | |
| OK1ALN | 2026-09-05 06:09:06 | 49.99205 | 15.49092 | 92° | 148km/h | 13296m | 8.6m/s | -55.0°C | 3.0% | 0hPa | 2.7V | 00:00:00 | 00:00:00 | 00:00:00 | |
| OE5DXL-15 | 2026-09-05 06:09:05 | 49.99206 | 15.49032 | 92° | 159km/h | 13290m | 4.9m/s | 0°C | 0% | 0hPa | 2.7V | 00:00:00 | 00:00:00 | 00:00:00 | |
| SQ6EMJ | 2026-09-05 06:09:04 | 49.99206 | 15.49032 | 92° | 153km/h | 13290m | 4.9m/s | -55.1°C | 3.2% | 0hPa | 2.7V | 00:00:00 | 00:00:00 | 00:00:00 | |
| OE3MUC-15 | 2026-09-05 06:09:01 | 49.99205 | 15.48786 | 89° | 155km/h | 13266m | 5.2m/s | -55.3°C | 7.5% | 0hPa | 2.7V | 00:00:00 | 00:00:00 | 00:00:00 | |
| PETON7-10 | 2026-09-05 06:09:00 | 49.99204 | 15.48724 | 89° | 161km/h | 13260m | 6.1m/s | -55.3°C | 7.5% | 0hPa | 2.7V | 00:00:00 | 00:00:00 | 00:00:00 | |
| SQ6EMJ | 2026-09-05 06:08:59 | 49.99204 | 15.48724 | 90° | 155km/h | 13260m | 6.1m/s | -55.4°C | 3.6% | 0hPa | 2.7V | 00:00:00 | 00:00:00 | 00:00:00 | |
| OE3MUC-15 | 2026-09-05 06:08:57 | 49.99202 | 15.48544 | 89° | 157km/h | 13244m | 3.5m/s | -55.4°C | 7.8% | 0hPa | 2.7V | 00:00:00 | 00:00:00 | 08:30:00 | |
| OE5MMP-10 | 2026-09-05 06:08:56 | 49.99201 | 15.48483 | 88° | 162km/h | 13239m | 6.0m/s | -55.5°C | 7.8% | 0hPa | 2.7V | 00:00:00 | 01:06:10 | 00:00:00 | |
| OE3MUC-15 | 2026-09-05 06:08:53 | 49.99196 | 15.48297 | 88° | 164km/h | 13220m | 8.2m/s | -55.7°C | 7.8% | 0hPa | 2.7V | 00:00:00 | 00:00:00 | 00:00:00 | |
| POL2MAQ | 2026-09-05 06:08:51 | 49.99194 | 15.48232 | 88° | 166km/h | 13214m | 4.0m/s | -55.8°C | 3.9% | 0hPa | 2.7V | 00:00:00 | 00:00:00 | 00:00:00 | |
| PG1ADW-2 | 2026-09-05 06:08:50 | 49.99190 | 15.48103 | 88° | 166km/h | 13202m | 10.2m/s | -55.8°C | 8.1% | 0hPa | 2.7V | 00:00:00 | 01:06:04 | 00:00:00 | |
| SQ6EMJ | 2026-09-05 06:08:49 | 49.99188 | 15.48038 | 88° | 164km/h | 13194m | 5.2m/s | -55.9°C | 0% | 0hPa | 2.7V | 00:00:00 | 00:00:00 | 00:00:00 | |
| DO3MHA-11 | 2026-09-05 06:08:48 | 49.99186 | 15.47974 | 87° | 166km/h | 13188m | 8.1m/s | -55.8°C | 8.3% | 0hPa | 2.7V | 00:00:00 | 01:06:02 | 00:00:00 | |
| OE5MMP-10 | 2026-09-05 06:08:46 | 49.99182 | 15.47845 | 87° | 166km/h | 13177m | 7.3m/s | -55.8°C | 8.3% | 0hPa | 2.7V | 00:00:00 | 01:06:00 | 08:30:00 | |
| PETON7-10 | 2026-09-05 06:08:45 | 49.99180 | 15.47780 | 88° | 168km/h | 13171m | 4.1m/s | -55.8°C | 8.4% | 0hPa | 2.7V | 00:00:00 | 01:05:59 | 00:00:00 | |
| SQ6EMJ | 2026-09-05 06:08:44 | 49.99177 | 15.47716 | 88° | 166km/h | 13165m | 8.1m/s | -55.9°C | 0% | 0hPa | 2.7V | 00:00:00 | 00:00:00 | 00:00:00 | |
| EDDB2-12 | 2026-09-05 06:08:42 | 49.99174 | 15.47585 | 87° | 166km/h | 13155m | 7.3m/s | -55.9°C | 4.0% | -1.0hPa | 2.7V | 00:00:00 | 00:00:00 | 00:00:00 | |
| OE3MUC-15 | 2026-09-05 06:08:41 | 49.99172 | 15.47520 | 88° | 166km/h | 13149m | 4.9m/s | -55.8°C | 8.4% | 0hPa | 2.7V | 00:00:00 | 00:00:00 | 00:00:00 | |
| OK1SLM-15 | 2026-09-05 06:08:40 | 49.99172 | 15.47520 | 89° | 164km/h | 13149m | 5.0m/s | -55.9°C | 4.3% | 0hPa | 2.7V | 00:00:00 | 00:00:00 | 00:00:00 | |
| SQ6EMJ | 2026-09-05 06:08:38 | 49.99166 | 15.47324 | 88° | 170km/h | 13132m | 5.0m/s | -55.9°C | 0% | 0hPa | 2.7V | 00:00:00 | 00:00:00 | 00:00:00 | |
| OE3MUC-15 | 2026-09-05 06:08:37 | 49.99164 | 15.47258 | 87° | 170km/h | 13126m | 8.6m/s | -55.8°C | 8.4% | 0hPa | 2.7V | 00:00:00 | 00:00:00 | 00:00:00 | |
| OE5MMP-10 | 2026-09-05 06:08:36 | 49.99161 | 15.47192 | 87° | 168km/h | 13119m | 4.9m/s | -55.8°C | 8.5% | 0hPa | 2.7V | 00:00:00 | 01:05:50 | 00:00:00 | |
| OE5DXL-15 | 2026-09-05 06:08:35 | 49.99158 | 15.47126 | 86° | 164km/h | 13113m | 7.9m/s | 0°C | 0% | 0hPa | 2.7V | 00:00:00 | 00:00:00 | 00:00:00 | |
| SQ6EMJ | 2026-09-05 06:08:33 | 49.99150 | 15.46994 | 85° | 168km/h | 13098m | 10.6m/s | -55.7°C | 0% | 0hPa | 2.7V | 00:00:00 | 00:00:00 | 00:00:00 | |
| OE3MUC-15 | 2026-09-05 06:08:31 | 49.99132 | 15.46734 | 85° | 170km/h | 13069m | 9.1m/s | -56.3°C | 9.4% | 0hPa | 2.7V | 00:00:00 | 00:00:00 | 00:00:00 | |
| DO3MHA-11 | 2026-09-05 06:08:29 | 49.99129 | 15.46668 | 85° | 172km/h | 13062m | 5.4m/s | -56.4°C | 9.6% | 0hPa | 2.7V | 00:00:00 | 01:05:42 | 00:00:00 | |
| SQ6EMJ | 2026-09-05 06:08:28 | 49.99129 | 15.46668 | 86° | 168km/h | 13062m | 5.5m/s | -56.5°C | 0% | 0hPa | 2.7V | 00:00:00 | 00:00:00 | 00:00:00 | |
| OE5MMP-10 | 2026-09-05 06:08:26 | 49.99121 | 15.46535 | 85° | 170km/h | 13050m | 4.3m/s | -56.7°C | 9.9% | 0hPa | 2.7V | 00:00:00 | 01:05:40 | 00:00:00 | |
| OE3OSB-13 | 2026-09-05 06:08:25 | 49.99117 | 15.46468 | 84° | 172km/h | 13043m | 8.9m/s | -57.0°C | 5.0% | -1.0hPa | 2.7V | 00:00:00 | 00:00:00 | 00:00:00 | |
| OK1ALN | 2026-09-05 06:08:24 | 49.99117 | 15.46468 | 85° | 172km/h | 13044m | 8.9m/s | -57.0°C | 5.2% | 0hPa | 2.7V | 00:00:00 | 00:00:00 | 00:00:00 | |
| SQ6EMJ | 2026-09-05 06:08:22 | 49.99099 | 15.46270 | 81° | 170km/h | 13025m | 7.7m/s | -57.8°C | 0% | 0hPa | 2.7V | 00:00:00 | 00:00:00 | 00:00:00 | |
| DO3MHA-11 | 2026-09-05 06:08:18 | 49.99063 | 15.46006 | 79° | 157km/h | 13001m | 6.8m/s | -57.6°C | 10.8% | 0hPa | 2.7V | 00:00:00 | 01:05:32 | 08:30:00 | |
| OE3MUC-15 | 2026-09-05 06:08:17 | 49.99055 | 15.45943 | 81° | 153km/h | 12995m | 5.5m/s | -57.6°C | 10.6% | 0hPa | 2.7V | 00:00:00 | 00:00:00 | 00:00:00 | |
| PETON7-10 | 2026-09-05 06:08:16 | 49.99045 | 15.45823 | 85° | 155km/h | 12984m | 7.1m/s | -57.5°C | 10.5% | 0hPa | 2.7V | 00:00:00 | 00:00:00 | 00:00:00 | |
| OK1SLM-15 | 2026-09-05 06:08:14 | 49.99045 | 15.45823 | 85° | 150km/h | 12984m | 7.2m/s | -57.6°C | 5.5% | 0hPa | 2.7V | 00:00:00 | 00:00:00 | 00:00:00 | |
| OE3MUC-15 | 2026-09-05 06:08:13 | 49.99039 | 15.45705 | 85° | 157km/h | 12971m | 6.3m/s | -57.5°C | 10.4% | 0hPa | 2.7V | 00:00:00 | 01:05:27 | 00:00:00 | |
| EDDB2-12 | 2026-09-05 06:08:12 | 49.99030 | 15.45584 | 82° | 159km/h | 12955m | 8.7m/s | -57.3°C | 5.3% | -1.0hPa | 2.7V | 00:00:00 | 00:00:00 | 00:00:00 | |
| OE5DRO-10 | 2026-09-05 06:08:11 | 49.99030 | 15.45584 | 83° | 155km/h | 12956m | 8.6m/s | -57.3°C | 10.5% | 0hPa | 2.7V | 00:00:00 | 00:00:00 | 00:00:00 | |
| PG1ADW-2 | 2026-09-05 06:08:10 | 49.99025 | 15.45522 | 83° | 155km/h | 12949m | 4.3m/s | -57.2°C | 10.4% | 0hPa | 2.7V | 00:00:00 | 00:00:00 | 00:00:00 | |
| OE3MUC-15 | 2026-09-05 06:08:09 | 49.99019 | 15.45460 | 82° | 164km/h | 12944m | 6.1m/s | -57.2°C | 10.4% | 0hPa | 2.7V | 00:00:00 | 00:00:00 | 00:00:00 | |
| DO3MHA-11 | 2026-09-05 06:08:08 | 49.99014 | 15.45398 | 83° | 157km/h | 12937m | 7.6m/s | -57.1°C | 10.3% | 0hPa | 2.7V | 00:00:00 | 01:05:22 | 00:00:00 | |
| OE5MMP-10 | 2026-09-05 06:08:06 | 49.99006 | 15.45278 | 85° | 157km/h | 12925m | 6.1m/s | -57.0°C | 10.2% | 0hPa | 2.7V | 00:00:00 | 01:05:20 | 00:00:00 | |
| SP3BTT-10 | 2026-09-05 06:08:04 | 49.99000 | 15.45160 | 87° | 146km/h | 12912m | 4.7m/s | -56.9°C | 10.2% | 0hPa | 2.7V | 00:00:00 | 00:00:00 | 00:00:00 | |
| OK1SLM-15 | 2026-09-05 06:08:03 | 49.99000 | 15.45160 | 87° | 153km/h | 12912m | 4.8m/s | -57.0°C | 5.4% | 0hPa | 2.7V | 00:00:00 | 00:00:00 | 00:00:00 | |
| OE3OSB-13 | 2026-09-05 06:07:54 | 49.98951 | 15.44493 | 85° | 148km/h | 12838m | 7.5m/s | -56.7°C | 5.3% | -1.0hPa | 2.7V | 00:00:00 | 00:00:00 | 00:00:00 | |
| EDDB2-11 | 2026-09-05 06:07:47 | 49.98931 | 15.44080 | 84° | 150km/h | 12791m | 5.5m/s | -56.3°C | 5.6% | -1.0hPa | 2.7V | 00:00:00 | 00:00:00 | 00:00:00 | |
| OE5MMP-10 | 2026-09-05 06:07:46 | 49.98930 | 15.44080 | 85° | 150km/h | 12791m | 5.5m/s | -56.3°C | 10.7% | 0hPa | 2.7V | 00:00:00 | 01:05:00 | 00:00:00 | |
| PETON7-10 | 2026-09-05 06:07:45 | 49.98926 | 15.44022 | 83° | 151km/h | 12784m | 8.4m/s | -56.2°C | 10.6% | 0hPa | 2.7V | 00:00:00 | 00:00:00 | 00:00:00 | |
| OK1ALN | 2026-09-05 06:07:43 | 49.98921 | 15.43965 | 81° | 146km/h | 12777m | 6.6m/s | -56.3°C | 5.8% | 0hPa | 2.7V | 00:00:00 | 00:00:00 | 00:00:00 | |
| SQ6EMJ | 2026-09-05 06:07:40 | 49.98887 | 15.43739 | 78° | 151km/h | 12749m | 4.6m/s | -56.2°C | 0% | 0hPa | 2.7V | 00:00:00 | 00:00:00 | 00:00:00 | |
| SONDE2-11 | 2026-09-05 06:07:39 | 49.98873 | 15.43621 | 80° | 153km/h | 12738m | 6.5m/s | -56.3°C | 5.8% | -1.0hPa | 2.7V | 00:00:00 | 00:00:00 | 00:00:00 | |
| DO3MHA-11 | 2026-09-05 06:07:38 | 49.98873 | 15.43621 | 81° | 151km/h | 12738m | 6.4m/s | -56.3°C | 10.8% | 0hPa | 2.7V | 00:00:00 | 01:04:52 | 00:00:00 | |
| OE5MMP-10 | 2026-09-05 06:07:36 | 49.98863 | 15.43501 | 85° | 150km/h | 12724m | 8.5m/s | -56.3°C | 10.8% | 0hPa | 2.7V | 00:00:00 | 01:04:50 | 00:00:00 | |
| S52SK | 2026-09-05 06:07:35 | 49.98863 | 15.43501 | 85° | 155km/h | 12724m | 8.5m/s | 0°C | 0% | 0hPa | 2.7V | 00:00:00 | 00:00:00 | 00:00:00 | |
| SQ6EMJ | 2026-09-05 06:07:33 | 49.98855 | 15.43318 | 87° | 153km/h | 12699m | 8.9m/s | -56.3°C | 0% | 0hPa | 2.7V | 00:00:00 | 00:00:00 | 00:00:00 | |
| OE5DXL-15 | 2026-09-05 06:07:31 | 49.98850 | 15.43200 | 87° | 144km/h | 12685m | 6.9m/s | 0°C | 0% | 0hPa | 2.7V | 00:00:00 | 00:00:00 | 00:00:00 | |
| POL2MAQ | 2026-09-05 06:07:30 | 49.98847 | 15.43142 | 86° | 146km/h | 12677m | 9.5m/s | -56.2°C | 7.1% | 0hPa | 2.7V | 00:00:00 | 00:00:00 | 00:00:00 | |
| S52SK | 2026-09-05 06:07:29 | 49.98847 | 15.43142 | 86° | 146km/h | 12677m | 9.5m/s | 0°C | 0% | 0hPa | 2.7V | 00:00:00 | 00:00:00 | 00:00:00 | |
| DO3MHA-11 | 2026-09-05 06:07:28 | 49.98840 | 15.43030 | 85° | 141km/h | 12664m | 6.7m/s | -56.2°C | 12.6% | 0hPa | 2.7V | 00:00:00 | 01:04:42 | 00:00:00 | |
| SQ6EMJ | 2026-09-05 06:07:27 | 49.98836 | 15.42975 | 84° | 141km/h | 12656m | 8.9m/s | -56.3°C | 0% | 0hPa | 2.7V | 00:00:00 | 00:00:00 | 00:00:00 | |
| OE5MMP-10 | 2026-09-05 06:07:26 | 49.98832 | 15.42921 | 84° | 139km/h | 12649m | 6.4m/s | -56.3°C | 13.1% | 0hPa | 2.7V | 00:00:00 | 01:04:40 | 00:00:00 | |
| NBG1-10 | 2026-09-05 06:07:24 | 49.98825 | 15.42811 | 84° | 139km/h | 12632m | 7.7m/s | -56.3°C | 13.7% | 0hPa | 2.7V | 00:00:00 | 01:04:38 | 00:00:00 | |
| OK1ALN | 2026-09-05 06:07:23 | 49.98825 | 15.42811 | 85° | 141km/h | 12632m | 7.8m/s | -56.3°C | 8.1% | 0hPa | 2.7V | 00:00:00 | 00:00:00 | 00:00:00 | |
| OM5KV | 2026-09-05 06:07:22 | 49.98821 | 15.42756 | 85° | 141km/h | 12625m | 5.5m/s | 0°C | 0% | 0hPa | 2.7V | 00:00:00 | 00:00:00 | 00:00:00 | |
| OE3MUC-15 | 2026-09-05 06:07:21 | 49.98814 | 15.42648 | 86° | 141km/h | 12611m | 5.0m/s | -56.4°C | 14.6% | 0hPa | 2.7V | 00:00:00 | 00:00:00 | 00:00:00 | |
| SQ6EMJ | 2026-09-05 06:07:20 | 49.98811 | 15.42595 | 87° | 139km/h | 12605m | 7.3m/s | -56.6°C | 0% | 0hPa | 2.7V | 00:00:00 | 00:00:00 | 00:00:00 | |
| SP3BTT-10 | 2026-09-05 06:07:19 | 49.98809 | 15.42540 | 86° | 141km/h | 12597m | 7.9m/s | -56.5°C | 15.1% | 0hPa | 2.7V | 00:00:00 | 00:00:00 | 00:00:00 | |
| DO3MHA-11 | 2026-09-05 06:07:18 | 49.98806 | 15.42484 | 87° | 137km/h | 12591m | 4.6m/s | -56.5°C | 15.3% | 0hPa | 2.7V | 00:00:00 | 01:04:32 | 00:00:00 | |
| OE3MUC-15 | 2026-09-05 06:07:17 | 49.98804 | 15.42427 | 87° | 141km/h | 12585m | 7.7m/s | -56.5°C | 15.2% | 0hPa | 2.7V | 00:00:00 | 00:00:00 | 00:00:00 | |
| OE5MMP-10 | 2026-09-05 06:07:16 | 49.98802 | 15.42370 | 86° | 135km/h | 12578m | 6.7m/s | -56.5°C | 15.3% | 0hPa | 2.7V | 00:00:00 | 01:04:30 | 08:30:00 | |
| PETON7-10 | 2026-09-05 06:07:15 | 49.98799 | 15.42315 | 85° | 135km/h | 12569m | 9.0m/s | -56.5°C | 15.4% | 0hPa | 2.7V | 00:00:00 | 01:04:29 | 00:00:00 | |
| OE5DRO-10 | 2026-09-05 06:07:14 | 49.98796 | 15.42262 | 85° | 135km/h | 12561m | 8.1m/s | -56.5°C | 15.7% | 0hPa | 2.7V | 00:00:00 | 00:00:00 | 00:00:00 | |
| OE3MUC-15 | 2026-09-05 06:07:13 | 49.98793 | 15.42210 | 87° | 133km/h | 12554m | 4.3m/s | -56.4°C | 15.8% | 0hPa | 2.7V | 00:00:00 | 00:00:00 | 00:00:00 | |
| OM5KV | 2026-09-05 06:07:12 | 49.98793 | 15.42210 | 87° | 130km/h | 12554m | 4.4m/s | 0°C | 0% | 0hPa | 2.7V | 00:00:00 | 00:00:00 | 00:00:00 | |
| PG1ADW-2 | 2026-09-05 06:07:10 | 49.98788 | 15.42055 | 89° | 137km/h | 12533m | 8.8m/s | -56.5°C | 16.6% | 0hPa | 2.7V | 00:00:00 | 00:00:00 | 00:00:00 | |
| OE3MUC-15 | 2026-09-05 06:07:09 | 49.98787 | 15.42001 | 89° | 137km/h | 12524m | 8.9m/s | -56.6°C | 17.0% | 0hPa | 2.7V | 00:00:00 | 00:00:00 | 00:00:00 | |
| SQ6EMJ | 2026-09-05 06:07:08 | 49.98786 | 15.41947 | 90° | 139km/h | 12516m | 6.3m/s | -56.6°C | 0% | 0hPa | 2.7V | 00:00:00 | 00:00:00 | 00:00:00 | |
| OM5KV | 2026-09-05 06:07:07 | 49.98786 | 15.41947 | 90° | 139km/h | 12516m | 6.3m/s | 0°C | 0% | 0hPa | 2.7V | 00:00:00 | 00:00:00 | 00:00:00 | |
| OE5MMP-10 | 2026-09-05 06:07:06 | 49.98786 | 15.41840 | 90° | 133km/h | 12498m | 6.6m/s | -56.4°C | 17.8% | 0hPa | 2.7V | 00:00:00 | 01:04:20 | 00:00:00 | |
| OE3MUC-15 | 2026-09-05 06:07:05 | 49.98785 | 15.41786 | 89° | 135km/h | 12489m | 11.3m/s | -56.4°C | 18.0% | 0hPa | 2.7V | 00:00:00 | 00:00:00 | 00:00:00 | |
| OE3OSB-13 | 2026-09-05 06:06:52 | 49.98766 | 15.41034 | 89° | 150km/h | 12389m | 6.4m/s | -57.4°C | 14.9% | -1.0hPa | 2.7V | 00:00:00 | 00:00:00 | 00:00:00 | |
| NBG1-10 | 2026-09-05 06:06:51 | 49.98766 | 15.41034 | 90° | 144km/h | 12389m | 6.4m/s | -57.4°C | 23.3% | 0hPa | 2.7V | 00:00:00 | 01:04:05 | 00:00:00 | |
| PG1ADW-2 | 2026-09-05 06:06:50 | 49.98766 | 15.40974 | 90° | 146km/h | 12382m | 7.1m/s | -57.3°C | 23.6% | 0hPa | 2.7V | 00:00:00 | 00:00:00 | 00:00:00 | |
| OE3MUC-15 | 2026-09-05 06:06:49 | 49.98765 | 15.40914 | 89° | 150km/h | 12376m | 4.6m/s | -57.3°C | 24.1% | 0hPa | 2.7V | 00:00:00 | 00:00:00 | 00:00:00 | |
| DO3MHA-11 | 2026-09-05 06:06:48 | 49.98764 | 15.40855 | 88° | 142km/h | 12371m | 6.0m/s | -57.2°C | 24.6% | 0hPa | 2.7V | 00:00:00 | 01:04:02 | 08:30:00 | |
| PETON7-10 | 2026-09-05 06:06:45 | 49.98754 | 15.40682 | 83° | 144km/h | 12353m | 5.3m/s | -57.3°C | 26.1% | 0hPa | 2.7V | 00:00:00 | 00:00:00 | 00:00:00 | |
| SQ6EMJ | 2026-09-05 06:06:44 | 49.98748 | 15.40625 | 82° | 146km/h | 12349m | 4.1m/s | -57.8°C | 0% | 0hPa | 2.7V | 00:00:00 | 00:00:00 | 00:00:00 | |
| OE3MUC-15 | 2026-09-05 06:06:41 | 49.98731 | 15.40459 | 83° | 135km/h | 12334m | 5.7m/s | -57.8°C | 28.4% | 0hPa | 2.7V | 00:00:00 | 00:00:00 | 00:00:00 | |
| SQ6EMJ | 2026-09-05 06:06:39 | 49.98725 | 15.40353 | 88° | 135km/h | 12323m | 9.3m/s | -58.0°C | 0% | 0hPa | 2.7V | 00:00:00 | 00:00:00 | 00:00:00 | |
| DO3MHA-11 | 2026-09-05 06:06:38 | 49.98724 | 15.40300 | 89° | 144km/h | 12314m | 10.0m/s | -58.0°C | 28.5% | 0hPa | 2.7V | 00:00:00 | 01:03:52 | 00:00:00 | |
| SONDE2-11 | 2026-09-05 06:06:37 | 49.98723 | 15.40190 | 88° | 144km/h | 12298m | 8.8m/s | -58.0°C | 19.3% | -1.0hPa | 2.7V | 00:00:00 | 00:00:00 | 00:00:00 | |
| OE5DRO-10 | 2026-09-05 06:06:36 | 49.98723 | 15.40190 | 89° | 146km/h | 12299m | 8.8m/s | -57.9°C | 29.2% | 0hPa | 2.7V | 00:00:00 | 00:00:00 | 00:00:00 | |
| SP3BTT-10 | 2026-09-05 06:06:35 | 49.98722 | 15.40132 | 87° | 142km/h | 12291m | 5.9m/s | -57.9°C | 29.7% | 0hPa | 2.7V | 00:00:00 | 00:00:00 | 00:00:00 | |
| OE3MUC-15 | 2026-09-05 06:06:33 | 49.98715 | 15.40014 | 84° | 151km/h | 12280m | 6.1m/s | -57.9°C | 30.4% | 0hPa | 2.7V | 00:00:00 | 00:00:00 | 00:00:00 | |
| SQ6EMJ | 2026-09-05 06:06:31 | 49.98711 | 15.39955 | 84° | 150km/h | 12272m | 10.0m/s | -58.0°C | 0% | 0hPa | 2.7V | 00:00:00 | 00:00:00 | 00:00:00 | |
| PETON7-10 | 2026-09-05 06:06:30 | 49.98701 | 15.39842 | 82° | 144km/h | 12258m | 9.1m/s | -57.8°C | 30.8% | 0hPa | 2.7V | 00:00:00 | 01:03:44 | 00:00:00 | |
| DO3MHA-11 | 2026-09-05 06:06:28 | 49.98691 | 15.39734 | 83° | 144km/h | 12243m | 9.1m/s | -57.9°C | 31.6% | 0hPa | 2.7V | 00:00:00 | 01:03:42 | 00:00:00 | |
| POL2MAQ | 2026-09-05 06:06:27 | 49.98691 | 15.39734 | 83° | 139km/h | 12243m | 9.2m/s | -57.9°C | 21.5% | 0hPa | 2.7V | 00:00:00 | 00:00:00 | 00:00:00 | |
| SQ6EMJ | 2026-09-05 06:06:26 | 49.98682 | 15.39625 | 84° | 142km/h | 12231m | 3.5m/s | -57.9°C | 0% | 0hPa | 2.7V | 00:00:00 | 00:00:00 | 00:00:00 | |
| OE5MMP-10 | 2026-09-05 06:06:25 | 49.98678 | 15.39569 | 84° | 146km/h | 12225m | 7.4m/s | -57.8°C | 31.8% | 0hPa | 2.7V | 00:00:00 | 01:03:39 | 00:00:00 | |
| OM5KV | 2026-09-05 06:06:24 | 49.98678 | 15.39569 | 85° | 142km/h | 12225m | 7.4m/s | 0°C | 0% | 0hPa | 2.7V | 00:00:00 | 00:00:00 | 00:00:00 | |
| S52SK | 2026-09-05 06:06:22 | 49.98670 | 15.39458 | 84° | 142km/h | 12212m | 6.1m/s | 0°C | 0% | 0hPa | 2.7V | 00:00:00 | 00:00:00 | 00:00:00 | |
| OE3OSB-13 | 2026-09-05 06:06:21 | 49.98655 | 15.39290 | 81° | 148km/h | 12196m | 7.2m/s | -57.8°C | 22.1% | -1.0hPa | 2.7V | 00:00:00 | 00:00:00 | 00:00:00 | |
| OE3MUC-15 | 2026-09-05 06:06:19 | 49.98649 | 15.39232 | 81° | 151km/h | 12190m | 5.1m/s | -57.8°C | 32.7% | 0hPa | 2.7V | 00:00:00 | 00:00:00 | 00:00:00 | |
| DO3MHA-11 | 2026-09-05 06:06:18 | 49.98643 | 15.39173 | 81° | 146km/h | 12184m | 5.0m/s | -57.7°C | 32.6% | 0hPa | 2.7V | 00:00:00 | 01:03:32 | 00:00:00 | |
| OE5DRO-10 | 2026-09-05 06:06:17 | 49.98637 | 15.39115 | 81° | 146km/h | 12179m | 5.4m/s | -57.7°C | 33.1% | 0hPa | 2.7V | 00:00:00 | 00:00:00 | 00:00:00 | |
| OK1SLM-15 | 2026-09-05 06:06:16 | 49.98636 | 15.39115 | 81° | 151km/h | 12179m | 5.5m/s | -57.8°C | 0% | 0hPa | 2.7V | 00:00:00 | 00:00:00 | 00:00:00 | |
| OE5MMP-10 | 2026-09-05 06:06:15 | 49.98623 | 15.38998 | 80° | 142km/h | 12169m | 4.8m/s | -57.8°C | 33.4% | 0hPa | 2.7V | 00:00:00 | 01:03:29 | 00:00:00 | |
| OE3MUC-15 | 2026-09-05 06:06:14 | 49.98616 | 15.38941 | 79° | 150km/h | 12163m | 5.7m/s | -57.7°C | 33.9% | 0hPa | 2.7V | 00:00:00 | 00:00:00 | 08:30:00 | |
| EDDB2-11 | 2026-09-05 06:06:13 | 49.98609 | 15.38884 | 78° | 144km/h | 12158m | 4.0m/s | -57.8°C | 23.2% | -1.0hPa | 2.7V | 00:00:00 | 00:00:00 | 00:00:00 | |
| OM5KV | 2026-09-05 06:06:12 | 49.98609 | 15.38884 | 80° | 146km/h | 12158m | 4.0m/s | 0°C | 0% | 0hPa | 2.7V | 00:00:00 | 00:00:00 | 00:00:00 | |
| PG1ADW-2 | 2026-09-05 06:06:10 | 49.98593 | 15.38720 | 85° | 141km/h | 12144m | 4.8m/s | -57.7°C | 35.0% | 0hPa | 2.7V | 00:00:00 | 01:03:24 | 00:00:00 | |
| DO3MHA-11 | 2026-09-05 06:06:08 | 49.98586 | 15.38612 | 85° | 146km/h | 12135m | 5.4m/s | -57.8°C | 36.8% | 0hPa | 2.7V | 00:00:00 | 01:03:22 | 00:00:00 | |
| OM5KV | 2026-09-05 06:06:07 | 49.98582 | 15.38558 | 84° | 141km/h | 12130m | 4.8m/s | 0°C | 0% | 0hPa | 2.7V | 00:00:00 | 00:00:00 | 00:00:00 | |
| SONDE2-11 | 2026-09-05 06:06:06 | 49.98574 | 15.38446 | 83° | 146km/h | 12120m | 7.4m/s | -57.8°C | 25.1% | -1.0hPa | 2.7V | 00:00:00 | 00:00:00 | 00:00:00 | |
| OE5DXL-15 | 2026-09-05 06:06:05 | 49.98574 | 15.38446 | 84° | 144km/h | 12120m | 7.4m/s | 0°C | 0% | 0hPa | 2.7V | 00:00:00 | 01:03:19 | 00:00:00 | |
| OE3MUC-15 | 2026-09-05 06:06:01 | 49.98558 | 15.38214 | 83° | 144km/h | 12093m | 6.0m/s | -58.0°C | 38.5% | 0hPa | 2.7V | 00:00:00 | 00:00:00 | 00:00:00 | |
| PETON7-10 | 2026-09-05 06:06:00 | 49.98553 | 15.38157 | 82° | 142km/h | 12088m | 4.6m/s | -58.1°C | 38.6% | 0hPa | 2.7V | 00:00:00 | 00:00:00 | 00:00:00 | |
| OM5KV | 2026-09-05 06:05:59 | 49.98553 | 15.38157 | 83° | 146km/h | 12088m | 4.6m/s | 0°C | 0% | 0hPa | 2.7V | 00:00:00 | 00:00:00 | 00:00:00 | |
| DO3MHA-11 | 2026-09-05 06:05:58 | 49.98541 | 15.38045 | 80° | 139km/h | 12077m | 2.7m/s | -58.1°C | 38.9% | 0hPa | 2.7V | 00:00:00 | 01:03:12 | 00:00:00 | |
| OE3MUC-15 | 2026-09-05 06:05:57 | 49.98534 | 15.37992 | 80° | 135km/h | 12072m | 6.9m/s | -58.2°C | 39.1% | 0hPa | 2.7V | 00:00:00 | 00:00:00 | 00:00:00 | |
| OE5MMP-10 | 2026-09-05 06:05:55 | 49.98523 | 15.37887 | 83° | 142km/h | 12062m | 6.9m/s | -58.2°C | 39.3% | 0hPa | 2.7V | 00:00:00 | 01:03:09 | 00:00:00 | |
| OE3MUC-15 | 2026-09-05 06:05:53 | 49.98517 | 15.37782 | 87° | 144km/h | 12051m | 3.5m/s | -58.1°C | 39.4% | 0hPa | 2.7V | 00:00:00 | 00:00:00 | 00:00:00 | |
| PG1ADW-2 | 2026-09-05 06:05:50 | 49.98508 | 15.37619 | 83° | 150km/h | 12035m | 4.0m/s | -58.1°C | 40.2% | 0hPa | 2.7V | 00:00:00 | 00:00:00 | 00:00:00 | |
| SP3BTT-10 | 2026-09-05 06:05:49 | 49.98503 | 15.37562 | 82° | 148km/h | 12029m | 7.7m/s | -58.1°C | 39.7% | 0hPa | 2.7V | 00:00:00 | 00:00:00 | 00:00:00 | |
| DO3MHA-11 | 2026-09-05 06:05:48 | 49.98498 | 15.37504 | 82° | 148km/h | 12023m | 3.8m/s | -58.1°C | 39.8% | 0hPa | 2.7V | 00:00:00 | 01:03:02 | 00:00:00 | |
| OE3MUC-15 | 2026-09-05 06:05:47 | 49.98492 | 15.37445 | 81° | 153km/h | 12018m | 7.0m/s | -58.1°C | 40.0% | 0hPa | 2.7V | 00:00:00 | 00:00:00 | 00:00:00 | |
| OM5KV | 2026-09-05 06:05:46 | 49.98492 | 15.37445 | 82° | 153km/h | 12018m | 7.0m/s | 0°C | 0% | 0hPa | 2.7V | 00:00:00 | 00:00:00 | 00:00:00 | |
| PETON7-10 | 2026-09-05 06:05:45 | 49.98480 | 15.37326 | 83° | 150km/h | 12007m | 3.1m/s | -57.9°C | 39.1% | 0hPa | 2.7V | 00:00:00 | 01:02:59 | 00:00:00 | |
| NBG1-10 | 2026-09-05 06:05:44 | 49.98475 | 15.37267 | 82° | 148km/h | 12002m | 6.2m/s | -58.0°C | 38.7% | 0hPa | 2.7V | 00:00:00 | 01:02:58 | 00:00:00 | |
| EDDB2-11 | 2026-09-05 06:05:42 | 49.98463 | 15.37154 | 80° | 142km/h | 11991m | 4.0m/s | -57.9°C | 26.9% | -1.0hPa | 2.7V | 00:00:00 | 00:00:00 | 00:00:00 | |
| OE5DRO-10 | 2026-09-05 06:05:39 | 49.98445 | 15.36987 | 84° | 148km/h | 11977m | 3.3m/s | -57.7°C | 39.9% | 0hPa | 2.7V | 00:00:00 | 00:00:00 | 00:00:00 | |
| DO3MHA-11 | 2026-09-05 06:05:38 | 49.98441 | 15.36929 | 85° | 151km/h | 11973m | 3.6m/s | -57.7°C | 39.8% | 0hPa | 2.7V | 00:00:00 | 01:02:52 | 00:00:00 | |
| EDDB2-12 | 2026-09-05 06:05:36 | 49.98432 | 15.36753 | 85° | 150km/h | 11957m | 5.0m/s | -57.6°C | 28.3% | -1.0hPa | 2.7V | 00:00:00 | 00:00:00 | 00:00:00 | |
| OE5MMP-10 | 2026-09-05 06:05:35 | 49.98432 | 15.36753 | 86° | 151km/h | 11957m | 5.0m/s | -57.6°C | 40.7% | 0hPa | 2.7V | 00:00:00 | 01:02:49 | 00:00:00 | |
| OK1SLM-15 | 2026-09-05 06:05:34 | 49.98432 | 15.36753 | 86° | 151km/h | 11957m | 5.0m/s | -57.6°C | 0% | 0hPa | 2.7V | 00:00:00 | 00:00:00 | 00:00:00 | |
| PETON7-10 | 2026-09-05 06:05:30 | 49.98416 | 15.36456 | 84° | 150km/h | 11931m | 3.2m/s | -57.4°C | 41.4% | 0hPa | 2.7V | 00:00:00 | 00:00:00 | 00:00:00 | |
| OK1SLM-15 | 2026-09-05 06:05:29 | 49.98416 | 15.36456 | 85° | 157km/h | 11931m | 3.2m/s | -57.5°C | 0% | 0hPa | 2.7V | 00:00:00 | 00:00:00 | 00:00:00 | |
| DO3MHA-11 | 2026-09-05 06:05:28 | 49.98405 | 15.36335 | 82° | 146km/h | 11921m | 4.5m/s | -57.4°C | 41.1% | 0hPa | 2.7V | 00:00:00 | 01:02:42 | 00:00:00 | |
| POL2MAQ | 2026-09-05 06:05:27 | 49.98400 | 15.36278 | 82° | 146km/h | 11917m | 2.6m/s | -57.4°C | 29.0% | 0hPa | 2.7V | 00:00:00 | 00:00:00 | 00:00:00 | |
| OM5KV | 2026-09-05 06:05:26 | 49.98400 | 15.36278 | 82° | 146km/h | 11917m | 2.6m/s | 0°C | 0% | 0hPa | 2.7V | 00:00:00 | 00:00:00 | 00:00:00 | |
| OE5MMP-10 | 2026-09-05 06:05:25 | 49.98388 | 15.36166 | 82° | 150km/h | 11908m | 4.8m/s | -57.3°C | 41.0% | 0hPa | 2.7V | 00:00:00 | 01:02:39 | 00:00:00 | |
| OK1SLM-15 | 2026-09-05 06:05:24 | 49.98388 | 15.36166 | 82° | 144km/h | 11908m | 4.8m/s | -57.4°C | 0% | 0hPa | 2.7V | 00:00:00 | 00:00:00 | 00:00:00 | |
| S52SK | 2026-09-05 06:05:22 | 49.98375 | 15.35999 | 86° | 142km/h | 11892m | 6.1m/s | 0°C | 0% | 0hPa | 2.7V | 00:00:00 | 00:00:00 | 00:00:00 | |
| OM5KV | 2026-09-05 06:05:21 | 49.98375 | 15.35999 | 86° | 142km/h | 11892m | 6.1m/s | 0°C | 0% | 0hPa | 2.7V | 00:00:00 | 00:00:00 | 00:00:00 | |
| OE5DRO-10 | 2026-09-05 06:05:20 | 49.98369 | 15.35884 | 86° | 151km/h | 11882m | 7.9m/s | -57.3°C | 41.7% | 0hPa | 2.7V | 00:00:00 | 00:00:00 | 00:00:00 | |
| DO3MHA-11 | 2026-09-05 06:05:18 | 49.98362 | 15.35763 | 85° | 153km/h | 11871m | 4.5m/s | -57.3°C | 42.3% | 0hPa | 2.7V | 00:00:00 | 01:02:32 | 08:30:00 | |
| OM5KV | 2026-09-05 06:05:15 | 49.98348 | 15.35580 | 84° | 153km/h | 11857m | 6.7m/s | 0°C | 0% | 0hPa | 2.7V | 00:00:00 | 00:00:00 | 00:00:00 | |
| OE3MUC-15 | 2026-09-05 06:05:14 | 49.98342 | 15.35521 | 82° | 148km/h | 11852m | 3.7m/s | -57.3°C | 41.4% | 0hPa | 2.7V | 00:00:00 | 00:00:00 | 00:00:00 | |
| NBG1-10 | 2026-09-05 06:05:11 | 49.98326 | 15.35349 | 82° | 153km/h | 11835m | 2.8m/s | -57.2°C | 40.5% | 0hPa | 2.7V | 00:00:00 | 01:02:25 | 00:00:00 | |
| OE3MUC-15 | 2026-09-05 06:05:10 | 49.98320 | 15.35293 | 81° | 144km/h | 11830m | 6.4m/s | -57.2°C | 40.0% | 0hPa | 2.7V | 00:00:00 | 00:00:00 | 00:00:00 | |
| DO3MHA-11 | 2026-09-05 06:05:08 | 49.98308 | 15.35183 | 81° | 155km/h | 11819m | 3.7m/s | -57.1°C | 39.9% | 0hPa | 2.7V | 00:00:00 | 01:02:22 | 00:00:00 | |
| OE3MUC-15 | 2026-09-05 06:05:06 | 49.98296 | 15.35070 | 82° | 157km/h | 11808m | 5.9m/s | -57.1°C | 39.6% | 0hPa | 2.7V | 00:00:00 | 00:00:00 | 00:00:00 | |
| OE5MMP-10 | 2026-09-05 06:05:05 | 49.98291 | 15.35010 | 83° | 155km/h | 11803m | 3.1m/s | -57.0°C | 39.4% | 0hPa | 2.7V | 00:00:00 | 01:02:19 | 00:00:00 | |
| SP3BTT-10 | 2026-09-05 06:05:04 | 49.98286 | 15.34949 | 84° | 150km/h | 11799m | 5.3m/s | -57.0°C | 38.8% | 0hPa | 2.7V | 00:00:00 | 00:00:00 | 00:00:00 | |
| SONDE2-11 | 2026-09-05 06:05:03 | 49.98281 | 15.34887 | 83° | 159km/h | 11793m | 6.3m/s | -57.0°C | 26.5% | -1.0hPa | 2.7V | 00:00:00 | 00:00:00 | 00:00:00 | |
| OE3OSB-13 | 2026-09-05 06:04:47 | 49.98175 | 15.33929 | 81° | 155km/h | 11700m | 4.6m/s | -56.7°C | 22.5% | -1.0hPa | 2.7V | 00:00:00 | 00:00:00 | 00:00:00 | |
| PETON7-10 | 2026-09-05 06:04:45 | 49.98163 | 15.33808 | 83° | 150km/h | 11690m | 5.6m/s | -56.6°C | 32.6% | 0hPa | 2.7V | 00:00:00 | 00:00:00 | 08:30:00 | |
| POL2MAQ | 2026-09-05 06:04:43 | 49.98158 | 15.33749 | 83° | 151km/h | 11683m | 7.4m/s | -56.6°C | 22.4% | 0hPa | 2.7V | 00:00:00 | 00:00:00 | 00:00:00 | |
| OE5DRO-10 | 2026-09-05 06:04:42 | 49.98148 | 15.33632 | 84° | 148km/h | 11674m | 5.2m/s | -56.5°C | 32.0% | 0hPa | 2.7V | 00:00:00 | 00:00:00 | 00:00:00 | |
| EDDB2-11 | 2026-09-05 06:04:40 | 49.98140 | 15.33517 | 84° | 146km/h | 11661m | 5.9m/s | -56.5°C | 22.1% | -1.0hPa | 2.7V | 00:00:00 | 00:00:00 | 00:00:00 | |
| DO3MHA-11 | 2026-09-05 06:04:38 | 49.98131 | 15.33404 | 82° | 150km/h | 11651m | 4.1m/s | -56.3°C | 32.6% | 0hPa | 2.7V | 00:00:00 | 01:01:52 | 00:00:00 | |
| NBG1-10 | 2026-09-05 06:04:37 | 49.98125 | 15.33349 | 81° | 144km/h | 11647m | 5.5m/s | -56.3°C | 32.2% | 0hPa | 2.7V | 00:00:00 | 01:01:51 | 08:30:00 | |
| EDDB2-12 | 2026-09-05 06:04:34 | 49.98095 | 15.33122 | 76° | 155km/h | 11626m | 3.8m/s | -56.2°C | 21.3% | -1.0hPa | 2.7V | 00:00:00 | 00:00:00 | 00:00:00 | |
| OE5MMP-10 | 2026-09-05 06:04:33 | 49.98095 | 15.33122 | 77° | 148km/h | 11627m | 3.8m/s | -56.1°C | 31.1% | 0hPa | 2.7V | 00:00:00 | 01:01:47 | 00:00:00 | |
| SONDE2-11 | 2026-09-05 06:04:32 | 49.98085 | 15.33063 | 75° | 155km/h | 11622m | 4.6m/s | -56.2°C | 21.0% | -1.0hPa | 2.7V | 00:00:00 | 00:00:00 | 00:00:00 | |
| OM5KV | 2026-09-05 06:04:31 | 49.98084 | 15.33063 | 76° | 157km/h | 11622m | 4.6m/s | 0°C | 0% | 0hPa | 2.7V | 00:00:00 | 00:00:00 | 00:00:00 | |
| PETON7-10 | 2026-09-05 06:04:30 | 49.98065 | 15.32946 | 77° | 146km/h | 11612m | 6.6m/s | -56.1°C | 30.6% | 0hPa | 2.7V | 00:00:00 | 00:00:00 | 00:00:00 | |
| DO3MHA-11 | 2026-09-05 06:04:28 | 49.98050 | 15.32834 | 80° | 144km/h | 11600m | 5.4m/s | -56.0°C | 30.2% | 0hPa | 2.7V | 00:00:00 | 01:01:42 | 00:00:00 | |
| OM5KV | 2026-09-05 06:04:25 | 49.98036 | 15.32723 | 80° | 144km/h | 11588m | 6.4m/s | 0°C | 0% | 0hPa | 2.7V | 00:00:00 | 00:00:00 | 00:00:00 | |
| OE5MMP-10 | 2026-09-05 06:04:23 | 49.98015 | 15.32555 | 79° | 150km/h | 11569m | 3.6m/s | -55.7°C | 30.7% | 0hPa | 2.7V | 00:00:00 | 01:01:37 | 00:00:00 | |
| SP3BTT-10 | 2026-09-05 06:04:19 | 49.97986 | 15.32333 | 79° | 150km/h | 11547m | 6.6m/s | -55.5°C | 30.3% | 0hPa | 2.7V | 00:00:00 | 00:00:00 | 00:00:00 | |
| OE3MUC-15 | 2026-09-05 06:04:18 | 49.97979 | 15.32277 | 79° | 153km/h | 11540m | 7.8m/s | -55.5°C | 30.0% | 0hPa | 2.7V | 00:00:00 | 00:00:00 | 00:00:00 | |
| OE3JTB-15 | 2026-09-05 06:04:16 | 49.97963 | 15.32158 | 79° | 151km/h | 11530m | 3.8m/s | -55.4°C | 29.8% | 0hPa | 2.7V | 00:00:00 | 01:01:30 | 00:00:00 | |
| PETON7-10 | 2026-09-05 06:04:15 | 49.97955 | 15.32099 | 78° | 148km/h | 11524m | 7.3m/s | -55.4°C | 29.5% | 0hPa | 2.7V | 00:00:00 | 01:01:29 | 00:00:00 | |
| OE3MUC-15 | 2026-09-05 06:04:13 | 49.97936 | 15.31983 | 76° | 146km/h | 11512m | 5.6m/s | -55.3°C | 29.5% | 0hPa | 2.7V | 00:00:00 | 00:00:00 | 00:00:00 | |
| S52SK | 2026-09-05 06:04:12 | 49.97936 | 15.31983 | 77° | 148km/h | 11512m | 5.6m/s | 0°C | 0% | 0hPa | 2.7V | 00:00:00 | 00:00:00 | 00:00:00 | |
| PG1ADW-2 | 2026-09-05 06:04:10 | 49.97911 | 15.31816 | 79° | 144km/h | 11493m | 5.3m/s | -55.2°C | 29.2% | 0hPa | 2.7V | 00:00:00 | 00:00:00 | 00:00:00 | |
| OE3MUC-15 | 2026-09-05 06:04:09 | 49.97905 | 15.31760 | 80° | 141km/h | 11485m | 9.4m/s | -55.2°C | 29.1% | 0hPa | 2.7V | 00:00:00 | 00:00:00 | 08:30:00 | |
| DO3MHA-11 | 2026-09-05 06:04:08 | 49.97898 | 15.31705 | 81° | 146km/h | 11478m | 7.2m/s | -55.1°C | 29.0% | 0hPa | 2.7V | 00:00:00 | 01:01:22 | 00:00:00 | |
| S52SK | 2026-09-05 06:04:07 | 49.97898 | 15.31705 | 82° | 142km/h | 11478m | 7.3m/s | 0°C | 0% | 0hPa | 2.7V | 00:00:00 | 00:00:00 | 00:00:00 | |
| OE3MUC-15 | 2026-09-05 06:04:05 | 49.97884 | 15.31541 | 84° | 148km/h | 11457m | 4.3m/s | -55.0°C | 29.1% | 0hPa | 2.7V | 00:00:00 | 01:01:19 | 00:00:00 | |
| OE5DRO-10 | 2026-09-05 06:04:04 | 49.97880 | 15.31486 | 83° | 146km/h | 11450m | 9.2m/s | -54.9°C | 28.9% | 0hPa | 2.7V | 00:00:00 | 00:00:00 | 08:30:00 | |
| OE5MMP-10 | 2026-09-05 06:04:03 | 49.97875 | 15.31429 | 81° | 146km/h | 11442m | 5.9m/s | -54.9°C | 28.8% | 0hPa | 2.7V | 00:00:00 | 01:01:17 | 00:00:00 | |
| POL2MAQ | 2026-09-05 06:04:02 | 49.97874 | 15.31429 | 82° | 150km/h | 11442m | 5.9m/s | -54.9°C | 20.1% | 0hPa | 2.7V | 00:00:00 | 00:00:00 | 00:00:00 | |
| OE3MUC-15 | 2026-09-05 06:04:01 | 49.97861 | 15.31310 | 79° | 150km/h | 11431m | 6.7m/s | -54.8°C | 28.8% | 0hPa | 2.7V | 00:00:00 | 00:00:00 | 00:00:00 | |
| PETON7-10 | 2026-09-05 06:04:00 | 49.97853 | 15.31251 | 79° | 144km/h | 11425m | 4.0m/s | -54.8°C | 29.0% | 0hPa | 2.7V | 00:00:00 | 00:00:00 | 00:00:00 | |
| DO3MHA-11 | 2026-09-05 06:03:58 | 49.97839 | 15.31136 | 81° | 142km/h | 11413m | 5.4m/s | -54.7°C | 28.5% | 0hPa | 2.7V | 00:00:00 | 01:01:12 | 00:00:00 | |
| OE3MUC-15 | 2026-09-05 06:03:57 | 49.97850 | 15.31081 | 82° | 139km/h | 11407m | 6.2m/s | -54.6°C | 28.5% | 0hPa | 2.7V | 00:00:00 | 00:00:00 | 00:00:00 | |
| OE3MUC-15 | 2026-09-05 06:03:53 | 49.97813 | 15.30864 | 82° | 144km/h | 11381m | 6.7m/s | -54.4°C | 28.6% | 0hPa | 2.7V | 00:00:00 | 00:00:00 | 00:00:00 | |
| NBG1-10 | 2026-09-05 06:03:52 | 49.97808 | 15.30808 | 83° | 148km/h | 11376m | 4.2m/s | -54.3°C | 28.7% | 0hPa | 2.7V | 00:00:00 | 01:01:06 | 00:00:00 | |
| PG1ADW-2 | 2026-09-05 06:03:50 | 49.97799 | 15.30694 | 84° | 148km/h | 11361m | 6.2m/s | -54.2°C | 28.3% | 0hPa | 2.7V | 00:00:00 | 00:00:00 | 00:00:00 | |
| OE3MUC-15 | 2026-09-05 06:03:49 | 49.97794 | 15.30637 | 84° | 146km/h | 11356m | 4.8m/s | -54.2°C | 28.4% | 0hPa | 2.7V | 00:00:00 | 00:00:00 | 00:00:00 | |
| DO3MHA-11 | 2026-09-05 06:03:48 | 49.97790 | 15.30580 | 83° | 144km/h | 11349m | 8.5m/s | -54.1°C | 28.0% | 0hPa | 2.7V | 00:00:00 | 01:01:02 | 08:30:00 | |
| PETON7-10 | 2026-09-05 06:03:45 | 49.97775 | 15.30416 | 83° | 148km/h | 11329m | 6.9m/s | -54.0°C | 27.1% | 0hPa | 2.7V | 00:00:00 | 00:00:00 | 00:00:00 | |
| OE5DXL-15 | 2026-09-05 06:03:44 | 49.97770 | 15.30362 | 84° | 141km/h | 11323m | 4.5m/s | 0°C | 0% | 0hPa | 2.7V | 00:00:00 | 00:00:00 | 00:00:00 | |
| OE5MMP-10 | 2026-09-05 06:03:43 | 49.97767 | 15.30308 | 85° | 150km/h | 11316m | 9.1m/s | -53.9°C | 27.0% | 0hPa | 2.7V | 00:00:00 | 01:00:57 | 00:00:00 | |
| POL2MAQ | 2026-09-05 06:03:42 | 49.97766 | 15.30308 | 85° | 137km/h | 11316m | 9.1m/s | -53.9°C | 18.9% | 0hPa | 2.7V | 00:00:00 | 00:00:00 | 00:00:00 | |
| DO3MHA-11 | 2026-09-05 06:03:38 | 49.97747 | 15.30022 | 83° | 151km/h | 11282m | 9.0m/s | -53.5°C | 26.1% | 0hPa | 2.7V | 00:00:00 | 01:00:52 | 00:00:00 | |
| SP3BTT-10 | 2026-09-05 06:03:34 | 49.97723 | 15.29782 | 82° | 155km/h | 11259m | 4.1m/s | -53.3°C | 26.1% | 0hPa | 2.7V | 00:00:00 | 00:00:00 | 00:00:00 | |
| OK1ALN | 2026-09-05 06:03:33 | 49.97717 | 15.29723 | 82° | 150km/h | 11253m | 8.0m/s | -53.3°C | 18.1% | 0hPa | 2.7V | 00:00:00 | 00:00:00 | 00:00:00 | |
| EDDB2-12 | 2026-09-05 06:03:32 | 49.97706 | 15.29607 | 82° | 148km/h | 11239m | 9.0m/s | -53.2°C | 17.7% | -1.0hPa | 2.7V | 00:00:00 | 00:00:00 | 00:00:00 | |
| PG1ADW-2 | 2026-09-05 06:03:30 | 49.97701 | 15.29549 | 83° | 151km/h | 11232m | 5.9m/s | -53.1°C | 25.6% | 0hPa | 2.7V | 00:00:00 | 01:00:44 | 00:00:00 | |
| DO3MHA-11 | 2026-09-05 06:03:28 | 49.97691 | 15.29432 | 83° | 151km/h | 11221m | 7.8m/s | -53.0°C | 25.3% | 0hPa | 2.7V | 00:00:00 | 01:00:42 | 00:00:00 | |
| OE5DRO-10 | 2026-09-05 06:03:26 | 49.97680 | 15.29314 | 82° | 151km/h | 11208m | 4.5m/s | -52.9°C | 25.6% | 0hPa | 2.7V | 00:00:00 | 00:00:00 | 00:00:00 | |
| OE5MMP-10 | 2026-09-05 06:03:23 | 49.97663 | 15.29139 | 82° | 150km/h | 11190m | 4.3m/s | -52.8°C | 26.0% | 0hPa | 2.7V | 00:00:00 | 01:00:37 | 00:00:00 | |
| POL2MAQ | 2026-09-05 06:03:21 | 49.97658 | 15.29081 | 83° | 148km/h | 11186m | 4.9m/s | -52.8°C | 18.2% | 0hPa | 2.7V | 00:00:00 | 00:00:00 | 00:00:00 | |
| NBG1-10 | 2026-09-05 06:03:19 | 49.97645 | 15.28905 | 85° | 153km/h | 11166m | 4.9m/s | -52.8°C | 26.3% | 0hPa | 2.7V | 00:00:00 | 01:00:33 | 00:00:00 | |
| DO3MHA-11 | 2026-09-05 06:03:18 | 49.97641 | 15.28846 | 85° | 150km/h | 11160m | 8.0m/s | -52.7°C | 26.1% | 0hPa | 2.7V | 00:00:00 | 01:00:32 | 00:00:00 | |
| PETON7-10 | 2026-09-05 06:03:15 | 49.97628 | 15.28671 | 83° | 153km/h | 11140m | 8.4m/s | -52.6°C | 26.6% | 0hPa | 2.7V | 00:00:00 | 00:00:00 | 00:00:00 | |
| OE3OSB-13 | 2026-09-05 06:03:14 | 49.97624 | 15.28613 | 83° | 148km/h | 11132m | 6.5m/s | -52.6°C | 18.7% | -1.0hPa | 2.7V | 00:00:00 | 00:00:00 | 00:00:00 | |
| OE5MMP-10 | 2026-09-05 06:03:13 | 49.97620 | 15.28554 | 85° | 150km/h | 11126m | 5.6m/s | -52.4°C | 27.1% | 0hPa | 2.7V | 00:00:00 | 01:00:27 | 00:00:00 | |
| OK1ALN | 2026-09-05 06:03:12 | 49.97620 | 15.28554 | 86° | 151km/h | 11126m | 5.6m/s | -52.5°C | 19.2% | 0hPa | 2.7V | 00:00:00 | 00:00:00 | 00:00:00 | |
| PG1ADW-2 | 2026-09-05 06:03:10 | 49.97612 | 15.28374 | 88° | 155km/h | 11108m | 4.9m/s | -52.3°C | 26.9% | 0hPa | 2.7V | 00:00:00 | 00:00:00 | 00:00:00 | |
| DO3MHA-11 | 2026-09-05 06:03:08 | 49.97607 | 15.28256 | 86° | 153km/h | 11093m | 8.5m/s | -52.2°C | 26.4% | 0hPa | 2.7V | 00:00:00 | 01:00:22 | 00:00:00 | |
| OE5DRO-10 | 2026-09-05 06:03:07 | 49.97604 | 15.28199 | 84° | 155km/h | 11086m | 5.9m/s | -52.2°C | 26.4% | 0hPa | 2.7V | 00:00:00 | 00:00:00 | 00:00:00 | |
| OE5MMP-10 | 2026-09-05 06:03:03 | 49.97581 | 15.27966 | 82° | 157km/h | 11060m | 5.8m/s | -52.0°C | 26.9% | 0hPa | 2.7V | 00:00:00 | 01:00:17 | 00:00:00 | |
| EDDB2-12 | 2026-09-05 06:03:01 | 49.97565 | 15.27782 | 83° | 153km/h | 11041m | 6.7m/s | -51.9°C | 18.7% | -1.0hPa | 2.7V | 00:00:00 | 00:00:00 | 00:00:00 | |
| SONDE2-11 | 2026-09-05 06:02:59 | 49.97561 | 15.27722 | 84° | 153km/h | 11035m | 5.8m/s | -51.8°C | 18.6% | -1.0hPa | 2.7V | 00:00:00 | 00:00:00 | 00:00:00 | |
| DO3MHA-11 | 2026-09-05 06:02:58 | 49.97557 | 15.27662 | 85° | 157km/h | 11029m | 7.3m/s | -51.8°C | 26.4% | 0hPa | 2.7V | 00:00:00 | 01:00:12 | 00:00:00 | |
| POL1PZ | 2026-09-05 06:02:54 | 49.97546 | 15.27415 | 88° | 162km/h | 11003m | 6.1m/s | 0°C | 0% | 0hPa | 2.7V | 00:00:00 | 00:00:00 | 00:00:00 | |
| OK1SLM-15 | 2026-09-05 06:02:53 | 49.97544 | 15.27352 | 88° | 159km/h | 10998m | 4.6m/s | -51.5°C | 0% | 0hPa | 2.7V | 00:00:00 | 00:00:00 | 00:00:00 | |
| OE3MUC-15 | 2026-09-05 06:02:51 | 49.97540 | 15.27228 | 87° | 155km/h | 10987m | 5.2m/s | -51.4°C | 25.9% | 0hPa | 2.7V | 00:00:00 | 00:00:00 | 08:30:00 | |
| PG1ADW-2 | 2026-09-05 06:02:50 | 49.97537 | 15.27167 | 86° | 157km/h | 10983m | 4.3m/s | -51.3°C | 25.7% | 0hPa | 2.7V | 00:00:00 | 00:00:00 | 00:00:00 | |
| SP3BTT-10 | 2026-09-05 06:02:49 | 49.97534 | 15.27106 | 86° | 153km/h | 10978m | 4.3m/s | -51.3°C | 25.7% | 0hPa | 2.7V | 00:00:00 | 00:00:00 | 00:00:00 | |
| DO3MHA-11 | 2026-09-05 06:02:48 | 49.97532 | 15.27046 | 87° | 157km/h | 10973m | 5.8m/s | -51.2°C | 25.7% | 0hPa | 2.7V | 00:00:00 | 01:00:02 | 00:00:00 | |
| OE3MUC-15 | 2026-09-05 06:02:47 | 49.97529 | 15.26985 | 86° | 157km/h | 10968m | 4.1m/s | -51.2°C | 25.8% | 0hPa | 2.7V | 00:00:00 | 00:00:00 | 00:00:00 | |
| NBG1-10 | 2026-09-05 06:02:46 | 49.97526 | 15.26924 | 86° | 157km/h | 10963m | 5.4m/s | -51.2°C | 25.6% | 0hPa | 2.7V | 00:00:00 | 01:00:00 | 00:00:00 | |
| PETON7-10 | 2026-09-05 06:02:45 | 49.97522 | 15.26863 | 85° | 157km/h | 10959m | 3.7m/s | -51.1°C | 25.6% | 0hPa | 2.7V | 00:00:00 | 00:59:59 | 00:00:00 | |
| POL2MAQ | 2026-09-05 06:02:40 | 49.97507 | 15.26612 | 84° | 161km/h | 10942m | 5.0m/s | -51.1°C | 18.1% | 0hPa | 2.7V | 00:00:00 | 00:00:00 | 00:00:00 | |
| DO3MHA-11 | 2026-09-05 06:02:38 | 49.97492 | 15.26429 | 84° | 157km/h | 10928m | 4.8m/s | -50.8°C | 25.5% | 0hPa | 2.7V | 00:00:00 | 00:59:52 | 00:00:00 | |
| EDDB2-11 | 2026-09-05 06:02:36 | 49.97485 | 15.26308 | 85° | 155km/h | 10920m | 5.0m/s | -50.8°C | 17.8% | -1.0hPa | 2.7V | 00:00:00 | 00:00:00 | 00:00:00 | |
| OE5MMP-10 | 2026-09-05 06:02:33 | 49.97475 | 15.26123 | 86° | 157km/h | 10906m | 5.9m/s | -50.7°C | 24.7% | 0hPa | 2.7V | 00:00:00 | 00:59:47 | 00:00:00 | |
| OE3MUC-15 | 2026-09-05 06:02:31 | 49.97469 | 15.25999 | 87° | 157km/h | 10897m | 5.3m/s | -50.6°C | 24.8% | 0hPa | 2.7V | 00:00:00 | 00:00:00 | 00:00:00 | |
| EDDB2-12 | 2026-09-05 06:02:30 | 49.97464 | 15.25875 | 85° | 157km/h | 10887m | 4.6m/s | -50.5°C | 17.7% | -1.0hPa | 2.7V | 00:00:00 | 00:00:00 | 00:00:00 | |
| OE5DRO-10 | 2026-09-05 06:02:29 | 49.97464 | 15.25875 | 86° | 153km/h | 10888m | 4.6m/s | -50.5°C | 24.8% | 0hPa | 2.7V | 00:00:00 | 00:00:00 | 00:00:00 | |
| DO3MHA-11 | 2026-09-05 06:02:28 | 49.97461 | 15.25814 | 86° | 153km/h | 10883m | 5.1m/s | -50.4°C | 25.0% | 0hPa | 2.7V | 00:00:00 | 00:59:42 | 00:00:00 | |
| OE3MUC-15 | 2026-09-05 06:02:23 | 49.97440 | 15.25512 | 84° | 150km/h | 10862m | 5.1m/s | -50.3°C | 24.5% | 0hPa | 2.7V | 00:00:00 | 00:00:00 | 00:00:00 | |
| POL2MAQ | 2026-09-05 06:02:20 | 49.97432 | 15.25393 | 85° | 153km/h | 10852m | 6.7m/s | -50.2°C | 17.4% | 0hPa | 2.7V | 00:00:00 | 00:00:00 | 00:00:00 | |
| DO3MHA-11 | 2026-09-05 06:02:18 | 49.97420 | 15.25213 | 85° | 153km/h | 10834m | 4.4m/s | -50.0°C | 24.0% | 0hPa | 2.7V | 00:00:00 | 00:59:32 | 08:30:00 | |
| PETON7-10 | 2026-09-05 06:02:15 | 49.97410 | 15.25032 | 85° | 151km/h | 10819m | 4.3m/s | -49.9°C | 24.0% | 0hPa | 2.7V | 00:00:00 | 00:00:00 | 00:00:00 | |
| NBG1-10 | 2026-09-05 06:02:13 | 49.97403 | 15.24912 | 85° | 151km/h | 10810m | 3.1m/s | -49.8°C | 24.0% | 0hPa | 2.7V | 00:00:00 | 00:59:27 | 00:00:00 | |
| OE3OSB-13 | 2026-09-05 06:02:12 | 49.97399 | 15.24853 | 84° | 151km/h | 10805m | 5.0m/s | -49.8°C | 17.0% | -1.0hPa | 2.7V | 00:00:00 | 00:00:00 | 00:00:00 | |
| PG1ADW-2 | 2026-09-05 06:02:10 | 49.97391 | 15.24734 | 84° | 151km/h | 10796m | 4.2m/s | -49.7°C | 23.8% | 0hPa | 2.7V | 00:00:00 | 00:59:24 | 00:00:00 | |
| DO3MHA-11 | 2026-09-05 06:02:08 | 49.97382 | 15.24617 | 84° | 151km/h | 10787m | 3.4m/s | -49.6°C | 23.8% | 0hPa | 2.7V | 00:00:00 | 00:59:22 | 00:00:00 | |
| SP3BTT-10 | 2026-09-05 06:02:05 | 49.97371 | 15.24441 | 85° | 148km/h | 10773m | 5.2m/s | -49.5°C | 23.8% | 0hPa | 2.7V | 00:00:00 | 00:00:00 | 08:30:00 | |
| SQ6EMJ | 2026-09-05 06:02:03 | 49.97367 | 15.24382 | 86° | 150km/h | 10768m | 3.8m/s | 0°C | 0% | 0hPa | 2.7V | 00:00:00 | 00:00:00 | 00:00:00 | |
| EDDB2-12 | 2026-09-05 06:01:59 | 49.97345 | 15.24029 | 84° | 150km/h | 10743m | 4.8m/s | -49.2°C | 17.0% | -1.0hPa | 2.7V | 00:00:00 | 00:00:00 | 00:00:00 | |
| SONDE2-11 | 2026-09-05 06:01:57 | 49.97341 | 15.23970 | 84° | 151km/h | 10738m | 5.6m/s | -49.2°C | 17.0% | -1.0hPa | 2.7V | 00:00:00 | 00:00:00 | 00:00:00 | |
| OE5MMP-10 | 2026-09-05 06:01:53 | 49.97326 | 15.23732 | 85° | 151km/h | 10718m | 5.7m/s | -49.0°C | 23.4% | 0hPa | 2.7V | 00:00:00 | 00:59:07 | 00:00:00 | |
| OE5DRO-10 | 2026-09-05 06:01:51 | 49.97318 | 15.23612 | 84° | 150km/h | 10709m | 3.9m/s | -48.9°C | 23.4% | 0hPa | 2.7V | 00:00:00 | 00:00:00 | 00:00:00 | |
| PG1ADW-2 | 2026-09-05 06:01:50 | 49.97313 | 15.23553 | 84° | 150km/h | 10704m | 5.1m/s | -48.9°C | 23.3% | 0hPa | 2.7V | 00:00:00 | 00:00:00 | 00:00:00 | |
| OK1ALN | 2026-09-05 06:01:49 | 49.97313 | 15.23553 | 84° | 151km/h | 10704m | 5.2m/s | -49.0°C | 17.0% | 0hPa | 2.7V | 00:00:00 | 00:00:00 | 00:00:00 | |
| DO3MHA-11 | 2026-09-05 06:01:48 | 49.97304 | 15.23436 | 84° | 150km/h | 10696m | 5.3m/s | -48.9°C | 22.9% | 0hPa | 2.7V | 00:00:00 | 00:59:02 | 00:00:00 | |
| PETON7-10 | 2026-09-05 06:01:45 | 49.97292 | 15.23260 | 84° | 148km/h | 10681m | 5.1m/s | -48.7°C | 22.8% | 0hPa | 2.9V | 00:00:00 | 00:00:00 | 00:00:00 | |
| OE5MMP-10 | 2026-09-05 06:01:43 | 49.97284 | 15.23142 | 85° | 148km/h | 10672m | 5.9m/s | -48.7°C | 22.6% | 0hPa | 2.7V | 00:00:00 | 00:58:57 | 00:00:00 | |
| OE3OSB-13 | 2026-09-05 06:01:41 | 49.97277 | 15.23024 | 84° | 150km/h | 10662m | 5.4m/s | -48.6°C | 16.2% | -1.0hPa | 2.7V | 00:00:00 | 00:00:00 | 00:00:00 | |
| NBG1-10 | 2026-09-05 06:01:40 | 49.97274 | 15.22965 | 85° | 146km/h | 10658m | 3.7m/s | -48.5°C | 22.7% | 0hPa | 2.7V | 00:00:00 | 00:58:54 | 00:00:00 | |
| POL2MAQ | 2026-09-05 06:01:39 | 49.97274 | 15.22965 | 86° | 150km/h | 10658m | 3.8m/s | -48.6°C | 16.5% | 0hPa | 2.7V | 00:00:00 | 00:00:00 | 00:00:00 | |
| DO3MHA-11 | 2026-09-05 06:01:38 | 49.97268 | 15.22849 | 87° | 148km/h | 10649m | 5.0m/s | -48.5°C | 22.6% | 0hPa | 2.7V | 00:00:00 | 00:58:52 | 00:00:00 | |
| EDDB2-11 | 2026-09-05 06:01:34 | 49.97256 | 15.22620 | 84° | 144km/h | 10631m | 5.1m/s | -48.4°C | 16.0% | -1.0hPa | 2.7V | 00:00:00 | 00:00:00 | 00:00:00 | |
| OE5MMP-10 | 2026-09-05 06:01:33 | 49.97253 | 15.22562 | 86° | 150km/h | 10626m | 4.5m/s | -48.2°C | 22.3% | 0hPa | 2.7V | 00:00:00 | 00:58:47 | 00:00:00 | |
| OE5DRO-10 | 2026-09-05 06:01:32 | 49.97250 | 15.22505 | 86° | 148km/h | 10622m | 3.5m/s | -48.2°C | 22.1% | 0hPa | 2.7V | 00:00:00 | 00:00:00 | 00:00:00 | |
| EDDB2-12 | 2026-09-05 06:01:29 | 49.97234 | 15.22211 | 86° | 148km/h | 10600m | 3.7m/s | -48.1°C | 15.8% | -1.0hPa | 2.7V | 00:00:00 | 00:00:00 | 00:00:00 | |
| SONDE2-11 | 2026-09-05 06:01:26 | 49.97232 | 15.22153 | 86° | 148km/h | 10595m | 5.1m/s | -48.1°C | 15.8% | -1.0hPa | 2.7V | 00:00:00 | 00:00:00 | 00:00:00 | |
| OK1SLM-15 | 2026-09-05 06:01:24 | 49.97229 | 15.22095 | 87° | 148km/h | 10591m | 3.8m/s | 0°C | 0% | 0hPa | 2.7V | 00:00:00 | 00:00:00 | 00:00:00 | |
| OE5MMP-10 | 2026-09-05 06:01:23 | 49.97225 | 15.21980 | 88° | 146km/h | 10582m | 6.2m/s | -47.9°C | 21.4% | 0hPa | 2.7V | 00:00:00 | 00:58:37 | 00:00:00 | |
| OE3MUC-15 | 2026-09-05 06:01:21 | 49.97222 | 15.21867 | 87° | 146km/h | 10572m | 5.1m/s | -47.8°C | 21.2% | 0hPa | 2.7V | 00:00:00 | 00:00:00 | 00:00:00 | |
| SP3BTT-10 | 2026-09-05 06:01:19 | 49.97217 | 15.21754 | 86° | 141km/h | 10564m | 4.4m/s | -47.7°C | 20.7% | 0hPa | 2.7V | 00:00:00 | 00:00:00 | 00:00:00 | |
| DO3MHA-11 | 2026-09-05 06:01:18 | 49.97214 | 15.21696 | 86° | 146km/h | 10559m | 5.3m/s | -47.7°C | 20.6% | 0hPa | 2.7V | 00:00:00 | 00:58:32 | 00:00:00 | |
| PETON7-10 | 2026-09-05 06:01:15 | 49.97205 | 15.21522 | 86° | 144km/h | 10544m | 3.6m/s | -47.5°C | 20.4% | 0hPa | 2.9V | 00:00:00 | 00:58:29 | 00:00:00 | |
| OE5DRO-10 | 2026-09-05 06:01:13 | 49.97199 | 15.21406 | 87° | 146km/h | 10535m | 5.3m/s | -47.5°C | 20.4% | 0hPa | 2.9V | 00:00:00 | 00:00:00 | 08:30:00 | |
| PG1ADW-2 | 2026-09-05 06:01:10 | 49.97193 | 15.21235 | 88° | 146km/h | 10522m | 4.3m/s | -47.4°C | 20.9% | 0hPa | 2.9V | 00:00:00 | 00:00:00 | 00:00:00 | |
| OE3MUC-15 | 2026-09-05 06:01:09 | 49.97192 | 15.21180 | 88° | 141km/h | 10518m | 3.2m/s | -47.3°C | 20.9% | 0hPa | 2.9V | 00:00:00 | 00:00:00 | 00:00:00 | |
| DO3MHA-11 | 2026-09-05 06:01:08 | 49.97191 | 15.21125 | 89° | 146km/h | 10514m | 5.1m/s | -47.3°C | 20.9% | 0hPa | 2.9V | 00:00:00 | 00:58:22 | 00:00:00 | |
| NBG1-10 | 2026-09-05 06:01:07 | 49.97190 | 15.21070 | 89° | 142km/h | 10509m | 4.1m/s | -47.3°C | 20.9% | 0hPa | 2.9V | 00:00:00 | 00:58:21 | 00:00:00 | |
| OE3MUC-15 | 2026-09-05 06:01:05 | 49.97191 | 15.20957 | 92° | 146km/h | 10499m | 5.8m/s | -47.2°C | 20.7% | 0hPa | 2.7V | 00:00:00 | 00:00:00 | 00:00:00 | |
| OE5MMP-10 | 2026-09-05 06:01:03 | 49.97192 | 15.20843 | 90° | 150km/h | 10489m | 5.6m/s | -47.1°C | 20.6% | 0hPa | 2.7V | 00:00:00 | 00:58:17 | 00:00:00 | |
| EDDB2-12 | 2026-09-05 06:00:56 | 49.97174 | 15.20434 | 89° | 155km/h | 10447m | 7.8m/s | -46.8°C | 13.8% | -1.0hPa | 2.7V | 00:00:00 | 00:00:00 | 00:00:00 | |
| SONDE2-11 | 2026-09-05 06:00:55 | 49.97174 | 15.20373 | 89° | 155km/h | 10439m | 8.1m/s | -46.7°C | 13.9% | -1.0hPa | 2.7V | 00:00:00 | 00:00:00 | 00:00:00 | |
| OE5DRO-10 | 2026-09-05 06:00:54 | 49.97174 | 15.20313 | 91° | 139km/h | 10431m | 8.2m/s | -46.6°C | 19.4% | 0hPa | 2.7V | 00:00:00 | 00:00:00 | 00:00:00 | |
| OE3MUC-15 | 2026-09-05 06:00:53 | 49.97174 | 15.20254 | 91° | 141km/h | 10424m | 5.6m/s | -46.5°C | 19.5% | 0hPa | 2.7V | 00:00:00 | 00:00:00 | 00:00:00 | |
| PG1ADW-2 | 2026-09-05 06:00:50 | 49.97175 | 15.20090 | 90° | 139km/h | 10407m | 6.5m/s | -46.4°C | 19.3% | 0hPa | 2.7V | 00:00:00 | 00:58:04 | 00:00:00 | |
| OE3MUC-15 | 2026-09-05 06:00:49 | 49.97174 | 15.20037 | 88° | 139km/h | 10401m | 5.5m/s | -46.4°C | 19.4% | 0hPa | 2.7V | 00:00:00 | 00:00:00 | 00:00:00 | |
| DO3MHA-11 | 2026-09-05 06:00:48 | 49.97172 | 15.19983 | 86° | 137km/h | 10396m | 4.1m/s | -46.3°C | 19.3% | 0hPa | 2.7V | 00:00:00 | 00:58:02 | 08:30:00 | |
| OK1ALN | 2026-09-05 06:00:47 | 49.97169 | 15.19929 | 85° | 141km/h | 10392m | 4.3m/s | -46.3°C | 14.0% | 0hPa | 2.9V | 00:00:00 | 00:00:00 | 00:00:00 | |
| OE3MUC-15 | 2026-09-05 06:00:45 | 49.97161 | 15.19818 | 86° | 139km/h | 10381m | 5.1m/s | -46.2°C | 18.8% | 0hPa | 2.9V | 00:00:00 | 00:00:00 | 00:00:00 | |
| OE5MMP-10 | 2026-09-05 06:00:43 | 49.97158 | 15.19709 | 90° | 137km/h | 10368m | 8.2m/s | -46.1°C | 18.2% | 0hPa | 2.9V | 00:00:00 | 00:57:57 | 00:00:00 | |
| OE3MUC-15 | 2026-09-05 06:00:39 | 49.97159 | 15.19498 | 88° | 139km/h | 10338m | 7.6m/s | -45.8°C | 17.5% | 0hPa | 2.9V | 00:00:00 | 00:00:00 | 08:30:00 | |
| DO3MHA-11 | 2026-09-05 06:00:38 | 49.97157 | 15.19445 | 87° | 139km/h | 10332m | 5.1m/s | -45.7°C | 17.5% | 0hPa | 2.9V | 00:00:00 | 00:57:52 | 00:00:00 | |
| OE3MUC-15 | 2026-09-05 06:00:35 | 49.97150 | 15.19279 | 88° | 141km/h | 10314m | 6.5m/s | -45.6°C | 17.7% | 0hPa | 2.9V | 00:00:00 | 00:00:00 | 00:00:00 | |
| NBG1-10 | 2026-09-05 06:00:34 | 49.97149 | 15.19223 | 90° | 142km/h | 10308m | 5.9m/s | -45.5°C | 17.7% | 0hPa | 2.9V | 00:00:00 | 00:57:48 | 00:00:00 | |
| OE5MMP-10 | 2026-09-05 06:00:33 | 49.97149 | 15.19168 | 92° | 139km/h | 10302m | 6.0m/s | -45.5°C | 17.6% | 0hPa | 2.9V | 00:00:00 | 00:57:47 | 00:00:00 | |
| EDDB2-11 | 2026-09-05 06:00:32 | 49.97151 | 15.19114 | 92° | 135km/h | 10296m | 5.1m/s | -45.5°C | 12.6% | -1.0hPa | 2.9V | 00:00:00 | 00:00:00 | 00:00:00 | |
| OE3MUC-15 | 2026-09-05 06:00:31 | 49.97152 | 15.19061 | 93° | 135km/h | 10292m | 4.4m/s | -45.4°C | 17.6% | 0hPa | 2.9V | 00:00:00 | 00:00:00 | 00:00:00 | |
| PG1ADW-2 | 2026-09-05 06:00:30 | 49.97154 | 15.19008 | 92° | 146km/h | 10287m | 6.1m/s | -45.3°C | 17.6% | 0hPa | 2.9V | 00:00:00 | 00:00:00 | 00:00:00 | |
| PETON7-10 | 2026-09-05 06:00:29 | 49.97155 | 15.18955 | 91° | 146km/h | 10282m | 3.3m/s | -45.3°C | 17.6% | 0hPa | 2.7V | 00:00:00 | 00:00:00 | 00:00:00 | |
| DO3MHA-11 | 2026-09-05 06:00:28 | 49.97155 | 15.18902 | 91° | 146km/h | 10277m | 6.4m/s | -45.2°C | 17.2% | 0hPa | 2.7V | 00:00:00 | 00:57:42 | 00:00:00 | |
| OE3MUC-15 | 2026-09-05 06:00:27 | 49.97155 | 15.18848 | 91° | 141km/h | 10271m | 5.8m/s | -45.1°C | 17.2% | 0hPa | 2.7V | 00:00:00 | 00:00:00 | 00:00:00 | |
| OK1ALN | 2026-09-05 06:00:26 | 49.97155 | 15.18848 | 91° | 139km/h | 10271m | 5.8m/s | -45.2°C | 12.6% | 0hPa | 2.9V | 00:00:00 | 00:00:00 | 00:00:00 | |
| SONDE2-11 | 2026-09-05 06:00:24 | 49.97154 | 15.18683 | 87° | 141km/h | 10254m | 6.6m/s | -45.1°C | 12.2% | -1.0hPa | 2.9V | 00:00:00 | 00:00:00 | 00:00:00 | |
| OE3MUC-15 | 2026-09-05 06:00:23 | 49.97152 | 15.18627 | 88° | 150km/h | 10248m | 4.7m/s | -45.0°C | 16.8% | 0hPa | 2.9V | 00:00:00 | 00:00:00 | 00:00:00 | |
| OE3MUC-15 | 2026-09-05 06:00:19 | 49.97154 | 15.18388 | 94° | 153km/h | 10225m | 5.3m/s | -44.8°C | 16.2% | 0hPa | 2.9V | 00:00:00 | 00:00:00 | 00:00:00 | |
| DO3MHA-11 | 2026-09-05 06:00:18 | 49.97156 | 15.18327 | 94° | 148km/h | 10219m | 8.0m/s | -44.7°C | 16.0% | 0hPa | 2.9V | 00:00:00 | 00:57:32 | 00:00:00 | |
| OE5DRO-10 | 2026-09-05 06:00:16 | 49.97160 | 15.18208 | 93° | 144km/h | 10205m | 6.9m/s | -44.6°C | 15.9% | 0hPa | 2.9V | 00:00:00 | 00:00:00 | 00:00:00 | |
| OE3MUC-15 | 2026-09-05 06:00:15 | 49.97161 | 15.18149 | 92° | 153km/h | 10198m | 6.5m/s | -44.5°C | 16.0% | 0hPa | 2.7V | 00:00:00 | 00:00:00 | 00:00:00 | |
| OE5MMP-10 | 2026-09-05 06:00:13 | 49.97162 | 15.18027 | 92° | 141km/h | 10188m | 5.1m/s | -44.4°C | 16.0% | 0hPa | 2.9V | 00:00:00 | 00:57:27 | 00:00:00 | |
| OE3MUC-15 | 2026-09-05 06:00:11 | 49.97163 | 15.17913 | 91° | 135km/h | 10178m | 4.0m/s | -44.3°C | 15.8% | 0hPa | 2.9V | 00:00:00 | 00:00:00 | 00:00:00 | |
| PG1ADW-2 | 2026-09-05 06:00:10 | 49.97162 | 15.17859 | 89° | 144km/h | 10173m | 5.4m/s | -44.3°C | 15.5% | 0hPa | 2.9V | 00:00:00 | 00:00:00 | 00:00:00 | |
| OE3OSB-13 | 2026-09-05 06:00:08 | 49.97158 | 15.17701 | 89° | 133km/h | 10161m | 4.0m/s | -44.2°C | 11.2% | -1.0hPa | 2.9V | 00:00:00 | 00:00:00 | 00:00:00 | |
| OE3MUC-15 | 2026-09-05 06:00:07 | 49.97158 | 15.17701 | 90° | 137km/h | 10161m | 3.9m/s | -44.1°C | 15.6% | 0hPa | 2.9V | 00:00:00 | 00:00:00 | 00:00:00 | |
| OK1ALN | 2026-09-05 06:00:05 | 49.97158 | 15.17648 | 92° | 135km/h | 10156m | 6.4m/s | -44.1°C | 11.3% | 0hPa | 2.9V | 00:00:00 | 00:00:00 | 00:00:00 | |
| OE3MUC-15 | 2026-09-05 06:00:03 | 49.97170 | 15.17485 | 99° | 150km/h | 10136m | 7.6m/s | -43.9°C | 15.2% | 0hPa | 2.9V | 00:00:00 | 00:00:00 | 08:30:00 | |
| EDDB2-11 | 2026-09-05 06:00:01 | 49.97181 | 15.17315 | 92° | 146km/h | 10115m | 6.4m/s | -43.8°C | 10.7% | -1.0hPa | 2.7V | 00:00:00 | 00:00:00 | 00:00:00 | |
| EDDB2-12 | 2026-09-05 05:59:54 | 49.97179 | 15.16965 | 88° | 153km/h | 10075m | 6.7m/s | -43.4°C | 10.6% | -1.0hPa | 2.7V | 00:00:00 | 00:00:00 | 00:00:00 | |
| SONDE2-11 | 2026-09-05 05:59:53 | 49.97178 | 15.16904 | 89° | 153km/h | 10069m | 5.5m/s | -43.4°C | 10.5% | -1.0hPa | 2.7V | 00:00:00 | 00:00:00 | 00:00:00 | |
| OE5MMP-10 | 2026-09-05 05:59:50 | 49.97180 | 15.16725 | 93° | 144km/h | 10051m | 8.5m/s | -43.2°C | 14.4% | 0hPa | 2.7V | 00:00:00 | 00:57:04 | 00:00:00 | |
| OE3MUC-15 | 2026-09-05 05:59:49 | 49.97182 | 15.16666 | 93° | 141km/h | 10043m | 8.9m/s | -43.1°C | 14.1% | 0hPa | 2.7V | 00:00:00 | 00:00:00 | 00:00:00 | |
| DO3MHA-11 | 2026-09-05 05:59:48 | 49.97184 | 15.16609 | 94° | 144km/h | 10034m | 8.0m/s | -43.0°C | 14.0% | 0hPa | 2.7V | 00:00:00 | 00:57:02 | 00:00:00 | |
| OK1SLM-15 | 2026-09-05 05:59:47 | 49.97184 | 15.16609 | 95° | 144km/h | 10034m | 8.1m/s | 0°C | 0% | 0hPa | 2.9V | 00:00:00 | 00:00:00 | 00:00:00 | |
| OE3MUC-15 | 2026-09-05 05:59:45 | 49.97193 | 15.16448 | 97° | 139km/h | 10014m | 6.9m/s | -42.8°C | 13.8% | 0hPa | 2.9V | 00:00:00 | 00:00:00 | 00:00:00 | |
| PETON7-10 | 2026-09-05 05:59:44 | 49.97197 | 15.16395 | 97° | 148km/h | 10006m | 8.1m/s | -42.8°C | 13.8% | 0hPa | 2.9V | 00:00:00 | 00:00:00 | 00:00:00 | |
| OE5MMP-10 | 2026-09-05 05:59:40 | 49.97206 | 15.16166 | 92° | 150km/h | 9980m | 6.5m/s | -42.5°C | 13.4% | 0hPa | 2.9V | 00:00:00 | 00:56:54 | 08:30:00 | |
| DO3MHA-11 | 2026-09-05 05:59:38 | 49.97207 | 15.16046 | 91° | 150km/h | 9965m | 5.6m/s | -42.4°C | 13.2% | 0hPa | 2.7V | 00:00:00 | 00:56:52 | 00:00:00 | |
| POL2MAQ | 2026-09-05 05:59:34 | 49.97206 | 15.15871 | 89° | 146km/h | 9948m | 6.5m/s | 0°C | 0% | 0hPa | 2.7V | 00:00:00 | 00:00:00 | 00:00:00 | |
| OE5MMP-10 | 2026-09-05 05:59:30 | 49.97209 | 15.15576 | 96° | 144km/h | 9914m | 5.8m/s | -42.0°C | 12.9% | 0hPa | 2.7V | 00:00:00 | 00:56:44 | 00:00:00 | |
| PETON7-10 | 2026-09-05 05:59:29 | 49.97214 | 15.15517 | 98° | 144km/h | 9909m | 4.4m/s | -41.9°C | 13.0% | 0hPa | 2.7V | 00:00:00 | 00:56:43 | 00:00:00 | |
| NBG1-10 | 2026-09-05 05:59:28 | 49.97219 | 15.15459 | 99° | 148km/h | 9903m | 6.7m/s | -41.9°C | 13.0% | 0hPa | 2.7V | 00:00:00 | 00:56:42 | 08:30:00 | |
| DO3MHA-11 | 2026-09-05 05:59:27 | 49.97225 | 15.15401 | 99° | 144km/h | 9897m | 6.4m/s | -41.8°C | 13.1% | 0hPa | 2.9V | 00:00:00 | 00:56:41 | 00:00:00 | |
| EDDB2-12 | 2026-09-05 05:59:23 | 49.97243 | 15.15184 | 95° | 135km/h | 9876m | 7.8m/s | -41.7°C | 9.3% | -1.0hPa | 2.9V | 00:00:00 | 00:00:00 | 00:00:00 | |
| SONDE2-11 | 2026-09-05 05:59:22 | 49.97246 | 15.15131 | 94° | 139km/h | 9868m | 6.5m/s | -41.6°C | 9.3% | -1.0hPa | 2.9V | 00:00:00 | 00:00:00 | 00:00:00 | |
| OE5MMP-10 | 2026-09-05 05:59:20 | 49.97250 | 15.15017 | 92° | 153km/h | 9857m | 4.6m/s | -41.6°C | 12.6% | 0hPa | 2.9V | 00:00:00 | 00:56:34 | 00:00:00 | |
| OE3MUC-15 | 2026-09-05 05:59:19 | 49.97251 | 15.14958 | 91° | 150km/h | 9851m | 6.5m/s | -41.5°C | 12.4% | 0hPa | 2.9V | 00:00:00 | 00:00:00 | 00:00:00 | |
| DO3MHA-11 | 2026-09-05 05:59:17 | 49.97249 | 15.14841 | 89° | 151km/h | 9837m | 6.5m/s | -41.4°C | 12.3% | 0hPa | 2.9V | 00:00:00 | 00:56:31 | 08:30:00 | |
| PETON7-10 | 2026-09-05 05:59:14 | 49.97252 | 15.14668 | 95° | 151km/h | 9821m | 4.4m/s | -41.3°C | 12.1% | 0hPa | 2.7V | 00:00:00 | 00:00:00 | 00:00:00 | |
| POL2MAQ | 2026-09-05 05:59:13 | 49.97252 | 15.14668 | 96° | 151km/h | 9821m | 4.5m/s | 0°C | 0% | 0hPa | 2.7V | 00:00:00 | 00:00:00 | 00:00:00 | |
| PG1ADW-2 | 2026-09-05 05:59:10 | 49.97271 | 15.14425 | 98° | 151km/h | 9798m | 6.1m/s | -41.4°C | 12.3% | 0hPa | 2.7V | 00:00:00 | 00:00:00 | 00:00:00 | |
| OE3MUC-15 | 2026-09-05 05:59:08 | 49.97281 | 15.14306 | 97° | 151km/h | 9790m | 3.6m/s | -41.4°C | 12.3% | 0hPa | 2.7V | 00:00:00 | 00:00:00 | 00:00:00 | |
| DO3MHA-11 | 2026-09-05 05:59:07 | 49.97286 | 15.14247 | 97° | 150km/h | 9786m | 4.8m/s | -41.3°C | 12.3% | 0hPa | 2.7V | 00:00:00 | 00:56:21 | 00:00:00 | |
| OE3OSB-13 | 2026-09-05 05:59:06 | 49.97295 | 15.14130 | 98° | 150km/h | 9778m | 5.1m/s | -41.3°C | 8.8% | -1.0hPa | 2.7V | 00:00:00 | 00:00:00 | 00:00:00 | |
| OE3MUC-15 | 2026-09-05 05:59:04 | 49.97301 | 15.14071 | 100° | 150km/h | 9773m | 4.6m/s | -41.2°C | 12.3% | 0hPa | 2.7V | 00:00:00 | 00:00:00 | 00:00:00 | |
| SP3BTT-10 | 2026-09-05 05:59:03 | 49.97307 | 15.14012 | 99° | 144km/h | 9769m | 3.9m/s | -41.2°C | 12.4% | 0hPa | 2.7V | 00:00:00 | 00:00:00 | 00:00:00 | |
| EDDB2-11 | 2026-09-05 05:58:59 | 49.97330 | 15.13725 | 97° | 150km/h | 9742m | 6.1m/s | -41.0°C | 8.9% | -1.0hPa | 2.7V | 00:00:00 | 00:00:00 | 00:00:00 | |
| EDDB2-12 | 2026-09-05 05:58:52 | 49.97350 | 15.13363 | 95° | 151km/h | 9707m | 9.8m/s | -40.8°C | 8.3% | -1.0hPa | 2.7V | 00:00:00 | 00:00:00 | 00:00:00 | |
| SONDE2-11 | 2026-09-05 05:58:51 | 49.97355 | 15.13303 | 98° | 153km/h | 9698m | 7.5m/s | -40.7°C | 8.2% | -1.0hPa | 2.7V | 00:00:00 | 00:00:00 | 00:00:00 | |
| PG1ADW-2 | 2026-09-05 05:58:50 | 49.97361 | 15.13243 | 101° | 144km/h | 9691m | 7.1m/s | -40.6°C | 11.3% | 0hPa | 2.7V | 00:00:00 | 00:00:00 | 00:00:00 | |
| OE3MUC-15 | 2026-09-05 05:58:49 | 49.97368 | 15.13184 | 101° | 151km/h | 9685m | 4.1m/s | -40.5°C | 11.4% | 0hPa | 2.7V | 00:00:00 | 00:00:00 | 00:00:00 | |
| OE5MMP-10 | 2026-09-05 05:58:48 | 49.97374 | 15.13125 | 100° | 150km/h | 9681m | 4.3m/s | -40.4°C | 11.5% | 0hPa | 2.7V | 00:00:00 | 00:56:02 | 00:00:00 | |
| DO3MHA-11 | 2026-09-05 05:58:47 | 49.97380 | 15.13066 | 98° | 146km/h | 9677m | 4.2m/s | -40.4°C | 11.5% | 0hPa | 2.7V | 00:00:00 | 00:56:01 | 00:00:00 | |
| OE3MUC-15 | 2026-09-05 05:58:45 | 49.97388 | 15.12949 | 95° | 150km/h | 9667m | 5.8m/s | -40.4°C | 11.4% | 0hPa | 2.9V | 00:00:00 | 00:55:59 | 08:30:00 | |
| PETON7-10 | 2026-09-05 05:58:44 | 49.97391 | 15.12891 | 94° | 150km/h | 9660m | 7.7m/s | -40.4°C | 11.3% | 0hPa | 2.9V | 00:00:00 | 00:55:58 | 00:00:00 | |
| OK1ALN | 2026-09-05 05:58:42 | 49.97394 | 15.12833 | 95° | 153km/h | 9653m | 6.7m/s | -40.4°C | 8.4% | 0hPa | 2.9V | 00:00:00 | 00:00:00 | 00:00:00 | |
| OE3MUC-15 | 2026-09-05 05:58:41 | 49.97400 | 15.12714 | 96° | 141km/h | 9641m | 4.3m/s | -40.2°C | 11.6% | 0hPa | 2.9V | 00:00:00 | 00:00:00 | 00:00:00 | |
| OE5MMP-10 | 2026-09-05 05:58:38 | 49.97409 | 15.12549 | 94° | 137km/h | 9626m | 4.1m/s | -40.1°C | 11.2% | 0hPa | 2.9V | 00:00:00 | 00:55:52 | 00:00:00 | |
| OE3MUC-15 | 2026-09-05 05:58:37 | 49.97411 | 15.12499 | 94° | 130km/h | 9622m | 4.4m/s | -40.0°C | 11.0% | 0hPa | 2.7V | 00:00:00 | 00:00:00 | 00:00:00 | |
| OE3OSB-13 | 2026-09-05 05:58:34 | 49.97413 | 15.12347 | 89° | 139km/h | 9609m | 4.0m/s | -39.9°C | 7.8% | -1.0hPa | 2.7V | 00:00:00 | 00:00:00 | 00:00:00 | |
| OE3MUC-15 | 2026-09-05 05:58:33 | 49.97413 | 15.12292 | 90° | 151km/h | 9604m | 6.9m/s | -39.9°C | 10.5% | 0hPa | 2.7V | 00:00:00 | 00:00:00 | 00:00:00 | |
| PG1ADW-2 | 2026-09-05 05:58:30 | 49.97417 | 15.12112 | 95° | 142km/h | 9584m | 5.2m/s | -39.7°C | 10.8% | 0hPa | 2.9V | 00:00:00 | 00:00:00 | 08:30:00 | |
| OE3MUC-15 | 2026-09-05 05:58:29 | 49.97420 | 15.12053 | 96° | 142km/h | 9580m | 3.0m/s | -39.6°C | 10.9% | 0hPa | 2.9V | 00:00:00 | 00:00:00 | 00:00:00 | |
| EDDB2-11 | 2026-09-05 05:58:28 | 49.97427 | 15.11940 | 94° | 137km/h | 9571m | 5.6m/s | -39.6°C | 7.7% | -1.0hPa | 2.9V | 00:00:00 | 00:00:00 | 00:00:00 | |
| DO3MHA-11 | 2026-09-05 05:58:27 | 49.97427 | 15.11940 | 95° | 144km/h | 9571m | 5.5m/s | -39.5°C | 10.7% | 0hPa | 2.9V | 00:00:00 | 00:55:41 | 00:00:00 | |
| POL2MAQ | 2026-09-05 05:58:26 | 49.97427 | 15.11940 | 96° | 139km/h | 9571m | 5.6m/s | 0°C | 0% | 0hPa | 2.9V | 00:00:00 | 00:00:00 | 00:00:00 | |
| OE3MUC-15 | 2026-09-05 05:58:25 | 49.97429 | 15.11833 | 90° | 137km/h | 9559m | 6.6m/s | -39.5°C | 10.5% | 0hPa | 2.9V | 00:00:00 | 00:00:00 | 00:00:00 | |
| OE5DRO-10 | 2026-09-05 05:58:22 | 49.97425 | 15.11674 | 88° | 141km/h | 9547m | 3.0m/s | -39.3°C | 10.6% | 0hPa | 2.9V | 00:00:00 | 00:00:00 | 08:30:00 | |
| OE3MUC-15 | 2026-09-05 05:58:21 | 49.97424 | 15.11618 | 89° | 153km/h | 9543m | 4.5m/s | -39.3°C | 10.5% | 0hPa | 2.9V | 00:00:00 | 00:00:00 | 00:00:00 | |
| SONDE2-11 | 2026-09-05 05:58:20 | 49.97424 | 15.11559 | 91° | 153km/h | 9538m | 4.7m/s | -39.3°C | 7.6% | -1.0hPa | 2.7V | 00:00:00 | 00:00:00 | 00:00:00 | |
| OE5MMP-10 | 2026-09-05 05:58:18 | 49.97432 | 15.11435 | 99° | 139km/h | 9528m | 5.4m/s | -39.1°C | 10.2% | 0hPa | 2.7V | 00:00:00 | 00:55:32 | 00:00:00 | |
| DO3MHA-11 | 2026-09-05 05:58:17 | 49.97438 | 15.11374 | 100° | 135km/h | 9522m | 6.5m/s | -39.1°C | 10.3% | 0hPa | 2.7V | 00:00:00 | 00:55:31 | 00:00:00 | |
| PETON7-10 | 2026-09-05 05:58:13 | 49.97458 | 15.11153 | 96° | 141km/h | 9500m | 6.3m/s | 0°C | 0% | 0hPa | 2.9V | 00:00:00 | 00:00:00 | 00:00:00 | |
| PG1ADW-2 | 2026-09-05 05:58:10 | 49.97469 | 15.11004 | 99° | 144km/h | 9479m | 5.9m/s | -38.7°C | 9.7% | 0hPa | 2.9V | 00:00:00 | 00:55:24 | 00:00:00 | |
| OE5MMP-10 | 2026-09-05 05:58:08 | 49.97479 | 15.10903 | 100° | 146km/h | 9468m | 3.9m/s | -38.6°C | 9.7% | 0hPa | 2.9V | 00:00:00 | 00:55:22 | 08:30:00 | |
| DO3MHA-11 | 2026-09-05 05:58:07 | 49.97485 | 15.10851 | 100° | 148km/h | 9463m | 6.1m/s | -38.5°C | 9.8% | 0hPa | 2.9V | 00:00:00 | 00:55:21 | 00:00:00 | |
| OE3MUC-15 | 2026-09-05 05:58:03 | 49.97492 | 15.10624 | 89° | 155km/h | 9441m | 3.4m/s | -38.3°C | 9.5% | 0hPa | 2.9V | 00:00:00 | 00:00:00 | 00:00:00 | |
| OK1ALN | 2026-09-05 05:58:02 | 49.97492 | 15.10624 | 89° | 155km/h | 9441m | 3.5m/s | -38.3°C | 7.0% | 0hPa | 2.9V | 00:00:00 | 00:00:00 | 00:00:00 | |
| EDDB2-11 | 2026-09-05 05:57:57 | 49.97502 | 15.10210 | 96° | 142km/h | 9404m | 8.1m/s | -38.0°C | 6.7% | -1.0hPa | 2.9V | 00:00:00 | 00:00:00 | 00:00:00 | |
| EDDB2-12 | 2026-09-05 05:57:50 | 49.97515 | 15.09870 | 92° | 157km/h | 9376m | 4.0m/s | -37.7°C | 6.5% | -1.0hPa | 2.9V | 00:00:00 | 00:00:00 | 00:00:00 | |
| SONDE2-11 | 2026-09-05 05:57:49 | 49.97517 | 15.09808 | 93° | 161km/h | 9371m | 5.1m/s | -37.7°C | 6.4% | -1.0hPa | 2.9V | 00:00:00 | 00:00:00 | 00:00:00 | |
| OE5MMP-10 | 2026-09-05 05:57:48 | 49.97520 | 15.09744 | 96° | 139km/h | 9367m | 3.3m/s | -37.6°C | 9.0% | 0hPa | 2.9V | 00:00:00 | 00:55:02 | 00:00:00 | |
| OE3MUC-15 | 2026-09-05 05:57:47 | 49.97525 | 15.09682 | 97° | 148km/h | 9364m | 3.6m/s | 0°C | 0% | 0hPa | 2.9V | 00:00:00 | 00:00:00 | 00:00:00 | |
| NBG1-10 | 2026-09-05 05:57:44 | 49.97540 | 15.09509 | 98° | 144km/h | 9348m | 4.9m/s | -37.4°C | 8.9% | 0hPa | 2.9V | 00:00:00 | 00:54:58 | 00:00:00 | |
| PETON7-10 | 2026-09-05 05:57:43 | 49.97543 | 15.09457 | 96° | 144km/h | 9343m | 5.0m/s | 0°C | 0% | 0hPa | 2.9V | 00:00:00 | 00:00:00 | 08:30:00 | |
| OK1ALN | 2026-09-05 05:57:42 | 49.97546 | 15.09406 | 95° | 128km/h | 9338m | 5.6m/s | -37.4°C | 6.5% | 0hPa | 2.9V | 00:00:00 | 00:00:00 | 00:00:00 | |
| POL2MAQ | 2026-09-05 05:57:39 | 49.97547 | 15.09307 | 90° | 128km/h | 9330m | 3.4m/s | 0°C | 0% | 0hPa | 2.9V | 00:00:00 | 00:00:00 | 00:00:00 | |
| OE5MMP-10 | 2026-09-05 05:57:38 | 49.97544 | 15.09205 | 89° | 155km/h | 9321m | 3.8m/s | -37.2°C | 8.9% | 0hPa | 2.9V | 00:00:00 | 00:54:52 | 00:00:00 | |
| DO3MHA-11 | 2026-09-05 05:57:37 | 49.97542 | 15.09150 | 88° | 155km/h | 9316m | 4.4m/s | -37.1°C | 8.9% | 0hPa | 2.9V | 00:00:00 | 00:54:51 | 00:00:00 | |
| SP3BTT-10 | 2026-09-05 05:57:32 | 49.97544 | 15.08842 | 95° | 150km/h | 9286m | 4.0m/s | -36.8°C | 8.5% | 0hPa | 2.9V | 00:00:00 | 00:00:00 | 00:00:00 | |
| PG1ADW-2 | 2026-09-05 05:57:30 | 49.97553 | 15.08715 | 98° | 144km/h | 9277m | 4.8m/s | -36.8°C | 8.5% | 0hPa | 2.9V | 00:00:00 | 00:00:00 | 00:00:00 | |
| OE3JTB-15 | 2026-09-05 05:57:29 | 49.97559 | 15.08654 | 99° | 141km/h | 9272m | 4.4m/s | -36.7°C | 8.4% | 0hPa | 2.9V | 00:00:00 | 00:00:00 | 08:30:00 | |
| PETON7-10 | 2026-09-05 05:57:28 | 49.97564 | 15.08596 | 99° | 141km/h | 9268m | 4.0m/s | 0°C | 0% | 0hPa | 2.7V | 00:00:00 | 00:00:00 | 00:00:00 | |
| DO3MHA-11 | 2026-09-05 05:57:27 | 49.97569 | 15.08542 | 98° | 135km/h | 9262m | 6.7m/s | -36.6°C | 8.2% | 0hPa | 2.7V | 00:00:00 | 00:54:41 | 00:00:00 | |
| EDDB2-11 | 2026-09-05 05:57:26 | 49.97575 | 15.08437 | 92° | 128km/h | 9249m | 4.8m/s | -36.6°C | 5.8% | -1.0hPa | 2.7V | 00:00:00 | 00:00:00 | 00:00:00 | |
| OE5DRO-10 | 2026-09-05 05:57:25 | 49.97575 | 15.08437 | 93° | 142km/h | 9249m | 4.8m/s | -36.5°C | 8.0% | 0hPa | 2.7V | 00:00:00 | 00:00:00 | 00:00:00 | |
| OK1SLM-15 | 2026-09-05 05:57:24 | 49.97575 | 15.08437 | 94° | 128km/h | 9249m | 4.8m/s | 0°C | 0% | 0hPa | 2.9V | 00:00:00 | 00:00:00 | 00:00:00 | |
| OK1ALN | 2026-09-05 05:57:20 | 49.97578 | 15.08232 | 93° | 139km/h | 9233m | 3.2m/s | -36.4°C | 5.9% | 0hPa | 2.9V | 00:00:00 | 00:00:00 | 00:00:00 | |
| OE3MUC-15 | 2026-09-05 05:57:19 | 49.97582 | 15.08122 | 94° | 146km/h | 9222m | 6.7m/s | 0°C | 0% | 0hPa | 2.9V | 00:00:00 | 00:00:00 | 00:00:00 | |
| OE5MMP-10 | 2026-09-05 05:57:18 | 49.97584 | 15.08066 | 93° | 148km/h | 9216m | 5.2m/s | -36.2°C | 8.0% | 0hPa | 2.9V | 00:00:00 | 00:54:32 | 00:00:00 | |
| DO3MHA-11 | 2026-09-05 05:57:17 | 49.97585 | 15.08008 | 92° | 148km/h | 9211m | 5.2m/s | -36.2°C | 8.0% | 0hPa | 2.9V | 00:00:00 | 00:54:31 | 00:00:00 | |
| OE3MUC-15 | 2026-09-05 05:57:15 | 49.97586 | 15.07892 | 91° | 151km/h | 9204m | 3.5m/s | 0°C | 0% | 0hPa | 2.9V | 00:00:00 | 00:00:00 | 00:00:00 | |
| PETON7-10 | 2026-09-05 05:57:13 | 49.97588 | 15.07773 | 93° | 142km/h | 9195m | 3.2m/s | 0°C | 0% | 0hPa | 2.9V | 00:00:00 | 00:54:27 | 00:00:00 | |
| OE3MUC-15 | 2026-09-05 05:57:11 | 49.97592 | 15.07653 | 94° | 146km/h | 9188m | 3.1m/s | 0°C | 0% | 0hPa | 2.9V | 00:00:00 | 00:00:00 | 00:00:00 | |
| PG1ADW-2 | 2026-09-05 05:57:10 | 49.97595 | 15.07595 | 95° | 142km/h | 9185m | 1.9m/s | -35.9°C | 7.9% | 0hPa | 2.9V | 00:00:00 | 00:00:00 | 00:00:00 | |
| OE5MMP-10 | 2026-09-05 05:57:08 | 49.97602 | 15.07486 | 96° | 141km/h | 9178m | 2.7m/s | -35.9°C | 7.8% | 0hPa | 2.9V | 00:00:00 | 00:54:22 | 00:00:00 | |
| DO3MHA-11 | 2026-09-05 05:57:07 | 49.97604 | 15.07435 | 94° | 142km/h | 9175m | 3.9m/s | -35.8°C | 7.7% | 0hPa | 2.7V | 00:00:00 | 00:54:21 | 00:00:00 | |
| OE5DRO-10 | 2026-09-05 05:57:06 | 49.97606 | 15.07384 | 92° | 144km/h | 9171m | 5.0m/s | -35.8°C | 7.7% | 0hPa | 2.7V | 00:00:00 | 00:00:00 | 00:00:00 | |
| EDDB2-11 | 2026-09-05 05:56:55 | 49.97588 | 15.06705 | 85° | 144km/h | 9108m | 5.1m/s | -35.3°C | 5.3% | -1.0hPa | 2.7V | 00:00:00 | 00:00:00 | 00:00:00 | |
| OE3MUC-15 | 2026-09-05 05:56:53 | 49.97585 | 15.06648 | 85° | 148km/h | 9102m | 5.8m/s | 0°C | 0% | 0hPa | 2.7V | 00:00:00 | 00:00:00 | 00:00:00 | |
| PG1ADW-2 | 2026-09-05 05:56:50 | 49.97579 | 15.06475 | 91° | 151km/h | 9089m | 4.6m/s | -35.1°C | 7.4% | 0hPa | 2.7V | 00:00:00 | 00:54:04 | 00:00:00 | |
| OE3MUC-15 | 2026-09-05 05:56:49 | 49.97580 | 15.06419 | 94° | 142km/h | 9085m | 3.7m/s | 0°C | 0% | 0hPa | 2.7V | 00:00:00 | 00:00:00 | 00:00:00 | |
| OE5MMP-10 | 2026-09-05 05:56:48 | 49.97582 | 15.06363 | 96° | 144km/h | 9081m | 5.2m/s | -35.0°C | 7.2% | 0hPa | 2.7V | 00:00:00 | 00:54:02 | 00:00:00 | |
| DO3MHA-11 | 2026-09-05 05:56:47 | 49.97586 | 15.06307 | 97° | 151km/h | 9075m | 6.4m/s | -35.0°C | 7.1% | 0hPa | 2.7V | 00:00:00 | 00:54:01 | 00:00:00 | |
| OE3MUC-15 | 2026-09-05 05:56:45 | 49.97592 | 15.06190 | 93° | 159km/h | 9061m | 5.6m/s | 0°C | 0% | 0hPa | 2.7V | 00:00:00 | 00:00:00 | 00:00:00 | |
| PETON7-10 | 2026-09-05 05:56:43 | 49.97593 | 15.06066 | 89° | 148km/h | 9050m | 7.4m/s | 0°C | 0% | 0hPa | 2.7V | 00:00:00 | 00:00:00 | 00:00:00 | |
| OE3MUC-15 | 2026-09-05 05:56:41 | 49.97590 | 15.05942 | 88° | 148km/h | 9034m | 7.8m/s | 0°C | 0% | 0hPa | 2.7V | 00:00:00 | 00:00:00 | 08:30:00 | |
| OK1ALN | 2026-09-05 05:56:39 | 49.97588 | 15.05884 | 89° | 146km/h | 9027m | 6.6m/s | -34.5°C | 5.2% | 0hPa | 2.7V | 00:00:00 | 00:00:00 | 00:00:00 | |
| NBG1-10 | 2026-09-05 05:56:38 | 49.97587 | 15.05769 | 91° | 150km/h | 9016m | 5.4m/s | -34.4°C | 6.9% | 0hPa | 2.7V | 00:00:00 | 00:53:52 | 00:00:00 | |
| OE3MUC-15 | 2026-09-05 05:56:37 | 49.97588 | 15.05711 | 92° | 157km/h | 9010m | 5.9m/s | 0°C | 0% | 0hPa | 2.7V | 00:00:00 | 00:00:00 | 00:00:00 | |
| OE3MUC-15 | 2026-09-05 05:56:33 | 49.97590 | 15.05465 | 91° | 144km/h | 8991m | 3.9m/s | 0°C | 0% | 0hPa | 2.7V | 00:00:00 | 00:00:00 | 00:00:00 | |
| PG1ADW-2 | 2026-09-05 05:56:30 | 49.97592 | 15.05296 | 92° | 150km/h | 8978m | 5.4m/s | -34.1°C | 6.6% | 0hPa | 2.7V | 00:00:00 | 00:00:00 | 00:00:00 | |
| OE3MUC-15 | 2026-09-05 05:56:29 | 49.97593 | 15.05243 | 92° | 150km/h | 8972m | 7.2m/s | 0°C | 0% | 0hPa | 2.9V | 00:00:00 | 00:00:00 | 00:00:00 | |
| PETON7-10 | 2026-09-05 05:56:28 | 49.97593 | 15.05189 | 91° | 151km/h | 8966m | 4.6m/s | 0°C | 0% | 0hPa | 2.9V | 00:00:00 | 00:53:42 | 00:00:00 | |
| DO3MHA-11 | 2026-09-05 05:56:27 | 49.97593 | 15.05132 | 90° | 151km/h | 8962m | 4.7m/s | -33.9°C | 6.6% | 0hPa | 2.9V | 00:00:00 | 00:53:41 | 00:00:00 | |
| EDDB2-11 | 2026-09-05 05:56:24 | 49.97590 | 15.04896 | 90° | 153km/h | 8941m | 5.7m/s | -33.8°C | 4.8% | -1.0hPa | 2.9V | 00:00:00 | 00:00:00 | 00:00:00 | |
| OE3MUC-15 | 2026-09-05 05:56:20 | 49.97594 | 15.04717 | 92° | 151km/h | 8926m | 6.3m/s | 0°C | 0% | 0hPa | 2.9V | 00:00:00 | 00:00:00 | 00:00:00 | |
| OK1ALN | 2026-09-05 05:56:18 | 49.97595 | 15.04657 | 92° | 151km/h | 8921m | 3.8m/s | -33.6°C | 4.8% | 0hPa | 2.9V | 00:00:00 | 00:00:00 | 00:00:00 | |
| EDDB2-12 | 2026-09-05 05:56:17 | 49.97596 | 15.04539 | 90° | 150km/h | 8911m | 6.7m/s | -33.5°C | 4.6% | -1.0hPa | 2.9V | 00:00:00 | 00:00:00 | 00:00:00 | |
| SONDE2-11 | 2026-09-05 05:56:16 | 49.97596 | 15.04421 | 89° | 151km/h | 8901m | 6.4m/s | -33.4°C | 4.6% | -1.0hPa | 2.9V | 00:00:00 | 00:00:00 | 00:00:00 | |
| PETON7-10 | 2026-09-05 05:56:13 | 49.97593 | 15.04301 | 88° | 151km/h | 8892m | 3.8m/s | 0°C | 0% | 0hPa | 2.9V | 00:00:00 | 00:00:00 | 00:00:00 | |
| OE3MUC-15 | 2026-09-05 05:56:12 | 49.97592 | 15.04242 | 89° | 155km/h | 8887m | 5.2m/s | 0°C | 0% | 0hPa | 2.9V | 00:00:00 | 00:00:00 | 00:00:00 | |
| PG1ADW-2 | 2026-09-05 05:56:10 | 49.97590 | 15.04127 | 89° | 151km/h | 8879m | 5.9m/s | -33.3°C | 6.4% | 0hPa | 2.9V | 00:00:00 | 00:00:00 | 00:00:00 | |
| OE5DRO-10 | 2026-09-05 05:56:09 | 49.97588 | 15.04071 | 89° | 151km/h | 8874m | 3.5m/s | -33.3°C | 6.5% | 0hPa | 2.9V | 00:00:00 | 00:00:00 | 00:00:00 | |
| NBG1-10 | 2026-09-05 05:56:05 | 49.97591 | 15.03832 | 95° | 151km/h | 8856m | 5.2m/s | -33.3°C | 6.4% | 0hPa | 2.9V | 00:00:00 | 00:53:19 | 00:00:00 | |
| EDDB2-11 | 2026-09-05 05:55:52 | 49.97585 | 15.03060 | 83° | 148km/h | 8784m | 8.2m/s | -33.6°C | 5.2% | -1.0hPa | 2.7V | 00:00:00 | 00:00:00 | 00:00:00 | |
| EDDB2-12 | 2026-09-05 05:55:46 | 49.97558 | 15.02698 | 82° | 164km/h | 8745m | 6.5m/s | -33.4°C | 5.2% | -1.0hPa | 2.7V | 00:00:00 | 00:00:00 | 00:00:00 | |
| SONDE2-11 | 2026-09-05 05:55:45 | 49.97546 | 15.02570 | 80° | 166km/h | 8734m | 7.9m/s | -33.3°C | 5.1% | -1.0hPa | 2.7V | 00:00:00 | 00:00:00 | 00:00:00 | |
| DO3MHA-11 | 2026-09-05 05:55:42 | 49.97532 | 15.02441 | 81° | 153km/h | 8720m | 5.6m/s | -33.2°C | 7.0% | 0hPa | 2.7V | 00:00:00 | 00:52:56 | 00:00:00 | |
| OK1ALN | 2026-09-05 05:55:36 | 49.97509 | 15.02141 | 85° | 148km/h | 8684m | 7.9m/s | -33.0°C | 5.1% | 0hPa | 2.7V | 00:00:00 | 00:00:00 | 00:00:00 | |
| OE5MMP-10 | 2026-09-05 05:55:35 | 49.97501 | 15.02024 | 84° | 162km/h | 8671m | 5.6m/s | -32.8°C | 6.8% | 0hPa | 2.7V | 00:00:00 | 00:52:49 | 00:00:00 | |
| NBG1-10 | 2026-09-05 05:55:32 | 49.97490 | 15.01847 | 85° | 153km/h | 8649m | 5.8m/s | -32.7°C | 7.0% | 0hPa | 2.7V | 00:00:00 | 00:52:46 | 00:00:00 | |
| OE5DRO-10 | 2026-09-05 05:55:31 | 49.97485 | 15.01787 | 84° | 157km/h | 8643m | 7.2m/s | -32.7°C | 7.1% | 0hPa | 2.7V | 00:00:00 | 00:00:00 | 08:30:00 | |
| PG1ADW-2 | 2026-09-05 05:55:30 | 49.97481 | 15.01727 | 83° | 157km/h | 8637m | 5.7m/s | -32.7°C | 7.2% | 0hPa | 2.9V | 00:00:00 | 00:52:44 | 08:30:00 | |
| OE3JTB-15 | 2026-09-05 05:55:29 | 49.97476 | 15.01667 | 84° | 139km/h | 8631m | 5.5m/s | -32.8°C | 7.3% | 0hPa | 2.9V | 00:00:00 | 00:52:43 | 00:00:00 | |
| OE5MMP-10 | 2026-09-05 05:55:23 | 49.97444 | 15.01284 | 84° | 153km/h | 8606m | 4.3m/s | -32.7°C | 7.4% | 0hPa | 2.9V | 00:00:00 | 00:52:37 | 00:00:00 | |
| EDDB2-11 | 2026-09-05 05:55:22 | 49.97436 | 15.01160 | 84° | 153km/h | 8593m | 8.0m/s | -32.7°C | 5.6% | -1.0hPa | 2.9V | 00:00:00 | 00:00:00 | 00:00:00 | |
| OE3MUC-15 | 2026-09-05 05:55:19 | 49.97429 | 15.01041 | 86° | 151km/h | 8578m | 7.1m/s | 0°C | 0% | 0hPa | 2.9V | 00:00:00 | 00:00:00 | 00:00:00 | |
| SP3BTT-10 | 2026-09-05 05:55:17 | 49.97424 | 15.00923 | 87° | 144km/h | 8564m | 6.5m/s | -32.5°C | 7.6% | 0hPa | 2.9V | 00:00:00 | 00:00:00 | 08:30:00 | |
| OK1ALN | 2026-09-05 05:55:16 | 49.97424 | 15.00922 | 87° | 153km/h | 8564m | 6.6m/s | -32.5°C | 5.9% | 0hPa | 2.9V | 00:00:00 | 00:00:00 | 00:00:00 | |
| EDDB2-12 | 2026-09-05 05:55:15 | 49.97418 | 15.00804 | 85° | 150km/h | 8551m | 5.1m/s | -32.6°C | 6.0% | -1.0hPa | 2.9V | 00:00:00 | 00:00:00 | 00:00:00 | |
| SONDE2-11 | 2026-09-05 05:55:14 | 49.97413 | 15.00686 | 86° | 151km/h | 8541m | 3.8m/s | -32.5°C | 6.1% | -1.0hPa | 2.9V | 00:00:00 | 00:00:00 | 00:00:00 | |
| OE3MUC-15 | 2026-09-05 05:55:13 | 49.97412 | 15.00686 | 87° | 153km/h | 8541m | 3.8m/s | 0°C | 0% | 0hPa | 2.9V | 00:00:00 | 00:00:00 | 00:00:00 | |
| DO3MHA-11 | 2026-09-05 05:55:12 | 49.97410 | 15.00626 | 86° | 148km/h | 8536m | 6.2m/s | -32.5°C | 8.0% | 0hPa | 2.9V | 00:00:00 | 00:52:26 | 00:00:00 | |
| PG1ADW-2 | 2026-09-05 05:55:10 | 49.97402 | 15.00506 | 84° | 150km/h | 8525m | 4.7m/s | -32.5°C | 8.3% | 0hPa | 2.9V | 00:00:00 | 00:00:00 | 00:00:00 | |
| OE3MUC-15 | 2026-09-05 05:55:09 | 49.97398 | 15.00446 | 85° | 153km/h | 8519m | 5.7m/s | 0°C | 0% | 0hPa | 2.9V | 00:00:00 | 00:52:23 | 00:00:00 | |
| OE3MUC-15 | 2026-09-05 05:55:05 | 49.97384 | 15.00208 | 85° | 148km/h | 8500m | 4.7m/s | 0°C | 0% | 0hPa | 2.9V | 00:00:00 | 00:00:00 | 00:00:00 | |
| OE5MMP-10 | 2026-09-05 05:55:03 | 49.97379 | 15.00092 | 88° | 148km/h | 8491m | 6.3m/s | -32.8°C | 9.7% | 0hPa | 2.9V | 00:00:00 | 00:52:17 | 00:00:00 | |
| NBG1-10 | 2026-09-05 05:54:59 | 49.97382 | 14.99865 | 94° | 144km/h | 8469m | 3.6m/s | -32.7°C | 9.7% | 0hPa | 2.9V | 00:00:00 | 00:52:13 | 00:00:00 | |
| DO3MHA-11 | 2026-09-05 05:54:58 | 49.97384 | 14.99808 | 94° | 148km/h | 8465m | 3.5m/s | -32.7°C | 9.7% | 0hPa | 2.9V | 00:00:00 | 00:52:12 | 00:00:00 | |
| OK1ALN | 2026-09-05 05:54:55 | 49.97385 | 14.99691 | 89° | 151km/h | 8455m | 6.7m/s | -32.6°C | 7.8% | 0hPa | 2.9V | 00:00:00 | 00:00:00 | 00:00:00 | |
| OE5MMP-10 | 2026-09-05 05:54:53 | 49.97371 | 14.99514 | 80° | 142km/h | 8435m | 8.6m/s | -32.4°C | 9.6% | 0hPa | 2.9V | 00:00:00 | 00:52:07 | 00:00:00 | |
| PG1ADW-2 | 2026-09-05 05:54:50 | 49.97352 | 14.99343 | 84° | 139km/h | 8414m | 5.0m/s | -32.2°C | 10.0% | 0hPa | 2.9V | 00:00:00 | 00:00:00 | 00:00:00 | |
| DO3MHA-11 | 2026-09-05 05:54:48 | 49.97346 | 14.99230 | 87° | 135km/h | 8400m | 8.5m/s | -32.1°C | 9.8% | 0hPa | 2.9V | 00:00:00 | 00:52:02 | 00:00:00 | |
| EDDB2-12 | 2026-09-05 05:54:44 | 49.97346 | 14.99014 | 90° | 124km/h | 8367m | 4.0m/s | -31.9°C | 7.6% | -1.0hPa | 2.9V | 00:00:00 | 00:00:00 | 00:00:00 | |
| OE5MMP-10 | 2026-09-05 05:54:43 | 49.97345 | 14.98965 | 90° | 141km/h | 8363m | 4.4m/s | -31.8°C | 9.7% | 0hPa | 2.9V | 00:00:00 | 00:51:57 | 00:00:00 | |
| SONDE2-11 | 2026-09-05 05:54:42 | 49.97344 | 14.98916 | 85° | 126km/h | 8358m | 4.6m/s | -31.8°C | 7.6% | -1.0hPa | 2.9V | 00:00:00 | 00:00:00 | 00:00:00 | |
| DO3MHA-11 | 2026-09-05 05:54:38 | 49.97322 | 14.98699 | 79° | 141km/h | 8332m | 6.7m/s | -31.6°C | 9.6% | 0hPa | 2.9V | 00:00:00 | 00:51:52 | 00:00:00 | |
| OE5DRO-10 | 2026-09-05 05:54:34 | 49.97297 | 14.98468 | 83° | 142km/h | 8310m | 7.4m/s | -31.4°C | 9.6% | 0hPa | 2.9V | 00:00:00 | 00:00:00 | 00:00:00 | |
| OE5MMP-10 | 2026-09-05 05:54:33 | 49.97293 | 14.98415 | 84° | 142km/h | 8302m | 7.2m/s | -31.3°C | 9.6% | 0hPa | 2.9V | 00:00:00 | 00:51:47 | 00:00:00 | |
| SP3BTT-10 | 2026-09-05 05:54:32 | 49.97290 | 14.98364 | 85° | 139km/h | 8297m | 4.2m/s | -31.2°C | 9.6% | 0hPa | 2.9V | 00:00:00 | 00:00:00 | 00:00:00 | |
| PG1ADW-2 | 2026-09-05 05:54:30 | 49.97284 | 14.98264 | 85° | 146km/h | 8286m | 5.1m/s | -31.1°C | 9.7% | 0hPa | 2.9V | 00:00:00 | 00:00:00 | 00:00:00 | |
| DO3MHA-11 | 2026-09-05 05:54:28 | 49.97279 | 14.98156 | 87° | 150km/h | 8277m | 6.7m/s | -31.1°C | 9.5% | 0hPa | 2.7V | 00:00:00 | 00:51:42 | 08:30:00 | |
| OE5MMP-10 | 2026-09-05 05:54:22 | 49.97258 | 14.97799 | 81° | 144km/h | 8237m | 5.9m/s | -30.8°C | 9.9% | 0hPa | 2.9V | 00:00:00 | 00:51:36 | 00:00:00 | |
| EDDB2-11 | 2026-09-05 05:54:19 | 49.97237 | 14.97629 | 80° | 139km/h | 8220m | 8.9m/s | -30.7°C | 7.8% | -1.0hPa | 2.9V | 00:00:00 | 00:00:00 | 00:00:00 | |
| DO3MHA-11 | 2026-09-05 05:54:18 | 49.97232 | 14.97574 | 85° | 144km/h | 8212m | 7.2m/s | -30.6°C | 9.9% | 0hPa | 2.9V | 00:00:00 | 00:51:32 | 00:00:00 | |
| OE5DRO-10 | 2026-09-05 05:54:15 | 49.97227 | 14.97408 | 89° | 142km/h | 8192m | 6.2m/s | -30.4°C | 10.1% | 0hPa | 2.9V | 00:00:00 | 00:00:00 | 00:00:00 | |
| EDDB2-12 | 2026-09-05 05:54:13 | 49.97224 | 14.97297 | 87° | 142km/h | 8182m | 6.5m/s | -30.5°C | 8.3% | -1.0hPa | 2.9V | 00:00:00 | 00:00:00 | 00:00:00 | |
| SONDE2-11 | 2026-09-05 05:54:11 | 49.97222 | 14.97184 | 88° | 144km/h | 8169m | 6.2m/s | -30.4°C | 8.2% | -1.0hPa | 2.9V | 00:00:00 | 00:00:00 | 00:00:00 | |
| PG1ADW-2 | 2026-09-05 05:54:10 | 49.97221 | 14.97126 | 89° | 141km/h | 8163m | 6.3m/s | -30.3°C | 10.2% | 0hPa | 2.9V | 00:00:00 | 00:51:24 | 00:00:00 | |
| DO3MHA-11 | 2026-09-05 05:54:08 | 49.97216 | 14.97006 | 85° | 139km/h | 8154m | 3.7m/s | -30.2°C | 10.4% | 0hPa | 2.9V | 00:00:00 | 00:51:22 | 00:00:00 | |
| NBG1-10 | 2026-09-05 05:54:01 | 49.97164 | 14.96631 | 76° | 137km/h | 8113m | 6.9m/s | -29.9°C | 10.3% | 0hPa | 2.9V | 00:00:00 | 00:51:15 | 08:30:00 | |
| DO3MHA-11 | 2026-09-05 05:53:58 | 49.97140 | 14.96475 | 79° | 141km/h | 8095m | 8.2m/s | -29.8°C | 10.4% | 0hPa | 2.7V | 00:00:00 | 00:51:12 | 00:00:00 | |
| OE5DRO-10 | 2026-09-05 05:53:56 | 49.97127 | 14.96369 | 81° | 141km/h | 8079m | 7.7m/s | -29.7°C | 10.6% | 0hPa | 2.9V | 00:00:00 | 00:00:00 | 00:00:00 | |
| OK1ALN | 2026-09-05 05:53:52 | 49.97110 | 14.96214 | 82° | 137km/h | 8061m | 6.7m/s | -29.6°C | 8.6% | 0hPa | 2.9V | 00:00:00 | 00:00:00 | 00:00:00 | |
| DO3MHA-11 | 2026-09-05 05:53:48 | 49.97083 | 14.95929 | 81° | 141km/h | 8036m | 3.5m/s | -29.3°C | 10.4% | 0hPa | 2.9V | 00:00:00 | 00:51:02 | 00:00:00 | |
| SP3BTT-10 | 2026-09-05 05:53:47 | 49.97076 | 14.95870 | 81° | 141km/h | 8032m | 5.2m/s | -29.3°C | 10.3% | 0hPa | 2.9V | 00:00:00 | 00:00:00 | 00:00:00 | |
| EDDB2-12 | 2026-09-05 05:53:42 | 49.97038 | 14.95534 | 79° | 128km/h | 7993m | 6.1m/s | -29.1°C | 8.3% | -1.0hPa | 2.9V | 00:00:00 | 00:00:00 | 00:00:00 | |
| SONDE2-11 | 2026-09-05 05:53:40 | 49.97032 | 14.95485 | 79° | 124km/h | 7988m | 4.9m/s | -29.0°C | 8.4% | -1.0hPa | 2.9V | 00:00:00 | 00:00:00 | 00:00:00 | |
| DO3MHA-11 | 2026-09-05 05:53:38 | 49.97020 | 14.95389 | 79° | 137km/h | 7979m | 4.3m/s | -28.9°C | 10.3% | 0hPa | 2.9V | 00:00:00 | 00:50:52 | 00:00:00 | |
| PETON7-10 | 2026-09-05 05:53:37 | 49.97014 | 14.95340 | 79° | 137km/h | 7975m | 4.0m/s | 0°C | 0% | 0hPa | 2.9V | 00:00:00 | 00:50:51 | 00:00:00 | |
| OK1ALN | 2026-09-05 05:53:32 | 49.96990 | 14.95132 | 81° | 139km/h | 7946m | 8.1m/s | -28.7°C | 8.3% | 0hPa | 2.9V | 00:00:00 | 00:00:00 | 00:00:00 | |
| PG1ADW-2 | 2026-09-05 05:53:30 | 49.96969 | 14.94968 | 79° | 137km/h | 7928m | 5.7m/s | -28.5°C | 10.5% | 0hPa | 2.9V | 00:00:00 | 00:00:00 | 00:00:00 | |
| DO3MHA-11 | 2026-09-05 05:53:28 | 49.96953 | 14.94858 | 79° | 137km/h | 7918m | 6.3m/s | -28.5°C | 10.6% | 0hPa | 2.9V | 00:00:00 | 00:50:42 | 00:00:00 | |
| OE5MMP-10 | 2026-09-05 05:53:24 | 49.96918 | 14.94651 | 71° | 135km/h | 7899m | 3.7m/s | -28.4°C | 10.8% | 0hPa | 2.9V | 00:00:00 | 00:50:38 | 08:30:00 | |
| PETON7-10 | 2026-09-05 05:53:22 | 49.96895 | 14.94553 | 71° | 135km/h | 7891m | 4.1m/s | 0°C | 0% | 0hPa | 2.9V | 00:00:00 | 00:00:00 | 00:00:00 | |
| DO3MHA-11 | 2026-09-05 05:53:18 | 49.96859 | 14.94349 | 79° | 137km/h | 7871m | 7.7m/s | -28.4°C | 11.3% | 0hPa | 2.9V | 00:00:00 | 00:50:32 | 00:00:00 | |
| EDDB2-11 | 2026-09-05 05:53:17 | 49.96852 | 14.94297 | 78° | 135km/h | 7863m | 7.9m/s | -28.4°C | 9.3% | -1.0hPa | 2.9V | 00:00:00 | 00:00:00 | 00:00:00 | |
| OE5MMP-10 | 2026-09-05 05:53:14 | 49.96828 | 14.94141 | 77° | 137km/h | 7844m | 6.9m/s | -28.2°C | 11.2% | 0hPa | 2.9V | 00:00:00 | 00:50:28 | 00:00:00 | |
| EDDB2-12 | 2026-09-05 05:53:11 | 49.96805 | 14.93983 | 77° | 135km/h | 7828m | 5.1m/s | -28.1°C | -1.0% | -1.0hPa | 2.9V | 00:00:00 | 00:00:00 | 00:00:00 | |
| PG1ADW-2 | 2026-09-05 05:53:10 | 49.96798 | 14.93932 | 78° | 135km/h | 7824m | 4.3m/s | -28.0°C | 11.5% | 0hPa | 2.9V | 00:00:00 | 00:00:00 | 00:00:00 | |
| SONDE2-11 | 2026-09-05 05:53:09 | 49.96791 | 14.93881 | 78° | 131km/h | 7820m | 4.5m/s | -28.1°C | 9.5% | -1.0hPa | 2.9V | 00:00:00 | 00:00:00 | 00:00:00 | |
| DO3MHA-11 | 2026-09-05 05:53:08 | 49.96785 | 14.93829 | 81° | 139km/h | 7815m | 5.3m/s | -28.0°C | 11.4% | 0hPa | 2.9V | 00:00:00 | 00:50:22 | 00:00:00 | |
| OE5MMP-10 | 2026-09-05 05:53:04 | 49.96768 | 14.93616 | 84° | 137km/h | 7796m | 2.8m/s | -27.8°C | 11.3% | 0hPa | 2.9V | 00:00:00 | 00:50:18 | 00:00:00 | |
| EDDB2-11 | 2026-09-05 05:52:46 | 49.96682 | 14.92667 | 82° | 150km/h | 7685m | 9.0m/s | -26.8°C | -1.0% | -1.0hPa | 2.9V | 00:00:00 | 00:00:00 | 00:00:00 | |
| OE5MMP-10 | 2026-09-05 05:52:44 | 49.96672 | 14.92553 | 83° | 130km/h | 7668m | 8.0m/s | -26.6°C | 10.2% | 0hPa | 2.9V | 00:00:00 | 00:49:58 | 00:00:00 | |
| OE5DRO-10 | 2026-09-05 05:52:40 | 49.96651 | 14.92347 | 81° | 133km/h | 7640m | 4.8m/s | -26.3°C | 10.0% | 0hPa | 2.9V | 00:00:00 | 00:00:00 | 08:30:00 | |
| DO3MHA-11 | 2026-09-05 05:52:38 | 49.96643 | 14.92254 | 84° | 135km/h | 7631m | 3.8m/s | -26.2°C | 10.0% | 0hPa | 2.9V | 00:00:00 | 00:49:52 | 00:00:00 | |
| OE5MMP-10 | 2026-09-05 05:52:34 | 49.96634 | 14.92050 | 86° | 137km/h | 7611m | 7.0m/s | -26.1°C | 9.9% | 0hPa | 2.9V | 00:00:00 | 00:49:48 | 00:00:00 | |
| PG1ADW-2 | 2026-09-05 05:52:30 | 49.96614 | 14.91828 | 80° | 133km/h | 7585m | 8.4m/s | -26.0°C | 10.2% | 0hPa | 2.9V | 00:00:00 | 00:00:00 | 08:30:00 | |
| DO3MHA-11 | 2026-09-05 05:52:28 | 49.96601 | 14.91722 | 79° | 131km/h | 7570m | 6.6m/s | -25.9°C | 10.2% | 0hPa | 2.7V | 00:00:00 | 00:49:42 | 00:00:00 | |
| OE5DRO-10 | 2026-09-05 05:52:21 | 49.96558 | 14.91362 | 85° | 133km/h | 7532m | 6.6m/s | -25.5°C | 10.1% | 0hPa | 2.9V | 00:00:00 | 00:00:00 | 00:00:00 | |
| NBG1-10 | 2026-09-05 05:52:19 | 49.96553 | 14.91261 | 86° | 137km/h | 7521m | 4.4m/s | -25.4°C | 10.1% | 0hPa | 2.9V | 00:00:00 | 00:49:33 | 00:00:00 | |
| DO3MHA-11 | 2026-09-05 05:52:18 | 49.96550 | 14.91214 | 84° | 135km/h | 7516m | 6.0m/s | -25.4°C | 10.1% | 0hPa | 2.9V | 00:00:00 | 00:49:32 | 00:00:00 | |
| SP3BTT-10 | 2026-09-05 05:52:17 | 49.96545 | 14.91167 | 79° | 133km/h | 7511m | 3.3m/s | 0°C | 0% | 0hPa | 2.9V | 00:00:00 | 00:00:00 | 00:00:00 | |
| EDDB2-11 | 2026-09-05 05:52:15 | 49.96530 | 14.91073 | 74° | 130km/h | 7503m | 5.2m/s | -25.3°C | -1.0% | -1.0hPa | 2.9V | 00:00:00 | 00:00:00 | 00:00:00 | |
| OE5MMP-10 | 2026-09-05 05:52:14 | 49.96521 | 14.91023 | 76° | 139km/h | 7497m | 7.7m/s | -25.2°C | 9.9% | 0hPa | 2.9V | 00:00:00 | 00:49:28 | 00:00:00 | |
| PG1ADW-2 | 2026-09-05 05:52:10 | 49.96496 | 14.90803 | 84° | 135km/h | 7470m | 8.0m/s | -24.9°C | 9.7% | 0hPa | 2.9V | 00:00:00 | 00:00:00 | 00:00:00 | |
| OK1ALN | 2026-09-05 05:52:09 | 49.96496 | 14.90803 | 85° | 144km/h | 7470m | 8.0m/s | -25.0°C | 8.1% | 0hPa | 2.9V | 00:00:00 | 00:00:00 | 00:00:00 | |
| DO3MHA-11 | 2026-09-05 05:52:07 | 49.96487 | 14.90641 | 85° | 139km/h | 7450m | 8.5m/s | -24.8°C | 9.5% | 0hPa | 2.9V | 00:00:00 | 00:49:21 | 00:00:00 | |
| OE5DRO-10 | 2026-09-05 05:52:02 | 49.96459 | 14.90386 | 79° | 137km/h | 7422m | 4.4m/s | -24.6°C | 9.3% | 0hPa | 2.9V | 00:00:00 | 00:00:00 | 00:00:00 | |
| DO3MHA-11 | 2026-09-05 05:51:57 | 49.96430 | 14.90103 | 84° | 133km/h | 7402m | 4.0m/s | -24.4°C | 9.3% | 0hPa | 2.9V | 00:00:00 | 00:49:11 | 00:00:00 | |
| OE5MMP-10 | 2026-09-05 05:51:54 | 49.96418 | 14.89950 | 83° | 128km/h | 7388m | 7.3m/s | -24.3°C | 8.8% | 0hPa | 2.9V | 00:00:00 | 00:49:08 | 08:30:00 | |
| PG1ADW-2 | 2026-09-05 05:51:50 | 49.96404 | 14.89754 | 85° | 139km/h | 7357m | 6.1m/s | -24.0°C | 8.1% | 0hPa | 2.9V | 00:00:00 | 00:00:00 | 00:00:00 | |
| OK1ALN | 2026-09-05 05:51:48 | 49.96401 | 14.89699 | 86° | 144km/h | 7351m | 6.1m/s | -24.0°C | 6.6% | 0hPa | 2.9V | 00:00:00 | 00:00:00 | 00:00:00 | |
| DO3MHA-11 | 2026-09-05 05:51:47 | 49.96395 | 14.89583 | 87° | 137km/h | 7338m | 6.7m/s | -23.9°C | 7.4% | 0hPa | 2.9V | 00:00:00 | 00:49:01 | 00:00:00 | |
| NBG1-10 | 2026-09-05 05:51:45 | 49.96390 | 14.89472 | 85° | 137km/h | 7326m | 6.2m/s | -23.8°C | 7.1% | 0hPa | 2.9V | 00:00:00 | 00:48:59 | 00:00:00 | |
| OE5DRO-10 | 2026-09-05 05:51:43 | 49.96381 | 14.89369 | 81° | 137km/h | 7313m | 7.0m/s | 0°C | 0% | 0hPa | 2.9V | 00:00:00 | 00:00:00 | 00:00:00 | |
| DO3MHA-11 | 2026-09-05 05:51:37 | 49.96360 | 14.89052 | 86° | 137km/h | 7275m | 5.7m/s | -23.3°C | 6.6% | 0hPa | 2.9V | 00:00:00 | 00:48:51 | 00:00:00 | |
| SONDE2-11 | 2026-09-05 05:51:36 | 49.96356 | 14.88999 | 82° | 135km/h | 7269m | 5.0m/s | -23.4°C | 5.4% | -1.0hPa | 2.9V | 00:00:00 | 00:00:00 | 00:00:00 | |
| SP3BTT-10 | 2026-09-05 05:51:32 | 49.96331 | 14.88784 | 78° | 135km/h | 7250m | 5.0m/s | 0°C | 0% | 0hPa | 2.9V | 00:00:00 | 00:00:00 | 00:00:00 | |
| PG1ADW-2 | 2026-09-05 05:51:30 | 49.96314 | 14.88679 | 77° | 137km/h | 7243m | 3.9m/s | -23.1°C | 6.2% | 0hPa | 2.9V | 00:00:00 | 00:48:44 | 00:00:00 | |
| OK1ALN | 2026-09-05 05:51:27 | 49.96301 | 14.88575 | 82° | 139km/h | 7234m | 4.9m/s | -23.1°C | 5.1% | 0hPa | 2.9V | 00:00:00 | 00:00:00 | 00:00:00 | |
| OE5DRO-10 | 2026-09-05 05:51:24 | 49.96288 | 14.88351 | 87° | 139km/h | 7207m | 8.1m/s | 0°C | 0% | 0hPa | 2.9V | 00:00:00 | 00:00:00 | 00:00:00 | |
| DO3MHA-11 | 2026-09-05 05:51:17 | 49.96276 | 14.87954 | 88° | 130km/h | 7165m | 6.9m/s | -22.7°C | 7.8% | 0hPa | 2.9V | 00:00:00 | 00:48:31 | 00:00:00 | |
| PG1ADW-2 | 2026-09-05 05:51:10 | 49.96253 | 14.87610 | 87° | 137km/h | 7120m | 5.8m/s | -22.3°C | 7.7% | 0hPa | 2.9V | 00:00:00 | 00:00:00 | 00:00:00 | |
| DO3MHA-11 | 2026-09-05 05:51:07 | 49.96249 | 14.87439 | 89° | 139km/h | 7103m | 4.0m/s | -22.1°C | 7.8% | 0hPa | 2.9V | 00:00:00 | 00:48:21 | 00:00:00 | |
| OE5DRO-10 | 2026-09-05 05:51:05 | 49.96245 | 14.87322 | 85° | 135km/h | 7095m | 3.5m/s | 0°C | 0% | 0hPa | 2.9V | 00:00:00 | 00:00:00 | 00:00:00 | |
| OE5MMP-10 | 2026-09-05 05:50:57 | 49.96217 | 14.86900 | 91° | 135km/h | 7042m | 8.8m/s | -21.6°C | 7.8% | 0hPa | 2.9V | 00:00:00 | 00:48:11 | 00:00:00 | |
| PG1ADW-2 | 2026-09-05 05:50:50 | 49.96226 | 14.86537 | 90° | 131km/h | 7003m | 4.8m/s | -21.3°C | 7.7% | 0hPa | 2.9V | 00:00:00 | 00:00:00 | 00:00:00 | |
| OE5MMP-10 | 2026-09-05 05:50:47 | 49.96222 | 14.86374 | 89° | 130km/h | 6985m | 6.7m/s | -21.1°C | 7.7% | 0hPa | 2.9V | 00:00:00 | 00:48:01 | 00:00:00 | |
| NBG1-10 | 2026-09-05 05:50:37 | 49.96190 | 14.85878 | 88° | 130km/h | 6934m | 6.0m/s | -20.7°C | 7.5% | 0hPa | 2.9V | 00:00:00 | 00:47:51 | 00:00:00 | |
| OE5MMP-10 | 2026-09-05 05:50:35 | 49.96186 | 14.85774 | 87° | 130km/h | 6921m | 7.1m/s | -20.6°C | 7.4% | 0hPa | 2.9V | 00:00:00 | 00:47:49 | 00:00:00 | |
| SONDE2-11 | 2026-09-05 05:50:34 | 49.96184 | 14.85722 | 83° | 133km/h | 6913m | 7.5m/s | -20.6°C | 6.2% | -1.0hPa | 2.9V | 00:00:00 | 00:00:00 | 00:00:00 | |
| PG1ADW-2 | 2026-09-05 05:50:30 | 49.96166 | 14.85508 | 84° | 130km/h | 6893m | 3.1m/s | -20.3°C | 7.4% | 0hPa | 2.9V | 00:00:00 | 00:00:00 | 00:00:00 | |
| DO3MHA-11 | 2026-09-05 05:50:27 | 49.96152 | 14.85353 | 81° | 130km/h | 6873m | 7.9m/s | -20.2°C | 7.2% | 0hPa | 2.9V | 00:00:00 | 00:47:41 | 00:00:00 | |
| DO3MHA-11 | 2026-09-05 05:50:17 | 49.96129 | 14.84849 | 87° | 128km/h | 6812m | 4.9m/s | -19.6°C | 7.2% | 0hPa | 2.9V | 00:00:00 | 00:47:31 | 00:00:00 | |
| OE3JTB-15 | 2026-09-05 05:50:12 | 49.96115 | 14.84599 | 82° | 130km/h | 6788m | 4.3m/s | -19.4°C | 7.2% | 0hPa | 2.9V | 00:00:00 | 00:00:00 | 00:00:00 | |
| PG1ADW-2 | 2026-09-05 05:50:10 | 49.96104 | 14.84504 | 81° | 131km/h | 6780m | 2.3m/s | 0°C | 0% | 0hPa | 2.9V | 00:00:00 | 00:47:24 | 00:00:00 | |
| OE5DRO-10 | 2026-09-05 05:50:08 | 49.96095 | 14.84403 | 84° | 130km/h | 6772m | 5.1m/s | 0°C | 0% | 0hPa | 2.9V | 00:00:00 | 00:00:00 | 00:00:00 | |
| DO3MHA-11 | 2026-09-05 05:50:07 | 49.96092 | 14.84352 | 87° | 133km/h | 6767m | 5.3m/s | -19.2°C | 7.3% | 0hPa | 2.9V | 00:00:00 | 00:47:21 | 00:00:00 | |
| OK1ALN | 2026-09-05 05:50:06 | 49.96092 | 14.84352 | 88° | 133km/h | 6767m | 5.3m/s | -19.3°C | 6.3% | 0hPa | 2.9V | 00:00:00 | 00:00:00 | 00:00:00 | |
| SONDE2-11 | 2026-09-05 05:50:03 | 49.96099 | 14.84142 | 95° | 133km/h | 6741m | 6.2m/s | -19.1°C | 6.1% | -1.0hPa | 2.9V | 00:00:00 | 00:00:00 | 00:00:00 | |
| SP3BTT-10 | 2026-09-05 05:50:02 | 49.96101 | 14.84090 | 93° | 131km/h | 6736m | 4.9m/s | 0°C | 0% | 0hPa | 2.9V | 00:00:00 | 00:00:00 | 00:00:00 | |
| NBG1-10 | 2026-09-05 05:49:57 | 49.96089 | 14.83833 | 83° | 131km/h | 6704m | 5.2m/s | -18.7°C | 7.0% | 0hPa | 2.9V | 00:00:00 | 00:47:11 | 00:00:00 | |
| PG1ADW-2 | 2026-09-05 05:49:50 | 49.96091 | 14.83473 | 96° | 130km/h | 6662m | 6.2m/s | 0°C | 0% | 0hPa | 2.9V | 00:00:00 | 00:00:00 | 00:00:00 | |
| DO3MHA-11 | 2026-09-05 05:49:47 | 49.96096 | 14.83326 | 90° | 130km/h | 6646m | 4.9m/s | -18.1°C | 6.7% | 0hPa | 2.9V | 00:00:00 | 00:47:01 | 00:00:00 | |
| OK1ALN | 2026-09-05 05:49:46 | 49.96096 | 14.83326 | 91° | 128km/h | 6646m | 4.9m/s | -18.2°C | 5.8% | 0hPa | 2.9V | 00:00:00 | 00:00:00 | 00:00:00 | |
| OE3JTB-15 | 2026-09-05 05:49:43 | 49.96093 | 14.83123 | 92° | 131km/h | 6623m | 6.1m/s | -17.9°C | 6.6% | 0hPa | 2.9V | 00:00:00 | 00:00:00 | 00:00:00 | |
| DO3MHA-11 | 2026-09-05 05:49:37 | 49.96103 | 14.82820 | 95° | 133km/h | 6593m | 5.6m/s | -17.7°C | 6.0% | 0hPa | 2.9V | 00:00:00 | 00:46:51 | 00:00:00 | |
| SONDE2-11 | 2026-09-05 05:49:32 | 49.96101 | 14.82557 | 83° | 133km/h | 6571m | 4.1m/s | -17.6°C | 4.3% | -1.0hPa | 2.9V | 00:00:00 | 00:00:00 | 00:00:00 | |
| PG1ADW-2 | 2026-09-05 05:49:30 | 49.96093 | 14.82454 | 85° | 130km/h | 6561m | 4.3m/s | 0°C | 0% | 0hPa | 2.9V | 00:00:00 | 00:00:00 | 00:00:00 | |
| DO3MHA-11 | 2026-09-05 05:49:27 | 49.96089 | 14.82295 | 92° | 131km/h | 6542m | 5.6m/s | -17.3°C | 4.5% | 0hPa | 2.9V | 00:00:00 | 00:46:41 | 00:00:00 | |
| OK1ALN | 2026-09-05 05:49:25 | 49.96090 | 14.82240 | 94° | 142km/h | 6536m | 5.7m/s | -17.3°C | 3.6% | 0hPa | 2.9V | 00:00:00 | 00:00:00 | 00:00:00 | |
| NBG1-10 | 2026-09-05 05:49:24 | 49.96097 | 14.82131 | 96° | 130km/h | 6526m | 3.6m/s | 0°C | 0% | 0hPa | 2.9V | 00:00:00 | 00:46:38 | 00:00:00 | |
| SP3BTT-10 | 2026-09-05 05:49:17 | 49.96090 | 14.81789 | 84° | 130km/h | 6482m | 6.2m/s | 0°C | 0% | 0hPa | 2.9V | 00:00:00 | 00:00:00 | 00:00:00 | |
| OE5MMP-10 | 2026-09-05 05:49:16 | 49.96087 | 14.81742 | 86° | 124km/h | 6477m | 4.1m/s | -16.9°C | 3.0% | 0hPa | 2.9V | 00:00:00 | 00:46:30 | 00:00:00 | |
| OE3JTB-15 | 2026-09-05 05:49:14 | 49.96084 | 14.81645 | 89° | 128km/h | 6466m | 6.7m/s | -16.9°C | 2.9% | 0hPa | 2.9V | 00:00:00 | 00:46:28 | 00:00:00 | |
| DO3MHA-11 | 2026-09-05 05:49:07 | 49.96063 | 14.81308 | 81° | 137km/h | 6427m | 2.8m/s | -16.6°C | 2.9% | 0hPa | 2.9V | 00:00:00 | 00:46:21 | 00:00:00 | |
| OE5MMP-10 | 2026-09-05 05:49:06 | 49.96057 | 14.81256 | 82° | 137km/h | 6424m | 3.8m/s | -16.6°C | 2.9% | 0hPa | 2.9V | 00:00:00 | 00:46:20 | 00:00:00 | |
| OK1ALN | 2026-09-05 05:49:04 | 49.96053 | 14.81203 | 84° | 139km/h | 6419m | 4.8m/s | -16.6°C | 2.5% | 0hPa | 2.9V | 00:00:00 | 00:00:00 | 00:00:00 | |
| SONDE2-11 | 2026-09-05 05:49:01 | 49.96050 | 14.80980 | 93° | 135km/h | 6397m | 5.1m/s | -16.5°C | 2.6% | -1.0hPa | 2.9V | 00:00:00 | 00:00:00 | 00:00:00 | |
| DO3MHA-11 | 2026-09-05 05:48:57 | 49.96059 | 14.80771 | 92° | 131km/h | 6373m | 9.2m/s | -16.3°C | 3.4% | 0hPa | 2.9V | 00:00:00 | 00:46:11 | 00:00:00 | |
| OE5MMP-10 | 2026-09-05 05:48:56 | 49.96058 | 14.80719 | 88° | 130km/h | 6364m | 10.2m/s | -16.3°C | 3.7% | 0hPa | 2.9V | 00:00:00 | 00:46:10 | 00:00:00 | |
| NBG1-10 | 2026-09-05 05:48:51 | 49.96039 | 14.80458 | 86° | 133km/h | 6326m | 6.2m/s | 0°C | 0% | 0hPa | 2.9V | 00:00:00 | 00:46:05 | 00:00:00 | |
| DO3MHA-11 | 2026-09-05 05:48:47 | 49.96036 | 14.80261 | 92° | 122km/h | 6303m | 4.5m/s | -16.1°C | 14.2% | 0hPa | 2.9V | 00:00:00 | 00:46:01 | 00:00:00 | |
| OE5MMP-10 | 2026-09-05 05:48:46 | 49.96037 | 14.80214 | 93° | 124km/h | 6298m | 4.9m/s | -16.1°C | 16.3% | 0hPa | 2.9V | 00:00:00 | 00:46:00 | 00:00:00 | |
| OE3JTB-15 | 2026-09-05 05:48:45 | 49.96037 | 14.80167 | 91° | 135km/h | 6295m | 3.4m/s | -16.1°C | 17.9% | 0hPa | 2.9V | 00:00:00 | 00:00:00 | 00:00:00 | |
| OK1ALN | 2026-09-05 05:48:43 | 49.96038 | 14.80119 | 91° | 122km/h | 6290m | 5.7m/s | -16.2°C | 18.3% | 0hPa | 2.9V | 00:00:00 | 00:00:00 | 00:00:00 | |
| DO3MHA-11 | 2026-09-05 05:48:37 | 49.96027 | 14.79780 | 85° | 137km/h | 6251m | 5.0m/s | -16.3°C | 60.8% | 0hPa | 2.9V | 00:00:00 | 00:45:51 | 00:00:00 | |
| OE5MMP-10 | 2026-09-05 05:48:36 | 49.96025 | 14.79727 | 86° | 137km/h | 6245m | 6.5m/s | -16.4°C | 73.7% | 0hPa | 2.9V | 00:00:00 | 00:45:50 | 08:30:00 | |
| SP3BTT-10 | 2026-09-05 05:48:32 | 49.96019 | 14.79506 | 88° | 130km/h | 6221m | 4.1m/s | 0°C | 0% | 0hPa | 2.9V | 00:00:00 | 00:00:00 | 00:00:00 | |
| SONDE2-11 | 2026-09-05 05:48:30 | 49.96006 | 14.79303 | 80° | 139km/h | 6201m | 5.8m/s | -16.2°C | 82.9% | -1.0hPa | 2.9V | 00:00:00 | 00:00:00 | 00:00:00 | |
| DO3MHA-11 | 2026-09-05 05:48:27 | 49.95999 | 14.79247 | 80° | 148km/h | 6195m | 6.6m/s | -16.1°C | 89.9% | 0hPa | 2.9V | 00:00:00 | 00:45:41 | 08:30:00 | |
| OE5MMP-10 | 2026-09-05 05:48:26 | 49.95992 | 14.79189 | 80° | 151km/h | 6189m | 5.6m/s | -16.1°C | 90.3% | 0hPa | 2.9V | 00:00:00 | 00:45:40 | 00:00:00 | |
| OK1ALN | 2026-09-05 05:48:22 | 49.95974 | 14.79009 | 83° | 150km/h | 6170m | 4.8m/s | -15.9°C | 85.8% | 0hPa | 2.9V | 00:00:00 | 00:00:00 | 00:00:00 | |
| DH8WE-5 | 2026-09-05 05:48:09 | 49.95942 | 14.78280 | 82° | 139km/h | 6109m | 5.8m/s | 0°C | 0% | 0hPa | 2.9V | 00:00:00 | 00:00:00 | 00:00:00 | |
| DO3MHA-11 | 2026-09-05 05:48:07 | 49.95920 | 14.78110 | 78° | 146km/h | 6092m | 4.9m/s | -15.2°C | 99.1% | 0hPa | 2.9V | 00:00:00 | 00:45:21 | 00:00:00 | |
| OK1ALN | 2026-09-05 05:48:02 | 49.95899 | 14.77865 | 88° | 151km/h | 6073m | 5.0m/s | -15.1°C | 90.7% | 0hPa | 2.9V | 00:00:00 | 00:00:00 | 00:00:00 | |
| SONDE2-11 | 2026-09-05 05:47:59 | 49.95891 | 14.77648 | 82° | 130km/h | 6049m | 4.7m/s | -14.9°C | 86.9% | -1.0hPa | 2.9V | 00:00:00 | 00:00:00 | 00:00:00 | |
| DO3MHA-11 | 2026-09-05 05:47:57 | 49.95880 | 14.77547 | 79° | 146km/h | 6041m | 4.7m/s | -14.8°C | 92.6% | 0hPa | 2.9V | 00:00:00 | 00:45:11 | 00:00:00 | |
| DH8WE-5 | 2026-09-05 05:47:48 | 49.95843 | 14.77075 | 90° | 159km/h | 5984m | 8.0m/s | 0°C | 0% | 0hPa | 2.9V | 00:00:00 | 00:00:00 | 00:00:00 | |
| DO3MHA-11 | 2026-09-05 05:47:47 | 49.95841 | 14.76955 | 90° | 150km/h | 5969m | 5.6m/s | 0°C | 0% | 0hPa | 2.9V | 00:00:00 | 00:45:01 | 00:00:00 | |
| OK1ALN | 2026-09-05 05:47:42 | 49.95837 | 14.76729 | 88° | 144km/h | 5947m | 8.0m/s | -14.1°C | 87.1% | 0hPa | 2.9V | 00:00:00 | 00:00:00 | 00:00:00 | |
| ANDY1245 | 2026-09-05 05:47:38 | 49.95820 | 14.76495 | 83° | 155km/h | 5921m | 5.3m/s | 0°C | 0% | 0hPa | 2.9V | 00:00:00 | 00:00:00 | 00:00:00 | |
| DO3MHA-11 | 2026-09-05 05:47:36 | 49.95804 | 14.76322 | 81° | 142km/h | 5909m | 5.4m/s | 0°C | 0% | 0hPa | 2.9V | 00:00:00 | 00:44:50 | 00:00:00 | |
| SONDE2-11 | 2026-09-05 05:47:28 | 49.95750 | 14.75885 | 81° | 142km/h | 5871m | 4.8m/s | -13.5°C | 89.8% | -1.0hPa | 2.9V | 00:00:00 | 00:00:00 | 00:00:00 | |
| DH8WE-5 | 2026-09-05 05:47:27 | 49.95749 | 14.75885 | 82° | 142km/h | 5871m | 4.8m/s | 0°C | 0% | 0hPa | 2.9V | 00:00:00 | 00:00:00 | 00:00:00 | |
| DO3MHA-11 | 2026-09-05 05:47:26 | 49.95740 | 14.75773 | 84° | 144km/h | 5858m | 8.6m/s | 0°C | 0% | 0hPa | 2.9V | 00:00:00 | 00:44:40 | 00:00:00 | |
| OK1ALN | 2026-09-05 05:47:21 | 49.95731 | 14.75539 | 89° | 142km/h | 5831m | 5.6m/s | -13.2°C | 92.4% | 0hPa | 2.9V | 00:00:00 | 00:00:00 | 00:00:00 | |
| OE5MMP-10 | 2026-09-05 05:47:17 | 49.95719 | 14.75264 | 84° | 150km/h | 5800m | 4.4m/s | -13.0°C | 97.7% | 0hPa | 2.9V | 00:00:00 | 00:44:31 | 00:00:00 | |
| OE5MMP-10 | 2026-09-05 05:47:06 | 49.95677 | 14.74630 | 93° | 141km/h | 5743m | 4.9m/s | -12.6°C | 90.6% | 0hPa | 2.9V | 00:00:00 | 00:44:20 | 00:00:00 | |
| SONDE2-11 | 2026-09-05 05:46:57 | 49.95660 | 14.74136 | 85° | 142km/h | 5692m | 6.4m/s | 0°C | -1.0% | -1.0hPa | 0V | 00:00:00 | 00:00:00 | 00:00:00 | |
| OE5MMP-10 | 2026-09-05 05:46:56 | 49.95657 | 14.74081 | 85° | 139km/h | 5685m | 8.5m/s | -12.1°C | 87.6% | 0hPa | 0V | 00:00:00 | 00:44:10 | 00:00:00 | |
| DO3MHA-11 | 2026-09-05 05:46:53 | 49.95645 | 14.73927 | 83° | 144km/h | 5668m | 4.8m/s | 0°C | 0% | 0hPa | 0V | 00:00:00 | 00:44:07 | 08:30:00 | |
| OE5MMP-10 | 2026-09-05 05:46:46 | 49.95632 | 14.73533 | 89° | 148km/h | 5629m | 7.5m/s | 0°C | 0% | 0hPa | 0V | 00:00:00 | 00:44:00 | 00:00:00 | |
| DO3MHA-11 | 2026-09-05 05:46:43 | 49.95626 | 14.73347 | 88° | 141km/h | 5616m | 4.3m/s | 0°C | 0% | 0hPa | 0V | 00:00:00 | 00:43:57 | 00:00:00 | |
| OK1ALN | 2026-09-05 05:46:40 | 49.95623 | 14.73226 | 89° | 148km/h | 5607m | 5.5m/s | -11.5°C | 83.1% | 0hPa | 0V | 00:00:00 | 00:00:00 | 00:00:00 | |
| OE5MMP-10 | 2026-09-05 05:46:36 | 49.95624 | 14.72962 | 92° | 144km/h | 5580m | 6.6m/s | 0°C | 0% | 0hPa | 0V | 00:00:00 | 00:43:50 | 00:00:00 | |
| DO3MHA-11 | 2026-09-05 05:46:33 | 49.95622 | 14.72800 | 87° | 146km/h | 5561m | 7.6m/s | 0°C | 0% | 0hPa | 0V | 00:00:00 | 00:43:47 | 00:00:00 | |
| OE5MMP-10 | 2026-09-05 05:46:26 | 49.95593 | 14.72398 | 87° | 141km/h | 5531m | 4.7m/s | 0°C | 0% | 0hPa | 0V | 00:00:00 | 00:43:40 | 00:00:00 | |
| DO3MHA-11 | 2026-09-05 05:46:23 | 49.95590 | 14.72232 | 89° | 141km/h | 5514m | 5.8m/s | 0°C | 0% | 0hPa | 0V | 00:00:00 | 00:43:37 | 00:00:00 | |
| OK1ALN | 2026-09-05 05:46:20 | 49.95586 | 14.72131 | 86° | 131km/h | 5500m | 7.3m/s | -11.1°C | 85.7% | 0hPa | 0V | 00:00:00 | 00:00:00 | 00:00:00 | |
| OE5MMP-10 | 2026-09-05 05:46:16 | 49.95567 | 14.71851 | 87° | 146km/h | 5473m | 5.3m/s | 0°C | 0% | 0hPa | 0V | 00:00:00 | 00:43:30 | 00:00:00 | |
| DO3MHA-11 | 2026-09-05 05:46:13 | 49.95566 | 14.71673 | 93° | 151km/h | 5458m | 5.0m/s | 0°C | 0% | 0hPa | 0V | 00:00:00 | 00:43:27 | 00:00:00 | |
| OE5MMP-10 | 2026-09-05 05:46:06 | 49.95562 | 14.71286 | 91° | 120km/h | 5421m | 5.1m/s | 0°C | 0% | 0hPa | 0V | 00:00:00 | 00:43:20 | 00:00:00 | |
| OE3JTB-15 | 2026-09-05 05:46:00 | 49.95568 | 14.71000 | 90° | 135km/h | 5383m | 5.4m/s | -10.3°C | 89.2% | 0hPa | 0V | 00:00:00 | 00:00:00 | 00:00:00 | |
| DO3MHA-11 | 2026-09-05 05:45:57 | 49.95571 | 14.70836 | 95° | 141km/h | 5366m | 5.7m/s | 0°C | 0% | 0hPa | 0V | 00:00:00 | 00:43:11 | 00:00:00 | |
| DO3MHA-11 | 2026-09-05 05:45:42 | 49.95582 | 14.70044 | 97° | 133km/h | 5288m | 5.4m/s | 0°C | 0% | 0hPa | 0V | 00:00:00 | 00:42:56 | 00:00:00 | |
| OK1ALN | 2026-09-05 05:45:39 | 49.95588 | 14.69936 | 92° | 133km/h | 5278m | 5.1m/s | -9.8°C | 89.6% | 0hPa | 0V | 00:00:00 | 00:00:00 | 00:00:00 | |
| DO3MHA-11 | 2026-09-05 05:45:32 | 49.95569 | 14.69536 | 89° | 137km/h | 5245m | 5.6m/s | 0°C | 0% | 0hPa | 0V | 00:00:00 | 00:42:46 | 00:00:00 | |
| OE3JTB-15 | 2026-09-05 05:45:31 | 49.95568 | 14.69482 | 91° | 141km/h | 5238m | 7.9m/s | -9.5°C | 97.6% | 0hPa | 0V | 00:00:00 | 00:42:45 | 00:00:00 | |
| OK1ALN | 2026-09-05 05:45:18 | 49.95551 | 14.68801 | 82° | 135km/h | 5170m | 4.9m/s | -9.3°C | 93.0% | 0hPa | 0V | 00:00:00 | 00:00:00 | 00:00:00 | |
| ANDY1245 | 2026-09-05 05:45:10 | 49.95529 | 14.68344 | 93° | 141km/h | 5132m | 6.4m/s | 0°C | 0% | 0hPa | 0V | 00:00:00 | 00:00:00 | 00:00:00 | |
| OE3JTB-15 | 2026-09-05 05:44:58 | 49.95490 | 14.67644 | 83° | 133km/h | 5053m | 5.2m/s | 0°C | 0% | 0hPa | 0V | 00:00:00 | 00:00:00 | 00:00:00 | |
| OK1ALN | 2026-09-05 05:44:38 | 49.95469 | 14.66647 | 91° | 131km/h | 4948m | 4.9m/s | -9.0°C | 65.7% | 0hPa | 0V | 00:00:00 | 00:00:00 | 00:00:00 | |
| OK1ALN | 2026-09-05 05:44:18 | 49.95501 | 14.65613 | 99° | 142km/h | 4834m | 7.4m/s | -9.5°C | 89.1% | 0hPa | 0V | 00:00:00 | 00:00:00 | 00:00:00 | |
| OK1ALN | 2026-09-05 05:43:57 | 49.95614 | 14.64538 | 103° | 141km/h | 4725m | 7.0m/s | -8.5°C | 82.5% | 0hPa | 0V | 00:00:00 | 00:00:00 | 00:00:00 | |
| OK1ALN | 2026-09-05 05:43:36 | 49.95723 | 14.63474 | 99° | 110km/h | 4602m | 4.7m/s | -7.8°C | 75.6% | 0hPa | 0V | 00:00:00 | 00:00:00 | 00:00:00 | |
| DO3MHA-11 | 2026-09-05 05:43:27 | 49.95772 | 14.62993 | 109° | 117km/h | 4555m | 5.2m/s | 0°C | 0% | 0hPa | 0V | 00:00:00 | 00:40:41 | 00:00:00 | |
| OE3JTB-15 | 2026-09-05 05:43:19 | 49.95824 | 14.62655 | 100° | 119km/h | 4511m | 6.5m/s | 0°C | 0% | 0hPa | 0V | 00:00:00 | 00:40:33 | 00:00:00 | |
| OK1ALN | 2026-09-05 05:43:15 | 49.95845 | 14.62514 | 107° | 122km/h | 4493m | 4.8m/s | -7.3°C | 65.4% | 0hPa | 0V | 00:00:00 | 00:00:00 | 00:00:00 | |
| DO3MHA-11 | 2026-09-05 05:43:14 | 49.95862 | 14.62425 | 109° | 113km/h | 4481m | 8.8m/s | 0°C | 0% | 0hPa | 0V | 00:00:00 | 00:40:28 | 00:00:00 | |
| OK1ALN | 2026-09-05 05:42:55 | 49.96015 | 14.61656 | 106° | 119km/h | 4383m | 6.1m/s | -6.3°C | 56.0% | 0hPa | 0V | 00:00:00 | 00:00:00 | 00:00:00 | |
| OE3JTB-15 | 2026-09-05 05:42:48 | 49.96080 | 14.61286 | 101° | 108km/h | 4345m | 5.1m/s | 0°C | 0% | 0hPa | 0V | 00:00:00 | 00:00:00 | 00:00:00 | |
| ANDY1245 | 2026-09-05 05:42:42 | 49.96105 | 14.61083 | 107° | 97km/h | 4320m | 4.3m/s | 0°C | 0% | 0hPa | 0V | 00:00:00 | 00:00:00 | 00:00:00 | |
| OK1ALN | 2026-09-05 05:42:34 | 49.96177 | 14.60756 | 103° | 115km/h | 4279m | 6.0m/s | -5.4°C | 50.4% | 0hPa | 0V | 00:00:00 | 00:00:00 | 00:00:00 | |
| DH8WE-5 | 2026-09-05 05:42:23 | 49.96261 | 14.60325 | 103° | 104km/h | 4221m | 4.9m/s | 0°C | 0% | 0hPa | 0V | 00:00:00 | 00:00:00 | 00:00:00 | |
| OE3JTB-15 | 2026-09-05 05:42:19 | 49.96295 | 14.60140 | 113° | 97km/h | 4193m | 5.9m/s | 0°C | 0% | 0hPa | 0V | 00:00:00 | 00:00:00 | 00:00:00 | |
| OK1ALN | 2026-09-05 05:42:14 | 49.96327 | 14.59991 | 103° | 95km/h | 4173m | 4.6m/s | -4.7°C | 36.1% | 0hPa | 0V | 00:00:00 | 00:00:00 | 00:00:00 | |
| ANDY1245 | 2026-09-05 05:42:12 | 49.96337 | 14.59923 | 105° | 84km/h | 4162m | 7.3m/s | 0°C | 0% | 0hPa | 0V | 00:00:00 | 00:00:00 | 00:00:00 | |
| DH8WE-5 | 2026-09-05 05:42:01 | 49.96428 | 14.59543 | 110° | 86km/h | 4110m | 4.4m/s | 0°C | 0% | 0hPa | 0V | 00:00:00 | 00:00:00 | 00:00:00 | |
| OK1ALN | 2026-09-05 05:41:53 | 49.96504 | 14.59268 | 108° | 91km/h | 4064m | 6.3m/s | -3.9°C | 24.1% | 0hPa | 0V | 00:00:00 | 00:00:00 | 00:00:00 | |
| OK1ALN | 2026-09-05 05:41:33 | 49.96663 | 14.58672 | 124° | 77km/h | 3949m | 8.6m/s | -3.6°C | 7.9% | 0hPa | 0V | 00:00:00 | 00:00:00 | 00:00:00 | |
| OE3JTB-15 | 2026-09-05 05:41:12 | 49.96886 | 14.58110 | 114° | 84km/h | 3837m | 5.9m/s | 0°C | 0% | 0hPa | 0V | 00:00:00 | 00:38:26 | 00:00:00 | |
| OK1ALN | 2026-09-05 05:40:52 | 49.97077 | 14.57617 | 122° | 71km/h | 3727m | 5.5m/s | -2.7°C | 17.4% | 0hPa | 0V | 00:00:00 | 00:00:00 | 00:00:00 | |
| OK1ALN | 2026-09-05 05:40:31 | 49.97266 | 14.57026 | 120° | 66km/h | 3611m | 5.8m/s | -2.4°C | 10.5% | 0hPa | 0V | 00:00:00 | 00:00:00 | 00:00:00 | |
| OK1ALN | 2026-09-05 05:40:10 | 49.97467 | 14.56539 | 132° | 80km/h | 3492m | 6.5m/s | -1.7°C | 9.1% | 0hPa | 0V | 00:00:00 | 00:00:00 | 00:00:00 | |
| OK1ALN | 2026-09-05 05:39:49 | 49.97714 | 14.55970 | 121° | 88km/h | 3370m | 4.4m/s | -1.5°C | 11.1% | 0hPa | 0V | 00:00:00 | 00:00:00 | 00:00:00 | |
| OE3JTB-15 | 2026-09-05 05:39:35 | 49.97891 | 14.55575 | 126° | 88km/h | 3293m | 4.8m/s | 0°C | 0% | 0hPa | 0V | 00:00:00 | 00:00:00 | 00:00:00 | |
| OK1ALN | 2026-09-05 05:39:29 | 49.97948 | 14.55436 | 125° | 73km/h | 3267m | 6.1m/s | -0.8°C | 12.3% | 0hPa | 0V | 00:00:00 | 00:00:00 | 00:00:00 | |
| OK1ALN | 2026-09-05 05:39:09 | 49.98173 | 14.54903 | 123° | 95km/h | 3155m | 5.8m/s | -0.3°C | 17.3% | 0hPa | 0V | 00:00:00 | 00:00:00 | 00:00:00 | |
| OE3JTB-15 | 2026-09-05 05:38:52 | 49.98384 | 14.54389 | 114° | 88km/h | 3060m | 4.6m/s | 0°C | 0% | 0hPa | 0V | 00:00:00 | 00:00:00 | 00:00:00 | |
| OK1ALN | 2026-09-05 05:38:48 | 49.98408 | 14.54303 | 114° | 78km/h | 3044m | 5.8m/s | 0.5°C | 24.2% | 0hPa | 0V | 00:00:00 | 00:00:00 | 00:00:00 | |
| OK1ALN | 2026-09-05 05:38:27 | 49.98651 | 14.53684 | 134° | 86km/h | 2934m | 5.1m/s | 1.0°C | 31.7% | 0hPa | 0V | 00:00:00 | 00:00:00 | 00:00:00 | |
| OE3JTB-15 | 2026-09-05 05:38:22 | 49.98734 | 14.53506 | 118° | 88km/h | 2900m | 7.6m/s | 0°C | 0% | 0hPa | 0V | 00:00:00 | 00:35:36 | 00:00:00 | |
| OK1ALN | 2026-09-05 05:38:06 | 49.98903 | 14.53060 | 123° | 91km/h | 2811m | 6.8m/s | 1.9°C | 31.4% | 0hPa | 0V | 00:00:00 | 00:00:00 | 00:00:00 | |
| OK1ALN | 2026-09-05 05:37:46 | 49.99107 | 14.52456 | 123° | 82km/h | 2691m | 5.4m/s | 2.8°C | 19.9% | 0hPa | 0V | 00:00:00 | 00:00:00 | 00:00:00 | |
| OE3JTB-15 | 2026-09-05 05:37:41 | 49.99165 | 14.52277 | 109° | 77km/h | 2655m | 6.4m/s | 0°C | 0% | 0hPa | 0V | 00:00:00 | 00:00:00 | 00:00:00 | |
| OK1ALN | 2026-09-05 05:37:25 | 49.99306 | 14.51847 | 115° | 80km/h | 2562m | 5.8m/s | 3.2°C | 49.5% | 0hPa | 0V | 00:00:00 | 00:00:00 | 00:00:00 | |
| OK1ALN | 2026-09-05 05:37:04 | 49.99482 | 14.51238 | 119° | 93km/h | 2444m | 5.3m/s | 3.7°C | 59.5% | 0hPa | 0V | 00:00:00 | 00:00:00 | 00:00:00 | |
| OK1ALN | 2026-09-05 05:36:44 | 49.99665 | 14.50675 | 121° | 80km/h | 2332m | 3.7m/s | 4.1°C | 76.6% | 0hPa | 0V | 00:00:00 | 00:00:00 | 00:00:00 | |
| OK1ALN | 2026-09-05 05:36:23 | 49.99847 | 14.50119 | 112° | 64km/h | 2216m | 5.3m/s | 5.0°C | 49.8% | 0hPa | 0V | 00:00:00 | 00:00:00 | 00:00:00 | |
| OK1ALN | 2026-09-05 05:36:02 | 50.00042 | 14.49634 | 115° | 62km/h | 2112m | 4.7m/s | 5.1°C | 34.5% | 0hPa | 0V | 00:00:00 | 00:00:00 | 00:00:00 | |
| OK1ALN | 2026-09-05 05:35:42 | 50.00207 | 14.49232 | 119° | 57km/h | 1999m | 7.1m/s | 5.9°C | 0% | 0hPa | 0V | 00:00:00 | 00:00:00 | 00:00:00 | |
| OK1ALN | 2026-09-05 05:35:21 | 50.00349 | 14.48880 | 121° | 53km/h | 1889m | 5.8m/s | 5.7°C | 0% | 0hPa | 0V | 00:00:00 | 00:00:00 | 00:00:00 | |
| OK1ALN | 2026-09-05 05:35:00 | 50.00479 | 14.48524 | 120° | 55km/h | 1783m | 4.9m/s | 5.7°C | 0% | 0hPa | 0V | 00:00:00 | 00:00:00 | 00:00:00 | |
| OK1ALN | 2026-09-05 05:34:37 | 50.00579 | 14.48199 | 121° | 31km/h | 1662m | 4.6m/s | 5.7°C | 0% | 0hPa | 0V | 00:00:00 | 00:00:00 | 00:00:00 | |
| OK1ALN | 2026-09-05 05:34:16 | 50.00627 | 14.47946 | 100° | 38km/h | 1556m | 4.8m/s | 0°C | 0% | 0hPa | 0V | 00:00:00 | 00:00:00 | 00:00:00 | |
| OK1ALN | 2026-09-05 05:32:32 | 50.00892 | 14.46519 | 104° | 35km/h | 1050m | 5.2m/s | 0°C | 0% | 0hPa | 0V | 00:00:00 | 00:00:00 | 00:00:00 |